<?xml version="1.0" encoding="UTF-8" standalone="no" ?>
<gpx xmlns="http://www.topografix.com/GPX/1/1" xmlns:xsi="http://www.w3.org/2001/XMLSchema-instance" xsi:schemaLocation="http://www.topografix.com/GPX/1/1 http://www.topografix.com/GPX/1/1/gpx.xsd" version="1.1" creator="VisuGPX - https://www.visugpx.com">
  <metadata>
    <name>premiere partie voyage</name>
  </metadata>
  <trk>
    <name><![CDATA[Jour 6 - Pornic / La Chapelle des Marais]]></name>
    <trkseg>
      <trkpt lat="47.09737" lon="-2.05292">
        <ele>31.7</ele>
        <time>2020-06-05T10:33:30Z</time>
      </trkpt>
      <trkpt lat="47.09737" lon="-2.05293">
        <ele>31.7</ele>
        <time>2020-06-05T10:33:31Z</time>
      </trkpt>
      <trkpt lat="47.09738" lon="-2.05293">
        <ele>31.7</ele>
        <time>2020-06-05T10:33:32Z</time>
      </trkpt>
      <trkpt lat="47.09739" lon="-2.05293">
        <ele>31.7</ele>
        <time>2020-06-05T10:33:33Z</time>
      </trkpt>
      <trkpt lat="47.0974" lon="-2.05292">
        <ele>31.7</ele>
        <time>2020-06-05T10:33:34Z</time>
      </trkpt>
      <trkpt lat="47.09741" lon="-2.05292">
        <ele>31.7</ele>
        <time>2020-06-05T10:33:35Z</time>
      </trkpt>
      <trkpt lat="47.09742" lon="-2.05292">
        <ele>31.8</ele>
        <time>2020-06-05T10:33:36Z</time>
      </trkpt>
      <trkpt lat="47.09743" lon="-2.05292">
        <ele>31.8</ele>
        <time>2020-06-05T10:33:37Z</time>
      </trkpt>
      <trkpt lat="47.09743" lon="-2.05292">
        <ele>31.8</ele>
        <time>2020-06-05T10:33:38Z</time>
      </trkpt>
      <trkpt lat="47.09744" lon="-2.05292">
        <ele>31.8</ele>
        <time>2020-06-05T10:33:39Z</time>
      </trkpt>
      <trkpt lat="47.09745" lon="-2.05292">
        <ele>31.8</ele>
        <time>2020-06-05T10:33:40Z</time>
      </trkpt>
      <trkpt lat="47.09746" lon="-2.05292">
        <ele>31.8</ele>
        <time>2020-06-05T10:33:44Z</time>
      </trkpt>
      <trkpt lat="47.09747" lon="-2.05291">
        <ele>31.8</ele>
        <time>2020-06-05T10:33:45Z</time>
      </trkpt>
      <trkpt lat="47.09748" lon="-2.05291">
        <ele>31.8</ele>
        <time>2020-06-05T10:33:46Z</time>
      </trkpt>
      <trkpt lat="47.09751" lon="-2.0529">
        <ele>31.8</ele>
        <time>2020-06-05T10:33:47Z</time>
      </trkpt>
      <trkpt lat="47.09753" lon="-2.05289">
        <ele>31.9</ele>
        <time>2020-06-05T10:33:48Z</time>
      </trkpt>
      <trkpt lat="47.09756" lon="-2.05287">
        <ele>31.9</ele>
        <time>2020-06-05T10:33:49Z</time>
      </trkpt>
      <trkpt lat="47.09757" lon="-2.05287">
        <ele>31.9</ele>
        <time>2020-06-05T10:33:50Z</time>
      </trkpt>
      <trkpt lat="47.09758" lon="-2.05284">
        <ele>31.9</ele>
        <time>2020-06-05T10:33:51Z</time>
      </trkpt>
      <trkpt lat="47.09758" lon="-2.05282">
        <ele>31.9</ele>
        <time>2020-06-05T10:33:52Z</time>
      </trkpt>
      <trkpt lat="47.09759" lon="-2.05281">
        <ele>31.8</ele>
        <time>2020-06-05T10:33:53Z</time>
      </trkpt>
      <trkpt lat="47.0976" lon="-2.0528">
        <ele>31.8</ele>
        <time>2020-06-05T10:33:54Z</time>
      </trkpt>
      <trkpt lat="47.09761" lon="-2.05279">
        <ele>31.7</ele>
        <time>2020-06-05T10:33:55Z</time>
      </trkpt>
      <trkpt lat="47.0976" lon="-2.05277">
        <ele>31.7</ele>
        <time>2020-06-05T10:33:56Z</time>
      </trkpt>
      <trkpt lat="47.0976" lon="-2.05275">
        <ele>31.7</ele>
        <time>2020-06-05T10:33:57Z</time>
      </trkpt>
      <trkpt lat="47.0976" lon="-2.05274">
        <ele>31.6</ele>
        <time>2020-06-05T10:33:58Z</time>
      </trkpt>
      <trkpt lat="47.0976" lon="-2.05273">
        <ele>31.6</ele>
        <time>2020-06-05T10:33:59Z</time>
      </trkpt>
      <trkpt lat="47.0976" lon="-2.05267">
        <ele>31.4</ele>
        <time>2020-06-05T10:34:00Z</time>
      </trkpt>
      <trkpt lat="47.09759" lon="-2.05265">
        <ele>31.3</ele>
        <time>2020-06-05T10:34:01Z</time>
      </trkpt>
      <trkpt lat="47.09758" lon="-2.05261">
        <ele>31.2</ele>
        <time>2020-06-05T10:34:02Z</time>
      </trkpt>
      <trkpt lat="47.09757" lon="-2.05257">
        <ele>31</ele>
        <time>2020-06-05T10:34:03Z</time>
      </trkpt>
      <trkpt lat="47.09757" lon="-2.05252">
        <ele>30.9</ele>
        <time>2020-06-05T10:34:04Z</time>
      </trkpt>
      <trkpt lat="47.09755" lon="-2.05247">
        <ele>30.7</ele>
        <time>2020-06-05T10:34:05Z</time>
      </trkpt>
      <trkpt lat="47.09752" lon="-2.05243">
        <ele>30.5</ele>
        <time>2020-06-05T10:34:06Z</time>
      </trkpt>
      <trkpt lat="47.0975" lon="-2.05237">
        <ele>30</ele>
        <time>2020-06-05T10:34:07Z</time>
      </trkpt>
      <trkpt lat="47.09751" lon="-2.05233">
        <ele>30</ele>
        <time>2020-06-05T10:34:08Z</time>
      </trkpt>
      <trkpt lat="47.09754" lon="-2.0523">
        <ele>30.2</ele>
        <time>2020-06-05T10:34:09Z</time>
      </trkpt>
      <trkpt lat="47.09757" lon="-2.05228">
        <ele>30.3</ele>
        <time>2020-06-05T10:34:10Z</time>
      </trkpt>
      <trkpt lat="47.09761" lon="-2.05227">
        <ele>30.4</ele>
        <time>2020-06-05T10:34:11Z</time>
      </trkpt>
      <trkpt lat="47.09764" lon="-2.05225">
        <ele>30.5</ele>
        <time>2020-06-05T10:34:12Z</time>
      </trkpt>
      <trkpt lat="47.09766" lon="-2.05222">
        <ele>30.5</ele>
        <time>2020-06-05T10:34:13Z</time>
      </trkpt>
      <trkpt lat="47.09769" lon="-2.0522">
        <ele>30.6</ele>
        <time>2020-06-05T10:34:14Z</time>
      </trkpt>
      <trkpt lat="47.09771" lon="-2.05217">
        <ele>30.7</ele>
        <time>2020-06-05T10:34:15Z</time>
      </trkpt>
      <trkpt lat="47.09773" lon="-2.05216">
        <ele>30.8</ele>
        <time>2020-06-05T10:34:16Z</time>
      </trkpt>
      <trkpt lat="47.09774" lon="-2.05217">
        <ele>30.8</ele>
        <time>2020-06-05T10:34:17Z</time>
      </trkpt>
      <trkpt lat="47.09778" lon="-2.05218">
        <ele>30.9</ele>
        <time>2020-06-05T10:34:18Z</time>
      </trkpt>
      <trkpt lat="47.09779" lon="-2.05218">
        <ele>30.9</ele>
        <time>2020-06-05T10:34:19Z</time>
      </trkpt>
      <trkpt lat="47.09782" lon="-2.05218">
        <ele>31</ele>
        <time>2020-06-05T10:34:20Z</time>
      </trkpt>
      <trkpt lat="47.09783" lon="-2.05218">
        <ele>31</ele>
        <time>2020-06-05T10:34:21Z</time>
      </trkpt>
      <trkpt lat="47.09785" lon="-2.05218">
        <ele>31.1</ele>
        <time>2020-06-05T10:34:22Z</time>
      </trkpt>
      <trkpt lat="47.09787" lon="-2.05218">
        <ele>31.1</ele>
        <time>2020-06-05T10:34:23Z</time>
      </trkpt>
      <trkpt lat="47.09789" lon="-2.05218">
        <ele>31.2</ele>
        <time>2020-06-05T10:34:24Z</time>
      </trkpt>
      <trkpt lat="47.0979" lon="-2.05218">
        <ele>31.2</ele>
        <time>2020-06-05T10:34:25Z</time>
      </trkpt>
      <trkpt lat="47.09791" lon="-2.05218">
        <ele>31.2</ele>
        <time>2020-06-05T10:34:26Z</time>
      </trkpt>
      <trkpt lat="47.09791" lon="-2.05217">
        <ele>31.2</ele>
        <time>2020-06-05T10:34:27Z</time>
      </trkpt>
      <trkpt lat="47.09791" lon="-2.05217">
        <ele>31.3</ele>
        <time>2020-06-05T10:34:28Z</time>
      </trkpt>
      <trkpt lat="47.09791" lon="-2.05217">
        <ele>31.3</ele>
        <time>2020-06-05T10:34:29Z</time>
      </trkpt>
      <trkpt lat="47.09791" lon="-2.05217">
        <ele>31.3</ele>
        <time>2020-06-05T10:34:30Z</time>
      </trkpt>
      <trkpt lat="47.09792" lon="-2.05216">
        <ele>31.3</ele>
        <time>2020-06-05T10:34:31Z</time>
      </trkpt>
      <trkpt lat="47.09792" lon="-2.05216">
        <ele>31.3</ele>
        <time>2020-06-05T10:34:32Z</time>
      </trkpt>
      <trkpt lat="47.09793" lon="-2.05216">
        <ele>31.3</ele>
        <time>2020-06-05T10:34:33Z</time>
      </trkpt>
      <trkpt lat="47.09793" lon="-2.05215">
        <ele>31.3</ele>
        <time>2020-06-05T10:34:34Z</time>
      </trkpt>
      <trkpt lat="47.09793" lon="-2.05215">
        <ele>31.3</ele>
        <time>2020-06-05T10:34:35Z</time>
      </trkpt>
      <trkpt lat="47.09793" lon="-2.05215">
        <ele>31.3</ele>
        <time>2020-06-05T10:34:36Z</time>
      </trkpt>
      <trkpt lat="47.09793" lon="-2.05215">
        <ele>31.3</ele>
        <time>2020-06-05T10:34:37Z</time>
      </trkpt>
      <trkpt lat="47.09793" lon="-2.05215">
        <ele>31.3</ele>
        <time>2020-06-05T10:34:38Z</time>
      </trkpt>
      <trkpt lat="47.09793" lon="-2.05215">
        <ele>31.3</ele>
        <time>2020-06-05T10:34:39Z</time>
      </trkpt>
      <trkpt lat="47.0979" lon="-2.05223">
        <ele>31.1</ele>
        <time>2020-06-05T10:35:55Z</time>
      </trkpt>
      <trkpt lat="47.09789" lon="-2.05224">
        <ele>31.1</ele>
        <time>2020-06-05T10:35:56Z</time>
      </trkpt>
      <trkpt lat="47.09789" lon="-2.05223">
        <ele>31.1</ele>
        <time>2020-06-05T10:35:57Z</time>
      </trkpt>
      <trkpt lat="47.09789" lon="-2.05222">
        <ele>31.1</ele>
        <time>2020-06-05T10:35:58Z</time>
      </trkpt>
      <trkpt lat="47.09788" lon="-2.05222">
        <ele>31.1</ele>
        <time>2020-06-05T10:35:59Z</time>
      </trkpt>
      <trkpt lat="47.09788" lon="-2.05222">
        <ele>31.1</ele>
        <time>2020-06-05T10:36:00Z</time>
      </trkpt>
      <trkpt lat="47.09789" lon="-2.05222">
        <ele>31.1</ele>
        <time>2020-06-05T10:36:01Z</time>
      </trkpt>
      <trkpt lat="47.09789" lon="-2.05223">
        <ele>31.1</ele>
        <time>2020-06-05T10:36:02Z</time>
      </trkpt>
      <trkpt lat="47.09788" lon="-2.05224">
        <ele>31.1</ele>
        <time>2020-06-05T10:36:03Z</time>
      </trkpt>
      <trkpt lat="47.09788" lon="-2.05225">
        <ele>31.1</ele>
        <time>2020-06-05T10:36:04Z</time>
      </trkpt>
      <trkpt lat="47.09788" lon="-2.05226">
        <ele>31.1</ele>
        <time>2020-06-05T10:36:05Z</time>
      </trkpt>
      <trkpt lat="47.09788" lon="-2.05226">
        <ele>31.1</ele>
        <time>2020-06-05T10:36:06Z</time>
      </trkpt>
      <trkpt lat="47.09788" lon="-2.05226">
        <ele>31.1</ele>
        <time>2020-06-05T10:36:07Z</time>
      </trkpt>
      <trkpt lat="47.09787" lon="-2.05226">
        <ele>31.1</ele>
        <time>2020-06-05T10:36:08Z</time>
      </trkpt>
      <trkpt lat="47.09787" lon="-2.05226">
        <ele>31.1</ele>
        <time>2020-06-05T10:36:09Z</time>
      </trkpt>
      <trkpt lat="47.09787" lon="-2.05226">
        <ele>31.1</ele>
        <time>2020-06-05T10:36:10Z</time>
      </trkpt>
      <trkpt lat="47.09787" lon="-2.05226">
        <ele>31.1</ele>
        <time>2020-06-05T10:36:11Z</time>
      </trkpt>
      <trkpt lat="47.09786" lon="-2.05227">
        <ele>31.1</ele>
        <time>2020-06-05T10:36:12Z</time>
      </trkpt>
      <trkpt lat="47.09786" lon="-2.05227">
        <ele>31.1</ele>
        <time>2020-06-05T10:36:13Z</time>
      </trkpt>
      <trkpt lat="47.09785" lon="-2.05226">
        <ele>31.2</ele>
        <time>2020-06-05T10:36:14Z</time>
      </trkpt>
      <trkpt lat="47.09785" lon="-2.05227">
        <ele>31.2</ele>
        <time>2020-06-05T10:36:15Z</time>
      </trkpt>
      <trkpt lat="47.09784" lon="-2.05227">
        <ele>31.2</ele>
        <time>2020-06-05T10:36:16Z</time>
      </trkpt>
      <trkpt lat="47.09784" lon="-2.05227">
        <ele>31.2</ele>
        <time>2020-06-05T10:36:17Z</time>
      </trkpt>
      <trkpt lat="47.09784" lon="-2.05227">
        <ele>31.2</ele>
        <time>2020-06-05T10:36:18Z</time>
      </trkpt>
      <trkpt lat="47.09784" lon="-2.05227">
        <ele>31.2</ele>
        <time>2020-06-05T10:36:19Z</time>
      </trkpt>
      <trkpt lat="47.09784" lon="-2.05227">
        <ele>31.2</ele>
        <time>2020-06-05T10:36:20Z</time>
      </trkpt>
      <trkpt lat="47.09784" lon="-2.05226">
        <ele>31.2</ele>
        <time>2020-06-05T10:36:21Z</time>
      </trkpt>
      <trkpt lat="47.09783" lon="-2.05225">
        <ele>31.2</ele>
        <time>2020-06-05T10:36:22Z</time>
      </trkpt>
      <trkpt lat="47.09783" lon="-2.05227">
        <ele>31.2</ele>
        <time>2020-06-05T10:36:23Z</time>
      </trkpt>
      <trkpt lat="47.09782" lon="-2.05227">
        <ele>31.2</ele>
        <time>2020-06-05T10:36:24Z</time>
      </trkpt>
      <trkpt lat="47.09783" lon="-2.05227">
        <ele>31.2</ele>
        <time>2020-06-05T10:36:25Z</time>
      </trkpt>
      <trkpt lat="47.09783" lon="-2.05226">
        <ele>31.2</ele>
        <time>2020-06-05T10:36:26Z</time>
      </trkpt>
      <trkpt lat="47.09783" lon="-2.05227">
        <ele>31.2</ele>
        <time>2020-06-05T10:36:27Z</time>
      </trkpt>
      <trkpt lat="47.09782" lon="-2.05227">
        <ele>31.2</ele>
        <time>2020-06-05T10:36:28Z</time>
      </trkpt>
      <trkpt lat="47.09782" lon="-2.05227">
        <ele>31.2</ele>
        <time>2020-06-05T10:36:29Z</time>
      </trkpt>
      <trkpt lat="47.09782" lon="-2.05225">
        <ele>31.2</ele>
        <time>2020-06-05T10:36:30Z</time>
      </trkpt>
      <trkpt lat="47.09782" lon="-2.05224">
        <ele>31.2</ele>
        <time>2020-06-05T10:36:31Z</time>
      </trkpt>
      <trkpt lat="47.09782" lon="-2.05224">
        <ele>31.2</ele>
        <time>2020-06-05T10:36:32Z</time>
      </trkpt>
      <trkpt lat="47.09782" lon="-2.05223">
        <ele>31.2</ele>
        <time>2020-06-05T10:36:33Z</time>
      </trkpt>
      <trkpt lat="47.09783" lon="-2.05222">
        <ele>31.2</ele>
        <time>2020-06-05T10:36:34Z</time>
      </trkpt>
      <trkpt lat="47.09783" lon="-2.05221">
        <ele>31.2</ele>
        <time>2020-06-05T10:36:35Z</time>
      </trkpt>
      <trkpt lat="47.09783" lon="-2.0522">
        <ele>31.2</ele>
        <time>2020-06-05T10:36:36Z</time>
      </trkpt>
      <trkpt lat="47.09783" lon="-2.05219">
        <ele>31.2</ele>
        <time>2020-06-05T10:36:37Z</time>
      </trkpt>
      <trkpt lat="47.09783" lon="-2.05218">
        <ele>31.2</ele>
        <time>2020-06-05T10:36:38Z</time>
      </trkpt>
      <trkpt lat="47.09783" lon="-2.05217">
        <ele>31.2</ele>
        <time>2020-06-05T10:37:09Z</time>
      </trkpt>
      <trkpt lat="47.09783" lon="-2.05217">
        <ele>31.2</ele>
        <time>2020-06-05T10:37:10Z</time>
      </trkpt>
      <trkpt lat="47.09784" lon="-2.05216">
        <ele>31.2</ele>
        <time>2020-06-05T10:37:11Z</time>
      </trkpt>
      <trkpt lat="47.09785" lon="-2.05214">
        <ele>31.2</ele>
        <time>2020-06-05T10:37:12Z</time>
      </trkpt>
      <trkpt lat="47.09786" lon="-2.05214">
        <ele>31.2</ele>
        <time>2020-06-05T10:37:13Z</time>
      </trkpt>
      <trkpt lat="47.09787" lon="-2.05213">
        <ele>31.2</ele>
        <time>2020-06-05T10:37:14Z</time>
      </trkpt>
      <trkpt lat="47.09787" lon="-2.05213">
        <ele>31.2</ele>
        <time>2020-06-05T10:37:15Z</time>
      </trkpt>
      <trkpt lat="47.09788" lon="-2.05212">
        <ele>31.2</ele>
        <time>2020-06-05T10:37:16Z</time>
      </trkpt>
      <trkpt lat="47.09788" lon="-2.05211">
        <ele>31.2</ele>
        <time>2020-06-05T10:37:17Z</time>
      </trkpt>
      <trkpt lat="47.09788" lon="-2.0521">
        <ele>31.2</ele>
        <time>2020-06-05T10:37:18Z</time>
      </trkpt>
      <trkpt lat="47.09788" lon="-2.0521">
        <ele>31.2</ele>
        <time>2020-06-05T10:37:19Z</time>
      </trkpt>
      <trkpt lat="47.09788" lon="-2.0521">
        <ele>31.2</ele>
        <time>2020-06-05T10:37:20Z</time>
      </trkpt>
      <trkpt lat="47.09788" lon="-2.05209">
        <ele>31.2</ele>
        <time>2020-06-05T10:37:21Z</time>
      </trkpt>
      <trkpt lat="47.09788" lon="-2.05208">
        <ele>31.1</ele>
        <time>2020-06-05T10:37:22Z</time>
      </trkpt>
      <trkpt lat="47.09788" lon="-2.05208">
        <ele>31.1</ele>
        <time>2020-06-05T10:37:23Z</time>
      </trkpt>
      <trkpt lat="47.09788" lon="-2.05207">
        <ele>31.1</ele>
        <time>2020-06-05T10:37:24Z</time>
      </trkpt>
      <trkpt lat="47.09788" lon="-2.05206">
        <ele>31.1</ele>
        <time>2020-06-05T10:37:25Z</time>
      </trkpt>
      <trkpt lat="47.09788" lon="-2.05206">
        <ele>31.1</ele>
        <time>2020-06-05T10:37:26Z</time>
      </trkpt>
      <trkpt lat="47.09789" lon="-2.05206">
        <ele>31.1</ele>
        <time>2020-06-05T10:37:27Z</time>
      </trkpt>
      <trkpt lat="47.09789" lon="-2.05206">
        <ele>31.1</ele>
        <time>2020-06-05T10:37:28Z</time>
      </trkpt>
      <trkpt lat="47.09789" lon="-2.05206">
        <ele>31.1</ele>
        <time>2020-06-05T10:37:29Z</time>
      </trkpt>
      <trkpt lat="47.0979" lon="-2.05206">
        <ele>31.1</ele>
        <time>2020-06-05T10:37:30Z</time>
      </trkpt>
      <trkpt lat="47.09789" lon="-2.05206">
        <ele>31.1</ele>
        <time>2020-06-05T10:37:31Z</time>
      </trkpt>
      <trkpt lat="47.09789" lon="-2.05206">
        <ele>31.1</ele>
        <time>2020-06-05T10:37:32Z</time>
      </trkpt>
      <trkpt lat="47.09789" lon="-2.05205">
        <ele>31</ele>
        <time>2020-06-05T10:37:33Z</time>
      </trkpt>
      <trkpt lat="47.09789" lon="-2.05205">
        <ele>31</ele>
        <time>2020-06-05T10:37:34Z</time>
      </trkpt>
      <trkpt lat="47.09789" lon="-2.05205">
        <ele>31</ele>
        <time>2020-06-05T10:37:35Z</time>
      </trkpt>
      <trkpt lat="47.09789" lon="-2.05205">
        <ele>31</ele>
        <time>2020-06-05T10:37:36Z</time>
      </trkpt>
      <trkpt lat="47.09789" lon="-2.05205">
        <ele>31</ele>
        <time>2020-06-05T10:37:37Z</time>
      </trkpt>
      <trkpt lat="47.09789" lon="-2.05204">
        <ele>31</ele>
        <time>2020-06-05T10:37:38Z</time>
      </trkpt>
      <trkpt lat="47.09788" lon="-2.05205">
        <ele>31</ele>
        <time>2020-06-05T10:37:39Z</time>
      </trkpt>
      <trkpt lat="47.09782" lon="-2.05207">
        <ele>30.9</ele>
        <time>2020-06-05T10:37:43Z</time>
      </trkpt>
      <trkpt lat="47.0978" lon="-2.05208">
        <ele>30.8</ele>
        <time>2020-06-05T10:37:44Z</time>
      </trkpt>
      <trkpt lat="47.09777" lon="-2.05208">
        <ele>30.7</ele>
        <time>2020-06-05T10:37:45Z</time>
      </trkpt>
      <trkpt lat="47.09776" lon="-2.05207">
        <ele>30.7</ele>
        <time>2020-06-05T10:37:46Z</time>
      </trkpt>
      <trkpt lat="47.09773" lon="-2.05206">
        <ele>30.6</ele>
        <time>2020-06-05T10:37:47Z</time>
      </trkpt>
      <trkpt lat="47.0977" lon="-2.05209">
        <ele>30.5</ele>
        <time>2020-06-05T10:37:48Z</time>
      </trkpt>
      <trkpt lat="47.09767" lon="-2.05214">
        <ele>30.4</ele>
        <time>2020-06-05T10:37:49Z</time>
      </trkpt>
      <trkpt lat="47.09764" lon="-2.05216">
        <ele>30.3</ele>
        <time>2020-06-05T10:37:50Z</time>
      </trkpt>
      <trkpt lat="47.09762" lon="-2.05217">
        <ele>30.3</ele>
        <time>2020-06-05T10:37:51Z</time>
      </trkpt>
      <trkpt lat="47.09759" lon="-2.05218">
        <ele>30.2</ele>
        <time>2020-06-05T10:37:52Z</time>
      </trkpt>
      <trkpt lat="47.09756" lon="-2.05219">
        <ele>30</ele>
        <time>2020-06-05T10:37:53Z</time>
      </trkpt>
      <trkpt lat="47.09753" lon="-2.05221">
        <ele>29.9</ele>
        <time>2020-06-05T10:37:54Z</time>
      </trkpt>
      <trkpt lat="47.09749" lon="-2.05222">
        <ele>29.9</ele>
        <time>2020-06-05T10:37:55Z</time>
      </trkpt>
      <trkpt lat="47.09748" lon="-2.05223">
        <ele>29.9</ele>
        <time>2020-06-05T10:37:56Z</time>
      </trkpt>
      <trkpt lat="47.09746" lon="-2.05226">
        <ele>29.9</ele>
        <time>2020-06-05T10:37:57Z</time>
      </trkpt>
      <trkpt lat="47.09745" lon="-2.05226">
        <ele>29.9</ele>
        <time>2020-06-05T10:37:58Z</time>
      </trkpt>
      <trkpt lat="47.09743" lon="-2.05227">
        <ele>29.9</ele>
        <time>2020-06-05T10:37:59Z</time>
      </trkpt>
      <trkpt lat="47.09741" lon="-2.05226">
        <ele>29.8</ele>
        <time>2020-06-05T10:38:00Z</time>
      </trkpt>
      <trkpt lat="47.09738" lon="-2.05226">
        <ele>29.8</ele>
        <time>2020-06-05T10:38:01Z</time>
      </trkpt>
      <trkpt lat="47.09736" lon="-2.05225">
        <ele>29.8</ele>
        <time>2020-06-05T10:38:02Z</time>
      </trkpt>
      <trkpt lat="47.09733" lon="-2.05226">
        <ele>29.7</ele>
        <time>2020-06-05T10:38:03Z</time>
      </trkpt>
      <trkpt lat="47.09732" lon="-2.05226">
        <ele>29.7</ele>
        <time>2020-06-05T10:38:04Z</time>
      </trkpt>
      <trkpt lat="47.09729" lon="-2.05227">
        <ele>29.7</ele>
        <time>2020-06-05T10:38:05Z</time>
      </trkpt>
      <trkpt lat="47.09726" lon="-2.05228">
        <ele>29.7</ele>
        <time>2020-06-05T10:38:06Z</time>
      </trkpt>
      <trkpt lat="47.09725" lon="-2.05228">
        <ele>29.7</ele>
        <time>2020-06-05T10:38:07Z</time>
      </trkpt>
      <trkpt lat="47.09724" lon="-2.0523">
        <ele>29.7</ele>
        <time>2020-06-05T10:38:08Z</time>
      </trkpt>
      <trkpt lat="47.09723" lon="-2.05231">
        <ele>29.7</ele>
        <time>2020-06-05T10:38:09Z</time>
      </trkpt>
      <trkpt lat="47.0972" lon="-2.05233">
        <ele>29.7</ele>
        <time>2020-06-05T10:38:10Z</time>
      </trkpt>
      <trkpt lat="47.09719" lon="-2.05233">
        <ele>29.7</ele>
        <time>2020-06-05T10:38:11Z</time>
      </trkpt>
      <trkpt lat="47.09717" lon="-2.05236">
        <ele>29.7</ele>
        <time>2020-06-05T10:38:12Z</time>
      </trkpt>
      <trkpt lat="47.09716" lon="-2.05237">
        <ele>29.6</ele>
        <time>2020-06-05T10:38:13Z</time>
      </trkpt>
      <trkpt lat="47.09714" lon="-2.0524">
        <ele>29.6</ele>
        <time>2020-06-05T10:38:14Z</time>
      </trkpt>
      <trkpt lat="47.09713" lon="-2.05241">
        <ele>29.6</ele>
        <time>2020-06-05T10:38:15Z</time>
      </trkpt>
      <trkpt lat="47.0971" lon="-2.05243">
        <ele>29.5</ele>
        <time>2020-06-05T10:38:16Z</time>
      </trkpt>
      <trkpt lat="47.09707" lon="-2.05244">
        <ele>29.5</ele>
        <time>2020-06-05T10:38:17Z</time>
      </trkpt>
      <trkpt lat="47.09704" lon="-2.05247">
        <ele>29.4</ele>
        <time>2020-06-05T10:38:18Z</time>
      </trkpt>
      <trkpt lat="47.09702" lon="-2.0525">
        <ele>29.3</ele>
        <time>2020-06-05T10:38:19Z</time>
      </trkpt>
      <trkpt lat="47.097" lon="-2.05253">
        <ele>29.3</ele>
        <time>2020-06-05T10:38:20Z</time>
      </trkpt>
      <trkpt lat="47.09696" lon="-2.05256">
        <ele>29.2</ele>
        <time>2020-06-05T10:38:21Z</time>
      </trkpt>
      <trkpt lat="47.09693" lon="-2.05259">
        <ele>29.1</ele>
        <time>2020-06-05T10:38:22Z</time>
      </trkpt>
      <trkpt lat="47.09691" lon="-2.05262">
        <ele>29</ele>
        <time>2020-06-05T10:38:23Z</time>
      </trkpt>
      <trkpt lat="47.09689" lon="-2.05266">
        <ele>28.9</ele>
        <time>2020-06-05T10:38:24Z</time>
      </trkpt>
      <trkpt lat="47.09687" lon="-2.05269">
        <ele>28.8</ele>
        <time>2020-06-05T10:38:25Z</time>
      </trkpt>
      <trkpt lat="47.09684" lon="-2.05272">
        <ele>28.7</ele>
        <time>2020-06-05T10:38:26Z</time>
      </trkpt>
      <trkpt lat="47.0968" lon="-2.05276">
        <ele>28.6</ele>
        <time>2020-06-05T10:38:27Z</time>
      </trkpt>
      <trkpt lat="47.09678" lon="-2.05279">
        <ele>28.5</ele>
        <time>2020-06-05T10:38:28Z</time>
      </trkpt>
      <trkpt lat="47.09675" lon="-2.05282">
        <ele>28.4</ele>
        <time>2020-06-05T10:38:29Z</time>
      </trkpt>
      <trkpt lat="47.09673" lon="-2.05286">
        <ele>28.3</ele>
        <time>2020-06-05T10:38:30Z</time>
      </trkpt>
      <trkpt lat="47.0967" lon="-2.05289">
        <ele>28.2</ele>
        <time>2020-06-05T10:38:31Z</time>
      </trkpt>
      <trkpt lat="47.09666" lon="-2.05293">
        <ele>28.1</ele>
        <time>2020-06-05T10:38:32Z</time>
      </trkpt>
      <trkpt lat="47.09662" lon="-2.05296">
        <ele>28</ele>
        <time>2020-06-05T10:38:33Z</time>
      </trkpt>
      <trkpt lat="47.09658" lon="-2.053">
        <ele>27.9</ele>
        <time>2020-06-05T10:38:34Z</time>
      </trkpt>
      <trkpt lat="47.09654" lon="-2.05304">
        <ele>27.8</ele>
        <time>2020-06-05T10:38:35Z</time>
      </trkpt>
      <trkpt lat="47.09651" lon="-2.05308">
        <ele>27.7</ele>
        <time>2020-06-05T10:38:36Z</time>
      </trkpt>
      <trkpt lat="47.09647" lon="-2.05312">
        <ele>27.5</ele>
        <time>2020-06-05T10:38:37Z</time>
      </trkpt>
      <trkpt lat="47.09644" lon="-2.05316">
        <ele>27.4</ele>
        <time>2020-06-05T10:38:38Z</time>
      </trkpt>
      <trkpt lat="47.09641" lon="-2.05319">
        <ele>27.3</ele>
        <time>2020-06-05T10:38:39Z</time>
      </trkpt>
      <trkpt lat="47.09638" lon="-2.05321">
        <ele>27.2</ele>
        <time>2020-06-05T10:38:40Z</time>
      </trkpt>
      <trkpt lat="47.09635" lon="-2.05324">
        <ele>27.1</ele>
        <time>2020-06-05T10:38:41Z</time>
      </trkpt>
      <trkpt lat="47.09635" lon="-2.05324">
        <ele>27.1</ele>
        <time>2020-06-05T10:38:42Z</time>
      </trkpt>
      <trkpt lat="47.09635" lon="-2.0533">
        <ele>27</ele>
        <time>2020-06-05T10:38:43Z</time>
      </trkpt>
      <trkpt lat="47.09635" lon="-2.05332">
        <ele>27</ele>
        <time>2020-06-05T10:38:44Z</time>
      </trkpt>
      <trkpt lat="47.09636" lon="-2.05337">
        <ele>26.6</ele>
        <time>2020-06-05T10:38:45Z</time>
      </trkpt>
      <trkpt lat="47.09636" lon="-2.05339">
        <ele>26.6</ele>
        <time>2020-06-05T10:38:46Z</time>
      </trkpt>
      <trkpt lat="47.09636" lon="-2.05343">
        <ele>26.7</ele>
        <time>2020-06-05T10:38:47Z</time>
      </trkpt>
      <trkpt lat="47.09637" lon="-2.05345">
        <ele>26.8</ele>
        <time>2020-06-05T10:38:48Z</time>
      </trkpt>
      <trkpt lat="47.09637" lon="-2.05349">
        <ele>26.9</ele>
        <time>2020-06-05T10:38:49Z</time>
      </trkpt>
      <trkpt lat="47.09637" lon="-2.05353">
        <ele>27</ele>
        <time>2020-06-05T10:38:50Z</time>
      </trkpt>
      <trkpt lat="47.09638" lon="-2.05358">
        <ele>27.1</ele>
        <time>2020-06-05T10:38:51Z</time>
      </trkpt>
      <trkpt lat="47.09638" lon="-2.0536">
        <ele>27.2</ele>
        <time>2020-06-05T10:38:52Z</time>
      </trkpt>
      <trkpt lat="47.0964" lon="-2.05365">
        <ele>27.3</ele>
        <time>2020-06-05T10:38:53Z</time>
      </trkpt>
      <trkpt lat="47.09641" lon="-2.05367">
        <ele>27.4</ele>
        <time>2020-06-05T10:38:54Z</time>
      </trkpt>
      <trkpt lat="47.09642" lon="-2.05371">
        <ele>27.5</ele>
        <time>2020-06-05T10:38:55Z</time>
      </trkpt>
      <trkpt lat="47.09643" lon="-2.05375">
        <ele>27.6</ele>
        <time>2020-06-05T10:38:56Z</time>
      </trkpt>
      <trkpt lat="47.09645" lon="-2.05379">
        <ele>27.7</ele>
        <time>2020-06-05T10:38:57Z</time>
      </trkpt>
      <trkpt lat="47.09646" lon="-2.05385">
        <ele>27.9</ele>
        <time>2020-06-05T10:38:58Z</time>
      </trkpt>
      <trkpt lat="47.09648" lon="-2.0539">
        <ele>28.1</ele>
        <time>2020-06-05T10:38:59Z</time>
      </trkpt>
      <trkpt lat="47.0965" lon="-2.05395">
        <ele>28.2</ele>
        <time>2020-06-05T10:39:00Z</time>
      </trkpt>
      <trkpt lat="47.09651" lon="-2.05401">
        <ele>28.4</ele>
        <time>2020-06-05T10:39:01Z</time>
      </trkpt>
      <trkpt lat="47.09652" lon="-2.05406">
        <ele>28.5</ele>
        <time>2020-06-05T10:39:02Z</time>
      </trkpt>
      <trkpt lat="47.09653" lon="-2.05411">
        <ele>28.6</ele>
        <time>2020-06-05T10:39:03Z</time>
      </trkpt>
      <trkpt lat="47.09655" lon="-2.05415">
        <ele>28.8</ele>
        <time>2020-06-05T10:39:04Z</time>
      </trkpt>
      <trkpt lat="47.09656" lon="-2.0542">
        <ele>28.9</ele>
        <time>2020-06-05T10:39:05Z</time>
      </trkpt>
      <trkpt lat="47.09657" lon="-2.05424">
        <ele>29</ele>
        <time>2020-06-05T10:39:06Z</time>
      </trkpt>
      <trkpt lat="47.09658" lon="-2.05428">
        <ele>29</ele>
        <time>2020-06-05T10:39:07Z</time>
      </trkpt>
      <trkpt lat="47.09659" lon="-2.05432">
        <ele>29.1</ele>
        <time>2020-06-05T10:39:08Z</time>
      </trkpt>
      <trkpt lat="47.09658" lon="-2.05438">
        <ele>29.3</ele>
        <time>2020-06-05T10:39:09Z</time>
      </trkpt>
      <trkpt lat="47.09658" lon="-2.05444">
        <ele>29.4</ele>
        <time>2020-06-05T10:39:10Z</time>
      </trkpt>
      <trkpt lat="47.09658" lon="-2.0545">
        <ele>29.5</ele>
        <time>2020-06-05T10:39:11Z</time>
      </trkpt>
      <trkpt lat="47.09656" lon="-2.05458">
        <ele>29.7</ele>
        <time>2020-06-05T10:39:12Z</time>
      </trkpt>
      <trkpt lat="47.09656" lon="-2.05464">
        <ele>29.8</ele>
        <time>2020-06-05T10:39:13Z</time>
      </trkpt>
      <trkpt lat="47.09656" lon="-2.05468">
        <ele>29.9</ele>
        <time>2020-06-05T10:39:14Z</time>
      </trkpt>
      <trkpt lat="47.09657" lon="-2.05472">
        <ele>30</ele>
        <time>2020-06-05T10:39:15Z</time>
      </trkpt>
      <trkpt lat="47.09658" lon="-2.05478">
        <ele>30.1</ele>
        <time>2020-06-05T10:39:16Z</time>
      </trkpt>
      <trkpt lat="47.09659" lon="-2.0548">
        <ele>30.1</ele>
        <time>2020-06-05T10:39:17Z</time>
      </trkpt>
      <trkpt lat="47.09659" lon="-2.05484">
        <ele>30.2</ele>
        <time>2020-06-05T10:39:18Z</time>
      </trkpt>
      <trkpt lat="47.0966" lon="-2.0549">
        <ele>30.3</ele>
        <time>2020-06-05T10:39:19Z</time>
      </trkpt>
      <trkpt lat="47.09661" lon="-2.05492">
        <ele>30.4</ele>
        <time>2020-06-05T10:39:20Z</time>
      </trkpt>
      <trkpt lat="47.09662" lon="-2.05496">
        <ele>30.4</ele>
        <time>2020-06-05T10:39:21Z</time>
      </trkpt>
      <trkpt lat="47.09663" lon="-2.05501">
        <ele>30.5</ele>
        <time>2020-06-05T10:39:22Z</time>
      </trkpt>
      <trkpt lat="47.09663" lon="-2.05503">
        <ele>30.5</ele>
        <time>2020-06-05T10:39:23Z</time>
      </trkpt>
      <trkpt lat="47.09664" lon="-2.05507">
        <ele>30.6</ele>
        <time>2020-06-05T10:39:24Z</time>
      </trkpt>
      <trkpt lat="47.09665" lon="-2.05513">
        <ele>30.7</ele>
        <time>2020-06-05T10:39:25Z</time>
      </trkpt>
      <trkpt lat="47.09665" lon="-2.05515">
        <ele>30.7</ele>
        <time>2020-06-05T10:39:26Z</time>
      </trkpt>
      <trkpt lat="47.09666" lon="-2.05519">
        <ele>30.8</ele>
        <time>2020-06-05T10:39:27Z</time>
      </trkpt>
      <trkpt lat="47.09668" lon="-2.05522">
        <ele>30.9</ele>
        <time>2020-06-05T10:39:28Z</time>
      </trkpt>
      <trkpt lat="47.09669" lon="-2.05527">
        <ele>30.9</ele>
        <time>2020-06-05T10:39:29Z</time>
      </trkpt>
      <trkpt lat="47.0967" lon="-2.05529">
        <ele>31</ele>
        <time>2020-06-05T10:39:30Z</time>
      </trkpt>
      <trkpt lat="47.09671" lon="-2.05533">
        <ele>31</ele>
        <time>2020-06-05T10:39:31Z</time>
      </trkpt>
      <trkpt lat="47.09672" lon="-2.05537">
        <ele>31.1</ele>
        <time>2020-06-05T10:39:32Z</time>
      </trkpt>
      <trkpt lat="47.09673" lon="-2.0554">
        <ele>31.2</ele>
        <time>2020-06-05T10:39:33Z</time>
      </trkpt>
      <trkpt lat="47.09675" lon="-2.05545">
        <ele>31.3</ele>
        <time>2020-06-05T10:39:34Z</time>
      </trkpt>
      <trkpt lat="47.09676" lon="-2.05547">
        <ele>31.3</ele>
        <time>2020-06-05T10:39:35Z</time>
      </trkpt>
      <trkpt lat="47.09677" lon="-2.05552">
        <ele>31.4</ele>
        <time>2020-06-05T10:39:36Z</time>
      </trkpt>
      <trkpt lat="47.09677" lon="-2.05553">
        <ele>31.4</ele>
        <time>2020-06-05T10:39:37Z</time>
      </trkpt>
      <trkpt lat="47.09679" lon="-2.05558">
        <ele>31.4</ele>
        <time>2020-06-05T10:39:38Z</time>
      </trkpt>
      <trkpt lat="47.09679" lon="-2.0556">
        <ele>31.5</ele>
        <time>2020-06-05T10:39:39Z</time>
      </trkpt>
      <trkpt lat="47.0968" lon="-2.05564">
        <ele>31.5</ele>
        <time>2020-06-05T10:39:40Z</time>
      </trkpt>
      <trkpt lat="47.09681" lon="-2.05568">
        <ele>31.6</ele>
        <time>2020-06-05T10:39:41Z</time>
      </trkpt>
      <trkpt lat="47.09681" lon="-2.0557">
        <ele>31.6</ele>
        <time>2020-06-05T10:39:42Z</time>
      </trkpt>
      <trkpt lat="47.09684" lon="-2.05574">
        <ele>31.6</ele>
        <time>2020-06-05T10:39:43Z</time>
      </trkpt>
      <trkpt lat="47.09684" lon="-2.05575">
        <ele>31.7</ele>
        <time>2020-06-05T10:39:44Z</time>
      </trkpt>
      <trkpt lat="47.09686" lon="-2.05578">
        <ele>31.7</ele>
        <time>2020-06-05T10:39:45Z</time>
      </trkpt>
      <trkpt lat="47.09687" lon="-2.0558">
        <ele>31.7</ele>
        <time>2020-06-05T10:39:46Z</time>
      </trkpt>
      <trkpt lat="47.09689" lon="-2.05584">
        <ele>31.8</ele>
        <time>2020-06-05T10:39:47Z</time>
      </trkpt>
      <trkpt lat="47.09689" lon="-2.05585">
        <ele>31.8</ele>
        <time>2020-06-05T10:39:48Z</time>
      </trkpt>
      <trkpt lat="47.09691" lon="-2.05589">
        <ele>31.9</ele>
        <time>2020-06-05T10:39:49Z</time>
      </trkpt>
      <trkpt lat="47.09692" lon="-2.0559">
        <ele>31.9</ele>
        <time>2020-06-05T10:39:50Z</time>
      </trkpt>
      <trkpt lat="47.09694" lon="-2.05594">
        <ele>32</ele>
        <time>2020-06-05T10:39:51Z</time>
      </trkpt>
      <trkpt lat="47.09694" lon="-2.05595">
        <ele>32</ele>
        <time>2020-06-05T10:39:52Z</time>
      </trkpt>
      <trkpt lat="47.09696" lon="-2.056">
        <ele>32.1</ele>
        <time>2020-06-05T10:39:53Z</time>
      </trkpt>
      <trkpt lat="47.09696" lon="-2.05601">
        <ele>32.1</ele>
        <time>2020-06-05T10:39:54Z</time>
      </trkpt>
      <trkpt lat="47.09698" lon="-2.05607">
        <ele>32.2</ele>
        <time>2020-06-05T10:39:55Z</time>
      </trkpt>
      <trkpt lat="47.09699" lon="-2.05609">
        <ele>32.2</ele>
        <time>2020-06-05T10:39:56Z</time>
      </trkpt>
      <trkpt lat="47.097" lon="-2.05613">
        <ele>32.2</ele>
        <time>2020-06-05T10:39:57Z</time>
      </trkpt>
      <trkpt lat="47.09702" lon="-2.05618">
        <ele>32.3</ele>
        <time>2020-06-05T10:39:58Z</time>
      </trkpt>
      <trkpt lat="47.09703" lon="-2.0562">
        <ele>32.3</ele>
        <time>2020-06-05T10:39:59Z</time>
      </trkpt>
      <trkpt lat="47.09705" lon="-2.05625">
        <ele>32.4</ele>
        <time>2020-06-05T10:40:00Z</time>
      </trkpt>
      <trkpt lat="47.09707" lon="-2.0563">
        <ele>32.4</ele>
        <time>2020-06-05T10:40:01Z</time>
      </trkpt>
      <trkpt lat="47.09708" lon="-2.05635">
        <ele>32.5</ele>
        <time>2020-06-05T10:40:02Z</time>
      </trkpt>
      <trkpt lat="47.0971" lon="-2.0564">
        <ele>32.6</ele>
        <time>2020-06-05T10:40:03Z</time>
      </trkpt>
      <trkpt lat="47.09712" lon="-2.05645">
        <ele>32.8</ele>
        <time>2020-06-05T10:40:04Z</time>
      </trkpt>
      <trkpt lat="47.09714" lon="-2.0565">
        <ele>33</ele>
        <time>2020-06-05T10:40:05Z</time>
      </trkpt>
      <trkpt lat="47.09716" lon="-2.05655">
        <ele>33.2</ele>
        <time>2020-06-05T10:40:06Z</time>
      </trkpt>
      <trkpt lat="47.09718" lon="-2.05659">
        <ele>33.3</ele>
        <time>2020-06-05T10:40:07Z</time>
      </trkpt>
      <trkpt lat="47.09719" lon="-2.05663">
        <ele>33.4</ele>
        <time>2020-06-05T10:40:08Z</time>
      </trkpt>
      <trkpt lat="47.09723" lon="-2.05668">
        <ele>33.7</ele>
        <time>2020-06-05T10:40:09Z</time>
      </trkpt>
      <trkpt lat="47.09726" lon="-2.05673">
        <ele>33.9</ele>
        <time>2020-06-05T10:40:10Z</time>
      </trkpt>
      <trkpt lat="47.09729" lon="-2.05677">
        <ele>34</ele>
        <time>2020-06-05T10:40:11Z</time>
      </trkpt>
      <trkpt lat="47.09732" lon="-2.05681">
        <ele>34.2</ele>
        <time>2020-06-05T10:40:12Z</time>
      </trkpt>
      <trkpt lat="47.09735" lon="-2.05685">
        <ele>34.3</ele>
        <time>2020-06-05T10:40:13Z</time>
      </trkpt>
      <trkpt lat="47.09737" lon="-2.0569">
        <ele>34.5</ele>
        <time>2020-06-05T10:40:14Z</time>
      </trkpt>
      <trkpt lat="47.09741" lon="-2.05695">
        <ele>34.6</ele>
        <time>2020-06-05T10:40:15Z</time>
      </trkpt>
      <trkpt lat="47.09744" lon="-2.05702">
        <ele>34.8</ele>
        <time>2020-06-05T10:40:16Z</time>
      </trkpt>
      <trkpt lat="47.09747" lon="-2.05707">
        <ele>34.9</ele>
        <time>2020-06-05T10:40:17Z</time>
      </trkpt>
      <trkpt lat="47.09749" lon="-2.05712">
        <ele>35</ele>
        <time>2020-06-05T10:40:18Z</time>
      </trkpt>
      <trkpt lat="47.09752" lon="-2.05716">
        <ele>35.1</ele>
        <time>2020-06-05T10:40:19Z</time>
      </trkpt>
      <trkpt lat="47.09754" lon="-2.05721">
        <ele>35.2</ele>
        <time>2020-06-05T10:40:20Z</time>
      </trkpt>
      <trkpt lat="47.09759" lon="-2.05727">
        <ele>35.3</ele>
        <time>2020-06-05T10:40:21Z</time>
      </trkpt>
      <trkpt lat="47.09764" lon="-2.05732">
        <ele>35.3</ele>
        <time>2020-06-05T10:40:22Z</time>
      </trkpt>
      <trkpt lat="47.09767" lon="-2.05737">
        <ele>35.4</ele>
        <time>2020-06-05T10:40:23Z</time>
      </trkpt>
      <trkpt lat="47.09768" lon="-2.05742">
        <ele>35.4</ele>
        <time>2020-06-05T10:40:24Z</time>
      </trkpt>
      <trkpt lat="47.09771" lon="-2.05747">
        <ele>35.4</ele>
        <time>2020-06-05T10:40:25Z</time>
      </trkpt>
      <trkpt lat="47.09773" lon="-2.05752">
        <ele>35.5</ele>
        <time>2020-06-05T10:40:26Z</time>
      </trkpt>
      <trkpt lat="47.09776" lon="-2.05757">
        <ele>35.5</ele>
        <time>2020-06-05T10:40:27Z</time>
      </trkpt>
      <trkpt lat="47.09781" lon="-2.05761">
        <ele>35.6</ele>
        <time>2020-06-05T10:40:28Z</time>
      </trkpt>
      <trkpt lat="47.09781" lon="-2.05766">
        <ele>35.6</ele>
        <time>2020-06-05T10:40:29Z</time>
      </trkpt>
      <trkpt lat="47.09783" lon="-2.05772">
        <ele>35.6</ele>
        <time>2020-06-05T10:40:30Z</time>
      </trkpt>
      <trkpt lat="47.09785" lon="-2.05777">
        <ele>35.7</ele>
        <time>2020-06-05T10:40:31Z</time>
      </trkpt>
      <trkpt lat="47.09788" lon="-2.05783">
        <ele>35.7</ele>
        <time>2020-06-05T10:40:32Z</time>
      </trkpt>
      <trkpt lat="47.09794" lon="-2.05788">
        <ele>35.7</ele>
        <time>2020-06-05T10:40:33Z</time>
      </trkpt>
      <trkpt lat="47.09797" lon="-2.05791">
        <ele>35.7</ele>
        <time>2020-06-05T10:40:34Z</time>
      </trkpt>
      <trkpt lat="47.098" lon="-2.05796">
        <ele>35.7</ele>
        <time>2020-06-05T10:40:35Z</time>
      </trkpt>
      <trkpt lat="47.09802" lon="-2.05801">
        <ele>35.7</ele>
        <time>2020-06-05T10:40:36Z</time>
      </trkpt>
      <trkpt lat="47.09804" lon="-2.05806">
        <ele>35.7</ele>
        <time>2020-06-05T10:40:37Z</time>
      </trkpt>
      <trkpt lat="47.09806" lon="-2.05811">
        <ele>35.7</ele>
        <time>2020-06-05T10:40:38Z</time>
      </trkpt>
      <trkpt lat="47.09807" lon="-2.05817">
        <ele>35.6</ele>
        <time>2020-06-05T10:40:39Z</time>
      </trkpt>
      <trkpt lat="47.09809" lon="-2.05822">
        <ele>35.6</ele>
        <time>2020-06-05T10:40:40Z</time>
      </trkpt>
      <trkpt lat="47.0981" lon="-2.05828">
        <ele>35.6</ele>
        <time>2020-06-05T10:40:41Z</time>
      </trkpt>
      <trkpt lat="47.09812" lon="-2.05832">
        <ele>35.5</ele>
        <time>2020-06-05T10:40:42Z</time>
      </trkpt>
      <trkpt lat="47.09814" lon="-2.05837">
        <ele>35.5</ele>
        <time>2020-06-05T10:40:43Z</time>
      </trkpt>
      <trkpt lat="47.09815" lon="-2.0584">
        <ele>35.4</ele>
        <time>2020-06-05T10:40:44Z</time>
      </trkpt>
      <trkpt lat="47.09817" lon="-2.05844">
        <ele>35.4</ele>
        <time>2020-06-05T10:40:45Z</time>
      </trkpt>
      <trkpt lat="47.09818" lon="-2.05848">
        <ele>35.4</ele>
        <time>2020-06-05T10:40:46Z</time>
      </trkpt>
      <trkpt lat="47.09819" lon="-2.05851">
        <ele>35.3</ele>
        <time>2020-06-05T10:40:47Z</time>
      </trkpt>
      <trkpt lat="47.09821" lon="-2.05855">
        <ele>35.3</ele>
        <time>2020-06-05T10:40:48Z</time>
      </trkpt>
      <trkpt lat="47.09822" lon="-2.05859">
        <ele>35.2</ele>
        <time>2020-06-05T10:40:49Z</time>
      </trkpt>
      <trkpt lat="47.09823" lon="-2.05862">
        <ele>35.2</ele>
        <time>2020-06-05T10:40:50Z</time>
      </trkpt>
      <trkpt lat="47.09825" lon="-2.05866">
        <ele>35.2</ele>
        <time>2020-06-05T10:40:51Z</time>
      </trkpt>
      <trkpt lat="47.09826" lon="-2.0587">
        <ele>35.1</ele>
        <time>2020-06-05T10:40:52Z</time>
      </trkpt>
      <trkpt lat="47.09827" lon="-2.05874">
        <ele>35.1</ele>
        <time>2020-06-05T10:40:53Z</time>
      </trkpt>
      <trkpt lat="47.0983" lon="-2.05878">
        <ele>35.1</ele>
        <time>2020-06-05T10:40:54Z</time>
      </trkpt>
      <trkpt lat="47.09831" lon="-2.05882">
        <ele>35</ele>
        <time>2020-06-05T10:40:55Z</time>
      </trkpt>
      <trkpt lat="47.09833" lon="-2.05886">
        <ele>35</ele>
        <time>2020-06-05T10:40:56Z</time>
      </trkpt>
      <trkpt lat="47.09836" lon="-2.05891">
        <ele>34.9</ele>
        <time>2020-06-05T10:40:57Z</time>
      </trkpt>
      <trkpt lat="47.09839" lon="-2.05895">
        <ele>34.9</ele>
        <time>2020-06-05T10:40:58Z</time>
      </trkpt>
      <trkpt lat="47.09841" lon="-2.05899">
        <ele>34.8</ele>
        <time>2020-06-05T10:40:59Z</time>
      </trkpt>
      <trkpt lat="47.09843" lon="-2.05903">
        <ele>34.7</ele>
        <time>2020-06-05T10:41:00Z</time>
      </trkpt>
      <trkpt lat="47.09846" lon="-2.05906">
        <ele>34.7</ele>
        <time>2020-06-05T10:41:01Z</time>
      </trkpt>
      <trkpt lat="47.09848" lon="-2.05911">
        <ele>34.6</ele>
        <time>2020-06-05T10:41:02Z</time>
      </trkpt>
      <trkpt lat="47.09851" lon="-2.05915">
        <ele>34.6</ele>
        <time>2020-06-05T10:41:03Z</time>
      </trkpt>
      <trkpt lat="47.09853" lon="-2.0592">
        <ele>34.5</ele>
        <time>2020-06-05T10:41:04Z</time>
      </trkpt>
      <trkpt lat="47.09856" lon="-2.05924">
        <ele>34.4</ele>
        <time>2020-06-05T10:41:05Z</time>
      </trkpt>
      <trkpt lat="47.09859" lon="-2.05928">
        <ele>34.4</ele>
        <time>2020-06-05T10:41:06Z</time>
      </trkpt>
      <trkpt lat="47.09862" lon="-2.05932">
        <ele>34.4</ele>
        <time>2020-06-05T10:41:07Z</time>
      </trkpt>
      <trkpt lat="47.09865" lon="-2.05936">
        <ele>34.3</ele>
        <time>2020-06-05T10:41:08Z</time>
      </trkpt>
      <trkpt lat="47.09867" lon="-2.05939">
        <ele>34.3</ele>
        <time>2020-06-05T10:41:09Z</time>
      </trkpt>
      <trkpt lat="47.0987" lon="-2.05943">
        <ele>34.3</ele>
        <time>2020-06-05T10:41:10Z</time>
      </trkpt>
      <trkpt lat="47.09873" lon="-2.05947">
        <ele>34.3</ele>
        <time>2020-06-05T10:41:11Z</time>
      </trkpt>
      <trkpt lat="47.09876" lon="-2.0595">
        <ele>34.3</ele>
        <time>2020-06-05T10:41:12Z</time>
      </trkpt>
      <trkpt lat="47.09878" lon="-2.05955">
        <ele>34.2</ele>
        <time>2020-06-05T10:41:13Z</time>
      </trkpt>
      <trkpt lat="47.09881" lon="-2.05958">
        <ele>34.3</ele>
        <time>2020-06-05T10:41:14Z</time>
      </trkpt>
      <trkpt lat="47.09885" lon="-2.05962">
        <ele>34.3</ele>
        <time>2020-06-05T10:41:15Z</time>
      </trkpt>
      <trkpt lat="47.09888" lon="-2.05965">
        <ele>34.3</ele>
        <time>2020-06-05T10:41:16Z</time>
      </trkpt>
      <trkpt lat="47.09891" lon="-2.05969">
        <ele>34.3</ele>
        <time>2020-06-05T10:41:17Z</time>
      </trkpt>
      <trkpt lat="47.09895" lon="-2.05974">
        <ele>34.4</ele>
        <time>2020-06-05T10:41:18Z</time>
      </trkpt>
      <trkpt lat="47.09898" lon="-2.05979">
        <ele>34.4</ele>
        <time>2020-06-05T10:41:19Z</time>
      </trkpt>
      <trkpt lat="47.09901" lon="-2.05983">
        <ele>34.4</ele>
        <time>2020-06-05T10:41:20Z</time>
      </trkpt>
      <trkpt lat="47.09904" lon="-2.05987">
        <ele>34.5</ele>
        <time>2020-06-05T10:41:21Z</time>
      </trkpt>
      <trkpt lat="47.09907" lon="-2.05991">
        <ele>34.5</ele>
        <time>2020-06-05T10:41:22Z</time>
      </trkpt>
      <trkpt lat="47.0991" lon="-2.05995">
        <ele>34.6</ele>
        <time>2020-06-05T10:41:23Z</time>
      </trkpt>
      <trkpt lat="47.09913" lon="-2.06">
        <ele>34.7</ele>
        <time>2020-06-05T10:41:24Z</time>
      </trkpt>
      <trkpt lat="47.09916" lon="-2.06005">
        <ele>34.8</ele>
        <time>2020-06-05T10:41:25Z</time>
      </trkpt>
      <trkpt lat="47.09919" lon="-2.06009">
        <ele>34.8</ele>
        <time>2020-06-05T10:41:26Z</time>
      </trkpt>
      <trkpt lat="47.09923" lon="-2.06013">
        <ele>34.9</ele>
        <time>2020-06-05T10:41:27Z</time>
      </trkpt>
      <trkpt lat="47.09926" lon="-2.06017">
        <ele>35</ele>
        <time>2020-06-05T10:41:28Z</time>
      </trkpt>
      <trkpt lat="47.09929" lon="-2.0602">
        <ele>35</ele>
        <time>2020-06-05T10:41:29Z</time>
      </trkpt>
      <trkpt lat="47.09933" lon="-2.06023">
        <ele>35.1</ele>
        <time>2020-06-05T10:41:30Z</time>
      </trkpt>
      <trkpt lat="47.09936" lon="-2.06026">
        <ele>35.2</ele>
        <time>2020-06-05T10:41:31Z</time>
      </trkpt>
      <trkpt lat="47.0994" lon="-2.06029">
        <ele>35.3</ele>
        <time>2020-06-05T10:41:32Z</time>
      </trkpt>
      <trkpt lat="47.09943" lon="-2.06032">
        <ele>35.4</ele>
        <time>2020-06-05T10:41:33Z</time>
      </trkpt>
      <trkpt lat="47.09946" lon="-2.06035">
        <ele>35.5</ele>
        <time>2020-06-05T10:41:34Z</time>
      </trkpt>
      <trkpt lat="47.0995" lon="-2.06038">
        <ele>35.5</ele>
        <time>2020-06-05T10:41:35Z</time>
      </trkpt>
      <trkpt lat="47.09953" lon="-2.06042">
        <ele>35.6</ele>
        <time>2020-06-05T10:41:36Z</time>
      </trkpt>
      <trkpt lat="47.09956" lon="-2.06045">
        <ele>35.7</ele>
        <time>2020-06-05T10:41:37Z</time>
      </trkpt>
      <trkpt lat="47.09959" lon="-2.06047">
        <ele>35.8</ele>
        <time>2020-06-05T10:41:38Z</time>
      </trkpt>
      <trkpt lat="47.09962" lon="-2.0605">
        <ele>35.9</ele>
        <time>2020-06-05T10:41:39Z</time>
      </trkpt>
      <trkpt lat="47.09965" lon="-2.06052">
        <ele>35.9</ele>
        <time>2020-06-05T10:41:40Z</time>
      </trkpt>
      <trkpt lat="47.09968" lon="-2.06054">
        <ele>36</ele>
        <time>2020-06-05T10:41:41Z</time>
      </trkpt>
      <trkpt lat="47.09971" lon="-2.06057">
        <ele>36.1</ele>
        <time>2020-06-05T10:41:42Z</time>
      </trkpt>
      <trkpt lat="47.09975" lon="-2.0606">
        <ele>36.2</ele>
        <time>2020-06-05T10:41:43Z</time>
      </trkpt>
      <trkpt lat="47.09978" lon="-2.06064">
        <ele>36.3</ele>
        <time>2020-06-05T10:41:44Z</time>
      </trkpt>
      <trkpt lat="47.09982" lon="-2.06068">
        <ele>36.4</ele>
        <time>2020-06-05T10:41:45Z</time>
      </trkpt>
      <trkpt lat="47.09986" lon="-2.06071">
        <ele>36.5</ele>
        <time>2020-06-05T10:41:46Z</time>
      </trkpt>
      <trkpt lat="47.09991" lon="-2.06074">
        <ele>36.7</ele>
        <time>2020-06-05T10:41:47Z</time>
      </trkpt>
      <trkpt lat="47.09995" lon="-2.06076">
        <ele>36.8</ele>
        <time>2020-06-05T10:41:48Z</time>
      </trkpt>
      <trkpt lat="47.1" lon="-2.06078">
        <ele>37</ele>
        <time>2020-06-05T10:41:49Z</time>
      </trkpt>
      <trkpt lat="47.10005" lon="-2.06079">
        <ele>37.1</ele>
        <time>2020-06-05T10:41:50Z</time>
      </trkpt>
      <trkpt lat="47.10009" lon="-2.0608">
        <ele>37.2</ele>
        <time>2020-06-05T10:41:51Z</time>
      </trkpt>
      <trkpt lat="47.10014" lon="-2.0608">
        <ele>37.3</ele>
        <time>2020-06-05T10:41:52Z</time>
      </trkpt>
      <trkpt lat="47.10018" lon="-2.06081">
        <ele>37.4</ele>
        <time>2020-06-05T10:41:53Z</time>
      </trkpt>
      <trkpt lat="47.10023" lon="-2.06081">
        <ele>37.5</ele>
        <time>2020-06-05T10:41:54Z</time>
      </trkpt>
      <trkpt lat="47.10027" lon="-2.06081">
        <ele>37.6</ele>
        <time>2020-06-05T10:41:55Z</time>
      </trkpt>
      <trkpt lat="47.10032" lon="-2.0608">
        <ele>37.7</ele>
        <time>2020-06-05T10:41:56Z</time>
      </trkpt>
      <trkpt lat="47.10036" lon="-2.06079">
        <ele>37.8</ele>
        <time>2020-06-05T10:41:57Z</time>
      </trkpt>
      <trkpt lat="47.1004" lon="-2.06078">
        <ele>37.9</ele>
        <time>2020-06-05T10:41:58Z</time>
      </trkpt>
      <trkpt lat="47.10044" lon="-2.06078">
        <ele>37.9</ele>
        <time>2020-06-05T10:41:59Z</time>
      </trkpt>
      <trkpt lat="47.10048" lon="-2.06076">
        <ele>38</ele>
        <time>2020-06-05T10:42:00Z</time>
      </trkpt>
      <trkpt lat="47.10052" lon="-2.06074">
        <ele>38</ele>
        <time>2020-06-05T10:42:01Z</time>
      </trkpt>
      <trkpt lat="47.10056" lon="-2.06072">
        <ele>38.1</ele>
        <time>2020-06-05T10:42:02Z</time>
      </trkpt>
      <trkpt lat="47.1006" lon="-2.0607">
        <ele>38.1</ele>
        <time>2020-06-05T10:42:03Z</time>
      </trkpt>
      <trkpt lat="47.10065" lon="-2.0607">
        <ele>38.1</ele>
        <time>2020-06-05T10:42:04Z</time>
      </trkpt>
      <trkpt lat="47.10069" lon="-2.06071">
        <ele>38.1</ele>
        <time>2020-06-05T10:42:05Z</time>
      </trkpt>
      <trkpt lat="47.10072" lon="-2.06073">
        <ele>38.1</ele>
        <time>2020-06-05T10:42:06Z</time>
      </trkpt>
      <trkpt lat="47.10075" lon="-2.06076">
        <ele>38.1</ele>
        <time>2020-06-05T10:42:07Z</time>
      </trkpt>
      <trkpt lat="47.10077" lon="-2.06081">
        <ele>38.1</ele>
        <time>2020-06-05T10:42:08Z</time>
      </trkpt>
      <trkpt lat="47.10079" lon="-2.06086">
        <ele>38.1</ele>
        <time>2020-06-05T10:42:09Z</time>
      </trkpt>
      <trkpt lat="47.10081" lon="-2.06091">
        <ele>38.1</ele>
        <time>2020-06-05T10:42:10Z</time>
      </trkpt>
      <trkpt lat="47.10084" lon="-2.06096">
        <ele>38.1</ele>
        <time>2020-06-05T10:42:11Z</time>
      </trkpt>
      <trkpt lat="47.10085" lon="-2.06102">
        <ele>38.1</ele>
        <time>2020-06-05T10:42:12Z</time>
      </trkpt>
      <trkpt lat="47.10087" lon="-2.06108">
        <ele>38.1</ele>
        <time>2020-06-05T10:42:13Z</time>
      </trkpt>
      <trkpt lat="47.10089" lon="-2.06114">
        <ele>38.1</ele>
        <time>2020-06-05T10:42:14Z</time>
      </trkpt>
      <trkpt lat="47.10091" lon="-2.06119">
        <ele>38</ele>
        <time>2020-06-05T10:42:15Z</time>
      </trkpt>
      <trkpt lat="47.10093" lon="-2.06124">
        <ele>38</ele>
        <time>2020-06-05T10:42:16Z</time>
      </trkpt>
      <trkpt lat="47.10095" lon="-2.0613">
        <ele>38</ele>
        <time>2020-06-05T10:42:17Z</time>
      </trkpt>
      <trkpt lat="47.10098" lon="-2.06136">
        <ele>38</ele>
        <time>2020-06-05T10:42:18Z</time>
      </trkpt>
      <trkpt lat="47.10101" lon="-2.06142">
        <ele>38</ele>
        <time>2020-06-05T10:42:19Z</time>
      </trkpt>
      <trkpt lat="47.10103" lon="-2.06148">
        <ele>38</ele>
        <time>2020-06-05T10:42:20Z</time>
      </trkpt>
      <trkpt lat="47.10106" lon="-2.06154">
        <ele>37.9</ele>
        <time>2020-06-05T10:42:21Z</time>
      </trkpt>
      <trkpt lat="47.10108" lon="-2.06161">
        <ele>37.9</ele>
        <time>2020-06-05T10:42:22Z</time>
      </trkpt>
      <trkpt lat="47.10111" lon="-2.06168">
        <ele>37.8</ele>
        <time>2020-06-05T10:42:23Z</time>
      </trkpt>
      <trkpt lat="47.10113" lon="-2.06175">
        <ele>37.8</ele>
        <time>2020-06-05T10:42:24Z</time>
      </trkpt>
      <trkpt lat="47.10114" lon="-2.06181">
        <ele>37.7</ele>
        <time>2020-06-05T10:42:25Z</time>
      </trkpt>
      <trkpt lat="47.10116" lon="-2.06188">
        <ele>37.7</ele>
        <time>2020-06-05T10:42:26Z</time>
      </trkpt>
      <trkpt lat="47.10117" lon="-2.06195">
        <ele>37.7</ele>
        <time>2020-06-05T10:42:27Z</time>
      </trkpt>
      <trkpt lat="47.10119" lon="-2.06202">
        <ele>37.6</ele>
        <time>2020-06-05T10:42:28Z</time>
      </trkpt>
      <trkpt lat="47.10122" lon="-2.06208">
        <ele>37.6</ele>
        <time>2020-06-05T10:42:29Z</time>
      </trkpt>
      <trkpt lat="47.10124" lon="-2.06215">
        <ele>37.6</ele>
        <time>2020-06-05T10:42:30Z</time>
      </trkpt>
      <trkpt lat="47.10126" lon="-2.06222">
        <ele>37.5</ele>
        <time>2020-06-05T10:42:31Z</time>
      </trkpt>
      <trkpt lat="47.10127" lon="-2.06228">
        <ele>37.5</ele>
        <time>2020-06-05T10:42:32Z</time>
      </trkpt>
      <trkpt lat="47.10129" lon="-2.06234">
        <ele>37.5</ele>
        <time>2020-06-05T10:42:33Z</time>
      </trkpt>
      <trkpt lat="47.10132" lon="-2.0624">
        <ele>37.5</ele>
        <time>2020-06-05T10:42:34Z</time>
      </trkpt>
      <trkpt lat="47.10133" lon="-2.06247">
        <ele>37.4</ele>
        <time>2020-06-05T10:42:35Z</time>
      </trkpt>
      <trkpt lat="47.10136" lon="-2.06252">
        <ele>37.4</ele>
        <time>2020-06-05T10:42:36Z</time>
      </trkpt>
      <trkpt lat="47.1014" lon="-2.06257">
        <ele>37.4</ele>
        <time>2020-06-05T10:42:37Z</time>
      </trkpt>
      <trkpt lat="47.10143" lon="-2.06262">
        <ele>37.4</ele>
        <time>2020-06-05T10:42:38Z</time>
      </trkpt>
      <trkpt lat="47.10147" lon="-2.06266">
        <ele>37.4</ele>
        <time>2020-06-05T10:42:39Z</time>
      </trkpt>
      <trkpt lat="47.10151" lon="-2.0627">
        <ele>37.3</ele>
        <time>2020-06-05T10:42:40Z</time>
      </trkpt>
      <trkpt lat="47.10155" lon="-2.06275">
        <ele>37.3</ele>
        <time>2020-06-05T10:42:41Z</time>
      </trkpt>
      <trkpt lat="47.1016" lon="-2.06279">
        <ele>37.3</ele>
        <time>2020-06-05T10:42:42Z</time>
      </trkpt>
      <trkpt lat="47.10165" lon="-2.06283">
        <ele>37.3</ele>
        <time>2020-06-05T10:42:43Z</time>
      </trkpt>
      <trkpt lat="47.10171" lon="-2.06288">
        <ele>37.2</ele>
        <time>2020-06-05T10:42:44Z</time>
      </trkpt>
      <trkpt lat="47.10175" lon="-2.06291">
        <ele>37.2</ele>
        <time>2020-06-05T10:42:45Z</time>
      </trkpt>
      <trkpt lat="47.1018" lon="-2.06294">
        <ele>37.2</ele>
        <time>2020-06-05T10:42:46Z</time>
      </trkpt>
      <trkpt lat="47.10185" lon="-2.06297">
        <ele>37.2</ele>
        <time>2020-06-05T10:42:47Z</time>
      </trkpt>
      <trkpt lat="47.1019" lon="-2.06302">
        <ele>37.2</ele>
        <time>2020-06-05T10:42:48Z</time>
      </trkpt>
      <trkpt lat="47.10195" lon="-2.06305">
        <ele>37.2</ele>
        <time>2020-06-05T10:42:49Z</time>
      </trkpt>
      <trkpt lat="47.10199" lon="-2.06309">
        <ele>37.2</ele>
        <time>2020-06-05T10:42:50Z</time>
      </trkpt>
      <trkpt lat="47.10203" lon="-2.06314">
        <ele>37.2</ele>
        <time>2020-06-05T10:42:51Z</time>
      </trkpt>
      <trkpt lat="47.10207" lon="-2.06317">
        <ele>37.2</ele>
        <time>2020-06-05T10:42:52Z</time>
      </trkpt>
      <trkpt lat="47.10212" lon="-2.06321">
        <ele>37.2</ele>
        <time>2020-06-05T10:42:53Z</time>
      </trkpt>
      <trkpt lat="47.10216" lon="-2.06325">
        <ele>37.1</ele>
        <time>2020-06-05T10:42:54Z</time>
      </trkpt>
      <trkpt lat="47.1022" lon="-2.06328">
        <ele>37.1</ele>
        <time>2020-06-05T10:42:55Z</time>
      </trkpt>
      <trkpt lat="47.10224" lon="-2.06333">
        <ele>37.1</ele>
        <time>2020-06-05T10:42:56Z</time>
      </trkpt>
      <trkpt lat="47.10227" lon="-2.06338">
        <ele>37.1</ele>
        <time>2020-06-05T10:42:57Z</time>
      </trkpt>
      <trkpt lat="47.10231" lon="-2.06343">
        <ele>37.1</ele>
        <time>2020-06-05T10:42:58Z</time>
      </trkpt>
      <trkpt lat="47.10234" lon="-2.06348">
        <ele>37</ele>
        <time>2020-06-05T10:42:59Z</time>
      </trkpt>
      <trkpt lat="47.10237" lon="-2.06352">
        <ele>37</ele>
        <time>2020-06-05T10:43:00Z</time>
      </trkpt>
      <trkpt lat="47.10239" lon="-2.06357">
        <ele>37</ele>
        <time>2020-06-05T10:43:01Z</time>
      </trkpt>
      <trkpt lat="47.10241" lon="-2.06363">
        <ele>37</ele>
        <time>2020-06-05T10:43:02Z</time>
      </trkpt>
      <trkpt lat="47.10244" lon="-2.06369">
        <ele>37</ele>
        <time>2020-06-05T10:43:03Z</time>
      </trkpt>
      <trkpt lat="47.10246" lon="-2.06375">
        <ele>37</ele>
        <time>2020-06-05T10:43:04Z</time>
      </trkpt>
      <trkpt lat="47.10248" lon="-2.06381">
        <ele>36.9</ele>
        <time>2020-06-05T10:43:05Z</time>
      </trkpt>
      <trkpt lat="47.1025" lon="-2.06387">
        <ele>36.9</ele>
        <time>2020-06-05T10:43:06Z</time>
      </trkpt>
      <trkpt lat="47.10252" lon="-2.06394">
        <ele>36.9</ele>
        <time>2020-06-05T10:43:07Z</time>
      </trkpt>
      <trkpt lat="47.10254" lon="-2.06401">
        <ele>36.9</ele>
        <time>2020-06-05T10:43:08Z</time>
      </trkpt>
      <trkpt lat="47.10256" lon="-2.06409">
        <ele>36.9</ele>
        <time>2020-06-05T10:43:09Z</time>
      </trkpt>
      <trkpt lat="47.10258" lon="-2.06415">
        <ele>36.9</ele>
        <time>2020-06-05T10:43:10Z</time>
      </trkpt>
      <trkpt lat="47.1026" lon="-2.06422">
        <ele>36.9</ele>
        <time>2020-06-05T10:43:11Z</time>
      </trkpt>
      <trkpt lat="47.10262" lon="-2.06428">
        <ele>36.9</ele>
        <time>2020-06-05T10:43:12Z</time>
      </trkpt>
      <trkpt lat="47.10264" lon="-2.06435">
        <ele>36.9</ele>
        <time>2020-06-05T10:43:13Z</time>
      </trkpt>
      <trkpt lat="47.10267" lon="-2.06442">
        <ele>36.9</ele>
        <time>2020-06-05T10:43:14Z</time>
      </trkpt>
      <trkpt lat="47.1027" lon="-2.0645">
        <ele>36.8</ele>
        <time>2020-06-05T10:43:15Z</time>
      </trkpt>
      <trkpt lat="47.10272" lon="-2.06457">
        <ele>36.7</ele>
        <time>2020-06-05T10:43:16Z</time>
      </trkpt>
      <trkpt lat="47.10274" lon="-2.06464">
        <ele>36.7</ele>
        <time>2020-06-05T10:43:17Z</time>
      </trkpt>
      <trkpt lat="47.10276" lon="-2.06471">
        <ele>36.7</ele>
        <time>2020-06-05T10:43:18Z</time>
      </trkpt>
      <trkpt lat="47.10278" lon="-2.06478">
        <ele>36.6</ele>
        <time>2020-06-05T10:43:19Z</time>
      </trkpt>
      <trkpt lat="47.10281" lon="-2.06484">
        <ele>36.6</ele>
        <time>2020-06-05T10:43:20Z</time>
      </trkpt>
      <trkpt lat="47.10284" lon="-2.0649">
        <ele>36.5</ele>
        <time>2020-06-05T10:43:21Z</time>
      </trkpt>
      <trkpt lat="47.10286" lon="-2.06496">
        <ele>36.4</ele>
        <time>2020-06-05T10:43:22Z</time>
      </trkpt>
      <trkpt lat="47.10288" lon="-2.06502">
        <ele>36.4</ele>
        <time>2020-06-05T10:43:23Z</time>
      </trkpt>
      <trkpt lat="47.10291" lon="-2.06509">
        <ele>36.3</ele>
        <time>2020-06-05T10:43:24Z</time>
      </trkpt>
      <trkpt lat="47.10293" lon="-2.06514">
        <ele>36.2</ele>
        <time>2020-06-05T10:43:25Z</time>
      </trkpt>
      <trkpt lat="47.10296" lon="-2.06521">
        <ele>36.2</ele>
        <time>2020-06-05T10:43:26Z</time>
      </trkpt>
      <trkpt lat="47.10299" lon="-2.06527">
        <ele>36.1</ele>
        <time>2020-06-05T10:43:27Z</time>
      </trkpt>
      <trkpt lat="47.10302" lon="-2.06533">
        <ele>36.1</ele>
        <time>2020-06-05T10:43:28Z</time>
      </trkpt>
      <trkpt lat="47.10305" lon="-2.06539">
        <ele>36</ele>
        <time>2020-06-05T10:43:29Z</time>
      </trkpt>
      <trkpt lat="47.10309" lon="-2.06546">
        <ele>36</ele>
        <time>2020-06-05T10:43:30Z</time>
      </trkpt>
      <trkpt lat="47.10312" lon="-2.06552">
        <ele>36</ele>
        <time>2020-06-05T10:43:31Z</time>
      </trkpt>
      <trkpt lat="47.10315" lon="-2.06558">
        <ele>35.9</ele>
        <time>2020-06-05T10:43:32Z</time>
      </trkpt>
      <trkpt lat="47.10318" lon="-2.06564">
        <ele>35.9</ele>
        <time>2020-06-05T10:43:33Z</time>
      </trkpt>
      <trkpt lat="47.10322" lon="-2.0657">
        <ele>35.9</ele>
        <time>2020-06-05T10:43:34Z</time>
      </trkpt>
      <trkpt lat="47.10325" lon="-2.06576">
        <ele>35.8</ele>
        <time>2020-06-05T10:43:35Z</time>
      </trkpt>
      <trkpt lat="47.10329" lon="-2.06582">
        <ele>35.8</ele>
        <time>2020-06-05T10:43:36Z</time>
      </trkpt>
      <trkpt lat="47.10333" lon="-2.06587">
        <ele>35.8</ele>
        <time>2020-06-05T10:43:37Z</time>
      </trkpt>
      <trkpt lat="47.10336" lon="-2.06592">
        <ele>35.7</ele>
        <time>2020-06-05T10:43:38Z</time>
      </trkpt>
      <trkpt lat="47.10339" lon="-2.06597">
        <ele>35.7</ele>
        <time>2020-06-05T10:43:39Z</time>
      </trkpt>
      <trkpt lat="47.10343" lon="-2.06602">
        <ele>35.7</ele>
        <time>2020-06-05T10:43:40Z</time>
      </trkpt>
      <trkpt lat="47.10346" lon="-2.06608">
        <ele>35.6</ele>
        <time>2020-06-05T10:43:41Z</time>
      </trkpt>
      <trkpt lat="47.1035" lon="-2.06614">
        <ele>35.6</ele>
        <time>2020-06-05T10:43:42Z</time>
      </trkpt>
      <trkpt lat="47.10353" lon="-2.06618">
        <ele>35.6</ele>
        <time>2020-06-05T10:43:43Z</time>
      </trkpt>
      <trkpt lat="47.10356" lon="-2.06623">
        <ele>35.6</ele>
        <time>2020-06-05T10:43:44Z</time>
      </trkpt>
      <trkpt lat="47.10359" lon="-2.06628">
        <ele>35.6</ele>
        <time>2020-06-05T10:43:45Z</time>
      </trkpt>
      <trkpt lat="47.10361" lon="-2.06633">
        <ele>35.6</ele>
        <time>2020-06-05T10:43:46Z</time>
      </trkpt>
      <trkpt lat="47.10361" lon="-2.06639">
        <ele>35.6</ele>
        <time>2020-06-05T10:43:47Z</time>
      </trkpt>
      <trkpt lat="47.10362" lon="-2.06646">
        <ele>35.6</ele>
        <time>2020-06-05T10:43:48Z</time>
      </trkpt>
      <trkpt lat="47.10363" lon="-2.06652">
        <ele>35.6</ele>
        <time>2020-06-05T10:43:49Z</time>
      </trkpt>
      <trkpt lat="47.10366" lon="-2.06657">
        <ele>35.6</ele>
        <time>2020-06-05T10:43:50Z</time>
      </trkpt>
      <trkpt lat="47.10368" lon="-2.06662">
        <ele>35.6</ele>
        <time>2020-06-05T10:43:51Z</time>
      </trkpt>
      <trkpt lat="47.1037" lon="-2.06667">
        <ele>35.6</ele>
        <time>2020-06-05T10:43:52Z</time>
      </trkpt>
      <trkpt lat="47.10373" lon="-2.06672">
        <ele>35.5</ele>
        <time>2020-06-05T10:43:53Z</time>
      </trkpt>
      <trkpt lat="47.10375" lon="-2.06678">
        <ele>35.5</ele>
        <time>2020-06-05T10:43:54Z</time>
      </trkpt>
      <trkpt lat="47.10377" lon="-2.06684">
        <ele>35.5</ele>
        <time>2020-06-05T10:43:55Z</time>
      </trkpt>
      <trkpt lat="47.10379" lon="-2.06689">
        <ele>35.4</ele>
        <time>2020-06-05T10:43:56Z</time>
      </trkpt>
      <trkpt lat="47.10382" lon="-2.06697">
        <ele>35.4</ele>
        <time>2020-06-05T10:43:57Z</time>
      </trkpt>
      <trkpt lat="47.10384" lon="-2.06703">
        <ele>35.3</ele>
        <time>2020-06-05T10:43:58Z</time>
      </trkpt>
      <trkpt lat="47.10388" lon="-2.06709">
        <ele>35.3</ele>
        <time>2020-06-05T10:43:59Z</time>
      </trkpt>
      <trkpt lat="47.10391" lon="-2.06714">
        <ele>35.2</ele>
        <time>2020-06-05T10:44:00Z</time>
      </trkpt>
      <trkpt lat="47.10393" lon="-2.0672">
        <ele>35.2</ele>
        <time>2020-06-05T10:44:01Z</time>
      </trkpt>
      <trkpt lat="47.10396" lon="-2.06728">
        <ele>35.1</ele>
        <time>2020-06-05T10:44:02Z</time>
      </trkpt>
      <trkpt lat="47.10398" lon="-2.06734">
        <ele>35.1</ele>
        <time>2020-06-05T10:44:03Z</time>
      </trkpt>
      <trkpt lat="47.10401" lon="-2.0674">
        <ele>35</ele>
        <time>2020-06-05T10:44:04Z</time>
      </trkpt>
      <trkpt lat="47.10403" lon="-2.06745">
        <ele>35</ele>
        <time>2020-06-05T10:44:05Z</time>
      </trkpt>
      <trkpt lat="47.10406" lon="-2.06751">
        <ele>35</ele>
        <time>2020-06-05T10:44:06Z</time>
      </trkpt>
      <trkpt lat="47.10408" lon="-2.06757">
        <ele>35</ele>
        <time>2020-06-05T10:44:07Z</time>
      </trkpt>
      <trkpt lat="47.1041" lon="-2.06763">
        <ele>34.9</ele>
        <time>2020-06-05T10:44:08Z</time>
      </trkpt>
      <trkpt lat="47.10413" lon="-2.06768">
        <ele>34.9</ele>
        <time>2020-06-05T10:44:09Z</time>
      </trkpt>
      <trkpt lat="47.10415" lon="-2.06774">
        <ele>34.8</ele>
        <time>2020-06-05T10:44:10Z</time>
      </trkpt>
      <trkpt lat="47.10417" lon="-2.06781">
        <ele>34.8</ele>
        <time>2020-06-05T10:44:11Z</time>
      </trkpt>
      <trkpt lat="47.1042" lon="-2.06787">
        <ele>34.7</ele>
        <time>2020-06-05T10:44:12Z</time>
      </trkpt>
      <trkpt lat="47.10423" lon="-2.06794">
        <ele>34.7</ele>
        <time>2020-06-05T10:44:13Z</time>
      </trkpt>
      <trkpt lat="47.10425" lon="-2.068">
        <ele>34.6</ele>
        <time>2020-06-05T10:44:14Z</time>
      </trkpt>
      <trkpt lat="47.10428" lon="-2.06805">
        <ele>34.6</ele>
        <time>2020-06-05T10:44:15Z</time>
      </trkpt>
      <trkpt lat="47.10431" lon="-2.0681">
        <ele>34.5</ele>
        <time>2020-06-05T10:44:16Z</time>
      </trkpt>
      <trkpt lat="47.10434" lon="-2.06816">
        <ele>34.5</ele>
        <time>2020-06-05T10:44:17Z</time>
      </trkpt>
      <trkpt lat="47.10436" lon="-2.06823">
        <ele>34.4</ele>
        <time>2020-06-05T10:44:18Z</time>
      </trkpt>
      <trkpt lat="47.1044" lon="-2.0683">
        <ele>34.4</ele>
        <time>2020-06-05T10:44:19Z</time>
      </trkpt>
      <trkpt lat="47.10444" lon="-2.06836">
        <ele>34.3</ele>
        <time>2020-06-05T10:44:20Z</time>
      </trkpt>
      <trkpt lat="47.10448" lon="-2.06841">
        <ele>34.3</ele>
        <time>2020-06-05T10:44:21Z</time>
      </trkpt>
      <trkpt lat="47.10451" lon="-2.06847">
        <ele>34.3</ele>
        <time>2020-06-05T10:44:22Z</time>
      </trkpt>
      <trkpt lat="47.10454" lon="-2.06853">
        <ele>34.2</ele>
        <time>2020-06-05T10:44:23Z</time>
      </trkpt>
      <trkpt lat="47.10457" lon="-2.06859">
        <ele>34.2</ele>
        <time>2020-06-05T10:44:24Z</time>
      </trkpt>
      <trkpt lat="47.10461" lon="-2.06865">
        <ele>34.2</ele>
        <time>2020-06-05T10:44:25Z</time>
      </trkpt>
      <trkpt lat="47.10464" lon="-2.06871">
        <ele>34.2</ele>
        <time>2020-06-05T10:44:26Z</time>
      </trkpt>
      <trkpt lat="47.10467" lon="-2.06877">
        <ele>34.2</ele>
        <time>2020-06-05T10:44:27Z</time>
      </trkpt>
      <trkpt lat="47.1047" lon="-2.06882">
        <ele>34.2</ele>
        <time>2020-06-05T10:44:28Z</time>
      </trkpt>
      <trkpt lat="47.10473" lon="-2.06888">
        <ele>34.2</ele>
        <time>2020-06-05T10:44:29Z</time>
      </trkpt>
      <trkpt lat="47.10476" lon="-2.06894">
        <ele>34.2</ele>
        <time>2020-06-05T10:44:30Z</time>
      </trkpt>
      <trkpt lat="47.10479" lon="-2.06899">
        <ele>34.1</ele>
        <time>2020-06-05T10:44:31Z</time>
      </trkpt>
      <trkpt lat="47.10482" lon="-2.06904">
        <ele>34.1</ele>
        <time>2020-06-05T10:44:32Z</time>
      </trkpt>
      <trkpt lat="47.10485" lon="-2.06908">
        <ele>34</ele>
        <time>2020-06-05T10:44:33Z</time>
      </trkpt>
      <trkpt lat="47.10487" lon="-2.06912">
        <ele>34</ele>
        <time>2020-06-05T10:44:34Z</time>
      </trkpt>
      <trkpt lat="47.10489" lon="-2.06915">
        <ele>34</ele>
        <time>2020-06-05T10:44:35Z</time>
      </trkpt>
      <trkpt lat="47.1049" lon="-2.06919">
        <ele>33.9</ele>
        <time>2020-06-05T10:44:36Z</time>
      </trkpt>
      <trkpt lat="47.1049" lon="-2.06925">
        <ele>33.9</ele>
        <time>2020-06-05T10:44:37Z</time>
      </trkpt>
      <trkpt lat="47.10489" lon="-2.06928">
        <ele>33.9</ele>
        <time>2020-06-05T10:44:38Z</time>
      </trkpt>
      <trkpt lat="47.10487" lon="-2.06932">
        <ele>33.8</ele>
        <time>2020-06-05T10:44:39Z</time>
      </trkpt>
      <trkpt lat="47.10485" lon="-2.06936">
        <ele>33.8</ele>
        <time>2020-06-05T10:44:40Z</time>
      </trkpt>
      <trkpt lat="47.10483" lon="-2.06941">
        <ele>33.8</ele>
        <time>2020-06-05T10:44:41Z</time>
      </trkpt>
      <trkpt lat="47.10482" lon="-2.06946">
        <ele>33.7</ele>
        <time>2020-06-05T10:44:42Z</time>
      </trkpt>
      <trkpt lat="47.1048" lon="-2.06951">
        <ele>33.7</ele>
        <time>2020-06-05T10:44:43Z</time>
      </trkpt>
      <trkpt lat="47.10477" lon="-2.06957">
        <ele>33.6</ele>
        <time>2020-06-05T10:44:44Z</time>
      </trkpt>
      <trkpt lat="47.10474" lon="-2.06962">
        <ele>33.5</ele>
        <time>2020-06-05T10:44:45Z</time>
      </trkpt>
      <trkpt lat="47.10472" lon="-2.06969">
        <ele>33.4</ele>
        <time>2020-06-05T10:44:46Z</time>
      </trkpt>
      <trkpt lat="47.10471" lon="-2.06975">
        <ele>33.4</ele>
        <time>2020-06-05T10:44:47Z</time>
      </trkpt>
      <trkpt lat="47.10468" lon="-2.06982">
        <ele>33.3</ele>
        <time>2020-06-05T10:44:48Z</time>
      </trkpt>
      <trkpt lat="47.10466" lon="-2.06988">
        <ele>33.2</ele>
        <time>2020-06-05T10:44:49Z</time>
      </trkpt>
      <trkpt lat="47.10464" lon="-2.06994">
        <ele>33.1</ele>
        <time>2020-06-05T10:44:50Z</time>
      </trkpt>
      <trkpt lat="47.10461" lon="-2.07">
        <ele>33.1</ele>
        <time>2020-06-05T10:44:51Z</time>
      </trkpt>
      <trkpt lat="47.10459" lon="-2.07006">
        <ele>33.1</ele>
        <time>2020-06-05T10:44:52Z</time>
      </trkpt>
      <trkpt lat="47.10457" lon="-2.07013">
        <ele>33</ele>
        <time>2020-06-05T10:44:53Z</time>
      </trkpt>
      <trkpt lat="47.10455" lon="-2.07021">
        <ele>33</ele>
        <time>2020-06-05T10:44:54Z</time>
      </trkpt>
      <trkpt lat="47.10453" lon="-2.07028">
        <ele>33</ele>
        <time>2020-06-05T10:44:55Z</time>
      </trkpt>
      <trkpt lat="47.10451" lon="-2.07035">
        <ele>32.9</ele>
        <time>2020-06-05T10:44:56Z</time>
      </trkpt>
      <trkpt lat="47.10449" lon="-2.07042">
        <ele>32.9</ele>
        <time>2020-06-05T10:44:57Z</time>
      </trkpt>
      <trkpt lat="47.10448" lon="-2.07049">
        <ele>32.9</ele>
        <time>2020-06-05T10:44:58Z</time>
      </trkpt>
      <trkpt lat="47.10446" lon="-2.07056">
        <ele>32.9</ele>
        <time>2020-06-05T10:44:59Z</time>
      </trkpt>
      <trkpt lat="47.10444" lon="-2.07062">
        <ele>32.9</ele>
        <time>2020-06-05T10:45:00Z</time>
      </trkpt>
      <trkpt lat="47.10442" lon="-2.07068">
        <ele>32.9</ele>
        <time>2020-06-05T10:45:01Z</time>
      </trkpt>
      <trkpt lat="47.1044" lon="-2.07072">
        <ele>32.8</ele>
        <time>2020-06-05T10:45:02Z</time>
      </trkpt>
      <trkpt lat="47.10438" lon="-2.07076">
        <ele>32.8</ele>
        <time>2020-06-05T10:45:03Z</time>
      </trkpt>
      <trkpt lat="47.10438" lon="-2.07077">
        <ele>32.8</ele>
        <time>2020-06-05T10:45:04Z</time>
      </trkpt>
      <trkpt lat="47.10437" lon="-2.0708">
        <ele>32.7</ele>
        <time>2020-06-05T10:45:05Z</time>
      </trkpt>
      <trkpt lat="47.10437" lon="-2.07082">
        <ele>32.7</ele>
        <time>2020-06-05T10:45:06Z</time>
      </trkpt>
      <trkpt lat="47.10437" lon="-2.07088">
        <ele>32.6</ele>
        <time>2020-06-05T10:45:07Z</time>
      </trkpt>
      <trkpt lat="47.10437" lon="-2.07091">
        <ele>32.6</ele>
        <time>2020-06-05T10:45:08Z</time>
      </trkpt>
      <trkpt lat="47.10437" lon="-2.07095">
        <ele>32.6</ele>
        <time>2020-06-05T10:45:09Z</time>
      </trkpt>
      <trkpt lat="47.10437" lon="-2.07101">
        <ele>32.5</ele>
        <time>2020-06-05T10:45:10Z</time>
      </trkpt>
      <trkpt lat="47.10437" lon="-2.07106">
        <ele>32.4</ele>
        <time>2020-06-05T10:45:11Z</time>
      </trkpt>
      <trkpt lat="47.10437" lon="-2.07113">
        <ele>32.3</ele>
        <time>2020-06-05T10:45:12Z</time>
      </trkpt>
      <trkpt lat="47.10436" lon="-2.07119">
        <ele>32.2</ele>
        <time>2020-06-05T10:45:13Z</time>
      </trkpt>
      <trkpt lat="47.10437" lon="-2.07126">
        <ele>32</ele>
        <time>2020-06-05T10:45:14Z</time>
      </trkpt>
      <trkpt lat="47.10437" lon="-2.07133">
        <ele>31.9</ele>
        <time>2020-06-05T10:45:15Z</time>
      </trkpt>
      <trkpt lat="47.10437" lon="-2.07139">
        <ele>31.8</ele>
        <time>2020-06-05T10:45:16Z</time>
      </trkpt>
      <trkpt lat="47.10437" lon="-2.07146">
        <ele>31.7</ele>
        <time>2020-06-05T10:45:17Z</time>
      </trkpt>
      <trkpt lat="47.10437" lon="-2.07153">
        <ele>31.6</ele>
        <time>2020-06-05T10:45:18Z</time>
      </trkpt>
      <trkpt lat="47.10436" lon="-2.07159">
        <ele>31.6</ele>
        <time>2020-06-05T10:45:19Z</time>
      </trkpt>
      <trkpt lat="47.10436" lon="-2.07166">
        <ele>31.5</ele>
        <time>2020-06-05T10:45:20Z</time>
      </trkpt>
      <trkpt lat="47.10435" lon="-2.07174">
        <ele>31.4</ele>
        <time>2020-06-05T10:45:21Z</time>
      </trkpt>
      <trkpt lat="47.10435" lon="-2.07181">
        <ele>31.3</ele>
        <time>2020-06-05T10:45:22Z</time>
      </trkpt>
      <trkpt lat="47.10434" lon="-2.07189">
        <ele>31.1</ele>
        <time>2020-06-05T10:45:23Z</time>
      </trkpt>
      <trkpt lat="47.10432" lon="-2.07197">
        <ele>31</ele>
        <time>2020-06-05T10:45:24Z</time>
      </trkpt>
      <trkpt lat="47.1043" lon="-2.07205">
        <ele>30.8</ele>
        <time>2020-06-05T10:45:25Z</time>
      </trkpt>
      <trkpt lat="47.10428" lon="-2.07212">
        <ele>30.6</ele>
        <time>2020-06-05T10:45:26Z</time>
      </trkpt>
      <trkpt lat="47.10427" lon="-2.07219">
        <ele>30.4</ele>
        <time>2020-06-05T10:45:27Z</time>
      </trkpt>
      <trkpt lat="47.10425" lon="-2.07226">
        <ele>30.3</ele>
        <time>2020-06-05T10:45:28Z</time>
      </trkpt>
      <trkpt lat="47.10423" lon="-2.07232">
        <ele>30.1</ele>
        <time>2020-06-05T10:45:29Z</time>
      </trkpt>
      <trkpt lat="47.10421" lon="-2.07239">
        <ele>30</ele>
        <time>2020-06-05T10:45:30Z</time>
      </trkpt>
      <trkpt lat="47.10418" lon="-2.07246">
        <ele>29.9</ele>
        <time>2020-06-05T10:45:31Z</time>
      </trkpt>
      <trkpt lat="47.10415" lon="-2.07251">
        <ele>29.8</ele>
        <time>2020-06-05T10:45:32Z</time>
      </trkpt>
      <trkpt lat="47.10412" lon="-2.07259">
        <ele>29.5</ele>
        <time>2020-06-05T10:45:33Z</time>
      </trkpt>
      <trkpt lat="47.10409" lon="-2.07266">
        <ele>29.4</ele>
        <time>2020-06-05T10:45:34Z</time>
      </trkpt>
      <trkpt lat="47.10406" lon="-2.07273">
        <ele>29.1</ele>
        <time>2020-06-05T10:45:35Z</time>
      </trkpt>
      <trkpt lat="47.10402" lon="-2.07279">
        <ele>28.9</ele>
        <time>2020-06-05T10:45:36Z</time>
      </trkpt>
      <trkpt lat="47.10397" lon="-2.07286">
        <ele>28.6</ele>
        <time>2020-06-05T10:45:37Z</time>
      </trkpt>
      <trkpt lat="47.10394" lon="-2.07292">
        <ele>28.3</ele>
        <time>2020-06-05T10:45:38Z</time>
      </trkpt>
      <trkpt lat="47.1039" lon="-2.07298">
        <ele>28</ele>
        <time>2020-06-05T10:45:39Z</time>
      </trkpt>
      <trkpt lat="47.10387" lon="-2.07307">
        <ele>27.7</ele>
        <time>2020-06-05T10:45:40Z</time>
      </trkpt>
      <trkpt lat="47.10384" lon="-2.07315">
        <ele>27.4</ele>
        <time>2020-06-05T10:45:41Z</time>
      </trkpt>
      <trkpt lat="47.10382" lon="-2.07323">
        <ele>27</ele>
        <time>2020-06-05T10:45:42Z</time>
      </trkpt>
      <trkpt lat="47.10379" lon="-2.07331">
        <ele>26.7</ele>
        <time>2020-06-05T10:45:43Z</time>
      </trkpt>
      <trkpt lat="47.10378" lon="-2.07339">
        <ele>26.4</ele>
        <time>2020-06-05T10:45:44Z</time>
      </trkpt>
      <trkpt lat="47.10377" lon="-2.07347">
        <ele>26.1</ele>
        <time>2020-06-05T10:45:45Z</time>
      </trkpt>
      <trkpt lat="47.10376" lon="-2.07354">
        <ele>25.7</ele>
        <time>2020-06-05T10:45:46Z</time>
      </trkpt>
      <trkpt lat="47.10374" lon="-2.07361">
        <ele>25.4</ele>
        <time>2020-06-05T10:45:47Z</time>
      </trkpt>
      <trkpt lat="47.10372" lon="-2.07367">
        <ele>25</ele>
        <time>2020-06-05T10:45:48Z</time>
      </trkpt>
      <trkpt lat="47.1037" lon="-2.07374">
        <ele>24.7</ele>
        <time>2020-06-05T10:45:49Z</time>
      </trkpt>
      <trkpt lat="47.10369" lon="-2.07381">
        <ele>24.4</ele>
        <time>2020-06-05T10:45:50Z</time>
      </trkpt>
      <trkpt lat="47.10368" lon="-2.07389">
        <ele>24</ele>
        <time>2020-06-05T10:45:51Z</time>
      </trkpt>
      <trkpt lat="47.10367" lon="-2.07397">
        <ele>23.5</ele>
        <time>2020-06-05T10:45:52Z</time>
      </trkpt>
      <trkpt lat="47.10365" lon="-2.07406">
        <ele>23.1</ele>
        <time>2020-06-05T10:45:53Z</time>
      </trkpt>
      <trkpt lat="47.10363" lon="-2.07416">
        <ele>22.7</ele>
        <time>2020-06-05T10:45:54Z</time>
      </trkpt>
      <trkpt lat="47.10362" lon="-2.07426">
        <ele>22.4</ele>
        <time>2020-06-05T10:45:55Z</time>
      </trkpt>
      <trkpt lat="47.1036" lon="-2.07435">
        <ele>22.2</ele>
        <time>2020-06-05T10:45:56Z</time>
      </trkpt>
      <trkpt lat="47.10357" lon="-2.07445">
        <ele>22.1</ele>
        <time>2020-06-05T10:45:57Z</time>
      </trkpt>
      <trkpt lat="47.10354" lon="-2.07455">
        <ele>22</ele>
        <time>2020-06-05T10:45:58Z</time>
      </trkpt>
      <trkpt lat="47.10352" lon="-2.07465">
        <ele>22.2</ele>
        <time>2020-06-05T10:45:59Z</time>
      </trkpt>
      <trkpt lat="47.1035" lon="-2.07475">
        <ele>22.3</ele>
        <time>2020-06-05T10:46:00Z</time>
      </trkpt>
      <trkpt lat="47.10349" lon="-2.07484">
        <ele>22.4</ele>
        <time>2020-06-05T10:46:01Z</time>
      </trkpt>
      <trkpt lat="47.1035" lon="-2.07492">
        <ele>22.5</ele>
        <time>2020-06-05T10:46:02Z</time>
      </trkpt>
      <trkpt lat="47.10352" lon="-2.07498">
        <ele>22.6</ele>
        <time>2020-06-05T10:46:03Z</time>
      </trkpt>
      <trkpt lat="47.10355" lon="-2.07504">
        <ele>22.6</ele>
        <time>2020-06-05T10:46:04Z</time>
      </trkpt>
      <trkpt lat="47.10358" lon="-2.07508">
        <ele>22.7</ele>
        <time>2020-06-05T10:46:05Z</time>
      </trkpt>
      <trkpt lat="47.10361" lon="-2.07512">
        <ele>22.8</ele>
        <time>2020-06-05T10:46:06Z</time>
      </trkpt>
      <trkpt lat="47.10363" lon="-2.07517">
        <ele>22.8</ele>
        <time>2020-06-05T10:46:07Z</time>
      </trkpt>
      <trkpt lat="47.10366" lon="-2.0752">
        <ele>22.9</ele>
        <time>2020-06-05T10:46:08Z</time>
      </trkpt>
      <trkpt lat="47.10368" lon="-2.07524">
        <ele>23</ele>
        <time>2020-06-05T10:46:09Z</time>
      </trkpt>
      <trkpt lat="47.1037" lon="-2.0753">
        <ele>23.2</ele>
        <time>2020-06-05T10:46:10Z</time>
      </trkpt>
      <trkpt lat="47.10371" lon="-2.07532">
        <ele>23.2</ele>
        <time>2020-06-05T10:46:11Z</time>
      </trkpt>
      <trkpt lat="47.10373" lon="-2.07537">
        <ele>23.3</ele>
        <time>2020-06-05T10:46:12Z</time>
      </trkpt>
      <trkpt lat="47.10376" lon="-2.07541">
        <ele>23.4</ele>
        <time>2020-06-05T10:46:13Z</time>
      </trkpt>
      <trkpt lat="47.10378" lon="-2.07546">
        <ele>23.4</ele>
        <time>2020-06-05T10:46:14Z</time>
      </trkpt>
      <trkpt lat="47.1038" lon="-2.0755">
        <ele>23.5</ele>
        <time>2020-06-05T10:46:15Z</time>
      </trkpt>
      <trkpt lat="47.10381" lon="-2.07556">
        <ele>23.5</ele>
        <time>2020-06-05T10:46:16Z</time>
      </trkpt>
      <trkpt lat="47.10382" lon="-2.07562">
        <ele>23.6</ele>
        <time>2020-06-05T10:46:17Z</time>
      </trkpt>
      <trkpt lat="47.10384" lon="-2.07569">
        <ele>23.6</ele>
        <time>2020-06-05T10:46:18Z</time>
      </trkpt>
      <trkpt lat="47.10387" lon="-2.07576">
        <ele>23.7</ele>
        <time>2020-06-05T10:46:19Z</time>
      </trkpt>
      <trkpt lat="47.10389" lon="-2.07582">
        <ele>23.8</ele>
        <time>2020-06-05T10:46:20Z</time>
      </trkpt>
      <trkpt lat="47.10391" lon="-2.07588">
        <ele>23.9</ele>
        <time>2020-06-05T10:46:21Z</time>
      </trkpt>
      <trkpt lat="47.10392" lon="-2.07593">
        <ele>23.9</ele>
        <time>2020-06-05T10:46:22Z</time>
      </trkpt>
      <trkpt lat="47.10393" lon="-2.07599">
        <ele>24</ele>
        <time>2020-06-05T10:46:23Z</time>
      </trkpt>
      <trkpt lat="47.10394" lon="-2.07604">
        <ele>24.1</ele>
        <time>2020-06-05T10:46:24Z</time>
      </trkpt>
      <trkpt lat="47.10395" lon="-2.07611">
        <ele>24.1</ele>
        <time>2020-06-05T10:46:25Z</time>
      </trkpt>
      <trkpt lat="47.10396" lon="-2.07616">
        <ele>24.1</ele>
        <time>2020-06-05T10:46:26Z</time>
      </trkpt>
      <trkpt lat="47.10397" lon="-2.0762">
        <ele>24.2</ele>
        <time>2020-06-05T10:46:27Z</time>
      </trkpt>
      <trkpt lat="47.10399" lon="-2.07625">
        <ele>24.2</ele>
        <time>2020-06-05T10:46:28Z</time>
      </trkpt>
      <trkpt lat="47.104" lon="-2.0763">
        <ele>24.2</ele>
        <time>2020-06-05T10:46:29Z</time>
      </trkpt>
      <trkpt lat="47.10401" lon="-2.07633">
        <ele>24.2</ele>
        <time>2020-06-05T10:46:30Z</time>
      </trkpt>
      <trkpt lat="47.10402" lon="-2.07638">
        <ele>24.2</ele>
        <time>2020-06-05T10:46:31Z</time>
      </trkpt>
      <trkpt lat="47.10403" lon="-2.07642">
        <ele>24.2</ele>
        <time>2020-06-05T10:46:32Z</time>
      </trkpt>
      <trkpt lat="47.10404" lon="-2.07646">
        <ele>24.1</ele>
        <time>2020-06-05T10:46:33Z</time>
      </trkpt>
      <trkpt lat="47.10405" lon="-2.07652">
        <ele>24.1</ele>
        <time>2020-06-05T10:46:34Z</time>
      </trkpt>
      <trkpt lat="47.10406" lon="-2.07657">
        <ele>24</ele>
        <time>2020-06-05T10:46:35Z</time>
      </trkpt>
      <trkpt lat="47.10408" lon="-2.07661">
        <ele>23.9</ele>
        <time>2020-06-05T10:46:36Z</time>
      </trkpt>
      <trkpt lat="47.1041" lon="-2.07668">
        <ele>23.8</ele>
        <time>2020-06-05T10:46:37Z</time>
      </trkpt>
      <trkpt lat="47.10411" lon="-2.07676">
        <ele>23.7</ele>
        <time>2020-06-05T10:46:38Z</time>
      </trkpt>
      <trkpt lat="47.10413" lon="-2.07683">
        <ele>23.6</ele>
        <time>2020-06-05T10:46:39Z</time>
      </trkpt>
      <trkpt lat="47.10414" lon="-2.0769">
        <ele>23.5</ele>
        <time>2020-06-05T10:46:40Z</time>
      </trkpt>
      <trkpt lat="47.10414" lon="-2.07698">
        <ele>23.4</ele>
        <time>2020-06-05T10:46:41Z</time>
      </trkpt>
      <trkpt lat="47.10414" lon="-2.07706">
        <ele>23.3</ele>
        <time>2020-06-05T10:46:42Z</time>
      </trkpt>
      <trkpt lat="47.10414" lon="-2.07714">
        <ele>23.2</ele>
        <time>2020-06-05T10:46:43Z</time>
      </trkpt>
      <trkpt lat="47.10412" lon="-2.0772">
        <ele>23.2</ele>
        <time>2020-06-05T10:46:44Z</time>
      </trkpt>
      <trkpt lat="47.10409" lon="-2.07727">
        <ele>23.1</ele>
        <time>2020-06-05T10:46:45Z</time>
      </trkpt>
      <trkpt lat="47.10407" lon="-2.07734">
        <ele>23</ele>
        <time>2020-06-05T10:46:46Z</time>
      </trkpt>
      <trkpt lat="47.10405" lon="-2.07742">
        <ele>22.9</ele>
        <time>2020-06-05T10:46:47Z</time>
      </trkpt>
      <trkpt lat="47.10403" lon="-2.07749">
        <ele>22.8</ele>
        <time>2020-06-05T10:46:48Z</time>
      </trkpt>
      <trkpt lat="47.10401" lon="-2.07756">
        <ele>22.7</ele>
        <time>2020-06-05T10:46:49Z</time>
      </trkpt>
      <trkpt lat="47.10399" lon="-2.07764">
        <ele>22.6</ele>
        <time>2020-06-05T10:46:50Z</time>
      </trkpt>
      <trkpt lat="47.10397" lon="-2.07772">
        <ele>22.5</ele>
        <time>2020-06-05T10:46:51Z</time>
      </trkpt>
      <trkpt lat="47.10396" lon="-2.0778">
        <ele>22.4</ele>
        <time>2020-06-05T10:46:52Z</time>
      </trkpt>
      <trkpt lat="47.10394" lon="-2.07789">
        <ele>22.3</ele>
        <time>2020-06-05T10:46:53Z</time>
      </trkpt>
      <trkpt lat="47.10393" lon="-2.07797">
        <ele>22.2</ele>
        <time>2020-06-05T10:46:54Z</time>
      </trkpt>
      <trkpt lat="47.10391" lon="-2.07805">
        <ele>22.2</ele>
        <time>2020-06-05T10:46:55Z</time>
      </trkpt>
      <trkpt lat="47.10389" lon="-2.07813">
        <ele>22.2</ele>
        <time>2020-06-05T10:46:56Z</time>
      </trkpt>
      <trkpt lat="47.10389" lon="-2.0782">
        <ele>22.1</ele>
        <time>2020-06-05T10:46:57Z</time>
      </trkpt>
      <trkpt lat="47.10388" lon="-2.07827">
        <ele>22.1</ele>
        <time>2020-06-05T10:46:58Z</time>
      </trkpt>
      <trkpt lat="47.10388" lon="-2.07834">
        <ele>22.1</ele>
        <time>2020-06-05T10:46:59Z</time>
      </trkpt>
      <trkpt lat="47.10388" lon="-2.0784">
        <ele>22.1</ele>
        <time>2020-06-05T10:47:00Z</time>
      </trkpt>
      <trkpt lat="47.10388" lon="-2.07845">
        <ele>22.1</ele>
        <time>2020-06-05T10:47:01Z</time>
      </trkpt>
      <trkpt lat="47.10388" lon="-2.07851">
        <ele>22</ele>
        <time>2020-06-05T10:47:02Z</time>
      </trkpt>
      <trkpt lat="47.10388" lon="-2.07859">
        <ele>22</ele>
        <time>2020-06-05T10:47:03Z</time>
      </trkpt>
      <trkpt lat="47.10388" lon="-2.07867">
        <ele>22</ele>
        <time>2020-06-05T10:47:04Z</time>
      </trkpt>
      <trkpt lat="47.10389" lon="-2.07874">
        <ele>22</ele>
        <time>2020-06-05T10:47:05Z</time>
      </trkpt>
      <trkpt lat="47.10389" lon="-2.07882">
        <ele>22</ele>
        <time>2020-06-05T10:47:06Z</time>
      </trkpt>
      <trkpt lat="47.10391" lon="-2.0789">
        <ele>22</ele>
        <time>2020-06-05T10:47:07Z</time>
      </trkpt>
      <trkpt lat="47.10392" lon="-2.07899">
        <ele>22</ele>
        <time>2020-06-05T10:47:08Z</time>
      </trkpt>
      <trkpt lat="47.10394" lon="-2.07907">
        <ele>22</ele>
        <time>2020-06-05T10:47:09Z</time>
      </trkpt>
      <trkpt lat="47.10395" lon="-2.07916">
        <ele>22</ele>
        <time>2020-06-05T10:47:10Z</time>
      </trkpt>
      <trkpt lat="47.10399" lon="-2.07922">
        <ele>22</ele>
        <time>2020-06-05T10:47:11Z</time>
      </trkpt>
      <trkpt lat="47.10402" lon="-2.07928">
        <ele>22.1</ele>
        <time>2020-06-05T10:47:12Z</time>
      </trkpt>
      <trkpt lat="47.10405" lon="-2.07935">
        <ele>22.1</ele>
        <time>2020-06-05T10:47:13Z</time>
      </trkpt>
      <trkpt lat="47.10408" lon="-2.07941">
        <ele>22.2</ele>
        <time>2020-06-05T10:47:14Z</time>
      </trkpt>
      <trkpt lat="47.10411" lon="-2.07949">
        <ele>22.3</ele>
        <time>2020-06-05T10:47:15Z</time>
      </trkpt>
      <trkpt lat="47.10412" lon="-2.07955">
        <ele>22.4</ele>
        <time>2020-06-05T10:47:16Z</time>
      </trkpt>
      <trkpt lat="47.10415" lon="-2.07962">
        <ele>22.5</ele>
        <time>2020-06-05T10:47:17Z</time>
      </trkpt>
      <trkpt lat="47.10418" lon="-2.07969">
        <ele>22.7</ele>
        <time>2020-06-05T10:47:18Z</time>
      </trkpt>
      <trkpt lat="47.10421" lon="-2.07976">
        <ele>22.8</ele>
        <time>2020-06-05T10:47:19Z</time>
      </trkpt>
      <trkpt lat="47.10424" lon="-2.07982">
        <ele>22.9</ele>
        <time>2020-06-05T10:47:20Z</time>
      </trkpt>
      <trkpt lat="47.10426" lon="-2.07988">
        <ele>23</ele>
        <time>2020-06-05T10:47:21Z</time>
      </trkpt>
      <trkpt lat="47.10429" lon="-2.07994">
        <ele>23.1</ele>
        <time>2020-06-05T10:47:22Z</time>
      </trkpt>
      <trkpt lat="47.10431" lon="-2.08">
        <ele>23.2</ele>
        <time>2020-06-05T10:47:23Z</time>
      </trkpt>
      <trkpt lat="47.10433" lon="-2.08004">
        <ele>23.3</ele>
        <time>2020-06-05T10:47:24Z</time>
      </trkpt>
      <trkpt lat="47.10435" lon="-2.08008">
        <ele>23.3</ele>
        <time>2020-06-05T10:47:25Z</time>
      </trkpt>
      <trkpt lat="47.10438" lon="-2.08012">
        <ele>23.4</ele>
        <time>2020-06-05T10:47:26Z</time>
      </trkpt>
      <trkpt lat="47.10442" lon="-2.08016">
        <ele>23.5</ele>
        <time>2020-06-05T10:47:27Z</time>
      </trkpt>
      <trkpt lat="47.10447" lon="-2.08021">
        <ele>23.6</ele>
        <time>2020-06-05T10:47:28Z</time>
      </trkpt>
      <trkpt lat="47.10451" lon="-2.08024">
        <ele>23.7</ele>
        <time>2020-06-05T10:47:29Z</time>
      </trkpt>
      <trkpt lat="47.10454" lon="-2.08027">
        <ele>23.8</ele>
        <time>2020-06-05T10:47:30Z</time>
      </trkpt>
      <trkpt lat="47.10457" lon="-2.08031">
        <ele>23.9</ele>
        <time>2020-06-05T10:47:31Z</time>
      </trkpt>
      <trkpt lat="47.1046" lon="-2.08034">
        <ele>23.9</ele>
        <time>2020-06-05T10:47:32Z</time>
      </trkpt>
      <trkpt lat="47.10464" lon="-2.08038">
        <ele>23.9</ele>
        <time>2020-06-05T10:47:33Z</time>
      </trkpt>
      <trkpt lat="47.10467" lon="-2.08042">
        <ele>24</ele>
        <time>2020-06-05T10:47:34Z</time>
      </trkpt>
      <trkpt lat="47.1047" lon="-2.08047">
        <ele>24</ele>
        <time>2020-06-05T10:47:35Z</time>
      </trkpt>
      <trkpt lat="47.10474" lon="-2.08052">
        <ele>24</ele>
        <time>2020-06-05T10:47:36Z</time>
      </trkpt>
      <trkpt lat="47.10478" lon="-2.08058">
        <ele>24.1</ele>
        <time>2020-06-05T10:47:37Z</time>
      </trkpt>
      <trkpt lat="47.10481" lon="-2.08064">
        <ele>24.1</ele>
        <time>2020-06-05T10:47:38Z</time>
      </trkpt>
      <trkpt lat="47.10484" lon="-2.0807">
        <ele>24.1</ele>
        <time>2020-06-05T10:47:39Z</time>
      </trkpt>
      <trkpt lat="47.10487" lon="-2.08075">
        <ele>24.1</ele>
        <time>2020-06-05T10:47:40Z</time>
      </trkpt>
      <trkpt lat="47.1049" lon="-2.08081">
        <ele>24.1</ele>
        <time>2020-06-05T10:47:41Z</time>
      </trkpt>
      <trkpt lat="47.10493" lon="-2.08088">
        <ele>24</ele>
        <time>2020-06-05T10:47:42Z</time>
      </trkpt>
      <trkpt lat="47.10496" lon="-2.08095">
        <ele>24</ele>
        <time>2020-06-05T10:47:43Z</time>
      </trkpt>
      <trkpt lat="47.105" lon="-2.08101">
        <ele>24</ele>
        <time>2020-06-05T10:47:44Z</time>
      </trkpt>
      <trkpt lat="47.10502" lon="-2.08107">
        <ele>23.9</ele>
        <time>2020-06-05T10:47:45Z</time>
      </trkpt>
      <trkpt lat="47.10505" lon="-2.08114">
        <ele>23.9</ele>
        <time>2020-06-05T10:47:46Z</time>
      </trkpt>
      <trkpt lat="47.10508" lon="-2.08121">
        <ele>23.9</ele>
        <time>2020-06-05T10:47:47Z</time>
      </trkpt>
      <trkpt lat="47.10512" lon="-2.08127">
        <ele>23.9</ele>
        <time>2020-06-05T10:47:48Z</time>
      </trkpt>
      <trkpt lat="47.10515" lon="-2.08134">
        <ele>23.9</ele>
        <time>2020-06-05T10:47:49Z</time>
      </trkpt>
      <trkpt lat="47.10519" lon="-2.0814">
        <ele>23.9</ele>
        <time>2020-06-05T10:47:50Z</time>
      </trkpt>
      <trkpt lat="47.10522" lon="-2.08147">
        <ele>23.9</ele>
        <time>2020-06-05T10:47:51Z</time>
      </trkpt>
      <trkpt lat="47.10526" lon="-2.08154">
        <ele>24.1</ele>
        <time>2020-06-05T10:47:52Z</time>
      </trkpt>
      <trkpt lat="47.10529" lon="-2.08161">
        <ele>24.2</ele>
        <time>2020-06-05T10:47:53Z</time>
      </trkpt>
      <trkpt lat="47.10533" lon="-2.08167">
        <ele>24.3</ele>
        <time>2020-06-05T10:47:54Z</time>
      </trkpt>
      <trkpt lat="47.10536" lon="-2.08174">
        <ele>24.5</ele>
        <time>2020-06-05T10:47:55Z</time>
      </trkpt>
      <trkpt lat="47.10539" lon="-2.08179">
        <ele>24.6</ele>
        <time>2020-06-05T10:47:56Z</time>
      </trkpt>
      <trkpt lat="47.10542" lon="-2.08186">
        <ele>24.7</ele>
        <time>2020-06-05T10:47:57Z</time>
      </trkpt>
      <trkpt lat="47.10545" lon="-2.08192">
        <ele>24.8</ele>
        <time>2020-06-05T10:47:58Z</time>
      </trkpt>
      <trkpt lat="47.10547" lon="-2.08198">
        <ele>24.9</ele>
        <time>2020-06-05T10:47:59Z</time>
      </trkpt>
      <trkpt lat="47.10549" lon="-2.08204">
        <ele>25</ele>
        <time>2020-06-05T10:48:00Z</time>
      </trkpt>
      <trkpt lat="47.10552" lon="-2.08209">
        <ele>25</ele>
        <time>2020-06-05T10:48:01Z</time>
      </trkpt>
      <trkpt lat="47.10555" lon="-2.08214">
        <ele>25.1</ele>
        <time>2020-06-05T10:48:02Z</time>
      </trkpt>
      <trkpt lat="47.10558" lon="-2.08219">
        <ele>25.3</ele>
        <time>2020-06-05T10:48:03Z</time>
      </trkpt>
      <trkpt lat="47.10561" lon="-2.08225">
        <ele>25.4</ele>
        <time>2020-06-05T10:48:04Z</time>
      </trkpt>
      <trkpt lat="47.10565" lon="-2.08231">
        <ele>25.5</ele>
        <time>2020-06-05T10:48:05Z</time>
      </trkpt>
      <trkpt lat="47.10569" lon="-2.08237">
        <ele>25.6</ele>
        <time>2020-06-05T10:48:06Z</time>
      </trkpt>
      <trkpt lat="47.10573" lon="-2.08243">
        <ele>25.7</ele>
        <time>2020-06-05T10:48:07Z</time>
      </trkpt>
      <trkpt lat="47.10576" lon="-2.08248">
        <ele>25.8</ele>
        <time>2020-06-05T10:48:08Z</time>
      </trkpt>
      <trkpt lat="47.10578" lon="-2.08254">
        <ele>25.8</ele>
        <time>2020-06-05T10:48:09Z</time>
      </trkpt>
      <trkpt lat="47.10581" lon="-2.08259">
        <ele>25.9</ele>
        <time>2020-06-05T10:48:10Z</time>
      </trkpt>
      <trkpt lat="47.10584" lon="-2.08264">
        <ele>25.9</ele>
        <time>2020-06-05T10:48:11Z</time>
      </trkpt>
      <trkpt lat="47.10586" lon="-2.08269">
        <ele>25.9</ele>
        <time>2020-06-05T10:48:12Z</time>
      </trkpt>
      <trkpt lat="47.10589" lon="-2.08274">
        <ele>25.9</ele>
        <time>2020-06-05T10:48:13Z</time>
      </trkpt>
      <trkpt lat="47.10593" lon="-2.08279">
        <ele>25.9</ele>
        <time>2020-06-05T10:48:14Z</time>
      </trkpt>
      <trkpt lat="47.10596" lon="-2.08284">
        <ele>26</ele>
        <time>2020-06-05T10:48:15Z</time>
      </trkpt>
      <trkpt lat="47.10599" lon="-2.08288">
        <ele>26</ele>
        <time>2020-06-05T10:48:16Z</time>
      </trkpt>
      <trkpt lat="47.10603" lon="-2.08293">
        <ele>26</ele>
        <time>2020-06-05T10:48:17Z</time>
      </trkpt>
      <trkpt lat="47.10605" lon="-2.08299">
        <ele>26</ele>
        <time>2020-06-05T10:48:18Z</time>
      </trkpt>
      <trkpt lat="47.10607" lon="-2.08304">
        <ele>26.1</ele>
        <time>2020-06-05T10:48:19Z</time>
      </trkpt>
      <trkpt lat="47.1061" lon="-2.08309">
        <ele>26.1</ele>
        <time>2020-06-05T10:48:20Z</time>
      </trkpt>
      <trkpt lat="47.10613" lon="-2.08315">
        <ele>26.1</ele>
        <time>2020-06-05T10:48:21Z</time>
      </trkpt>
      <trkpt lat="47.10617" lon="-2.08321">
        <ele>26.1</ele>
        <time>2020-06-05T10:48:22Z</time>
      </trkpt>
      <trkpt lat="47.1062" lon="-2.08326">
        <ele>26</ele>
        <time>2020-06-05T10:48:23Z</time>
      </trkpt>
      <trkpt lat="47.10623" lon="-2.08332">
        <ele>26</ele>
        <time>2020-06-05T10:48:24Z</time>
      </trkpt>
      <trkpt lat="47.10627" lon="-2.08337">
        <ele>26</ele>
        <time>2020-06-05T10:48:25Z</time>
      </trkpt>
      <trkpt lat="47.1063" lon="-2.08343">
        <ele>25.9</ele>
        <time>2020-06-05T10:48:26Z</time>
      </trkpt>
      <trkpt lat="47.10633" lon="-2.08349">
        <ele>25.9</ele>
        <time>2020-06-05T10:48:27Z</time>
      </trkpt>
      <trkpt lat="47.10636" lon="-2.08354">
        <ele>25.9</ele>
        <time>2020-06-05T10:48:28Z</time>
      </trkpt>
      <trkpt lat="47.1064" lon="-2.08359">
        <ele>25.8</ele>
        <time>2020-06-05T10:48:29Z</time>
      </trkpt>
      <trkpt lat="47.10643" lon="-2.08364">
        <ele>25.8</ele>
        <time>2020-06-05T10:48:30Z</time>
      </trkpt>
      <trkpt lat="47.10647" lon="-2.0837">
        <ele>25.8</ele>
        <time>2020-06-05T10:48:31Z</time>
      </trkpt>
      <trkpt lat="47.10651" lon="-2.08376">
        <ele>25.7</ele>
        <time>2020-06-05T10:48:32Z</time>
      </trkpt>
      <trkpt lat="47.10654" lon="-2.08382">
        <ele>25.7</ele>
        <time>2020-06-05T10:48:33Z</time>
      </trkpt>
      <trkpt lat="47.10658" lon="-2.08389">
        <ele>25.7</ele>
        <time>2020-06-05T10:48:34Z</time>
      </trkpt>
      <trkpt lat="47.10662" lon="-2.08394">
        <ele>25.7</ele>
        <time>2020-06-05T10:48:35Z</time>
      </trkpt>
      <trkpt lat="47.10666" lon="-2.08401">
        <ele>25.7</ele>
        <time>2020-06-05T10:48:36Z</time>
      </trkpt>
      <trkpt lat="47.10669" lon="-2.08407">
        <ele>25.6</ele>
        <time>2020-06-05T10:48:37Z</time>
      </trkpt>
      <trkpt lat="47.10672" lon="-2.08413">
        <ele>25.6</ele>
        <time>2020-06-05T10:48:38Z</time>
      </trkpt>
      <trkpt lat="47.10675" lon="-2.08419">
        <ele>25.6</ele>
        <time>2020-06-05T10:48:39Z</time>
      </trkpt>
      <trkpt lat="47.10679" lon="-2.08425">
        <ele>25.6</ele>
        <time>2020-06-05T10:48:40Z</time>
      </trkpt>
      <trkpt lat="47.10682" lon="-2.08431">
        <ele>25.6</ele>
        <time>2020-06-05T10:48:41Z</time>
      </trkpt>
      <trkpt lat="47.10684" lon="-2.08437">
        <ele>25.6</ele>
        <time>2020-06-05T10:48:42Z</time>
      </trkpt>
      <trkpt lat="47.10687" lon="-2.08443">
        <ele>25.6</ele>
        <time>2020-06-05T10:48:43Z</time>
      </trkpt>
      <trkpt lat="47.1069" lon="-2.08449">
        <ele>25.7</ele>
        <time>2020-06-05T10:48:44Z</time>
      </trkpt>
      <trkpt lat="47.10692" lon="-2.08455">
        <ele>25.7</ele>
        <time>2020-06-05T10:48:45Z</time>
      </trkpt>
      <trkpt lat="47.10694" lon="-2.08462">
        <ele>25.7</ele>
        <time>2020-06-05T10:48:46Z</time>
      </trkpt>
      <trkpt lat="47.10696" lon="-2.08469">
        <ele>25.7</ele>
        <time>2020-06-05T10:48:47Z</time>
      </trkpt>
      <trkpt lat="47.10698" lon="-2.08476">
        <ele>25.8</ele>
        <time>2020-06-05T10:48:48Z</time>
      </trkpt>
      <trkpt lat="47.107" lon="-2.08483">
        <ele>25.8</ele>
        <time>2020-06-05T10:48:49Z</time>
      </trkpt>
      <trkpt lat="47.10703" lon="-2.0849">
        <ele>25.8</ele>
        <time>2020-06-05T10:48:50Z</time>
      </trkpt>
      <trkpt lat="47.10705" lon="-2.08498">
        <ele>25.9</ele>
        <time>2020-06-05T10:48:51Z</time>
      </trkpt>
      <trkpt lat="47.10706" lon="-2.08505">
        <ele>25.9</ele>
        <time>2020-06-05T10:48:52Z</time>
      </trkpt>
      <trkpt lat="47.10708" lon="-2.08513">
        <ele>26</ele>
        <time>2020-06-05T10:48:53Z</time>
      </trkpt>
      <trkpt lat="47.10708" lon="-2.08521">
        <ele>26.1</ele>
        <time>2020-06-05T10:48:54Z</time>
      </trkpt>
      <trkpt lat="47.1071" lon="-2.08528">
        <ele>26.1</ele>
        <time>2020-06-05T10:48:55Z</time>
      </trkpt>
      <trkpt lat="47.10711" lon="-2.08537">
        <ele>26.2</ele>
        <time>2020-06-05T10:48:56Z</time>
      </trkpt>
      <trkpt lat="47.10712" lon="-2.08544">
        <ele>26.3</ele>
        <time>2020-06-05T10:48:57Z</time>
      </trkpt>
      <trkpt lat="47.10713" lon="-2.08551">
        <ele>26.3</ele>
        <time>2020-06-05T10:48:58Z</time>
      </trkpt>
      <trkpt lat="47.10714" lon="-2.08558">
        <ele>26.4</ele>
        <time>2020-06-05T10:48:59Z</time>
      </trkpt>
      <trkpt lat="47.10714" lon="-2.08563">
        <ele>26.5</ele>
        <time>2020-06-05T10:49:00Z</time>
      </trkpt>
      <trkpt lat="47.10715" lon="-2.0857">
        <ele>26.6</ele>
        <time>2020-06-05T10:49:01Z</time>
      </trkpt>
      <trkpt lat="47.10716" lon="-2.08577">
        <ele>26.7</ele>
        <time>2020-06-05T10:49:02Z</time>
      </trkpt>
      <trkpt lat="47.10718" lon="-2.08584">
        <ele>26.8</ele>
        <time>2020-06-05T10:49:03Z</time>
      </trkpt>
      <trkpt lat="47.10719" lon="-2.08591">
        <ele>27</ele>
        <time>2020-06-05T10:49:04Z</time>
      </trkpt>
      <trkpt lat="47.1072" lon="-2.08598">
        <ele>27.1</ele>
        <time>2020-06-05T10:49:05Z</time>
      </trkpt>
      <trkpt lat="47.10721" lon="-2.08603">
        <ele>27.2</ele>
        <time>2020-06-05T10:49:06Z</time>
      </trkpt>
      <trkpt lat="47.10722" lon="-2.08609">
        <ele>27.2</ele>
        <time>2020-06-05T10:49:07Z</time>
      </trkpt>
      <trkpt lat="47.10724" lon="-2.08614">
        <ele>27.3</ele>
        <time>2020-06-05T10:49:08Z</time>
      </trkpt>
      <trkpt lat="47.10725" lon="-2.08619">
        <ele>27.3</ele>
        <time>2020-06-05T10:49:09Z</time>
      </trkpt>
      <trkpt lat="47.10726" lon="-2.08624">
        <ele>27.4</ele>
        <time>2020-06-05T10:49:10Z</time>
      </trkpt>
      <trkpt lat="47.10727" lon="-2.08629">
        <ele>27.4</ele>
        <time>2020-06-05T10:49:11Z</time>
      </trkpt>
      <trkpt lat="47.10729" lon="-2.08634">
        <ele>27.4</ele>
        <time>2020-06-05T10:49:12Z</time>
      </trkpt>
      <trkpt lat="47.10732" lon="-2.08641">
        <ele>27.5</ele>
        <time>2020-06-05T10:49:13Z</time>
      </trkpt>
      <trkpt lat="47.10733" lon="-2.08646">
        <ele>27.5</ele>
        <time>2020-06-05T10:49:14Z</time>
      </trkpt>
      <trkpt lat="47.10734" lon="-2.08651">
        <ele>27.5</ele>
        <time>2020-06-05T10:49:15Z</time>
      </trkpt>
      <trkpt lat="47.10736" lon="-2.08657">
        <ele>27.5</ele>
        <time>2020-06-05T10:49:16Z</time>
      </trkpt>
      <trkpt lat="47.10738" lon="-2.08659">
        <ele>27.6</ele>
        <time>2020-06-05T10:49:17Z</time>
      </trkpt>
      <trkpt lat="47.10739" lon="-2.08664">
        <ele>27.6</ele>
        <time>2020-06-05T10:49:18Z</time>
      </trkpt>
      <trkpt lat="47.10741" lon="-2.08668">
        <ele>27.6</ele>
        <time>2020-06-05T10:49:19Z</time>
      </trkpt>
      <trkpt lat="47.10742" lon="-2.08674">
        <ele>27.6</ele>
        <time>2020-06-05T10:49:20Z</time>
      </trkpt>
      <trkpt lat="47.10743" lon="-2.08678">
        <ele>27.6</ele>
        <time>2020-06-05T10:49:21Z</time>
      </trkpt>
      <trkpt lat="47.10744" lon="-2.08684">
        <ele>27.6</ele>
        <time>2020-06-05T10:49:22Z</time>
      </trkpt>
      <trkpt lat="47.10744" lon="-2.08689">
        <ele>27.6</ele>
        <time>2020-06-05T10:49:23Z</time>
      </trkpt>
      <trkpt lat="47.10745" lon="-2.08694">
        <ele>27.6</ele>
        <time>2020-06-05T10:49:24Z</time>
      </trkpt>
      <trkpt lat="47.10746" lon="-2.087">
        <ele>27.6</ele>
        <time>2020-06-05T10:49:25Z</time>
      </trkpt>
      <trkpt lat="47.10746" lon="-2.08706">
        <ele>27.6</ele>
        <time>2020-06-05T10:49:26Z</time>
      </trkpt>
      <trkpt lat="47.10747" lon="-2.08712">
        <ele>27.5</ele>
        <time>2020-06-05T10:49:27Z</time>
      </trkpt>
      <trkpt lat="47.10748" lon="-2.08718">
        <ele>27.5</ele>
        <time>2020-06-05T10:49:28Z</time>
      </trkpt>
      <trkpt lat="47.10749" lon="-2.08725">
        <ele>27.5</ele>
        <time>2020-06-05T10:49:29Z</time>
      </trkpt>
      <trkpt lat="47.10751" lon="-2.08731">
        <ele>27.4</ele>
        <time>2020-06-05T10:49:30Z</time>
      </trkpt>
      <trkpt lat="47.10752" lon="-2.08738">
        <ele>27.4</ele>
        <time>2020-06-05T10:49:31Z</time>
      </trkpt>
      <trkpt lat="47.10753" lon="-2.08745">
        <ele>27.4</ele>
        <time>2020-06-05T10:49:32Z</time>
      </trkpt>
      <trkpt lat="47.10754" lon="-2.08752">
        <ele>27.4</ele>
        <time>2020-06-05T10:49:33Z</time>
      </trkpt>
      <trkpt lat="47.10756" lon="-2.08758">
        <ele>27.4</ele>
        <time>2020-06-05T10:49:34Z</time>
      </trkpt>
      <trkpt lat="47.10757" lon="-2.08763">
        <ele>27.4</ele>
        <time>2020-06-05T10:49:35Z</time>
      </trkpt>
      <trkpt lat="47.1076" lon="-2.08769">
        <ele>27.3</ele>
        <time>2020-06-05T10:49:36Z</time>
      </trkpt>
      <trkpt lat="47.10761" lon="-2.08775">
        <ele>27.3</ele>
        <time>2020-06-05T10:49:37Z</time>
      </trkpt>
      <trkpt lat="47.10764" lon="-2.08781">
        <ele>27.3</ele>
        <time>2020-06-05T10:49:38Z</time>
      </trkpt>
      <trkpt lat="47.10766" lon="-2.08787">
        <ele>27.3</ele>
        <time>2020-06-05T10:49:39Z</time>
      </trkpt>
      <trkpt lat="47.10768" lon="-2.08792">
        <ele>27.3</ele>
        <time>2020-06-05T10:49:40Z</time>
      </trkpt>
      <trkpt lat="47.1077" lon="-2.08798">
        <ele>27.3</ele>
        <time>2020-06-05T10:49:41Z</time>
      </trkpt>
      <trkpt lat="47.10771" lon="-2.08805">
        <ele>27.3</ele>
        <time>2020-06-05T10:49:42Z</time>
      </trkpt>
      <trkpt lat="47.10772" lon="-2.08811">
        <ele>27.2</ele>
        <time>2020-06-05T10:49:43Z</time>
      </trkpt>
      <trkpt lat="47.10773" lon="-2.08818">
        <ele>27.2</ele>
        <time>2020-06-05T10:49:44Z</time>
      </trkpt>
      <trkpt lat="47.10774" lon="-2.08824">
        <ele>27.1</ele>
        <time>2020-06-05T10:49:45Z</time>
      </trkpt>
      <trkpt lat="47.10774" lon="-2.0883">
        <ele>27</ele>
        <time>2020-06-05T10:49:46Z</time>
      </trkpt>
      <trkpt lat="47.10774" lon="-2.08836">
        <ele>26.9</ele>
        <time>2020-06-05T10:49:47Z</time>
      </trkpt>
      <trkpt lat="47.10773" lon="-2.08842">
        <ele>26.9</ele>
        <time>2020-06-05T10:49:48Z</time>
      </trkpt>
      <trkpt lat="47.10773" lon="-2.08847">
        <ele>26.8</ele>
        <time>2020-06-05T10:49:49Z</time>
      </trkpt>
      <trkpt lat="47.10772" lon="-2.08853">
        <ele>26.7</ele>
        <time>2020-06-05T10:49:50Z</time>
      </trkpt>
      <trkpt lat="47.10772" lon="-2.08858">
        <ele>26.7</ele>
        <time>2020-06-05T10:49:51Z</time>
      </trkpt>
      <trkpt lat="47.10772" lon="-2.08864">
        <ele>26.6</ele>
        <time>2020-06-05T10:49:52Z</time>
      </trkpt>
      <trkpt lat="47.10771" lon="-2.08869">
        <ele>26.6</ele>
        <time>2020-06-05T10:49:53Z</time>
      </trkpt>
      <trkpt lat="47.10771" lon="-2.08871">
        <ele>26.6</ele>
        <time>2020-06-05T10:49:54Z</time>
      </trkpt>
      <trkpt lat="47.10771" lon="-2.08874">
        <ele>26.6</ele>
        <time>2020-06-05T10:49:55Z</time>
      </trkpt>
      <trkpt lat="47.10771" lon="-2.08875">
        <ele>26.6</ele>
        <time>2020-06-05T10:49:56Z</time>
      </trkpt>
      <trkpt lat="47.10771" lon="-2.08877">
        <ele>26.6</ele>
        <time>2020-06-05T10:49:57Z</time>
      </trkpt>
      <trkpt lat="47.1077" lon="-2.08881">
        <ele>26.5</ele>
        <time>2020-06-05T10:49:58Z</time>
      </trkpt>
      <trkpt lat="47.1077" lon="-2.08882">
        <ele>26.5</ele>
        <time>2020-06-05T10:49:59Z</time>
      </trkpt>
      <trkpt lat="47.10768" lon="-2.08885">
        <ele>26.5</ele>
        <time>2020-06-05T10:50:00Z</time>
      </trkpt>
      <trkpt lat="47.10766" lon="-2.08888">
        <ele>26.4</ele>
        <time>2020-06-05T10:50:01Z</time>
      </trkpt>
      <trkpt lat="47.10763" lon="-2.08891">
        <ele>26.3</ele>
        <time>2020-06-05T10:50:02Z</time>
      </trkpt>
      <trkpt lat="47.10761" lon="-2.08894">
        <ele>26.3</ele>
        <time>2020-06-05T10:50:03Z</time>
      </trkpt>
      <trkpt lat="47.1076" lon="-2.08898">
        <ele>26.2</ele>
        <time>2020-06-05T10:50:04Z</time>
      </trkpt>
      <trkpt lat="47.10758" lon="-2.08903">
        <ele>26.2</ele>
        <time>2020-06-05T10:50:05Z</time>
      </trkpt>
      <trkpt lat="47.10756" lon="-2.08908">
        <ele>26.1</ele>
        <time>2020-06-05T10:50:06Z</time>
      </trkpt>
      <trkpt lat="47.10753" lon="-2.08914">
        <ele>26</ele>
        <time>2020-06-05T10:50:07Z</time>
      </trkpt>
      <trkpt lat="47.1075" lon="-2.08919">
        <ele>25.9</ele>
        <time>2020-06-05T10:50:08Z</time>
      </trkpt>
      <trkpt lat="47.10747" lon="-2.08925">
        <ele>25.9</ele>
        <time>2020-06-05T10:50:09Z</time>
      </trkpt>
      <trkpt lat="47.10745" lon="-2.08931">
        <ele>25.8</ele>
        <time>2020-06-05T10:50:10Z</time>
      </trkpt>
      <trkpt lat="47.10743" lon="-2.08939">
        <ele>25.7</ele>
        <time>2020-06-05T10:50:11Z</time>
      </trkpt>
      <trkpt lat="47.10742" lon="-2.08948">
        <ele>25.7</ele>
        <time>2020-06-05T10:50:12Z</time>
      </trkpt>
      <trkpt lat="47.10741" lon="-2.08956">
        <ele>25.6</ele>
        <time>2020-06-05T10:50:13Z</time>
      </trkpt>
      <trkpt lat="47.1074" lon="-2.08963">
        <ele>25.6</ele>
        <time>2020-06-05T10:50:14Z</time>
      </trkpt>
      <trkpt lat="47.10741" lon="-2.08971">
        <ele>25.6</ele>
        <time>2020-06-05T10:50:15Z</time>
      </trkpt>
      <trkpt lat="47.10742" lon="-2.08981">
        <ele>25.6</ele>
        <time>2020-06-05T10:50:16Z</time>
      </trkpt>
      <trkpt lat="47.10743" lon="-2.0899">
        <ele>25.6</ele>
        <time>2020-06-05T10:50:17Z</time>
      </trkpt>
      <trkpt lat="47.10746" lon="-2.09">
        <ele>25.6</ele>
        <time>2020-06-05T10:50:18Z</time>
      </trkpt>
      <trkpt lat="47.10748" lon="-2.09008">
        <ele>25.7</ele>
        <time>2020-06-05T10:50:19Z</time>
      </trkpt>
      <trkpt lat="47.1075" lon="-2.09016">
        <ele>25.7</ele>
        <time>2020-06-05T10:50:20Z</time>
      </trkpt>
      <trkpt lat="47.10752" lon="-2.09023">
        <ele>25.8</ele>
        <time>2020-06-05T10:50:21Z</time>
      </trkpt>
      <trkpt lat="47.10754" lon="-2.09032">
        <ele>25.8</ele>
        <time>2020-06-05T10:50:22Z</time>
      </trkpt>
      <trkpt lat="47.10757" lon="-2.09039">
        <ele>25.9</ele>
        <time>2020-06-05T10:50:23Z</time>
      </trkpt>
      <trkpt lat="47.10758" lon="-2.09045">
        <ele>25.9</ele>
        <time>2020-06-05T10:50:24Z</time>
      </trkpt>
      <trkpt lat="47.1076" lon="-2.09052">
        <ele>26</ele>
        <time>2020-06-05T10:50:25Z</time>
      </trkpt>
      <trkpt lat="47.10762" lon="-2.09058">
        <ele>26</ele>
        <time>2020-06-05T10:50:26Z</time>
      </trkpt>
      <trkpt lat="47.10764" lon="-2.09062">
        <ele>26.1</ele>
        <time>2020-06-05T10:50:27Z</time>
      </trkpt>
      <trkpt lat="47.10768" lon="-2.09064">
        <ele>26.1</ele>
        <time>2020-06-05T10:50:28Z</time>
      </trkpt>
      <trkpt lat="47.10771" lon="-2.09065">
        <ele>26.2</ele>
        <time>2020-06-05T10:50:29Z</time>
      </trkpt>
      <trkpt lat="47.10776" lon="-2.09066">
        <ele>26.3</ele>
        <time>2020-06-05T10:50:30Z</time>
      </trkpt>
      <trkpt lat="47.1078" lon="-2.09067">
        <ele>26.3</ele>
        <time>2020-06-05T10:50:31Z</time>
      </trkpt>
      <trkpt lat="47.10783" lon="-2.0907">
        <ele>26.3</ele>
        <time>2020-06-05T10:50:32Z</time>
      </trkpt>
      <trkpt lat="47.10786" lon="-2.09072">
        <ele>26.4</ele>
        <time>2020-06-05T10:50:33Z</time>
      </trkpt>
      <trkpt lat="47.10789" lon="-2.09077">
        <ele>26.4</ele>
        <time>2020-06-05T10:50:34Z</time>
      </trkpt>
      <trkpt lat="47.10792" lon="-2.09081">
        <ele>26.4</ele>
        <time>2020-06-05T10:50:35Z</time>
      </trkpt>
      <trkpt lat="47.10796" lon="-2.09085">
        <ele>26.4</ele>
        <time>2020-06-05T10:50:36Z</time>
      </trkpt>
      <trkpt lat="47.10799" lon="-2.09088">
        <ele>26.5</ele>
        <time>2020-06-05T10:50:37Z</time>
      </trkpt>
      <trkpt lat="47.10801" lon="-2.09091">
        <ele>26.5</ele>
        <time>2020-06-05T10:50:38Z</time>
      </trkpt>
      <trkpt lat="47.10804" lon="-2.09095">
        <ele>26.5</ele>
        <time>2020-06-05T10:50:39Z</time>
      </trkpt>
      <trkpt lat="47.10807" lon="-2.09098">
        <ele>26.5</ele>
        <time>2020-06-05T10:50:40Z</time>
      </trkpt>
      <trkpt lat="47.10811" lon="-2.09102">
        <ele>26.5</ele>
        <time>2020-06-05T10:50:41Z</time>
      </trkpt>
      <trkpt lat="47.10814" lon="-2.09105">
        <ele>26.4</ele>
        <time>2020-06-05T10:50:42Z</time>
      </trkpt>
      <trkpt lat="47.10816" lon="-2.09108">
        <ele>26.4</ele>
        <time>2020-06-05T10:50:43Z</time>
      </trkpt>
      <trkpt lat="47.10818" lon="-2.09113">
        <ele>26.4</ele>
        <time>2020-06-05T10:50:44Z</time>
      </trkpt>
      <trkpt lat="47.1082" lon="-2.09119">
        <ele>26.4</ele>
        <time>2020-06-05T10:50:45Z</time>
      </trkpt>
      <trkpt lat="47.10821" lon="-2.09125">
        <ele>26.3</ele>
        <time>2020-06-05T10:50:46Z</time>
      </trkpt>
      <trkpt lat="47.10823" lon="-2.09132">
        <ele>26.3</ele>
        <time>2020-06-05T10:50:47Z</time>
      </trkpt>
      <trkpt lat="47.10825" lon="-2.0914">
        <ele>26.2</ele>
        <time>2020-06-05T10:50:48Z</time>
      </trkpt>
      <trkpt lat="47.10827" lon="-2.09147">
        <ele>26.2</ele>
        <time>2020-06-05T10:50:49Z</time>
      </trkpt>
      <trkpt lat="47.10828" lon="-2.09155">
        <ele>26.1</ele>
        <time>2020-06-05T10:50:50Z</time>
      </trkpt>
      <trkpt lat="47.1083" lon="-2.09162">
        <ele>26.1</ele>
        <time>2020-06-05T10:50:51Z</time>
      </trkpt>
      <trkpt lat="47.10831" lon="-2.0917">
        <ele>26</ele>
        <time>2020-06-05T10:50:52Z</time>
      </trkpt>
      <trkpt lat="47.10832" lon="-2.09178">
        <ele>26</ele>
        <time>2020-06-05T10:50:53Z</time>
      </trkpt>
      <trkpt lat="47.10833" lon="-2.09186">
        <ele>25.9</ele>
        <time>2020-06-05T10:50:54Z</time>
      </trkpt>
      <trkpt lat="47.10835" lon="-2.09194">
        <ele>25.9</ele>
        <time>2020-06-05T10:50:55Z</time>
      </trkpt>
      <trkpt lat="47.10837" lon="-2.09201">
        <ele>25.8</ele>
        <time>2020-06-05T10:50:56Z</time>
      </trkpt>
      <trkpt lat="47.10838" lon="-2.09209">
        <ele>25.8</ele>
        <time>2020-06-05T10:50:57Z</time>
      </trkpt>
      <trkpt lat="47.1084" lon="-2.09217">
        <ele>25.7</ele>
        <time>2020-06-05T10:50:58Z</time>
      </trkpt>
      <trkpt lat="47.10842" lon="-2.09224">
        <ele>25.7</ele>
        <time>2020-06-05T10:50:59Z</time>
      </trkpt>
      <trkpt lat="47.10844" lon="-2.09231">
        <ele>25.7</ele>
        <time>2020-06-05T10:51:00Z</time>
      </trkpt>
      <trkpt lat="47.10846" lon="-2.09237">
        <ele>25.7</ele>
        <time>2020-06-05T10:51:01Z</time>
      </trkpt>
      <trkpt lat="47.10848" lon="-2.09244">
        <ele>25.7</ele>
        <time>2020-06-05T10:51:02Z</time>
      </trkpt>
      <trkpt lat="47.1085" lon="-2.09251">
        <ele>25.7</ele>
        <time>2020-06-05T10:51:03Z</time>
      </trkpt>
      <trkpt lat="47.10852" lon="-2.09258">
        <ele>25.7</ele>
        <time>2020-06-05T10:51:04Z</time>
      </trkpt>
      <trkpt lat="47.10854" lon="-2.09264">
        <ele>25.7</ele>
        <time>2020-06-05T10:51:05Z</time>
      </trkpt>
      <trkpt lat="47.10855" lon="-2.09268">
        <ele>25.7</ele>
        <time>2020-06-05T10:51:06Z</time>
      </trkpt>
      <trkpt lat="47.10856" lon="-2.09273">
        <ele>25.7</ele>
        <time>2020-06-05T10:51:07Z</time>
      </trkpt>
      <trkpt lat="47.10855" lon="-2.09275">
        <ele>25.7</ele>
        <time>2020-06-05T10:51:08Z</time>
      </trkpt>
      <trkpt lat="47.10855" lon="-2.09276">
        <ele>25.7</ele>
        <time>2020-06-05T10:51:09Z</time>
      </trkpt>
      <trkpt lat="47.10854" lon="-2.09275">
        <ele>25.7</ele>
        <time>2020-06-05T10:51:10Z</time>
      </trkpt>
      <trkpt lat="47.10853" lon="-2.09276">
        <ele>25.7</ele>
        <time>2020-06-05T10:51:11Z</time>
      </trkpt>
      <trkpt lat="47.10853" lon="-2.09277">
        <ele>25.7</ele>
        <time>2020-06-05T10:51:12Z</time>
      </trkpt>
      <trkpt lat="47.10853" lon="-2.09277">
        <ele>25.7</ele>
        <time>2020-06-05T10:51:13Z</time>
      </trkpt>
      <trkpt lat="47.10853" lon="-2.09278">
        <ele>25.7</ele>
        <time>2020-06-05T10:51:14Z</time>
      </trkpt>
      <trkpt lat="47.10853" lon="-2.09278">
        <ele>25.7</ele>
        <time>2020-06-05T10:51:15Z</time>
      </trkpt>
      <trkpt lat="47.10852" lon="-2.09277">
        <ele>25.7</ele>
        <time>2020-06-05T10:51:16Z</time>
      </trkpt>
      <trkpt lat="47.10852" lon="-2.09278">
        <ele>25.7</ele>
        <time>2020-06-05T10:51:17Z</time>
      </trkpt>
      <trkpt lat="47.10851" lon="-2.09277">
        <ele>25.7</ele>
        <time>2020-06-05T10:51:18Z</time>
      </trkpt>
      <trkpt lat="47.10852" lon="-2.09277">
        <ele>25.7</ele>
        <time>2020-06-05T10:51:19Z</time>
      </trkpt>
      <trkpt lat="47.10852" lon="-2.09278">
        <ele>25.7</ele>
        <time>2020-06-05T10:51:20Z</time>
      </trkpt>
      <trkpt lat="47.10852" lon="-2.09278">
        <ele>25.7</ele>
        <time>2020-06-05T10:51:21Z</time>
      </trkpt>
      <trkpt lat="47.10851" lon="-2.09277">
        <ele>25.7</ele>
        <time>2020-06-05T10:51:22Z</time>
      </trkpt>
      <trkpt lat="47.10852" lon="-2.09277">
        <ele>25.7</ele>
        <time>2020-06-05T10:51:23Z</time>
      </trkpt>
      <trkpt lat="47.10852" lon="-2.09277">
        <ele>25.7</ele>
        <time>2020-06-05T10:51:24Z</time>
      </trkpt>
      <trkpt lat="47.10852" lon="-2.09277">
        <ele>25.7</ele>
        <time>2020-06-05T10:51:25Z</time>
      </trkpt>
      <trkpt lat="47.10852" lon="-2.09277">
        <ele>25.7</ele>
        <time>2020-06-05T10:51:26Z</time>
      </trkpt>
      <trkpt lat="47.10852" lon="-2.09276">
        <ele>25.7</ele>
        <time>2020-06-05T10:51:27Z</time>
      </trkpt>
      <trkpt lat="47.10852" lon="-2.09276">
        <ele>25.7</ele>
        <time>2020-06-05T10:51:28Z</time>
      </trkpt>
      <trkpt lat="47.10852" lon="-2.09276">
        <ele>25.7</ele>
        <time>2020-06-05T10:51:29Z</time>
      </trkpt>
      <trkpt lat="47.10852" lon="-2.09276">
        <ele>25.7</ele>
        <time>2020-06-05T10:51:30Z</time>
      </trkpt>
      <trkpt lat="47.10852" lon="-2.09277">
        <ele>25.7</ele>
        <time>2020-06-05T10:51:31Z</time>
      </trkpt>
      <trkpt lat="47.10851" lon="-2.09277">
        <ele>25.7</ele>
        <time>2020-06-05T10:51:32Z</time>
      </trkpt>
      <trkpt lat="47.10851" lon="-2.09277">
        <ele>25.7</ele>
        <time>2020-06-05T10:51:33Z</time>
      </trkpt>
      <trkpt lat="47.1085" lon="-2.09278">
        <ele>25.7</ele>
        <time>2020-06-05T10:51:34Z</time>
      </trkpt>
      <trkpt lat="47.1085" lon="-2.09278">
        <ele>25.7</ele>
        <time>2020-06-05T10:51:35Z</time>
      </trkpt>
      <trkpt lat="47.1085" lon="-2.09278">
        <ele>25.7</ele>
        <time>2020-06-05T10:51:36Z</time>
      </trkpt>
      <trkpt lat="47.1085" lon="-2.09278">
        <ele>25.7</ele>
        <time>2020-06-05T10:51:37Z</time>
      </trkpt>
      <trkpt lat="47.1085" lon="-2.09278">
        <ele>25.7</ele>
        <time>2020-06-05T10:51:38Z</time>
      </trkpt>
      <trkpt lat="47.1085" lon="-2.09278">
        <ele>25.7</ele>
        <time>2020-06-05T10:51:39Z</time>
      </trkpt>
      <trkpt lat="47.10849" lon="-2.09278">
        <ele>25.7</ele>
        <time>2020-06-05T10:51:40Z</time>
      </trkpt>
      <trkpt lat="47.10849" lon="-2.09279">
        <ele>25.7</ele>
        <time>2020-06-05T10:51:41Z</time>
      </trkpt>
      <trkpt lat="47.10849" lon="-2.09279">
        <ele>25.7</ele>
        <time>2020-06-05T10:51:42Z</time>
      </trkpt>
      <trkpt lat="47.10849" lon="-2.09281">
        <ele>25.7</ele>
        <time>2020-06-05T10:51:43Z</time>
      </trkpt>
      <trkpt lat="47.10848" lon="-2.0928">
        <ele>25.7</ele>
        <time>2020-06-05T10:51:44Z</time>
      </trkpt>
      <trkpt lat="47.10846" lon="-2.09278">
        <ele>25.7</ele>
        <time>2020-06-05T10:51:45Z</time>
      </trkpt>
      <trkpt lat="47.10845" lon="-2.09277">
        <ele>25.7</ele>
        <time>2020-06-05T10:51:46Z</time>
      </trkpt>
      <trkpt lat="47.10844" lon="-2.09272">
        <ele>25.7</ele>
        <time>2020-06-05T10:51:47Z</time>
      </trkpt>
      <trkpt lat="47.10844" lon="-2.0927">
        <ele>25.7</ele>
        <time>2020-06-05T10:51:48Z</time>
      </trkpt>
      <trkpt lat="47.10843" lon="-2.09265">
        <ele>25.7</ele>
        <time>2020-06-05T10:51:49Z</time>
      </trkpt>
      <trkpt lat="47.10843" lon="-2.09261">
        <ele>25.7</ele>
        <time>2020-06-05T10:51:50Z</time>
      </trkpt>
      <trkpt lat="47.10841" lon="-2.09257">
        <ele>25.7</ele>
        <time>2020-06-05T10:51:51Z</time>
      </trkpt>
      <trkpt lat="47.1084" lon="-2.09251">
        <ele>25.7</ele>
        <time>2020-06-05T10:51:52Z</time>
      </trkpt>
      <trkpt lat="47.10838" lon="-2.09245">
        <ele>25.7</ele>
        <time>2020-06-05T10:51:53Z</time>
      </trkpt>
      <trkpt lat="47.10838" lon="-2.09238">
        <ele>25.7</ele>
        <time>2020-06-05T10:51:54Z</time>
      </trkpt>
      <trkpt lat="47.10837" lon="-2.09231">
        <ele>25.7</ele>
        <time>2020-06-05T10:51:55Z</time>
      </trkpt>
      <trkpt lat="47.10837" lon="-2.09226">
        <ele>25.7</ele>
        <time>2020-06-05T10:51:56Z</time>
      </trkpt>
      <trkpt lat="47.10836" lon="-2.09219">
        <ele>25.7</ele>
        <time>2020-06-05T10:51:57Z</time>
      </trkpt>
      <trkpt lat="47.10834" lon="-2.09213">
        <ele>25.8</ele>
        <time>2020-06-05T10:51:58Z</time>
      </trkpt>
      <trkpt lat="47.10833" lon="-2.09206">
        <ele>25.8</ele>
        <time>2020-06-05T10:51:59Z</time>
      </trkpt>
      <trkpt lat="47.10832" lon="-2.09199">
        <ele>25.9</ele>
        <time>2020-06-05T10:52:00Z</time>
      </trkpt>
      <trkpt lat="47.1083" lon="-2.09193">
        <ele>25.9</ele>
        <time>2020-06-05T10:52:01Z</time>
      </trkpt>
      <trkpt lat="47.10829" lon="-2.09186">
        <ele>26</ele>
        <time>2020-06-05T10:52:02Z</time>
      </trkpt>
      <trkpt lat="47.10827" lon="-2.09179">
        <ele>26</ele>
        <time>2020-06-05T10:52:03Z</time>
      </trkpt>
      <trkpt lat="47.10828" lon="-2.0917">
        <ele>26.1</ele>
        <time>2020-06-05T10:52:04Z</time>
      </trkpt>
      <trkpt lat="47.10828" lon="-2.09164">
        <ele>26.1</ele>
        <time>2020-06-05T10:52:05Z</time>
      </trkpt>
      <trkpt lat="47.10827" lon="-2.09157">
        <ele>26.1</ele>
        <time>2020-06-05T10:52:06Z</time>
      </trkpt>
      <trkpt lat="47.10826" lon="-2.09151">
        <ele>26.2</ele>
        <time>2020-06-05T10:52:07Z</time>
      </trkpt>
      <trkpt lat="47.10825" lon="-2.09144">
        <ele>26.2</ele>
        <time>2020-06-05T10:52:08Z</time>
      </trkpt>
      <trkpt lat="47.10824" lon="-2.09138">
        <ele>26.3</ele>
        <time>2020-06-05T10:52:09Z</time>
      </trkpt>
      <trkpt lat="47.10823" lon="-2.09133">
        <ele>26.3</ele>
        <time>2020-06-05T10:52:10Z</time>
      </trkpt>
      <trkpt lat="47.10822" lon="-2.09126">
        <ele>26.3</ele>
        <time>2020-06-05T10:52:11Z</time>
      </trkpt>
      <trkpt lat="47.1082" lon="-2.0912">
        <ele>26.4</ele>
        <time>2020-06-05T10:52:12Z</time>
      </trkpt>
      <trkpt lat="47.10818" lon="-2.09114">
        <ele>26.4</ele>
        <time>2020-06-05T10:52:13Z</time>
      </trkpt>
      <trkpt lat="47.10817" lon="-2.09108">
        <ele>26.4</ele>
        <time>2020-06-05T10:52:14Z</time>
      </trkpt>
      <trkpt lat="47.10817" lon="-2.09102">
        <ele>26.5</ele>
        <time>2020-06-05T10:52:15Z</time>
      </trkpt>
      <trkpt lat="47.10817" lon="-2.09096">
        <ele>26.9</ele>
        <time>2020-06-05T10:52:16Z</time>
      </trkpt>
      <trkpt lat="47.10819" lon="-2.09091">
        <ele>27.1</ele>
        <time>2020-06-05T10:52:17Z</time>
      </trkpt>
      <trkpt lat="47.10821" lon="-2.09086">
        <ele>27.2</ele>
        <time>2020-06-05T10:52:18Z</time>
      </trkpt>
      <trkpt lat="47.10824" lon="-2.09082">
        <ele>27.3</ele>
        <time>2020-06-05T10:52:19Z</time>
      </trkpt>
      <trkpt lat="47.10827" lon="-2.09078">
        <ele>27.4</ele>
        <time>2020-06-05T10:52:20Z</time>
      </trkpt>
      <trkpt lat="47.10829" lon="-2.09075">
        <ele>27.5</ele>
        <time>2020-06-05T10:52:21Z</time>
      </trkpt>
      <trkpt lat="47.10833" lon="-2.09071">
        <ele>27.7</ele>
        <time>2020-06-05T10:52:22Z</time>
      </trkpt>
      <trkpt lat="47.10837" lon="-2.09068">
        <ele>27.8</ele>
        <time>2020-06-05T10:52:23Z</time>
      </trkpt>
      <trkpt lat="47.10841" lon="-2.09066">
        <ele>27.9</ele>
        <time>2020-06-05T10:52:24Z</time>
      </trkpt>
      <trkpt lat="47.10845" lon="-2.09064">
        <ele>27.9</ele>
        <time>2020-06-05T10:52:25Z</time>
      </trkpt>
      <trkpt lat="47.10849" lon="-2.09063">
        <ele>28</ele>
        <time>2020-06-05T10:52:26Z</time>
      </trkpt>
      <trkpt lat="47.10852" lon="-2.09062">
        <ele>28.1</ele>
        <time>2020-06-05T10:52:27Z</time>
      </trkpt>
      <trkpt lat="47.10856" lon="-2.09061">
        <ele>28.2</ele>
        <time>2020-06-05T10:52:28Z</time>
      </trkpt>
      <trkpt lat="47.1086" lon="-2.0906">
        <ele>28.3</ele>
        <time>2020-06-05T10:52:29Z</time>
      </trkpt>
      <trkpt lat="47.10863" lon="-2.09059">
        <ele>28.4</ele>
        <time>2020-06-05T10:52:30Z</time>
      </trkpt>
      <trkpt lat="47.10866" lon="-2.09057">
        <ele>28.5</ele>
        <time>2020-06-05T10:52:31Z</time>
      </trkpt>
      <trkpt lat="47.10869" lon="-2.09055">
        <ele>28.5</ele>
        <time>2020-06-05T10:52:32Z</time>
      </trkpt>
      <trkpt lat="47.10872" lon="-2.09053">
        <ele>28.6</ele>
        <time>2020-06-05T10:52:33Z</time>
      </trkpt>
      <trkpt lat="47.10876" lon="-2.09051">
        <ele>28.7</ele>
        <time>2020-06-05T10:52:34Z</time>
      </trkpt>
      <trkpt lat="47.1088" lon="-2.0905">
        <ele>28.7</ele>
        <time>2020-06-05T10:52:35Z</time>
      </trkpt>
      <trkpt lat="47.10884" lon="-2.09047">
        <ele>28.8</ele>
        <time>2020-06-05T10:52:36Z</time>
      </trkpt>
      <trkpt lat="47.10888" lon="-2.09047">
        <ele>28.9</ele>
        <time>2020-06-05T10:52:37Z</time>
      </trkpt>
      <trkpt lat="47.10892" lon="-2.09046">
        <ele>28.9</ele>
        <time>2020-06-05T10:52:38Z</time>
      </trkpt>
      <trkpt lat="47.10897" lon="-2.09045">
        <ele>28.9</ele>
        <time>2020-06-05T10:52:39Z</time>
      </trkpt>
      <trkpt lat="47.10901" lon="-2.09044">
        <ele>29</ele>
        <time>2020-06-05T10:52:40Z</time>
      </trkpt>
      <trkpt lat="47.10906" lon="-2.09043">
        <ele>29</ele>
        <time>2020-06-05T10:52:41Z</time>
      </trkpt>
      <trkpt lat="47.10912" lon="-2.09042">
        <ele>29</ele>
        <time>2020-06-05T10:52:42Z</time>
      </trkpt>
      <trkpt lat="47.10916" lon="-2.09042">
        <ele>29</ele>
        <time>2020-06-05T10:52:43Z</time>
      </trkpt>
      <trkpt lat="47.10921" lon="-2.09042">
        <ele>29</ele>
        <time>2020-06-05T10:52:44Z</time>
      </trkpt>
      <trkpt lat="47.10924" lon="-2.09041">
        <ele>29</ele>
        <time>2020-06-05T10:52:45Z</time>
      </trkpt>
      <trkpt lat="47.10927" lon="-2.09042">
        <ele>29</ele>
        <time>2020-06-05T10:52:46Z</time>
      </trkpt>
      <trkpt lat="47.1093" lon="-2.09042">
        <ele>29</ele>
        <time>2020-06-05T10:52:47Z</time>
      </trkpt>
      <trkpt lat="47.10933" lon="-2.09042">
        <ele>29</ele>
        <time>2020-06-05T10:52:48Z</time>
      </trkpt>
      <trkpt lat="47.10936" lon="-2.09042">
        <ele>29</ele>
        <time>2020-06-05T10:52:49Z</time>
      </trkpt>
      <trkpt lat="47.10937" lon="-2.09042">
        <ele>29</ele>
        <time>2020-06-05T10:52:50Z</time>
      </trkpt>
      <trkpt lat="47.1094" lon="-2.09039">
        <ele>29</ele>
        <time>2020-06-05T10:52:51Z</time>
      </trkpt>
      <trkpt lat="47.10941" lon="-2.09038">
        <ele>29</ele>
        <time>2020-06-05T10:52:52Z</time>
      </trkpt>
      <trkpt lat="47.10944" lon="-2.09037">
        <ele>29</ele>
        <time>2020-06-05T10:52:53Z</time>
      </trkpt>
      <trkpt lat="47.10945" lon="-2.09037">
        <ele>29</ele>
        <time>2020-06-05T10:52:54Z</time>
      </trkpt>
      <trkpt lat="47.10948" lon="-2.09037">
        <ele>29</ele>
        <time>2020-06-05T10:52:55Z</time>
      </trkpt>
      <trkpt lat="47.10949" lon="-2.09037">
        <ele>29</ele>
        <time>2020-06-05T10:52:56Z</time>
      </trkpt>
      <trkpt lat="47.10953" lon="-2.09037">
        <ele>29.1</ele>
        <time>2020-06-05T10:52:57Z</time>
      </trkpt>
      <trkpt lat="47.10954" lon="-2.09037">
        <ele>29.1</ele>
        <time>2020-06-05T10:52:58Z</time>
      </trkpt>
      <trkpt lat="47.10957" lon="-2.09035">
        <ele>29.1</ele>
        <time>2020-06-05T10:52:59Z</time>
      </trkpt>
      <trkpt lat="47.10958" lon="-2.09035">
        <ele>29.1</ele>
        <time>2020-06-05T10:53:00Z</time>
      </trkpt>
      <trkpt lat="47.10962" lon="-2.09032">
        <ele>29.2</ele>
        <time>2020-06-05T10:53:01Z</time>
      </trkpt>
      <trkpt lat="47.10964" lon="-2.09031">
        <ele>29.2</ele>
        <time>2020-06-05T10:53:02Z</time>
      </trkpt>
      <trkpt lat="47.10967" lon="-2.09029">
        <ele>29.2</ele>
        <time>2020-06-05T10:53:03Z</time>
      </trkpt>
      <trkpt lat="47.1097" lon="-2.09026">
        <ele>29.3</ele>
        <time>2020-06-05T10:53:04Z</time>
      </trkpt>
      <trkpt lat="47.10974" lon="-2.09024">
        <ele>29.3</ele>
        <time>2020-06-05T10:53:05Z</time>
      </trkpt>
      <trkpt lat="47.10977" lon="-2.09023">
        <ele>29.3</ele>
        <time>2020-06-05T10:53:06Z</time>
      </trkpt>
      <trkpt lat="47.1098" lon="-2.09021">
        <ele>29.3</ele>
        <time>2020-06-05T10:53:07Z</time>
      </trkpt>
      <trkpt lat="47.10983" lon="-2.09021">
        <ele>29.3</ele>
        <time>2020-06-05T10:53:08Z</time>
      </trkpt>
      <trkpt lat="47.10985" lon="-2.09021">
        <ele>29.3</ele>
        <time>2020-06-05T10:53:09Z</time>
      </trkpt>
      <trkpt lat="47.10987" lon="-2.09023">
        <ele>29.3</ele>
        <time>2020-06-05T10:53:10Z</time>
      </trkpt>
      <trkpt lat="47.1099" lon="-2.09027">
        <ele>29.3</ele>
        <time>2020-06-05T10:53:11Z</time>
      </trkpt>
      <trkpt lat="47.10992" lon="-2.09032">
        <ele>29.4</ele>
        <time>2020-06-05T10:53:12Z</time>
      </trkpt>
      <trkpt lat="47.10995" lon="-2.09037">
        <ele>29.4</ele>
        <time>2020-06-05T10:53:13Z</time>
      </trkpt>
      <trkpt lat="47.10998" lon="-2.09041">
        <ele>29.5</ele>
        <time>2020-06-05T10:53:14Z</time>
      </trkpt>
      <trkpt lat="47.11001" lon="-2.09045">
        <ele>29.5</ele>
        <time>2020-06-05T10:53:15Z</time>
      </trkpt>
      <trkpt lat="47.11004" lon="-2.09049">
        <ele>29.6</ele>
        <time>2020-06-05T10:53:16Z</time>
      </trkpt>
      <trkpt lat="47.11007" lon="-2.09052">
        <ele>29.6</ele>
        <time>2020-06-05T10:53:17Z</time>
      </trkpt>
      <trkpt lat="47.11011" lon="-2.09057">
        <ele>29.7</ele>
        <time>2020-06-05T10:53:18Z</time>
      </trkpt>
      <trkpt lat="47.11015" lon="-2.09062">
        <ele>29.7</ele>
        <time>2020-06-05T10:53:19Z</time>
      </trkpt>
      <trkpt lat="47.11019" lon="-2.09066">
        <ele>29.8</ele>
        <time>2020-06-05T10:53:20Z</time>
      </trkpt>
      <trkpt lat="47.11022" lon="-2.0907">
        <ele>29.9</ele>
        <time>2020-06-05T10:53:21Z</time>
      </trkpt>
      <trkpt lat="47.11027" lon="-2.09075">
        <ele>30</ele>
        <time>2020-06-05T10:53:22Z</time>
      </trkpt>
      <trkpt lat="47.1103" lon="-2.0908">
        <ele>30.1</ele>
        <time>2020-06-05T10:53:23Z</time>
      </trkpt>
      <trkpt lat="47.11035" lon="-2.09085">
        <ele>30.1</ele>
        <time>2020-06-05T10:53:24Z</time>
      </trkpt>
      <trkpt lat="47.11038" lon="-2.0909">
        <ele>30.2</ele>
        <time>2020-06-05T10:53:25Z</time>
      </trkpt>
      <trkpt lat="47.11042" lon="-2.09094">
        <ele>30.3</ele>
        <time>2020-06-05T10:53:26Z</time>
      </trkpt>
      <trkpt lat="47.11046" lon="-2.091">
        <ele>30.4</ele>
        <time>2020-06-05T10:53:27Z</time>
      </trkpt>
      <trkpt lat="47.1105" lon="-2.09104">
        <ele>30.4</ele>
        <time>2020-06-05T10:53:28Z</time>
      </trkpt>
      <trkpt lat="47.11053" lon="-2.09108">
        <ele>30.5</ele>
        <time>2020-06-05T10:53:29Z</time>
      </trkpt>
      <trkpt lat="47.11056" lon="-2.09112">
        <ele>30.6</ele>
        <time>2020-06-05T10:53:30Z</time>
      </trkpt>
      <trkpt lat="47.11059" lon="-2.09116">
        <ele>30.6</ele>
        <time>2020-06-05T10:53:31Z</time>
      </trkpt>
      <trkpt lat="47.11062" lon="-2.0912">
        <ele>30.7</ele>
        <time>2020-06-05T10:53:32Z</time>
      </trkpt>
      <trkpt lat="47.11065" lon="-2.09125">
        <ele>30.7</ele>
        <time>2020-06-05T10:53:33Z</time>
      </trkpt>
      <trkpt lat="47.11069" lon="-2.09128">
        <ele>30.8</ele>
        <time>2020-06-05T10:53:34Z</time>
      </trkpt>
      <trkpt lat="47.11072" lon="-2.09132">
        <ele>30.8</ele>
        <time>2020-06-05T10:53:35Z</time>
      </trkpt>
      <trkpt lat="47.11076" lon="-2.09136">
        <ele>30.9</ele>
        <time>2020-06-05T10:53:36Z</time>
      </trkpt>
      <trkpt lat="47.1108" lon="-2.09139">
        <ele>31</ele>
        <time>2020-06-05T10:53:37Z</time>
      </trkpt>
      <trkpt lat="47.11085" lon="-2.09141">
        <ele>30.2</ele>
        <time>2020-06-05T10:53:38Z</time>
      </trkpt>
      <trkpt lat="47.1109" lon="-2.09143">
        <ele>30.1</ele>
        <time>2020-06-05T10:53:39Z</time>
      </trkpt>
      <trkpt lat="47.11095" lon="-2.09146">
        <ele>30.1</ele>
        <time>2020-06-05T10:53:40Z</time>
      </trkpt>
      <trkpt lat="47.11099" lon="-2.09149">
        <ele>29.8</ele>
        <time>2020-06-05T10:53:41Z</time>
      </trkpt>
      <trkpt lat="47.11103" lon="-2.09152">
        <ele>29.6</ele>
        <time>2020-06-05T10:53:42Z</time>
      </trkpt>
      <trkpt lat="47.11107" lon="-2.09156">
        <ele>29.5</ele>
        <time>2020-06-05T10:53:43Z</time>
      </trkpt>
      <trkpt lat="47.11111" lon="-2.09161">
        <ele>29.3</ele>
        <time>2020-06-05T10:53:44Z</time>
      </trkpt>
      <trkpt lat="47.11114" lon="-2.09166">
        <ele>29.3</ele>
        <time>2020-06-05T10:53:45Z</time>
      </trkpt>
      <trkpt lat="47.11118" lon="-2.0917">
        <ele>29.2</ele>
        <time>2020-06-05T10:53:46Z</time>
      </trkpt>
      <trkpt lat="47.11122" lon="-2.09175">
        <ele>29.1</ele>
        <time>2020-06-05T10:53:47Z</time>
      </trkpt>
      <trkpt lat="47.11126" lon="-2.09179">
        <ele>29.1</ele>
        <time>2020-06-05T10:53:48Z</time>
      </trkpt>
      <trkpt lat="47.1113" lon="-2.09184">
        <ele>29.1</ele>
        <time>2020-06-05T10:53:49Z</time>
      </trkpt>
      <trkpt lat="47.11134" lon="-2.0919">
        <ele>29.1</ele>
        <time>2020-06-05T10:53:50Z</time>
      </trkpt>
      <trkpt lat="47.11138" lon="-2.09194">
        <ele>29</ele>
        <time>2020-06-05T10:53:51Z</time>
      </trkpt>
      <trkpt lat="47.11142" lon="-2.09199">
        <ele>28.9</ele>
        <time>2020-06-05T10:53:52Z</time>
      </trkpt>
      <trkpt lat="47.11145" lon="-2.09204">
        <ele>28.7</ele>
        <time>2020-06-05T10:53:53Z</time>
      </trkpt>
      <trkpt lat="47.11149" lon="-2.09209">
        <ele>28.6</ele>
        <time>2020-06-05T10:53:54Z</time>
      </trkpt>
      <trkpt lat="47.11153" lon="-2.09214">
        <ele>28.3</ele>
        <time>2020-06-05T10:53:55Z</time>
      </trkpt>
      <trkpt lat="47.11157" lon="-2.09219">
        <ele>28.1</ele>
        <time>2020-06-05T10:53:56Z</time>
      </trkpt>
      <trkpt lat="47.1116" lon="-2.09224">
        <ele>27.9</ele>
        <time>2020-06-05T10:53:57Z</time>
      </trkpt>
      <trkpt lat="47.11164" lon="-2.0923">
        <ele>27.7</ele>
        <time>2020-06-05T10:53:58Z</time>
      </trkpt>
      <trkpt lat="47.11168" lon="-2.09236">
        <ele>27.5</ele>
        <time>2020-06-05T10:53:59Z</time>
      </trkpt>
      <trkpt lat="47.11172" lon="-2.09243">
        <ele>27.2</ele>
        <time>2020-06-05T10:54:00Z</time>
      </trkpt>
      <trkpt lat="47.11176" lon="-2.09251">
        <ele>26.8</ele>
        <time>2020-06-05T10:54:01Z</time>
      </trkpt>
      <trkpt lat="47.1118" lon="-2.09257">
        <ele>26.5</ele>
        <time>2020-06-05T10:54:02Z</time>
      </trkpt>
      <trkpt lat="47.11184" lon="-2.09263">
        <ele>26.1</ele>
        <time>2020-06-05T10:54:03Z</time>
      </trkpt>
      <trkpt lat="47.11189" lon="-2.0927">
        <ele>25.7</ele>
        <time>2020-06-05T10:54:04Z</time>
      </trkpt>
      <trkpt lat="47.11193" lon="-2.09277">
        <ele>25.3</ele>
        <time>2020-06-05T10:54:05Z</time>
      </trkpt>
      <trkpt lat="47.11198" lon="-2.09283">
        <ele>24.9</ele>
        <time>2020-06-05T10:54:06Z</time>
      </trkpt>
      <trkpt lat="47.11202" lon="-2.09288">
        <ele>24.6</ele>
        <time>2020-06-05T10:54:07Z</time>
      </trkpt>
      <trkpt lat="47.11206" lon="-2.09294">
        <ele>24.2</ele>
        <time>2020-06-05T10:54:08Z</time>
      </trkpt>
      <trkpt lat="47.1121" lon="-2.09301">
        <ele>23.9</ele>
        <time>2020-06-05T10:54:09Z</time>
      </trkpt>
      <trkpt lat="47.11213" lon="-2.09309">
        <ele>23.5</ele>
        <time>2020-06-05T10:54:10Z</time>
      </trkpt>
      <trkpt lat="47.11216" lon="-2.09318">
        <ele>23.1</ele>
        <time>2020-06-05T10:54:11Z</time>
      </trkpt>
      <trkpt lat="47.11219" lon="-2.09326">
        <ele>22.8</ele>
        <time>2020-06-05T10:54:12Z</time>
      </trkpt>
      <trkpt lat="47.11222" lon="-2.09335">
        <ele>22.5</ele>
        <time>2020-06-05T10:54:13Z</time>
      </trkpt>
      <trkpt lat="47.11225" lon="-2.09344">
        <ele>22.2</ele>
        <time>2020-06-05T10:54:14Z</time>
      </trkpt>
      <trkpt lat="47.11228" lon="-2.09353">
        <ele>21.9</ele>
        <time>2020-06-05T10:54:15Z</time>
      </trkpt>
      <trkpt lat="47.11232" lon="-2.09362">
        <ele>21.5</ele>
        <time>2020-06-05T10:54:16Z</time>
      </trkpt>
      <trkpt lat="47.11235" lon="-2.0937">
        <ele>21.2</ele>
        <time>2020-06-05T10:54:17Z</time>
      </trkpt>
      <trkpt lat="47.11238" lon="-2.09379">
        <ele>21.1</ele>
        <time>2020-06-05T10:54:18Z</time>
      </trkpt>
      <trkpt lat="47.11241" lon="-2.09387">
        <ele>21</ele>
        <time>2020-06-05T10:54:19Z</time>
      </trkpt>
      <trkpt lat="47.11243" lon="-2.09395">
        <ele>21</ele>
        <time>2020-06-05T10:54:20Z</time>
      </trkpt>
      <trkpt lat="47.11246" lon="-2.09403">
        <ele>21</ele>
        <time>2020-06-05T10:54:21Z</time>
      </trkpt>
      <trkpt lat="47.11248" lon="-2.09411">
        <ele>21</ele>
        <time>2020-06-05T10:54:22Z</time>
      </trkpt>
      <trkpt lat="47.1125" lon="-2.09419">
        <ele>21</ele>
        <time>2020-06-05T10:54:23Z</time>
      </trkpt>
      <trkpt lat="47.11253" lon="-2.09426">
        <ele>21</ele>
        <time>2020-06-05T10:54:24Z</time>
      </trkpt>
      <trkpt lat="47.11256" lon="-2.09434">
        <ele>21</ele>
        <time>2020-06-05T10:54:25Z</time>
      </trkpt>
      <trkpt lat="47.11259" lon="-2.09441">
        <ele>21</ele>
        <time>2020-06-05T10:54:26Z</time>
      </trkpt>
      <trkpt lat="47.11261" lon="-2.09447">
        <ele>20.9</ele>
        <time>2020-06-05T10:54:27Z</time>
      </trkpt>
      <trkpt lat="47.11263" lon="-2.09453">
        <ele>20.9</ele>
        <time>2020-06-05T10:54:28Z</time>
      </trkpt>
      <trkpt lat="47.11265" lon="-2.09458">
        <ele>20.9</ele>
        <time>2020-06-05T10:54:29Z</time>
      </trkpt>
      <trkpt lat="47.11267" lon="-2.09464">
        <ele>20.9</ele>
        <time>2020-06-05T10:54:30Z</time>
      </trkpt>
      <trkpt lat="47.11269" lon="-2.09469">
        <ele>20.9</ele>
        <time>2020-06-05T10:54:31Z</time>
      </trkpt>
      <trkpt lat="47.11271" lon="-2.09474">
        <ele>21</ele>
        <time>2020-06-05T10:54:32Z</time>
      </trkpt>
      <trkpt lat="47.11274" lon="-2.09477">
        <ele>21</ele>
        <time>2020-06-05T10:54:33Z</time>
      </trkpt>
      <trkpt lat="47.11274" lon="-2.09477">
        <ele>21</ele>
        <time>2020-06-05T10:54:34Z</time>
      </trkpt>
      <trkpt lat="47.11278" lon="-2.09476">
        <ele>21.2</ele>
        <time>2020-06-05T10:54:35Z</time>
      </trkpt>
      <trkpt lat="47.1128" lon="-2.09476">
        <ele>20.6</ele>
        <time>2020-06-05T10:54:36Z</time>
      </trkpt>
      <trkpt lat="47.11284" lon="-2.09474">
        <ele>20.2</ele>
        <time>2020-06-05T10:54:37Z</time>
      </trkpt>
      <trkpt lat="47.1129" lon="-2.09471">
        <ele>19.7</ele>
        <time>2020-06-05T10:54:38Z</time>
      </trkpt>
      <trkpt lat="47.11295" lon="-2.09468">
        <ele>19.3</ele>
        <time>2020-06-05T10:54:39Z</time>
      </trkpt>
      <trkpt lat="47.11302" lon="-2.09465">
        <ele>18.9</ele>
        <time>2020-06-05T10:54:40Z</time>
      </trkpt>
      <trkpt lat="47.11309" lon="-2.0946">
        <ele>18.5</ele>
        <time>2020-06-05T10:54:41Z</time>
      </trkpt>
      <trkpt lat="47.11315" lon="-2.09455">
        <ele>18.3</ele>
        <time>2020-06-05T10:54:42Z</time>
      </trkpt>
      <trkpt lat="47.1132" lon="-2.0945">
        <ele>18.1</ele>
        <time>2020-06-05T10:54:43Z</time>
      </trkpt>
      <trkpt lat="47.11326" lon="-2.09445">
        <ele>17.9</ele>
        <time>2020-06-05T10:54:44Z</time>
      </trkpt>
      <trkpt lat="47.11331" lon="-2.0944">
        <ele>17.7</ele>
        <time>2020-06-05T10:54:45Z</time>
      </trkpt>
      <trkpt lat="47.11337" lon="-2.09435">
        <ele>17.5</ele>
        <time>2020-06-05T10:54:46Z</time>
      </trkpt>
      <trkpt lat="47.11341" lon="-2.0943">
        <ele>17.3</ele>
        <time>2020-06-05T10:54:47Z</time>
      </trkpt>
      <trkpt lat="47.11344" lon="-2.09426">
        <ele>17.1</ele>
        <time>2020-06-05T10:54:48Z</time>
      </trkpt>
      <trkpt lat="47.11347" lon="-2.09423">
        <ele>16.9</ele>
        <time>2020-06-05T10:54:49Z</time>
      </trkpt>
      <trkpt lat="47.11349" lon="-2.0942">
        <ele>16.7</ele>
        <time>2020-06-05T10:54:50Z</time>
      </trkpt>
      <trkpt lat="47.11349" lon="-2.09418">
        <ele>16.7</ele>
        <time>2020-06-05T10:54:51Z</time>
      </trkpt>
      <trkpt lat="47.1135" lon="-2.09414">
        <ele>16.5</ele>
        <time>2020-06-05T10:54:52Z</time>
      </trkpt>
      <trkpt lat="47.11352" lon="-2.0941">
        <ele>16.5</ele>
        <time>2020-06-05T10:54:53Z</time>
      </trkpt>
      <trkpt lat="47.11356" lon="-2.09408">
        <ele>16.6</ele>
        <time>2020-06-05T10:54:54Z</time>
      </trkpt>
      <trkpt lat="47.11357" lon="-2.09408">
        <ele>16.6</ele>
        <time>2020-06-05T10:54:55Z</time>
      </trkpt>
      <trkpt lat="47.1136" lon="-2.09412">
        <ele>16.6</ele>
        <time>2020-06-05T10:54:56Z</time>
      </trkpt>
      <trkpt lat="47.11362" lon="-2.09415">
        <ele>16.5</ele>
        <time>2020-06-05T10:54:57Z</time>
      </trkpt>
      <trkpt lat="47.11364" lon="-2.09418">
        <ele>16.3</ele>
        <time>2020-06-05T10:54:58Z</time>
      </trkpt>
      <trkpt lat="47.11367" lon="-2.0942">
        <ele>16.2</ele>
        <time>2020-06-05T10:54:59Z</time>
      </trkpt>
      <trkpt lat="47.1137" lon="-2.09423">
        <ele>16</ele>
        <time>2020-06-05T10:55:00Z</time>
      </trkpt>
      <trkpt lat="47.11371" lon="-2.09424">
        <ele>16</ele>
        <time>2020-06-05T10:55:01Z</time>
      </trkpt>
      <trkpt lat="47.11374" lon="-2.09427">
        <ele>15.8</ele>
        <time>2020-06-05T10:55:02Z</time>
      </trkpt>
      <trkpt lat="47.11379" lon="-2.09427">
        <ele>15.6</ele>
        <time>2020-06-05T10:55:03Z</time>
      </trkpt>
      <trkpt lat="47.11384" lon="-2.09428">
        <ele>15.4</ele>
        <time>2020-06-05T10:55:04Z</time>
      </trkpt>
      <trkpt lat="47.11388" lon="-2.0943">
        <ele>15.2</ele>
        <time>2020-06-05T10:55:05Z</time>
      </trkpt>
      <trkpt lat="47.11393" lon="-2.09431">
        <ele>14.9</ele>
        <time>2020-06-05T10:55:06Z</time>
      </trkpt>
      <trkpt lat="47.11398" lon="-2.09433">
        <ele>14.7</ele>
        <time>2020-06-05T10:55:07Z</time>
      </trkpt>
      <trkpt lat="47.11404" lon="-2.09435">
        <ele>14.4</ele>
        <time>2020-06-05T10:55:08Z</time>
      </trkpt>
      <trkpt lat="47.11409" lon="-2.09437">
        <ele>14.1</ele>
        <time>2020-06-05T10:55:09Z</time>
      </trkpt>
      <trkpt lat="47.11413" lon="-2.0944">
        <ele>13.9</ele>
        <time>2020-06-05T10:55:10Z</time>
      </trkpt>
      <trkpt lat="47.11418" lon="-2.09445">
        <ele>13.7</ele>
        <time>2020-06-05T10:55:11Z</time>
      </trkpt>
      <trkpt lat="47.11423" lon="-2.09451">
        <ele>13.4</ele>
        <time>2020-06-05T10:55:12Z</time>
      </trkpt>
      <trkpt lat="47.11426" lon="-2.09458">
        <ele>13</ele>
        <time>2020-06-05T10:55:13Z</time>
      </trkpt>
      <trkpt lat="47.11428" lon="-2.09467">
        <ele>12.8</ele>
        <time>2020-06-05T10:55:14Z</time>
      </trkpt>
      <trkpt lat="47.11429" lon="-2.09475">
        <ele>12.7</ele>
        <time>2020-06-05T10:55:15Z</time>
      </trkpt>
      <trkpt lat="47.11429" lon="-2.09484">
        <ele>12.5</ele>
        <time>2020-06-05T10:55:16Z</time>
      </trkpt>
      <trkpt lat="47.11428" lon="-2.09493">
        <ele>12.3</ele>
        <time>2020-06-05T10:55:17Z</time>
      </trkpt>
      <trkpt lat="47.11428" lon="-2.09502">
        <ele>12.1</ele>
        <time>2020-06-05T10:55:18Z</time>
      </trkpt>
      <trkpt lat="47.11426" lon="-2.09511">
        <ele>11.9</ele>
        <time>2020-06-05T10:55:19Z</time>
      </trkpt>
      <trkpt lat="47.11424" lon="-2.0952">
        <ele>11.7</ele>
        <time>2020-06-05T10:55:20Z</time>
      </trkpt>
      <trkpt lat="47.11422" lon="-2.0953">
        <ele>11.5</ele>
        <time>2020-06-05T10:55:21Z</time>
      </trkpt>
      <trkpt lat="47.11418" lon="-2.09539">
        <ele>11.3</ele>
        <time>2020-06-05T10:55:22Z</time>
      </trkpt>
      <trkpt lat="47.11416" lon="-2.09547">
        <ele>11.2</ele>
        <time>2020-06-05T10:55:23Z</time>
      </trkpt>
      <trkpt lat="47.11415" lon="-2.09555">
        <ele>11.1</ele>
        <time>2020-06-05T10:55:24Z</time>
      </trkpt>
      <trkpt lat="47.11413" lon="-2.09564">
        <ele>10.9</ele>
        <time>2020-06-05T10:55:25Z</time>
      </trkpt>
      <trkpt lat="47.11412" lon="-2.09573">
        <ele>10.8</ele>
        <time>2020-06-05T10:55:26Z</time>
      </trkpt>
      <trkpt lat="47.11412" lon="-2.09581">
        <ele>10.6</ele>
        <time>2020-06-05T10:55:27Z</time>
      </trkpt>
      <trkpt lat="47.11412" lon="-2.09588">
        <ele>10.5</ele>
        <time>2020-06-05T10:55:28Z</time>
      </trkpt>
      <trkpt lat="47.11412" lon="-2.09596">
        <ele>10.3</ele>
        <time>2020-06-05T10:55:29Z</time>
      </trkpt>
      <trkpt lat="47.11411" lon="-2.09605">
        <ele>10.1</ele>
        <time>2020-06-05T10:55:30Z</time>
      </trkpt>
      <trkpt lat="47.11412" lon="-2.09613">
        <ele>9.9</ele>
        <time>2020-06-05T10:55:31Z</time>
      </trkpt>
      <trkpt lat="47.11413" lon="-2.09622">
        <ele>9.6</ele>
        <time>2020-06-05T10:55:32Z</time>
      </trkpt>
      <trkpt lat="47.11415" lon="-2.0963">
        <ele>9.4</ele>
        <time>2020-06-05T10:55:33Z</time>
      </trkpt>
      <trkpt lat="47.11417" lon="-2.09639">
        <ele>9.1</ele>
        <time>2020-06-05T10:55:34Z</time>
      </trkpt>
      <trkpt lat="47.11418" lon="-2.09647">
        <ele>8.9</ele>
        <time>2020-06-05T10:55:35Z</time>
      </trkpt>
      <trkpt lat="47.11419" lon="-2.09655">
        <ele>8.6</ele>
        <time>2020-06-05T10:55:36Z</time>
      </trkpt>
      <trkpt lat="47.11421" lon="-2.09665">
        <ele>8.3</ele>
        <time>2020-06-05T10:55:37Z</time>
      </trkpt>
      <trkpt lat="47.1142" lon="-2.09674">
        <ele>8</ele>
        <time>2020-06-05T10:55:38Z</time>
      </trkpt>
      <trkpt lat="47.1142" lon="-2.09683">
        <ele>7.7</ele>
        <time>2020-06-05T10:55:39Z</time>
      </trkpt>
      <trkpt lat="47.1142" lon="-2.09693">
        <ele>7.3</ele>
        <time>2020-06-05T10:55:40Z</time>
      </trkpt>
      <trkpt lat="47.1142" lon="-2.09703">
        <ele>7</ele>
        <time>2020-06-05T10:55:41Z</time>
      </trkpt>
      <trkpt lat="47.1142" lon="-2.09713">
        <ele>6.7</ele>
        <time>2020-06-05T10:55:42Z</time>
      </trkpt>
      <trkpt lat="47.11419" lon="-2.09723">
        <ele>6.4</ele>
        <time>2020-06-05T10:55:43Z</time>
      </trkpt>
      <trkpt lat="47.11418" lon="-2.09733">
        <ele>6.2</ele>
        <time>2020-06-05T10:55:44Z</time>
      </trkpt>
      <trkpt lat="47.11417" lon="-2.09742">
        <ele>6</ele>
        <time>2020-06-05T10:55:45Z</time>
      </trkpt>
      <trkpt lat="47.11416" lon="-2.09752">
        <ele>5.9</ele>
        <time>2020-06-05T10:55:46Z</time>
      </trkpt>
      <trkpt lat="47.11416" lon="-2.09762">
        <ele>6</ele>
        <time>2020-06-05T10:55:47Z</time>
      </trkpt>
      <trkpt lat="47.11416" lon="-2.09771">
        <ele>6</ele>
        <time>2020-06-05T10:55:48Z</time>
      </trkpt>
      <trkpt lat="47.11417" lon="-2.0978">
        <ele>6</ele>
        <time>2020-06-05T10:55:49Z</time>
      </trkpt>
      <trkpt lat="47.11419" lon="-2.09785">
        <ele>6</ele>
        <time>2020-06-05T10:55:50Z</time>
      </trkpt>
      <trkpt lat="47.11422" lon="-2.09792">
        <ele>6.1</ele>
        <time>2020-06-05T10:55:51Z</time>
      </trkpt>
      <trkpt lat="47.11425" lon="-2.09799">
        <ele>5.8</ele>
        <time>2020-06-05T10:55:52Z</time>
      </trkpt>
      <trkpt lat="47.11428" lon="-2.09807">
        <ele>5.7</ele>
        <time>2020-06-05T10:55:53Z</time>
      </trkpt>
      <trkpt lat="47.1143" lon="-2.09814">
        <ele>5.5</ele>
        <time>2020-06-05T10:55:54Z</time>
      </trkpt>
      <trkpt lat="47.11432" lon="-2.09821">
        <ele>5.4</ele>
        <time>2020-06-05T10:55:55Z</time>
      </trkpt>
      <trkpt lat="47.11435" lon="-2.09829">
        <ele>5.3</ele>
        <time>2020-06-05T10:55:56Z</time>
      </trkpt>
      <trkpt lat="47.11438" lon="-2.09834">
        <ele>5.2</ele>
        <time>2020-06-05T10:55:57Z</time>
      </trkpt>
      <trkpt lat="47.11442" lon="-2.09837">
        <ele>5.1</ele>
        <time>2020-06-05T10:55:58Z</time>
      </trkpt>
      <trkpt lat="47.11447" lon="-2.09841">
        <ele>5</ele>
        <time>2020-06-05T10:55:59Z</time>
      </trkpt>
      <trkpt lat="47.11453" lon="-2.09845">
        <ele>5</ele>
        <time>2020-06-05T10:56:00Z</time>
      </trkpt>
      <trkpt lat="47.11457" lon="-2.09847">
        <ele>4.9</ele>
        <time>2020-06-05T10:56:01Z</time>
      </trkpt>
      <trkpt lat="47.11463" lon="-2.09849">
        <ele>4.9</ele>
        <time>2020-06-05T10:56:02Z</time>
      </trkpt>
      <trkpt lat="47.11468" lon="-2.09851">
        <ele>4.9</ele>
        <time>2020-06-05T10:56:03Z</time>
      </trkpt>
      <trkpt lat="47.11473" lon="-2.09853">
        <ele>4.9</ele>
        <time>2020-06-05T10:56:04Z</time>
      </trkpt>
      <trkpt lat="47.11478" lon="-2.09854">
        <ele>5</ele>
        <time>2020-06-05T10:56:05Z</time>
      </trkpt>
      <trkpt lat="47.11483" lon="-2.09856">
        <ele>5</ele>
        <time>2020-06-05T10:56:06Z</time>
      </trkpt>
      <trkpt lat="47.11488" lon="-2.09858">
        <ele>5.1</ele>
        <time>2020-06-05T10:56:07Z</time>
      </trkpt>
      <trkpt lat="47.11493" lon="-2.0986">
        <ele>5.1</ele>
        <time>2020-06-05T10:56:08Z</time>
      </trkpt>
      <trkpt lat="47.11498" lon="-2.09862">
        <ele>5.2</ele>
        <time>2020-06-05T10:56:09Z</time>
      </trkpt>
      <trkpt lat="47.11502" lon="-2.09863">
        <ele>5.3</ele>
        <time>2020-06-05T10:56:10Z</time>
      </trkpt>
      <trkpt lat="47.11506" lon="-2.09865">
        <ele>5.4</ele>
        <time>2020-06-05T10:56:11Z</time>
      </trkpt>
      <trkpt lat="47.11509" lon="-2.09866">
        <ele>5.4</ele>
        <time>2020-06-05T10:56:12Z</time>
      </trkpt>
      <trkpt lat="47.11513" lon="-2.09867">
        <ele>5.5</ele>
        <time>2020-06-05T10:56:13Z</time>
      </trkpt>
      <trkpt lat="47.11517" lon="-2.09868">
        <ele>5.5</ele>
        <time>2020-06-05T10:56:14Z</time>
      </trkpt>
      <trkpt lat="47.11522" lon="-2.0987">
        <ele>5.6</ele>
        <time>2020-06-05T10:56:15Z</time>
      </trkpt>
      <trkpt lat="47.11525" lon="-2.09871">
        <ele>5.7</ele>
        <time>2020-06-05T10:56:16Z</time>
      </trkpt>
      <trkpt lat="47.11529" lon="-2.09873">
        <ele>5.8</ele>
        <time>2020-06-05T10:56:17Z</time>
      </trkpt>
      <trkpt lat="47.11533" lon="-2.09874">
        <ele>6.1</ele>
        <time>2020-06-05T10:56:18Z</time>
      </trkpt>
      <trkpt lat="47.11536" lon="-2.09875">
        <ele>6.2</ele>
        <time>2020-06-05T10:56:19Z</time>
      </trkpt>
      <trkpt lat="47.1154" lon="-2.09877">
        <ele>6.3</ele>
        <time>2020-06-05T10:56:20Z</time>
      </trkpt>
      <trkpt lat="47.11544" lon="-2.09879">
        <ele>6.5</ele>
        <time>2020-06-05T10:56:21Z</time>
      </trkpt>
      <trkpt lat="47.11548" lon="-2.09881">
        <ele>6.5</ele>
        <time>2020-06-05T10:56:22Z</time>
      </trkpt>
      <trkpt lat="47.11552" lon="-2.09883">
        <ele>6.6</ele>
        <time>2020-06-05T10:56:23Z</time>
      </trkpt>
      <trkpt lat="47.11556" lon="-2.09885">
        <ele>6.6</ele>
        <time>2020-06-05T10:56:24Z</time>
      </trkpt>
      <trkpt lat="47.11559" lon="-2.0989">
        <ele>6.7</ele>
        <time>2020-06-05T10:56:25Z</time>
      </trkpt>
      <trkpt lat="47.11561" lon="-2.09896">
        <ele>6.9</ele>
        <time>2020-06-05T10:56:26Z</time>
      </trkpt>
      <trkpt lat="47.11562" lon="-2.09902">
        <ele>7</ele>
        <time>2020-06-05T10:56:27Z</time>
      </trkpt>
      <trkpt lat="47.11564" lon="-2.09908">
        <ele>7.1</ele>
        <time>2020-06-05T10:56:28Z</time>
      </trkpt>
      <trkpt lat="47.11566" lon="-2.09914">
        <ele>7.3</ele>
        <time>2020-06-05T10:56:29Z</time>
      </trkpt>
      <trkpt lat="47.11569" lon="-2.09921">
        <ele>7.4</ele>
        <time>2020-06-05T10:56:30Z</time>
      </trkpt>
      <trkpt lat="47.11571" lon="-2.09928">
        <ele>7.6</ele>
        <time>2020-06-05T10:56:31Z</time>
      </trkpt>
      <trkpt lat="47.11573" lon="-2.09934">
        <ele>7.8</ele>
        <time>2020-06-05T10:56:32Z</time>
      </trkpt>
      <trkpt lat="47.11575" lon="-2.09939">
        <ele>8</ele>
        <time>2020-06-05T10:56:33Z</time>
      </trkpt>
      <trkpt lat="47.11577" lon="-2.09945">
        <ele>8.1</ele>
        <time>2020-06-05T10:56:34Z</time>
      </trkpt>
      <trkpt lat="47.11579" lon="-2.0995">
        <ele>8.3</ele>
        <time>2020-06-05T10:56:35Z</time>
      </trkpt>
      <trkpt lat="47.11581" lon="-2.09955">
        <ele>8.5</ele>
        <time>2020-06-05T10:56:36Z</time>
      </trkpt>
      <trkpt lat="47.11583" lon="-2.09959">
        <ele>8.6</ele>
        <time>2020-06-05T10:56:37Z</time>
      </trkpt>
      <trkpt lat="47.11584" lon="-2.09965">
        <ele>8.8</ele>
        <time>2020-06-05T10:56:38Z</time>
      </trkpt>
      <trkpt lat="47.11585" lon="-2.0997">
        <ele>9</ele>
        <time>2020-06-05T10:56:39Z</time>
      </trkpt>
      <trkpt lat="47.11587" lon="-2.09976">
        <ele>9.1</ele>
        <time>2020-06-05T10:56:40Z</time>
      </trkpt>
      <trkpt lat="47.11587" lon="-2.09981">
        <ele>9.3</ele>
        <time>2020-06-05T10:56:41Z</time>
      </trkpt>
      <trkpt lat="47.11586" lon="-2.09986">
        <ele>9.4</ele>
        <time>2020-06-05T10:56:42Z</time>
      </trkpt>
      <trkpt lat="47.11585" lon="-2.09991">
        <ele>9.6</ele>
        <time>2020-06-05T10:56:43Z</time>
      </trkpt>
      <trkpt lat="47.11584" lon="-2.09996">
        <ele>9.7</ele>
        <time>2020-06-05T10:56:44Z</time>
      </trkpt>
      <trkpt lat="47.11583" lon="-2.10002">
        <ele>9.8</ele>
        <time>2020-06-05T10:56:45Z</time>
      </trkpt>
      <trkpt lat="47.11582" lon="-2.10008">
        <ele>9.9</ele>
        <time>2020-06-05T10:56:46Z</time>
      </trkpt>
      <trkpt lat="47.11581" lon="-2.10012">
        <ele>10</ele>
        <time>2020-06-05T10:56:47Z</time>
      </trkpt>
      <trkpt lat="47.1158" lon="-2.10018">
        <ele>10.2</ele>
        <time>2020-06-05T10:56:48Z</time>
      </trkpt>
      <trkpt lat="47.11579" lon="-2.10023">
        <ele>10.4</ele>
        <time>2020-06-05T10:56:49Z</time>
      </trkpt>
      <trkpt lat="47.11578" lon="-2.10029">
        <ele>10.7</ele>
        <time>2020-06-05T10:56:50Z</time>
      </trkpt>
      <trkpt lat="47.11576" lon="-2.10036">
        <ele>11</ele>
        <time>2020-06-05T10:56:51Z</time>
      </trkpt>
      <trkpt lat="47.11575" lon="-2.10042">
        <ele>11.2</ele>
        <time>2020-06-05T10:56:52Z</time>
      </trkpt>
      <trkpt lat="47.11574" lon="-2.10047">
        <ele>11.5</ele>
        <time>2020-06-05T10:56:53Z</time>
      </trkpt>
      <trkpt lat="47.11575" lon="-2.10052">
        <ele>11.6</ele>
        <time>2020-06-05T10:56:54Z</time>
      </trkpt>
      <trkpt lat="47.11575" lon="-2.10053">
        <ele>11.7</ele>
        <time>2020-06-05T10:56:55Z</time>
      </trkpt>
      <trkpt lat="47.11575" lon="-2.10055">
        <ele>11.8</ele>
        <time>2020-06-05T10:56:56Z</time>
      </trkpt>
      <trkpt lat="47.11575" lon="-2.10056">
        <ele>11.8</ele>
        <time>2020-06-05T10:56:57Z</time>
      </trkpt>
      <trkpt lat="47.11575" lon="-2.10057">
        <ele>11.9</ele>
        <time>2020-06-05T10:56:58Z</time>
      </trkpt>
      <trkpt lat="47.11575" lon="-2.10057">
        <ele>11.9</ele>
        <time>2020-06-05T10:56:59Z</time>
      </trkpt>
      <trkpt lat="47.11576" lon="-2.10057">
        <ele>11.9</ele>
        <time>2020-06-05T10:57:00Z</time>
      </trkpt>
      <trkpt lat="47.11575" lon="-2.10057">
        <ele>11.9</ele>
        <time>2020-06-05T10:57:01Z</time>
      </trkpt>
      <trkpt lat="47.11575" lon="-2.10057">
        <ele>11.9</ele>
        <time>2020-06-05T10:57:02Z</time>
      </trkpt>
      <trkpt lat="47.11575" lon="-2.10057">
        <ele>11.9</ele>
        <time>2020-06-05T10:57:03Z</time>
      </trkpt>
      <trkpt lat="47.11575" lon="-2.10057">
        <ele>11.9</ele>
        <time>2020-06-05T10:57:04Z</time>
      </trkpt>
      <trkpt lat="47.11575" lon="-2.10057">
        <ele>11.9</ele>
        <time>2020-06-05T10:57:05Z</time>
      </trkpt>
      <trkpt lat="47.11575" lon="-2.10057">
        <ele>12</ele>
        <time>2020-06-05T10:57:06Z</time>
      </trkpt>
      <trkpt lat="47.11574" lon="-2.10057">
        <ele>12</ele>
        <time>2020-06-05T10:57:07Z</time>
      </trkpt>
      <trkpt lat="47.11573" lon="-2.10058">
        <ele>12.1</ele>
        <time>2020-06-05T10:57:08Z</time>
      </trkpt>
      <trkpt lat="47.11572" lon="-2.10058">
        <ele>12.1</ele>
        <time>2020-06-05T10:57:09Z</time>
      </trkpt>
      <trkpt lat="47.11572" lon="-2.10059">
        <ele>12.2</ele>
        <time>2020-06-05T10:57:10Z</time>
      </trkpt>
      <trkpt lat="47.11572" lon="-2.10059">
        <ele>12.2</ele>
        <time>2020-06-05T10:57:11Z</time>
      </trkpt>
      <trkpt lat="47.11572" lon="-2.10059">
        <ele>12.2</ele>
        <time>2020-06-05T10:57:12Z</time>
      </trkpt>
      <trkpt lat="47.11573" lon="-2.10058">
        <ele>12.2</ele>
        <time>2020-06-05T10:57:13Z</time>
      </trkpt>
      <trkpt lat="47.11573" lon="-2.10057">
        <ele>12.3</ele>
        <time>2020-06-05T10:57:14Z</time>
      </trkpt>
      <trkpt lat="47.11573" lon="-2.10057">
        <ele>12.3</ele>
        <time>2020-06-05T10:57:15Z</time>
      </trkpt>
      <trkpt lat="47.11573" lon="-2.10058">
        <ele>12.3</ele>
        <time>2020-06-05T10:57:16Z</time>
      </trkpt>
      <trkpt lat="47.11572" lon="-2.10058">
        <ele>12.3</ele>
        <time>2020-06-05T10:57:17Z</time>
      </trkpt>
      <trkpt lat="47.11573" lon="-2.10058">
        <ele>12.4</ele>
        <time>2020-06-05T10:57:18Z</time>
      </trkpt>
      <trkpt lat="47.11574" lon="-2.10059">
        <ele>12.4</ele>
        <time>2020-06-05T10:57:19Z</time>
      </trkpt>
      <trkpt lat="47.11575" lon="-2.1006">
        <ele>12.5</ele>
        <time>2020-06-05T10:57:20Z</time>
      </trkpt>
      <trkpt lat="47.11575" lon="-2.10061">
        <ele>12.5</ele>
        <time>2020-06-05T10:57:21Z</time>
      </trkpt>
      <trkpt lat="47.11574" lon="-2.10061">
        <ele>12.6</ele>
        <time>2020-06-05T10:57:22Z</time>
      </trkpt>
      <trkpt lat="47.11574" lon="-2.10063">
        <ele>12.7</ele>
        <time>2020-06-05T10:57:23Z</time>
      </trkpt>
      <trkpt lat="47.11573" lon="-2.10065">
        <ele>12.8</ele>
        <time>2020-06-05T10:57:24Z</time>
      </trkpt>
      <trkpt lat="47.11572" lon="-2.10067">
        <ele>12.8</ele>
        <time>2020-06-05T10:57:25Z</time>
      </trkpt>
      <trkpt lat="47.11572" lon="-2.10068">
        <ele>12.9</ele>
        <time>2020-06-05T10:57:26Z</time>
      </trkpt>
      <trkpt lat="47.11572" lon="-2.10069">
        <ele>12.9</ele>
        <time>2020-06-05T10:57:27Z</time>
      </trkpt>
      <trkpt lat="47.11572" lon="-2.1007">
        <ele>13</ele>
        <time>2020-06-05T10:57:28Z</time>
      </trkpt>
      <trkpt lat="47.11573" lon="-2.10071">
        <ele>13</ele>
        <time>2020-06-05T10:57:29Z</time>
      </trkpt>
      <trkpt lat="47.11573" lon="-2.10071">
        <ele>13</ele>
        <time>2020-06-05T10:57:30Z</time>
      </trkpt>
      <trkpt lat="47.11573" lon="-2.10073">
        <ele>13.1</ele>
        <time>2020-06-05T10:57:31Z</time>
      </trkpt>
      <trkpt lat="47.11573" lon="-2.10073">
        <ele>13.1</ele>
        <time>2020-06-05T10:57:32Z</time>
      </trkpt>
      <trkpt lat="47.11573" lon="-2.10075">
        <ele>13.2</ele>
        <time>2020-06-05T10:57:33Z</time>
      </trkpt>
      <trkpt lat="47.11573" lon="-2.10076">
        <ele>13.2</ele>
        <time>2020-06-05T10:57:34Z</time>
      </trkpt>
      <trkpt lat="47.11573" lon="-2.10077">
        <ele>13.2</ele>
        <time>2020-06-05T10:57:35Z</time>
      </trkpt>
      <trkpt lat="47.11573" lon="-2.10077">
        <ele>13.3</ele>
        <time>2020-06-05T10:57:36Z</time>
      </trkpt>
      <trkpt lat="47.11573" lon="-2.10078">
        <ele>13.3</ele>
        <time>2020-06-05T10:57:37Z</time>
      </trkpt>
      <trkpt lat="47.11573" lon="-2.10079">
        <ele>13.3</ele>
        <time>2020-06-05T10:57:38Z</time>
      </trkpt>
      <trkpt lat="47.11573" lon="-2.10079">
        <ele>13.4</ele>
        <time>2020-06-05T10:57:39Z</time>
      </trkpt>
      <trkpt lat="47.11574" lon="-2.10084">
        <ele>13.6</ele>
        <time>2020-06-05T10:57:40Z</time>
      </trkpt>
      <trkpt lat="47.11574" lon="-2.10086">
        <ele>13.6</ele>
        <time>2020-06-05T10:57:41Z</time>
      </trkpt>
      <trkpt lat="47.11574" lon="-2.1009">
        <ele>13.8</ele>
        <time>2020-06-05T10:57:42Z</time>
      </trkpt>
      <trkpt lat="47.11573" lon="-2.10092">
        <ele>13.9</ele>
        <time>2020-06-05T10:57:43Z</time>
      </trkpt>
      <trkpt lat="47.11574" lon="-2.10095">
        <ele>14</ele>
        <time>2020-06-05T10:57:44Z</time>
      </trkpt>
      <trkpt lat="47.11574" lon="-2.10096">
        <ele>14</ele>
        <time>2020-06-05T10:57:45Z</time>
      </trkpt>
      <trkpt lat="47.11574" lon="-2.10097">
        <ele>14.1</ele>
        <time>2020-06-05T10:57:46Z</time>
      </trkpt>
      <trkpt lat="47.11573" lon="-2.10099">
        <ele>14.1</ele>
        <time>2020-06-05T10:57:47Z</time>
      </trkpt>
      <trkpt lat="47.11573" lon="-2.101">
        <ele>14.2</ele>
        <time>2020-06-05T10:57:48Z</time>
      </trkpt>
      <trkpt lat="47.11573" lon="-2.10101">
        <ele>14.2</ele>
        <time>2020-06-05T10:57:49Z</time>
      </trkpt>
      <trkpt lat="47.11573" lon="-2.10102">
        <ele>14.2</ele>
        <time>2020-06-05T10:57:50Z</time>
      </trkpt>
      <trkpt lat="47.11573" lon="-2.10103">
        <ele>14.3</ele>
        <time>2020-06-05T10:57:51Z</time>
      </trkpt>
      <trkpt lat="47.11573" lon="-2.10104">
        <ele>14.3</ele>
        <time>2020-06-05T10:57:52Z</time>
      </trkpt>
      <trkpt lat="47.11573" lon="-2.10105">
        <ele>14.3</ele>
        <time>2020-06-05T10:57:53Z</time>
      </trkpt>
      <trkpt lat="47.11575" lon="-2.10111">
        <ele>14.5</ele>
        <time>2020-06-05T10:57:54Z</time>
      </trkpt>
      <trkpt lat="47.11575" lon="-2.10113">
        <ele>14.6</ele>
        <time>2020-06-05T10:57:55Z</time>
      </trkpt>
      <trkpt lat="47.11575" lon="-2.1012">
        <ele>14.9</ele>
        <time>2020-06-05T10:57:56Z</time>
      </trkpt>
      <trkpt lat="47.11576" lon="-2.10127">
        <ele>15.1</ele>
        <time>2020-06-05T10:57:57Z</time>
      </trkpt>
      <trkpt lat="47.11578" lon="-2.10134">
        <ele>15.3</ele>
        <time>2020-06-05T10:57:58Z</time>
      </trkpt>
      <trkpt lat="47.11579" lon="-2.1014">
        <ele>15.6</ele>
        <time>2020-06-05T10:57:59Z</time>
      </trkpt>
      <trkpt lat="47.1158" lon="-2.10147">
        <ele>15.8</ele>
        <time>2020-06-05T10:58:00Z</time>
      </trkpt>
      <trkpt lat="47.1158" lon="-2.10153">
        <ele>15.9</ele>
        <time>2020-06-05T10:58:01Z</time>
      </trkpt>
      <trkpt lat="47.11581" lon="-2.1016">
        <ele>16</ele>
        <time>2020-06-05T10:58:02Z</time>
      </trkpt>
      <trkpt lat="47.11583" lon="-2.10166">
        <ele>16.1</ele>
        <time>2020-06-05T10:58:03Z</time>
      </trkpt>
      <trkpt lat="47.11584" lon="-2.10171">
        <ele>16.2</ele>
        <time>2020-06-05T10:58:04Z</time>
      </trkpt>
      <trkpt lat="47.11585" lon="-2.10176">
        <ele>16.3</ele>
        <time>2020-06-05T10:58:05Z</time>
      </trkpt>
      <trkpt lat="47.11587" lon="-2.10181">
        <ele>16.5</ele>
        <time>2020-06-05T10:58:06Z</time>
      </trkpt>
      <trkpt lat="47.11588" lon="-2.10186">
        <ele>16.6</ele>
        <time>2020-06-05T10:58:07Z</time>
      </trkpt>
      <trkpt lat="47.11589" lon="-2.10191">
        <ele>16.8</ele>
        <time>2020-06-05T10:58:08Z</time>
      </trkpt>
      <trkpt lat="47.1159" lon="-2.10196">
        <ele>16.9</ele>
        <time>2020-06-05T10:58:09Z</time>
      </trkpt>
      <trkpt lat="47.11591" lon="-2.102">
        <ele>17.1</ele>
        <time>2020-06-05T10:58:10Z</time>
      </trkpt>
      <trkpt lat="47.11592" lon="-2.10204">
        <ele>17.2</ele>
        <time>2020-06-05T10:58:11Z</time>
      </trkpt>
      <trkpt lat="47.11592" lon="-2.10209">
        <ele>17.4</ele>
        <time>2020-06-05T10:58:12Z</time>
      </trkpt>
      <trkpt lat="47.11593" lon="-2.10214">
        <ele>17.6</ele>
        <time>2020-06-05T10:58:13Z</time>
      </trkpt>
      <trkpt lat="47.11594" lon="-2.10219">
        <ele>17.8</ele>
        <time>2020-06-05T10:58:14Z</time>
      </trkpt>
      <trkpt lat="47.11594" lon="-2.10223">
        <ele>18</ele>
        <time>2020-06-05T10:58:15Z</time>
      </trkpt>
      <trkpt lat="47.11595" lon="-2.10228">
        <ele>18.2</ele>
        <time>2020-06-05T10:58:16Z</time>
      </trkpt>
      <trkpt lat="47.11595" lon="-2.10229">
        <ele>18.3</ele>
        <time>2020-06-05T10:58:17Z</time>
      </trkpt>
      <trkpt lat="47.11596" lon="-2.10234">
        <ele>18.5</ele>
        <time>2020-06-05T10:58:18Z</time>
      </trkpt>
      <trkpt lat="47.11597" lon="-2.10235">
        <ele>18.5</ele>
        <time>2020-06-05T10:58:19Z</time>
      </trkpt>
      <trkpt lat="47.11598" lon="-2.10239">
        <ele>18.7</ele>
        <time>2020-06-05T10:58:20Z</time>
      </trkpt>
      <trkpt lat="47.11598" lon="-2.1024">
        <ele>18.8</ele>
        <time>2020-06-05T10:58:21Z</time>
      </trkpt>
      <trkpt lat="47.11599" lon="-2.10242">
        <ele>18.9</ele>
        <time>2020-06-05T10:58:22Z</time>
      </trkpt>
      <trkpt lat="47.116" lon="-2.10243">
        <ele>18.9</ele>
        <time>2020-06-05T10:58:23Z</time>
      </trkpt>
      <trkpt lat="47.116" lon="-2.10244">
        <ele>18.9</ele>
        <time>2020-06-05T10:58:24Z</time>
      </trkpt>
      <trkpt lat="47.11599" lon="-2.10246">
        <ele>18.9</ele>
        <time>2020-06-05T10:58:25Z</time>
      </trkpt>
      <trkpt lat="47.11598" lon="-2.10247">
        <ele>18.9</ele>
        <time>2020-06-05T10:58:26Z</time>
      </trkpt>
      <trkpt lat="47.11597" lon="-2.10248">
        <ele>18.8</ele>
        <time>2020-06-05T10:58:27Z</time>
      </trkpt>
      <trkpt lat="47.11597" lon="-2.10249">
        <ele>18.8</ele>
        <time>2020-06-05T10:58:28Z</time>
      </trkpt>
      <trkpt lat="47.11595" lon="-2.10251">
        <ele>18.7</ele>
        <time>2020-06-05T10:58:29Z</time>
      </trkpt>
      <trkpt lat="47.11593" lon="-2.10255">
        <ele>18.6</ele>
        <time>2020-06-05T10:58:30Z</time>
      </trkpt>
      <trkpt lat="47.11592" lon="-2.10256">
        <ele>18.6</ele>
        <time>2020-06-05T10:58:31Z</time>
      </trkpt>
      <trkpt lat="47.11591" lon="-2.10259">
        <ele>18.5</ele>
        <time>2020-06-05T10:58:32Z</time>
      </trkpt>
      <trkpt lat="47.1159" lon="-2.1026">
        <ele>18.5</ele>
        <time>2020-06-05T10:58:33Z</time>
      </trkpt>
      <trkpt lat="47.11589" lon="-2.1026">
        <ele>18.5</ele>
        <time>2020-06-05T10:58:34Z</time>
      </trkpt>
      <trkpt lat="47.11589" lon="-2.1026">
        <ele>18.5</ele>
        <time>2020-06-05T10:58:35Z</time>
      </trkpt>
      <trkpt lat="47.11588" lon="-2.10259">
        <ele>18.5</ele>
        <time>2020-06-05T10:58:36Z</time>
      </trkpt>
      <trkpt lat="47.11589" lon="-2.10258">
        <ele>18.4</ele>
        <time>2020-06-05T10:58:37Z</time>
      </trkpt>
      <trkpt lat="47.1159" lon="-2.10257">
        <ele>18.4</ele>
        <time>2020-06-05T10:58:38Z</time>
      </trkpt>
      <trkpt lat="47.11591" lon="-2.10256">
        <ele>18.3</ele>
        <time>2020-06-05T10:58:39Z</time>
      </trkpt>
      <trkpt lat="47.11592" lon="-2.10255">
        <ele>18.3</ele>
        <time>2020-06-05T10:58:40Z</time>
      </trkpt>
      <trkpt lat="47.11592" lon="-2.10254">
        <ele>18.3</ele>
        <time>2020-06-05T10:58:41Z</time>
      </trkpt>
      <trkpt lat="47.11593" lon="-2.10253">
        <ele>18.3</ele>
        <time>2020-06-05T10:58:42Z</time>
      </trkpt>
      <trkpt lat="47.11593" lon="-2.10252">
        <ele>18.2</ele>
        <time>2020-06-05T10:58:43Z</time>
      </trkpt>
      <trkpt lat="47.11593" lon="-2.10252">
        <ele>18.2</ele>
        <time>2020-06-05T10:58:44Z</time>
      </trkpt>
      <trkpt lat="47.11593" lon="-2.10251">
        <ele>18.2</ele>
        <time>2020-06-05T10:58:45Z</time>
      </trkpt>
      <trkpt lat="47.11593" lon="-2.1025">
        <ele>18.2</ele>
        <time>2020-06-05T10:58:46Z</time>
      </trkpt>
      <trkpt lat="47.11593" lon="-2.1025">
        <ele>18.2</ele>
        <time>2020-06-05T10:58:47Z</time>
      </trkpt>
      <trkpt lat="47.11593" lon="-2.10251">
        <ele>18.1</ele>
        <time>2020-06-05T10:58:48Z</time>
      </trkpt>
      <trkpt lat="47.11594" lon="-2.1025">
        <ele>18.1</ele>
        <time>2020-06-05T10:58:49Z</time>
      </trkpt>
      <trkpt lat="47.11595" lon="-2.10249">
        <ele>18.1</ele>
        <time>2020-06-05T10:58:50Z</time>
      </trkpt>
      <trkpt lat="47.11596" lon="-2.10248">
        <ele>18</ele>
        <time>2020-06-05T10:58:51Z</time>
      </trkpt>
      <trkpt lat="47.11597" lon="-2.10248">
        <ele>18</ele>
        <time>2020-06-05T10:58:52Z</time>
      </trkpt>
      <trkpt lat="47.11597" lon="-2.10248">
        <ele>18</ele>
        <time>2020-06-05T10:58:53Z</time>
      </trkpt>
      <trkpt lat="47.11598" lon="-2.10249">
        <ele>18</ele>
        <time>2020-06-05T10:58:54Z</time>
      </trkpt>
      <trkpt lat="47.11599" lon="-2.10249">
        <ele>18</ele>
        <time>2020-06-05T10:58:55Z</time>
      </trkpt>
      <trkpt lat="47.11598" lon="-2.10248">
        <ele>17.9</ele>
        <time>2020-06-05T10:58:56Z</time>
      </trkpt>
      <trkpt lat="47.11598" lon="-2.1023">
        <ele>17.6</ele>
        <time>2020-06-05T11:00:14Z</time>
      </trkpt>
      <trkpt lat="47.11597" lon="-2.10228">
        <ele>17.5</ele>
        <time>2020-06-05T11:00:15Z</time>
      </trkpt>
      <trkpt lat="47.11597" lon="-2.10227">
        <ele>17.5</ele>
        <time>2020-06-05T11:00:16Z</time>
      </trkpt>
      <trkpt lat="47.11596" lon="-2.10226">
        <ele>17.5</ele>
        <time>2020-06-05T11:00:17Z</time>
      </trkpt>
      <trkpt lat="47.11596" lon="-2.10225">
        <ele>17.4</ele>
        <time>2020-06-05T11:00:18Z</time>
      </trkpt>
      <trkpt lat="47.11596" lon="-2.10225">
        <ele>17.4</ele>
        <time>2020-06-05T11:00:19Z</time>
      </trkpt>
      <trkpt lat="47.11596" lon="-2.10223">
        <ele>17.4</ele>
        <time>2020-06-05T11:00:20Z</time>
      </trkpt>
      <trkpt lat="47.11596" lon="-2.10222">
        <ele>17.4</ele>
        <time>2020-06-05T11:00:21Z</time>
      </trkpt>
      <trkpt lat="47.11596" lon="-2.10221">
        <ele>17.4</ele>
        <time>2020-06-05T11:00:22Z</time>
      </trkpt>
      <trkpt lat="47.11596" lon="-2.1022">
        <ele>17.4</ele>
        <time>2020-06-05T11:00:23Z</time>
      </trkpt>
      <trkpt lat="47.11595" lon="-2.10219">
        <ele>17.3</ele>
        <time>2020-06-05T11:00:24Z</time>
      </trkpt>
      <trkpt lat="47.11595" lon="-2.10218">
        <ele>17.3</ele>
        <time>2020-06-05T11:00:25Z</time>
      </trkpt>
      <trkpt lat="47.11595" lon="-2.10217">
        <ele>17.3</ele>
        <time>2020-06-05T11:00:26Z</time>
      </trkpt>
      <trkpt lat="47.11595" lon="-2.10216">
        <ele>17.3</ele>
        <time>2020-06-05T11:00:27Z</time>
      </trkpt>
      <trkpt lat="47.11595" lon="-2.10215">
        <ele>17.3</ele>
        <time>2020-06-05T11:00:28Z</time>
      </trkpt>
      <trkpt lat="47.11595" lon="-2.10214">
        <ele>17.3</ele>
        <time>2020-06-05T11:00:29Z</time>
      </trkpt>
      <trkpt lat="47.11594" lon="-2.10213">
        <ele>17.2</ele>
        <time>2020-06-05T11:00:30Z</time>
      </trkpt>
      <trkpt lat="47.11594" lon="-2.10212">
        <ele>17.2</ele>
        <time>2020-06-05T11:00:31Z</time>
      </trkpt>
      <trkpt lat="47.11594" lon="-2.10211">
        <ele>17.2</ele>
        <time>2020-06-05T11:00:32Z</time>
      </trkpt>
      <trkpt lat="47.11594" lon="-2.1021">
        <ele>17.2</ele>
        <time>2020-06-05T11:00:33Z</time>
      </trkpt>
      <trkpt lat="47.11594" lon="-2.10209">
        <ele>17.2</ele>
        <time>2020-06-05T11:00:53Z</time>
      </trkpt>
      <trkpt lat="47.11594" lon="-2.10208">
        <ele>17.1</ele>
        <time>2020-06-05T11:00:54Z</time>
      </trkpt>
      <trkpt lat="47.11593" lon="-2.10207">
        <ele>17.1</ele>
        <time>2020-06-05T11:00:55Z</time>
      </trkpt>
      <trkpt lat="47.11591" lon="-2.102">
        <ele>17</ele>
        <time>2020-06-05T11:00:56Z</time>
      </trkpt>
      <trkpt lat="47.1159" lon="-2.10195">
        <ele>16.9</ele>
        <time>2020-06-05T11:00:57Z</time>
      </trkpt>
      <trkpt lat="47.11589" lon="-2.10189">
        <ele>16.7</ele>
        <time>2020-06-05T11:00:58Z</time>
      </trkpt>
      <trkpt lat="47.11587" lon="-2.10183">
        <ele>16.6</ele>
        <time>2020-06-05T11:00:59Z</time>
      </trkpt>
      <trkpt lat="47.11586" lon="-2.10175">
        <ele>16.4</ele>
        <time>2020-06-05T11:01:00Z</time>
      </trkpt>
      <trkpt lat="47.11582" lon="-2.10167">
        <ele>16.1</ele>
        <time>2020-06-05T11:01:01Z</time>
      </trkpt>
      <trkpt lat="47.1158" lon="-2.10159">
        <ele>16</ele>
        <time>2020-06-05T11:01:02Z</time>
      </trkpt>
      <trkpt lat="47.11579" lon="-2.10151">
        <ele>15.8</ele>
        <time>2020-06-05T11:01:03Z</time>
      </trkpt>
      <trkpt lat="47.11577" lon="-2.10142">
        <ele>15.6</ele>
        <time>2020-06-05T11:01:04Z</time>
      </trkpt>
      <trkpt lat="47.11576" lon="-2.10134">
        <ele>15.3</ele>
        <time>2020-06-05T11:01:05Z</time>
      </trkpt>
      <trkpt lat="47.11574" lon="-2.10125">
        <ele>14.9</ele>
        <time>2020-06-05T11:01:06Z</time>
      </trkpt>
      <trkpt lat="47.11572" lon="-2.10116">
        <ele>14.6</ele>
        <time>2020-06-05T11:01:07Z</time>
      </trkpt>
      <trkpt lat="47.1157" lon="-2.10107">
        <ele>14.2</ele>
        <time>2020-06-05T11:01:08Z</time>
      </trkpt>
      <trkpt lat="47.11568" lon="-2.10097">
        <ele>13.8</ele>
        <time>2020-06-05T11:01:09Z</time>
      </trkpt>
      <trkpt lat="47.11567" lon="-2.10089">
        <ele>13.4</ele>
        <time>2020-06-05T11:01:10Z</time>
      </trkpt>
      <trkpt lat="47.11567" lon="-2.10081">
        <ele>13.1</ele>
        <time>2020-06-05T11:01:11Z</time>
      </trkpt>
      <trkpt lat="47.11568" lon="-2.10072">
        <ele>12.7</ele>
        <time>2020-06-05T11:01:12Z</time>
      </trkpt>
      <trkpt lat="47.1157" lon="-2.10063">
        <ele>12.3</ele>
        <time>2020-06-05T11:01:13Z</time>
      </trkpt>
      <trkpt lat="47.11571" lon="-2.10053">
        <ele>11.8</ele>
        <time>2020-06-05T11:01:14Z</time>
      </trkpt>
      <trkpt lat="47.11573" lon="-2.10043">
        <ele>11.4</ele>
        <time>2020-06-05T11:01:15Z</time>
      </trkpt>
      <trkpt lat="47.11574" lon="-2.10035">
        <ele>11</ele>
        <time>2020-06-05T11:01:16Z</time>
      </trkpt>
      <trkpt lat="47.11576" lon="-2.10027">
        <ele>10.6</ele>
        <time>2020-06-05T11:01:17Z</time>
      </trkpt>
      <trkpt lat="47.11576" lon="-2.10018">
        <ele>10.2</ele>
        <time>2020-06-05T11:01:18Z</time>
      </trkpt>
      <trkpt lat="47.11576" lon="-2.10011">
        <ele>10</ele>
        <time>2020-06-05T11:01:19Z</time>
      </trkpt>
      <trkpt lat="47.11575" lon="-2.10004">
        <ele>9.9</ele>
        <time>2020-06-05T11:01:20Z</time>
      </trkpt>
      <trkpt lat="47.11575" lon="-2.09997">
        <ele>9.8</ele>
        <time>2020-06-05T11:01:21Z</time>
      </trkpt>
      <trkpt lat="47.11576" lon="-2.09989">
        <ele>9.6</ele>
        <time>2020-06-05T11:01:22Z</time>
      </trkpt>
      <trkpt lat="47.11576" lon="-2.09982">
        <ele>9.3</ele>
        <time>2020-06-05T11:01:23Z</time>
      </trkpt>
      <trkpt lat="47.11576" lon="-2.09973">
        <ele>9.1</ele>
        <time>2020-06-05T11:01:24Z</time>
      </trkpt>
      <trkpt lat="47.11576" lon="-2.09965">
        <ele>8.8</ele>
        <time>2020-06-05T11:01:25Z</time>
      </trkpt>
      <trkpt lat="47.11576" lon="-2.09958">
        <ele>8.6</ele>
        <time>2020-06-05T11:01:26Z</time>
      </trkpt>
      <trkpt lat="47.11574" lon="-2.09949">
        <ele>8.3</ele>
        <time>2020-06-05T11:01:27Z</time>
      </trkpt>
      <trkpt lat="47.11572" lon="-2.0994">
        <ele>8</ele>
        <time>2020-06-05T11:01:28Z</time>
      </trkpt>
      <trkpt lat="47.1157" lon="-2.09931">
        <ele>7.7</ele>
        <time>2020-06-05T11:01:29Z</time>
      </trkpt>
      <trkpt lat="47.11568" lon="-2.09922">
        <ele>7.4</ele>
        <time>2020-06-05T11:01:30Z</time>
      </trkpt>
      <trkpt lat="47.11565" lon="-2.09913">
        <ele>7.2</ele>
        <time>2020-06-05T11:01:31Z</time>
      </trkpt>
      <trkpt lat="47.11562" lon="-2.09906">
        <ele>7</ele>
        <time>2020-06-05T11:01:32Z</time>
      </trkpt>
      <trkpt lat="47.11559" lon="-2.09899">
        <ele>6.8</ele>
        <time>2020-06-05T11:01:33Z</time>
      </trkpt>
      <trkpt lat="47.11556" lon="-2.09892">
        <ele>6.6</ele>
        <time>2020-06-05T11:01:34Z</time>
      </trkpt>
      <trkpt lat="47.11553" lon="-2.09886">
        <ele>6.6</ele>
        <time>2020-06-05T11:01:35Z</time>
      </trkpt>
      <trkpt lat="47.1155" lon="-2.09884">
        <ele>6.5</ele>
        <time>2020-06-05T11:01:36Z</time>
      </trkpt>
      <trkpt lat="47.11546" lon="-2.09884">
        <ele>6.4</ele>
        <time>2020-06-05T11:01:37Z</time>
      </trkpt>
      <trkpt lat="47.11542" lon="-2.09888">
        <ele>6.1</ele>
        <time>2020-06-05T11:01:38Z</time>
      </trkpt>
      <trkpt lat="47.1154" lon="-2.09895">
        <ele>5.8</ele>
        <time>2020-06-05T11:01:39Z</time>
      </trkpt>
      <trkpt lat="47.11541" lon="-2.09903">
        <ele>5.3</ele>
        <time>2020-06-05T11:01:40Z</time>
      </trkpt>
      <trkpt lat="47.1154" lon="-2.09911">
        <ele>5.2</ele>
        <time>2020-06-05T11:01:41Z</time>
      </trkpt>
      <trkpt lat="47.1154" lon="-2.09917">
        <ele>5</ele>
        <time>2020-06-05T11:01:42Z</time>
      </trkpt>
      <trkpt lat="47.1154" lon="-2.09924">
        <ele>4.8</ele>
        <time>2020-06-05T11:01:43Z</time>
      </trkpt>
      <trkpt lat="47.11539" lon="-2.09932">
        <ele>4.6</ele>
        <time>2020-06-05T11:01:44Z</time>
      </trkpt>
      <trkpt lat="47.11538" lon="-2.09941">
        <ele>4.4</ele>
        <time>2020-06-05T11:01:45Z</time>
      </trkpt>
      <trkpt lat="47.11538" lon="-2.0995">
        <ele>4.3</ele>
        <time>2020-06-05T11:01:46Z</time>
      </trkpt>
      <trkpt lat="47.11538" lon="-2.09958">
        <ele>4.2</ele>
        <time>2020-06-05T11:01:47Z</time>
      </trkpt>
      <trkpt lat="47.11537" lon="-2.09967">
        <ele>4.1</ele>
        <time>2020-06-05T11:01:48Z</time>
      </trkpt>
      <trkpt lat="47.11537" lon="-2.09975">
        <ele>4</ele>
        <time>2020-06-05T11:01:49Z</time>
      </trkpt>
      <trkpt lat="47.11537" lon="-2.09981">
        <ele>4</ele>
        <time>2020-06-05T11:01:50Z</time>
      </trkpt>
      <trkpt lat="47.11537" lon="-2.09988">
        <ele>4</ele>
        <time>2020-06-05T11:01:51Z</time>
      </trkpt>
      <trkpt lat="47.11538" lon="-2.09993">
        <ele>4</ele>
        <time>2020-06-05T11:01:52Z</time>
      </trkpt>
      <trkpt lat="47.11539" lon="-2.09998">
        <ele>4</ele>
        <time>2020-06-05T11:01:53Z</time>
      </trkpt>
      <trkpt lat="47.1154" lon="-2.10004">
        <ele>3.9</ele>
        <time>2020-06-05T11:01:54Z</time>
      </trkpt>
      <trkpt lat="47.11541" lon="-2.1001">
        <ele>3.9</ele>
        <time>2020-06-05T11:01:55Z</time>
      </trkpt>
      <trkpt lat="47.11543" lon="-2.10015">
        <ele>3.9</ele>
        <time>2020-06-05T11:01:56Z</time>
      </trkpt>
      <trkpt lat="47.11543" lon="-2.1002">
        <ele>3.9</ele>
        <time>2020-06-05T11:01:57Z</time>
      </trkpt>
      <trkpt lat="47.11543" lon="-2.10026">
        <ele>3.9</ele>
        <time>2020-06-05T11:01:58Z</time>
      </trkpt>
      <trkpt lat="47.11542" lon="-2.10032">
        <ele>3.9</ele>
        <time>2020-06-05T11:01:59Z</time>
      </trkpt>
      <trkpt lat="47.11542" lon="-2.10038">
        <ele>3.9</ele>
        <time>2020-06-05T11:02:00Z</time>
      </trkpt>
      <trkpt lat="47.11541" lon="-2.10045">
        <ele>3.9</ele>
        <time>2020-06-05T11:02:01Z</time>
      </trkpt>
      <trkpt lat="47.1154" lon="-2.10053">
        <ele>3.9</ele>
        <time>2020-06-05T11:02:02Z</time>
      </trkpt>
      <trkpt lat="47.11539" lon="-2.10059">
        <ele>3.9</ele>
        <time>2020-06-05T11:02:03Z</time>
      </trkpt>
      <trkpt lat="47.11538" lon="-2.10068">
        <ele>3.9</ele>
        <time>2020-06-05T11:02:04Z</time>
      </trkpt>
      <trkpt lat="47.11538" lon="-2.10076">
        <ele>3.9</ele>
        <time>2020-06-05T11:02:05Z</time>
      </trkpt>
      <trkpt lat="47.11539" lon="-2.10083">
        <ele>3.9</ele>
        <time>2020-06-05T11:02:06Z</time>
      </trkpt>
      <trkpt lat="47.11539" lon="-2.10088">
        <ele>3.9</ele>
        <time>2020-06-05T11:02:07Z</time>
      </trkpt>
      <trkpt lat="47.11538" lon="-2.10094">
        <ele>3.9</ele>
        <time>2020-06-05T11:02:08Z</time>
      </trkpt>
      <trkpt lat="47.11537" lon="-2.101">
        <ele>3.9</ele>
        <time>2020-06-05T11:02:09Z</time>
      </trkpt>
      <trkpt lat="47.11537" lon="-2.10106">
        <ele>3.9</ele>
        <time>2020-06-05T11:02:10Z</time>
      </trkpt>
      <trkpt lat="47.11536" lon="-2.10112">
        <ele>3.9</ele>
        <time>2020-06-05T11:02:11Z</time>
      </trkpt>
      <trkpt lat="47.11537" lon="-2.10116">
        <ele>4</ele>
        <time>2020-06-05T11:02:12Z</time>
      </trkpt>
      <trkpt lat="47.11537" lon="-2.10122">
        <ele>4</ele>
        <time>2020-06-05T11:02:13Z</time>
      </trkpt>
      <trkpt lat="47.11538" lon="-2.10129">
        <ele>4</ele>
        <time>2020-06-05T11:02:14Z</time>
      </trkpt>
      <trkpt lat="47.11538" lon="-2.10136">
        <ele>4</ele>
        <time>2020-06-05T11:02:15Z</time>
      </trkpt>
      <trkpt lat="47.11538" lon="-2.10143">
        <ele>4</ele>
        <time>2020-06-05T11:02:16Z</time>
      </trkpt>
      <trkpt lat="47.11538" lon="-2.10151">
        <ele>4.1</ele>
        <time>2020-06-05T11:02:17Z</time>
      </trkpt>
      <trkpt lat="47.11538" lon="-2.10159">
        <ele>4.2</ele>
        <time>2020-06-05T11:02:18Z</time>
      </trkpt>
      <trkpt lat="47.11538" lon="-2.10165">
        <ele>4.2</ele>
        <time>2020-06-05T11:02:19Z</time>
      </trkpt>
      <trkpt lat="47.11539" lon="-2.10173">
        <ele>4.2</ele>
        <time>2020-06-05T11:02:20Z</time>
      </trkpt>
      <trkpt lat="47.11539" lon="-2.1018">
        <ele>4.2</ele>
        <time>2020-06-05T11:02:21Z</time>
      </trkpt>
      <trkpt lat="47.1154" lon="-2.10186">
        <ele>4.2</ele>
        <time>2020-06-05T11:02:22Z</time>
      </trkpt>
      <trkpt lat="47.11538" lon="-2.1019">
        <ele>4.2</ele>
        <time>2020-06-05T11:02:23Z</time>
      </trkpt>
      <trkpt lat="47.11537" lon="-2.10194">
        <ele>4.2</ele>
        <time>2020-06-05T11:02:24Z</time>
      </trkpt>
      <trkpt lat="47.11533" lon="-2.10197">
        <ele>4.2</ele>
        <time>2020-06-05T11:02:25Z</time>
      </trkpt>
      <trkpt lat="47.11529" lon="-2.10199">
        <ele>4.2</ele>
        <time>2020-06-05T11:02:26Z</time>
      </trkpt>
      <trkpt lat="47.11525" lon="-2.10203">
        <ele>4.2</ele>
        <time>2020-06-05T11:02:27Z</time>
      </trkpt>
      <trkpt lat="47.11523" lon="-2.10206">
        <ele>4.2</ele>
        <time>2020-06-05T11:02:28Z</time>
      </trkpt>
      <trkpt lat="47.11523" lon="-2.10212">
        <ele>4.1</ele>
        <time>2020-06-05T11:02:29Z</time>
      </trkpt>
      <trkpt lat="47.11522" lon="-2.10219">
        <ele>4.1</ele>
        <time>2020-06-05T11:02:30Z</time>
      </trkpt>
      <trkpt lat="47.11522" lon="-2.10225">
        <ele>4.1</ele>
        <time>2020-06-05T11:02:31Z</time>
      </trkpt>
      <trkpt lat="47.11522" lon="-2.10232">
        <ele>4</ele>
        <time>2020-06-05T11:02:32Z</time>
      </trkpt>
      <trkpt lat="47.11522" lon="-2.10239">
        <ele>4</ele>
        <time>2020-06-05T11:02:33Z</time>
      </trkpt>
      <trkpt lat="47.11521" lon="-2.10245">
        <ele>4</ele>
        <time>2020-06-05T11:02:34Z</time>
      </trkpt>
      <trkpt lat="47.11521" lon="-2.10252">
        <ele>4</ele>
        <time>2020-06-05T11:02:35Z</time>
      </trkpt>
      <trkpt lat="47.1152" lon="-2.1026">
        <ele>4</ele>
        <time>2020-06-05T11:02:36Z</time>
      </trkpt>
      <trkpt lat="47.11519" lon="-2.10268">
        <ele>4.1</ele>
        <time>2020-06-05T11:02:37Z</time>
      </trkpt>
      <trkpt lat="47.11517" lon="-2.10275">
        <ele>4.1</ele>
        <time>2020-06-05T11:02:38Z</time>
      </trkpt>
      <trkpt lat="47.11516" lon="-2.10282">
        <ele>4.1</ele>
        <time>2020-06-05T11:02:39Z</time>
      </trkpt>
      <trkpt lat="47.11514" lon="-2.10289">
        <ele>4.1</ele>
        <time>2020-06-05T11:02:40Z</time>
      </trkpt>
      <trkpt lat="47.11513" lon="-2.10297">
        <ele>4.2</ele>
        <time>2020-06-05T11:02:41Z</time>
      </trkpt>
      <trkpt lat="47.11512" lon="-2.10305">
        <ele>4.2</ele>
        <time>2020-06-05T11:02:42Z</time>
      </trkpt>
      <trkpt lat="47.11511" lon="-2.10311">
        <ele>4.2</ele>
        <time>2020-06-05T11:02:43Z</time>
      </trkpt>
      <trkpt lat="47.1151" lon="-2.10316">
        <ele>4.2</ele>
        <time>2020-06-05T11:02:44Z</time>
      </trkpt>
      <trkpt lat="47.1151" lon="-2.10322">
        <ele>4.3</ele>
        <time>2020-06-05T11:02:45Z</time>
      </trkpt>
      <trkpt lat="47.11508" lon="-2.10329">
        <ele>4.3</ele>
        <time>2020-06-05T11:02:46Z</time>
      </trkpt>
      <trkpt lat="47.11506" lon="-2.10334">
        <ele>4.3</ele>
        <time>2020-06-05T11:02:47Z</time>
      </trkpt>
      <trkpt lat="47.11504" lon="-2.10339">
        <ele>4.3</ele>
        <time>2020-06-05T11:02:48Z</time>
      </trkpt>
      <trkpt lat="47.11502" lon="-2.10344">
        <ele>4.4</ele>
        <time>2020-06-05T11:02:49Z</time>
      </trkpt>
      <trkpt lat="47.11499" lon="-2.10348">
        <ele>4.4</ele>
        <time>2020-06-05T11:02:50Z</time>
      </trkpt>
      <trkpt lat="47.11498" lon="-2.10353">
        <ele>4.4</ele>
        <time>2020-06-05T11:02:51Z</time>
      </trkpt>
      <trkpt lat="47.11497" lon="-2.10359">
        <ele>4.4</ele>
        <time>2020-06-05T11:02:52Z</time>
      </trkpt>
      <trkpt lat="47.11495" lon="-2.10364">
        <ele>4.4</ele>
        <time>2020-06-05T11:02:53Z</time>
      </trkpt>
      <trkpt lat="47.11494" lon="-2.10369">
        <ele>4.5</ele>
        <time>2020-06-05T11:02:54Z</time>
      </trkpt>
      <trkpt lat="47.11491" lon="-2.10374">
        <ele>4.5</ele>
        <time>2020-06-05T11:02:55Z</time>
      </trkpt>
      <trkpt lat="47.1149" lon="-2.10378">
        <ele>4.5</ele>
        <time>2020-06-05T11:02:56Z</time>
      </trkpt>
      <trkpt lat="47.11488" lon="-2.10384">
        <ele>4.5</ele>
        <time>2020-06-05T11:02:57Z</time>
      </trkpt>
      <trkpt lat="47.11487" lon="-2.10391">
        <ele>4.6</ele>
        <time>2020-06-05T11:02:58Z</time>
      </trkpt>
      <trkpt lat="47.11485" lon="-2.10396">
        <ele>4.6</ele>
        <time>2020-06-05T11:02:59Z</time>
      </trkpt>
      <trkpt lat="47.11484" lon="-2.10401">
        <ele>4.7</ele>
        <time>2020-06-05T11:03:00Z</time>
      </trkpt>
      <trkpt lat="47.11482" lon="-2.10407">
        <ele>4.7</ele>
        <time>2020-06-05T11:03:01Z</time>
      </trkpt>
      <trkpt lat="47.11481" lon="-2.10413">
        <ele>4.8</ele>
        <time>2020-06-05T11:03:02Z</time>
      </trkpt>
      <trkpt lat="47.1148" lon="-2.10419">
        <ele>4.8</ele>
        <time>2020-06-05T11:03:03Z</time>
      </trkpt>
      <trkpt lat="47.11479" lon="-2.10423">
        <ele>4.9</ele>
        <time>2020-06-05T11:03:04Z</time>
      </trkpt>
      <trkpt lat="47.11479" lon="-2.10428">
        <ele>5</ele>
        <time>2020-06-05T11:03:05Z</time>
      </trkpt>
      <trkpt lat="47.11477" lon="-2.10432">
        <ele>5</ele>
        <time>2020-06-05T11:03:06Z</time>
      </trkpt>
      <trkpt lat="47.11476" lon="-2.10436">
        <ele>5.1</ele>
        <time>2020-06-05T11:03:07Z</time>
      </trkpt>
      <trkpt lat="47.11474" lon="-2.10441">
        <ele>5.2</ele>
        <time>2020-06-05T11:03:08Z</time>
      </trkpt>
      <trkpt lat="47.11473" lon="-2.10447">
        <ele>5.8</ele>
        <time>2020-06-05T11:03:09Z</time>
      </trkpt>
      <trkpt lat="47.11473" lon="-2.10453">
        <ele>6.1</ele>
        <time>2020-06-05T11:03:10Z</time>
      </trkpt>
      <trkpt lat="47.11472" lon="-2.10459">
        <ele>6.4</ele>
        <time>2020-06-05T11:03:11Z</time>
      </trkpt>
      <trkpt lat="47.11472" lon="-2.10466">
        <ele>6.8</ele>
        <time>2020-06-05T11:03:12Z</time>
      </trkpt>
      <trkpt lat="47.11472" lon="-2.10472">
        <ele>7.1</ele>
        <time>2020-06-05T11:03:13Z</time>
      </trkpt>
      <trkpt lat="47.11472" lon="-2.10479">
        <ele>7.4</ele>
        <time>2020-06-05T11:03:14Z</time>
      </trkpt>
      <trkpt lat="47.11472" lon="-2.10486">
        <ele>7.7</ele>
        <time>2020-06-05T11:03:15Z</time>
      </trkpt>
      <trkpt lat="47.11473" lon="-2.10491">
        <ele>8</ele>
        <time>2020-06-05T11:03:16Z</time>
      </trkpt>
      <trkpt lat="47.11473" lon="-2.10496">
        <ele>8.2</ele>
        <time>2020-06-05T11:03:17Z</time>
      </trkpt>
      <trkpt lat="47.11472" lon="-2.10501">
        <ele>8.5</ele>
        <time>2020-06-05T11:03:18Z</time>
      </trkpt>
      <trkpt lat="47.11471" lon="-2.10505">
        <ele>8.6</ele>
        <time>2020-06-05T11:03:19Z</time>
      </trkpt>
      <trkpt lat="47.1147" lon="-2.1051">
        <ele>8.9</ele>
        <time>2020-06-05T11:03:20Z</time>
      </trkpt>
      <trkpt lat="47.1147" lon="-2.10516">
        <ele>9.1</ele>
        <time>2020-06-05T11:03:21Z</time>
      </trkpt>
      <trkpt lat="47.11469" lon="-2.10523">
        <ele>9.4</ele>
        <time>2020-06-05T11:03:22Z</time>
      </trkpt>
      <trkpt lat="47.11468" lon="-2.10528">
        <ele>9.7</ele>
        <time>2020-06-05T11:03:23Z</time>
      </trkpt>
      <trkpt lat="47.11468" lon="-2.10533">
        <ele>9.8</ele>
        <time>2020-06-05T11:03:24Z</time>
      </trkpt>
      <trkpt lat="47.11467" lon="-2.10538">
        <ele>9.9</ele>
        <time>2020-06-05T11:03:25Z</time>
      </trkpt>
      <trkpt lat="47.11466" lon="-2.10543">
        <ele>10.1</ele>
        <time>2020-06-05T11:03:26Z</time>
      </trkpt>
      <trkpt lat="47.11465" lon="-2.10548">
        <ele>10.2</ele>
        <time>2020-06-05T11:03:27Z</time>
      </trkpt>
      <trkpt lat="47.11464" lon="-2.10554">
        <ele>10.3</ele>
        <time>2020-06-05T11:03:28Z</time>
      </trkpt>
      <trkpt lat="47.11462" lon="-2.10559">
        <ele>10.4</ele>
        <time>2020-06-05T11:03:29Z</time>
      </trkpt>
      <trkpt lat="47.11461" lon="-2.10564">
        <ele>10.5</ele>
        <time>2020-06-05T11:03:30Z</time>
      </trkpt>
      <trkpt lat="47.1146" lon="-2.10569">
        <ele>10.6</ele>
        <time>2020-06-05T11:03:31Z</time>
      </trkpt>
      <trkpt lat="47.11459" lon="-2.10574">
        <ele>10.6</ele>
        <time>2020-06-05T11:03:32Z</time>
      </trkpt>
      <trkpt lat="47.11459" lon="-2.10578">
        <ele>10.7</ele>
        <time>2020-06-05T11:03:33Z</time>
      </trkpt>
      <trkpt lat="47.11459" lon="-2.10582">
        <ele>10.7</ele>
        <time>2020-06-05T11:03:34Z</time>
      </trkpt>
      <trkpt lat="47.11459" lon="-2.10587">
        <ele>10.8</ele>
        <time>2020-06-05T11:03:35Z</time>
      </trkpt>
      <trkpt lat="47.11458" lon="-2.10589">
        <ele>10.7</ele>
        <time>2020-06-05T11:03:36Z</time>
      </trkpt>
      <trkpt lat="47.11458" lon="-2.10594">
        <ele>10.7</ele>
        <time>2020-06-05T11:03:37Z</time>
      </trkpt>
      <trkpt lat="47.11456" lon="-2.10598">
        <ele>10.6</ele>
        <time>2020-06-05T11:03:38Z</time>
      </trkpt>
      <trkpt lat="47.11454" lon="-2.10603">
        <ele>10.5</ele>
        <time>2020-06-05T11:03:39Z</time>
      </trkpt>
      <trkpt lat="47.11453" lon="-2.10605">
        <ele>10.5</ele>
        <time>2020-06-05T11:03:40Z</time>
      </trkpt>
      <trkpt lat="47.11452" lon="-2.10609">
        <ele>10.5</ele>
        <time>2020-06-05T11:03:41Z</time>
      </trkpt>
      <trkpt lat="47.1145" lon="-2.10612">
        <ele>10.4</ele>
        <time>2020-06-05T11:03:42Z</time>
      </trkpt>
      <trkpt lat="47.11449" lon="-2.10615">
        <ele>10.4</ele>
        <time>2020-06-05T11:03:43Z</time>
      </trkpt>
      <trkpt lat="47.11446" lon="-2.10619">
        <ele>10.1</ele>
        <time>2020-06-05T11:03:44Z</time>
      </trkpt>
      <trkpt lat="47.11443" lon="-2.10622">
        <ele>10</ele>
        <time>2020-06-05T11:03:45Z</time>
      </trkpt>
      <trkpt lat="47.1144" lon="-2.10624">
        <ele>9.8</ele>
        <time>2020-06-05T11:03:46Z</time>
      </trkpt>
      <trkpt lat="47.11438" lon="-2.10627">
        <ele>9.5</ele>
        <time>2020-06-05T11:03:47Z</time>
      </trkpt>
      <trkpt lat="47.11435" lon="-2.10631">
        <ele>9.3</ele>
        <time>2020-06-05T11:03:48Z</time>
      </trkpt>
      <trkpt lat="47.11434" lon="-2.10632">
        <ele>9.2</ele>
        <time>2020-06-05T11:03:49Z</time>
      </trkpt>
      <trkpt lat="47.11431" lon="-2.10635">
        <ele>9</ele>
        <time>2020-06-05T11:03:50Z</time>
      </trkpt>
      <trkpt lat="47.11429" lon="-2.10637">
        <ele>8.9</ele>
        <time>2020-06-05T11:03:51Z</time>
      </trkpt>
      <trkpt lat="47.11426" lon="-2.1064">
        <ele>8.7</ele>
        <time>2020-06-05T11:03:52Z</time>
      </trkpt>
      <trkpt lat="47.11425" lon="-2.10641">
        <ele>8.6</ele>
        <time>2020-06-05T11:03:53Z</time>
      </trkpt>
      <trkpt lat="47.11422" lon="-2.10643">
        <ele>8.5</ele>
        <time>2020-06-05T11:03:54Z</time>
      </trkpt>
      <trkpt lat="47.11421" lon="-2.10644">
        <ele>8.4</ele>
        <time>2020-06-05T11:03:55Z</time>
      </trkpt>
      <trkpt lat="47.11418" lon="-2.10647">
        <ele>8.2</ele>
        <time>2020-06-05T11:03:56Z</time>
      </trkpt>
      <trkpt lat="47.11416" lon="-2.10648">
        <ele>8.1</ele>
        <time>2020-06-05T11:03:57Z</time>
      </trkpt>
      <trkpt lat="47.11413" lon="-2.1065">
        <ele>8</ele>
        <time>2020-06-05T11:03:58Z</time>
      </trkpt>
      <trkpt lat="47.1141" lon="-2.10652">
        <ele>7.9</ele>
        <time>2020-06-05T11:03:59Z</time>
      </trkpt>
      <trkpt lat="47.11407" lon="-2.10655">
        <ele>7.8</ele>
        <time>2020-06-05T11:04:00Z</time>
      </trkpt>
      <trkpt lat="47.11403" lon="-2.10657">
        <ele>7.7</ele>
        <time>2020-06-05T11:04:01Z</time>
      </trkpt>
      <trkpt lat="47.11399" lon="-2.10661">
        <ele>7.7</ele>
        <time>2020-06-05T11:04:02Z</time>
      </trkpt>
      <trkpt lat="47.11396" lon="-2.10664">
        <ele>7.7</ele>
        <time>2020-06-05T11:04:03Z</time>
      </trkpt>
      <trkpt lat="47.11392" lon="-2.10668">
        <ele>7.7</ele>
        <time>2020-06-05T11:04:04Z</time>
      </trkpt>
      <trkpt lat="47.1139" lon="-2.10672">
        <ele>7.7</ele>
        <time>2020-06-05T11:04:05Z</time>
      </trkpt>
      <trkpt lat="47.11389" lon="-2.10676">
        <ele>7.7</ele>
        <time>2020-06-05T11:04:06Z</time>
      </trkpt>
      <trkpt lat="47.11389" lon="-2.10681">
        <ele>7.7</ele>
        <time>2020-06-05T11:04:07Z</time>
      </trkpt>
      <trkpt lat="47.11389" lon="-2.10682">
        <ele>7.7</ele>
        <time>2020-06-05T11:04:08Z</time>
      </trkpt>
      <trkpt lat="47.11389" lon="-2.10684">
        <ele>7.8</ele>
        <time>2020-06-05T11:04:09Z</time>
      </trkpt>
      <trkpt lat="47.1139" lon="-2.10685">
        <ele>7.9</ele>
        <time>2020-06-05T11:04:10Z</time>
      </trkpt>
      <trkpt lat="47.1139" lon="-2.10687">
        <ele>7.9</ele>
        <time>2020-06-05T11:04:11Z</time>
      </trkpt>
      <trkpt lat="47.1139" lon="-2.10688">
        <ele>8</ele>
        <time>2020-06-05T11:04:12Z</time>
      </trkpt>
      <trkpt lat="47.11389" lon="-2.10687">
        <ele>8</ele>
        <time>2020-06-05T11:04:13Z</time>
      </trkpt>
      <trkpt lat="47.1139" lon="-2.10688">
        <ele>8</ele>
        <time>2020-06-05T11:04:14Z</time>
      </trkpt>
      <trkpt lat="47.1139" lon="-2.10688">
        <ele>8</ele>
        <time>2020-06-05T11:04:15Z</time>
      </trkpt>
      <trkpt lat="47.1139" lon="-2.10688">
        <ele>8</ele>
        <time>2020-06-05T11:04:16Z</time>
      </trkpt>
      <trkpt lat="47.1139" lon="-2.10688">
        <ele>8</ele>
        <time>2020-06-05T11:04:17Z</time>
      </trkpt>
      <trkpt lat="47.1139" lon="-2.10688">
        <ele>8</ele>
        <time>2020-06-05T11:04:18Z</time>
      </trkpt>
      <trkpt lat="47.1139" lon="-2.10688">
        <ele>8</ele>
        <time>2020-06-05T11:04:19Z</time>
      </trkpt>
      <trkpt lat="47.1139" lon="-2.10688">
        <ele>8</ele>
        <time>2020-06-05T11:04:20Z</time>
      </trkpt>
      <trkpt lat="47.11391" lon="-2.10688">
        <ele>8</ele>
        <time>2020-06-05T11:04:21Z</time>
      </trkpt>
      <trkpt lat="47.11391" lon="-2.10687">
        <ele>8.1</ele>
        <time>2020-06-05T11:04:22Z</time>
      </trkpt>
      <trkpt lat="47.11392" lon="-2.10691">
        <ele>8.1</ele>
        <time>2020-06-05T11:04:33Z</time>
      </trkpt>
      <trkpt lat="47.11394" lon="-2.10694">
        <ele>8.2</ele>
        <time>2020-06-05T11:04:34Z</time>
      </trkpt>
      <trkpt lat="47.11397" lon="-2.10697">
        <ele>8.4</ele>
        <time>2020-06-05T11:04:35Z</time>
      </trkpt>
      <trkpt lat="47.11399" lon="-2.10698">
        <ele>8.4</ele>
        <time>2020-06-05T11:04:36Z</time>
      </trkpt>
      <trkpt lat="47.11402" lon="-2.10699">
        <ele>8.6</ele>
        <time>2020-06-05T11:04:37Z</time>
      </trkpt>
      <trkpt lat="47.11405" lon="-2.10702">
        <ele>8.7</ele>
        <time>2020-06-05T11:04:38Z</time>
      </trkpt>
      <trkpt lat="47.11408" lon="-2.10704">
        <ele>8.9</ele>
        <time>2020-06-05T11:04:39Z</time>
      </trkpt>
      <trkpt lat="47.11412" lon="-2.10707">
        <ele>9.2</ele>
        <time>2020-06-05T11:04:40Z</time>
      </trkpt>
      <trkpt lat="47.11415" lon="-2.1071">
        <ele>9.5</ele>
        <time>2020-06-05T11:04:41Z</time>
      </trkpt>
      <trkpt lat="47.11419" lon="-2.10714">
        <ele>9.8</ele>
        <time>2020-06-05T11:04:42Z</time>
      </trkpt>
      <trkpt lat="47.11423" lon="-2.10716">
        <ele>10.2</ele>
        <time>2020-06-05T11:04:43Z</time>
      </trkpt>
      <trkpt lat="47.11427" lon="-2.10718">
        <ele>10.6</ele>
        <time>2020-06-05T11:04:44Z</time>
      </trkpt>
      <trkpt lat="47.1143" lon="-2.10721">
        <ele>10.9</ele>
        <time>2020-06-05T11:04:45Z</time>
      </trkpt>
      <trkpt lat="47.11433" lon="-2.10723">
        <ele>11.3</ele>
        <time>2020-06-05T11:04:46Z</time>
      </trkpt>
      <trkpt lat="47.11437" lon="-2.10726">
        <ele>11.8</ele>
        <time>2020-06-05T11:04:47Z</time>
      </trkpt>
      <trkpt lat="47.1144" lon="-2.10729">
        <ele>12.2</ele>
        <time>2020-06-05T11:04:48Z</time>
      </trkpt>
      <trkpt lat="47.11443" lon="-2.10732">
        <ele>12.6</ele>
        <time>2020-06-05T11:04:49Z</time>
      </trkpt>
      <trkpt lat="47.11446" lon="-2.10735">
        <ele>13</ele>
        <time>2020-06-05T11:04:50Z</time>
      </trkpt>
      <trkpt lat="47.11449" lon="-2.10738">
        <ele>13.4</ele>
        <time>2020-06-05T11:04:51Z</time>
      </trkpt>
      <trkpt lat="47.11451" lon="-2.10741">
        <ele>13.8</ele>
        <time>2020-06-05T11:04:52Z</time>
      </trkpt>
      <trkpt lat="47.11453" lon="-2.10745">
        <ele>14.1</ele>
        <time>2020-06-05T11:04:53Z</time>
      </trkpt>
      <trkpt lat="47.11455" lon="-2.10749">
        <ele>14.5</ele>
        <time>2020-06-05T11:04:54Z</time>
      </trkpt>
      <trkpt lat="47.11457" lon="-2.10752">
        <ele>14.9</ele>
        <time>2020-06-05T11:04:55Z</time>
      </trkpt>
      <trkpt lat="47.11459" lon="-2.10757">
        <ele>15.3</ele>
        <time>2020-06-05T11:04:56Z</time>
      </trkpt>
      <trkpt lat="47.11462" lon="-2.10761">
        <ele>15.7</ele>
        <time>2020-06-05T11:04:57Z</time>
      </trkpt>
      <trkpt lat="47.11463" lon="-2.10765">
        <ele>16</ele>
        <time>2020-06-05T11:04:58Z</time>
      </trkpt>
      <trkpt lat="47.11465" lon="-2.1077">
        <ele>16.4</ele>
        <time>2020-06-05T11:04:59Z</time>
      </trkpt>
      <trkpt lat="47.11466" lon="-2.10775">
        <ele>16.8</ele>
        <time>2020-06-05T11:05:00Z</time>
      </trkpt>
      <trkpt lat="47.11467" lon="-2.10779">
        <ele>17.1</ele>
        <time>2020-06-05T11:05:01Z</time>
      </trkpt>
      <trkpt lat="47.11468" lon="-2.10784">
        <ele>17.4</ele>
        <time>2020-06-05T11:05:02Z</time>
      </trkpt>
      <trkpt lat="47.11469" lon="-2.10788">
        <ele>17.7</ele>
        <time>2020-06-05T11:05:03Z</time>
      </trkpt>
      <trkpt lat="47.1147" lon="-2.10793">
        <ele>18</ele>
        <time>2020-06-05T11:05:04Z</time>
      </trkpt>
      <trkpt lat="47.1147" lon="-2.10798">
        <ele>18.3</ele>
        <time>2020-06-05T11:05:05Z</time>
      </trkpt>
      <trkpt lat="47.11471" lon="-2.10802">
        <ele>18.6</ele>
        <time>2020-06-05T11:05:06Z</time>
      </trkpt>
      <trkpt lat="47.11471" lon="-2.10806">
        <ele>18.9</ele>
        <time>2020-06-05T11:05:07Z</time>
      </trkpt>
      <trkpt lat="47.11471" lon="-2.1081">
        <ele>19.2</ele>
        <time>2020-06-05T11:05:08Z</time>
      </trkpt>
      <trkpt lat="47.11471" lon="-2.10815">
        <ele>19.6</ele>
        <time>2020-06-05T11:05:09Z</time>
      </trkpt>
      <trkpt lat="47.1147" lon="-2.10816">
        <ele>19.6</ele>
        <time>2020-06-05T11:05:10Z</time>
      </trkpt>
      <trkpt lat="47.11469" lon="-2.10821">
        <ele>19.8</ele>
        <time>2020-06-05T11:05:11Z</time>
      </trkpt>
      <trkpt lat="47.11469" lon="-2.10823">
        <ele>19.8</ele>
        <time>2020-06-05T11:05:12Z</time>
      </trkpt>
      <trkpt lat="47.11469" lon="-2.10829">
        <ele>20</ele>
        <time>2020-06-05T11:05:13Z</time>
      </trkpt>
      <trkpt lat="47.11469" lon="-2.1083">
        <ele>20.1</ele>
        <time>2020-06-05T11:05:14Z</time>
      </trkpt>
      <trkpt lat="47.11468" lon="-2.10834">
        <ele>20.2</ele>
        <time>2020-06-05T11:05:15Z</time>
      </trkpt>
      <trkpt lat="47.11467" lon="-2.1084">
        <ele>20.5</ele>
        <time>2020-06-05T11:05:16Z</time>
      </trkpt>
      <trkpt lat="47.11467" lon="-2.10841">
        <ele>20.6</ele>
        <time>2020-06-05T11:05:17Z</time>
      </trkpt>
      <trkpt lat="47.11466" lon="-2.10846">
        <ele>20.8</ele>
        <time>2020-06-05T11:05:18Z</time>
      </trkpt>
      <trkpt lat="47.11464" lon="-2.1085">
        <ele>21.1</ele>
        <time>2020-06-05T11:05:19Z</time>
      </trkpt>
      <trkpt lat="47.11463" lon="-2.10855">
        <ele>21.4</ele>
        <time>2020-06-05T11:05:20Z</time>
      </trkpt>
      <trkpt lat="47.11463" lon="-2.10857">
        <ele>21.5</ele>
        <time>2020-06-05T11:05:21Z</time>
      </trkpt>
      <trkpt lat="47.11461" lon="-2.10861">
        <ele>21.8</ele>
        <time>2020-06-05T11:05:22Z</time>
      </trkpt>
      <trkpt lat="47.11462" lon="-2.10865">
        <ele>22</ele>
        <time>2020-06-05T11:05:23Z</time>
      </trkpt>
      <trkpt lat="47.11459" lon="-2.10868">
        <ele>22.3</ele>
        <time>2020-06-05T11:05:24Z</time>
      </trkpt>
      <trkpt lat="47.11458" lon="-2.10869">
        <ele>22.4</ele>
        <time>2020-06-05T11:05:25Z</time>
      </trkpt>
      <trkpt lat="47.11457" lon="-2.10873">
        <ele>22.6</ele>
        <time>2020-06-05T11:05:26Z</time>
      </trkpt>
      <trkpt lat="47.11455" lon="-2.10877">
        <ele>22.8</ele>
        <time>2020-06-05T11:05:27Z</time>
      </trkpt>
      <trkpt lat="47.11454" lon="-2.10881">
        <ele>23</ele>
        <time>2020-06-05T11:05:28Z</time>
      </trkpt>
      <trkpt lat="47.11453" lon="-2.10885">
        <ele>23.2</ele>
        <time>2020-06-05T11:05:29Z</time>
      </trkpt>
      <trkpt lat="47.11453" lon="-2.10889">
        <ele>23.4</ele>
        <time>2020-06-05T11:05:30Z</time>
      </trkpt>
      <trkpt lat="47.11453" lon="-2.10893">
        <ele>23.6</ele>
        <time>2020-06-05T11:05:31Z</time>
      </trkpt>
      <trkpt lat="47.11453" lon="-2.10899">
        <ele>23.8</ele>
        <time>2020-06-05T11:05:32Z</time>
      </trkpt>
      <trkpt lat="47.11452" lon="-2.10901">
        <ele>23.9</ele>
        <time>2020-06-05T11:05:33Z</time>
      </trkpt>
      <trkpt lat="47.11452" lon="-2.10905">
        <ele>24.1</ele>
        <time>2020-06-05T11:05:34Z</time>
      </trkpt>
      <trkpt lat="47.11451" lon="-2.10909">
        <ele>24.3</ele>
        <time>2020-06-05T11:05:35Z</time>
      </trkpt>
      <trkpt lat="47.1145" lon="-2.10913">
        <ele>24.4</ele>
        <time>2020-06-05T11:05:36Z</time>
      </trkpt>
      <trkpt lat="47.11449" lon="-2.10918">
        <ele>24.6</ele>
        <time>2020-06-05T11:05:37Z</time>
      </trkpt>
      <trkpt lat="47.11449" lon="-2.10922">
        <ele>24.7</ele>
        <time>2020-06-05T11:05:38Z</time>
      </trkpt>
      <trkpt lat="47.11448" lon="-2.10927">
        <ele>24.8</ele>
        <time>2020-06-05T11:05:39Z</time>
      </trkpt>
      <trkpt lat="47.11448" lon="-2.10931">
        <ele>24.9</ele>
        <time>2020-06-05T11:05:40Z</time>
      </trkpt>
      <trkpt lat="47.11447" lon="-2.10935">
        <ele>25</ele>
        <time>2020-06-05T11:05:41Z</time>
      </trkpt>
      <trkpt lat="47.11447" lon="-2.10939">
        <ele>25.2</ele>
        <time>2020-06-05T11:05:42Z</time>
      </trkpt>
      <trkpt lat="47.11447" lon="-2.10944">
        <ele>25.3</ele>
        <time>2020-06-05T11:05:43Z</time>
      </trkpt>
      <trkpt lat="47.11447" lon="-2.10948">
        <ele>25.4</ele>
        <time>2020-06-05T11:05:44Z</time>
      </trkpt>
      <trkpt lat="47.11447" lon="-2.10952">
        <ele>25.5</ele>
        <time>2020-06-05T11:05:45Z</time>
      </trkpt>
      <trkpt lat="47.11447" lon="-2.10957">
        <ele>25.7</ele>
        <time>2020-06-05T11:05:46Z</time>
      </trkpt>
      <trkpt lat="47.11446" lon="-2.10961">
        <ele>25.8</ele>
        <time>2020-06-05T11:05:47Z</time>
      </trkpt>
      <trkpt lat="47.11446" lon="-2.10966">
        <ele>25.9</ele>
        <time>2020-06-05T11:05:48Z</time>
      </trkpt>
      <trkpt lat="47.11446" lon="-2.10971">
        <ele>26.1</ele>
        <time>2020-06-05T11:05:49Z</time>
      </trkpt>
      <trkpt lat="47.11447" lon="-2.10975">
        <ele>26.2</ele>
        <time>2020-06-05T11:05:50Z</time>
      </trkpt>
      <trkpt lat="47.11448" lon="-2.1098">
        <ele>26.3</ele>
        <time>2020-06-05T11:05:51Z</time>
      </trkpt>
      <trkpt lat="47.11448" lon="-2.10984">
        <ele>26.4</ele>
        <time>2020-06-05T11:05:52Z</time>
      </trkpt>
      <trkpt lat="47.11449" lon="-2.1099">
        <ele>26.6</ele>
        <time>2020-06-05T11:05:53Z</time>
      </trkpt>
      <trkpt lat="47.11449" lon="-2.10995">
        <ele>26.7</ele>
        <time>2020-06-05T11:05:54Z</time>
      </trkpt>
      <trkpt lat="47.11449" lon="-2.10999">
        <ele>26.8</ele>
        <time>2020-06-05T11:05:55Z</time>
      </trkpt>
      <trkpt lat="47.11449" lon="-2.11003">
        <ele>27</ele>
        <time>2020-06-05T11:05:56Z</time>
      </trkpt>
      <trkpt lat="47.11449" lon="-2.11008">
        <ele>27.1</ele>
        <time>2020-06-05T11:05:57Z</time>
      </trkpt>
      <trkpt lat="47.11449" lon="-2.11012">
        <ele>27.2</ele>
        <time>2020-06-05T11:05:58Z</time>
      </trkpt>
      <trkpt lat="47.11449" lon="-2.11018">
        <ele>27.3</ele>
        <time>2020-06-05T11:05:59Z</time>
      </trkpt>
      <trkpt lat="47.1145" lon="-2.1102">
        <ele>27.4</ele>
        <time>2020-06-05T11:06:00Z</time>
      </trkpt>
      <trkpt lat="47.1145" lon="-2.11024">
        <ele>27.5</ele>
        <time>2020-06-05T11:06:01Z</time>
      </trkpt>
      <trkpt lat="47.11449" lon="-2.11028">
        <ele>27.6</ele>
        <time>2020-06-05T11:06:02Z</time>
      </trkpt>
      <trkpt lat="47.11449" lon="-2.11034">
        <ele>27.7</ele>
        <time>2020-06-05T11:06:03Z</time>
      </trkpt>
      <trkpt lat="47.11448" lon="-2.11038">
        <ele>27.8</ele>
        <time>2020-06-05T11:06:04Z</time>
      </trkpt>
      <trkpt lat="47.11448" lon="-2.11042">
        <ele>27.9</ele>
        <time>2020-06-05T11:06:05Z</time>
      </trkpt>
      <trkpt lat="47.11449" lon="-2.11046">
        <ele>28</ele>
        <time>2020-06-05T11:06:06Z</time>
      </trkpt>
      <trkpt lat="47.11449" lon="-2.11051">
        <ele>28.1</ele>
        <time>2020-06-05T11:06:07Z</time>
      </trkpt>
      <trkpt lat="47.11449" lon="-2.11056">
        <ele>28.2</ele>
        <time>2020-06-05T11:06:08Z</time>
      </trkpt>
      <trkpt lat="47.11449" lon="-2.11061">
        <ele>28.3</ele>
        <time>2020-06-05T11:06:09Z</time>
      </trkpt>
      <trkpt lat="47.11449" lon="-2.11067">
        <ele>28.4</ele>
        <time>2020-06-05T11:06:10Z</time>
      </trkpt>
      <trkpt lat="47.11449" lon="-2.11072">
        <ele>28.4</ele>
        <time>2020-06-05T11:06:11Z</time>
      </trkpt>
      <trkpt lat="47.11448" lon="-2.11078">
        <ele>28.6</ele>
        <time>2020-06-05T11:06:12Z</time>
      </trkpt>
      <trkpt lat="47.11449" lon="-2.11085">
        <ele>28.7</ele>
        <time>2020-06-05T11:06:13Z</time>
      </trkpt>
      <trkpt lat="47.11449" lon="-2.11089">
        <ele>28.8</ele>
        <time>2020-06-05T11:06:14Z</time>
      </trkpt>
      <trkpt lat="47.1145" lon="-2.11095">
        <ele>28.9</ele>
        <time>2020-06-05T11:06:15Z</time>
      </trkpt>
      <trkpt lat="47.11449" lon="-2.11101">
        <ele>29</ele>
        <time>2020-06-05T11:06:16Z</time>
      </trkpt>
      <trkpt lat="47.11449" lon="-2.11106">
        <ele>29.1</ele>
        <time>2020-06-05T11:06:17Z</time>
      </trkpt>
      <trkpt lat="47.11449" lon="-2.1111">
        <ele>29.2</ele>
        <time>2020-06-05T11:06:18Z</time>
      </trkpt>
      <trkpt lat="47.11449" lon="-2.11115">
        <ele>29.2</ele>
        <time>2020-06-05T11:06:19Z</time>
      </trkpt>
      <trkpt lat="47.11449" lon="-2.1112">
        <ele>29.3</ele>
        <time>2020-06-05T11:06:20Z</time>
      </trkpt>
      <trkpt lat="47.11448" lon="-2.11125">
        <ele>29.4</ele>
        <time>2020-06-05T11:06:21Z</time>
      </trkpt>
      <trkpt lat="47.11448" lon="-2.1113">
        <ele>29.4</ele>
        <time>2020-06-05T11:06:22Z</time>
      </trkpt>
      <trkpt lat="47.11448" lon="-2.11136">
        <ele>29.5</ele>
        <time>2020-06-05T11:06:23Z</time>
      </trkpt>
      <trkpt lat="47.11447" lon="-2.11141">
        <ele>29.6</ele>
        <time>2020-06-05T11:06:24Z</time>
      </trkpt>
      <trkpt lat="47.11447" lon="-2.11148">
        <ele>29.6</ele>
        <time>2020-06-05T11:06:25Z</time>
      </trkpt>
      <trkpt lat="47.11447" lon="-2.11154">
        <ele>29.7</ele>
        <time>2020-06-05T11:06:26Z</time>
      </trkpt>
      <trkpt lat="47.11447" lon="-2.11161">
        <ele>29.7</ele>
        <time>2020-06-05T11:06:27Z</time>
      </trkpt>
      <trkpt lat="47.11447" lon="-2.11168">
        <ele>29.7</ele>
        <time>2020-06-05T11:06:28Z</time>
      </trkpt>
      <trkpt lat="47.11446" lon="-2.11176">
        <ele>29.7</ele>
        <time>2020-06-05T11:06:29Z</time>
      </trkpt>
      <trkpt lat="47.11446" lon="-2.11181">
        <ele>29.8</ele>
        <time>2020-06-05T11:06:30Z</time>
      </trkpt>
      <trkpt lat="47.11446" lon="-2.11188">
        <ele>29.8</ele>
        <time>2020-06-05T11:06:31Z</time>
      </trkpt>
      <trkpt lat="47.11447" lon="-2.11195">
        <ele>29.9</ele>
        <time>2020-06-05T11:06:32Z</time>
      </trkpt>
      <trkpt lat="47.11447" lon="-2.11201">
        <ele>29.9</ele>
        <time>2020-06-05T11:06:33Z</time>
      </trkpt>
      <trkpt lat="47.11447" lon="-2.11207">
        <ele>30</ele>
        <time>2020-06-05T11:06:34Z</time>
      </trkpt>
      <trkpt lat="47.11447" lon="-2.11213">
        <ele>30.1</ele>
        <time>2020-06-05T11:06:35Z</time>
      </trkpt>
      <trkpt lat="47.11447" lon="-2.11219">
        <ele>30.2</ele>
        <time>2020-06-05T11:06:36Z</time>
      </trkpt>
      <trkpt lat="47.11448" lon="-2.11225">
        <ele>30.2</ele>
        <time>2020-06-05T11:06:37Z</time>
      </trkpt>
      <trkpt lat="47.11449" lon="-2.11232">
        <ele>30.3</ele>
        <time>2020-06-05T11:06:38Z</time>
      </trkpt>
      <trkpt lat="47.11449" lon="-2.11239">
        <ele>30.3</ele>
        <time>2020-06-05T11:06:39Z</time>
      </trkpt>
      <trkpt lat="47.11449" lon="-2.11246">
        <ele>30.4</ele>
        <time>2020-06-05T11:06:40Z</time>
      </trkpt>
      <trkpt lat="47.11449" lon="-2.11253">
        <ele>30.4</ele>
        <time>2020-06-05T11:06:41Z</time>
      </trkpt>
      <trkpt lat="47.1145" lon="-2.11259">
        <ele>30.4</ele>
        <time>2020-06-05T11:06:42Z</time>
      </trkpt>
      <trkpt lat="47.1145" lon="-2.11264">
        <ele>30.5</ele>
        <time>2020-06-05T11:06:43Z</time>
      </trkpt>
      <trkpt lat="47.1145" lon="-2.1127">
        <ele>30.5</ele>
        <time>2020-06-05T11:06:44Z</time>
      </trkpt>
      <trkpt lat="47.1145" lon="-2.11275">
        <ele>30.5</ele>
        <time>2020-06-05T11:06:45Z</time>
      </trkpt>
      <trkpt lat="47.1145" lon="-2.1128">
        <ele>30.5</ele>
        <time>2020-06-05T11:06:46Z</time>
      </trkpt>
      <trkpt lat="47.11451" lon="-2.11286">
        <ele>30.5</ele>
        <time>2020-06-05T11:06:47Z</time>
      </trkpt>
      <trkpt lat="47.11452" lon="-2.11292">
        <ele>30.6</ele>
        <time>2020-06-05T11:06:48Z</time>
      </trkpt>
      <trkpt lat="47.11453" lon="-2.11298">
        <ele>30.6</ele>
        <time>2020-06-05T11:06:49Z</time>
      </trkpt>
      <trkpt lat="47.11455" lon="-2.11302">
        <ele>30.6</ele>
        <time>2020-06-05T11:06:50Z</time>
      </trkpt>
      <trkpt lat="47.11456" lon="-2.11309">
        <ele>30.5</ele>
        <time>2020-06-05T11:06:51Z</time>
      </trkpt>
      <trkpt lat="47.11457" lon="-2.11315">
        <ele>30.5</ele>
        <time>2020-06-05T11:06:52Z</time>
      </trkpt>
      <trkpt lat="47.11458" lon="-2.11319">
        <ele>30.6</ele>
        <time>2020-06-05T11:06:53Z</time>
      </trkpt>
      <trkpt lat="47.11458" lon="-2.11323">
        <ele>30.6</ele>
        <time>2020-06-05T11:06:54Z</time>
      </trkpt>
      <trkpt lat="47.1146" lon="-2.11328">
        <ele>30.6</ele>
        <time>2020-06-05T11:06:55Z</time>
      </trkpt>
      <trkpt lat="47.11462" lon="-2.11334">
        <ele>30.7</ele>
        <time>2020-06-05T11:06:56Z</time>
      </trkpt>
      <trkpt lat="47.11463" lon="-2.11341">
        <ele>30.7</ele>
        <time>2020-06-05T11:06:57Z</time>
      </trkpt>
      <trkpt lat="47.11463" lon="-2.11347">
        <ele>30.8</ele>
        <time>2020-06-05T11:06:58Z</time>
      </trkpt>
      <trkpt lat="47.11464" lon="-2.11353">
        <ele>30.9</ele>
        <time>2020-06-05T11:06:59Z</time>
      </trkpt>
      <trkpt lat="47.11464" lon="-2.1136">
        <ele>31</ele>
        <time>2020-06-05T11:07:00Z</time>
      </trkpt>
      <trkpt lat="47.11464" lon="-2.11367">
        <ele>31</ele>
        <time>2020-06-05T11:07:01Z</time>
      </trkpt>
      <trkpt lat="47.11464" lon="-2.11374">
        <ele>31.1</ele>
        <time>2020-06-05T11:07:02Z</time>
      </trkpt>
      <trkpt lat="47.11464" lon="-2.1138">
        <ele>31.2</ele>
        <time>2020-06-05T11:07:03Z</time>
      </trkpt>
      <trkpt lat="47.11464" lon="-2.11387">
        <ele>31.2</ele>
        <time>2020-06-05T11:07:04Z</time>
      </trkpt>
      <trkpt lat="47.11464" lon="-2.11393">
        <ele>31.3</ele>
        <time>2020-06-05T11:07:05Z</time>
      </trkpt>
      <trkpt lat="47.11463" lon="-2.114">
        <ele>31.3</ele>
        <time>2020-06-05T11:07:06Z</time>
      </trkpt>
      <trkpt lat="47.11463" lon="-2.11406">
        <ele>31.3</ele>
        <time>2020-06-05T11:07:07Z</time>
      </trkpt>
      <trkpt lat="47.11462" lon="-2.11414">
        <ele>31.4</ele>
        <time>2020-06-05T11:07:08Z</time>
      </trkpt>
      <trkpt lat="47.11462" lon="-2.1142">
        <ele>31.4</ele>
        <time>2020-06-05T11:07:09Z</time>
      </trkpt>
      <trkpt lat="47.11461" lon="-2.11427">
        <ele>31.4</ele>
        <time>2020-06-05T11:07:10Z</time>
      </trkpt>
      <trkpt lat="47.1146" lon="-2.11433">
        <ele>31.5</ele>
        <time>2020-06-05T11:07:11Z</time>
      </trkpt>
      <trkpt lat="47.11459" lon="-2.1144">
        <ele>31.5</ele>
        <time>2020-06-05T11:07:12Z</time>
      </trkpt>
      <trkpt lat="47.11458" lon="-2.11447">
        <ele>31.6</ele>
        <time>2020-06-05T11:07:13Z</time>
      </trkpt>
      <trkpt lat="47.11456" lon="-2.11454">
        <ele>31.6</ele>
        <time>2020-06-05T11:07:14Z</time>
      </trkpt>
      <trkpt lat="47.11455" lon="-2.11461">
        <ele>31.7</ele>
        <time>2020-06-05T11:07:15Z</time>
      </trkpt>
      <trkpt lat="47.11453" lon="-2.11467">
        <ele>31.8</ele>
        <time>2020-06-05T11:07:16Z</time>
      </trkpt>
      <trkpt lat="47.11453" lon="-2.11473">
        <ele>31.8</ele>
        <time>2020-06-05T11:07:17Z</time>
      </trkpt>
      <trkpt lat="47.11452" lon="-2.11479">
        <ele>31.9</ele>
        <time>2020-06-05T11:07:18Z</time>
      </trkpt>
      <trkpt lat="47.1145" lon="-2.11486">
        <ele>32</ele>
        <time>2020-06-05T11:07:19Z</time>
      </trkpt>
      <trkpt lat="47.11448" lon="-2.11492">
        <ele>32.1</ele>
        <time>2020-06-05T11:07:20Z</time>
      </trkpt>
      <trkpt lat="47.11447" lon="-2.11498">
        <ele>32.1</ele>
        <time>2020-06-05T11:07:21Z</time>
      </trkpt>
      <trkpt lat="47.11446" lon="-2.11503">
        <ele>32.2</ele>
        <time>2020-06-05T11:07:22Z</time>
      </trkpt>
      <trkpt lat="47.11444" lon="-2.11509">
        <ele>32.2</ele>
        <time>2020-06-05T11:07:23Z</time>
      </trkpt>
      <trkpt lat="47.11443" lon="-2.11514">
        <ele>32.2</ele>
        <time>2020-06-05T11:07:24Z</time>
      </trkpt>
      <trkpt lat="47.11442" lon="-2.1152">
        <ele>32.3</ele>
        <time>2020-06-05T11:07:25Z</time>
      </trkpt>
      <trkpt lat="47.11442" lon="-2.11522">
        <ele>32.4</ele>
        <time>2020-06-05T11:07:26Z</time>
      </trkpt>
      <trkpt lat="47.11441" lon="-2.11528">
        <ele>32.4</ele>
        <time>2020-06-05T11:07:27Z</time>
      </trkpt>
      <trkpt lat="47.11442" lon="-2.11532">
        <ele>32.5</ele>
        <time>2020-06-05T11:07:28Z</time>
      </trkpt>
      <trkpt lat="47.11444" lon="-2.11535">
        <ele>32.9</ele>
        <time>2020-06-05T11:07:29Z</time>
      </trkpt>
      <trkpt lat="47.11445" lon="-2.11537">
        <ele>33</ele>
        <time>2020-06-05T11:07:30Z</time>
      </trkpt>
      <trkpt lat="47.11446" lon="-2.11538">
        <ele>33.1</ele>
        <time>2020-06-05T11:07:31Z</time>
      </trkpt>
      <trkpt lat="47.11446" lon="-2.11539">
        <ele>33.1</ele>
        <time>2020-06-05T11:07:32Z</time>
      </trkpt>
      <trkpt lat="47.11446" lon="-2.11539">
        <ele>33.1</ele>
        <time>2020-06-05T11:07:33Z</time>
      </trkpt>
      <trkpt lat="47.11447" lon="-2.1154">
        <ele>33.1</ele>
        <time>2020-06-05T11:07:34Z</time>
      </trkpt>
      <trkpt lat="47.11447" lon="-2.11539">
        <ele>33.2</ele>
        <time>2020-06-05T11:07:35Z</time>
      </trkpt>
      <trkpt lat="47.11448" lon="-2.11538">
        <ele>33.2</ele>
        <time>2020-06-05T11:07:36Z</time>
      </trkpt>
      <trkpt lat="47.11448" lon="-2.11537">
        <ele>33.3</ele>
        <time>2020-06-05T11:07:37Z</time>
      </trkpt>
      <trkpt lat="47.11448" lon="-2.11538">
        <ele>33.3</ele>
        <time>2020-06-05T11:07:38Z</time>
      </trkpt>
      <trkpt lat="47.11449" lon="-2.11538">
        <ele>33.4</ele>
        <time>2020-06-05T11:07:39Z</time>
      </trkpt>
      <trkpt lat="47.1145" lon="-2.11539">
        <ele>33.4</ele>
        <time>2020-06-05T11:07:40Z</time>
      </trkpt>
      <trkpt lat="47.11451" lon="-2.11539">
        <ele>33.5</ele>
        <time>2020-06-05T11:07:41Z</time>
      </trkpt>
      <trkpt lat="47.11452" lon="-2.1154">
        <ele>33.6</ele>
        <time>2020-06-05T11:07:42Z</time>
      </trkpt>
      <trkpt lat="47.11453" lon="-2.1154">
        <ele>33.6</ele>
        <time>2020-06-05T11:08:16Z</time>
      </trkpt>
      <trkpt lat="47.11454" lon="-2.1154">
        <ele>33.7</ele>
        <time>2020-06-05T11:08:17Z</time>
      </trkpt>
      <trkpt lat="47.11455" lon="-2.11541">
        <ele>33.7</ele>
        <time>2020-06-05T11:08:18Z</time>
      </trkpt>
      <trkpt lat="47.11456" lon="-2.11541">
        <ele>33.8</ele>
        <time>2020-06-05T11:08:19Z</time>
      </trkpt>
      <trkpt lat="47.1146" lon="-2.11542">
        <ele>34</ele>
        <time>2020-06-05T11:08:20Z</time>
      </trkpt>
      <trkpt lat="47.11461" lon="-2.11543">
        <ele>34.1</ele>
        <time>2020-06-05T11:08:21Z</time>
      </trkpt>
      <trkpt lat="47.11465" lon="-2.11544">
        <ele>34.3</ele>
        <time>2020-06-05T11:08:22Z</time>
      </trkpt>
      <trkpt lat="47.11467" lon="-2.11545">
        <ele>34.4</ele>
        <time>2020-06-05T11:08:23Z</time>
      </trkpt>
      <trkpt lat="47.1147" lon="-2.11546">
        <ele>34.5</ele>
        <time>2020-06-05T11:08:24Z</time>
      </trkpt>
      <trkpt lat="47.11473" lon="-2.11546">
        <ele>34.7</ele>
        <time>2020-06-05T11:08:25Z</time>
      </trkpt>
      <trkpt lat="47.11477" lon="-2.11545">
        <ele>34.9</ele>
        <time>2020-06-05T11:08:26Z</time>
      </trkpt>
      <trkpt lat="47.1148" lon="-2.11544">
        <ele>35</ele>
        <time>2020-06-05T11:08:27Z</time>
      </trkpt>
      <trkpt lat="47.11484" lon="-2.11543">
        <ele>35.2</ele>
        <time>2020-06-05T11:08:28Z</time>
      </trkpt>
      <trkpt lat="47.11489" lon="-2.11543">
        <ele>35.5</ele>
        <time>2020-06-05T11:08:29Z</time>
      </trkpt>
      <trkpt lat="47.11493" lon="-2.11543">
        <ele>35.7</ele>
        <time>2020-06-05T11:08:30Z</time>
      </trkpt>
      <trkpt lat="47.11497" lon="-2.11543">
        <ele>35.9</ele>
        <time>2020-06-05T11:08:31Z</time>
      </trkpt>
      <trkpt lat="47.115" lon="-2.11543">
        <ele>36.1</ele>
        <time>2020-06-05T11:08:32Z</time>
      </trkpt>
      <trkpt lat="47.11505" lon="-2.11542">
        <ele>36.3</ele>
        <time>2020-06-05T11:08:33Z</time>
      </trkpt>
      <trkpt lat="47.11509" lon="-2.11541">
        <ele>36.5</ele>
        <time>2020-06-05T11:08:34Z</time>
      </trkpt>
      <trkpt lat="47.11513" lon="-2.11541">
        <ele>36.6</ele>
        <time>2020-06-05T11:08:35Z</time>
      </trkpt>
      <trkpt lat="47.11517" lon="-2.11541">
        <ele>36.8</ele>
        <time>2020-06-05T11:08:36Z</time>
      </trkpt>
      <trkpt lat="47.11521" lon="-2.11542">
        <ele>37.1</ele>
        <time>2020-06-05T11:08:37Z</time>
      </trkpt>
      <trkpt lat="47.11525" lon="-2.11542">
        <ele>37.1</ele>
        <time>2020-06-05T11:08:38Z</time>
      </trkpt>
      <trkpt lat="47.11529" lon="-2.11542">
        <ele>37.1</ele>
        <time>2020-06-05T11:08:39Z</time>
      </trkpt>
      <trkpt lat="47.11533" lon="-2.11542">
        <ele>37.1</ele>
        <time>2020-06-05T11:08:40Z</time>
      </trkpt>
      <trkpt lat="47.11537" lon="-2.11541">
        <ele>37.2</ele>
        <time>2020-06-05T11:08:41Z</time>
      </trkpt>
      <trkpt lat="47.11541" lon="-2.11541">
        <ele>37.2</ele>
        <time>2020-06-05T11:08:42Z</time>
      </trkpt>
      <trkpt lat="47.11546" lon="-2.11542">
        <ele>37.2</ele>
        <time>2020-06-05T11:08:43Z</time>
      </trkpt>
      <trkpt lat="47.1155" lon="-2.11543">
        <ele>37.3</ele>
        <time>2020-06-05T11:08:44Z</time>
      </trkpt>
      <trkpt lat="47.11555" lon="-2.11545">
        <ele>37.3</ele>
        <time>2020-06-05T11:08:45Z</time>
      </trkpt>
      <trkpt lat="47.1156" lon="-2.11544">
        <ele>37.4</ele>
        <time>2020-06-05T11:08:46Z</time>
      </trkpt>
      <trkpt lat="47.11564" lon="-2.11544">
        <ele>37.4</ele>
        <time>2020-06-05T11:08:47Z</time>
      </trkpt>
      <trkpt lat="47.11568" lon="-2.11546">
        <ele>37.4</ele>
        <time>2020-06-05T11:08:48Z</time>
      </trkpt>
      <trkpt lat="47.11573" lon="-2.11546">
        <ele>37.5</ele>
        <time>2020-06-05T11:08:49Z</time>
      </trkpt>
      <trkpt lat="47.11577" lon="-2.11546">
        <ele>37.5</ele>
        <time>2020-06-05T11:08:50Z</time>
      </trkpt>
      <trkpt lat="47.11582" lon="-2.11545">
        <ele>37.5</ele>
        <time>2020-06-05T11:08:51Z</time>
      </trkpt>
      <trkpt lat="47.11587" lon="-2.11545">
        <ele>37.5</ele>
        <time>2020-06-05T11:08:52Z</time>
      </trkpt>
      <trkpt lat="47.11592" lon="-2.11545">
        <ele>37.5</ele>
        <time>2020-06-05T11:08:53Z</time>
      </trkpt>
      <trkpt lat="47.11595" lon="-2.11546">
        <ele>37.5</ele>
        <time>2020-06-05T11:08:54Z</time>
      </trkpt>
      <trkpt lat="47.11599" lon="-2.11547">
        <ele>37.4</ele>
        <time>2020-06-05T11:08:55Z</time>
      </trkpt>
      <trkpt lat="47.11603" lon="-2.11549">
        <ele>37.4</ele>
        <time>2020-06-05T11:08:56Z</time>
      </trkpt>
      <trkpt lat="47.11607" lon="-2.11551">
        <ele>37.4</ele>
        <time>2020-06-05T11:08:57Z</time>
      </trkpt>
      <trkpt lat="47.11609" lon="-2.11555">
        <ele>37.4</ele>
        <time>2020-06-05T11:08:58Z</time>
      </trkpt>
      <trkpt lat="47.11612" lon="-2.11559">
        <ele>37.3</ele>
        <time>2020-06-05T11:08:59Z</time>
      </trkpt>
      <trkpt lat="47.11614" lon="-2.11563">
        <ele>37.3</ele>
        <time>2020-06-05T11:09:00Z</time>
      </trkpt>
      <trkpt lat="47.11616" lon="-2.11567">
        <ele>37.3</ele>
        <time>2020-06-05T11:09:01Z</time>
      </trkpt>
      <trkpt lat="47.11619" lon="-2.1157">
        <ele>37.2</ele>
        <time>2020-06-05T11:09:02Z</time>
      </trkpt>
      <trkpt lat="47.1162" lon="-2.11571">
        <ele>37.2</ele>
        <time>2020-06-05T11:09:03Z</time>
      </trkpt>
      <trkpt lat="47.11621" lon="-2.11575">
        <ele>37.2</ele>
        <time>2020-06-05T11:09:04Z</time>
      </trkpt>
      <trkpt lat="47.11623" lon="-2.11579">
        <ele>37.2</ele>
        <time>2020-06-05T11:09:05Z</time>
      </trkpt>
      <trkpt lat="47.11625" lon="-2.11584">
        <ele>37.1</ele>
        <time>2020-06-05T11:09:06Z</time>
      </trkpt>
      <trkpt lat="47.11627" lon="-2.11589">
        <ele>37.1</ele>
        <time>2020-06-05T11:09:07Z</time>
      </trkpt>
      <trkpt lat="47.1163" lon="-2.11593">
        <ele>37.1</ele>
        <time>2020-06-05T11:09:08Z</time>
      </trkpt>
      <trkpt lat="47.11633" lon="-2.11597">
        <ele>37.1</ele>
        <time>2020-06-05T11:09:09Z</time>
      </trkpt>
      <trkpt lat="47.11635" lon="-2.11599">
        <ele>37.1</ele>
        <time>2020-06-05T11:09:10Z</time>
      </trkpt>
      <trkpt lat="47.11639" lon="-2.11601">
        <ele>37.1</ele>
        <time>2020-06-05T11:09:11Z</time>
      </trkpt>
      <trkpt lat="47.11642" lon="-2.11604">
        <ele>37.1</ele>
        <time>2020-06-05T11:09:12Z</time>
      </trkpt>
      <trkpt lat="47.11645" lon="-2.11605">
        <ele>37.1</ele>
        <time>2020-06-05T11:09:13Z</time>
      </trkpt>
      <trkpt lat="47.11648" lon="-2.11608">
        <ele>37.1</ele>
        <time>2020-06-05T11:09:14Z</time>
      </trkpt>
      <trkpt lat="47.11652" lon="-2.1161">
        <ele>37</ele>
        <time>2020-06-05T11:09:15Z</time>
      </trkpt>
      <trkpt lat="47.11655" lon="-2.11611">
        <ele>36.9</ele>
        <time>2020-06-05T11:09:16Z</time>
      </trkpt>
      <trkpt lat="47.11658" lon="-2.11612">
        <ele>36.9</ele>
        <time>2020-06-05T11:09:17Z</time>
      </trkpt>
      <trkpt lat="47.1166" lon="-2.11614">
        <ele>36.9</ele>
        <time>2020-06-05T11:09:18Z</time>
      </trkpt>
      <trkpt lat="47.11663" lon="-2.11616">
        <ele>36.8</ele>
        <time>2020-06-05T11:09:19Z</time>
      </trkpt>
      <trkpt lat="47.11664" lon="-2.11617">
        <ele>36.8</ele>
        <time>2020-06-05T11:09:20Z</time>
      </trkpt>
      <trkpt lat="47.11668" lon="-2.1162">
        <ele>36.8</ele>
        <time>2020-06-05T11:09:21Z</time>
      </trkpt>
      <trkpt lat="47.11669" lon="-2.11621">
        <ele>36.8</ele>
        <time>2020-06-05T11:09:22Z</time>
      </trkpt>
      <trkpt lat="47.11672" lon="-2.11623">
        <ele>36.7</ele>
        <time>2020-06-05T11:09:23Z</time>
      </trkpt>
      <trkpt lat="47.11675" lon="-2.11625">
        <ele>36.7</ele>
        <time>2020-06-05T11:09:24Z</time>
      </trkpt>
      <trkpt lat="47.11678" lon="-2.11628">
        <ele>36.7</ele>
        <time>2020-06-05T11:09:25Z</time>
      </trkpt>
      <trkpt lat="47.11681" lon="-2.1163">
        <ele>36.7</ele>
        <time>2020-06-05T11:09:26Z</time>
      </trkpt>
      <trkpt lat="47.11685" lon="-2.11632">
        <ele>36.7</ele>
        <time>2020-06-05T11:09:27Z</time>
      </trkpt>
      <trkpt lat="47.11689" lon="-2.11634">
        <ele>36.7</ele>
        <time>2020-06-05T11:09:28Z</time>
      </trkpt>
      <trkpt lat="47.11693" lon="-2.11637">
        <ele>36.7</ele>
        <time>2020-06-05T11:09:29Z</time>
      </trkpt>
      <trkpt lat="47.11697" lon="-2.11639">
        <ele>36.7</ele>
        <time>2020-06-05T11:09:30Z</time>
      </trkpt>
      <trkpt lat="47.117" lon="-2.11642">
        <ele>36.7</ele>
        <time>2020-06-05T11:09:31Z</time>
      </trkpt>
      <trkpt lat="47.11704" lon="-2.11644">
        <ele>36.7</ele>
        <time>2020-06-05T11:09:32Z</time>
      </trkpt>
      <trkpt lat="47.11707" lon="-2.11646">
        <ele>36.7</ele>
        <time>2020-06-05T11:09:33Z</time>
      </trkpt>
      <trkpt lat="47.11711" lon="-2.11649">
        <ele>36.7</ele>
        <time>2020-06-05T11:09:34Z</time>
      </trkpt>
      <trkpt lat="47.11715" lon="-2.11651">
        <ele>36.7</ele>
        <time>2020-06-05T11:09:35Z</time>
      </trkpt>
      <trkpt lat="47.11718" lon="-2.11654">
        <ele>36.6</ele>
        <time>2020-06-05T11:09:36Z</time>
      </trkpt>
      <trkpt lat="47.11722" lon="-2.11657">
        <ele>36.6</ele>
        <time>2020-06-05T11:09:37Z</time>
      </trkpt>
      <trkpt lat="47.11726" lon="-2.1166">
        <ele>36.6</ele>
        <time>2020-06-05T11:09:38Z</time>
      </trkpt>
      <trkpt lat="47.1173" lon="-2.11662">
        <ele>36.5</ele>
        <time>2020-06-05T11:09:39Z</time>
      </trkpt>
      <trkpt lat="47.11734" lon="-2.11664">
        <ele>36.5</ele>
        <time>2020-06-05T11:09:40Z</time>
      </trkpt>
      <trkpt lat="47.11738" lon="-2.11665">
        <ele>36.5</ele>
        <time>2020-06-05T11:09:41Z</time>
      </trkpt>
      <trkpt lat="47.11742" lon="-2.11668">
        <ele>36.5</ele>
        <time>2020-06-05T11:09:42Z</time>
      </trkpt>
      <trkpt lat="47.11746" lon="-2.1167">
        <ele>36.4</ele>
        <time>2020-06-05T11:09:43Z</time>
      </trkpt>
      <trkpt lat="47.1175" lon="-2.11673">
        <ele>36.4</ele>
        <time>2020-06-05T11:09:44Z</time>
      </trkpt>
      <trkpt lat="47.11753" lon="-2.11677">
        <ele>36.3</ele>
        <time>2020-06-05T11:09:45Z</time>
      </trkpt>
      <trkpt lat="47.11757" lon="-2.11681">
        <ele>36.3</ele>
        <time>2020-06-05T11:09:46Z</time>
      </trkpt>
      <trkpt lat="47.11761" lon="-2.11684">
        <ele>36.2</ele>
        <time>2020-06-05T11:09:47Z</time>
      </trkpt>
      <trkpt lat="47.11765" lon="-2.11687">
        <ele>36.2</ele>
        <time>2020-06-05T11:09:48Z</time>
      </trkpt>
      <trkpt lat="47.11769" lon="-2.1169">
        <ele>36.1</ele>
        <time>2020-06-05T11:09:49Z</time>
      </trkpt>
      <trkpt lat="47.11773" lon="-2.11693">
        <ele>36.1</ele>
        <time>2020-06-05T11:09:50Z</time>
      </trkpt>
      <trkpt lat="47.11777" lon="-2.11696">
        <ele>36</ele>
        <time>2020-06-05T11:09:51Z</time>
      </trkpt>
      <trkpt lat="47.11781" lon="-2.11699">
        <ele>36</ele>
        <time>2020-06-05T11:09:52Z</time>
      </trkpt>
      <trkpt lat="47.11786" lon="-2.11702">
        <ele>35.9</ele>
        <time>2020-06-05T11:09:53Z</time>
      </trkpt>
      <trkpt lat="47.1179" lon="-2.11704">
        <ele>35.9</ele>
        <time>2020-06-05T11:09:54Z</time>
      </trkpt>
      <trkpt lat="47.11793" lon="-2.11707">
        <ele>35.9</ele>
        <time>2020-06-05T11:09:55Z</time>
      </trkpt>
      <trkpt lat="47.11797" lon="-2.11709">
        <ele>35.9</ele>
        <time>2020-06-05T11:09:56Z</time>
      </trkpt>
      <trkpt lat="47.11801" lon="-2.11711">
        <ele>35.9</ele>
        <time>2020-06-05T11:09:57Z</time>
      </trkpt>
      <trkpt lat="47.11806" lon="-2.11713">
        <ele>35.8</ele>
        <time>2020-06-05T11:09:58Z</time>
      </trkpt>
      <trkpt lat="47.1181" lon="-2.11715">
        <ele>35.8</ele>
        <time>2020-06-05T11:09:59Z</time>
      </trkpt>
      <trkpt lat="47.11815" lon="-2.11716">
        <ele>35.7</ele>
        <time>2020-06-05T11:10:00Z</time>
      </trkpt>
      <trkpt lat="47.11819" lon="-2.11717">
        <ele>35.7</ele>
        <time>2020-06-05T11:10:01Z</time>
      </trkpt>
      <trkpt lat="47.11824" lon="-2.11719">
        <ele>35.7</ele>
        <time>2020-06-05T11:10:02Z</time>
      </trkpt>
      <trkpt lat="47.11828" lon="-2.1172">
        <ele>35.7</ele>
        <time>2020-06-05T11:10:03Z</time>
      </trkpt>
      <trkpt lat="47.11833" lon="-2.11721">
        <ele>35.7</ele>
        <time>2020-06-05T11:10:04Z</time>
      </trkpt>
      <trkpt lat="47.11837" lon="-2.11721">
        <ele>35.7</ele>
        <time>2020-06-05T11:10:05Z</time>
      </trkpt>
      <trkpt lat="47.11842" lon="-2.11723">
        <ele>35.7</ele>
        <time>2020-06-05T11:10:06Z</time>
      </trkpt>
      <trkpt lat="47.11847" lon="-2.11724">
        <ele>35.7</ele>
        <time>2020-06-05T11:10:07Z</time>
      </trkpt>
      <trkpt lat="47.11851" lon="-2.11725">
        <ele>35.7</ele>
        <time>2020-06-05T11:10:08Z</time>
      </trkpt>
      <trkpt lat="47.11856" lon="-2.11725">
        <ele>35.7</ele>
        <time>2020-06-05T11:10:09Z</time>
      </trkpt>
      <trkpt lat="47.11861" lon="-2.11725">
        <ele>35.8</ele>
        <time>2020-06-05T11:10:10Z</time>
      </trkpt>
      <trkpt lat="47.11865" lon="-2.11724">
        <ele>35.8</ele>
        <time>2020-06-05T11:10:11Z</time>
      </trkpt>
      <trkpt lat="47.1187" lon="-2.11725">
        <ele>35.8</ele>
        <time>2020-06-05T11:10:12Z</time>
      </trkpt>
      <trkpt lat="47.11874" lon="-2.11726">
        <ele>35.8</ele>
        <time>2020-06-05T11:10:13Z</time>
      </trkpt>
      <trkpt lat="47.11878" lon="-2.11726">
        <ele>35.8</ele>
        <time>2020-06-05T11:10:14Z</time>
      </trkpt>
      <trkpt lat="47.11883" lon="-2.11727">
        <ele>35.8</ele>
        <time>2020-06-05T11:10:15Z</time>
      </trkpt>
      <trkpt lat="47.11888" lon="-2.11727">
        <ele>35.8</ele>
        <time>2020-06-05T11:10:16Z</time>
      </trkpt>
      <trkpt lat="47.11893" lon="-2.11728">
        <ele>35.8</ele>
        <time>2020-06-05T11:10:17Z</time>
      </trkpt>
      <trkpt lat="47.11898" lon="-2.11728">
        <ele>35.8</ele>
        <time>2020-06-05T11:10:18Z</time>
      </trkpt>
      <trkpt lat="47.11903" lon="-2.11729">
        <ele>35.8</ele>
        <time>2020-06-05T11:10:19Z</time>
      </trkpt>
      <trkpt lat="47.11908" lon="-2.11729">
        <ele>35.9</ele>
        <time>2020-06-05T11:10:20Z</time>
      </trkpt>
      <trkpt lat="47.11912" lon="-2.11729">
        <ele>35.9</ele>
        <time>2020-06-05T11:10:21Z</time>
      </trkpt>
      <trkpt lat="47.11917" lon="-2.1173">
        <ele>35.8</ele>
        <time>2020-06-05T11:10:22Z</time>
      </trkpt>
      <trkpt lat="47.11922" lon="-2.11731">
        <ele>35.8</ele>
        <time>2020-06-05T11:10:23Z</time>
      </trkpt>
      <trkpt lat="47.11926" lon="-2.11731">
        <ele>35.7</ele>
        <time>2020-06-05T11:10:24Z</time>
      </trkpt>
      <trkpt lat="47.11931" lon="-2.11733">
        <ele>35.7</ele>
        <time>2020-06-05T11:10:25Z</time>
      </trkpt>
      <trkpt lat="47.11936" lon="-2.11733">
        <ele>35.6</ele>
        <time>2020-06-05T11:10:26Z</time>
      </trkpt>
      <trkpt lat="47.11941" lon="-2.11733">
        <ele>35.6</ele>
        <time>2020-06-05T11:10:27Z</time>
      </trkpt>
      <trkpt lat="47.11946" lon="-2.11734">
        <ele>35.6</ele>
        <time>2020-06-05T11:10:28Z</time>
      </trkpt>
      <trkpt lat="47.11951" lon="-2.11734">
        <ele>35.6</ele>
        <time>2020-06-05T11:10:29Z</time>
      </trkpt>
      <trkpt lat="47.11956" lon="-2.11734">
        <ele>35.5</ele>
        <time>2020-06-05T11:10:30Z</time>
      </trkpt>
      <trkpt lat="47.1196" lon="-2.11734">
        <ele>35.4</ele>
        <time>2020-06-05T11:10:31Z</time>
      </trkpt>
      <trkpt lat="47.11965" lon="-2.11735">
        <ele>35.4</ele>
        <time>2020-06-05T11:10:32Z</time>
      </trkpt>
      <trkpt lat="47.1197" lon="-2.11735">
        <ele>35.3</ele>
        <time>2020-06-05T11:10:33Z</time>
      </trkpt>
      <trkpt lat="47.11975" lon="-2.11735">
        <ele>35.3</ele>
        <time>2020-06-05T11:10:34Z</time>
      </trkpt>
      <trkpt lat="47.11981" lon="-2.11736">
        <ele>35.2</ele>
        <time>2020-06-05T11:10:35Z</time>
      </trkpt>
      <trkpt lat="47.11986" lon="-2.11737">
        <ele>35.2</ele>
        <time>2020-06-05T11:10:36Z</time>
      </trkpt>
      <trkpt lat="47.11991" lon="-2.11738">
        <ele>35.2</ele>
        <time>2020-06-05T11:10:37Z</time>
      </trkpt>
      <trkpt lat="47.11997" lon="-2.11739">
        <ele>35.1</ele>
        <time>2020-06-05T11:10:38Z</time>
      </trkpt>
      <trkpt lat="47.12002" lon="-2.1174">
        <ele>35.1</ele>
        <time>2020-06-05T11:10:39Z</time>
      </trkpt>
      <trkpt lat="47.12007" lon="-2.1174">
        <ele>35</ele>
        <time>2020-06-05T11:10:40Z</time>
      </trkpt>
      <trkpt lat="47.12013" lon="-2.11739">
        <ele>34.9</ele>
        <time>2020-06-05T11:10:41Z</time>
      </trkpt>
      <trkpt lat="47.12019" lon="-2.11738">
        <ele>34.8</ele>
        <time>2020-06-05T11:10:42Z</time>
      </trkpt>
      <trkpt lat="47.12024" lon="-2.1174">
        <ele>34.8</ele>
        <time>2020-06-05T11:10:43Z</time>
      </trkpt>
      <trkpt lat="47.12029" lon="-2.11741">
        <ele>34.7</ele>
        <time>2020-06-05T11:10:44Z</time>
      </trkpt>
      <trkpt lat="47.12035" lon="-2.11743">
        <ele>34.6</ele>
        <time>2020-06-05T11:10:45Z</time>
      </trkpt>
      <trkpt lat="47.1204" lon="-2.11744">
        <ele>34.5</ele>
        <time>2020-06-05T11:10:46Z</time>
      </trkpt>
      <trkpt lat="47.12046" lon="-2.11743">
        <ele>34.3</ele>
        <time>2020-06-05T11:10:47Z</time>
      </trkpt>
      <trkpt lat="47.12051" lon="-2.11742">
        <ele>34.2</ele>
        <time>2020-06-05T11:10:48Z</time>
      </trkpt>
      <trkpt lat="47.12056" lon="-2.11741">
        <ele>34</ele>
        <time>2020-06-05T11:10:49Z</time>
      </trkpt>
      <trkpt lat="47.12062" lon="-2.11741">
        <ele>33.9</ele>
        <time>2020-06-05T11:10:50Z</time>
      </trkpt>
      <trkpt lat="47.12068" lon="-2.11742">
        <ele>33.7</ele>
        <time>2020-06-05T11:10:51Z</time>
      </trkpt>
      <trkpt lat="47.12074" lon="-2.11743">
        <ele>33.5</ele>
        <time>2020-06-05T11:10:52Z</time>
      </trkpt>
      <trkpt lat="47.12081" lon="-2.11745">
        <ele>33.4</ele>
        <time>2020-06-05T11:10:53Z</time>
      </trkpt>
      <trkpt lat="47.12087" lon="-2.11747">
        <ele>33.3</ele>
        <time>2020-06-05T11:10:54Z</time>
      </trkpt>
      <trkpt lat="47.12093" lon="-2.11747">
        <ele>33.2</ele>
        <time>2020-06-05T11:10:55Z</time>
      </trkpt>
      <trkpt lat="47.12099" lon="-2.11749">
        <ele>33.1</ele>
        <time>2020-06-05T11:10:56Z</time>
      </trkpt>
      <trkpt lat="47.12105" lon="-2.1175">
        <ele>33.1</ele>
        <time>2020-06-05T11:10:57Z</time>
      </trkpt>
      <trkpt lat="47.12111" lon="-2.11752">
        <ele>33</ele>
        <time>2020-06-05T11:10:58Z</time>
      </trkpt>
      <trkpt lat="47.12117" lon="-2.11753">
        <ele>33</ele>
        <time>2020-06-05T11:10:59Z</time>
      </trkpt>
      <trkpt lat="47.12122" lon="-2.11754">
        <ele>32.9</ele>
        <time>2020-06-05T11:11:00Z</time>
      </trkpt>
      <trkpt lat="47.12129" lon="-2.11755">
        <ele>32.9</ele>
        <time>2020-06-05T11:11:01Z</time>
      </trkpt>
      <trkpt lat="47.12135" lon="-2.11755">
        <ele>32.8</ele>
        <time>2020-06-05T11:11:02Z</time>
      </trkpt>
      <trkpt lat="47.1214" lon="-2.11756">
        <ele>32.8</ele>
        <time>2020-06-05T11:11:03Z</time>
      </trkpt>
      <trkpt lat="47.12146" lon="-2.11758">
        <ele>32.7</ele>
        <time>2020-06-05T11:11:04Z</time>
      </trkpt>
      <trkpt lat="47.12151" lon="-2.1176">
        <ele>32.7</ele>
        <time>2020-06-05T11:11:05Z</time>
      </trkpt>
      <trkpt lat="47.12157" lon="-2.11761">
        <ele>32.7</ele>
        <time>2020-06-05T11:11:06Z</time>
      </trkpt>
      <trkpt lat="47.12163" lon="-2.11763">
        <ele>32.6</ele>
        <time>2020-06-05T11:11:07Z</time>
      </trkpt>
      <trkpt lat="47.12168" lon="-2.11765">
        <ele>32.6</ele>
        <time>2020-06-05T11:11:08Z</time>
      </trkpt>
      <trkpt lat="47.12174" lon="-2.11765">
        <ele>32.7</ele>
        <time>2020-06-05T11:11:09Z</time>
      </trkpt>
      <trkpt lat="47.12179" lon="-2.11766">
        <ele>32.7</ele>
        <time>2020-06-05T11:11:10Z</time>
      </trkpt>
      <trkpt lat="47.12184" lon="-2.11768">
        <ele>32.8</ele>
        <time>2020-06-05T11:11:11Z</time>
      </trkpt>
      <trkpt lat="47.12189" lon="-2.11769">
        <ele>32.9</ele>
        <time>2020-06-05T11:11:12Z</time>
      </trkpt>
      <trkpt lat="47.12194" lon="-2.11771">
        <ele>33</ele>
        <time>2020-06-05T11:11:13Z</time>
      </trkpt>
      <trkpt lat="47.12198" lon="-2.11772">
        <ele>33</ele>
        <time>2020-06-05T11:11:14Z</time>
      </trkpt>
      <trkpt lat="47.12203" lon="-2.11773">
        <ele>33.1</ele>
        <time>2020-06-05T11:11:15Z</time>
      </trkpt>
      <trkpt lat="47.12208" lon="-2.11774">
        <ele>33.3</ele>
        <time>2020-06-05T11:11:16Z</time>
      </trkpt>
      <trkpt lat="47.12213" lon="-2.11774">
        <ele>33.4</ele>
        <time>2020-06-05T11:11:17Z</time>
      </trkpt>
      <trkpt lat="47.12218" lon="-2.11774">
        <ele>33.5</ele>
        <time>2020-06-05T11:11:18Z</time>
      </trkpt>
      <trkpt lat="47.12222" lon="-2.11774">
        <ele>33.6</ele>
        <time>2020-06-05T11:11:19Z</time>
      </trkpt>
      <trkpt lat="47.12226" lon="-2.11772">
        <ele>33.7</ele>
        <time>2020-06-05T11:11:20Z</time>
      </trkpt>
      <trkpt lat="47.1223" lon="-2.1177">
        <ele>33.7</ele>
        <time>2020-06-05T11:11:21Z</time>
      </trkpt>
      <trkpt lat="47.12234" lon="-2.11768">
        <ele>33.8</ele>
        <time>2020-06-05T11:11:22Z</time>
      </trkpt>
      <trkpt lat="47.12239" lon="-2.11769">
        <ele>33.8</ele>
        <time>2020-06-05T11:11:23Z</time>
      </trkpt>
      <trkpt lat="47.12243" lon="-2.11772">
        <ele>33.6</ele>
        <time>2020-06-05T11:11:24Z</time>
      </trkpt>
      <trkpt lat="47.12247" lon="-2.11774">
        <ele>33.8</ele>
        <time>2020-06-05T11:11:25Z</time>
      </trkpt>
      <trkpt lat="47.12251" lon="-2.11777">
        <ele>33.9</ele>
        <time>2020-06-05T11:11:26Z</time>
      </trkpt>
      <trkpt lat="47.12255" lon="-2.11781">
        <ele>34.1</ele>
        <time>2020-06-05T11:11:27Z</time>
      </trkpt>
      <trkpt lat="47.12259" lon="-2.11784">
        <ele>33.9</ele>
        <time>2020-06-05T11:11:28Z</time>
      </trkpt>
      <trkpt lat="47.12264" lon="-2.11786">
        <ele>33.8</ele>
        <time>2020-06-05T11:11:29Z</time>
      </trkpt>
      <trkpt lat="47.12268" lon="-2.11788">
        <ele>33.6</ele>
        <time>2020-06-05T11:11:30Z</time>
      </trkpt>
      <trkpt lat="47.12272" lon="-2.11791">
        <ele>33.6</ele>
        <time>2020-06-05T11:11:31Z</time>
      </trkpt>
      <trkpt lat="47.12276" lon="-2.11794">
        <ele>33.6</ele>
        <time>2020-06-05T11:11:32Z</time>
      </trkpt>
      <trkpt lat="47.12281" lon="-2.11796">
        <ele>33.6</ele>
        <time>2020-06-05T11:11:33Z</time>
      </trkpt>
      <trkpt lat="47.12286" lon="-2.11798">
        <ele>33.6</ele>
        <time>2020-06-05T11:11:34Z</time>
      </trkpt>
      <trkpt lat="47.12291" lon="-2.118">
        <ele>33.6</ele>
        <time>2020-06-05T11:11:35Z</time>
      </trkpt>
      <trkpt lat="47.12295" lon="-2.11802">
        <ele>33.6</ele>
        <time>2020-06-05T11:11:36Z</time>
      </trkpt>
      <trkpt lat="47.123" lon="-2.11804">
        <ele>33.6</ele>
        <time>2020-06-05T11:11:37Z</time>
      </trkpt>
      <trkpt lat="47.12305" lon="-2.11805">
        <ele>33.7</ele>
        <time>2020-06-05T11:11:38Z</time>
      </trkpt>
      <trkpt lat="47.1231" lon="-2.11807">
        <ele>33.7</ele>
        <time>2020-06-05T11:11:39Z</time>
      </trkpt>
      <trkpt lat="47.12316" lon="-2.11809">
        <ele>33.7</ele>
        <time>2020-06-05T11:11:40Z</time>
      </trkpt>
      <trkpt lat="47.1232" lon="-2.11812">
        <ele>33.8</ele>
        <time>2020-06-05T11:11:41Z</time>
      </trkpt>
      <trkpt lat="47.12325" lon="-2.11815">
        <ele>33.9</ele>
        <time>2020-06-05T11:11:42Z</time>
      </trkpt>
      <trkpt lat="47.1233" lon="-2.11817">
        <ele>33.9</ele>
        <time>2020-06-05T11:11:43Z</time>
      </trkpt>
      <trkpt lat="47.12334" lon="-2.1182">
        <ele>34</ele>
        <time>2020-06-05T11:11:44Z</time>
      </trkpt>
      <trkpt lat="47.12339" lon="-2.11822">
        <ele>34.1</ele>
        <time>2020-06-05T11:11:45Z</time>
      </trkpt>
      <trkpt lat="47.12343" lon="-2.11824">
        <ele>34.2</ele>
        <time>2020-06-05T11:11:46Z</time>
      </trkpt>
      <trkpt lat="47.12348" lon="-2.11826">
        <ele>34.3</ele>
        <time>2020-06-05T11:11:47Z</time>
      </trkpt>
      <trkpt lat="47.12352" lon="-2.11826">
        <ele>34.4</ele>
        <time>2020-06-05T11:11:48Z</time>
      </trkpt>
      <trkpt lat="47.12356" lon="-2.11828">
        <ele>34.4</ele>
        <time>2020-06-05T11:11:49Z</time>
      </trkpt>
      <trkpt lat="47.1236" lon="-2.1183">
        <ele>34.5</ele>
        <time>2020-06-05T11:11:50Z</time>
      </trkpt>
      <trkpt lat="47.12364" lon="-2.11832">
        <ele>34.5</ele>
        <time>2020-06-05T11:11:51Z</time>
      </trkpt>
      <trkpt lat="47.12368" lon="-2.11835">
        <ele>34.6</ele>
        <time>2020-06-05T11:11:52Z</time>
      </trkpt>
      <trkpt lat="47.12373" lon="-2.11836">
        <ele>34.6</ele>
        <time>2020-06-05T11:11:53Z</time>
      </trkpt>
      <trkpt lat="47.12377" lon="-2.11837">
        <ele>34.7</ele>
        <time>2020-06-05T11:11:54Z</time>
      </trkpt>
      <trkpt lat="47.12381" lon="-2.1184">
        <ele>34.7</ele>
        <time>2020-06-05T11:11:55Z</time>
      </trkpt>
      <trkpt lat="47.12384" lon="-2.11842">
        <ele>34.8</ele>
        <time>2020-06-05T11:11:56Z</time>
      </trkpt>
      <trkpt lat="47.12388" lon="-2.11844">
        <ele>34.8</ele>
        <time>2020-06-05T11:11:57Z</time>
      </trkpt>
      <trkpt lat="47.12391" lon="-2.11845">
        <ele>34.9</ele>
        <time>2020-06-05T11:11:58Z</time>
      </trkpt>
      <trkpt lat="47.12394" lon="-2.11847">
        <ele>34.9</ele>
        <time>2020-06-05T11:11:59Z</time>
      </trkpt>
      <trkpt lat="47.12398" lon="-2.11848">
        <ele>35</ele>
        <time>2020-06-05T11:12:00Z</time>
      </trkpt>
      <trkpt lat="47.12402" lon="-2.11851">
        <ele>35.1</ele>
        <time>2020-06-05T11:12:01Z</time>
      </trkpt>
      <trkpt lat="47.12406" lon="-2.11854">
        <ele>35.2</ele>
        <time>2020-06-05T11:12:02Z</time>
      </trkpt>
      <trkpt lat="47.1241" lon="-2.11857">
        <ele>35.3</ele>
        <time>2020-06-05T11:12:03Z</time>
      </trkpt>
      <trkpt lat="47.12414" lon="-2.1186">
        <ele>35.4</ele>
        <time>2020-06-05T11:12:04Z</time>
      </trkpt>
      <trkpt lat="47.12419" lon="-2.11864">
        <ele>35.5</ele>
        <time>2020-06-05T11:12:05Z</time>
      </trkpt>
      <trkpt lat="47.12422" lon="-2.11866">
        <ele>35.6</ele>
        <time>2020-06-05T11:12:06Z</time>
      </trkpt>
      <trkpt lat="47.12425" lon="-2.11869">
        <ele>35.6</ele>
        <time>2020-06-05T11:12:07Z</time>
      </trkpt>
      <trkpt lat="47.12429" lon="-2.11872">
        <ele>35.7</ele>
        <time>2020-06-05T11:12:08Z</time>
      </trkpt>
      <trkpt lat="47.12432" lon="-2.11876">
        <ele>35.7</ele>
        <time>2020-06-05T11:12:09Z</time>
      </trkpt>
      <trkpt lat="47.12437" lon="-2.11879">
        <ele>35.8</ele>
        <time>2020-06-05T11:12:10Z</time>
      </trkpt>
      <trkpt lat="47.12441" lon="-2.11884">
        <ele>35.9</ele>
        <time>2020-06-05T11:12:11Z</time>
      </trkpt>
      <trkpt lat="47.12444" lon="-2.11887">
        <ele>36</ele>
        <time>2020-06-05T11:12:12Z</time>
      </trkpt>
      <trkpt lat="47.12449" lon="-2.1189">
        <ele>36.1</ele>
        <time>2020-06-05T11:12:13Z</time>
      </trkpt>
      <trkpt lat="47.12453" lon="-2.11893">
        <ele>36.1</ele>
        <time>2020-06-05T11:12:14Z</time>
      </trkpt>
      <trkpt lat="47.12457" lon="-2.11895">
        <ele>36.1</ele>
        <time>2020-06-05T11:12:15Z</time>
      </trkpt>
      <trkpt lat="47.12461" lon="-2.11899">
        <ele>36.2</ele>
        <time>2020-06-05T11:12:16Z</time>
      </trkpt>
      <trkpt lat="47.12464" lon="-2.11902">
        <ele>36.3</ele>
        <time>2020-06-05T11:12:17Z</time>
      </trkpt>
      <trkpt lat="47.12468" lon="-2.11907">
        <ele>36.2</ele>
        <time>2020-06-05T11:12:18Z</time>
      </trkpt>
      <trkpt lat="47.12472" lon="-2.11911">
        <ele>36.2</ele>
        <time>2020-06-05T11:12:19Z</time>
      </trkpt>
      <trkpt lat="47.12477" lon="-2.11915">
        <ele>36.2</ele>
        <time>2020-06-05T11:12:20Z</time>
      </trkpt>
      <trkpt lat="47.12481" lon="-2.11919">
        <ele>36.2</ele>
        <time>2020-06-05T11:12:21Z</time>
      </trkpt>
      <trkpt lat="47.12484" lon="-2.11922">
        <ele>36.2</ele>
        <time>2020-06-05T11:12:22Z</time>
      </trkpt>
      <trkpt lat="47.12488" lon="-2.11926">
        <ele>36.3</ele>
        <time>2020-06-05T11:12:23Z</time>
      </trkpt>
      <trkpt lat="47.12492" lon="-2.11929">
        <ele>36.3</ele>
        <time>2020-06-05T11:12:24Z</time>
      </trkpt>
      <trkpt lat="47.12496" lon="-2.11932">
        <ele>36.4</ele>
        <time>2020-06-05T11:12:25Z</time>
      </trkpt>
      <trkpt lat="47.125" lon="-2.11935">
        <ele>36.4</ele>
        <time>2020-06-05T11:12:26Z</time>
      </trkpt>
      <trkpt lat="47.12504" lon="-2.11937">
        <ele>36.5</ele>
        <time>2020-06-05T11:12:27Z</time>
      </trkpt>
      <trkpt lat="47.12508" lon="-2.11939">
        <ele>36.5</ele>
        <time>2020-06-05T11:12:28Z</time>
      </trkpt>
      <trkpt lat="47.12512" lon="-2.11942">
        <ele>36.5</ele>
        <time>2020-06-05T11:12:29Z</time>
      </trkpt>
      <trkpt lat="47.12516" lon="-2.11944">
        <ele>36.6</ele>
        <time>2020-06-05T11:12:30Z</time>
      </trkpt>
      <trkpt lat="47.1252" lon="-2.11947">
        <ele>36.7</ele>
        <time>2020-06-05T11:12:31Z</time>
      </trkpt>
      <trkpt lat="47.12524" lon="-2.1195">
        <ele>36.7</ele>
        <time>2020-06-05T11:12:32Z</time>
      </trkpt>
      <trkpt lat="47.12527" lon="-2.11953">
        <ele>36.8</ele>
        <time>2020-06-05T11:12:33Z</time>
      </trkpt>
      <trkpt lat="47.12531" lon="-2.11956">
        <ele>36.9</ele>
        <time>2020-06-05T11:12:34Z</time>
      </trkpt>
      <trkpt lat="47.12534" lon="-2.11959">
        <ele>37</ele>
        <time>2020-06-05T11:12:35Z</time>
      </trkpt>
      <trkpt lat="47.12536" lon="-2.11962">
        <ele>37</ele>
        <time>2020-06-05T11:12:36Z</time>
      </trkpt>
      <trkpt lat="47.12539" lon="-2.11965">
        <ele>37.1</ele>
        <time>2020-06-05T11:12:37Z</time>
      </trkpt>
      <trkpt lat="47.12541" lon="-2.11968">
        <ele>37.2</ele>
        <time>2020-06-05T11:12:38Z</time>
      </trkpt>
      <trkpt lat="47.12543" lon="-2.11968">
        <ele>37.2</ele>
        <time>2020-06-05T11:12:39Z</time>
      </trkpt>
      <trkpt lat="47.12544" lon="-2.11969">
        <ele>37.2</ele>
        <time>2020-06-05T11:12:40Z</time>
      </trkpt>
      <trkpt lat="47.12545" lon="-2.11971">
        <ele>37.3</ele>
        <time>2020-06-05T11:12:41Z</time>
      </trkpt>
      <trkpt lat="47.12547" lon="-2.11972">
        <ele>37.3</ele>
        <time>2020-06-05T11:12:42Z</time>
      </trkpt>
      <trkpt lat="47.12548" lon="-2.11974">
        <ele>37.4</ele>
        <time>2020-06-05T11:12:43Z</time>
      </trkpt>
      <trkpt lat="47.12549" lon="-2.11976">
        <ele>37.4</ele>
        <time>2020-06-05T11:12:44Z</time>
      </trkpt>
      <trkpt lat="47.12551" lon="-2.11977">
        <ele>37.3</ele>
        <time>2020-06-05T11:12:45Z</time>
      </trkpt>
      <trkpt lat="47.12552" lon="-2.11978">
        <ele>37.3</ele>
        <time>2020-06-05T11:12:46Z</time>
      </trkpt>
      <trkpt lat="47.12554" lon="-2.1198">
        <ele>37.3</ele>
        <time>2020-06-05T11:12:47Z</time>
      </trkpt>
      <trkpt lat="47.12555" lon="-2.11982">
        <ele>37.3</ele>
        <time>2020-06-05T11:12:48Z</time>
      </trkpt>
      <trkpt lat="47.12557" lon="-2.11986">
        <ele>37.2</ele>
        <time>2020-06-05T11:12:49Z</time>
      </trkpt>
      <trkpt lat="47.12558" lon="-2.11988">
        <ele>37.2</ele>
        <time>2020-06-05T11:12:50Z</time>
      </trkpt>
      <trkpt lat="47.12559" lon="-2.11992">
        <ele>37.1</ele>
        <time>2020-06-05T11:12:51Z</time>
      </trkpt>
      <trkpt lat="47.12561" lon="-2.11997">
        <ele>37.1</ele>
        <time>2020-06-05T11:12:52Z</time>
      </trkpt>
      <trkpt lat="47.12561" lon="-2.11998">
        <ele>37.1</ele>
        <time>2020-06-05T11:12:53Z</time>
      </trkpt>
      <trkpt lat="47.12562" lon="-2.12002">
        <ele>37.1</ele>
        <time>2020-06-05T11:12:54Z</time>
      </trkpt>
      <trkpt lat="47.12563" lon="-2.12006">
        <ele>37</ele>
        <time>2020-06-05T11:12:55Z</time>
      </trkpt>
      <trkpt lat="47.12564" lon="-2.12007">
        <ele>37</ele>
        <time>2020-06-05T11:12:56Z</time>
      </trkpt>
      <trkpt lat="47.12566" lon="-2.12011">
        <ele>37</ele>
        <time>2020-06-05T11:12:57Z</time>
      </trkpt>
      <trkpt lat="47.12567" lon="-2.12012">
        <ele>37</ele>
        <time>2020-06-05T11:12:58Z</time>
      </trkpt>
      <trkpt lat="47.12569" lon="-2.12014">
        <ele>37</ele>
        <time>2020-06-05T11:12:59Z</time>
      </trkpt>
      <trkpt lat="47.12571" lon="-2.12017">
        <ele>37</ele>
        <time>2020-06-05T11:13:00Z</time>
      </trkpt>
      <trkpt lat="47.12574" lon="-2.12021">
        <ele>37</ele>
        <time>2020-06-05T11:13:01Z</time>
      </trkpt>
      <trkpt lat="47.12577" lon="-2.12025">
        <ele>37</ele>
        <time>2020-06-05T11:13:02Z</time>
      </trkpt>
      <trkpt lat="47.12579" lon="-2.12027">
        <ele>37</ele>
        <time>2020-06-05T11:13:03Z</time>
      </trkpt>
      <trkpt lat="47.12582" lon="-2.12031">
        <ele>37</ele>
        <time>2020-06-05T11:13:04Z</time>
      </trkpt>
      <trkpt lat="47.12585" lon="-2.12034">
        <ele>37</ele>
        <time>2020-06-05T11:13:05Z</time>
      </trkpt>
      <trkpt lat="47.12589" lon="-2.12038">
        <ele>37</ele>
        <time>2020-06-05T11:13:06Z</time>
      </trkpt>
      <trkpt lat="47.12592" lon="-2.12042">
        <ele>37</ele>
        <time>2020-06-05T11:13:07Z</time>
      </trkpt>
      <trkpt lat="47.12596" lon="-2.12046">
        <ele>37</ele>
        <time>2020-06-05T11:13:08Z</time>
      </trkpt>
      <trkpt lat="47.12599" lon="-2.12049">
        <ele>37</ele>
        <time>2020-06-05T11:13:09Z</time>
      </trkpt>
      <trkpt lat="47.12603" lon="-2.12052">
        <ele>37.1</ele>
        <time>2020-06-05T11:13:10Z</time>
      </trkpt>
      <trkpt lat="47.12607" lon="-2.12056">
        <ele>37.1</ele>
        <time>2020-06-05T11:13:11Z</time>
      </trkpt>
      <trkpt lat="47.1261" lon="-2.1206">
        <ele>37</ele>
        <time>2020-06-05T11:13:12Z</time>
      </trkpt>
      <trkpt lat="47.12613" lon="-2.12065">
        <ele>37</ele>
        <time>2020-06-05T11:13:13Z</time>
      </trkpt>
      <trkpt lat="47.12617" lon="-2.12069">
        <ele>37</ele>
        <time>2020-06-05T11:13:14Z</time>
      </trkpt>
      <trkpt lat="47.12621" lon="-2.12073">
        <ele>37</ele>
        <time>2020-06-05T11:13:15Z</time>
      </trkpt>
      <trkpt lat="47.12625" lon="-2.12076">
        <ele>37</ele>
        <time>2020-06-05T11:13:16Z</time>
      </trkpt>
      <trkpt lat="47.12629" lon="-2.1208">
        <ele>37</ele>
        <time>2020-06-05T11:13:17Z</time>
      </trkpt>
      <trkpt lat="47.12632" lon="-2.12084">
        <ele>37</ele>
        <time>2020-06-05T11:13:18Z</time>
      </trkpt>
      <trkpt lat="47.12636" lon="-2.12087">
        <ele>37</ele>
        <time>2020-06-05T11:13:19Z</time>
      </trkpt>
      <trkpt lat="47.12639" lon="-2.1209">
        <ele>37</ele>
        <time>2020-06-05T11:13:20Z</time>
      </trkpt>
      <trkpt lat="47.12643" lon="-2.12093">
        <ele>36.9</ele>
        <time>2020-06-05T11:13:21Z</time>
      </trkpt>
      <trkpt lat="47.12646" lon="-2.12096">
        <ele>37</ele>
        <time>2020-06-05T11:13:22Z</time>
      </trkpt>
      <trkpt lat="47.12648" lon="-2.121">
        <ele>37</ele>
        <time>2020-06-05T11:13:23Z</time>
      </trkpt>
      <trkpt lat="47.12651" lon="-2.12104">
        <ele>37</ele>
        <time>2020-06-05T11:13:24Z</time>
      </trkpt>
      <trkpt lat="47.12655" lon="-2.12107">
        <ele>37</ele>
        <time>2020-06-05T11:13:25Z</time>
      </trkpt>
      <trkpt lat="47.12658" lon="-2.12112">
        <ele>37</ele>
        <time>2020-06-05T11:13:26Z</time>
      </trkpt>
      <trkpt lat="47.12661" lon="-2.12114">
        <ele>37</ele>
        <time>2020-06-05T11:13:27Z</time>
      </trkpt>
      <trkpt lat="47.12664" lon="-2.12118">
        <ele>37</ele>
        <time>2020-06-05T11:13:28Z</time>
      </trkpt>
      <trkpt lat="47.12666" lon="-2.12121">
        <ele>37</ele>
        <time>2020-06-05T11:13:29Z</time>
      </trkpt>
      <trkpt lat="47.12669" lon="-2.12125">
        <ele>37</ele>
        <time>2020-06-05T11:13:30Z</time>
      </trkpt>
      <trkpt lat="47.12672" lon="-2.12127">
        <ele>37</ele>
        <time>2020-06-05T11:13:31Z</time>
      </trkpt>
      <trkpt lat="47.12675" lon="-2.12131">
        <ele>37</ele>
        <time>2020-06-05T11:13:32Z</time>
      </trkpt>
      <trkpt lat="47.12679" lon="-2.12134">
        <ele>37</ele>
        <time>2020-06-05T11:13:33Z</time>
      </trkpt>
      <trkpt lat="47.12682" lon="-2.12138">
        <ele>37</ele>
        <time>2020-06-05T11:13:34Z</time>
      </trkpt>
      <trkpt lat="47.12685" lon="-2.12142">
        <ele>37</ele>
        <time>2020-06-05T11:13:35Z</time>
      </trkpt>
      <trkpt lat="47.12688" lon="-2.12146">
        <ele>37</ele>
        <time>2020-06-05T11:13:36Z</time>
      </trkpt>
      <trkpt lat="47.12691" lon="-2.12151">
        <ele>37</ele>
        <time>2020-06-05T11:13:37Z</time>
      </trkpt>
      <trkpt lat="47.12694" lon="-2.12156">
        <ele>37</ele>
        <time>2020-06-05T11:13:38Z</time>
      </trkpt>
      <trkpt lat="47.12697" lon="-2.1216">
        <ele>37</ele>
        <time>2020-06-05T11:13:39Z</time>
      </trkpt>
      <trkpt lat="47.127" lon="-2.12165">
        <ele>37</ele>
        <time>2020-06-05T11:13:40Z</time>
      </trkpt>
      <trkpt lat="47.12702" lon="-2.1217">
        <ele>37</ele>
        <time>2020-06-05T11:13:41Z</time>
      </trkpt>
      <trkpt lat="47.12704" lon="-2.12175">
        <ele>37</ele>
        <time>2020-06-05T11:13:42Z</time>
      </trkpt>
      <trkpt lat="47.12706" lon="-2.1218">
        <ele>37</ele>
        <time>2020-06-05T11:13:43Z</time>
      </trkpt>
      <trkpt lat="47.12708" lon="-2.12186">
        <ele>37</ele>
        <time>2020-06-05T11:13:44Z</time>
      </trkpt>
      <trkpt lat="47.1271" lon="-2.12191">
        <ele>37</ele>
        <time>2020-06-05T11:13:45Z</time>
      </trkpt>
      <trkpt lat="47.12712" lon="-2.12196">
        <ele>37</ele>
        <time>2020-06-05T11:13:46Z</time>
      </trkpt>
      <trkpt lat="47.12713" lon="-2.12201">
        <ele>37.1</ele>
        <time>2020-06-05T11:13:47Z</time>
      </trkpt>
      <trkpt lat="47.12716" lon="-2.12207">
        <ele>37.1</ele>
        <time>2020-06-05T11:13:48Z</time>
      </trkpt>
      <trkpt lat="47.12718" lon="-2.12212">
        <ele>37.1</ele>
        <time>2020-06-05T11:13:49Z</time>
      </trkpt>
      <trkpt lat="47.12721" lon="-2.12216">
        <ele>37.2</ele>
        <time>2020-06-05T11:13:50Z</time>
      </trkpt>
      <trkpt lat="47.12725" lon="-2.1222">
        <ele>37.2</ele>
        <time>2020-06-05T11:13:51Z</time>
      </trkpt>
      <trkpt lat="47.12729" lon="-2.12221">
        <ele>37.2</ele>
        <time>2020-06-05T11:13:52Z</time>
      </trkpt>
      <trkpt lat="47.12734" lon="-2.12222">
        <ele>37.1</ele>
        <time>2020-06-05T11:13:53Z</time>
      </trkpt>
      <trkpt lat="47.12738" lon="-2.12221">
        <ele>37.1</ele>
        <time>2020-06-05T11:13:54Z</time>
      </trkpt>
      <trkpt lat="47.12742" lon="-2.1222">
        <ele>37</ele>
        <time>2020-06-05T11:13:55Z</time>
      </trkpt>
      <trkpt lat="47.12746" lon="-2.1222">
        <ele>36.9</ele>
        <time>2020-06-05T11:13:56Z</time>
      </trkpt>
      <trkpt lat="47.12749" lon="-2.1222">
        <ele>36.9</ele>
        <time>2020-06-05T11:13:57Z</time>
      </trkpt>
      <trkpt lat="47.12752" lon="-2.12221">
        <ele>36.9</ele>
        <time>2020-06-05T11:13:58Z</time>
      </trkpt>
      <trkpt lat="47.12755" lon="-2.12223">
        <ele>36.9</ele>
        <time>2020-06-05T11:13:59Z</time>
      </trkpt>
      <trkpt lat="47.12757" lon="-2.12225">
        <ele>36.7</ele>
        <time>2020-06-05T11:14:00Z</time>
      </trkpt>
      <trkpt lat="47.1276" lon="-2.12227">
        <ele>36.7</ele>
        <time>2020-06-05T11:14:01Z</time>
      </trkpt>
      <trkpt lat="47.12763" lon="-2.12227">
        <ele>36.7</ele>
        <time>2020-06-05T11:14:02Z</time>
      </trkpt>
      <trkpt lat="47.12767" lon="-2.12227">
        <ele>36.7</ele>
        <time>2020-06-05T11:14:03Z</time>
      </trkpt>
      <trkpt lat="47.12768" lon="-2.12227">
        <ele>36.7</ele>
        <time>2020-06-05T11:14:04Z</time>
      </trkpt>
      <trkpt lat="47.12771" lon="-2.12226">
        <ele>36.7</ele>
        <time>2020-06-05T11:14:05Z</time>
      </trkpt>
      <trkpt lat="47.12774" lon="-2.12225">
        <ele>36.7</ele>
        <time>2020-06-05T11:14:06Z</time>
      </trkpt>
      <trkpt lat="47.12778" lon="-2.12223">
        <ele>36.7</ele>
        <time>2020-06-05T11:14:07Z</time>
      </trkpt>
      <trkpt lat="47.12781" lon="-2.12221">
        <ele>36.7</ele>
        <time>2020-06-05T11:14:08Z</time>
      </trkpt>
      <trkpt lat="47.12784" lon="-2.12219">
        <ele>36.7</ele>
        <time>2020-06-05T11:14:09Z</time>
      </trkpt>
      <trkpt lat="47.12786" lon="-2.12217">
        <ele>36.7</ele>
        <time>2020-06-05T11:14:10Z</time>
      </trkpt>
      <trkpt lat="47.12788" lon="-2.12217">
        <ele>36.7</ele>
        <time>2020-06-05T11:14:11Z</time>
      </trkpt>
      <trkpt lat="47.12788" lon="-2.12219">
        <ele>36.7</ele>
        <time>2020-06-05T11:14:12Z</time>
      </trkpt>
      <trkpt lat="47.12788" lon="-2.12219">
        <ele>36.7</ele>
        <time>2020-06-05T11:14:13Z</time>
      </trkpt>
      <trkpt lat="47.12787" lon="-2.12221">
        <ele>36.7</ele>
        <time>2020-06-05T11:14:14Z</time>
      </trkpt>
      <trkpt lat="47.12785" lon="-2.12221">
        <ele>36.7</ele>
        <time>2020-06-05T11:14:15Z</time>
      </trkpt>
      <trkpt lat="47.12784" lon="-2.12222">
        <ele>36.7</ele>
        <time>2020-06-05T11:14:16Z</time>
      </trkpt>
      <trkpt lat="47.12782" lon="-2.12222">
        <ele>36.7</ele>
        <time>2020-06-05T11:14:17Z</time>
      </trkpt>
      <trkpt lat="47.12781" lon="-2.12222">
        <ele>36.7</ele>
        <time>2020-06-05T11:14:18Z</time>
      </trkpt>
      <trkpt lat="47.12778" lon="-2.12226">
        <ele>36.7</ele>
        <time>2020-06-05T11:14:19Z</time>
      </trkpt>
      <trkpt lat="47.12778" lon="-2.12228">
        <ele>36.7</ele>
        <time>2020-06-05T11:14:20Z</time>
      </trkpt>
      <trkpt lat="47.12778" lon="-2.12233">
        <ele>36.7</ele>
        <time>2020-06-05T11:14:21Z</time>
      </trkpt>
      <trkpt lat="47.12779" lon="-2.12237">
        <ele>36.7</ele>
        <time>2020-06-05T11:14:22Z</time>
      </trkpt>
      <trkpt lat="47.12781" lon="-2.12242">
        <ele>36.7</ele>
        <time>2020-06-05T11:14:23Z</time>
      </trkpt>
      <trkpt lat="47.12783" lon="-2.12246">
        <ele>36.7</ele>
        <time>2020-06-05T11:14:24Z</time>
      </trkpt>
      <trkpt lat="47.12784" lon="-2.1225">
        <ele>36.7</ele>
        <time>2020-06-05T11:14:25Z</time>
      </trkpt>
      <trkpt lat="47.12786" lon="-2.12254">
        <ele>36.7</ele>
        <time>2020-06-05T11:14:26Z</time>
      </trkpt>
      <trkpt lat="47.12789" lon="-2.12257">
        <ele>36.7</ele>
        <time>2020-06-05T11:14:27Z</time>
      </trkpt>
      <trkpt lat="47.12791" lon="-2.1226">
        <ele>36.7</ele>
        <time>2020-06-05T11:14:28Z</time>
      </trkpt>
      <trkpt lat="47.12794" lon="-2.12263">
        <ele>36.7</ele>
        <time>2020-06-05T11:14:29Z</time>
      </trkpt>
      <trkpt lat="47.12796" lon="-2.12267">
        <ele>36.7</ele>
        <time>2020-06-05T11:14:30Z</time>
      </trkpt>
      <trkpt lat="47.12799" lon="-2.12272">
        <ele>36.8</ele>
        <time>2020-06-05T11:14:31Z</time>
      </trkpt>
      <trkpt lat="47.12803" lon="-2.12276">
        <ele>36.9</ele>
        <time>2020-06-05T11:14:32Z</time>
      </trkpt>
      <trkpt lat="47.12807" lon="-2.12279">
        <ele>37</ele>
        <time>2020-06-05T11:14:33Z</time>
      </trkpt>
      <trkpt lat="47.1281" lon="-2.12283">
        <ele>37</ele>
        <time>2020-06-05T11:14:34Z</time>
      </trkpt>
      <trkpt lat="47.12812" lon="-2.12287">
        <ele>37.1</ele>
        <time>2020-06-05T11:14:35Z</time>
      </trkpt>
      <trkpt lat="47.12814" lon="-2.12292">
        <ele>37.2</ele>
        <time>2020-06-05T11:14:36Z</time>
      </trkpt>
      <trkpt lat="47.12817" lon="-2.12297">
        <ele>37.3</ele>
        <time>2020-06-05T11:14:37Z</time>
      </trkpt>
      <trkpt lat="47.1282" lon="-2.12301">
        <ele>37.3</ele>
        <time>2020-06-05T11:14:38Z</time>
      </trkpt>
      <trkpt lat="47.12823" lon="-2.12305">
        <ele>37.4</ele>
        <time>2020-06-05T11:14:39Z</time>
      </trkpt>
      <trkpt lat="47.12825" lon="-2.12309">
        <ele>37.4</ele>
        <time>2020-06-05T11:14:40Z</time>
      </trkpt>
      <trkpt lat="47.12828" lon="-2.12314">
        <ele>37.5</ele>
        <time>2020-06-05T11:14:41Z</time>
      </trkpt>
      <trkpt lat="47.12831" lon="-2.12319">
        <ele>37.5</ele>
        <time>2020-06-05T11:14:42Z</time>
      </trkpt>
      <trkpt lat="47.12832" lon="-2.12324">
        <ele>37.5</ele>
        <time>2020-06-05T11:14:43Z</time>
      </trkpt>
      <trkpt lat="47.12834" lon="-2.12329">
        <ele>37.6</ele>
        <time>2020-06-05T11:14:44Z</time>
      </trkpt>
      <trkpt lat="47.12837" lon="-2.12336">
        <ele>37.6</ele>
        <time>2020-06-05T11:14:45Z</time>
      </trkpt>
      <trkpt lat="47.12838" lon="-2.12341">
        <ele>37.7</ele>
        <time>2020-06-05T11:14:46Z</time>
      </trkpt>
      <trkpt lat="47.1284" lon="-2.12347">
        <ele>37.7</ele>
        <time>2020-06-05T11:14:47Z</time>
      </trkpt>
      <trkpt lat="47.12842" lon="-2.12353">
        <ele>37.8</ele>
        <time>2020-06-05T11:14:48Z</time>
      </trkpt>
      <trkpt lat="47.12843" lon="-2.12359">
        <ele>37.8</ele>
        <time>2020-06-05T11:14:49Z</time>
      </trkpt>
      <trkpt lat="47.12844" lon="-2.12365">
        <ele>37.8</ele>
        <time>2020-06-05T11:14:50Z</time>
      </trkpt>
      <trkpt lat="47.12844" lon="-2.12371">
        <ele>37.9</ele>
        <time>2020-06-05T11:14:51Z</time>
      </trkpt>
      <trkpt lat="47.12845" lon="-2.12378">
        <ele>37.9</ele>
        <time>2020-06-05T11:14:52Z</time>
      </trkpt>
      <trkpt lat="47.12846" lon="-2.12384">
        <ele>37.9</ele>
        <time>2020-06-05T11:14:53Z</time>
      </trkpt>
      <trkpt lat="47.12847" lon="-2.1239">
        <ele>37.9</ele>
        <time>2020-06-05T11:14:54Z</time>
      </trkpt>
      <trkpt lat="47.12848" lon="-2.12397">
        <ele>37.9</ele>
        <time>2020-06-05T11:14:55Z</time>
      </trkpt>
      <trkpt lat="47.12849" lon="-2.12403">
        <ele>37.9</ele>
        <time>2020-06-05T11:14:56Z</time>
      </trkpt>
      <trkpt lat="47.1285" lon="-2.1241">
        <ele>37.8</ele>
        <time>2020-06-05T11:14:57Z</time>
      </trkpt>
      <trkpt lat="47.12852" lon="-2.12416">
        <ele>37.8</ele>
        <time>2020-06-05T11:14:58Z</time>
      </trkpt>
      <trkpt lat="47.12852" lon="-2.12423">
        <ele>37.8</ele>
        <time>2020-06-05T11:14:59Z</time>
      </trkpt>
      <trkpt lat="47.12854" lon="-2.12429">
        <ele>37.7</ele>
        <time>2020-06-05T11:15:00Z</time>
      </trkpt>
      <trkpt lat="47.12855" lon="-2.12435">
        <ele>37.7</ele>
        <time>2020-06-05T11:15:01Z</time>
      </trkpt>
      <trkpt lat="47.12856" lon="-2.12441">
        <ele>37.7</ele>
        <time>2020-06-05T11:15:02Z</time>
      </trkpt>
      <trkpt lat="47.12856" lon="-2.12448">
        <ele>37.7</ele>
        <time>2020-06-05T11:15:03Z</time>
      </trkpt>
      <trkpt lat="47.12858" lon="-2.12455">
        <ele>37.7</ele>
        <time>2020-06-05T11:15:04Z</time>
      </trkpt>
      <trkpt lat="47.12859" lon="-2.12462">
        <ele>37.5</ele>
        <time>2020-06-05T11:15:05Z</time>
      </trkpt>
      <trkpt lat="47.1286" lon="-2.12469">
        <ele>37.4</ele>
        <time>2020-06-05T11:15:06Z</time>
      </trkpt>
      <trkpt lat="47.12861" lon="-2.12474">
        <ele>37.3</ele>
        <time>2020-06-05T11:15:07Z</time>
      </trkpt>
      <trkpt lat="47.12861" lon="-2.12479">
        <ele>37.3</ele>
        <time>2020-06-05T11:15:08Z</time>
      </trkpt>
      <trkpt lat="47.12862" lon="-2.12485">
        <ele>37.2</ele>
        <time>2020-06-05T11:15:09Z</time>
      </trkpt>
      <trkpt lat="47.12863" lon="-2.1249">
        <ele>37.1</ele>
        <time>2020-06-05T11:15:10Z</time>
      </trkpt>
      <trkpt lat="47.12864" lon="-2.12495">
        <ele>37.1</ele>
        <time>2020-06-05T11:15:11Z</time>
      </trkpt>
      <trkpt lat="47.12866" lon="-2.12501">
        <ele>37</ele>
        <time>2020-06-05T11:15:12Z</time>
      </trkpt>
      <trkpt lat="47.12867" lon="-2.12506">
        <ele>36.9</ele>
        <time>2020-06-05T11:15:13Z</time>
      </trkpt>
      <trkpt lat="47.12869" lon="-2.12511">
        <ele>36.9</ele>
        <time>2020-06-05T11:15:14Z</time>
      </trkpt>
      <trkpt lat="47.12871" lon="-2.12516">
        <ele>36.8</ele>
        <time>2020-06-05T11:15:15Z</time>
      </trkpt>
      <trkpt lat="47.12873" lon="-2.12523">
        <ele>36.7</ele>
        <time>2020-06-05T11:15:16Z</time>
      </trkpt>
      <trkpt lat="47.12875" lon="-2.12528">
        <ele>36.6</ele>
        <time>2020-06-05T11:15:17Z</time>
      </trkpt>
      <trkpt lat="47.12876" lon="-2.12533">
        <ele>36.5</ele>
        <time>2020-06-05T11:15:18Z</time>
      </trkpt>
      <trkpt lat="47.12877" lon="-2.12539">
        <ele>36.4</ele>
        <time>2020-06-05T11:15:19Z</time>
      </trkpt>
      <trkpt lat="47.12878" lon="-2.12544">
        <ele>36.4</ele>
        <time>2020-06-05T11:15:20Z</time>
      </trkpt>
      <trkpt lat="47.1288" lon="-2.1255">
        <ele>36.3</ele>
        <time>2020-06-05T11:15:21Z</time>
      </trkpt>
      <trkpt lat="47.12882" lon="-2.12554">
        <ele>36.2</ele>
        <time>2020-06-05T11:15:22Z</time>
      </trkpt>
      <trkpt lat="47.12884" lon="-2.1256">
        <ele>36.1</ele>
        <time>2020-06-05T11:15:23Z</time>
      </trkpt>
      <trkpt lat="47.12886" lon="-2.12566">
        <ele>36</ele>
        <time>2020-06-05T11:15:24Z</time>
      </trkpt>
      <trkpt lat="47.12888" lon="-2.12571">
        <ele>36</ele>
        <time>2020-06-05T11:15:25Z</time>
      </trkpt>
      <trkpt lat="47.1289" lon="-2.12577">
        <ele>35.9</ele>
        <time>2020-06-05T11:15:26Z</time>
      </trkpt>
      <trkpt lat="47.12893" lon="-2.12582">
        <ele>35.8</ele>
        <time>2020-06-05T11:15:27Z</time>
      </trkpt>
      <trkpt lat="47.12897" lon="-2.12588">
        <ele>35.7</ele>
        <time>2020-06-05T11:15:28Z</time>
      </trkpt>
      <trkpt lat="47.12901" lon="-2.12593">
        <ele>35.7</ele>
        <time>2020-06-05T11:15:29Z</time>
      </trkpt>
      <trkpt lat="47.12905" lon="-2.12598">
        <ele>35.6</ele>
        <time>2020-06-05T11:15:30Z</time>
      </trkpt>
      <trkpt lat="47.12909" lon="-2.12603">
        <ele>35.5</ele>
        <time>2020-06-05T11:15:31Z</time>
      </trkpt>
      <trkpt lat="47.12913" lon="-2.12607">
        <ele>35.5</ele>
        <time>2020-06-05T11:15:32Z</time>
      </trkpt>
      <trkpt lat="47.12916" lon="-2.12612">
        <ele>35.4</ele>
        <time>2020-06-05T11:15:33Z</time>
      </trkpt>
      <trkpt lat="47.1292" lon="-2.12617">
        <ele>35.4</ele>
        <time>2020-06-05T11:15:34Z</time>
      </trkpt>
      <trkpt lat="47.12925" lon="-2.12623">
        <ele>35.3</ele>
        <time>2020-06-05T11:15:35Z</time>
      </trkpt>
      <trkpt lat="47.12929" lon="-2.12629">
        <ele>35.3</ele>
        <time>2020-06-05T11:15:36Z</time>
      </trkpt>
      <trkpt lat="47.12932" lon="-2.12633">
        <ele>35.3</ele>
        <time>2020-06-05T11:15:37Z</time>
      </trkpt>
      <trkpt lat="47.12936" lon="-2.12638">
        <ele>35.3</ele>
        <time>2020-06-05T11:15:38Z</time>
      </trkpt>
      <trkpt lat="47.12939" lon="-2.12642">
        <ele>35.3</ele>
        <time>2020-06-05T11:15:39Z</time>
      </trkpt>
      <trkpt lat="47.12942" lon="-2.12647">
        <ele>35.4</ele>
        <time>2020-06-05T11:15:40Z</time>
      </trkpt>
      <trkpt lat="47.12946" lon="-2.12652">
        <ele>35.4</ele>
        <time>2020-06-05T11:15:41Z</time>
      </trkpt>
      <trkpt lat="47.12949" lon="-2.12656">
        <ele>35.4</ele>
        <time>2020-06-05T11:15:42Z</time>
      </trkpt>
      <trkpt lat="47.12952" lon="-2.1266">
        <ele>35.4</ele>
        <time>2020-06-05T11:15:43Z</time>
      </trkpt>
      <trkpt lat="47.12955" lon="-2.12665">
        <ele>35.5</ele>
        <time>2020-06-05T11:15:44Z</time>
      </trkpt>
      <trkpt lat="47.12958" lon="-2.12669">
        <ele>35.5</ele>
        <time>2020-06-05T11:15:45Z</time>
      </trkpt>
      <trkpt lat="47.12961" lon="-2.12673">
        <ele>35.5</ele>
        <time>2020-06-05T11:15:46Z</time>
      </trkpt>
      <trkpt lat="47.12963" lon="-2.12677">
        <ele>35.6</ele>
        <time>2020-06-05T11:15:47Z</time>
      </trkpt>
      <trkpt lat="47.12966" lon="-2.12679">
        <ele>35.6</ele>
        <time>2020-06-05T11:15:48Z</time>
      </trkpt>
      <trkpt lat="47.12967" lon="-2.12684">
        <ele>35.6</ele>
        <time>2020-06-05T11:15:49Z</time>
      </trkpt>
      <trkpt lat="47.12967" lon="-2.12686">
        <ele>35.6</ele>
        <time>2020-06-05T11:15:50Z</time>
      </trkpt>
      <trkpt lat="47.1297" lon="-2.1269">
        <ele>35.7</ele>
        <time>2020-06-05T11:15:51Z</time>
      </trkpt>
      <trkpt lat="47.12972" lon="-2.12694">
        <ele>35.7</ele>
        <time>2020-06-05T11:15:52Z</time>
      </trkpt>
      <trkpt lat="47.12975" lon="-2.12699">
        <ele>35.7</ele>
        <time>2020-06-05T11:15:53Z</time>
      </trkpt>
      <trkpt lat="47.12977" lon="-2.12703">
        <ele>35.6</ele>
        <time>2020-06-05T11:15:54Z</time>
      </trkpt>
      <trkpt lat="47.12979" lon="-2.12707">
        <ele>35.6</ele>
        <time>2020-06-05T11:15:55Z</time>
      </trkpt>
      <trkpt lat="47.12981" lon="-2.12713">
        <ele>35.6</ele>
        <time>2020-06-05T11:15:56Z</time>
      </trkpt>
      <trkpt lat="47.12983" lon="-2.12719">
        <ele>35.6</ele>
        <time>2020-06-05T11:15:57Z</time>
      </trkpt>
      <trkpt lat="47.12985" lon="-2.12725">
        <ele>35.6</ele>
        <time>2020-06-05T11:15:58Z</time>
      </trkpt>
      <trkpt lat="47.12987" lon="-2.1273">
        <ele>35.6</ele>
        <time>2020-06-05T11:15:59Z</time>
      </trkpt>
      <trkpt lat="47.1299" lon="-2.12734">
        <ele>35.6</ele>
        <time>2020-06-05T11:16:00Z</time>
      </trkpt>
      <trkpt lat="47.12992" lon="-2.1274">
        <ele>35.6</ele>
        <time>2020-06-05T11:16:01Z</time>
      </trkpt>
      <trkpt lat="47.12994" lon="-2.12745">
        <ele>35.7</ele>
        <time>2020-06-05T11:16:02Z</time>
      </trkpt>
      <trkpt lat="47.12996" lon="-2.1275">
        <ele>35.7</ele>
        <time>2020-06-05T11:16:03Z</time>
      </trkpt>
      <trkpt lat="47.12999" lon="-2.12757">
        <ele>35.7</ele>
        <time>2020-06-05T11:16:04Z</time>
      </trkpt>
      <trkpt lat="47.13001" lon="-2.12763">
        <ele>35.8</ele>
        <time>2020-06-05T11:16:05Z</time>
      </trkpt>
      <trkpt lat="47.13004" lon="-2.12769">
        <ele>35.8</ele>
        <time>2020-06-05T11:16:06Z</time>
      </trkpt>
      <trkpt lat="47.13007" lon="-2.12774">
        <ele>35.9</ele>
        <time>2020-06-05T11:16:07Z</time>
      </trkpt>
      <trkpt lat="47.1301" lon="-2.1278">
        <ele>35.9</ele>
        <time>2020-06-05T11:16:08Z</time>
      </trkpt>
      <trkpt lat="47.13012" lon="-2.12785">
        <ele>35.9</ele>
        <time>2020-06-05T11:16:09Z</time>
      </trkpt>
      <trkpt lat="47.13017" lon="-2.12789">
        <ele>36</ele>
        <time>2020-06-05T11:16:10Z</time>
      </trkpt>
      <trkpt lat="47.1302" lon="-2.12794">
        <ele>36</ele>
        <time>2020-06-05T11:16:11Z</time>
      </trkpt>
      <trkpt lat="47.13023" lon="-2.12799">
        <ele>36</ele>
        <time>2020-06-05T11:16:12Z</time>
      </trkpt>
      <trkpt lat="47.13027" lon="-2.12803">
        <ele>36.1</ele>
        <time>2020-06-05T11:16:13Z</time>
      </trkpt>
      <trkpt lat="47.1303" lon="-2.12808">
        <ele>36.1</ele>
        <time>2020-06-05T11:16:14Z</time>
      </trkpt>
      <trkpt lat="47.13034" lon="-2.12814">
        <ele>36.1</ele>
        <time>2020-06-05T11:16:15Z</time>
      </trkpt>
      <trkpt lat="47.13037" lon="-2.12819">
        <ele>36.1</ele>
        <time>2020-06-05T11:16:16Z</time>
      </trkpt>
      <trkpt lat="47.13041" lon="-2.12825">
        <ele>36.1</ele>
        <time>2020-06-05T11:16:17Z</time>
      </trkpt>
      <trkpt lat="47.13043" lon="-2.1283">
        <ele>36.1</ele>
        <time>2020-06-05T11:16:18Z</time>
      </trkpt>
      <trkpt lat="47.13047" lon="-2.12835">
        <ele>36.1</ele>
        <time>2020-06-05T11:16:19Z</time>
      </trkpt>
      <trkpt lat="47.13052" lon="-2.12841">
        <ele>36.1</ele>
        <time>2020-06-05T11:16:20Z</time>
      </trkpt>
      <trkpt lat="47.13056" lon="-2.12847">
        <ele>36.1</ele>
        <time>2020-06-05T11:16:21Z</time>
      </trkpt>
      <trkpt lat="47.13059" lon="-2.12854">
        <ele>36.1</ele>
        <time>2020-06-05T11:16:22Z</time>
      </trkpt>
      <trkpt lat="47.13062" lon="-2.12859">
        <ele>36.1</ele>
        <time>2020-06-05T11:16:23Z</time>
      </trkpt>
      <trkpt lat="47.13065" lon="-2.12866">
        <ele>36.1</ele>
        <time>2020-06-05T11:16:24Z</time>
      </trkpt>
      <trkpt lat="47.13068" lon="-2.12872">
        <ele>36</ele>
        <time>2020-06-05T11:16:25Z</time>
      </trkpt>
      <trkpt lat="47.13072" lon="-2.12878">
        <ele>36</ele>
        <time>2020-06-05T11:16:26Z</time>
      </trkpt>
      <trkpt lat="47.13076" lon="-2.12883">
        <ele>36</ele>
        <time>2020-06-05T11:16:27Z</time>
      </trkpt>
      <trkpt lat="47.13079" lon="-2.12889">
        <ele>36</ele>
        <time>2020-06-05T11:16:28Z</time>
      </trkpt>
      <trkpt lat="47.13082" lon="-2.12894">
        <ele>36</ele>
        <time>2020-06-05T11:16:29Z</time>
      </trkpt>
      <trkpt lat="47.13086" lon="-2.12898">
        <ele>36</ele>
        <time>2020-06-05T11:16:30Z</time>
      </trkpt>
      <trkpt lat="47.13089" lon="-2.12903">
        <ele>36</ele>
        <time>2020-06-05T11:16:31Z</time>
      </trkpt>
      <trkpt lat="47.13091" lon="-2.12908">
        <ele>36</ele>
        <time>2020-06-05T11:16:32Z</time>
      </trkpt>
      <trkpt lat="47.13094" lon="-2.12913">
        <ele>36</ele>
        <time>2020-06-05T11:16:33Z</time>
      </trkpt>
      <trkpt lat="47.13097" lon="-2.12918">
        <ele>36</ele>
        <time>2020-06-05T11:16:34Z</time>
      </trkpt>
      <trkpt lat="47.131" lon="-2.12922">
        <ele>35.9</ele>
        <time>2020-06-05T11:16:35Z</time>
      </trkpt>
      <trkpt lat="47.13103" lon="-2.12927">
        <ele>35.9</ele>
        <time>2020-06-05T11:16:36Z</time>
      </trkpt>
      <trkpt lat="47.13106" lon="-2.12931">
        <ele>35.9</ele>
        <time>2020-06-05T11:16:37Z</time>
      </trkpt>
      <trkpt lat="47.13109" lon="-2.12935">
        <ele>35.9</ele>
        <time>2020-06-05T11:16:38Z</time>
      </trkpt>
      <trkpt lat="47.13111" lon="-2.12939">
        <ele>35.9</ele>
        <time>2020-06-05T11:16:39Z</time>
      </trkpt>
      <trkpt lat="47.13114" lon="-2.12944">
        <ele>35.9</ele>
        <time>2020-06-05T11:16:40Z</time>
      </trkpt>
      <trkpt lat="47.13116" lon="-2.12949">
        <ele>35.9</ele>
        <time>2020-06-05T11:16:41Z</time>
      </trkpt>
      <trkpt lat="47.13119" lon="-2.12954">
        <ele>35.8</ele>
        <time>2020-06-05T11:16:42Z</time>
      </trkpt>
      <trkpt lat="47.13122" lon="-2.12959">
        <ele>35.8</ele>
        <time>2020-06-05T11:16:43Z</time>
      </trkpt>
      <trkpt lat="47.13125" lon="-2.12964">
        <ele>35.7</ele>
        <time>2020-06-05T11:16:44Z</time>
      </trkpt>
      <trkpt lat="47.13127" lon="-2.1297">
        <ele>35.7</ele>
        <time>2020-06-05T11:16:45Z</time>
      </trkpt>
      <trkpt lat="47.1313" lon="-2.12975">
        <ele>35.6</ele>
        <time>2020-06-05T11:16:46Z</time>
      </trkpt>
      <trkpt lat="47.13133" lon="-2.1298">
        <ele>35.6</ele>
        <time>2020-06-05T11:16:47Z</time>
      </trkpt>
      <trkpt lat="47.13135" lon="-2.12986">
        <ele>35.6</ele>
        <time>2020-06-05T11:16:48Z</time>
      </trkpt>
      <trkpt lat="47.13137" lon="-2.12991">
        <ele>35.6</ele>
        <time>2020-06-05T11:16:49Z</time>
      </trkpt>
      <trkpt lat="47.1314" lon="-2.12995">
        <ele>35.6</ele>
        <time>2020-06-05T11:16:50Z</time>
      </trkpt>
      <trkpt lat="47.13144" lon="-2.13">
        <ele>35.6</ele>
        <time>2020-06-05T11:16:51Z</time>
      </trkpt>
      <trkpt lat="47.13147" lon="-2.13004">
        <ele>35.6</ele>
        <time>2020-06-05T11:16:52Z</time>
      </trkpt>
      <trkpt lat="47.13149" lon="-2.13008">
        <ele>35.6</ele>
        <time>2020-06-05T11:16:53Z</time>
      </trkpt>
      <trkpt lat="47.13152" lon="-2.13011">
        <ele>35.6</ele>
        <time>2020-06-05T11:16:54Z</time>
      </trkpt>
      <trkpt lat="47.13153" lon="-2.13012">
        <ele>35.6</ele>
        <time>2020-06-05T11:16:55Z</time>
      </trkpt>
      <trkpt lat="47.13155" lon="-2.13016">
        <ele>35.6</ele>
        <time>2020-06-05T11:16:56Z</time>
      </trkpt>
      <trkpt lat="47.13156" lon="-2.13017">
        <ele>35.6</ele>
        <time>2020-06-05T11:16:57Z</time>
      </trkpt>
      <trkpt lat="47.13158" lon="-2.1302">
        <ele>35.5</ele>
        <time>2020-06-05T11:16:58Z</time>
      </trkpt>
      <trkpt lat="47.1316" lon="-2.13023">
        <ele>35.4</ele>
        <time>2020-06-05T11:16:59Z</time>
      </trkpt>
      <trkpt lat="47.13163" lon="-2.13026">
        <ele>35.4</ele>
        <time>2020-06-05T11:17:00Z</time>
      </trkpt>
      <trkpt lat="47.13165" lon="-2.1303">
        <ele>35.3</ele>
        <time>2020-06-05T11:17:01Z</time>
      </trkpt>
      <trkpt lat="47.13168" lon="-2.13033">
        <ele>35.3</ele>
        <time>2020-06-05T11:17:02Z</time>
      </trkpt>
      <trkpt lat="47.13171" lon="-2.13036">
        <ele>35.3</ele>
        <time>2020-06-05T11:17:03Z</time>
      </trkpt>
      <trkpt lat="47.13174" lon="-2.13039">
        <ele>35.3</ele>
        <time>2020-06-05T11:17:04Z</time>
      </trkpt>
      <trkpt lat="47.13177" lon="-2.13043">
        <ele>35.2</ele>
        <time>2020-06-05T11:17:05Z</time>
      </trkpt>
      <trkpt lat="47.13181" lon="-2.13045">
        <ele>35.2</ele>
        <time>2020-06-05T11:17:06Z</time>
      </trkpt>
      <trkpt lat="47.13184" lon="-2.13049">
        <ele>35.2</ele>
        <time>2020-06-05T11:17:07Z</time>
      </trkpt>
      <trkpt lat="47.13188" lon="-2.13053">
        <ele>35.1</ele>
        <time>2020-06-05T11:17:08Z</time>
      </trkpt>
      <trkpt lat="47.13191" lon="-2.13058">
        <ele>35</ele>
        <time>2020-06-05T11:17:09Z</time>
      </trkpt>
      <trkpt lat="47.13194" lon="-2.13061">
        <ele>34.9</ele>
        <time>2020-06-05T11:17:10Z</time>
      </trkpt>
      <trkpt lat="47.13197" lon="-2.13064">
        <ele>34.8</ele>
        <time>2020-06-05T11:17:11Z</time>
      </trkpt>
      <trkpt lat="47.13201" lon="-2.13067">
        <ele>34.6</ele>
        <time>2020-06-05T11:17:12Z</time>
      </trkpt>
      <trkpt lat="47.13204" lon="-2.13071">
        <ele>34.5</ele>
        <time>2020-06-05T11:17:13Z</time>
      </trkpt>
      <trkpt lat="47.13208" lon="-2.13075">
        <ele>34.4</ele>
        <time>2020-06-05T11:17:14Z</time>
      </trkpt>
      <trkpt lat="47.13211" lon="-2.13079">
        <ele>34.3</ele>
        <time>2020-06-05T11:17:15Z</time>
      </trkpt>
      <trkpt lat="47.13215" lon="-2.13084">
        <ele>34.2</ele>
        <time>2020-06-05T11:17:16Z</time>
      </trkpt>
      <trkpt lat="47.13219" lon="-2.13089">
        <ele>34.1</ele>
        <time>2020-06-05T11:17:17Z</time>
      </trkpt>
      <trkpt lat="47.13222" lon="-2.13094">
        <ele>34</ele>
        <time>2020-06-05T11:17:18Z</time>
      </trkpt>
      <trkpt lat="47.13225" lon="-2.13098">
        <ele>34</ele>
        <time>2020-06-05T11:17:19Z</time>
      </trkpt>
      <trkpt lat="47.13229" lon="-2.13103">
        <ele>33.9</ele>
        <time>2020-06-05T11:17:20Z</time>
      </trkpt>
      <trkpt lat="47.13232" lon="-2.13107">
        <ele>33.9</ele>
        <time>2020-06-05T11:17:21Z</time>
      </trkpt>
      <trkpt lat="47.13236" lon="-2.13111">
        <ele>33.8</ele>
        <time>2020-06-05T11:17:22Z</time>
      </trkpt>
      <trkpt lat="47.13239" lon="-2.13116">
        <ele>33.7</ele>
        <time>2020-06-05T11:17:23Z</time>
      </trkpt>
      <trkpt lat="47.13243" lon="-2.13121">
        <ele>33.6</ele>
        <time>2020-06-05T11:17:24Z</time>
      </trkpt>
      <trkpt lat="47.13246" lon="-2.13126">
        <ele>33.5</ele>
        <time>2020-06-05T11:17:25Z</time>
      </trkpt>
      <trkpt lat="47.1325" lon="-2.13131">
        <ele>33.4</ele>
        <time>2020-06-05T11:17:26Z</time>
      </trkpt>
      <trkpt lat="47.13253" lon="-2.13136">
        <ele>33.4</ele>
        <time>2020-06-05T11:17:27Z</time>
      </trkpt>
      <trkpt lat="47.13257" lon="-2.13141">
        <ele>33.3</ele>
        <time>2020-06-05T11:17:28Z</time>
      </trkpt>
      <trkpt lat="47.1326" lon="-2.13146">
        <ele>33.3</ele>
        <time>2020-06-05T11:17:29Z</time>
      </trkpt>
      <trkpt lat="47.13263" lon="-2.13151">
        <ele>33.3</ele>
        <time>2020-06-05T11:17:30Z</time>
      </trkpt>
      <trkpt lat="47.13267" lon="-2.13157">
        <ele>33.3</ele>
        <time>2020-06-05T11:17:31Z</time>
      </trkpt>
      <trkpt lat="47.1327" lon="-2.13161">
        <ele>33.3</ele>
        <time>2020-06-05T11:17:32Z</time>
      </trkpt>
      <trkpt lat="47.13273" lon="-2.13166">
        <ele>33.3</ele>
        <time>2020-06-05T11:17:33Z</time>
      </trkpt>
      <trkpt lat="47.13277" lon="-2.13171">
        <ele>33.2</ele>
        <time>2020-06-05T11:17:34Z</time>
      </trkpt>
      <trkpt lat="47.13281" lon="-2.13177">
        <ele>33.2</ele>
        <time>2020-06-05T11:17:35Z</time>
      </trkpt>
      <trkpt lat="47.13285" lon="-2.13181">
        <ele>33.1</ele>
        <time>2020-06-05T11:17:36Z</time>
      </trkpt>
      <trkpt lat="47.13288" lon="-2.13185">
        <ele>33.1</ele>
        <time>2020-06-05T11:17:37Z</time>
      </trkpt>
      <trkpt lat="47.13292" lon="-2.13189">
        <ele>33</ele>
        <time>2020-06-05T11:17:38Z</time>
      </trkpt>
      <trkpt lat="47.13296" lon="-2.13193">
        <ele>33</ele>
        <time>2020-06-05T11:17:39Z</time>
      </trkpt>
      <trkpt lat="47.133" lon="-2.13196">
        <ele>33</ele>
        <time>2020-06-05T11:17:40Z</time>
      </trkpt>
      <trkpt lat="47.13304" lon="-2.132">
        <ele>33.1</ele>
        <time>2020-06-05T11:17:41Z</time>
      </trkpt>
      <trkpt lat="47.13309" lon="-2.13203">
        <ele>33.1</ele>
        <time>2020-06-05T11:17:42Z</time>
      </trkpt>
      <trkpt lat="47.13312" lon="-2.13206">
        <ele>33.1</ele>
        <time>2020-06-05T11:17:43Z</time>
      </trkpt>
      <trkpt lat="47.13316" lon="-2.13208">
        <ele>33.2</ele>
        <time>2020-06-05T11:17:44Z</time>
      </trkpt>
      <trkpt lat="47.1332" lon="-2.13212">
        <ele>33.2</ele>
        <time>2020-06-05T11:17:45Z</time>
      </trkpt>
      <trkpt lat="47.13323" lon="-2.13216">
        <ele>33.2</ele>
        <time>2020-06-05T11:17:46Z</time>
      </trkpt>
      <trkpt lat="47.13325" lon="-2.13219">
        <ele>33.2</ele>
        <time>2020-06-05T11:17:47Z</time>
      </trkpt>
      <trkpt lat="47.13329" lon="-2.13222">
        <ele>33.2</ele>
        <time>2020-06-05T11:17:48Z</time>
      </trkpt>
      <trkpt lat="47.13332" lon="-2.13227">
        <ele>33.2</ele>
        <time>2020-06-05T11:17:49Z</time>
      </trkpt>
      <trkpt lat="47.13335" lon="-2.13231">
        <ele>33.2</ele>
        <time>2020-06-05T11:17:50Z</time>
      </trkpt>
      <trkpt lat="47.13338" lon="-2.13235">
        <ele>33.2</ele>
        <time>2020-06-05T11:17:51Z</time>
      </trkpt>
      <trkpt lat="47.13341" lon="-2.1324">
        <ele>33</ele>
        <time>2020-06-05T11:17:52Z</time>
      </trkpt>
      <trkpt lat="47.13343" lon="-2.13245">
        <ele>32.9</ele>
        <time>2020-06-05T11:17:53Z</time>
      </trkpt>
      <trkpt lat="47.13346" lon="-2.1325">
        <ele>32.9</ele>
        <time>2020-06-05T11:17:54Z</time>
      </trkpt>
      <trkpt lat="47.13348" lon="-2.13255">
        <ele>32.8</ele>
        <time>2020-06-05T11:17:55Z</time>
      </trkpt>
      <trkpt lat="47.13351" lon="-2.13259">
        <ele>32.8</ele>
        <time>2020-06-05T11:17:56Z</time>
      </trkpt>
      <trkpt lat="47.13354" lon="-2.13264">
        <ele>32.7</ele>
        <time>2020-06-05T11:17:57Z</time>
      </trkpt>
      <trkpt lat="47.13355" lon="-2.13271">
        <ele>32.7</ele>
        <time>2020-06-05T11:17:58Z</time>
      </trkpt>
      <trkpt lat="47.13357" lon="-2.13278">
        <ele>32.6</ele>
        <time>2020-06-05T11:17:59Z</time>
      </trkpt>
      <trkpt lat="47.13359" lon="-2.13285">
        <ele>32.5</ele>
        <time>2020-06-05T11:18:00Z</time>
      </trkpt>
      <trkpt lat="47.13362" lon="-2.13292">
        <ele>32.5</ele>
        <time>2020-06-05T11:18:01Z</time>
      </trkpt>
      <trkpt lat="47.13364" lon="-2.13299">
        <ele>32.5</ele>
        <time>2020-06-05T11:18:02Z</time>
      </trkpt>
      <trkpt lat="47.13366" lon="-2.13305">
        <ele>32.5</ele>
        <time>2020-06-05T11:18:03Z</time>
      </trkpt>
      <trkpt lat="47.13368" lon="-2.13311">
        <ele>32.5</ele>
        <time>2020-06-05T11:18:04Z</time>
      </trkpt>
      <trkpt lat="47.1337" lon="-2.13317">
        <ele>32.5</ele>
        <time>2020-06-05T11:18:05Z</time>
      </trkpt>
      <trkpt lat="47.13372" lon="-2.13323">
        <ele>32.6</ele>
        <time>2020-06-05T11:18:06Z</time>
      </trkpt>
      <trkpt lat="47.13373" lon="-2.1333">
        <ele>32.6</ele>
        <time>2020-06-05T11:18:07Z</time>
      </trkpt>
      <trkpt lat="47.13374" lon="-2.13337">
        <ele>32.7</ele>
        <time>2020-06-05T11:18:08Z</time>
      </trkpt>
      <trkpt lat="47.13376" lon="-2.13345">
        <ele>32.7</ele>
        <time>2020-06-05T11:18:09Z</time>
      </trkpt>
      <trkpt lat="47.13377" lon="-2.13352">
        <ele>32.8</ele>
        <time>2020-06-05T11:18:10Z</time>
      </trkpt>
      <trkpt lat="47.13379" lon="-2.13359">
        <ele>32.9</ele>
        <time>2020-06-05T11:18:11Z</time>
      </trkpt>
      <trkpt lat="47.1338" lon="-2.13363">
        <ele>33</ele>
        <time>2020-06-05T11:18:12Z</time>
      </trkpt>
      <trkpt lat="47.13383" lon="-2.13368">
        <ele>33.1</ele>
        <time>2020-06-05T11:18:13Z</time>
      </trkpt>
      <trkpt lat="47.13385" lon="-2.13373">
        <ele>33.2</ele>
        <time>2020-06-05T11:18:14Z</time>
      </trkpt>
      <trkpt lat="47.13388" lon="-2.13378">
        <ele>33.3</ele>
        <time>2020-06-05T11:18:15Z</time>
      </trkpt>
      <trkpt lat="47.13391" lon="-2.13383">
        <ele>33.3</ele>
        <time>2020-06-05T11:18:16Z</time>
      </trkpt>
      <trkpt lat="47.13396" lon="-2.13387">
        <ele>33.4</ele>
        <time>2020-06-05T11:18:17Z</time>
      </trkpt>
      <trkpt lat="47.134" lon="-2.13388">
        <ele>33.4</ele>
        <time>2020-06-05T11:18:18Z</time>
      </trkpt>
      <trkpt lat="47.13405" lon="-2.13385">
        <ele>33.5</ele>
        <time>2020-06-05T11:18:19Z</time>
      </trkpt>
      <trkpt lat="47.13411" lon="-2.13382">
        <ele>33.6</ele>
        <time>2020-06-05T11:18:20Z</time>
      </trkpt>
      <trkpt lat="47.13416" lon="-2.1338">
        <ele>33.7</ele>
        <time>2020-06-05T11:18:21Z</time>
      </trkpt>
      <trkpt lat="47.1342" lon="-2.13378">
        <ele>33.8</ele>
        <time>2020-06-05T11:18:22Z</time>
      </trkpt>
      <trkpt lat="47.13425" lon="-2.13375">
        <ele>33.8</ele>
        <time>2020-06-05T11:18:23Z</time>
      </trkpt>
      <trkpt lat="47.1343" lon="-2.13371">
        <ele>33.9</ele>
        <time>2020-06-05T11:18:24Z</time>
      </trkpt>
      <trkpt lat="47.13434" lon="-2.13368">
        <ele>33.9</ele>
        <time>2020-06-05T11:18:25Z</time>
      </trkpt>
      <trkpt lat="47.13438" lon="-2.13364">
        <ele>34</ele>
        <time>2020-06-05T11:18:26Z</time>
      </trkpt>
      <trkpt lat="47.13442" lon="-2.13361">
        <ele>34</ele>
        <time>2020-06-05T11:18:27Z</time>
      </trkpt>
      <trkpt lat="47.13446" lon="-2.13358">
        <ele>34.1</ele>
        <time>2020-06-05T11:18:28Z</time>
      </trkpt>
      <trkpt lat="47.13451" lon="-2.13356">
        <ele>34.2</ele>
        <time>2020-06-05T11:18:29Z</time>
      </trkpt>
      <trkpt lat="47.13456" lon="-2.13355">
        <ele>34.2</ele>
        <time>2020-06-05T11:18:30Z</time>
      </trkpt>
      <trkpt lat="47.1346" lon="-2.13355">
        <ele>34.3</ele>
        <time>2020-06-05T11:18:31Z</time>
      </trkpt>
      <trkpt lat="47.13464" lon="-2.13356">
        <ele>34.3</ele>
        <time>2020-06-05T11:18:32Z</time>
      </trkpt>
      <trkpt lat="47.13467" lon="-2.13359">
        <ele>34.4</ele>
        <time>2020-06-05T11:18:33Z</time>
      </trkpt>
      <trkpt lat="47.13471" lon="-2.13363">
        <ele>34.4</ele>
        <time>2020-06-05T11:18:34Z</time>
      </trkpt>
      <trkpt lat="47.13475" lon="-2.13368">
        <ele>34.5</ele>
        <time>2020-06-05T11:18:35Z</time>
      </trkpt>
      <trkpt lat="47.13479" lon="-2.13374">
        <ele>34.6</ele>
        <time>2020-06-05T11:18:36Z</time>
      </trkpt>
      <trkpt lat="47.13482" lon="-2.13379">
        <ele>34.6</ele>
        <time>2020-06-05T11:18:37Z</time>
      </trkpt>
      <trkpt lat="47.13485" lon="-2.13384">
        <ele>34.7</ele>
        <time>2020-06-05T11:18:38Z</time>
      </trkpt>
      <trkpt lat="47.13489" lon="-2.13389">
        <ele>34.7</ele>
        <time>2020-06-05T11:18:39Z</time>
      </trkpt>
      <trkpt lat="47.13492" lon="-2.13395">
        <ele>34.7</ele>
        <time>2020-06-05T11:18:40Z</time>
      </trkpt>
      <trkpt lat="47.13497" lon="-2.134">
        <ele>34.7</ele>
        <time>2020-06-05T11:18:41Z</time>
      </trkpt>
      <trkpt lat="47.13501" lon="-2.13406">
        <ele>34.7</ele>
        <time>2020-06-05T11:18:42Z</time>
      </trkpt>
      <trkpt lat="47.13506" lon="-2.13411">
        <ele>34.7</ele>
        <time>2020-06-05T11:18:43Z</time>
      </trkpt>
      <trkpt lat="47.1351" lon="-2.13417">
        <ele>34.7</ele>
        <time>2020-06-05T11:18:44Z</time>
      </trkpt>
      <trkpt lat="47.13514" lon="-2.13422">
        <ele>34.6</ele>
        <time>2020-06-05T11:18:45Z</time>
      </trkpt>
      <trkpt lat="47.13519" lon="-2.13426">
        <ele>34.6</ele>
        <time>2020-06-05T11:18:46Z</time>
      </trkpt>
      <trkpt lat="47.13522" lon="-2.13431">
        <ele>34.6</ele>
        <time>2020-06-05T11:18:47Z</time>
      </trkpt>
      <trkpt lat="47.13526" lon="-2.13435">
        <ele>34.5</ele>
        <time>2020-06-05T11:18:48Z</time>
      </trkpt>
      <trkpt lat="47.13529" lon="-2.13439">
        <ele>34.5</ele>
        <time>2020-06-05T11:18:49Z</time>
      </trkpt>
      <trkpt lat="47.13533" lon="-2.13443">
        <ele>34.4</ele>
        <time>2020-06-05T11:18:50Z</time>
      </trkpt>
      <trkpt lat="47.13537" lon="-2.13448">
        <ele>34.3</ele>
        <time>2020-06-05T11:18:51Z</time>
      </trkpt>
      <trkpt lat="47.1354" lon="-2.13453">
        <ele>34.3</ele>
        <time>2020-06-05T11:18:52Z</time>
      </trkpt>
      <trkpt lat="47.13543" lon="-2.13459">
        <ele>34.2</ele>
        <time>2020-06-05T11:18:53Z</time>
      </trkpt>
      <trkpt lat="47.13547" lon="-2.13464">
        <ele>34.2</ele>
        <time>2020-06-05T11:18:54Z</time>
      </trkpt>
      <trkpt lat="47.13549" lon="-2.13471">
        <ele>34.1</ele>
        <time>2020-06-05T11:18:55Z</time>
      </trkpt>
      <trkpt lat="47.13553" lon="-2.13476">
        <ele>34.1</ele>
        <time>2020-06-05T11:18:56Z</time>
      </trkpt>
      <trkpt lat="47.13556" lon="-2.1348">
        <ele>34.1</ele>
        <time>2020-06-05T11:18:57Z</time>
      </trkpt>
      <trkpt lat="47.13559" lon="-2.13485">
        <ele>34</ele>
        <time>2020-06-05T11:18:58Z</time>
      </trkpt>
      <trkpt lat="47.13562" lon="-2.13489">
        <ele>34</ele>
        <time>2020-06-05T11:18:59Z</time>
      </trkpt>
      <trkpt lat="47.13565" lon="-2.13494">
        <ele>33.9</ele>
        <time>2020-06-05T11:19:00Z</time>
      </trkpt>
      <trkpt lat="47.13568" lon="-2.13498">
        <ele>33.8</ele>
        <time>2020-06-05T11:19:01Z</time>
      </trkpt>
      <trkpt lat="47.13571" lon="-2.13502">
        <ele>33.7</ele>
        <time>2020-06-05T11:19:02Z</time>
      </trkpt>
      <trkpt lat="47.13576" lon="-2.13504">
        <ele>33.6</ele>
        <time>2020-06-05T11:19:03Z</time>
      </trkpt>
      <trkpt lat="47.1358" lon="-2.13507">
        <ele>33.5</ele>
        <time>2020-06-05T11:19:04Z</time>
      </trkpt>
      <trkpt lat="47.13585" lon="-2.13509">
        <ele>33.4</ele>
        <time>2020-06-05T11:19:05Z</time>
      </trkpt>
      <trkpt lat="47.13591" lon="-2.13511">
        <ele>33.3</ele>
        <time>2020-06-05T11:19:06Z</time>
      </trkpt>
      <trkpt lat="47.13597" lon="-2.1351">
        <ele>33.2</ele>
        <time>2020-06-05T11:19:07Z</time>
      </trkpt>
      <trkpt lat="47.13603" lon="-2.1351">
        <ele>33.1</ele>
        <time>2020-06-05T11:19:08Z</time>
      </trkpt>
      <trkpt lat="47.13608" lon="-2.1351">
        <ele>33</ele>
        <time>2020-06-05T11:19:09Z</time>
      </trkpt>
      <trkpt lat="47.13612" lon="-2.13512">
        <ele>32.9</ele>
        <time>2020-06-05T11:19:10Z</time>
      </trkpt>
      <trkpt lat="47.13616" lon="-2.13513">
        <ele>32.8</ele>
        <time>2020-06-05T11:19:11Z</time>
      </trkpt>
      <trkpt lat="47.13621" lon="-2.13514">
        <ele>32.7</ele>
        <time>2020-06-05T11:19:12Z</time>
      </trkpt>
      <trkpt lat="47.13626" lon="-2.13515">
        <ele>32.6</ele>
        <time>2020-06-05T11:19:13Z</time>
      </trkpt>
      <trkpt lat="47.13632" lon="-2.13515">
        <ele>32.5</ele>
        <time>2020-06-05T11:19:14Z</time>
      </trkpt>
      <trkpt lat="47.13637" lon="-2.13515">
        <ele>32.4</ele>
        <time>2020-06-05T11:19:15Z</time>
      </trkpt>
      <trkpt lat="47.13643" lon="-2.13514">
        <ele>32.3</ele>
        <time>2020-06-05T11:19:16Z</time>
      </trkpt>
      <trkpt lat="47.13647" lon="-2.13514">
        <ele>32.2</ele>
        <time>2020-06-05T11:19:17Z</time>
      </trkpt>
      <trkpt lat="47.13652" lon="-2.13514">
        <ele>32.2</ele>
        <time>2020-06-05T11:19:18Z</time>
      </trkpt>
      <trkpt lat="47.13657" lon="-2.13514">
        <ele>32.2</ele>
        <time>2020-06-05T11:19:19Z</time>
      </trkpt>
      <trkpt lat="47.13663" lon="-2.13513">
        <ele>32.2</ele>
        <time>2020-06-05T11:19:20Z</time>
      </trkpt>
      <trkpt lat="47.13668" lon="-2.13515">
        <ele>32.2</ele>
        <time>2020-06-05T11:19:21Z</time>
      </trkpt>
      <trkpt lat="47.13672" lon="-2.13518">
        <ele>32.3</ele>
        <time>2020-06-05T11:19:22Z</time>
      </trkpt>
      <trkpt lat="47.13676" lon="-2.13519">
        <ele>32.3</ele>
        <time>2020-06-05T11:19:23Z</time>
      </trkpt>
      <trkpt lat="47.1368" lon="-2.13522">
        <ele>32.2</ele>
        <time>2020-06-05T11:19:24Z</time>
      </trkpt>
      <trkpt lat="47.13684" lon="-2.13523">
        <ele>32</ele>
        <time>2020-06-05T11:19:25Z</time>
      </trkpt>
      <trkpt lat="47.13688" lon="-2.13525">
        <ele>31.7</ele>
        <time>2020-06-05T11:19:26Z</time>
      </trkpt>
      <trkpt lat="47.13692" lon="-2.13528">
        <ele>31.5</ele>
        <time>2020-06-05T11:19:27Z</time>
      </trkpt>
      <trkpt lat="47.13696" lon="-2.13532">
        <ele>31.3</ele>
        <time>2020-06-05T11:19:28Z</time>
      </trkpt>
      <trkpt lat="47.13699" lon="-2.13535">
        <ele>31.1</ele>
        <time>2020-06-05T11:19:29Z</time>
      </trkpt>
      <trkpt lat="47.13703" lon="-2.13539">
        <ele>31</ele>
        <time>2020-06-05T11:19:30Z</time>
      </trkpt>
      <trkpt lat="47.13706" lon="-2.13542">
        <ele>31</ele>
        <time>2020-06-05T11:19:31Z</time>
      </trkpt>
      <trkpt lat="47.13709" lon="-2.13546">
        <ele>30.9</ele>
        <time>2020-06-05T11:19:32Z</time>
      </trkpt>
      <trkpt lat="47.13712" lon="-2.13549">
        <ele>30.8</ele>
        <time>2020-06-05T11:19:33Z</time>
      </trkpt>
      <trkpt lat="47.13716" lon="-2.13552">
        <ele>30.7</ele>
        <time>2020-06-05T11:19:34Z</time>
      </trkpt>
      <trkpt lat="47.13719" lon="-2.13556">
        <ele>30.6</ele>
        <time>2020-06-05T11:19:35Z</time>
      </trkpt>
      <trkpt lat="47.13722" lon="-2.1356">
        <ele>30.4</ele>
        <time>2020-06-05T11:19:36Z</time>
      </trkpt>
      <trkpt lat="47.13726" lon="-2.13565">
        <ele>30.1</ele>
        <time>2020-06-05T11:19:37Z</time>
      </trkpt>
      <trkpt lat="47.1373" lon="-2.13569">
        <ele>29.9</ele>
        <time>2020-06-05T11:19:38Z</time>
      </trkpt>
      <trkpt lat="47.13734" lon="-2.13572">
        <ele>29.7</ele>
        <time>2020-06-05T11:19:39Z</time>
      </trkpt>
      <trkpt lat="47.13738" lon="-2.13575">
        <ele>29.5</ele>
        <time>2020-06-05T11:19:40Z</time>
      </trkpt>
      <trkpt lat="47.13741" lon="-2.13578">
        <ele>29.4</ele>
        <time>2020-06-05T11:19:41Z</time>
      </trkpt>
      <trkpt lat="47.13746" lon="-2.13583">
        <ele>29.2</ele>
        <time>2020-06-05T11:19:42Z</time>
      </trkpt>
      <trkpt lat="47.13749" lon="-2.13587">
        <ele>29.1</ele>
        <time>2020-06-05T11:19:43Z</time>
      </trkpt>
      <trkpt lat="47.13753" lon="-2.13591">
        <ele>28.9</ele>
        <time>2020-06-05T11:19:44Z</time>
      </trkpt>
      <trkpt lat="47.13757" lon="-2.13595">
        <ele>28.8</ele>
        <time>2020-06-05T11:19:45Z</time>
      </trkpt>
      <trkpt lat="47.13761" lon="-2.13599">
        <ele>28.6</ele>
        <time>2020-06-05T11:19:46Z</time>
      </trkpt>
      <trkpt lat="47.13765" lon="-2.13604">
        <ele>28.4</ele>
        <time>2020-06-05T11:19:47Z</time>
      </trkpt>
      <trkpt lat="47.1377" lon="-2.13607">
        <ele>28.3</ele>
        <time>2020-06-05T11:19:48Z</time>
      </trkpt>
      <trkpt lat="47.13775" lon="-2.1361">
        <ele>28.2</ele>
        <time>2020-06-05T11:19:49Z</time>
      </trkpt>
      <trkpt lat="47.13778" lon="-2.13615">
        <ele>28.1</ele>
        <time>2020-06-05T11:19:50Z</time>
      </trkpt>
      <trkpt lat="47.13782" lon="-2.13619">
        <ele>28</ele>
        <time>2020-06-05T11:19:51Z</time>
      </trkpt>
      <trkpt lat="47.13786" lon="-2.13623">
        <ele>27.9</ele>
        <time>2020-06-05T11:19:52Z</time>
      </trkpt>
      <trkpt lat="47.1379" lon="-2.13628">
        <ele>27.8</ele>
        <time>2020-06-05T11:19:53Z</time>
      </trkpt>
      <trkpt lat="47.13794" lon="-2.13633">
        <ele>27.7</ele>
        <time>2020-06-05T11:19:54Z</time>
      </trkpt>
      <trkpt lat="47.13797" lon="-2.13637">
        <ele>27.6</ele>
        <time>2020-06-05T11:19:55Z</time>
      </trkpt>
      <trkpt lat="47.13801" lon="-2.13641">
        <ele>27.5</ele>
        <time>2020-06-05T11:19:56Z</time>
      </trkpt>
      <trkpt lat="47.13805" lon="-2.13644">
        <ele>27.4</ele>
        <time>2020-06-05T11:19:57Z</time>
      </trkpt>
      <trkpt lat="47.13809" lon="-2.13649">
        <ele>27.3</ele>
        <time>2020-06-05T11:19:58Z</time>
      </trkpt>
      <trkpt lat="47.13813" lon="-2.13654">
        <ele>27.2</ele>
        <time>2020-06-05T11:19:59Z</time>
      </trkpt>
      <trkpt lat="47.13817" lon="-2.13658">
        <ele>27.1</ele>
        <time>2020-06-05T11:20:00Z</time>
      </trkpt>
      <trkpt lat="47.13821" lon="-2.13662">
        <ele>27.1</ele>
        <time>2020-06-05T11:20:01Z</time>
      </trkpt>
      <trkpt lat="47.13825" lon="-2.13667">
        <ele>27.1</ele>
        <time>2020-06-05T11:20:02Z</time>
      </trkpt>
      <trkpt lat="47.13829" lon="-2.13671">
        <ele>27</ele>
        <time>2020-06-05T11:20:03Z</time>
      </trkpt>
      <trkpt lat="47.13834" lon="-2.13675">
        <ele>27</ele>
        <time>2020-06-05T11:20:04Z</time>
      </trkpt>
      <trkpt lat="47.13838" lon="-2.13679">
        <ele>27</ele>
        <time>2020-06-05T11:20:05Z</time>
      </trkpt>
      <trkpt lat="47.13842" lon="-2.13683">
        <ele>26.9</ele>
        <time>2020-06-05T11:20:06Z</time>
      </trkpt>
      <trkpt lat="47.13847" lon="-2.13687">
        <ele>26.9</ele>
        <time>2020-06-05T11:20:07Z</time>
      </trkpt>
      <trkpt lat="47.1385" lon="-2.13692">
        <ele>26.9</ele>
        <time>2020-06-05T11:20:08Z</time>
      </trkpt>
      <trkpt lat="47.13854" lon="-2.13697">
        <ele>26.9</ele>
        <time>2020-06-05T11:20:09Z</time>
      </trkpt>
      <trkpt lat="47.13857" lon="-2.13701">
        <ele>26.9</ele>
        <time>2020-06-05T11:20:10Z</time>
      </trkpt>
      <trkpt lat="47.13861" lon="-2.13705">
        <ele>26.9</ele>
        <time>2020-06-05T11:20:11Z</time>
      </trkpt>
      <trkpt lat="47.13863" lon="-2.13709">
        <ele>26.8</ele>
        <time>2020-06-05T11:20:12Z</time>
      </trkpt>
      <trkpt lat="47.13867" lon="-2.13711">
        <ele>26.8</ele>
        <time>2020-06-05T11:20:13Z</time>
      </trkpt>
      <trkpt lat="47.1387" lon="-2.13715">
        <ele>26.8</ele>
        <time>2020-06-05T11:20:14Z</time>
      </trkpt>
      <trkpt lat="47.13873" lon="-2.13718">
        <ele>26.8</ele>
        <time>2020-06-05T11:20:15Z</time>
      </trkpt>
      <trkpt lat="47.13876" lon="-2.13721">
        <ele>26.8</ele>
        <time>2020-06-05T11:20:16Z</time>
      </trkpt>
      <trkpt lat="47.1388" lon="-2.13724">
        <ele>26.8</ele>
        <time>2020-06-05T11:20:17Z</time>
      </trkpt>
      <trkpt lat="47.13881" lon="-2.13725">
        <ele>26.8</ele>
        <time>2020-06-05T11:20:18Z</time>
      </trkpt>
      <trkpt lat="47.13884" lon="-2.13726">
        <ele>26.8</ele>
        <time>2020-06-05T11:20:19Z</time>
      </trkpt>
      <trkpt lat="47.13886" lon="-2.13729">
        <ele>26.9</ele>
        <time>2020-06-05T11:20:20Z</time>
      </trkpt>
      <trkpt lat="47.13889" lon="-2.1373">
        <ele>26.9</ele>
        <time>2020-06-05T11:20:21Z</time>
      </trkpt>
      <trkpt lat="47.13892" lon="-2.13733">
        <ele>27</ele>
        <time>2020-06-05T11:20:22Z</time>
      </trkpt>
      <trkpt lat="47.13895" lon="-2.13734">
        <ele>27.1</ele>
        <time>2020-06-05T11:20:23Z</time>
      </trkpt>
      <trkpt lat="47.13898" lon="-2.13735">
        <ele>27.1</ele>
        <time>2020-06-05T11:20:24Z</time>
      </trkpt>
      <trkpt lat="47.139" lon="-2.13738">
        <ele>27.2</ele>
        <time>2020-06-05T11:20:25Z</time>
      </trkpt>
      <trkpt lat="47.13903" lon="-2.1374">
        <ele>27.2</ele>
        <time>2020-06-05T11:20:26Z</time>
      </trkpt>
      <trkpt lat="47.13907" lon="-2.13744">
        <ele>27.3</ele>
        <time>2020-06-05T11:20:27Z</time>
      </trkpt>
      <trkpt lat="47.1391" lon="-2.13747">
        <ele>27.3</ele>
        <time>2020-06-05T11:20:28Z</time>
      </trkpt>
      <trkpt lat="47.13912" lon="-2.1375">
        <ele>27.4</ele>
        <time>2020-06-05T11:20:29Z</time>
      </trkpt>
      <trkpt lat="47.13915" lon="-2.13753">
        <ele>27.4</ele>
        <time>2020-06-05T11:20:30Z</time>
      </trkpt>
      <trkpt lat="47.13918" lon="-2.13756">
        <ele>27.5</ele>
        <time>2020-06-05T11:20:31Z</time>
      </trkpt>
      <trkpt lat="47.13921" lon="-2.1376">
        <ele>27.6</ele>
        <time>2020-06-05T11:20:32Z</time>
      </trkpt>
      <trkpt lat="47.13924" lon="-2.13763">
        <ele>27.7</ele>
        <time>2020-06-05T11:20:33Z</time>
      </trkpt>
      <trkpt lat="47.13928" lon="-2.13766">
        <ele>27.9</ele>
        <time>2020-06-05T11:20:34Z</time>
      </trkpt>
      <trkpt lat="47.13931" lon="-2.13768">
        <ele>28</ele>
        <time>2020-06-05T11:20:35Z</time>
      </trkpt>
      <trkpt lat="47.13935" lon="-2.13771">
        <ele>28.1</ele>
        <time>2020-06-05T11:20:36Z</time>
      </trkpt>
      <trkpt lat="47.13938" lon="-2.13773">
        <ele>28.2</ele>
        <time>2020-06-05T11:20:37Z</time>
      </trkpt>
      <trkpt lat="47.13943" lon="-2.13775">
        <ele>28.4</ele>
        <time>2020-06-05T11:20:38Z</time>
      </trkpt>
      <trkpt lat="47.13946" lon="-2.13778">
        <ele>28.5</ele>
        <time>2020-06-05T11:20:39Z</time>
      </trkpt>
      <trkpt lat="47.13949" lon="-2.1378">
        <ele>28.6</ele>
        <time>2020-06-05T11:20:40Z</time>
      </trkpt>
      <trkpt lat="47.13952" lon="-2.13783">
        <ele>28.8</ele>
        <time>2020-06-05T11:20:41Z</time>
      </trkpt>
      <trkpt lat="47.13955" lon="-2.13787">
        <ele>28.9</ele>
        <time>2020-06-05T11:20:42Z</time>
      </trkpt>
      <trkpt lat="47.13958" lon="-2.1379">
        <ele>29</ele>
        <time>2020-06-05T11:20:43Z</time>
      </trkpt>
      <trkpt lat="47.13962" lon="-2.13794">
        <ele>29.1</ele>
        <time>2020-06-05T11:20:44Z</time>
      </trkpt>
      <trkpt lat="47.13966" lon="-2.13797">
        <ele>29.3</ele>
        <time>2020-06-05T11:20:45Z</time>
      </trkpt>
      <trkpt lat="47.1397" lon="-2.13802">
        <ele>29.4</ele>
        <time>2020-06-05T11:20:46Z</time>
      </trkpt>
      <trkpt lat="47.13974" lon="-2.13805">
        <ele>29.5</ele>
        <time>2020-06-05T11:20:47Z</time>
      </trkpt>
      <trkpt lat="47.13978" lon="-2.13808">
        <ele>29.7</ele>
        <time>2020-06-05T11:20:48Z</time>
      </trkpt>
      <trkpt lat="47.13981" lon="-2.13811">
        <ele>29.7</ele>
        <time>2020-06-05T11:20:49Z</time>
      </trkpt>
      <trkpt lat="47.13984" lon="-2.13815">
        <ele>29.8</ele>
        <time>2020-06-05T11:20:50Z</time>
      </trkpt>
      <trkpt lat="47.13987" lon="-2.13819">
        <ele>29.9</ele>
        <time>2020-06-05T11:20:51Z</time>
      </trkpt>
      <trkpt lat="47.1399" lon="-2.13822">
        <ele>29.9</ele>
        <time>2020-06-05T11:20:52Z</time>
      </trkpt>
      <trkpt lat="47.13993" lon="-2.13826">
        <ele>30</ele>
        <time>2020-06-05T11:20:53Z</time>
      </trkpt>
      <trkpt lat="47.13996" lon="-2.13831">
        <ele>30.1</ele>
        <time>2020-06-05T11:20:54Z</time>
      </trkpt>
      <trkpt lat="47.13998" lon="-2.13834">
        <ele>30.1</ele>
        <time>2020-06-05T11:20:55Z</time>
      </trkpt>
      <trkpt lat="47.14002" lon="-2.13837">
        <ele>30.3</ele>
        <time>2020-06-05T11:20:56Z</time>
      </trkpt>
      <trkpt lat="47.14004" lon="-2.1384">
        <ele>30.4</ele>
        <time>2020-06-05T11:20:57Z</time>
      </trkpt>
      <trkpt lat="47.14007" lon="-2.13842">
        <ele>30.5</ele>
        <time>2020-06-05T11:20:58Z</time>
      </trkpt>
      <trkpt lat="47.14009" lon="-2.13845">
        <ele>30.6</ele>
        <time>2020-06-05T11:20:59Z</time>
      </trkpt>
      <trkpt lat="47.14011" lon="-2.13849">
        <ele>30.7</ele>
        <time>2020-06-05T11:21:00Z</time>
      </trkpt>
      <trkpt lat="47.14015" lon="-2.13851">
        <ele>30.8</ele>
        <time>2020-06-05T11:21:01Z</time>
      </trkpt>
      <trkpt lat="47.14018" lon="-2.13855">
        <ele>30.9</ele>
        <time>2020-06-05T11:21:02Z</time>
      </trkpt>
      <trkpt lat="47.14021" lon="-2.13859">
        <ele>31.1</ele>
        <time>2020-06-05T11:21:03Z</time>
      </trkpt>
      <trkpt lat="47.14023" lon="-2.13863">
        <ele>31.2</ele>
        <time>2020-06-05T11:21:04Z</time>
      </trkpt>
      <trkpt lat="47.14026" lon="-2.13867">
        <ele>31.3</ele>
        <time>2020-06-05T11:21:05Z</time>
      </trkpt>
      <trkpt lat="47.14029" lon="-2.13872">
        <ele>31.4</ele>
        <time>2020-06-05T11:21:06Z</time>
      </trkpt>
      <trkpt lat="47.14032" lon="-2.13875">
        <ele>31.5</ele>
        <time>2020-06-05T11:21:07Z</time>
      </trkpt>
      <trkpt lat="47.14035" lon="-2.13879">
        <ele>31.5</ele>
        <time>2020-06-05T11:21:08Z</time>
      </trkpt>
      <trkpt lat="47.14037" lon="-2.13882">
        <ele>31.6</ele>
        <time>2020-06-05T11:21:09Z</time>
      </trkpt>
      <trkpt lat="47.1404" lon="-2.13886">
        <ele>31.6</ele>
        <time>2020-06-05T11:21:10Z</time>
      </trkpt>
      <trkpt lat="47.14043" lon="-2.1389">
        <ele>31.6</ele>
        <time>2020-06-05T11:21:11Z</time>
      </trkpt>
      <trkpt lat="47.14045" lon="-2.13893">
        <ele>31.7</ele>
        <time>2020-06-05T11:21:12Z</time>
      </trkpt>
      <trkpt lat="47.14048" lon="-2.13897">
        <ele>31.7</ele>
        <time>2020-06-05T11:21:13Z</time>
      </trkpt>
      <trkpt lat="47.1405" lon="-2.139">
        <ele>31.7</ele>
        <time>2020-06-05T11:21:14Z</time>
      </trkpt>
      <trkpt lat="47.14051" lon="-2.13904">
        <ele>31.7</ele>
        <time>2020-06-05T11:21:15Z</time>
      </trkpt>
      <trkpt lat="47.14054" lon="-2.13907">
        <ele>31.8</ele>
        <time>2020-06-05T11:21:16Z</time>
      </trkpt>
      <trkpt lat="47.14056" lon="-2.13912">
        <ele>31.9</ele>
        <time>2020-06-05T11:21:17Z</time>
      </trkpt>
      <trkpt lat="47.14059" lon="-2.13916">
        <ele>31.9</ele>
        <time>2020-06-05T11:21:18Z</time>
      </trkpt>
      <trkpt lat="47.14061" lon="-2.13919">
        <ele>32</ele>
        <time>2020-06-05T11:21:19Z</time>
      </trkpt>
      <trkpt lat="47.14063" lon="-2.13924">
        <ele>32.1</ele>
        <time>2020-06-05T11:21:20Z</time>
      </trkpt>
      <trkpt lat="47.14065" lon="-2.13929">
        <ele>32.1</ele>
        <time>2020-06-05T11:21:21Z</time>
      </trkpt>
      <trkpt lat="47.14068" lon="-2.13932">
        <ele>32.1</ele>
        <time>2020-06-05T11:21:22Z</time>
      </trkpt>
      <trkpt lat="47.14071" lon="-2.13936">
        <ele>32.1</ele>
        <time>2020-06-05T11:21:23Z</time>
      </trkpt>
      <trkpt lat="47.14074" lon="-2.1394">
        <ele>32</ele>
        <time>2020-06-05T11:21:24Z</time>
      </trkpt>
      <trkpt lat="47.14077" lon="-2.13945">
        <ele>31.9</ele>
        <time>2020-06-05T11:21:25Z</time>
      </trkpt>
      <trkpt lat="47.14079" lon="-2.1395">
        <ele>31.9</ele>
        <time>2020-06-05T11:21:26Z</time>
      </trkpt>
      <trkpt lat="47.14081" lon="-2.13954">
        <ele>31.9</ele>
        <time>2020-06-05T11:21:27Z</time>
      </trkpt>
      <trkpt lat="47.14084" lon="-2.13958">
        <ele>31.9</ele>
        <time>2020-06-05T11:21:28Z</time>
      </trkpt>
      <trkpt lat="47.14087" lon="-2.13962">
        <ele>31.9</ele>
        <time>2020-06-05T11:21:29Z</time>
      </trkpt>
      <trkpt lat="47.1409" lon="-2.13965">
        <ele>31.9</ele>
        <time>2020-06-05T11:21:30Z</time>
      </trkpt>
      <trkpt lat="47.14094" lon="-2.13969">
        <ele>32</ele>
        <time>2020-06-05T11:21:31Z</time>
      </trkpt>
      <trkpt lat="47.14097" lon="-2.13973">
        <ele>32</ele>
        <time>2020-06-05T11:21:32Z</time>
      </trkpt>
      <trkpt lat="47.14099" lon="-2.13976">
        <ele>32</ele>
        <time>2020-06-05T11:21:33Z</time>
      </trkpt>
      <trkpt lat="47.14103" lon="-2.1398">
        <ele>32</ele>
        <time>2020-06-05T11:21:34Z</time>
      </trkpt>
      <trkpt lat="47.14105" lon="-2.13984">
        <ele>32</ele>
        <time>2020-06-05T11:21:35Z</time>
      </trkpt>
      <trkpt lat="47.14108" lon="-2.13988">
        <ele>32</ele>
        <time>2020-06-05T11:21:36Z</time>
      </trkpt>
      <trkpt lat="47.14111" lon="-2.13992">
        <ele>31.9</ele>
        <time>2020-06-05T11:21:37Z</time>
      </trkpt>
      <trkpt lat="47.14114" lon="-2.13996">
        <ele>31.9</ele>
        <time>2020-06-05T11:21:38Z</time>
      </trkpt>
      <trkpt lat="47.14117" lon="-2.14001">
        <ele>31.9</ele>
        <time>2020-06-05T11:21:39Z</time>
      </trkpt>
      <trkpt lat="47.1412" lon="-2.14005">
        <ele>31.9</ele>
        <time>2020-06-05T11:21:40Z</time>
      </trkpt>
      <trkpt lat="47.14123" lon="-2.14009">
        <ele>31.8</ele>
        <time>2020-06-05T11:21:41Z</time>
      </trkpt>
      <trkpt lat="47.14126" lon="-2.14013">
        <ele>31.8</ele>
        <time>2020-06-05T11:21:42Z</time>
      </trkpt>
      <trkpt lat="47.14129" lon="-2.14017">
        <ele>31.7</ele>
        <time>2020-06-05T11:21:43Z</time>
      </trkpt>
      <trkpt lat="47.14132" lon="-2.14021">
        <ele>31.6</ele>
        <time>2020-06-05T11:21:44Z</time>
      </trkpt>
      <trkpt lat="47.14135" lon="-2.14025">
        <ele>31.6</ele>
        <time>2020-06-05T11:21:45Z</time>
      </trkpt>
      <trkpt lat="47.14137" lon="-2.14028">
        <ele>31.6</ele>
        <time>2020-06-05T11:21:46Z</time>
      </trkpt>
      <trkpt lat="47.1414" lon="-2.14032">
        <ele>31.5</ele>
        <time>2020-06-05T11:21:47Z</time>
      </trkpt>
      <trkpt lat="47.14142" lon="-2.14036">
        <ele>31.5</ele>
        <time>2020-06-05T11:21:48Z</time>
      </trkpt>
      <trkpt lat="47.14145" lon="-2.1404">
        <ele>31.4</ele>
        <time>2020-06-05T11:21:49Z</time>
      </trkpt>
      <trkpt lat="47.14148" lon="-2.14044">
        <ele>31.3</ele>
        <time>2020-06-05T11:21:50Z</time>
      </trkpt>
      <trkpt lat="47.1415" lon="-2.14048">
        <ele>31.2</ele>
        <time>2020-06-05T11:21:51Z</time>
      </trkpt>
      <trkpt lat="47.14153" lon="-2.14052">
        <ele>31</ele>
        <time>2020-06-05T11:21:52Z</time>
      </trkpt>
      <trkpt lat="47.14156" lon="-2.14056">
        <ele>31</ele>
        <time>2020-06-05T11:21:53Z</time>
      </trkpt>
      <trkpt lat="47.14159" lon="-2.1406">
        <ele>30.9</ele>
        <time>2020-06-05T11:21:54Z</time>
      </trkpt>
      <trkpt lat="47.14161" lon="-2.14064">
        <ele>30.9</ele>
        <time>2020-06-05T11:21:55Z</time>
      </trkpt>
      <trkpt lat="47.14164" lon="-2.14068">
        <ele>30.9</ele>
        <time>2020-06-05T11:21:56Z</time>
      </trkpt>
      <trkpt lat="47.14166" lon="-2.14071">
        <ele>30.9</ele>
        <time>2020-06-05T11:21:57Z</time>
      </trkpt>
      <trkpt lat="47.14168" lon="-2.14075">
        <ele>30.8</ele>
        <time>2020-06-05T11:21:58Z</time>
      </trkpt>
      <trkpt lat="47.14171" lon="-2.14078">
        <ele>30.8</ele>
        <time>2020-06-05T11:21:59Z</time>
      </trkpt>
      <trkpt lat="47.14173" lon="-2.14082">
        <ele>30.7</ele>
        <time>2020-06-05T11:22:00Z</time>
      </trkpt>
      <trkpt lat="47.14176" lon="-2.14086">
        <ele>30.6</ele>
        <time>2020-06-05T11:22:01Z</time>
      </trkpt>
      <trkpt lat="47.14179" lon="-2.1409">
        <ele>30.5</ele>
        <time>2020-06-05T11:22:02Z</time>
      </trkpt>
      <trkpt lat="47.14181" lon="-2.14094">
        <ele>30.3</ele>
        <time>2020-06-05T11:22:03Z</time>
      </trkpt>
      <trkpt lat="47.14184" lon="-2.14098">
        <ele>30.1</ele>
        <time>2020-06-05T11:22:04Z</time>
      </trkpt>
      <trkpt lat="47.14186" lon="-2.14101">
        <ele>29.8</ele>
        <time>2020-06-05T11:22:05Z</time>
      </trkpt>
      <trkpt lat="47.14188" lon="-2.14103">
        <ele>29.6</ele>
        <time>2020-06-05T11:22:06Z</time>
      </trkpt>
      <trkpt lat="47.14192" lon="-2.14106">
        <ele>29.4</ele>
        <time>2020-06-05T11:22:07Z</time>
      </trkpt>
      <trkpt lat="47.14193" lon="-2.14107">
        <ele>29.4</ele>
        <time>2020-06-05T11:22:08Z</time>
      </trkpt>
      <trkpt lat="47.14195" lon="-2.14109">
        <ele>29.3</ele>
        <time>2020-06-05T11:22:09Z</time>
      </trkpt>
      <trkpt lat="47.14198" lon="-2.14112">
        <ele>29.2</ele>
        <time>2020-06-05T11:22:10Z</time>
      </trkpt>
      <trkpt lat="47.14199" lon="-2.14114">
        <ele>29.1</ele>
        <time>2020-06-05T11:22:11Z</time>
      </trkpt>
      <trkpt lat="47.14202" lon="-2.14118">
        <ele>29</ele>
        <time>2020-06-05T11:22:12Z</time>
      </trkpt>
      <trkpt lat="47.14204" lon="-2.14119">
        <ele>28.9</ele>
        <time>2020-06-05T11:22:13Z</time>
      </trkpt>
      <trkpt lat="47.14206" lon="-2.14123">
        <ele>28.9</ele>
        <time>2020-06-05T11:22:14Z</time>
      </trkpt>
      <trkpt lat="47.14208" lon="-2.14126">
        <ele>28.8</ele>
        <time>2020-06-05T11:22:15Z</time>
      </trkpt>
      <trkpt lat="47.1421" lon="-2.14128">
        <ele>28.7</ele>
        <time>2020-06-05T11:22:16Z</time>
      </trkpt>
      <trkpt lat="47.14212" lon="-2.14132">
        <ele>28.7</ele>
        <time>2020-06-05T11:22:17Z</time>
      </trkpt>
      <trkpt lat="47.14215" lon="-2.14135">
        <ele>28.6</ele>
        <time>2020-06-05T11:22:18Z</time>
      </trkpt>
      <trkpt lat="47.14217" lon="-2.14139">
        <ele>28.5</ele>
        <time>2020-06-05T11:22:19Z</time>
      </trkpt>
      <trkpt lat="47.14219" lon="-2.14143">
        <ele>28.4</ele>
        <time>2020-06-05T11:22:20Z</time>
      </trkpt>
      <trkpt lat="47.1422" lon="-2.14147">
        <ele>28.3</ele>
        <time>2020-06-05T11:22:21Z</time>
      </trkpt>
      <trkpt lat="47.14223" lon="-2.14151">
        <ele>28.2</ele>
        <time>2020-06-05T11:22:22Z</time>
      </trkpt>
      <trkpt lat="47.14224" lon="-2.14154">
        <ele>28.2</ele>
        <time>2020-06-05T11:22:23Z</time>
      </trkpt>
      <trkpt lat="47.14227" lon="-2.14158">
        <ele>28.1</ele>
        <time>2020-06-05T11:22:24Z</time>
      </trkpt>
      <trkpt lat="47.14229" lon="-2.14161">
        <ele>28</ele>
        <time>2020-06-05T11:22:25Z</time>
      </trkpt>
      <trkpt lat="47.14232" lon="-2.14164">
        <ele>28</ele>
        <time>2020-06-05T11:22:26Z</time>
      </trkpt>
      <trkpt lat="47.14234" lon="-2.14167">
        <ele>27.9</ele>
        <time>2020-06-05T11:22:27Z</time>
      </trkpt>
      <trkpt lat="47.14236" lon="-2.14171">
        <ele>27.9</ele>
        <time>2020-06-05T11:22:28Z</time>
      </trkpt>
      <trkpt lat="47.14237" lon="-2.14172">
        <ele>27.9</ele>
        <time>2020-06-05T11:22:29Z</time>
      </trkpt>
      <trkpt lat="47.14239" lon="-2.14176">
        <ele>27.9</ele>
        <time>2020-06-05T11:22:30Z</time>
      </trkpt>
      <trkpt lat="47.14241" lon="-2.14181">
        <ele>27.8</ele>
        <time>2020-06-05T11:22:31Z</time>
      </trkpt>
      <trkpt lat="47.14243" lon="-2.14184">
        <ele>27.8</ele>
        <time>2020-06-05T11:22:32Z</time>
      </trkpt>
      <trkpt lat="47.14245" lon="-2.14188">
        <ele>27.8</ele>
        <time>2020-06-05T11:22:33Z</time>
      </trkpt>
      <trkpt lat="47.14247" lon="-2.1419">
        <ele>27.8</ele>
        <time>2020-06-05T11:22:34Z</time>
      </trkpt>
      <trkpt lat="47.14249" lon="-2.14193">
        <ele>27.7</ele>
        <time>2020-06-05T11:22:35Z</time>
      </trkpt>
      <trkpt lat="47.14252" lon="-2.14197">
        <ele>27.7</ele>
        <time>2020-06-05T11:22:36Z</time>
      </trkpt>
      <trkpt lat="47.14254" lon="-2.142">
        <ele>27.7</ele>
        <time>2020-06-05T11:22:37Z</time>
      </trkpt>
      <trkpt lat="47.14257" lon="-2.14203">
        <ele>27.6</ele>
        <time>2020-06-05T11:22:38Z</time>
      </trkpt>
      <trkpt lat="47.14259" lon="-2.14207">
        <ele>27.6</ele>
        <time>2020-06-05T11:22:39Z</time>
      </trkpt>
      <trkpt lat="47.14261" lon="-2.1421">
        <ele>27.5</ele>
        <time>2020-06-05T11:22:40Z</time>
      </trkpt>
      <trkpt lat="47.14263" lon="-2.14213">
        <ele>27.5</ele>
        <time>2020-06-05T11:22:41Z</time>
      </trkpt>
      <trkpt lat="47.14265" lon="-2.14216">
        <ele>27.4</ele>
        <time>2020-06-05T11:22:42Z</time>
      </trkpt>
      <trkpt lat="47.14267" lon="-2.14218">
        <ele>27.3</ele>
        <time>2020-06-05T11:22:43Z</time>
      </trkpt>
      <trkpt lat="47.14269" lon="-2.14222">
        <ele>27.3</ele>
        <time>2020-06-05T11:22:44Z</time>
      </trkpt>
      <trkpt lat="47.14273" lon="-2.14225">
        <ele>27.2</ele>
        <time>2020-06-05T11:22:45Z</time>
      </trkpt>
      <trkpt lat="47.14276" lon="-2.14228">
        <ele>27.1</ele>
        <time>2020-06-05T11:22:46Z</time>
      </trkpt>
      <trkpt lat="47.1428" lon="-2.14231">
        <ele>27</ele>
        <time>2020-06-05T11:22:47Z</time>
      </trkpt>
      <trkpt lat="47.1428" lon="-2.14232">
        <ele>27</ele>
        <time>2020-06-05T11:22:48Z</time>
      </trkpt>
      <trkpt lat="47.14282" lon="-2.14233">
        <ele>27</ele>
        <time>2020-06-05T11:22:49Z</time>
      </trkpt>
      <trkpt lat="47.14284" lon="-2.14234">
        <ele>27</ele>
        <time>2020-06-05T11:22:50Z</time>
      </trkpt>
      <trkpt lat="47.14283" lon="-2.14234">
        <ele>27</ele>
        <time>2020-06-05T11:22:51Z</time>
      </trkpt>
      <trkpt lat="47.14283" lon="-2.14235">
        <ele>27</ele>
        <time>2020-06-05T11:22:52Z</time>
      </trkpt>
      <trkpt lat="47.14284" lon="-2.14235">
        <ele>27</ele>
        <time>2020-06-05T11:22:53Z</time>
      </trkpt>
      <trkpt lat="47.14285" lon="-2.14235">
        <ele>27</ele>
        <time>2020-06-05T11:22:54Z</time>
      </trkpt>
      <trkpt lat="47.14286" lon="-2.14235">
        <ele>27</ele>
        <time>2020-06-05T11:22:55Z</time>
      </trkpt>
      <trkpt lat="47.14288" lon="-2.14234">
        <ele>27</ele>
        <time>2020-06-05T11:22:56Z</time>
      </trkpt>
      <trkpt lat="47.14289" lon="-2.14235">
        <ele>26.9</ele>
        <time>2020-06-05T11:22:57Z</time>
      </trkpt>
      <trkpt lat="47.1429" lon="-2.14236">
        <ele>26.9</ele>
        <time>2020-06-05T11:22:58Z</time>
      </trkpt>
      <trkpt lat="47.1429" lon="-2.14237">
        <ele>26.9</ele>
        <time>2020-06-05T11:22:59Z</time>
      </trkpt>
      <trkpt lat="47.1429" lon="-2.14238">
        <ele>26.9</ele>
        <time>2020-06-05T11:23:00Z</time>
      </trkpt>
      <trkpt lat="47.1429" lon="-2.14238">
        <ele>26.9</ele>
        <time>2020-06-05T11:23:01Z</time>
      </trkpt>
      <trkpt lat="47.1429" lon="-2.14238">
        <ele>26.9</ele>
        <time>2020-06-05T11:23:02Z</time>
      </trkpt>
      <trkpt lat="47.1429" lon="-2.14238">
        <ele>26.9</ele>
        <time>2020-06-05T11:23:03Z</time>
      </trkpt>
      <trkpt lat="47.14291" lon="-2.14239">
        <ele>26.9</ele>
        <time>2020-06-05T11:23:04Z</time>
      </trkpt>
      <trkpt lat="47.14294" lon="-2.14243">
        <ele>26.9</ele>
        <time>2020-06-05T11:23:05Z</time>
      </trkpt>
      <trkpt lat="47.14295" lon="-2.14244">
        <ele>26.8</ele>
        <time>2020-06-05T11:23:06Z</time>
      </trkpt>
      <trkpt lat="47.14298" lon="-2.14247">
        <ele>26.8</ele>
        <time>2020-06-05T11:23:07Z</time>
      </trkpt>
      <trkpt lat="47.143" lon="-2.14249">
        <ele>26.7</ele>
        <time>2020-06-05T11:23:08Z</time>
      </trkpt>
      <trkpt lat="47.14303" lon="-2.14252">
        <ele>26.5</ele>
        <time>2020-06-05T11:23:09Z</time>
      </trkpt>
      <trkpt lat="47.14306" lon="-2.14255">
        <ele>26.4</ele>
        <time>2020-06-05T11:23:10Z</time>
      </trkpt>
      <trkpt lat="47.14308" lon="-2.14258">
        <ele>26.3</ele>
        <time>2020-06-05T11:23:11Z</time>
      </trkpt>
      <trkpt lat="47.14311" lon="-2.14261">
        <ele>26.2</ele>
        <time>2020-06-05T11:23:12Z</time>
      </trkpt>
      <trkpt lat="47.14312" lon="-2.14263">
        <ele>26.1</ele>
        <time>2020-06-05T11:23:13Z</time>
      </trkpt>
      <trkpt lat="47.14315" lon="-2.14267">
        <ele>26</ele>
        <time>2020-06-05T11:23:14Z</time>
      </trkpt>
      <trkpt lat="47.14318" lon="-2.1427">
        <ele>25.9</ele>
        <time>2020-06-05T11:23:15Z</time>
      </trkpt>
      <trkpt lat="47.14321" lon="-2.14273">
        <ele>25.8</ele>
        <time>2020-06-05T11:23:16Z</time>
      </trkpt>
      <trkpt lat="47.14324" lon="-2.14277">
        <ele>25.7</ele>
        <time>2020-06-05T11:23:17Z</time>
      </trkpt>
      <trkpt lat="47.14326" lon="-2.1428">
        <ele>25.7</ele>
        <time>2020-06-05T11:23:18Z</time>
      </trkpt>
      <trkpt lat="47.14329" lon="-2.14283">
        <ele>25.7</ele>
        <time>2020-06-05T11:23:19Z</time>
      </trkpt>
      <trkpt lat="47.14333" lon="-2.14286">
        <ele>25.7</ele>
        <time>2020-06-05T11:23:20Z</time>
      </trkpt>
      <trkpt lat="47.14334" lon="-2.14287">
        <ele>25.6</ele>
        <time>2020-06-05T11:23:21Z</time>
      </trkpt>
      <trkpt lat="47.14336" lon="-2.14289">
        <ele>25.6</ele>
        <time>2020-06-05T11:23:22Z</time>
      </trkpt>
      <trkpt lat="47.14338" lon="-2.14293">
        <ele>25.6</ele>
        <time>2020-06-05T11:23:23Z</time>
      </trkpt>
      <trkpt lat="47.14341" lon="-2.14297">
        <ele>25.6</ele>
        <time>2020-06-05T11:23:24Z</time>
      </trkpt>
      <trkpt lat="47.14344" lon="-2.143">
        <ele>25.6</ele>
        <time>2020-06-05T11:23:25Z</time>
      </trkpt>
      <trkpt lat="47.14346" lon="-2.14304">
        <ele>25.6</ele>
        <time>2020-06-05T11:23:26Z</time>
      </trkpt>
      <trkpt lat="47.14348" lon="-2.14307">
        <ele>25.6</ele>
        <time>2020-06-05T11:23:27Z</time>
      </trkpt>
      <trkpt lat="47.1435" lon="-2.1431">
        <ele>25.6</ele>
        <time>2020-06-05T11:23:28Z</time>
      </trkpt>
      <trkpt lat="47.14353" lon="-2.14313">
        <ele>25.6</ele>
        <time>2020-06-05T11:23:29Z</time>
      </trkpt>
      <trkpt lat="47.14355" lon="-2.14314">
        <ele>25.6</ele>
        <time>2020-06-05T11:23:30Z</time>
      </trkpt>
      <trkpt lat="47.14357" lon="-2.14317">
        <ele>25.5</ele>
        <time>2020-06-05T11:23:31Z</time>
      </trkpt>
      <trkpt lat="47.1436" lon="-2.14321">
        <ele>25.5</ele>
        <time>2020-06-05T11:23:32Z</time>
      </trkpt>
      <trkpt lat="47.14362" lon="-2.14324">
        <ele>25.4</ele>
        <time>2020-06-05T11:23:33Z</time>
      </trkpt>
      <trkpt lat="47.14365" lon="-2.14327">
        <ele>25.4</ele>
        <time>2020-06-05T11:23:34Z</time>
      </trkpt>
      <trkpt lat="47.14367" lon="-2.14331">
        <ele>25.4</ele>
        <time>2020-06-05T11:23:35Z</time>
      </trkpt>
      <trkpt lat="47.14371" lon="-2.14334">
        <ele>25.3</ele>
        <time>2020-06-05T11:23:36Z</time>
      </trkpt>
      <trkpt lat="47.14372" lon="-2.14339">
        <ele>25.3</ele>
        <time>2020-06-05T11:23:37Z</time>
      </trkpt>
      <trkpt lat="47.14374" lon="-2.14344">
        <ele>25.3</ele>
        <time>2020-06-05T11:23:38Z</time>
      </trkpt>
      <trkpt lat="47.14376" lon="-2.14347">
        <ele>25.3</ele>
        <time>2020-06-05T11:23:39Z</time>
      </trkpt>
      <trkpt lat="47.14378" lon="-2.1435">
        <ele>25.3</ele>
        <time>2020-06-05T11:23:40Z</time>
      </trkpt>
      <trkpt lat="47.1438" lon="-2.14353">
        <ele>25.2</ele>
        <time>2020-06-05T11:23:41Z</time>
      </trkpt>
      <trkpt lat="47.14383" lon="-2.14357">
        <ele>25.2</ele>
        <time>2020-06-05T11:23:42Z</time>
      </trkpt>
      <trkpt lat="47.14384" lon="-2.14359">
        <ele>25.2</ele>
        <time>2020-06-05T11:23:43Z</time>
      </trkpt>
      <trkpt lat="47.14386" lon="-2.14363">
        <ele>25.2</ele>
        <time>2020-06-05T11:23:44Z</time>
      </trkpt>
      <trkpt lat="47.14389" lon="-2.14366">
        <ele>25.2</ele>
        <time>2020-06-05T11:23:45Z</time>
      </trkpt>
      <trkpt lat="47.1439" lon="-2.14368">
        <ele>25.2</ele>
        <time>2020-06-05T11:23:46Z</time>
      </trkpt>
      <trkpt lat="47.14392" lon="-2.14371">
        <ele>25.2</ele>
        <time>2020-06-05T11:23:47Z</time>
      </trkpt>
      <trkpt lat="47.14395" lon="-2.14374">
        <ele>25.2</ele>
        <time>2020-06-05T11:23:48Z</time>
      </trkpt>
      <trkpt lat="47.14397" lon="-2.14378">
        <ele>25.2</ele>
        <time>2020-06-05T11:23:49Z</time>
      </trkpt>
      <trkpt lat="47.14399" lon="-2.14381">
        <ele>25.3</ele>
        <time>2020-06-05T11:23:50Z</time>
      </trkpt>
      <trkpt lat="47.14401" lon="-2.14384">
        <ele>25.3</ele>
        <time>2020-06-05T11:23:51Z</time>
      </trkpt>
      <trkpt lat="47.14403" lon="-2.14388">
        <ele>25.3</ele>
        <time>2020-06-05T11:23:52Z</time>
      </trkpt>
      <trkpt lat="47.14405" lon="-2.14392">
        <ele>25.3</ele>
        <time>2020-06-05T11:23:53Z</time>
      </trkpt>
      <trkpt lat="47.14406" lon="-2.14396">
        <ele>25.3</ele>
        <time>2020-06-05T11:23:54Z</time>
      </trkpt>
      <trkpt lat="47.14408" lon="-2.144">
        <ele>25.3</ele>
        <time>2020-06-05T11:23:55Z</time>
      </trkpt>
      <trkpt lat="47.1441" lon="-2.14404">
        <ele>25.2</ele>
        <time>2020-06-05T11:23:56Z</time>
      </trkpt>
      <trkpt lat="47.14411" lon="-2.14408">
        <ele>25.2</ele>
        <time>2020-06-05T11:23:57Z</time>
      </trkpt>
      <trkpt lat="47.14413" lon="-2.14412">
        <ele>25.2</ele>
        <time>2020-06-05T11:23:58Z</time>
      </trkpt>
      <trkpt lat="47.14415" lon="-2.14416">
        <ele>25.1</ele>
        <time>2020-06-05T11:23:59Z</time>
      </trkpt>
      <trkpt lat="47.14417" lon="-2.14419">
        <ele>25.1</ele>
        <time>2020-06-05T11:24:00Z</time>
      </trkpt>
      <trkpt lat="47.14419" lon="-2.14423">
        <ele>25.1</ele>
        <time>2020-06-05T11:24:01Z</time>
      </trkpt>
      <trkpt lat="47.14421" lon="-2.14426">
        <ele>25</ele>
        <time>2020-06-05T11:24:02Z</time>
      </trkpt>
      <trkpt lat="47.14423" lon="-2.14431">
        <ele>25</ele>
        <time>2020-06-05T11:24:03Z</time>
      </trkpt>
      <trkpt lat="47.14425" lon="-2.14435">
        <ele>25</ele>
        <time>2020-06-05T11:24:04Z</time>
      </trkpt>
      <trkpt lat="47.14427" lon="-2.14439">
        <ele>25</ele>
        <time>2020-06-05T11:24:05Z</time>
      </trkpt>
      <trkpt lat="47.14428" lon="-2.14443">
        <ele>24.9</ele>
        <time>2020-06-05T11:24:06Z</time>
      </trkpt>
      <trkpt lat="47.1443" lon="-2.14448">
        <ele>24.9</ele>
        <time>2020-06-05T11:24:07Z</time>
      </trkpt>
      <trkpt lat="47.1443" lon="-2.14449">
        <ele>24.9</ele>
        <time>2020-06-05T11:24:08Z</time>
      </trkpt>
      <trkpt lat="47.14433" lon="-2.14453">
        <ele>24.8</ele>
        <time>2020-06-05T11:24:09Z</time>
      </trkpt>
      <trkpt lat="47.14433" lon="-2.14454">
        <ele>24.8</ele>
        <time>2020-06-05T11:24:10Z</time>
      </trkpt>
      <trkpt lat="47.14435" lon="-2.14458">
        <ele>24.8</ele>
        <time>2020-06-05T11:24:11Z</time>
      </trkpt>
      <trkpt lat="47.14435" lon="-2.14459">
        <ele>24.8</ele>
        <time>2020-06-05T11:24:12Z</time>
      </trkpt>
      <trkpt lat="47.14436" lon="-2.14463">
        <ele>24.7</ele>
        <time>2020-06-05T11:24:13Z</time>
      </trkpt>
      <trkpt lat="47.14439" lon="-2.14467">
        <ele>24.7</ele>
        <time>2020-06-05T11:24:14Z</time>
      </trkpt>
      <trkpt lat="47.14441" lon="-2.14472">
        <ele>24.7</ele>
        <time>2020-06-05T11:24:15Z</time>
      </trkpt>
      <trkpt lat="47.14443" lon="-2.14476">
        <ele>24.7</ele>
        <time>2020-06-05T11:24:16Z</time>
      </trkpt>
      <trkpt lat="47.14445" lon="-2.1448">
        <ele>24.7</ele>
        <time>2020-06-05T11:24:17Z</time>
      </trkpt>
      <trkpt lat="47.14446" lon="-2.14485">
        <ele>24.7</ele>
        <time>2020-06-05T11:24:18Z</time>
      </trkpt>
      <trkpt lat="47.14448" lon="-2.1449">
        <ele>24.6</ele>
        <time>2020-06-05T11:24:19Z</time>
      </trkpt>
      <trkpt lat="47.14451" lon="-2.14494">
        <ele>24.6</ele>
        <time>2020-06-05T11:24:20Z</time>
      </trkpt>
      <trkpt lat="47.14452" lon="-2.14499">
        <ele>24.5</ele>
        <time>2020-06-05T11:24:21Z</time>
      </trkpt>
      <trkpt lat="47.14454" lon="-2.14504">
        <ele>24.4</ele>
        <time>2020-06-05T11:24:22Z</time>
      </trkpt>
      <trkpt lat="47.14456" lon="-2.14508">
        <ele>24.3</ele>
        <time>2020-06-05T11:24:23Z</time>
      </trkpt>
      <trkpt lat="47.14459" lon="-2.14512">
        <ele>24.2</ele>
        <time>2020-06-05T11:24:24Z</time>
      </trkpt>
      <trkpt lat="47.14461" lon="-2.14515">
        <ele>24.1</ele>
        <time>2020-06-05T11:24:25Z</time>
      </trkpt>
      <trkpt lat="47.14464" lon="-2.14519">
        <ele>24</ele>
        <time>2020-06-05T11:24:26Z</time>
      </trkpt>
      <trkpt lat="47.14465" lon="-2.1452">
        <ele>24</ele>
        <time>2020-06-05T11:24:27Z</time>
      </trkpt>
      <trkpt lat="47.14467" lon="-2.14524">
        <ele>24</ele>
        <time>2020-06-05T11:24:28Z</time>
      </trkpt>
      <trkpt lat="47.1447" lon="-2.14528">
        <ele>24</ele>
        <time>2020-06-05T11:24:29Z</time>
      </trkpt>
      <trkpt lat="47.14472" lon="-2.14532">
        <ele>24</ele>
        <time>2020-06-05T11:24:30Z</time>
      </trkpt>
      <trkpt lat="47.14475" lon="-2.14535">
        <ele>24</ele>
        <time>2020-06-05T11:24:31Z</time>
      </trkpt>
      <trkpt lat="47.14477" lon="-2.14538">
        <ele>24</ele>
        <time>2020-06-05T11:24:32Z</time>
      </trkpt>
      <trkpt lat="47.14479" lon="-2.1454">
        <ele>24</ele>
        <time>2020-06-05T11:24:33Z</time>
      </trkpt>
      <trkpt lat="47.14482" lon="-2.14542">
        <ele>23.9</ele>
        <time>2020-06-05T11:24:34Z</time>
      </trkpt>
      <trkpt lat="47.14486" lon="-2.14545">
        <ele>23.9</ele>
        <time>2020-06-05T11:24:35Z</time>
      </trkpt>
      <trkpt lat="47.14487" lon="-2.14547">
        <ele>23.8</ele>
        <time>2020-06-05T11:24:36Z</time>
      </trkpt>
      <trkpt lat="47.14491" lon="-2.14551">
        <ele>23.8</ele>
        <time>2020-06-05T11:24:37Z</time>
      </trkpt>
      <trkpt lat="47.14494" lon="-2.14553">
        <ele>23.7</ele>
        <time>2020-06-05T11:24:38Z</time>
      </trkpt>
      <trkpt lat="47.14497" lon="-2.14556">
        <ele>23.6</ele>
        <time>2020-06-05T11:24:39Z</time>
      </trkpt>
      <trkpt lat="47.145" lon="-2.14559">
        <ele>23.6</ele>
        <time>2020-06-05T11:24:40Z</time>
      </trkpt>
      <trkpt lat="47.14504" lon="-2.14561">
        <ele>23.5</ele>
        <time>2020-06-05T11:24:41Z</time>
      </trkpt>
      <trkpt lat="47.14507" lon="-2.14564">
        <ele>23.4</ele>
        <time>2020-06-05T11:24:42Z</time>
      </trkpt>
      <trkpt lat="47.1451" lon="-2.14567">
        <ele>23.3</ele>
        <time>2020-06-05T11:24:43Z</time>
      </trkpt>
      <trkpt lat="47.14513" lon="-2.1457">
        <ele>23.2</ele>
        <time>2020-06-05T11:24:44Z</time>
      </trkpt>
      <trkpt lat="47.14517" lon="-2.14572">
        <ele>23.1</ele>
        <time>2020-06-05T11:24:45Z</time>
      </trkpt>
      <trkpt lat="47.14521" lon="-2.14574">
        <ele>23</ele>
        <time>2020-06-05T11:24:46Z</time>
      </trkpt>
      <trkpt lat="47.14524" lon="-2.14576">
        <ele>22.9</ele>
        <time>2020-06-05T11:24:47Z</time>
      </trkpt>
      <trkpt lat="47.14528" lon="-2.14579">
        <ele>22.7</ele>
        <time>2020-06-05T11:24:48Z</time>
      </trkpt>
      <trkpt lat="47.14532" lon="-2.1458">
        <ele>22.6</ele>
        <time>2020-06-05T11:24:49Z</time>
      </trkpt>
      <trkpt lat="47.14536" lon="-2.14582">
        <ele>22.5</ele>
        <time>2020-06-05T11:24:50Z</time>
      </trkpt>
      <trkpt lat="47.1454" lon="-2.14584">
        <ele>22.4</ele>
        <time>2020-06-05T11:24:51Z</time>
      </trkpt>
      <trkpt lat="47.14543" lon="-2.14586">
        <ele>22.3</ele>
        <time>2020-06-05T11:24:52Z</time>
      </trkpt>
      <trkpt lat="47.14546" lon="-2.14588">
        <ele>22.3</ele>
        <time>2020-06-05T11:24:53Z</time>
      </trkpt>
      <trkpt lat="47.14548" lon="-2.14591">
        <ele>22.2</ele>
        <time>2020-06-05T11:24:54Z</time>
      </trkpt>
      <trkpt lat="47.14551" lon="-2.14593">
        <ele>22.1</ele>
        <time>2020-06-05T11:24:55Z</time>
      </trkpt>
      <trkpt lat="47.14554" lon="-2.14595">
        <ele>22</ele>
        <time>2020-06-05T11:24:56Z</time>
      </trkpt>
      <trkpt lat="47.14557" lon="-2.14596">
        <ele>21.9</ele>
        <time>2020-06-05T11:24:57Z</time>
      </trkpt>
      <trkpt lat="47.14558" lon="-2.14597">
        <ele>21.8</ele>
        <time>2020-06-05T11:24:58Z</time>
      </trkpt>
      <trkpt lat="47.14559" lon="-2.14596">
        <ele>21.8</ele>
        <time>2020-06-05T11:24:59Z</time>
      </trkpt>
      <trkpt lat="47.14558" lon="-2.14595">
        <ele>21.8</ele>
        <time>2020-06-05T11:25:00Z</time>
      </trkpt>
      <trkpt lat="47.14558" lon="-2.14595">
        <ele>21.8</ele>
        <time>2020-06-05T11:25:01Z</time>
      </trkpt>
      <trkpt lat="47.14559" lon="-2.14595">
        <ele>21.8</ele>
        <time>2020-06-05T11:25:02Z</time>
      </trkpt>
      <trkpt lat="47.14559" lon="-2.14596">
        <ele>21.7</ele>
        <time>2020-06-05T11:25:03Z</time>
      </trkpt>
      <trkpt lat="47.14559" lon="-2.14597">
        <ele>21.7</ele>
        <time>2020-06-05T11:25:04Z</time>
      </trkpt>
      <trkpt lat="47.14559" lon="-2.14597">
        <ele>21.7</ele>
        <time>2020-06-05T11:25:05Z</time>
      </trkpt>
      <trkpt lat="47.14559" lon="-2.14597">
        <ele>21.7</ele>
        <time>2020-06-05T11:25:06Z</time>
      </trkpt>
      <trkpt lat="47.14559" lon="-2.14597">
        <ele>21.7</ele>
        <time>2020-06-05T11:25:07Z</time>
      </trkpt>
      <trkpt lat="47.14559" lon="-2.14597">
        <ele>21.7</ele>
        <time>2020-06-05T11:25:08Z</time>
      </trkpt>
      <trkpt lat="47.14559" lon="-2.14597">
        <ele>21.7</ele>
        <time>2020-06-05T11:25:09Z</time>
      </trkpt>
      <trkpt lat="47.14559" lon="-2.14597">
        <ele>21.7</ele>
        <time>2020-06-05T11:25:10Z</time>
      </trkpt>
      <trkpt lat="47.14559" lon="-2.14597">
        <ele>21.7</ele>
        <time>2020-06-05T11:25:11Z</time>
      </trkpt>
      <trkpt lat="47.14559" lon="-2.14597">
        <ele>21.7</ele>
        <time>2020-06-05T11:25:12Z</time>
      </trkpt>
      <trkpt lat="47.14559" lon="-2.14597">
        <ele>21.7</ele>
        <time>2020-06-05T11:25:13Z</time>
      </trkpt>
      <trkpt lat="47.14559" lon="-2.14597">
        <ele>21.7</ele>
        <time>2020-06-05T11:25:14Z</time>
      </trkpt>
      <trkpt lat="47.14568" lon="-2.14598">
        <ele>21</ele>
        <time>2020-06-05T11:25:46Z</time>
      </trkpt>
      <trkpt lat="47.14572" lon="-2.14599">
        <ele>20.9</ele>
        <time>2020-06-05T11:25:47Z</time>
      </trkpt>
      <trkpt lat="47.14576" lon="-2.14601">
        <ele>20.8</ele>
        <time>2020-06-05T11:25:48Z</time>
      </trkpt>
      <trkpt lat="47.14579" lon="-2.14604">
        <ele>20.7</ele>
        <time>2020-06-05T11:25:49Z</time>
      </trkpt>
      <trkpt lat="47.14583" lon="-2.14608">
        <ele>20.6</ele>
        <time>2020-06-05T11:25:50Z</time>
      </trkpt>
      <trkpt lat="47.14587" lon="-2.14613">
        <ele>20.5</ele>
        <time>2020-06-05T11:25:51Z</time>
      </trkpt>
      <trkpt lat="47.14591" lon="-2.14617">
        <ele>20.5</ele>
        <time>2020-06-05T11:25:52Z</time>
      </trkpt>
      <trkpt lat="47.14594" lon="-2.14622">
        <ele>20.5</ele>
        <time>2020-06-05T11:25:53Z</time>
      </trkpt>
      <trkpt lat="47.14597" lon="-2.14626">
        <ele>20.5</ele>
        <time>2020-06-05T11:25:54Z</time>
      </trkpt>
      <trkpt lat="47.14601" lon="-2.1463">
        <ele>20.4</ele>
        <time>2020-06-05T11:25:55Z</time>
      </trkpt>
      <trkpt lat="47.14604" lon="-2.14634">
        <ele>20.4</ele>
        <time>2020-06-05T11:25:56Z</time>
      </trkpt>
      <trkpt lat="47.14607" lon="-2.14638">
        <ele>20.4</ele>
        <time>2020-06-05T11:25:57Z</time>
      </trkpt>
      <trkpt lat="47.1461" lon="-2.14642">
        <ele>20.4</ele>
        <time>2020-06-05T11:25:58Z</time>
      </trkpt>
      <trkpt lat="47.14613" lon="-2.14645">
        <ele>20.4</ele>
        <time>2020-06-05T11:25:59Z</time>
      </trkpt>
      <trkpt lat="47.14617" lon="-2.14648">
        <ele>20.4</ele>
        <time>2020-06-05T11:26:00Z</time>
      </trkpt>
      <trkpt lat="47.14621" lon="-2.1465">
        <ele>20.4</ele>
        <time>2020-06-05T11:26:01Z</time>
      </trkpt>
      <trkpt lat="47.14624" lon="-2.14653">
        <ele>20.5</ele>
        <time>2020-06-05T11:26:02Z</time>
      </trkpt>
      <trkpt lat="47.14628" lon="-2.14655">
        <ele>20.5</ele>
        <time>2020-06-05T11:26:03Z</time>
      </trkpt>
      <trkpt lat="47.14631" lon="-2.14656">
        <ele>20.6</ele>
        <time>2020-06-05T11:26:04Z</time>
      </trkpt>
      <trkpt lat="47.14634" lon="-2.14657">
        <ele>20.6</ele>
        <time>2020-06-05T11:26:05Z</time>
      </trkpt>
      <trkpt lat="47.14637" lon="-2.14658">
        <ele>20.7</ele>
        <time>2020-06-05T11:26:06Z</time>
      </trkpt>
      <trkpt lat="47.1464" lon="-2.14661">
        <ele>20.7</ele>
        <time>2020-06-05T11:26:07Z</time>
      </trkpt>
      <trkpt lat="47.14641" lon="-2.14662">
        <ele>20.7</ele>
        <time>2020-06-05T11:26:08Z</time>
      </trkpt>
      <trkpt lat="47.14643" lon="-2.14667">
        <ele>20.7</ele>
        <time>2020-06-05T11:26:09Z</time>
      </trkpt>
      <trkpt lat="47.14645" lon="-2.14672">
        <ele>20.7</ele>
        <time>2020-06-05T11:26:10Z</time>
      </trkpt>
      <trkpt lat="47.14646" lon="-2.14678">
        <ele>20.7</ele>
        <time>2020-06-05T11:26:11Z</time>
      </trkpt>
      <trkpt lat="47.14647" lon="-2.14683">
        <ele>20.7</ele>
        <time>2020-06-05T11:26:12Z</time>
      </trkpt>
      <trkpt lat="47.14649" lon="-2.14688">
        <ele>20.7</ele>
        <time>2020-06-05T11:26:13Z</time>
      </trkpt>
      <trkpt lat="47.1465" lon="-2.14693">
        <ele>20.7</ele>
        <time>2020-06-05T11:26:14Z</time>
      </trkpt>
      <trkpt lat="47.14652" lon="-2.14699">
        <ele>20.7</ele>
        <time>2020-06-05T11:26:15Z</time>
      </trkpt>
      <trkpt lat="47.14655" lon="-2.14705">
        <ele>20.6</ele>
        <time>2020-06-05T11:26:16Z</time>
      </trkpt>
      <trkpt lat="47.14658" lon="-2.14712">
        <ele>20.6</ele>
        <time>2020-06-05T11:26:17Z</time>
      </trkpt>
      <trkpt lat="47.14661" lon="-2.14718">
        <ele>20.6</ele>
        <time>2020-06-05T11:26:18Z</time>
      </trkpt>
      <trkpt lat="47.14663" lon="-2.14724">
        <ele>20.5</ele>
        <time>2020-06-05T11:26:19Z</time>
      </trkpt>
      <trkpt lat="47.14665" lon="-2.1473">
        <ele>20.5</ele>
        <time>2020-06-05T11:26:20Z</time>
      </trkpt>
      <trkpt lat="47.14668" lon="-2.14736">
        <ele>20.4</ele>
        <time>2020-06-05T11:26:21Z</time>
      </trkpt>
      <trkpt lat="47.14671" lon="-2.14741">
        <ele>20.4</ele>
        <time>2020-06-05T11:26:22Z</time>
      </trkpt>
      <trkpt lat="47.14673" lon="-2.14749">
        <ele>20.4</ele>
        <time>2020-06-05T11:26:23Z</time>
      </trkpt>
      <trkpt lat="47.14676" lon="-2.14755">
        <ele>20.3</ele>
        <time>2020-06-05T11:26:24Z</time>
      </trkpt>
      <trkpt lat="47.14679" lon="-2.14762">
        <ele>20.3</ele>
        <time>2020-06-05T11:26:25Z</time>
      </trkpt>
      <trkpt lat="47.14682" lon="-2.14766">
        <ele>20.2</ele>
        <time>2020-06-05T11:26:26Z</time>
      </trkpt>
      <trkpt lat="47.14686" lon="-2.14774">
        <ele>20.2</ele>
        <time>2020-06-05T11:26:27Z</time>
      </trkpt>
      <trkpt lat="47.14689" lon="-2.14781">
        <ele>20.1</ele>
        <time>2020-06-05T11:26:28Z</time>
      </trkpt>
      <trkpt lat="47.14692" lon="-2.14789">
        <ele>20.1</ele>
        <time>2020-06-05T11:26:29Z</time>
      </trkpt>
      <trkpt lat="47.14695" lon="-2.14796">
        <ele>20.1</ele>
        <time>2020-06-05T11:26:30Z</time>
      </trkpt>
      <trkpt lat="47.14698" lon="-2.14803">
        <ele>20.1</ele>
        <time>2020-06-05T11:26:31Z</time>
      </trkpt>
      <trkpt lat="47.14701" lon="-2.14809">
        <ele>20.1</ele>
        <time>2020-06-05T11:26:32Z</time>
      </trkpt>
      <trkpt lat="47.14704" lon="-2.14815">
        <ele>20.1</ele>
        <time>2020-06-05T11:26:33Z</time>
      </trkpt>
      <trkpt lat="47.14707" lon="-2.1482">
        <ele>20.1</ele>
        <time>2020-06-05T11:26:34Z</time>
      </trkpt>
      <trkpt lat="47.1471" lon="-2.14824">
        <ele>20.2</ele>
        <time>2020-06-05T11:26:35Z</time>
      </trkpt>
      <trkpt lat="47.14714" lon="-2.14828">
        <ele>20.3</ele>
        <time>2020-06-05T11:26:36Z</time>
      </trkpt>
      <trkpt lat="47.14718" lon="-2.14829">
        <ele>20.3</ele>
        <time>2020-06-05T11:26:37Z</time>
      </trkpt>
      <trkpt lat="47.14724" lon="-2.1483">
        <ele>20.2</ele>
        <time>2020-06-05T11:26:38Z</time>
      </trkpt>
      <trkpt lat="47.14728" lon="-2.14832">
        <ele>20.1</ele>
        <time>2020-06-05T11:26:39Z</time>
      </trkpt>
      <trkpt lat="47.14732" lon="-2.14833">
        <ele>19.9</ele>
        <time>2020-06-05T11:26:40Z</time>
      </trkpt>
      <trkpt lat="47.14736" lon="-2.14834">
        <ele>19.8</ele>
        <time>2020-06-05T11:26:41Z</time>
      </trkpt>
      <trkpt lat="47.1474" lon="-2.14835">
        <ele>19.7</ele>
        <time>2020-06-05T11:26:42Z</time>
      </trkpt>
      <trkpt lat="47.14743" lon="-2.14837">
        <ele>19.6</ele>
        <time>2020-06-05T11:26:43Z</time>
      </trkpt>
      <trkpt lat="47.14747" lon="-2.14839">
        <ele>19.5</ele>
        <time>2020-06-05T11:26:44Z</time>
      </trkpt>
      <trkpt lat="47.14751" lon="-2.1484">
        <ele>19.5</ele>
        <time>2020-06-05T11:26:45Z</time>
      </trkpt>
      <trkpt lat="47.14754" lon="-2.14841">
        <ele>19.4</ele>
        <time>2020-06-05T11:26:46Z</time>
      </trkpt>
      <trkpt lat="47.14758" lon="-2.14842">
        <ele>19.3</ele>
        <time>2020-06-05T11:26:47Z</time>
      </trkpt>
      <trkpt lat="47.14762" lon="-2.14844">
        <ele>19.3</ele>
        <time>2020-06-05T11:26:48Z</time>
      </trkpt>
      <trkpt lat="47.14766" lon="-2.14845">
        <ele>19.2</ele>
        <time>2020-06-05T11:26:49Z</time>
      </trkpt>
      <trkpt lat="47.14771" lon="-2.14845">
        <ele>19.1</ele>
        <time>2020-06-05T11:26:50Z</time>
      </trkpt>
      <trkpt lat="47.14776" lon="-2.14847">
        <ele>19</ele>
        <time>2020-06-05T11:26:51Z</time>
      </trkpt>
      <trkpt lat="47.14781" lon="-2.14848">
        <ele>18.9</ele>
        <time>2020-06-05T11:26:52Z</time>
      </trkpt>
      <trkpt lat="47.14786" lon="-2.14849">
        <ele>18.7</ele>
        <time>2020-06-05T11:26:53Z</time>
      </trkpt>
      <trkpt lat="47.14791" lon="-2.14851">
        <ele>18.6</ele>
        <time>2020-06-05T11:26:54Z</time>
      </trkpt>
      <trkpt lat="47.14797" lon="-2.14851">
        <ele>18.5</ele>
        <time>2020-06-05T11:26:55Z</time>
      </trkpt>
      <trkpt lat="47.14802" lon="-2.14852">
        <ele>18.4</ele>
        <time>2020-06-05T11:26:56Z</time>
      </trkpt>
      <trkpt lat="47.14807" lon="-2.14854">
        <ele>18.3</ele>
        <time>2020-06-05T11:26:57Z</time>
      </trkpt>
      <trkpt lat="47.14813" lon="-2.14855">
        <ele>18.3</ele>
        <time>2020-06-05T11:26:58Z</time>
      </trkpt>
      <trkpt lat="47.14818" lon="-2.14855">
        <ele>18.2</ele>
        <time>2020-06-05T11:26:59Z</time>
      </trkpt>
      <trkpt lat="47.14823" lon="-2.14856">
        <ele>18.2</ele>
        <time>2020-06-05T11:27:00Z</time>
      </trkpt>
      <trkpt lat="47.14829" lon="-2.14856">
        <ele>18.1</ele>
        <time>2020-06-05T11:27:01Z</time>
      </trkpt>
      <trkpt lat="47.14834" lon="-2.14857">
        <ele>18</ele>
        <time>2020-06-05T11:27:02Z</time>
      </trkpt>
      <trkpt lat="47.14839" lon="-2.14858">
        <ele>18</ele>
        <time>2020-06-05T11:27:03Z</time>
      </trkpt>
      <trkpt lat="47.14844" lon="-2.14859">
        <ele>17.9</ele>
        <time>2020-06-05T11:27:04Z</time>
      </trkpt>
      <trkpt lat="47.1485" lon="-2.14859">
        <ele>17.8</ele>
        <time>2020-06-05T11:27:05Z</time>
      </trkpt>
      <trkpt lat="47.14855" lon="-2.1486">
        <ele>17.8</ele>
        <time>2020-06-05T11:27:06Z</time>
      </trkpt>
      <trkpt lat="47.1486" lon="-2.1486">
        <ele>17.7</ele>
        <time>2020-06-05T11:27:07Z</time>
      </trkpt>
      <trkpt lat="47.14866" lon="-2.14861">
        <ele>17.6</ele>
        <time>2020-06-05T11:27:08Z</time>
      </trkpt>
      <trkpt lat="47.14871" lon="-2.14862">
        <ele>17.5</ele>
        <time>2020-06-05T11:27:09Z</time>
      </trkpt>
      <trkpt lat="47.14876" lon="-2.14862">
        <ele>17.5</ele>
        <time>2020-06-05T11:27:10Z</time>
      </trkpt>
      <trkpt lat="47.14882" lon="-2.14862">
        <ele>17.4</ele>
        <time>2020-06-05T11:27:11Z</time>
      </trkpt>
      <trkpt lat="47.14888" lon="-2.14861">
        <ele>17.2</ele>
        <time>2020-06-05T11:27:12Z</time>
      </trkpt>
      <trkpt lat="47.14894" lon="-2.14861">
        <ele>17.1</ele>
        <time>2020-06-05T11:27:13Z</time>
      </trkpt>
      <trkpt lat="47.149" lon="-2.14861">
        <ele>17</ele>
        <time>2020-06-05T11:27:14Z</time>
      </trkpt>
      <trkpt lat="47.14906" lon="-2.14861">
        <ele>16.9</ele>
        <time>2020-06-05T11:27:15Z</time>
      </trkpt>
      <trkpt lat="47.14912" lon="-2.14862">
        <ele>16.8</ele>
        <time>2020-06-05T11:27:16Z</time>
      </trkpt>
      <trkpt lat="47.14918" lon="-2.14861">
        <ele>16.7</ele>
        <time>2020-06-05T11:27:17Z</time>
      </trkpt>
      <trkpt lat="47.14924" lon="-2.14862">
        <ele>16.6</ele>
        <time>2020-06-05T11:27:18Z</time>
      </trkpt>
      <trkpt lat="47.1493" lon="-2.14862">
        <ele>16.5</ele>
        <time>2020-06-05T11:27:19Z</time>
      </trkpt>
      <trkpt lat="47.14935" lon="-2.14862">
        <ele>16.4</ele>
        <time>2020-06-05T11:27:20Z</time>
      </trkpt>
      <trkpt lat="47.14941" lon="-2.14862">
        <ele>16.4</ele>
        <time>2020-06-05T11:27:21Z</time>
      </trkpt>
      <trkpt lat="47.14947" lon="-2.14863">
        <ele>16.3</ele>
        <time>2020-06-05T11:27:22Z</time>
      </trkpt>
      <trkpt lat="47.14952" lon="-2.14863">
        <ele>16.3</ele>
        <time>2020-06-05T11:27:23Z</time>
      </trkpt>
      <trkpt lat="47.14958" lon="-2.14862">
        <ele>16.3</ele>
        <time>2020-06-05T11:27:24Z</time>
      </trkpt>
      <trkpt lat="47.14964" lon="-2.14863">
        <ele>16.3</ele>
        <time>2020-06-05T11:27:25Z</time>
      </trkpt>
      <trkpt lat="47.14969" lon="-2.14863">
        <ele>16.2</ele>
        <time>2020-06-05T11:27:26Z</time>
      </trkpt>
      <trkpt lat="47.14974" lon="-2.14863">
        <ele>16.2</ele>
        <time>2020-06-05T11:27:27Z</time>
      </trkpt>
      <trkpt lat="47.1498" lon="-2.14865">
        <ele>16.2</ele>
        <time>2020-06-05T11:27:28Z</time>
      </trkpt>
      <trkpt lat="47.14985" lon="-2.14865">
        <ele>16.1</ele>
        <time>2020-06-05T11:27:29Z</time>
      </trkpt>
      <trkpt lat="47.1499" lon="-2.14865">
        <ele>16.1</ele>
        <time>2020-06-05T11:27:30Z</time>
      </trkpt>
      <trkpt lat="47.14995" lon="-2.14865">
        <ele>16</ele>
        <time>2020-06-05T11:27:31Z</time>
      </trkpt>
      <trkpt lat="47.15001" lon="-2.14865">
        <ele>16</ele>
        <time>2020-06-05T11:27:32Z</time>
      </trkpt>
      <trkpt lat="47.15006" lon="-2.14865">
        <ele>16</ele>
        <time>2020-06-05T11:27:33Z</time>
      </trkpt>
      <trkpt lat="47.15012" lon="-2.14865">
        <ele>15.9</ele>
        <time>2020-06-05T11:27:34Z</time>
      </trkpt>
      <trkpt lat="47.15017" lon="-2.14865">
        <ele>15.9</ele>
        <time>2020-06-05T11:27:35Z</time>
      </trkpt>
      <trkpt lat="47.15022" lon="-2.14865">
        <ele>15.9</ele>
        <time>2020-06-05T11:27:36Z</time>
      </trkpt>
      <trkpt lat="47.15027" lon="-2.14865">
        <ele>15.9</ele>
        <time>2020-06-05T11:27:37Z</time>
      </trkpt>
      <trkpt lat="47.15033" lon="-2.14865">
        <ele>15.8</ele>
        <time>2020-06-05T11:27:38Z</time>
      </trkpt>
      <trkpt lat="47.15038" lon="-2.14864">
        <ele>15.8</ele>
        <time>2020-06-05T11:27:39Z</time>
      </trkpt>
      <trkpt lat="47.15044" lon="-2.14863">
        <ele>15.7</ele>
        <time>2020-06-05T11:27:40Z</time>
      </trkpt>
      <trkpt lat="47.15049" lon="-2.14862">
        <ele>15.7</ele>
        <time>2020-06-05T11:27:41Z</time>
      </trkpt>
      <trkpt lat="47.15055" lon="-2.14861">
        <ele>15.6</ele>
        <time>2020-06-05T11:27:42Z</time>
      </trkpt>
      <trkpt lat="47.1506" lon="-2.1486">
        <ele>15.6</ele>
        <time>2020-06-05T11:27:43Z</time>
      </trkpt>
      <trkpt lat="47.15066" lon="-2.14859">
        <ele>15.5</ele>
        <time>2020-06-05T11:27:44Z</time>
      </trkpt>
      <trkpt lat="47.15072" lon="-2.14858">
        <ele>15.4</ele>
        <time>2020-06-05T11:27:45Z</time>
      </trkpt>
      <trkpt lat="47.15078" lon="-2.14856">
        <ele>15.4</ele>
        <time>2020-06-05T11:27:46Z</time>
      </trkpt>
      <trkpt lat="47.15084" lon="-2.14854">
        <ele>15.3</ele>
        <time>2020-06-05T11:27:47Z</time>
      </trkpt>
      <trkpt lat="47.1509" lon="-2.14852">
        <ele>15.2</ele>
        <time>2020-06-05T11:27:48Z</time>
      </trkpt>
      <trkpt lat="47.15096" lon="-2.14851">
        <ele>15.1</ele>
        <time>2020-06-05T11:27:49Z</time>
      </trkpt>
      <trkpt lat="47.15101" lon="-2.14851">
        <ele>15</ele>
        <time>2020-06-05T11:27:50Z</time>
      </trkpt>
      <trkpt lat="47.15107" lon="-2.1485">
        <ele>14.8</ele>
        <time>2020-06-05T11:27:51Z</time>
      </trkpt>
      <trkpt lat="47.15112" lon="-2.14848">
        <ele>14.7</ele>
        <time>2020-06-05T11:27:52Z</time>
      </trkpt>
      <trkpt lat="47.15118" lon="-2.14846">
        <ele>14.5</ele>
        <time>2020-06-05T11:27:53Z</time>
      </trkpt>
      <trkpt lat="47.15124" lon="-2.14845">
        <ele>14.3</ele>
        <time>2020-06-05T11:27:54Z</time>
      </trkpt>
      <trkpt lat="47.1513" lon="-2.14843">
        <ele>14.1</ele>
        <time>2020-06-05T11:27:55Z</time>
      </trkpt>
      <trkpt lat="47.15136" lon="-2.14841">
        <ele>13.9</ele>
        <time>2020-06-05T11:27:56Z</time>
      </trkpt>
      <trkpt lat="47.15142" lon="-2.14839">
        <ele>13.7</ele>
        <time>2020-06-05T11:27:57Z</time>
      </trkpt>
      <trkpt lat="47.15148" lon="-2.14838">
        <ele>13.5</ele>
        <time>2020-06-05T11:27:58Z</time>
      </trkpt>
      <trkpt lat="47.15154" lon="-2.14837">
        <ele>13.3</ele>
        <time>2020-06-05T11:27:59Z</time>
      </trkpt>
      <trkpt lat="47.1516" lon="-2.14835">
        <ele>13</ele>
        <time>2020-06-05T11:28:00Z</time>
      </trkpt>
      <trkpt lat="47.15166" lon="-2.14833">
        <ele>12.7</ele>
        <time>2020-06-05T11:28:01Z</time>
      </trkpt>
      <trkpt lat="47.15173" lon="-2.14832">
        <ele>12.5</ele>
        <time>2020-06-05T11:28:02Z</time>
      </trkpt>
      <trkpt lat="47.15179" lon="-2.14829">
        <ele>12.3</ele>
        <time>2020-06-05T11:28:03Z</time>
      </trkpt>
      <trkpt lat="47.15186" lon="-2.14828">
        <ele>12.1</ele>
        <time>2020-06-05T11:28:04Z</time>
      </trkpt>
      <trkpt lat="47.15192" lon="-2.14826">
        <ele>11.9</ele>
        <time>2020-06-05T11:28:05Z</time>
      </trkpt>
      <trkpt lat="47.15198" lon="-2.14825">
        <ele>11.8</ele>
        <time>2020-06-05T11:28:06Z</time>
      </trkpt>
      <trkpt lat="47.15205" lon="-2.14823">
        <ele>11.7</ele>
        <time>2020-06-05T11:28:07Z</time>
      </trkpt>
      <trkpt lat="47.15211" lon="-2.14822">
        <ele>11.7</ele>
        <time>2020-06-05T11:28:08Z</time>
      </trkpt>
      <trkpt lat="47.15217" lon="-2.1482">
        <ele>11.7</ele>
        <time>2020-06-05T11:28:09Z</time>
      </trkpt>
      <trkpt lat="47.15223" lon="-2.14817">
        <ele>11.7</ele>
        <time>2020-06-05T11:28:10Z</time>
      </trkpt>
      <trkpt lat="47.15229" lon="-2.14815">
        <ele>11.7</ele>
        <time>2020-06-05T11:28:11Z</time>
      </trkpt>
      <trkpt lat="47.15236" lon="-2.14813">
        <ele>11.7</ele>
        <time>2020-06-05T11:28:12Z</time>
      </trkpt>
      <trkpt lat="47.15242" lon="-2.14811">
        <ele>11.8</ele>
        <time>2020-06-05T11:28:13Z</time>
      </trkpt>
      <trkpt lat="47.15248" lon="-2.14808">
        <ele>11.8</ele>
        <time>2020-06-05T11:28:14Z</time>
      </trkpt>
      <trkpt lat="47.15254" lon="-2.14805">
        <ele>11.9</ele>
        <time>2020-06-05T11:28:15Z</time>
      </trkpt>
      <trkpt lat="47.15259" lon="-2.14803">
        <ele>12.1</ele>
        <time>2020-06-05T11:28:16Z</time>
      </trkpt>
      <trkpt lat="47.15266" lon="-2.14803">
        <ele>12.3</ele>
        <time>2020-06-05T11:28:17Z</time>
      </trkpt>
      <trkpt lat="47.15272" lon="-2.14803">
        <ele>12.6</ele>
        <time>2020-06-05T11:28:18Z</time>
      </trkpt>
      <trkpt lat="47.15278" lon="-2.14803">
        <ele>12.9</ele>
        <time>2020-06-05T11:28:19Z</time>
      </trkpt>
      <trkpt lat="47.15283" lon="-2.14803">
        <ele>13.1</ele>
        <time>2020-06-05T11:28:20Z</time>
      </trkpt>
      <trkpt lat="47.15289" lon="-2.14803">
        <ele>13.3</ele>
        <time>2020-06-05T11:28:21Z</time>
      </trkpt>
      <trkpt lat="47.15292" lon="-2.14804">
        <ele>13.6</ele>
        <time>2020-06-05T11:28:22Z</time>
      </trkpt>
      <trkpt lat="47.15297" lon="-2.14805">
        <ele>13.9</ele>
        <time>2020-06-05T11:28:23Z</time>
      </trkpt>
      <trkpt lat="47.15301" lon="-2.14806">
        <ele>14.1</ele>
        <time>2020-06-05T11:28:24Z</time>
      </trkpt>
      <trkpt lat="47.15305" lon="-2.14807">
        <ele>14.3</ele>
        <time>2020-06-05T11:28:25Z</time>
      </trkpt>
      <trkpt lat="47.15309" lon="-2.14809">
        <ele>14.5</ele>
        <time>2020-06-05T11:28:26Z</time>
      </trkpt>
      <trkpt lat="47.15313" lon="-2.14811">
        <ele>14.7</ele>
        <time>2020-06-05T11:28:27Z</time>
      </trkpt>
      <trkpt lat="47.15318" lon="-2.14812">
        <ele>14.9</ele>
        <time>2020-06-05T11:28:28Z</time>
      </trkpt>
      <trkpt lat="47.15322" lon="-2.14814">
        <ele>15.1</ele>
        <time>2020-06-05T11:28:29Z</time>
      </trkpt>
      <trkpt lat="47.15325" lon="-2.14815">
        <ele>15.2</ele>
        <time>2020-06-05T11:28:30Z</time>
      </trkpt>
      <trkpt lat="47.15329" lon="-2.14816">
        <ele>15.4</ele>
        <time>2020-06-05T11:28:31Z</time>
      </trkpt>
      <trkpt lat="47.15333" lon="-2.14817">
        <ele>15.5</ele>
        <time>2020-06-05T11:28:32Z</time>
      </trkpt>
      <trkpt lat="47.15337" lon="-2.14818">
        <ele>15.7</ele>
        <time>2020-06-05T11:28:33Z</time>
      </trkpt>
      <trkpt lat="47.15341" lon="-2.14819">
        <ele>15.8</ele>
        <time>2020-06-05T11:28:34Z</time>
      </trkpt>
      <trkpt lat="47.15346" lon="-2.14819">
        <ele>16</ele>
        <time>2020-06-05T11:28:35Z</time>
      </trkpt>
      <trkpt lat="47.1535" lon="-2.1482">
        <ele>16.2</ele>
        <time>2020-06-05T11:28:36Z</time>
      </trkpt>
      <trkpt lat="47.15354" lon="-2.14821">
        <ele>16.3</ele>
        <time>2020-06-05T11:28:37Z</time>
      </trkpt>
      <trkpt lat="47.15358" lon="-2.14823">
        <ele>16.5</ele>
        <time>2020-06-05T11:28:38Z</time>
      </trkpt>
      <trkpt lat="47.15362" lon="-2.14824">
        <ele>16.6</ele>
        <time>2020-06-05T11:28:39Z</time>
      </trkpt>
      <trkpt lat="47.15366" lon="-2.14826">
        <ele>16.8</ele>
        <time>2020-06-05T11:28:40Z</time>
      </trkpt>
      <trkpt lat="47.1537" lon="-2.14827">
        <ele>16.9</ele>
        <time>2020-06-05T11:28:41Z</time>
      </trkpt>
      <trkpt lat="47.15372" lon="-2.14828">
        <ele>17</ele>
        <time>2020-06-05T11:28:42Z</time>
      </trkpt>
      <trkpt lat="47.15376" lon="-2.1483">
        <ele>17.2</ele>
        <time>2020-06-05T11:28:43Z</time>
      </trkpt>
      <trkpt lat="47.1538" lon="-2.1483">
        <ele>17.3</ele>
        <time>2020-06-05T11:28:44Z</time>
      </trkpt>
      <trkpt lat="47.15384" lon="-2.1483">
        <ele>17.4</ele>
        <time>2020-06-05T11:28:45Z</time>
      </trkpt>
      <trkpt lat="47.15388" lon="-2.1483">
        <ele>17.5</ele>
        <time>2020-06-05T11:28:46Z</time>
      </trkpt>
      <trkpt lat="47.15393" lon="-2.14831">
        <ele>17.7</ele>
        <time>2020-06-05T11:28:47Z</time>
      </trkpt>
      <trkpt lat="47.15395" lon="-2.14831">
        <ele>17.7</ele>
        <time>2020-06-05T11:28:48Z</time>
      </trkpt>
      <trkpt lat="47.15399" lon="-2.14831">
        <ele>17.9</ele>
        <time>2020-06-05T11:28:49Z</time>
      </trkpt>
      <trkpt lat="47.15403" lon="-2.1483">
        <ele>18</ele>
        <time>2020-06-05T11:28:50Z</time>
      </trkpt>
      <trkpt lat="47.15407" lon="-2.1483">
        <ele>18.1</ele>
        <time>2020-06-05T11:28:51Z</time>
      </trkpt>
      <trkpt lat="47.15412" lon="-2.14829">
        <ele>18.2</ele>
        <time>2020-06-05T11:28:52Z</time>
      </trkpt>
      <trkpt lat="47.15416" lon="-2.14829">
        <ele>18.3</ele>
        <time>2020-06-05T11:28:53Z</time>
      </trkpt>
      <trkpt lat="47.1542" lon="-2.1483">
        <ele>18.4</ele>
        <time>2020-06-05T11:28:54Z</time>
      </trkpt>
      <trkpt lat="47.15425" lon="-2.14829">
        <ele>18.4</ele>
        <time>2020-06-05T11:28:55Z</time>
      </trkpt>
      <trkpt lat="47.1543" lon="-2.14828">
        <ele>18.5</ele>
        <time>2020-06-05T11:28:56Z</time>
      </trkpt>
      <trkpt lat="47.15434" lon="-2.14827">
        <ele>18.5</ele>
        <time>2020-06-05T11:28:57Z</time>
      </trkpt>
      <trkpt lat="47.15438" lon="-2.14825">
        <ele>18.6</ele>
        <time>2020-06-05T11:28:58Z</time>
      </trkpt>
      <trkpt lat="47.15442" lon="-2.14823">
        <ele>18.7</ele>
        <time>2020-06-05T11:28:59Z</time>
      </trkpt>
      <trkpt lat="47.15447" lon="-2.14821">
        <ele>18.8</ele>
        <time>2020-06-05T11:29:00Z</time>
      </trkpt>
      <trkpt lat="47.15451" lon="-2.14819">
        <ele>18.9</ele>
        <time>2020-06-05T11:29:01Z</time>
      </trkpt>
      <trkpt lat="47.15456" lon="-2.14816">
        <ele>19</ele>
        <time>2020-06-05T11:29:02Z</time>
      </trkpt>
      <trkpt lat="47.15461" lon="-2.14813">
        <ele>19.2</ele>
        <time>2020-06-05T11:29:03Z</time>
      </trkpt>
      <trkpt lat="47.15464" lon="-2.14811">
        <ele>19.3</ele>
        <time>2020-06-05T11:29:04Z</time>
      </trkpt>
      <trkpt lat="47.15468" lon="-2.14808">
        <ele>19.4</ele>
        <time>2020-06-05T11:29:05Z</time>
      </trkpt>
      <trkpt lat="47.15471" lon="-2.14805">
        <ele>19.5</ele>
        <time>2020-06-05T11:29:06Z</time>
      </trkpt>
      <trkpt lat="47.15475" lon="-2.14802">
        <ele>19.7</ele>
        <time>2020-06-05T11:29:07Z</time>
      </trkpt>
      <trkpt lat="47.15479" lon="-2.14797">
        <ele>19.8</ele>
        <time>2020-06-05T11:29:08Z</time>
      </trkpt>
      <trkpt lat="47.15482" lon="-2.14794">
        <ele>19.9</ele>
        <time>2020-06-05T11:29:09Z</time>
      </trkpt>
      <trkpt lat="47.15486" lon="-2.1479">
        <ele>20.1</ele>
        <time>2020-06-05T11:29:10Z</time>
      </trkpt>
      <trkpt lat="47.1549" lon="-2.14786">
        <ele>20.2</ele>
        <time>2020-06-05T11:29:11Z</time>
      </trkpt>
      <trkpt lat="47.15493" lon="-2.14781">
        <ele>20.4</ele>
        <time>2020-06-05T11:29:12Z</time>
      </trkpt>
      <trkpt lat="47.15496" lon="-2.14777">
        <ele>20.5</ele>
        <time>2020-06-05T11:29:13Z</time>
      </trkpt>
      <trkpt lat="47.15499" lon="-2.14773">
        <ele>20.6</ele>
        <time>2020-06-05T11:29:14Z</time>
      </trkpt>
      <trkpt lat="47.15502" lon="-2.14769">
        <ele>20.6</ele>
        <time>2020-06-05T11:29:15Z</time>
      </trkpt>
      <trkpt lat="47.15506" lon="-2.14764">
        <ele>20.7</ele>
        <time>2020-06-05T11:29:16Z</time>
      </trkpt>
      <trkpt lat="47.1551" lon="-2.1476">
        <ele>20.8</ele>
        <time>2020-06-05T11:29:17Z</time>
      </trkpt>
      <trkpt lat="47.15513" lon="-2.14756">
        <ele>20.8</ele>
        <time>2020-06-05T11:29:18Z</time>
      </trkpt>
      <trkpt lat="47.15516" lon="-2.14753">
        <ele>21</ele>
        <time>2020-06-05T11:29:19Z</time>
      </trkpt>
      <trkpt lat="47.1552" lon="-2.14748">
        <ele>21.1</ele>
        <time>2020-06-05T11:29:20Z</time>
      </trkpt>
      <trkpt lat="47.15523" lon="-2.14744">
        <ele>21.2</ele>
        <time>2020-06-05T11:29:21Z</time>
      </trkpt>
      <trkpt lat="47.15526" lon="-2.1474">
        <ele>21.3</ele>
        <time>2020-06-05T11:29:22Z</time>
      </trkpt>
      <trkpt lat="47.15529" lon="-2.14736">
        <ele>21.4</ele>
        <time>2020-06-05T11:29:23Z</time>
      </trkpt>
      <trkpt lat="47.15532" lon="-2.14732">
        <ele>21.5</ele>
        <time>2020-06-05T11:29:24Z</time>
      </trkpt>
      <trkpt lat="47.15535" lon="-2.14728">
        <ele>21.6</ele>
        <time>2020-06-05T11:29:25Z</time>
      </trkpt>
      <trkpt lat="47.15539" lon="-2.14724">
        <ele>21.7</ele>
        <time>2020-06-05T11:29:26Z</time>
      </trkpt>
      <trkpt lat="47.15542" lon="-2.1472">
        <ele>21.8</ele>
        <time>2020-06-05T11:29:27Z</time>
      </trkpt>
      <trkpt lat="47.15546" lon="-2.14717">
        <ele>21.9</ele>
        <time>2020-06-05T11:29:28Z</time>
      </trkpt>
      <trkpt lat="47.15547" lon="-2.14715">
        <ele>21.9</ele>
        <time>2020-06-05T11:29:29Z</time>
      </trkpt>
      <trkpt lat="47.15551" lon="-2.14711">
        <ele>22.1</ele>
        <time>2020-06-05T11:29:30Z</time>
      </trkpt>
      <trkpt lat="47.15554" lon="-2.14707">
        <ele>22.2</ele>
        <time>2020-06-05T11:29:31Z</time>
      </trkpt>
      <trkpt lat="47.15558" lon="-2.14703">
        <ele>22.4</ele>
        <time>2020-06-05T11:29:32Z</time>
      </trkpt>
      <trkpt lat="47.15562" lon="-2.14698">
        <ele>22.5</ele>
        <time>2020-06-05T11:29:33Z</time>
      </trkpt>
      <trkpt lat="47.15566" lon="-2.14694">
        <ele>22.7</ele>
        <time>2020-06-05T11:29:34Z</time>
      </trkpt>
      <trkpt lat="47.15569" lon="-2.1469">
        <ele>22.8</ele>
        <time>2020-06-05T11:29:35Z</time>
      </trkpt>
      <trkpt lat="47.15573" lon="-2.14686">
        <ele>22.9</ele>
        <time>2020-06-05T11:29:36Z</time>
      </trkpt>
      <trkpt lat="47.15576" lon="-2.14683">
        <ele>23.1</ele>
        <time>2020-06-05T11:29:37Z</time>
      </trkpt>
      <trkpt lat="47.15579" lon="-2.14679">
        <ele>23.2</ele>
        <time>2020-06-05T11:29:38Z</time>
      </trkpt>
      <trkpt lat="47.15581" lon="-2.14677">
        <ele>23.3</ele>
        <time>2020-06-05T11:29:39Z</time>
      </trkpt>
      <trkpt lat="47.15584" lon="-2.14674">
        <ele>23.4</ele>
        <time>2020-06-05T11:29:40Z</time>
      </trkpt>
      <trkpt lat="47.15587" lon="-2.14671">
        <ele>23.5</ele>
        <time>2020-06-05T11:29:41Z</time>
      </trkpt>
      <trkpt lat="47.1559" lon="-2.14668">
        <ele>23.6</ele>
        <time>2020-06-05T11:29:42Z</time>
      </trkpt>
      <trkpt lat="47.15593" lon="-2.14665">
        <ele>23.7</ele>
        <time>2020-06-05T11:29:43Z</time>
      </trkpt>
      <trkpt lat="47.15597" lon="-2.14661">
        <ele>23.9</ele>
        <time>2020-06-05T11:29:44Z</time>
      </trkpt>
      <trkpt lat="47.156" lon="-2.14658">
        <ele>24</ele>
        <time>2020-06-05T11:29:45Z</time>
      </trkpt>
      <trkpt lat="47.15604" lon="-2.14654">
        <ele>24.1</ele>
        <time>2020-06-05T11:29:46Z</time>
      </trkpt>
      <trkpt lat="47.15607" lon="-2.14652">
        <ele>24.2</ele>
        <time>2020-06-05T11:29:47Z</time>
      </trkpt>
      <trkpt lat="47.1561" lon="-2.14648">
        <ele>24.4</ele>
        <time>2020-06-05T11:29:48Z</time>
      </trkpt>
      <trkpt lat="47.15613" lon="-2.14645">
        <ele>24.5</ele>
        <time>2020-06-05T11:29:49Z</time>
      </trkpt>
      <trkpt lat="47.15617" lon="-2.14642">
        <ele>24.6</ele>
        <time>2020-06-05T11:29:50Z</time>
      </trkpt>
      <trkpt lat="47.1562" lon="-2.14638">
        <ele>24.7</ele>
        <time>2020-06-05T11:29:51Z</time>
      </trkpt>
      <trkpt lat="47.15624" lon="-2.14634">
        <ele>24.9</ele>
        <time>2020-06-05T11:29:52Z</time>
      </trkpt>
      <trkpt lat="47.15627" lon="-2.14632">
        <ele>25</ele>
        <time>2020-06-05T11:29:53Z</time>
      </trkpt>
      <trkpt lat="47.15631" lon="-2.14629">
        <ele>25.1</ele>
        <time>2020-06-05T11:29:54Z</time>
      </trkpt>
      <trkpt lat="47.15634" lon="-2.14626">
        <ele>25.3</ele>
        <time>2020-06-05T11:29:55Z</time>
      </trkpt>
      <trkpt lat="47.15637" lon="-2.14623">
        <ele>25.4</ele>
        <time>2020-06-05T11:29:56Z</time>
      </trkpt>
      <trkpt lat="47.1564" lon="-2.14621">
        <ele>25.5</ele>
        <time>2020-06-05T11:29:57Z</time>
      </trkpt>
      <trkpt lat="47.15644" lon="-2.14618">
        <ele>25.6</ele>
        <time>2020-06-05T11:29:58Z</time>
      </trkpt>
      <trkpt lat="47.15647" lon="-2.14615">
        <ele>25.7</ele>
        <time>2020-06-05T11:29:59Z</time>
      </trkpt>
      <trkpt lat="47.1565" lon="-2.14611">
        <ele>25.8</ele>
        <time>2020-06-05T11:30:00Z</time>
      </trkpt>
      <trkpt lat="47.15654" lon="-2.14608">
        <ele>25.9</ele>
        <time>2020-06-05T11:30:01Z</time>
      </trkpt>
      <trkpt lat="47.15658" lon="-2.14605">
        <ele>26</ele>
        <time>2020-06-05T11:30:02Z</time>
      </trkpt>
      <trkpt lat="47.15661" lon="-2.14602">
        <ele>26.1</ele>
        <time>2020-06-05T11:30:03Z</time>
      </trkpt>
      <trkpt lat="47.15664" lon="-2.14599">
        <ele>26.1</ele>
        <time>2020-06-05T11:30:04Z</time>
      </trkpt>
      <trkpt lat="47.15667" lon="-2.14597">
        <ele>26.2</ele>
        <time>2020-06-05T11:30:05Z</time>
      </trkpt>
      <trkpt lat="47.15671" lon="-2.14596">
        <ele>26.2</ele>
        <time>2020-06-05T11:30:06Z</time>
      </trkpt>
      <trkpt lat="47.15674" lon="-2.14593">
        <ele>26.3</ele>
        <time>2020-06-05T11:30:07Z</time>
      </trkpt>
      <trkpt lat="47.15677" lon="-2.14591">
        <ele>26.3</ele>
        <time>2020-06-05T11:30:08Z</time>
      </trkpt>
      <trkpt lat="47.15681" lon="-2.14589">
        <ele>26.4</ele>
        <time>2020-06-05T11:30:09Z</time>
      </trkpt>
      <trkpt lat="47.15685" lon="-2.14587">
        <ele>26.5</ele>
        <time>2020-06-05T11:30:10Z</time>
      </trkpt>
      <trkpt lat="47.15689" lon="-2.14586">
        <ele>26.6</ele>
        <time>2020-06-05T11:30:11Z</time>
      </trkpt>
      <trkpt lat="47.15693" lon="-2.14584">
        <ele>26.6</ele>
        <time>2020-06-05T11:30:12Z</time>
      </trkpt>
      <trkpt lat="47.15697" lon="-2.14582">
        <ele>26.7</ele>
        <time>2020-06-05T11:30:13Z</time>
      </trkpt>
      <trkpt lat="47.15701" lon="-2.1458">
        <ele>26.8</ele>
        <time>2020-06-05T11:30:14Z</time>
      </trkpt>
      <trkpt lat="47.15705" lon="-2.14579">
        <ele>26.8</ele>
        <time>2020-06-05T11:30:15Z</time>
      </trkpt>
      <trkpt lat="47.1571" lon="-2.14578">
        <ele>26.9</ele>
        <time>2020-06-05T11:30:16Z</time>
      </trkpt>
      <trkpt lat="47.15714" lon="-2.14577">
        <ele>26.9</ele>
        <time>2020-06-05T11:30:17Z</time>
      </trkpt>
      <trkpt lat="47.15718" lon="-2.14576">
        <ele>26.9</ele>
        <time>2020-06-05T11:30:18Z</time>
      </trkpt>
      <trkpt lat="47.15722" lon="-2.14575">
        <ele>26.9</ele>
        <time>2020-06-05T11:30:19Z</time>
      </trkpt>
      <trkpt lat="47.15726" lon="-2.14574">
        <ele>26.9</ele>
        <time>2020-06-05T11:30:20Z</time>
      </trkpt>
      <trkpt lat="47.15731" lon="-2.14575">
        <ele>26.9</ele>
        <time>2020-06-05T11:30:21Z</time>
      </trkpt>
      <trkpt lat="47.15735" lon="-2.14576">
        <ele>26.8</ele>
        <time>2020-06-05T11:30:22Z</time>
      </trkpt>
      <trkpt lat="47.15739" lon="-2.14576">
        <ele>26.8</ele>
        <time>2020-06-05T11:30:23Z</time>
      </trkpt>
      <trkpt lat="47.15743" lon="-2.14577">
        <ele>26.8</ele>
        <time>2020-06-05T11:30:24Z</time>
      </trkpt>
      <trkpt lat="47.15747" lon="-2.14577">
        <ele>26.7</ele>
        <time>2020-06-05T11:30:25Z</time>
      </trkpt>
      <trkpt lat="47.15751" lon="-2.14577">
        <ele>26.7</ele>
        <time>2020-06-05T11:30:26Z</time>
      </trkpt>
      <trkpt lat="47.15755" lon="-2.14577">
        <ele>26.6</ele>
        <time>2020-06-05T11:30:27Z</time>
      </trkpt>
      <trkpt lat="47.15759" lon="-2.14577">
        <ele>26.6</ele>
        <time>2020-06-05T11:30:28Z</time>
      </trkpt>
      <trkpt lat="47.15763" lon="-2.14577">
        <ele>26.5</ele>
        <time>2020-06-05T11:30:29Z</time>
      </trkpt>
      <trkpt lat="47.15766" lon="-2.14577">
        <ele>26.4</ele>
        <time>2020-06-05T11:30:30Z</time>
      </trkpt>
      <trkpt lat="47.15771" lon="-2.14577">
        <ele>26.4</ele>
        <time>2020-06-05T11:30:31Z</time>
      </trkpt>
      <trkpt lat="47.15775" lon="-2.14576">
        <ele>26.3</ele>
        <time>2020-06-05T11:30:32Z</time>
      </trkpt>
      <trkpt lat="47.15779" lon="-2.14575">
        <ele>26.2</ele>
        <time>2020-06-05T11:30:33Z</time>
      </trkpt>
      <trkpt lat="47.15783" lon="-2.14574">
        <ele>26.1</ele>
        <time>2020-06-05T11:30:34Z</time>
      </trkpt>
      <trkpt lat="47.15787" lon="-2.14574">
        <ele>26</ele>
        <time>2020-06-05T11:30:35Z</time>
      </trkpt>
      <trkpt lat="47.15792" lon="-2.14573">
        <ele>25.9</ele>
        <time>2020-06-05T11:30:36Z</time>
      </trkpt>
      <trkpt lat="47.15795" lon="-2.14573">
        <ele>25.8</ele>
        <time>2020-06-05T11:30:37Z</time>
      </trkpt>
      <trkpt lat="47.15799" lon="-2.14573">
        <ele>25.7</ele>
        <time>2020-06-05T11:30:38Z</time>
      </trkpt>
      <trkpt lat="47.15803" lon="-2.14574">
        <ele>25.5</ele>
        <time>2020-06-05T11:30:39Z</time>
      </trkpt>
      <trkpt lat="47.15807" lon="-2.14574">
        <ele>25.3</ele>
        <time>2020-06-05T11:30:40Z</time>
      </trkpt>
      <trkpt lat="47.15812" lon="-2.14575">
        <ele>25</ele>
        <time>2020-06-05T11:30:41Z</time>
      </trkpt>
      <trkpt lat="47.15818" lon="-2.14574">
        <ele>24.6</ele>
        <time>2020-06-05T11:30:42Z</time>
      </trkpt>
      <trkpt lat="47.15823" lon="-2.14573">
        <ele>24.2</ele>
        <time>2020-06-05T11:30:43Z</time>
      </trkpt>
      <trkpt lat="47.15829" lon="-2.14572">
        <ele>23.9</ele>
        <time>2020-06-05T11:30:44Z</time>
      </trkpt>
      <trkpt lat="47.15835" lon="-2.14571">
        <ele>23.4</ele>
        <time>2020-06-05T11:30:45Z</time>
      </trkpt>
      <trkpt lat="47.15841" lon="-2.14569">
        <ele>23.1</ele>
        <time>2020-06-05T11:30:46Z</time>
      </trkpt>
      <trkpt lat="47.15846" lon="-2.14567">
        <ele>22.7</ele>
        <time>2020-06-05T11:30:47Z</time>
      </trkpt>
      <trkpt lat="47.15851" lon="-2.14566">
        <ele>22.4</ele>
        <time>2020-06-05T11:30:48Z</time>
      </trkpt>
      <trkpt lat="47.15857" lon="-2.14564">
        <ele>22.1</ele>
        <time>2020-06-05T11:30:49Z</time>
      </trkpt>
      <trkpt lat="47.15863" lon="-2.14563">
        <ele>21.8</ele>
        <time>2020-06-05T11:30:50Z</time>
      </trkpt>
      <trkpt lat="47.15869" lon="-2.14562">
        <ele>21.6</ele>
        <time>2020-06-05T11:30:51Z</time>
      </trkpt>
      <trkpt lat="47.15875" lon="-2.14561">
        <ele>21.3</ele>
        <time>2020-06-05T11:30:52Z</time>
      </trkpt>
      <trkpt lat="47.15882" lon="-2.1456">
        <ele>21.1</ele>
        <time>2020-06-05T11:30:53Z</time>
      </trkpt>
      <trkpt lat="47.15889" lon="-2.14559">
        <ele>20.8</ele>
        <time>2020-06-05T11:30:54Z</time>
      </trkpt>
      <trkpt lat="47.15896" lon="-2.14557">
        <ele>20.5</ele>
        <time>2020-06-05T11:30:55Z</time>
      </trkpt>
      <trkpt lat="47.15902" lon="-2.14556">
        <ele>20.3</ele>
        <time>2020-06-05T11:30:56Z</time>
      </trkpt>
      <trkpt lat="47.15908" lon="-2.14553">
        <ele>20.1</ele>
        <time>2020-06-05T11:30:57Z</time>
      </trkpt>
      <trkpt lat="47.15915" lon="-2.14551">
        <ele>19.9</ele>
        <time>2020-06-05T11:30:58Z</time>
      </trkpt>
      <trkpt lat="47.15923" lon="-2.14551">
        <ele>19.7</ele>
        <time>2020-06-05T11:30:59Z</time>
      </trkpt>
      <trkpt lat="47.15931" lon="-2.1455">
        <ele>19.5</ele>
        <time>2020-06-05T11:31:00Z</time>
      </trkpt>
      <trkpt lat="47.15938" lon="-2.14549">
        <ele>19.3</ele>
        <time>2020-06-05T11:31:01Z</time>
      </trkpt>
      <trkpt lat="47.15945" lon="-2.14548">
        <ele>19.2</ele>
        <time>2020-06-05T11:31:02Z</time>
      </trkpt>
      <trkpt lat="47.15953" lon="-2.14547">
        <ele>19.1</ele>
        <time>2020-06-05T11:31:03Z</time>
      </trkpt>
      <trkpt lat="47.1596" lon="-2.14546">
        <ele>19</ele>
        <time>2020-06-05T11:31:04Z</time>
      </trkpt>
      <trkpt lat="47.15966" lon="-2.14545">
        <ele>18.9</ele>
        <time>2020-06-05T11:31:05Z</time>
      </trkpt>
      <trkpt lat="47.15972" lon="-2.14544">
        <ele>18.9</ele>
        <time>2020-06-05T11:31:06Z</time>
      </trkpt>
      <trkpt lat="47.15978" lon="-2.14543">
        <ele>18.9</ele>
        <time>2020-06-05T11:31:07Z</time>
      </trkpt>
      <trkpt lat="47.15983" lon="-2.14542">
        <ele>18.9</ele>
        <time>2020-06-05T11:31:08Z</time>
      </trkpt>
      <trkpt lat="47.15989" lon="-2.1454">
        <ele>18.9</ele>
        <time>2020-06-05T11:31:09Z</time>
      </trkpt>
      <trkpt lat="47.15994" lon="-2.14539">
        <ele>18.9</ele>
        <time>2020-06-05T11:31:10Z</time>
      </trkpt>
      <trkpt lat="47.15998" lon="-2.14538">
        <ele>18.9</ele>
        <time>2020-06-05T11:31:11Z</time>
      </trkpt>
      <trkpt lat="47.16" lon="-2.14536">
        <ele>19</ele>
        <time>2020-06-05T11:31:12Z</time>
      </trkpt>
      <trkpt lat="47.16001" lon="-2.14536">
        <ele>18.9</ele>
        <time>2020-06-05T11:31:13Z</time>
      </trkpt>
      <trkpt lat="47.16004" lon="-2.14537">
        <ele>18.8</ele>
        <time>2020-06-05T11:31:14Z</time>
      </trkpt>
      <trkpt lat="47.16005" lon="-2.14538">
        <ele>18.8</ele>
        <time>2020-06-05T11:31:15Z</time>
      </trkpt>
      <trkpt lat="47.16006" lon="-2.14541">
        <ele>18.7</ele>
        <time>2020-06-05T11:31:16Z</time>
      </trkpt>
      <trkpt lat="47.16008" lon="-2.14545">
        <ele>18.6</ele>
        <time>2020-06-05T11:31:17Z</time>
      </trkpt>
      <trkpt lat="47.16009" lon="-2.1455">
        <ele>18.4</ele>
        <time>2020-06-05T11:31:18Z</time>
      </trkpt>
      <trkpt lat="47.1601" lon="-2.14555">
        <ele>18.3</ele>
        <time>2020-06-05T11:31:19Z</time>
      </trkpt>
      <trkpt lat="47.16012" lon="-2.14559">
        <ele>18.2</ele>
        <time>2020-06-05T11:31:20Z</time>
      </trkpt>
      <trkpt lat="47.16014" lon="-2.14564">
        <ele>18.1</ele>
        <time>2020-06-05T11:31:21Z</time>
      </trkpt>
      <trkpt lat="47.16016" lon="-2.14569">
        <ele>18</ele>
        <time>2020-06-05T11:31:22Z</time>
      </trkpt>
      <trkpt lat="47.16017" lon="-2.14574">
        <ele>17.9</ele>
        <time>2020-06-05T11:31:23Z</time>
      </trkpt>
      <trkpt lat="47.16018" lon="-2.14579">
        <ele>17.8</ele>
        <time>2020-06-05T11:31:24Z</time>
      </trkpt>
      <trkpt lat="47.1602" lon="-2.14585">
        <ele>17.7</ele>
        <time>2020-06-05T11:31:25Z</time>
      </trkpt>
      <trkpt lat="47.16021" lon="-2.14591">
        <ele>17.6</ele>
        <time>2020-06-05T11:31:26Z</time>
      </trkpt>
      <trkpt lat="47.16023" lon="-2.14597">
        <ele>17.5</ele>
        <time>2020-06-05T11:31:27Z</time>
      </trkpt>
      <trkpt lat="47.16024" lon="-2.14603">
        <ele>17.5</ele>
        <time>2020-06-05T11:31:28Z</time>
      </trkpt>
      <trkpt lat="47.16025" lon="-2.14609">
        <ele>17.4</ele>
        <time>2020-06-05T11:31:29Z</time>
      </trkpt>
      <trkpt lat="47.16025" lon="-2.14615">
        <ele>17.4</ele>
        <time>2020-06-05T11:31:30Z</time>
      </trkpt>
      <trkpt lat="47.16026" lon="-2.14621">
        <ele>17.4</ele>
        <time>2020-06-05T11:31:31Z</time>
      </trkpt>
      <trkpt lat="47.16029" lon="-2.14625">
        <ele>17.4</ele>
        <time>2020-06-05T11:31:32Z</time>
      </trkpt>
      <trkpt lat="47.16032" lon="-2.14628">
        <ele>17.4</ele>
        <time>2020-06-05T11:31:33Z</time>
      </trkpt>
      <trkpt lat="47.16035" lon="-2.1463">
        <ele>17.3</ele>
        <time>2020-06-05T11:31:34Z</time>
      </trkpt>
      <trkpt lat="47.16038" lon="-2.14632">
        <ele>17.2</ele>
        <time>2020-06-05T11:31:35Z</time>
      </trkpt>
      <trkpt lat="47.16042" lon="-2.14632">
        <ele>17.1</ele>
        <time>2020-06-05T11:31:36Z</time>
      </trkpt>
      <trkpt lat="47.16045" lon="-2.14631">
        <ele>17.1</ele>
        <time>2020-06-05T11:31:37Z</time>
      </trkpt>
      <trkpt lat="47.16048" lon="-2.14629">
        <ele>17</ele>
        <time>2020-06-05T11:31:38Z</time>
      </trkpt>
      <trkpt lat="47.16052" lon="-2.14629">
        <ele>17</ele>
        <time>2020-06-05T11:31:39Z</time>
      </trkpt>
      <trkpt lat="47.16055" lon="-2.14629">
        <ele>16.9</ele>
        <time>2020-06-05T11:31:40Z</time>
      </trkpt>
      <trkpt lat="47.16059" lon="-2.14629">
        <ele>16.9</ele>
        <time>2020-06-05T11:31:41Z</time>
      </trkpt>
      <trkpt lat="47.16063" lon="-2.14627">
        <ele>16.8</ele>
        <time>2020-06-05T11:31:42Z</time>
      </trkpt>
      <trkpt lat="47.16067" lon="-2.14626">
        <ele>16.8</ele>
        <time>2020-06-05T11:31:43Z</time>
      </trkpt>
      <trkpt lat="47.16071" lon="-2.14624">
        <ele>16.8</ele>
        <time>2020-06-05T11:31:44Z</time>
      </trkpt>
      <trkpt lat="47.16075" lon="-2.14623">
        <ele>16.8</ele>
        <time>2020-06-05T11:31:45Z</time>
      </trkpt>
      <trkpt lat="47.1608" lon="-2.14622">
        <ele>16.9</ele>
        <time>2020-06-05T11:31:46Z</time>
      </trkpt>
      <trkpt lat="47.16084" lon="-2.14621">
        <ele>16.9</ele>
        <time>2020-06-05T11:31:47Z</time>
      </trkpt>
      <trkpt lat="47.16088" lon="-2.1462">
        <ele>17</ele>
        <time>2020-06-05T11:31:48Z</time>
      </trkpt>
      <trkpt lat="47.16092" lon="-2.14618">
        <ele>17</ele>
        <time>2020-06-05T11:31:49Z</time>
      </trkpt>
      <trkpt lat="47.16097" lon="-2.14619">
        <ele>17</ele>
        <time>2020-06-05T11:31:50Z</time>
      </trkpt>
      <trkpt lat="47.16102" lon="-2.1462">
        <ele>17.1</ele>
        <time>2020-06-05T11:31:51Z</time>
      </trkpt>
      <trkpt lat="47.16107" lon="-2.14621">
        <ele>17.1</ele>
        <time>2020-06-05T11:31:52Z</time>
      </trkpt>
      <trkpt lat="47.16112" lon="-2.14622">
        <ele>17.2</ele>
        <time>2020-06-05T11:31:53Z</time>
      </trkpt>
      <trkpt lat="47.16116" lon="-2.14623">
        <ele>17.2</ele>
        <time>2020-06-05T11:31:54Z</time>
      </trkpt>
      <trkpt lat="47.16121" lon="-2.14624">
        <ele>17.2</ele>
        <time>2020-06-05T11:31:55Z</time>
      </trkpt>
      <trkpt lat="47.16125" lon="-2.14625">
        <ele>17.3</ele>
        <time>2020-06-05T11:31:56Z</time>
      </trkpt>
      <trkpt lat="47.16129" lon="-2.14626">
        <ele>17.3</ele>
        <time>2020-06-05T11:31:57Z</time>
      </trkpt>
      <trkpt lat="47.16133" lon="-2.14627">
        <ele>17.3</ele>
        <time>2020-06-05T11:31:58Z</time>
      </trkpt>
      <trkpt lat="47.16138" lon="-2.14628">
        <ele>17.4</ele>
        <time>2020-06-05T11:31:59Z</time>
      </trkpt>
      <trkpt lat="47.16143" lon="-2.14627">
        <ele>17.4</ele>
        <time>2020-06-05T11:32:00Z</time>
      </trkpt>
      <trkpt lat="47.16147" lon="-2.14626">
        <ele>17.5</ele>
        <time>2020-06-05T11:32:01Z</time>
      </trkpt>
      <trkpt lat="47.16152" lon="-2.14626">
        <ele>17.5</ele>
        <time>2020-06-05T11:32:02Z</time>
      </trkpt>
      <trkpt lat="47.16157" lon="-2.14627">
        <ele>17.6</ele>
        <time>2020-06-05T11:32:03Z</time>
      </trkpt>
      <trkpt lat="47.16161" lon="-2.14627">
        <ele>17.6</ele>
        <time>2020-06-05T11:32:04Z</time>
      </trkpt>
      <trkpt lat="47.16165" lon="-2.14628">
        <ele>17.6</ele>
        <time>2020-06-05T11:32:05Z</time>
      </trkpt>
      <trkpt lat="47.1617" lon="-2.14628">
        <ele>17.6</ele>
        <time>2020-06-05T11:32:06Z</time>
      </trkpt>
      <trkpt lat="47.16175" lon="-2.14629">
        <ele>17.6</ele>
        <time>2020-06-05T11:32:07Z</time>
      </trkpt>
      <trkpt lat="47.16179" lon="-2.1463">
        <ele>17.7</ele>
        <time>2020-06-05T11:32:08Z</time>
      </trkpt>
      <trkpt lat="47.16184" lon="-2.14631">
        <ele>17.7</ele>
        <time>2020-06-05T11:32:09Z</time>
      </trkpt>
      <trkpt lat="47.16188" lon="-2.14631">
        <ele>17.7</ele>
        <time>2020-06-05T11:32:10Z</time>
      </trkpt>
      <trkpt lat="47.16193" lon="-2.14632">
        <ele>17.7</ele>
        <time>2020-06-05T11:32:11Z</time>
      </trkpt>
      <trkpt lat="47.16197" lon="-2.14632">
        <ele>17.7</ele>
        <time>2020-06-05T11:32:12Z</time>
      </trkpt>
      <trkpt lat="47.16201" lon="-2.14633">
        <ele>17.7</ele>
        <time>2020-06-05T11:32:13Z</time>
      </trkpt>
      <trkpt lat="47.16206" lon="-2.14634">
        <ele>17.7</ele>
        <time>2020-06-05T11:32:14Z</time>
      </trkpt>
      <trkpt lat="47.1621" lon="-2.14634">
        <ele>17.7</ele>
        <time>2020-06-05T11:32:15Z</time>
      </trkpt>
      <trkpt lat="47.16215" lon="-2.14632">
        <ele>17.7</ele>
        <time>2020-06-05T11:32:16Z</time>
      </trkpt>
      <trkpt lat="47.16219" lon="-2.14633">
        <ele>17.7</ele>
        <time>2020-06-05T11:32:17Z</time>
      </trkpt>
      <trkpt lat="47.16223" lon="-2.14633">
        <ele>17.6</ele>
        <time>2020-06-05T11:32:18Z</time>
      </trkpt>
      <trkpt lat="47.16227" lon="-2.14633">
        <ele>17.6</ele>
        <time>2020-06-05T11:32:19Z</time>
      </trkpt>
      <trkpt lat="47.16232" lon="-2.14632">
        <ele>17.5</ele>
        <time>2020-06-05T11:32:20Z</time>
      </trkpt>
      <trkpt lat="47.16236" lon="-2.1463">
        <ele>17.5</ele>
        <time>2020-06-05T11:32:21Z</time>
      </trkpt>
      <trkpt lat="47.16241" lon="-2.14631">
        <ele>17.4</ele>
        <time>2020-06-05T11:32:22Z</time>
      </trkpt>
      <trkpt lat="47.16245" lon="-2.1463">
        <ele>17.3</ele>
        <time>2020-06-05T11:32:23Z</time>
      </trkpt>
      <trkpt lat="47.16249" lon="-2.1463">
        <ele>17.2</ele>
        <time>2020-06-05T11:32:24Z</time>
      </trkpt>
      <trkpt lat="47.16254" lon="-2.14629">
        <ele>17.1</ele>
        <time>2020-06-05T11:32:25Z</time>
      </trkpt>
      <trkpt lat="47.16258" lon="-2.14627">
        <ele>16.9</ele>
        <time>2020-06-05T11:32:26Z</time>
      </trkpt>
      <trkpt lat="47.16263" lon="-2.14627">
        <ele>16.8</ele>
        <time>2020-06-05T11:32:27Z</time>
      </trkpt>
      <trkpt lat="47.16269" lon="-2.14626">
        <ele>16.7</ele>
        <time>2020-06-05T11:32:28Z</time>
      </trkpt>
      <trkpt lat="47.16274" lon="-2.14625">
        <ele>16.6</ele>
        <time>2020-06-05T11:32:29Z</time>
      </trkpt>
      <trkpt lat="47.16278" lon="-2.14624">
        <ele>16.5</ele>
        <time>2020-06-05T11:32:30Z</time>
      </trkpt>
      <trkpt lat="47.16283" lon="-2.14624">
        <ele>16.3</ele>
        <time>2020-06-05T11:32:31Z</time>
      </trkpt>
      <trkpt lat="47.16289" lon="-2.14622">
        <ele>16.1</ele>
        <time>2020-06-05T11:32:32Z</time>
      </trkpt>
      <trkpt lat="47.16294" lon="-2.14621">
        <ele>15.9</ele>
        <time>2020-06-05T11:32:33Z</time>
      </trkpt>
      <trkpt lat="47.163" lon="-2.1462">
        <ele>15.7</ele>
        <time>2020-06-05T11:32:34Z</time>
      </trkpt>
      <trkpt lat="47.16306" lon="-2.14619">
        <ele>15.4</ele>
        <time>2020-06-05T11:32:35Z</time>
      </trkpt>
      <trkpt lat="47.16312" lon="-2.1462">
        <ele>15.1</ele>
        <time>2020-06-05T11:32:36Z</time>
      </trkpt>
      <trkpt lat="47.16318" lon="-2.14621">
        <ele>14.9</ele>
        <time>2020-06-05T11:32:37Z</time>
      </trkpt>
      <trkpt lat="47.16324" lon="-2.1462">
        <ele>14.6</ele>
        <time>2020-06-05T11:32:38Z</time>
      </trkpt>
      <trkpt lat="47.1633" lon="-2.14619">
        <ele>14.3</ele>
        <time>2020-06-05T11:32:39Z</time>
      </trkpt>
      <trkpt lat="47.16336" lon="-2.14619">
        <ele>14</ele>
        <time>2020-06-05T11:32:40Z</time>
      </trkpt>
      <trkpt lat="47.16343" lon="-2.14619">
        <ele>13.7</ele>
        <time>2020-06-05T11:32:41Z</time>
      </trkpt>
      <trkpt lat="47.1635" lon="-2.14618">
        <ele>13.5</ele>
        <time>2020-06-05T11:32:42Z</time>
      </trkpt>
      <trkpt lat="47.16357" lon="-2.14619">
        <ele>13.2</ele>
        <time>2020-06-05T11:32:43Z</time>
      </trkpt>
      <trkpt lat="47.16363" lon="-2.14619">
        <ele>12.9</ele>
        <time>2020-06-05T11:32:44Z</time>
      </trkpt>
      <trkpt lat="47.1637" lon="-2.14619">
        <ele>12.6</ele>
        <time>2020-06-05T11:32:45Z</time>
      </trkpt>
      <trkpt lat="47.16377" lon="-2.14618">
        <ele>12.3</ele>
        <time>2020-06-05T11:32:46Z</time>
      </trkpt>
      <trkpt lat="47.16384" lon="-2.14618">
        <ele>12</ele>
        <time>2020-06-05T11:32:47Z</time>
      </trkpt>
      <trkpt lat="47.1639" lon="-2.14618">
        <ele>11.7</ele>
        <time>2020-06-05T11:32:48Z</time>
      </trkpt>
      <trkpt lat="47.16396" lon="-2.14618">
        <ele>11.5</ele>
        <time>2020-06-05T11:32:49Z</time>
      </trkpt>
      <trkpt lat="47.16402" lon="-2.14617">
        <ele>11.3</ele>
        <time>2020-06-05T11:32:50Z</time>
      </trkpt>
      <trkpt lat="47.16407" lon="-2.14616">
        <ele>11.1</ele>
        <time>2020-06-05T11:32:51Z</time>
      </trkpt>
      <trkpt lat="47.16412" lon="-2.14615">
        <ele>11</ele>
        <time>2020-06-05T11:32:52Z</time>
      </trkpt>
      <trkpt lat="47.16416" lon="-2.14614">
        <ele>10.8</ele>
        <time>2020-06-05T11:32:53Z</time>
      </trkpt>
      <trkpt lat="47.1642" lon="-2.14612">
        <ele>10.7</ele>
        <time>2020-06-05T11:32:54Z</time>
      </trkpt>
      <trkpt lat="47.16424" lon="-2.14609">
        <ele>10.6</ele>
        <time>2020-06-05T11:32:55Z</time>
      </trkpt>
      <trkpt lat="47.16427" lon="-2.14604">
        <ele>10.3</ele>
        <time>2020-06-05T11:32:56Z</time>
      </trkpt>
      <trkpt lat="47.16428" lon="-2.14597">
        <ele>10.1</ele>
        <time>2020-06-05T11:32:57Z</time>
      </trkpt>
      <trkpt lat="47.16429" lon="-2.14589">
        <ele>10</ele>
        <time>2020-06-05T11:32:58Z</time>
      </trkpt>
      <trkpt lat="47.16429" lon="-2.14581">
        <ele>9.8</ele>
        <time>2020-06-05T11:32:59Z</time>
      </trkpt>
      <trkpt lat="47.1643" lon="-2.14573">
        <ele>9.7</ele>
        <time>2020-06-05T11:33:00Z</time>
      </trkpt>
      <trkpt lat="47.1643" lon="-2.14565">
        <ele>9.6</ele>
        <time>2020-06-05T11:33:01Z</time>
      </trkpt>
      <trkpt lat="47.1643" lon="-2.14557">
        <ele>9.4</ele>
        <time>2020-06-05T11:33:02Z</time>
      </trkpt>
      <trkpt lat="47.1643" lon="-2.14549">
        <ele>9.3</ele>
        <time>2020-06-05T11:33:03Z</time>
      </trkpt>
      <trkpt lat="47.16429" lon="-2.14541">
        <ele>9.2</ele>
        <time>2020-06-05T11:33:04Z</time>
      </trkpt>
      <trkpt lat="47.16428" lon="-2.14534">
        <ele>9.2</ele>
        <time>2020-06-05T11:33:05Z</time>
      </trkpt>
      <trkpt lat="47.16427" lon="-2.14527">
        <ele>9.1</ele>
        <time>2020-06-05T11:33:06Z</time>
      </trkpt>
      <trkpt lat="47.16427" lon="-2.1452">
        <ele>9.1</ele>
        <time>2020-06-05T11:33:07Z</time>
      </trkpt>
      <trkpt lat="47.16427" lon="-2.14513">
        <ele>9</ele>
        <time>2020-06-05T11:33:08Z</time>
      </trkpt>
      <trkpt lat="47.16427" lon="-2.14505">
        <ele>9</ele>
        <time>2020-06-05T11:33:09Z</time>
      </trkpt>
      <trkpt lat="47.16427" lon="-2.14497">
        <ele>9</ele>
        <time>2020-06-05T11:33:10Z</time>
      </trkpt>
      <trkpt lat="47.16428" lon="-2.14489">
        <ele>9</ele>
        <time>2020-06-05T11:33:11Z</time>
      </trkpt>
      <trkpt lat="47.16428" lon="-2.14482">
        <ele>9</ele>
        <time>2020-06-05T11:33:12Z</time>
      </trkpt>
      <trkpt lat="47.16429" lon="-2.14475">
        <ele>8.8</ele>
        <time>2020-06-05T11:33:13Z</time>
      </trkpt>
      <trkpt lat="47.16431" lon="-2.14469">
        <ele>8.6</ele>
        <time>2020-06-05T11:33:14Z</time>
      </trkpt>
      <trkpt lat="47.16433" lon="-2.14463">
        <ele>8.5</ele>
        <time>2020-06-05T11:33:15Z</time>
      </trkpt>
      <trkpt lat="47.16436" lon="-2.14459">
        <ele>8.3</ele>
        <time>2020-06-05T11:33:16Z</time>
      </trkpt>
      <trkpt lat="47.16439" lon="-2.14453">
        <ele>8.1</ele>
        <time>2020-06-05T11:33:17Z</time>
      </trkpt>
      <trkpt lat="47.16441" lon="-2.14447">
        <ele>8</ele>
        <time>2020-06-05T11:33:18Z</time>
      </trkpt>
      <trkpt lat="47.16444" lon="-2.14441">
        <ele>7.8</ele>
        <time>2020-06-05T11:33:19Z</time>
      </trkpt>
      <trkpt lat="47.16446" lon="-2.14433">
        <ele>7.6</ele>
        <time>2020-06-05T11:33:20Z</time>
      </trkpt>
      <trkpt lat="47.16448" lon="-2.14426">
        <ele>7.4</ele>
        <time>2020-06-05T11:33:21Z</time>
      </trkpt>
      <trkpt lat="47.16449" lon="-2.14418">
        <ele>7.2</ele>
        <time>2020-06-05T11:33:22Z</time>
      </trkpt>
      <trkpt lat="47.1645" lon="-2.14411">
        <ele>7</ele>
        <time>2020-06-05T11:33:23Z</time>
      </trkpt>
      <trkpt lat="47.16451" lon="-2.14404">
        <ele>6.9</ele>
        <time>2020-06-05T11:33:24Z</time>
      </trkpt>
      <trkpt lat="47.16453" lon="-2.14398">
        <ele>6.7</ele>
        <time>2020-06-05T11:33:25Z</time>
      </trkpt>
      <trkpt lat="47.16455" lon="-2.14394">
        <ele>6.6</ele>
        <time>2020-06-05T11:33:26Z</time>
      </trkpt>
      <trkpt lat="47.16456" lon="-2.1439">
        <ele>6.6</ele>
        <time>2020-06-05T11:33:27Z</time>
      </trkpt>
      <trkpt lat="47.16458" lon="-2.14387">
        <ele>6.5</ele>
        <time>2020-06-05T11:33:28Z</time>
      </trkpt>
      <trkpt lat="47.16459" lon="-2.14386">
        <ele>6.4</ele>
        <time>2020-06-05T11:33:29Z</time>
      </trkpt>
      <trkpt lat="47.16461" lon="-2.14382">
        <ele>6.4</ele>
        <time>2020-06-05T11:33:30Z</time>
      </trkpt>
      <trkpt lat="47.16461" lon="-2.14381">
        <ele>6.4</ele>
        <time>2020-06-05T11:33:31Z</time>
      </trkpt>
      <trkpt lat="47.16463" lon="-2.14378">
        <ele>6.4</ele>
        <time>2020-06-05T11:33:32Z</time>
      </trkpt>
      <trkpt lat="47.16464" lon="-2.14377">
        <ele>6.4</ele>
        <time>2020-06-05T11:33:33Z</time>
      </trkpt>
      <trkpt lat="47.16467" lon="-2.14375">
        <ele>6.4</ele>
        <time>2020-06-05T11:33:34Z</time>
      </trkpt>
      <trkpt lat="47.16469" lon="-2.14375">
        <ele>6.4</ele>
        <time>2020-06-05T11:33:35Z</time>
      </trkpt>
      <trkpt lat="47.16472" lon="-2.14374">
        <ele>6.5</ele>
        <time>2020-06-05T11:33:36Z</time>
      </trkpt>
      <trkpt lat="47.16475" lon="-2.14373">
        <ele>6.5</ele>
        <time>2020-06-05T11:33:37Z</time>
      </trkpt>
      <trkpt lat="47.16479" lon="-2.14372">
        <ele>6.5</ele>
        <time>2020-06-05T11:33:38Z</time>
      </trkpt>
      <trkpt lat="47.16484" lon="-2.14371">
        <ele>6.6</ele>
        <time>2020-06-05T11:33:39Z</time>
      </trkpt>
      <trkpt lat="47.16488" lon="-2.14369">
        <ele>6.6</ele>
        <time>2020-06-05T11:33:40Z</time>
      </trkpt>
      <trkpt lat="47.16493" lon="-2.1437">
        <ele>6.7</ele>
        <time>2020-06-05T11:33:41Z</time>
      </trkpt>
      <trkpt lat="47.16498" lon="-2.14369">
        <ele>6.7</ele>
        <time>2020-06-05T11:33:42Z</time>
      </trkpt>
      <trkpt lat="47.16502" lon="-2.14368">
        <ele>6.7</ele>
        <time>2020-06-05T11:33:43Z</time>
      </trkpt>
      <trkpt lat="47.16506" lon="-2.14367">
        <ele>6.7</ele>
        <time>2020-06-05T11:33:44Z</time>
      </trkpt>
      <trkpt lat="47.16511" lon="-2.14367">
        <ele>6.7</ele>
        <time>2020-06-05T11:33:45Z</time>
      </trkpt>
      <trkpt lat="47.16516" lon="-2.14366">
        <ele>6.6</ele>
        <time>2020-06-05T11:33:46Z</time>
      </trkpt>
      <trkpt lat="47.16521" lon="-2.14364">
        <ele>6.6</ele>
        <time>2020-06-05T11:33:47Z</time>
      </trkpt>
      <trkpt lat="47.16526" lon="-2.14362">
        <ele>6.5</ele>
        <time>2020-06-05T11:33:48Z</time>
      </trkpt>
      <trkpt lat="47.16532" lon="-2.14361">
        <ele>6.4</ele>
        <time>2020-06-05T11:33:49Z</time>
      </trkpt>
      <trkpt lat="47.16537" lon="-2.1436">
        <ele>6.3</ele>
        <time>2020-06-05T11:33:50Z</time>
      </trkpt>
      <trkpt lat="47.16543" lon="-2.14358">
        <ele>6.2</ele>
        <time>2020-06-05T11:33:51Z</time>
      </trkpt>
      <trkpt lat="47.16549" lon="-2.14357">
        <ele>6.1</ele>
        <time>2020-06-05T11:33:52Z</time>
      </trkpt>
      <trkpt lat="47.16554" lon="-2.14357">
        <ele>6.1</ele>
        <time>2020-06-05T11:33:53Z</time>
      </trkpt>
      <trkpt lat="47.16559" lon="-2.14357">
        <ele>6</ele>
        <time>2020-06-05T11:33:54Z</time>
      </trkpt>
      <trkpt lat="47.16564" lon="-2.14356">
        <ele>6</ele>
        <time>2020-06-05T11:33:55Z</time>
      </trkpt>
      <trkpt lat="47.1657" lon="-2.14356">
        <ele>6</ele>
        <time>2020-06-05T11:33:56Z</time>
      </trkpt>
      <trkpt lat="47.16575" lon="-2.14357">
        <ele>6</ele>
        <time>2020-06-05T11:33:57Z</time>
      </trkpt>
      <trkpt lat="47.1658" lon="-2.14357">
        <ele>6</ele>
        <time>2020-06-05T11:33:58Z</time>
      </trkpt>
      <trkpt lat="47.16585" lon="-2.14359">
        <ele>6</ele>
        <time>2020-06-05T11:33:59Z</time>
      </trkpt>
      <trkpt lat="47.16589" lon="-2.14362">
        <ele>6</ele>
        <time>2020-06-05T11:34:00Z</time>
      </trkpt>
      <trkpt lat="47.16594" lon="-2.14365">
        <ele>6</ele>
        <time>2020-06-05T11:34:01Z</time>
      </trkpt>
      <trkpt lat="47.16599" lon="-2.14368">
        <ele>6</ele>
        <time>2020-06-05T11:34:02Z</time>
      </trkpt>
      <trkpt lat="47.16604" lon="-2.14371">
        <ele>6.1</ele>
        <time>2020-06-05T11:34:03Z</time>
      </trkpt>
      <trkpt lat="47.16609" lon="-2.14374">
        <ele>6.1</ele>
        <time>2020-06-05T11:34:04Z</time>
      </trkpt>
      <trkpt lat="47.16613" lon="-2.14377">
        <ele>6.2</ele>
        <time>2020-06-05T11:34:05Z</time>
      </trkpt>
      <trkpt lat="47.16618" lon="-2.14381">
        <ele>6.2</ele>
        <time>2020-06-05T11:34:06Z</time>
      </trkpt>
      <trkpt lat="47.16622" lon="-2.14384">
        <ele>6.3</ele>
        <time>2020-06-05T11:34:07Z</time>
      </trkpt>
      <trkpt lat="47.16626" lon="-2.14388">
        <ele>6.3</ele>
        <time>2020-06-05T11:34:08Z</time>
      </trkpt>
      <trkpt lat="47.1663" lon="-2.1439">
        <ele>6.4</ele>
        <time>2020-06-05T11:34:09Z</time>
      </trkpt>
      <trkpt lat="47.16634" lon="-2.14392">
        <ele>6.5</ele>
        <time>2020-06-05T11:34:10Z</time>
      </trkpt>
      <trkpt lat="47.16638" lon="-2.14394">
        <ele>6.6</ele>
        <time>2020-06-05T11:34:11Z</time>
      </trkpt>
      <trkpt lat="47.16642" lon="-2.14396">
        <ele>6.8</ele>
        <time>2020-06-05T11:34:12Z</time>
      </trkpt>
      <trkpt lat="47.16647" lon="-2.14399">
        <ele>6.9</ele>
        <time>2020-06-05T11:34:13Z</time>
      </trkpt>
      <trkpt lat="47.16651" lon="-2.14401">
        <ele>7.1</ele>
        <time>2020-06-05T11:34:14Z</time>
      </trkpt>
      <trkpt lat="47.16655" lon="-2.14403">
        <ele>7.2</ele>
        <time>2020-06-05T11:34:15Z</time>
      </trkpt>
      <trkpt lat="47.16658" lon="-2.14405">
        <ele>7.3</ele>
        <time>2020-06-05T11:34:16Z</time>
      </trkpt>
      <trkpt lat="47.16661" lon="-2.14405">
        <ele>7.4</ele>
        <time>2020-06-05T11:34:17Z</time>
      </trkpt>
      <trkpt lat="47.16665" lon="-2.14406">
        <ele>7.6</ele>
        <time>2020-06-05T11:34:18Z</time>
      </trkpt>
      <trkpt lat="47.16668" lon="-2.14408">
        <ele>7.7</ele>
        <time>2020-06-05T11:34:19Z</time>
      </trkpt>
      <trkpt lat="47.16672" lon="-2.14408">
        <ele>7.8</ele>
        <time>2020-06-05T11:34:20Z</time>
      </trkpt>
      <trkpt lat="47.16675" lon="-2.14409">
        <ele>8</ele>
        <time>2020-06-05T11:34:21Z</time>
      </trkpt>
      <trkpt lat="47.16679" lon="-2.1441">
        <ele>8.1</ele>
        <time>2020-06-05T11:34:22Z</time>
      </trkpt>
      <trkpt lat="47.16683" lon="-2.14411">
        <ele>8.3</ele>
        <time>2020-06-05T11:34:23Z</time>
      </trkpt>
      <trkpt lat="47.16687" lon="-2.14412">
        <ele>8.5</ele>
        <time>2020-06-05T11:34:24Z</time>
      </trkpt>
      <trkpt lat="47.16692" lon="-2.14413">
        <ele>8.7</ele>
        <time>2020-06-05T11:34:25Z</time>
      </trkpt>
      <trkpt lat="47.16697" lon="-2.14415">
        <ele>8.9</ele>
        <time>2020-06-05T11:34:26Z</time>
      </trkpt>
      <trkpt lat="47.16701" lon="-2.14417">
        <ele>9.2</ele>
        <time>2020-06-05T11:34:27Z</time>
      </trkpt>
      <trkpt lat="47.16707" lon="-2.14417">
        <ele>9.4</ele>
        <time>2020-06-05T11:34:28Z</time>
      </trkpt>
      <trkpt lat="47.16711" lon="-2.14417">
        <ele>9.6</ele>
        <time>2020-06-05T11:34:29Z</time>
      </trkpt>
      <trkpt lat="47.16717" lon="-2.14417">
        <ele>9.9</ele>
        <time>2020-06-05T11:34:30Z</time>
      </trkpt>
      <trkpt lat="47.16722" lon="-2.14417">
        <ele>10.1</ele>
        <time>2020-06-05T11:34:31Z</time>
      </trkpt>
      <trkpt lat="47.16728" lon="-2.14418">
        <ele>10.4</ele>
        <time>2020-06-05T11:34:32Z</time>
      </trkpt>
      <trkpt lat="47.16733" lon="-2.14418">
        <ele>10.6</ele>
        <time>2020-06-05T11:34:33Z</time>
      </trkpt>
      <trkpt lat="47.16738" lon="-2.14419">
        <ele>10.9</ele>
        <time>2020-06-05T11:34:34Z</time>
      </trkpt>
      <trkpt lat="47.16744" lon="-2.14419">
        <ele>11.2</ele>
        <time>2020-06-05T11:34:35Z</time>
      </trkpt>
      <trkpt lat="47.16748" lon="-2.14419">
        <ele>11.4</ele>
        <time>2020-06-05T11:34:36Z</time>
      </trkpt>
      <trkpt lat="47.16753" lon="-2.14419">
        <ele>11.7</ele>
        <time>2020-06-05T11:34:37Z</time>
      </trkpt>
      <trkpt lat="47.16758" lon="-2.14419">
        <ele>11.9</ele>
        <time>2020-06-05T11:34:38Z</time>
      </trkpt>
      <trkpt lat="47.16764" lon="-2.14419">
        <ele>12.2</ele>
        <time>2020-06-05T11:34:39Z</time>
      </trkpt>
      <trkpt lat="47.16768" lon="-2.1442">
        <ele>12.4</ele>
        <time>2020-06-05T11:34:40Z</time>
      </trkpt>
      <trkpt lat="47.16772" lon="-2.14421">
        <ele>12.6</ele>
        <time>2020-06-05T11:34:41Z</time>
      </trkpt>
      <trkpt lat="47.16777" lon="-2.14422">
        <ele>12.8</ele>
        <time>2020-06-05T11:34:42Z</time>
      </trkpt>
      <trkpt lat="47.16782" lon="-2.14422">
        <ele>13.1</ele>
        <time>2020-06-05T11:34:43Z</time>
      </trkpt>
      <trkpt lat="47.16788" lon="-2.14422">
        <ele>13.3</ele>
        <time>2020-06-05T11:34:44Z</time>
      </trkpt>
      <trkpt lat="47.16793" lon="-2.14421">
        <ele>13.5</ele>
        <time>2020-06-05T11:34:45Z</time>
      </trkpt>
      <trkpt lat="47.16798" lon="-2.14421">
        <ele>13.8</ele>
        <time>2020-06-05T11:34:46Z</time>
      </trkpt>
      <trkpt lat="47.16803" lon="-2.1442">
        <ele>14</ele>
        <time>2020-06-05T11:34:47Z</time>
      </trkpt>
      <trkpt lat="47.16806" lon="-2.1442">
        <ele>14.1</ele>
        <time>2020-06-05T11:34:48Z</time>
      </trkpt>
      <trkpt lat="47.1681" lon="-2.1442">
        <ele>14.3</ele>
        <time>2020-06-05T11:34:49Z</time>
      </trkpt>
      <trkpt lat="47.16813" lon="-2.1442">
        <ele>14.4</ele>
        <time>2020-06-05T11:34:50Z</time>
      </trkpt>
      <trkpt lat="47.16816" lon="-2.1442">
        <ele>14.6</ele>
        <time>2020-06-05T11:34:51Z</time>
      </trkpt>
      <trkpt lat="47.1682" lon="-2.1442">
        <ele>14.8</ele>
        <time>2020-06-05T11:34:52Z</time>
      </trkpt>
      <trkpt lat="47.16823" lon="-2.1442">
        <ele>14.9</ele>
        <time>2020-06-05T11:34:53Z</time>
      </trkpt>
      <trkpt lat="47.16826" lon="-2.14421">
        <ele>15.1</ele>
        <time>2020-06-05T11:34:54Z</time>
      </trkpt>
      <trkpt lat="47.1683" lon="-2.1442">
        <ele>15.2</ele>
        <time>2020-06-05T11:34:55Z</time>
      </trkpt>
      <trkpt lat="47.16833" lon="-2.1442">
        <ele>15.4</ele>
        <time>2020-06-05T11:34:56Z</time>
      </trkpt>
      <trkpt lat="47.16837" lon="-2.14419">
        <ele>15.6</ele>
        <time>2020-06-05T11:34:57Z</time>
      </trkpt>
      <trkpt lat="47.1684" lon="-2.14418">
        <ele>15.7</ele>
        <time>2020-06-05T11:34:58Z</time>
      </trkpt>
      <trkpt lat="47.16841" lon="-2.14418">
        <ele>15.8</ele>
        <time>2020-06-05T11:34:59Z</time>
      </trkpt>
      <trkpt lat="47.16844" lon="-2.14417">
        <ele>15.9</ele>
        <time>2020-06-05T11:35:00Z</time>
      </trkpt>
      <trkpt lat="47.16845" lon="-2.14417">
        <ele>16</ele>
        <time>2020-06-05T11:35:01Z</time>
      </trkpt>
      <trkpt lat="47.16849" lon="-2.14418">
        <ele>16.2</ele>
        <time>2020-06-05T11:35:02Z</time>
      </trkpt>
      <trkpt lat="47.16851" lon="-2.14418">
        <ele>16.2</ele>
        <time>2020-06-05T11:35:03Z</time>
      </trkpt>
      <trkpt lat="47.16855" lon="-2.14418">
        <ele>16.4</ele>
        <time>2020-06-05T11:35:04Z</time>
      </trkpt>
      <trkpt lat="47.16856" lon="-2.14418">
        <ele>16.5</ele>
        <time>2020-06-05T11:35:05Z</time>
      </trkpt>
      <trkpt lat="47.1686" lon="-2.14417">
        <ele>16.7</ele>
        <time>2020-06-05T11:35:06Z</time>
      </trkpt>
      <trkpt lat="47.16862" lon="-2.14416">
        <ele>16.8</ele>
        <time>2020-06-05T11:35:07Z</time>
      </trkpt>
      <trkpt lat="47.16865" lon="-2.14414">
        <ele>16.9</ele>
        <time>2020-06-05T11:35:08Z</time>
      </trkpt>
      <trkpt lat="47.16869" lon="-2.14413">
        <ele>17.1</ele>
        <time>2020-06-05T11:35:09Z</time>
      </trkpt>
      <trkpt lat="47.16871" lon="-2.14413">
        <ele>17.2</ele>
        <time>2020-06-05T11:35:10Z</time>
      </trkpt>
      <trkpt lat="47.16874" lon="-2.14411">
        <ele>17.3</ele>
        <time>2020-06-05T11:35:11Z</time>
      </trkpt>
      <trkpt lat="47.16875" lon="-2.1441">
        <ele>17.4</ele>
        <time>2020-06-05T11:35:12Z</time>
      </trkpt>
      <trkpt lat="47.16878" lon="-2.14409">
        <ele>17.5</ele>
        <time>2020-06-05T11:35:13Z</time>
      </trkpt>
      <trkpt lat="47.16881" lon="-2.14408">
        <ele>17.6</ele>
        <time>2020-06-05T11:35:14Z</time>
      </trkpt>
      <trkpt lat="47.16882" lon="-2.14408">
        <ele>17.7</ele>
        <time>2020-06-05T11:35:15Z</time>
      </trkpt>
      <trkpt lat="47.16886" lon="-2.14407">
        <ele>17.8</ele>
        <time>2020-06-05T11:35:16Z</time>
      </trkpt>
      <trkpt lat="47.16888" lon="-2.14406">
        <ele>17.9</ele>
        <time>2020-06-05T11:35:17Z</time>
      </trkpt>
      <trkpt lat="47.16891" lon="-2.14406">
        <ele>18</ele>
        <time>2020-06-05T11:35:18Z</time>
      </trkpt>
      <trkpt lat="47.16891" lon="-2.14406">
        <ele>18</ele>
        <time>2020-06-05T11:35:19Z</time>
      </trkpt>
      <trkpt lat="47.16894" lon="-2.14406">
        <ele>18.1</ele>
        <time>2020-06-05T11:35:20Z</time>
      </trkpt>
      <trkpt lat="47.16895" lon="-2.14406">
        <ele>18.2</ele>
        <time>2020-06-05T11:35:21Z</time>
      </trkpt>
      <trkpt lat="47.16897" lon="-2.14406">
        <ele>18.2</ele>
        <time>2020-06-05T11:35:22Z</time>
      </trkpt>
      <trkpt lat="47.169" lon="-2.14406">
        <ele>18.3</ele>
        <time>2020-06-05T11:35:23Z</time>
      </trkpt>
      <trkpt lat="47.16901" lon="-2.14406">
        <ele>18.3</ele>
        <time>2020-06-05T11:35:24Z</time>
      </trkpt>
      <trkpt lat="47.16904" lon="-2.14406">
        <ele>18.4</ele>
        <time>2020-06-05T11:35:25Z</time>
      </trkpt>
      <trkpt lat="47.16905" lon="-2.14405">
        <ele>18.5</ele>
        <time>2020-06-05T11:35:26Z</time>
      </trkpt>
      <trkpt lat="47.16908" lon="-2.14405">
        <ele>18.6</ele>
        <time>2020-06-05T11:35:27Z</time>
      </trkpt>
      <trkpt lat="47.16908" lon="-2.14404">
        <ele>18.6</ele>
        <time>2020-06-05T11:35:28Z</time>
      </trkpt>
      <trkpt lat="47.16908" lon="-2.14404">
        <ele>18.6</ele>
        <time>2020-06-05T11:35:29Z</time>
      </trkpt>
      <trkpt lat="47.16909" lon="-2.14404">
        <ele>18.6</ele>
        <time>2020-06-05T11:35:30Z</time>
      </trkpt>
      <trkpt lat="47.16909" lon="-2.14404">
        <ele>18.6</ele>
        <time>2020-06-05T11:35:31Z</time>
      </trkpt>
      <trkpt lat="47.16909" lon="-2.14404">
        <ele>18.6</ele>
        <time>2020-06-05T11:35:32Z</time>
      </trkpt>
      <trkpt lat="47.16908" lon="-2.14406">
        <ele>18.7</ele>
        <time>2020-06-05T11:35:33Z</time>
      </trkpt>
      <trkpt lat="47.16907" lon="-2.14406">
        <ele>18.7</ele>
        <time>2020-06-05T11:35:34Z</time>
      </trkpt>
      <trkpt lat="47.16907" lon="-2.14406">
        <ele>18.7</ele>
        <time>2020-06-05T11:35:35Z</time>
      </trkpt>
      <trkpt lat="47.16908" lon="-2.14405">
        <ele>18.7</ele>
        <time>2020-06-05T11:35:36Z</time>
      </trkpt>
      <trkpt lat="47.16908" lon="-2.14405">
        <ele>18.7</ele>
        <time>2020-06-05T11:35:37Z</time>
      </trkpt>
      <trkpt lat="47.16907" lon="-2.14405">
        <ele>18.8</ele>
        <time>2020-06-05T11:35:38Z</time>
      </trkpt>
      <trkpt lat="47.16906" lon="-2.14406">
        <ele>18.8</ele>
        <time>2020-06-05T11:35:39Z</time>
      </trkpt>
      <trkpt lat="47.16906" lon="-2.14406">
        <ele>18.8</ele>
        <time>2020-06-05T11:35:40Z</time>
      </trkpt>
      <trkpt lat="47.16901" lon="-2.14411">
        <ele>19</ele>
        <time>2020-06-05T11:35:53Z</time>
      </trkpt>
      <trkpt lat="47.16897" lon="-2.14412">
        <ele>19.1</ele>
        <time>2020-06-05T11:35:54Z</time>
      </trkpt>
      <trkpt lat="47.16893" lon="-2.14414">
        <ele>19.2</ele>
        <time>2020-06-05T11:35:55Z</time>
      </trkpt>
      <trkpt lat="47.1689" lon="-2.14417">
        <ele>19.4</ele>
        <time>2020-06-05T11:35:56Z</time>
      </trkpt>
      <trkpt lat="47.16888" lon="-2.14421">
        <ele>19.4</ele>
        <time>2020-06-05T11:35:57Z</time>
      </trkpt>
      <trkpt lat="47.16887" lon="-2.14423">
        <ele>19.5</ele>
        <time>2020-06-05T11:35:58Z</time>
      </trkpt>
      <trkpt lat="47.16887" lon="-2.14424">
        <ele>19.5</ele>
        <time>2020-06-05T11:35:59Z</time>
      </trkpt>
      <trkpt lat="47.16887" lon="-2.14424">
        <ele>19.5</ele>
        <time>2020-06-05T11:36:00Z</time>
      </trkpt>
      <trkpt lat="47.16886" lon="-2.14423">
        <ele>19.5</ele>
        <time>2020-06-05T11:36:01Z</time>
      </trkpt>
      <trkpt lat="47.16886" lon="-2.14422">
        <ele>19.5</ele>
        <time>2020-06-05T11:36:02Z</time>
      </trkpt>
      <trkpt lat="47.16886" lon="-2.14424">
        <ele>19.6</ele>
        <time>2020-06-05T11:36:03Z</time>
      </trkpt>
      <trkpt lat="47.16885" lon="-2.14426">
        <ele>19.6</ele>
        <time>2020-06-05T11:36:04Z</time>
      </trkpt>
      <trkpt lat="47.16884" lon="-2.14427">
        <ele>19.6</ele>
        <time>2020-06-05T11:36:05Z</time>
      </trkpt>
      <trkpt lat="47.16884" lon="-2.14428">
        <ele>19.7</ele>
        <time>2020-06-05T11:36:06Z</time>
      </trkpt>
      <trkpt lat="47.16883" lon="-2.14428">
        <ele>19.7</ele>
        <time>2020-06-05T11:36:07Z</time>
      </trkpt>
      <trkpt lat="47.16883" lon="-2.14428">
        <ele>19.7</ele>
        <time>2020-06-05T11:36:08Z</time>
      </trkpt>
      <trkpt lat="47.16883" lon="-2.14428">
        <ele>19.7</ele>
        <time>2020-06-05T11:36:09Z</time>
      </trkpt>
      <trkpt lat="47.16883" lon="-2.14428">
        <ele>19.7</ele>
        <time>2020-06-05T11:36:10Z</time>
      </trkpt>
      <trkpt lat="47.16883" lon="-2.14428">
        <ele>19.7</ele>
        <time>2020-06-05T11:36:11Z</time>
      </trkpt>
      <trkpt lat="47.16883" lon="-2.14429">
        <ele>19.7</ele>
        <time>2020-06-05T11:36:12Z</time>
      </trkpt>
      <trkpt lat="47.16883" lon="-2.1443">
        <ele>19.7</ele>
        <time>2020-06-05T11:36:13Z</time>
      </trkpt>
      <trkpt lat="47.16884" lon="-2.14428">
        <ele>19.7</ele>
        <time>2020-06-05T11:36:14Z</time>
      </trkpt>
      <trkpt lat="47.16884" lon="-2.14428">
        <ele>19.7</ele>
        <time>2020-06-05T11:36:15Z</time>
      </trkpt>
      <trkpt lat="47.16884" lon="-2.14428">
        <ele>19.8</ele>
        <time>2020-06-05T11:36:16Z</time>
      </trkpt>
      <trkpt lat="47.16886" lon="-2.14427">
        <ele>19.8</ele>
        <time>2020-06-05T11:36:17Z</time>
      </trkpt>
      <trkpt lat="47.16886" lon="-2.14426">
        <ele>19.8</ele>
        <time>2020-06-05T11:36:18Z</time>
      </trkpt>
      <trkpt lat="47.16887" lon="-2.14425">
        <ele>19.8</ele>
        <time>2020-06-05T11:36:19Z</time>
      </trkpt>
      <trkpt lat="47.16887" lon="-2.14422">
        <ele>19.9</ele>
        <time>2020-06-05T11:36:20Z</time>
      </trkpt>
      <trkpt lat="47.16888" lon="-2.1442">
        <ele>19.9</ele>
        <time>2020-06-05T11:36:21Z</time>
      </trkpt>
      <trkpt lat="47.16889" lon="-2.14416">
        <ele>19.9</ele>
        <time>2020-06-05T11:36:22Z</time>
      </trkpt>
      <trkpt lat="47.1689" lon="-2.14415">
        <ele>19.9</ele>
        <time>2020-06-05T11:36:23Z</time>
      </trkpt>
      <trkpt lat="47.16893" lon="-2.14413">
        <ele>20</ele>
        <time>2020-06-05T11:36:24Z</time>
      </trkpt>
      <trkpt lat="47.16894" lon="-2.14413">
        <ele>20</ele>
        <time>2020-06-05T11:36:25Z</time>
      </trkpt>
      <trkpt lat="47.16895" lon="-2.14413">
        <ele>20</ele>
        <time>2020-06-05T11:36:26Z</time>
      </trkpt>
      <trkpt lat="47.16897" lon="-2.14412">
        <ele>20</ele>
        <time>2020-06-05T11:36:27Z</time>
      </trkpt>
      <trkpt lat="47.16899" lon="-2.14409">
        <ele>20.1</ele>
        <time>2020-06-05T11:36:28Z</time>
      </trkpt>
      <trkpt lat="47.16903" lon="-2.14408">
        <ele>20.1</ele>
        <time>2020-06-05T11:36:29Z</time>
      </trkpt>
      <trkpt lat="47.16904" lon="-2.14408">
        <ele>20.1</ele>
        <time>2020-06-05T11:36:30Z</time>
      </trkpt>
      <trkpt lat="47.16908" lon="-2.14408">
        <ele>20.2</ele>
        <time>2020-06-05T11:36:31Z</time>
      </trkpt>
      <trkpt lat="47.16909" lon="-2.14408">
        <ele>20.2</ele>
        <time>2020-06-05T11:36:32Z</time>
      </trkpt>
      <trkpt lat="47.16912" lon="-2.14406">
        <ele>20.2</ele>
        <time>2020-06-05T11:36:33Z</time>
      </trkpt>
      <trkpt lat="47.16913" lon="-2.14405">
        <ele>20.3</ele>
        <time>2020-06-05T11:36:34Z</time>
      </trkpt>
      <trkpt lat="47.16917" lon="-2.14405">
        <ele>20.3</ele>
        <time>2020-06-05T11:36:35Z</time>
      </trkpt>
      <trkpt lat="47.16918" lon="-2.14404">
        <ele>20.3</ele>
        <time>2020-06-05T11:36:36Z</time>
      </trkpt>
      <trkpt lat="47.16922" lon="-2.14405">
        <ele>20.4</ele>
        <time>2020-06-05T11:36:37Z</time>
      </trkpt>
      <trkpt lat="47.16923" lon="-2.14406">
        <ele>20.4</ele>
        <time>2020-06-05T11:36:38Z</time>
      </trkpt>
      <trkpt lat="47.16926" lon="-2.14407">
        <ele>20.5</ele>
        <time>2020-06-05T11:36:39Z</time>
      </trkpt>
      <trkpt lat="47.16929" lon="-2.14408">
        <ele>20.5</ele>
        <time>2020-06-05T11:36:40Z</time>
      </trkpt>
      <trkpt lat="47.1693" lon="-2.14408">
        <ele>20.5</ele>
        <time>2020-06-05T11:36:41Z</time>
      </trkpt>
      <trkpt lat="47.16934" lon="-2.14408">
        <ele>20.6</ele>
        <time>2020-06-05T11:36:42Z</time>
      </trkpt>
      <trkpt lat="47.16936" lon="-2.14408">
        <ele>20.6</ele>
        <time>2020-06-05T11:36:43Z</time>
      </trkpt>
      <trkpt lat="47.16939" lon="-2.14408">
        <ele>20.7</ele>
        <time>2020-06-05T11:36:44Z</time>
      </trkpt>
      <trkpt lat="47.16943" lon="-2.14409">
        <ele>20.7</ele>
        <time>2020-06-05T11:36:45Z</time>
      </trkpt>
      <trkpt lat="47.16946" lon="-2.14411">
        <ele>20.8</ele>
        <time>2020-06-05T11:36:46Z</time>
      </trkpt>
      <trkpt lat="47.16948" lon="-2.14411">
        <ele>20.8</ele>
        <time>2020-06-05T11:36:47Z</time>
      </trkpt>
      <trkpt lat="47.16949" lon="-2.14412">
        <ele>20.8</ele>
        <time>2020-06-05T11:36:48Z</time>
      </trkpt>
      <trkpt lat="47.1695" lon="-2.14414">
        <ele>20.9</ele>
        <time>2020-06-05T11:36:49Z</time>
      </trkpt>
      <trkpt lat="47.16955" lon="-2.14416">
        <ele>20.9</ele>
        <time>2020-06-05T11:36:50Z</time>
      </trkpt>
      <trkpt lat="47.16959" lon="-2.14417">
        <ele>20.9</ele>
        <time>2020-06-05T11:36:51Z</time>
      </trkpt>
      <trkpt lat="47.16962" lon="-2.14419">
        <ele>20.9</ele>
        <time>2020-06-05T11:36:52Z</time>
      </trkpt>
      <trkpt lat="47.16965" lon="-2.1442">
        <ele>20.9</ele>
        <time>2020-06-05T11:36:53Z</time>
      </trkpt>
      <trkpt lat="47.16966" lon="-2.14421">
        <ele>20.9</ele>
        <time>2020-06-05T11:36:54Z</time>
      </trkpt>
      <trkpt lat="47.16968" lon="-2.14421">
        <ele>20.9</ele>
        <time>2020-06-05T11:36:55Z</time>
      </trkpt>
      <trkpt lat="47.16969" lon="-2.14422">
        <ele>20.9</ele>
        <time>2020-06-05T11:36:56Z</time>
      </trkpt>
      <trkpt lat="47.1697" lon="-2.14422">
        <ele>20.9</ele>
        <time>2020-06-05T11:36:57Z</time>
      </trkpt>
      <trkpt lat="47.16972" lon="-2.14421">
        <ele>20.9</ele>
        <time>2020-06-05T11:36:58Z</time>
      </trkpt>
      <trkpt lat="47.16973" lon="-2.1442">
        <ele>20.9</ele>
        <time>2020-06-05T11:36:59Z</time>
      </trkpt>
      <trkpt lat="47.16974" lon="-2.14419">
        <ele>20.9</ele>
        <time>2020-06-05T11:37:00Z</time>
      </trkpt>
      <trkpt lat="47.16975" lon="-2.14419">
        <ele>20.9</ele>
        <time>2020-06-05T11:37:01Z</time>
      </trkpt>
      <trkpt lat="47.16976" lon="-2.1442">
        <ele>20.9</ele>
        <time>2020-06-05T11:37:02Z</time>
      </trkpt>
      <trkpt lat="47.16977" lon="-2.1442">
        <ele>20.9</ele>
        <time>2020-06-05T11:37:03Z</time>
      </trkpt>
      <trkpt lat="47.16978" lon="-2.1442">
        <ele>20.9</ele>
        <time>2020-06-05T11:37:04Z</time>
      </trkpt>
      <trkpt lat="47.16979" lon="-2.1442">
        <ele>20.9</ele>
        <time>2020-06-05T11:37:05Z</time>
      </trkpt>
      <trkpt lat="47.16979" lon="-2.14421">
        <ele>20.9</ele>
        <time>2020-06-05T11:37:06Z</time>
      </trkpt>
      <trkpt lat="47.1698" lon="-2.14421">
        <ele>20.9</ele>
        <time>2020-06-05T11:37:07Z</time>
      </trkpt>
      <trkpt lat="47.16981" lon="-2.14421">
        <ele>20.9</ele>
        <time>2020-06-05T11:37:08Z</time>
      </trkpt>
      <trkpt lat="47.16982" lon="-2.14422">
        <ele>20.9</ele>
        <time>2020-06-05T11:37:09Z</time>
      </trkpt>
      <trkpt lat="47.16982" lon="-2.14422">
        <ele>20.9</ele>
        <time>2020-06-05T11:37:10Z</time>
      </trkpt>
      <trkpt lat="47.16983" lon="-2.14423">
        <ele>20.9</ele>
        <time>2020-06-05T11:37:11Z</time>
      </trkpt>
      <trkpt lat="47.16984" lon="-2.14423">
        <ele>20.9</ele>
        <time>2020-06-05T11:37:12Z</time>
      </trkpt>
      <trkpt lat="47.16985" lon="-2.14423">
        <ele>20.9</ele>
        <time>2020-06-05T11:37:13Z</time>
      </trkpt>
      <trkpt lat="47.16985" lon="-2.14424">
        <ele>20.9</ele>
        <time>2020-06-05T11:38:53Z</time>
      </trkpt>
      <trkpt lat="47.16986" lon="-2.14424">
        <ele>20.9</ele>
        <time>2020-06-05T11:38:54Z</time>
      </trkpt>
      <trkpt lat="47.16989" lon="-2.14425">
        <ele>21</ele>
        <time>2020-06-05T11:38:55Z</time>
      </trkpt>
      <trkpt lat="47.1699" lon="-2.14425">
        <ele>21</ele>
        <time>2020-06-05T11:38:56Z</time>
      </trkpt>
      <trkpt lat="47.16993" lon="-2.14426">
        <ele>21</ele>
        <time>2020-06-05T11:38:57Z</time>
      </trkpt>
      <trkpt lat="47.16993" lon="-2.14426">
        <ele>21</ele>
        <time>2020-06-05T11:38:58Z</time>
      </trkpt>
      <trkpt lat="47.16994" lon="-2.14427">
        <ele>21</ele>
        <time>2020-06-05T11:38:59Z</time>
      </trkpt>
      <trkpt lat="47.16998" lon="-2.14427">
        <ele>21</ele>
        <time>2020-06-05T11:39:00Z</time>
      </trkpt>
      <trkpt lat="47.17" lon="-2.14427">
        <ele>21</ele>
        <time>2020-06-05T11:39:01Z</time>
      </trkpt>
      <trkpt lat="47.17003" lon="-2.14427">
        <ele>21</ele>
        <time>2020-06-05T11:39:02Z</time>
      </trkpt>
      <trkpt lat="47.17004" lon="-2.14427">
        <ele>21</ele>
        <time>2020-06-05T11:39:03Z</time>
      </trkpt>
      <trkpt lat="47.17007" lon="-2.14427">
        <ele>21</ele>
        <time>2020-06-05T11:39:04Z</time>
      </trkpt>
      <trkpt lat="47.17011" lon="-2.14428">
        <ele>21</ele>
        <time>2020-06-05T11:39:05Z</time>
      </trkpt>
      <trkpt lat="47.17012" lon="-2.14429">
        <ele>21</ele>
        <time>2020-06-05T11:39:06Z</time>
      </trkpt>
      <trkpt lat="47.17015" lon="-2.14429">
        <ele>21</ele>
        <time>2020-06-05T11:39:07Z</time>
      </trkpt>
      <trkpt lat="47.17016" lon="-2.1443">
        <ele>21</ele>
        <time>2020-06-05T11:39:08Z</time>
      </trkpt>
      <trkpt lat="47.17019" lon="-2.14431">
        <ele>21</ele>
        <time>2020-06-05T11:39:09Z</time>
      </trkpt>
      <trkpt lat="47.1702" lon="-2.14432">
        <ele>21</ele>
        <time>2020-06-05T11:39:10Z</time>
      </trkpt>
      <trkpt lat="47.17023" lon="-2.14431">
        <ele>21</ele>
        <time>2020-06-05T11:39:11Z</time>
      </trkpt>
      <trkpt lat="47.17025" lon="-2.14431">
        <ele>21</ele>
        <time>2020-06-05T11:39:12Z</time>
      </trkpt>
      <trkpt lat="47.17026" lon="-2.14432">
        <ele>21</ele>
        <time>2020-06-05T11:39:13Z</time>
      </trkpt>
      <trkpt lat="47.17028" lon="-2.14433">
        <ele>21</ele>
        <time>2020-06-05T11:39:14Z</time>
      </trkpt>
      <trkpt lat="47.17032" lon="-2.14434">
        <ele>21</ele>
        <time>2020-06-05T11:39:15Z</time>
      </trkpt>
      <trkpt lat="47.17034" lon="-2.14434">
        <ele>21</ele>
        <time>2020-06-05T11:39:16Z</time>
      </trkpt>
      <trkpt lat="47.17037" lon="-2.14435">
        <ele>21.1</ele>
        <time>2020-06-05T11:39:17Z</time>
      </trkpt>
      <trkpt lat="47.17041" lon="-2.14436">
        <ele>21.1</ele>
        <time>2020-06-05T11:39:18Z</time>
      </trkpt>
      <trkpt lat="47.17044" lon="-2.14437">
        <ele>21.1</ele>
        <time>2020-06-05T11:39:19Z</time>
      </trkpt>
      <trkpt lat="47.17047" lon="-2.14436">
        <ele>21.1</ele>
        <time>2020-06-05T11:39:20Z</time>
      </trkpt>
      <trkpt lat="47.17051" lon="-2.14438">
        <ele>21.1</ele>
        <time>2020-06-05T11:39:21Z</time>
      </trkpt>
      <trkpt lat="47.17055" lon="-2.1444">
        <ele>21.1</ele>
        <time>2020-06-05T11:39:22Z</time>
      </trkpt>
      <trkpt lat="47.17058" lon="-2.14441">
        <ele>21.1</ele>
        <time>2020-06-05T11:39:23Z</time>
      </trkpt>
      <trkpt lat="47.17061" lon="-2.14442">
        <ele>21.1</ele>
        <time>2020-06-05T11:39:24Z</time>
      </trkpt>
      <trkpt lat="47.17065" lon="-2.14443">
        <ele>21.1</ele>
        <time>2020-06-05T11:39:25Z</time>
      </trkpt>
      <trkpt lat="47.17068" lon="-2.14444">
        <ele>21.1</ele>
        <time>2020-06-05T11:39:26Z</time>
      </trkpt>
      <trkpt lat="47.17072" lon="-2.14445">
        <ele>21.1</ele>
        <time>2020-06-05T11:39:27Z</time>
      </trkpt>
      <trkpt lat="47.17075" lon="-2.14446">
        <ele>21.1</ele>
        <time>2020-06-05T11:39:28Z</time>
      </trkpt>
      <trkpt lat="47.17078" lon="-2.14447">
        <ele>21.2</ele>
        <time>2020-06-05T11:39:29Z</time>
      </trkpt>
      <trkpt lat="47.17081" lon="-2.14448">
        <ele>21.2</ele>
        <time>2020-06-05T11:39:30Z</time>
      </trkpt>
      <trkpt lat="47.17084" lon="-2.14448">
        <ele>21.2</ele>
        <time>2020-06-05T11:39:31Z</time>
      </trkpt>
      <trkpt lat="47.17088" lon="-2.1445">
        <ele>21.3</ele>
        <time>2020-06-05T11:39:32Z</time>
      </trkpt>
      <trkpt lat="47.17091" lon="-2.1445">
        <ele>21.3</ele>
        <time>2020-06-05T11:39:33Z</time>
      </trkpt>
      <trkpt lat="47.17094" lon="-2.14451">
        <ele>21.3</ele>
        <time>2020-06-05T11:39:34Z</time>
      </trkpt>
      <trkpt lat="47.17098" lon="-2.14454">
        <ele>21.3</ele>
        <time>2020-06-05T11:39:35Z</time>
      </trkpt>
      <trkpt lat="47.17102" lon="-2.14455">
        <ele>21.4</ele>
        <time>2020-06-05T11:39:36Z</time>
      </trkpt>
      <trkpt lat="47.17106" lon="-2.14457">
        <ele>21.4</ele>
        <time>2020-06-05T11:39:37Z</time>
      </trkpt>
      <trkpt lat="47.17111" lon="-2.14457">
        <ele>21.5</ele>
        <time>2020-06-05T11:39:38Z</time>
      </trkpt>
      <trkpt lat="47.17115" lon="-2.14458">
        <ele>21.5</ele>
        <time>2020-06-05T11:39:39Z</time>
      </trkpt>
      <trkpt lat="47.17119" lon="-2.14459">
        <ele>21.6</ele>
        <time>2020-06-05T11:39:40Z</time>
      </trkpt>
      <trkpt lat="47.17123" lon="-2.14459">
        <ele>21.7</ele>
        <time>2020-06-05T11:39:41Z</time>
      </trkpt>
      <trkpt lat="47.17127" lon="-2.14461">
        <ele>21.8</ele>
        <time>2020-06-05T11:39:42Z</time>
      </trkpt>
      <trkpt lat="47.17131" lon="-2.14462">
        <ele>21.9</ele>
        <time>2020-06-05T11:39:43Z</time>
      </trkpt>
      <trkpt lat="47.17135" lon="-2.14462">
        <ele>22</ele>
        <time>2020-06-05T11:39:44Z</time>
      </trkpt>
      <trkpt lat="47.17139" lon="-2.14463">
        <ele>22.1</ele>
        <time>2020-06-05T11:39:45Z</time>
      </trkpt>
      <trkpt lat="47.17143" lon="-2.14463">
        <ele>22.3</ele>
        <time>2020-06-05T11:39:46Z</time>
      </trkpt>
      <trkpt lat="47.17146" lon="-2.14463">
        <ele>22.4</ele>
        <time>2020-06-05T11:39:47Z</time>
      </trkpt>
      <trkpt lat="47.1715" lon="-2.14463">
        <ele>22.5</ele>
        <time>2020-06-05T11:39:48Z</time>
      </trkpt>
      <trkpt lat="47.17153" lon="-2.14464">
        <ele>22.6</ele>
        <time>2020-06-05T11:39:49Z</time>
      </trkpt>
      <trkpt lat="47.17156" lon="-2.14465">
        <ele>22.7</ele>
        <time>2020-06-05T11:39:50Z</time>
      </trkpt>
      <trkpt lat="47.17159" lon="-2.14465">
        <ele>22.9</ele>
        <time>2020-06-05T11:39:51Z</time>
      </trkpt>
      <trkpt lat="47.17162" lon="-2.14465">
        <ele>23</ele>
        <time>2020-06-05T11:39:52Z</time>
      </trkpt>
      <trkpt lat="47.17166" lon="-2.14464">
        <ele>23.2</ele>
        <time>2020-06-05T11:39:53Z</time>
      </trkpt>
      <trkpt lat="47.17169" lon="-2.14464">
        <ele>23.4</ele>
        <time>2020-06-05T11:39:54Z</time>
      </trkpt>
      <trkpt lat="47.17173" lon="-2.14464">
        <ele>23.6</ele>
        <time>2020-06-05T11:39:55Z</time>
      </trkpt>
      <trkpt lat="47.17176" lon="-2.14464">
        <ele>23.8</ele>
        <time>2020-06-05T11:39:56Z</time>
      </trkpt>
      <trkpt lat="47.17179" lon="-2.14464">
        <ele>23.9</ele>
        <time>2020-06-05T11:39:57Z</time>
      </trkpt>
      <trkpt lat="47.17182" lon="-2.14464">
        <ele>24</ele>
        <time>2020-06-05T11:39:58Z</time>
      </trkpt>
      <trkpt lat="47.17186" lon="-2.14465">
        <ele>24.1</ele>
        <time>2020-06-05T11:39:59Z</time>
      </trkpt>
      <trkpt lat="47.17187" lon="-2.14466">
        <ele>24.2</ele>
        <time>2020-06-05T11:40:00Z</time>
      </trkpt>
      <trkpt lat="47.17189" lon="-2.1447">
        <ele>24.2</ele>
        <time>2020-06-05T11:40:01Z</time>
      </trkpt>
      <trkpt lat="47.1719" lon="-2.14472">
        <ele>24.2</ele>
        <time>2020-06-05T11:40:02Z</time>
      </trkpt>
      <trkpt lat="47.1719" lon="-2.14476">
        <ele>24.2</ele>
        <time>2020-06-05T11:40:03Z</time>
      </trkpt>
      <trkpt lat="47.1719" lon="-2.14483">
        <ele>24.1</ele>
        <time>2020-06-05T11:40:04Z</time>
      </trkpt>
      <trkpt lat="47.1719" lon="-2.14485">
        <ele>24.1</ele>
        <time>2020-06-05T11:40:05Z</time>
      </trkpt>
      <trkpt lat="47.17191" lon="-2.14491">
        <ele>24</ele>
        <time>2020-06-05T11:40:06Z</time>
      </trkpt>
      <trkpt lat="47.17191" lon="-2.14496">
        <ele>23.9</ele>
        <time>2020-06-05T11:40:07Z</time>
      </trkpt>
      <trkpt lat="47.17192" lon="-2.145">
        <ele>23.8</ele>
        <time>2020-06-05T11:40:08Z</time>
      </trkpt>
      <trkpt lat="47.17192" lon="-2.14505">
        <ele>23.7</ele>
        <time>2020-06-05T11:40:09Z</time>
      </trkpt>
      <trkpt lat="47.17193" lon="-2.14509">
        <ele>23.6</ele>
        <time>2020-06-05T11:40:10Z</time>
      </trkpt>
      <trkpt lat="47.17192" lon="-2.14515">
        <ele>23.4</ele>
        <time>2020-06-05T11:40:11Z</time>
      </trkpt>
      <trkpt lat="47.17192" lon="-2.14517">
        <ele>23.4</ele>
        <time>2020-06-05T11:40:12Z</time>
      </trkpt>
      <trkpt lat="47.17192" lon="-2.14522">
        <ele>23.2</ele>
        <time>2020-06-05T11:40:13Z</time>
      </trkpt>
      <trkpt lat="47.17192" lon="-2.14524">
        <ele>23.1</ele>
        <time>2020-06-05T11:40:14Z</time>
      </trkpt>
      <trkpt lat="47.17192" lon="-2.14529">
        <ele>22.9</ele>
        <time>2020-06-05T11:40:15Z</time>
      </trkpt>
      <trkpt lat="47.17193" lon="-2.14531">
        <ele>22.8</ele>
        <time>2020-06-05T11:40:16Z</time>
      </trkpt>
      <trkpt lat="47.17193" lon="-2.14537">
        <ele>22.6</ele>
        <time>2020-06-05T11:40:17Z</time>
      </trkpt>
      <trkpt lat="47.17193" lon="-2.14543">
        <ele>22.4</ele>
        <time>2020-06-05T11:40:18Z</time>
      </trkpt>
      <trkpt lat="47.17192" lon="-2.14548">
        <ele>22.2</ele>
        <time>2020-06-05T11:40:19Z</time>
      </trkpt>
      <trkpt lat="47.17193" lon="-2.14554">
        <ele>22</ele>
        <time>2020-06-05T11:40:20Z</time>
      </trkpt>
      <trkpt lat="47.17193" lon="-2.14559">
        <ele>21.8</ele>
        <time>2020-06-05T11:40:21Z</time>
      </trkpt>
      <trkpt lat="47.17192" lon="-2.14566">
        <ele>21.6</ele>
        <time>2020-06-05T11:40:22Z</time>
      </trkpt>
      <trkpt lat="47.17192" lon="-2.14573">
        <ele>21.3</ele>
        <time>2020-06-05T11:40:23Z</time>
      </trkpt>
      <trkpt lat="47.17192" lon="-2.1458">
        <ele>21.1</ele>
        <time>2020-06-05T11:40:24Z</time>
      </trkpt>
      <trkpt lat="47.17192" lon="-2.14587">
        <ele>20.8</ele>
        <time>2020-06-05T11:40:25Z</time>
      </trkpt>
      <trkpt lat="47.17192" lon="-2.14594">
        <ele>20.5</ele>
        <time>2020-06-05T11:40:26Z</time>
      </trkpt>
      <trkpt lat="47.17192" lon="-2.146">
        <ele>20.3</ele>
        <time>2020-06-05T11:40:27Z</time>
      </trkpt>
      <trkpt lat="47.17192" lon="-2.14605">
        <ele>20.1</ele>
        <time>2020-06-05T11:40:28Z</time>
      </trkpt>
      <trkpt lat="47.17193" lon="-2.1461">
        <ele>19.9</ele>
        <time>2020-06-05T11:40:29Z</time>
      </trkpt>
      <trkpt lat="47.17193" lon="-2.14616">
        <ele>19.7</ele>
        <time>2020-06-05T11:40:30Z</time>
      </trkpt>
      <trkpt lat="47.17192" lon="-2.14621">
        <ele>19.5</ele>
        <time>2020-06-05T11:40:31Z</time>
      </trkpt>
      <trkpt lat="47.17192" lon="-2.14627">
        <ele>19.2</ele>
        <time>2020-06-05T11:40:32Z</time>
      </trkpt>
      <trkpt lat="47.17193" lon="-2.14633">
        <ele>19</ele>
        <time>2020-06-05T11:40:33Z</time>
      </trkpt>
      <trkpt lat="47.17193" lon="-2.14639">
        <ele>18.8</ele>
        <time>2020-06-05T11:40:34Z</time>
      </trkpt>
      <trkpt lat="47.17193" lon="-2.14645">
        <ele>18.5</ele>
        <time>2020-06-05T11:40:35Z</time>
      </trkpt>
      <trkpt lat="47.17194" lon="-2.14652">
        <ele>18.2</ele>
        <time>2020-06-05T11:40:36Z</time>
      </trkpt>
      <trkpt lat="47.17195" lon="-2.14661">
        <ele>17.8</ele>
        <time>2020-06-05T11:40:37Z</time>
      </trkpt>
      <trkpt lat="47.17196" lon="-2.1467">
        <ele>17.5</ele>
        <time>2020-06-05T11:40:38Z</time>
      </trkpt>
      <trkpt lat="47.17197" lon="-2.14678">
        <ele>17.2</ele>
        <time>2020-06-05T11:40:39Z</time>
      </trkpt>
      <trkpt lat="47.17199" lon="-2.14687">
        <ele>17</ele>
        <time>2020-06-05T11:40:40Z</time>
      </trkpt>
      <trkpt lat="47.172" lon="-2.14695">
        <ele>16.8</ele>
        <time>2020-06-05T11:40:41Z</time>
      </trkpt>
      <trkpt lat="47.172" lon="-2.14701">
        <ele>16.7</ele>
        <time>2020-06-05T11:40:42Z</time>
      </trkpt>
      <trkpt lat="47.17201" lon="-2.14706">
        <ele>16.6</ele>
        <time>2020-06-05T11:40:43Z</time>
      </trkpt>
      <trkpt lat="47.17202" lon="-2.14709">
        <ele>16.5</ele>
        <time>2020-06-05T11:40:44Z</time>
      </trkpt>
      <trkpt lat="47.17202" lon="-2.14711">
        <ele>16.4</ele>
        <time>2020-06-05T11:40:45Z</time>
      </trkpt>
      <trkpt lat="47.17202" lon="-2.14713">
        <ele>16.3</ele>
        <time>2020-06-05T11:40:46Z</time>
      </trkpt>
      <trkpt lat="47.17202" lon="-2.14713">
        <ele>16.3</ele>
        <time>2020-06-05T11:40:47Z</time>
      </trkpt>
      <trkpt lat="47.17202" lon="-2.14714">
        <ele>16.3</ele>
        <time>2020-06-05T11:40:48Z</time>
      </trkpt>
      <trkpt lat="47.17202" lon="-2.14714">
        <ele>16.3</ele>
        <time>2020-06-05T11:40:49Z</time>
      </trkpt>
      <trkpt lat="47.17202" lon="-2.14715">
        <ele>16.3</ele>
        <time>2020-06-05T11:40:50Z</time>
      </trkpt>
      <trkpt lat="47.17202" lon="-2.14715">
        <ele>16.2</ele>
        <time>2020-06-05T11:40:51Z</time>
      </trkpt>
      <trkpt lat="47.17201" lon="-2.14716">
        <ele>16.2</ele>
        <time>2020-06-05T11:40:52Z</time>
      </trkpt>
      <trkpt lat="47.17201" lon="-2.14716">
        <ele>16.2</ele>
        <time>2020-06-05T11:40:53Z</time>
      </trkpt>
      <trkpt lat="47.17201" lon="-2.14717">
        <ele>16.2</ele>
        <time>2020-06-05T11:40:54Z</time>
      </trkpt>
      <trkpt lat="47.17201" lon="-2.14721">
        <ele>15.8</ele>
        <time>2020-06-05T11:40:55Z</time>
      </trkpt>
      <trkpt lat="47.17202" lon="-2.14726">
        <ele>15.8</ele>
        <time>2020-06-05T11:40:56Z</time>
      </trkpt>
      <trkpt lat="47.17203" lon="-2.14731">
        <ele>15.7</ele>
        <time>2020-06-05T11:40:57Z</time>
      </trkpt>
      <trkpt lat="47.17204" lon="-2.14735">
        <ele>15.7</ele>
        <time>2020-06-05T11:40:58Z</time>
      </trkpt>
      <trkpt lat="47.17205" lon="-2.14741">
        <ele>15.6</ele>
        <time>2020-06-05T11:40:59Z</time>
      </trkpt>
      <trkpt lat="47.17206" lon="-2.14748">
        <ele>15.5</ele>
        <time>2020-06-05T11:41:00Z</time>
      </trkpt>
      <trkpt lat="47.17207" lon="-2.14754">
        <ele>15.4</ele>
        <time>2020-06-05T11:41:01Z</time>
      </trkpt>
      <trkpt lat="47.17207" lon="-2.14762">
        <ele>15.4</ele>
        <time>2020-06-05T11:41:02Z</time>
      </trkpt>
      <trkpt lat="47.17208" lon="-2.14768">
        <ele>15.4</ele>
        <time>2020-06-05T11:41:03Z</time>
      </trkpt>
      <trkpt lat="47.17208" lon="-2.14775">
        <ele>15.3</ele>
        <time>2020-06-05T11:41:04Z</time>
      </trkpt>
      <trkpt lat="47.17209" lon="-2.1478">
        <ele>15.3</ele>
        <time>2020-06-05T11:41:05Z</time>
      </trkpt>
      <trkpt lat="47.17211" lon="-2.14786">
        <ele>15.3</ele>
        <time>2020-06-05T11:41:06Z</time>
      </trkpt>
      <trkpt lat="47.17215" lon="-2.14788">
        <ele>15.3</ele>
        <time>2020-06-05T11:41:07Z</time>
      </trkpt>
      <trkpt lat="47.17219" lon="-2.14786">
        <ele>15.3</ele>
        <time>2020-06-05T11:41:08Z</time>
      </trkpt>
      <trkpt lat="47.17222" lon="-2.14783">
        <ele>15.4</ele>
        <time>2020-06-05T11:41:09Z</time>
      </trkpt>
      <trkpt lat="47.17226" lon="-2.14782">
        <ele>15.4</ele>
        <time>2020-06-05T11:41:10Z</time>
      </trkpt>
      <trkpt lat="47.1723" lon="-2.14781">
        <ele>15.5</ele>
        <time>2020-06-05T11:41:11Z</time>
      </trkpt>
      <trkpt lat="47.17234" lon="-2.14781">
        <ele>15.5</ele>
        <time>2020-06-05T11:41:12Z</time>
      </trkpt>
      <trkpt lat="47.17238" lon="-2.14781">
        <ele>15.6</ele>
        <time>2020-06-05T11:41:13Z</time>
      </trkpt>
      <trkpt lat="47.17241" lon="-2.14779">
        <ele>15.7</ele>
        <time>2020-06-05T11:41:14Z</time>
      </trkpt>
      <trkpt lat="47.17244" lon="-2.14778">
        <ele>15.8</ele>
        <time>2020-06-05T11:41:15Z</time>
      </trkpt>
      <trkpt lat="47.17247" lon="-2.14778">
        <ele>15.8</ele>
        <time>2020-06-05T11:41:16Z</time>
      </trkpt>
      <trkpt lat="47.1725" lon="-2.14778">
        <ele>15.9</ele>
        <time>2020-06-05T11:41:17Z</time>
      </trkpt>
      <trkpt lat="47.17254" lon="-2.14777">
        <ele>16</ele>
        <time>2020-06-05T11:41:18Z</time>
      </trkpt>
      <trkpt lat="47.17257" lon="-2.14776">
        <ele>16.1</ele>
        <time>2020-06-05T11:41:19Z</time>
      </trkpt>
      <trkpt lat="47.17261" lon="-2.14775">
        <ele>16.3</ele>
        <time>2020-06-05T11:41:20Z</time>
      </trkpt>
      <trkpt lat="47.17264" lon="-2.14774">
        <ele>16.4</ele>
        <time>2020-06-05T11:41:21Z</time>
      </trkpt>
      <trkpt lat="47.17266" lon="-2.14772">
        <ele>16.5</ele>
        <time>2020-06-05T11:41:22Z</time>
      </trkpt>
      <trkpt lat="47.17269" lon="-2.14771">
        <ele>16.6</ele>
        <time>2020-06-05T11:41:23Z</time>
      </trkpt>
      <trkpt lat="47.17272" lon="-2.14769">
        <ele>16.7</ele>
        <time>2020-06-05T11:41:24Z</time>
      </trkpt>
      <trkpt lat="47.17275" lon="-2.14767">
        <ele>16.8</ele>
        <time>2020-06-05T11:41:25Z</time>
      </trkpt>
      <trkpt lat="47.17279" lon="-2.14765">
        <ele>17</ele>
        <time>2020-06-05T11:41:26Z</time>
      </trkpt>
      <trkpt lat="47.17282" lon="-2.14763">
        <ele>17.1</ele>
        <time>2020-06-05T11:41:27Z</time>
      </trkpt>
      <trkpt lat="47.17286" lon="-2.14762">
        <ele>17.2</ele>
        <time>2020-06-05T11:41:28Z</time>
      </trkpt>
      <trkpt lat="47.17289" lon="-2.14761">
        <ele>17.3</ele>
        <time>2020-06-05T11:41:29Z</time>
      </trkpt>
      <trkpt lat="47.17291" lon="-2.14759">
        <ele>17.1</ele>
        <time>2020-06-05T11:41:30Z</time>
      </trkpt>
      <trkpt lat="47.17294" lon="-2.14756">
        <ele>17.2</ele>
        <time>2020-06-05T11:41:31Z</time>
      </trkpt>
      <trkpt lat="47.17295" lon="-2.14756">
        <ele>17.3</ele>
        <time>2020-06-05T11:41:32Z</time>
      </trkpt>
      <trkpt lat="47.17296" lon="-2.14756">
        <ele>17.3</ele>
        <time>2020-06-05T11:41:33Z</time>
      </trkpt>
      <trkpt lat="47.17297" lon="-2.14756">
        <ele>17.3</ele>
        <time>2020-06-05T11:41:34Z</time>
      </trkpt>
      <trkpt lat="47.17298" lon="-2.14756">
        <ele>17.3</ele>
        <time>2020-06-05T11:41:35Z</time>
      </trkpt>
      <trkpt lat="47.17299" lon="-2.14757">
        <ele>17.4</ele>
        <time>2020-06-05T11:41:36Z</time>
      </trkpt>
      <trkpt lat="47.17299" lon="-2.14757">
        <ele>17.4</ele>
        <time>2020-06-05T11:41:37Z</time>
      </trkpt>
      <trkpt lat="47.17299" lon="-2.14757">
        <ele>17.4</ele>
        <time>2020-06-05T11:41:38Z</time>
      </trkpt>
      <trkpt lat="47.173" lon="-2.14757">
        <ele>17.4</ele>
        <time>2020-06-05T11:41:39Z</time>
      </trkpt>
      <trkpt lat="47.173" lon="-2.14757">
        <ele>17.4</ele>
        <time>2020-06-05T11:41:40Z</time>
      </trkpt>
      <trkpt lat="47.17301" lon="-2.14757">
        <ele>17.4</ele>
        <time>2020-06-05T11:41:41Z</time>
      </trkpt>
      <trkpt lat="47.17301" lon="-2.14757">
        <ele>17.4</ele>
        <time>2020-06-05T11:41:42Z</time>
      </trkpt>
      <trkpt lat="47.17301" lon="-2.14757">
        <ele>17.4</ele>
        <time>2020-06-05T11:41:43Z</time>
      </trkpt>
      <trkpt lat="47.17302" lon="-2.14757">
        <ele>17.4</ele>
        <time>2020-06-05T11:41:44Z</time>
      </trkpt>
      <trkpt lat="47.17302" lon="-2.14757">
        <ele>17.5</ele>
        <time>2020-06-05T11:41:45Z</time>
      </trkpt>
      <trkpt lat="47.17306" lon="-2.14756">
        <ele>17.6</ele>
        <time>2020-06-05T11:41:46Z</time>
      </trkpt>
      <trkpt lat="47.17307" lon="-2.14755">
        <ele>17.6</ele>
        <time>2020-06-05T11:41:47Z</time>
      </trkpt>
      <trkpt lat="47.1731" lon="-2.14753">
        <ele>17.7</ele>
        <time>2020-06-05T11:41:48Z</time>
      </trkpt>
      <trkpt lat="47.17312" lon="-2.14751">
        <ele>17.8</ele>
        <time>2020-06-05T11:41:49Z</time>
      </trkpt>
      <trkpt lat="47.17315" lon="-2.14749">
        <ele>17.9</ele>
        <time>2020-06-05T11:41:50Z</time>
      </trkpt>
      <trkpt lat="47.17318" lon="-2.14747">
        <ele>18</ele>
        <time>2020-06-05T11:41:51Z</time>
      </trkpt>
      <trkpt lat="47.17321" lon="-2.14745">
        <ele>18.1</ele>
        <time>2020-06-05T11:41:52Z</time>
      </trkpt>
      <trkpt lat="47.17324" lon="-2.14743">
        <ele>18.2</ele>
        <time>2020-06-05T11:41:53Z</time>
      </trkpt>
      <trkpt lat="47.17327" lon="-2.1474">
        <ele>18.4</ele>
        <time>2020-06-05T11:41:54Z</time>
      </trkpt>
      <trkpt lat="47.1733" lon="-2.14737">
        <ele>18.5</ele>
        <time>2020-06-05T11:41:55Z</time>
      </trkpt>
      <trkpt lat="47.17333" lon="-2.14734">
        <ele>18.7</ele>
        <time>2020-06-05T11:41:56Z</time>
      </trkpt>
      <trkpt lat="47.17337" lon="-2.14733">
        <ele>18.8</ele>
        <time>2020-06-05T11:41:57Z</time>
      </trkpt>
      <trkpt lat="47.1734" lon="-2.14731">
        <ele>18.9</ele>
        <time>2020-06-05T11:41:58Z</time>
      </trkpt>
      <trkpt lat="47.17343" lon="-2.1473">
        <ele>19.1</ele>
        <time>2020-06-05T11:41:59Z</time>
      </trkpt>
      <trkpt lat="47.17345" lon="-2.14728">
        <ele>19.2</ele>
        <time>2020-06-05T11:42:00Z</time>
      </trkpt>
      <trkpt lat="47.17349" lon="-2.14725">
        <ele>19.3</ele>
        <time>2020-06-05T11:42:01Z</time>
      </trkpt>
      <trkpt lat="47.1735" lon="-2.14724">
        <ele>19.4</ele>
        <time>2020-06-05T11:42:02Z</time>
      </trkpt>
      <trkpt lat="47.17352" lon="-2.14721">
        <ele>19.5</ele>
        <time>2020-06-05T11:42:03Z</time>
      </trkpt>
      <trkpt lat="47.17356" lon="-2.14718">
        <ele>19.7</ele>
        <time>2020-06-05T11:42:04Z</time>
      </trkpt>
      <trkpt lat="47.17359" lon="-2.14715">
        <ele>19.9</ele>
        <time>2020-06-05T11:42:05Z</time>
      </trkpt>
      <trkpt lat="47.17362" lon="-2.14713">
        <ele>20</ele>
        <time>2020-06-05T11:42:06Z</time>
      </trkpt>
      <trkpt lat="47.17366" lon="-2.14711">
        <ele>20.2</ele>
        <time>2020-06-05T11:42:07Z</time>
      </trkpt>
      <trkpt lat="47.17369" lon="-2.1471">
        <ele>20.3</ele>
        <time>2020-06-05T11:42:08Z</time>
      </trkpt>
      <trkpt lat="47.17373" lon="-2.1471">
        <ele>20.5</ele>
        <time>2020-06-05T11:42:09Z</time>
      </trkpt>
      <trkpt lat="47.17376" lon="-2.14708">
        <ele>20.6</ele>
        <time>2020-06-05T11:42:10Z</time>
      </trkpt>
      <trkpt lat="47.17379" lon="-2.14707">
        <ele>20.8</ele>
        <time>2020-06-05T11:42:11Z</time>
      </trkpt>
      <trkpt lat="47.17381" lon="-2.14705">
        <ele>20.9</ele>
        <time>2020-06-05T11:42:12Z</time>
      </trkpt>
      <trkpt lat="47.17383" lon="-2.14702">
        <ele>21</ele>
        <time>2020-06-05T11:42:13Z</time>
      </trkpt>
      <trkpt lat="47.17386" lon="-2.14699">
        <ele>21.2</ele>
        <time>2020-06-05T11:42:14Z</time>
      </trkpt>
      <trkpt lat="47.17388" lon="-2.14696">
        <ele>21.3</ele>
        <time>2020-06-05T11:42:15Z</time>
      </trkpt>
      <trkpt lat="47.1739" lon="-2.14693">
        <ele>21.4</ele>
        <time>2020-06-05T11:42:16Z</time>
      </trkpt>
      <trkpt lat="47.17392" lon="-2.1469">
        <ele>21.4</ele>
        <time>2020-06-05T11:42:17Z</time>
      </trkpt>
      <trkpt lat="47.17394" lon="-2.14687">
        <ele>21.5</ele>
        <time>2020-06-05T11:42:18Z</time>
      </trkpt>
      <trkpt lat="47.17395" lon="-2.14683">
        <ele>21.6</ele>
        <time>2020-06-05T11:42:19Z</time>
      </trkpt>
      <trkpt lat="47.17398" lon="-2.1468">
        <ele>21.7</ele>
        <time>2020-06-05T11:42:20Z</time>
      </trkpt>
      <trkpt lat="47.174" lon="-2.14678">
        <ele>21.8</ele>
        <time>2020-06-05T11:42:21Z</time>
      </trkpt>
      <trkpt lat="47.17404" lon="-2.14677">
        <ele>21.9</ele>
        <time>2020-06-05T11:42:22Z</time>
      </trkpt>
      <trkpt lat="47.17407" lon="-2.14676">
        <ele>21.9</ele>
        <time>2020-06-05T11:42:23Z</time>
      </trkpt>
      <trkpt lat="47.17411" lon="-2.14674">
        <ele>22</ele>
        <time>2020-06-05T11:42:24Z</time>
      </trkpt>
      <trkpt lat="47.17415" lon="-2.14672">
        <ele>22.1</ele>
        <time>2020-06-05T11:42:25Z</time>
      </trkpt>
      <trkpt lat="47.17418" lon="-2.14669">
        <ele>22.2</ele>
        <time>2020-06-05T11:42:26Z</time>
      </trkpt>
      <trkpt lat="47.17422" lon="-2.14666">
        <ele>22.3</ele>
        <time>2020-06-05T11:42:27Z</time>
      </trkpt>
      <trkpt lat="47.17427" lon="-2.14664">
        <ele>22.4</ele>
        <time>2020-06-05T11:42:28Z</time>
      </trkpt>
      <trkpt lat="47.1743" lon="-2.14662">
        <ele>22.4</ele>
        <time>2020-06-05T11:42:29Z</time>
      </trkpt>
      <trkpt lat="47.17434" lon="-2.14659">
        <ele>22.5</ele>
        <time>2020-06-05T11:42:30Z</time>
      </trkpt>
      <trkpt lat="47.17438" lon="-2.14657">
        <ele>22.6</ele>
        <time>2020-06-05T11:42:31Z</time>
      </trkpt>
      <trkpt lat="47.17442" lon="-2.14654">
        <ele>22.6</ele>
        <time>2020-06-05T11:42:32Z</time>
      </trkpt>
      <trkpt lat="47.17447" lon="-2.1465">
        <ele>22.7</ele>
        <time>2020-06-05T11:42:33Z</time>
      </trkpt>
      <trkpt lat="47.17451" lon="-2.14647">
        <ele>22.8</ele>
        <time>2020-06-05T11:42:34Z</time>
      </trkpt>
      <trkpt lat="47.17455" lon="-2.14643">
        <ele>22.9</ele>
        <time>2020-06-05T11:42:35Z</time>
      </trkpt>
      <trkpt lat="47.17459" lon="-2.1464">
        <ele>23</ele>
        <time>2020-06-05T11:42:36Z</time>
      </trkpt>
      <trkpt lat="47.17463" lon="-2.14637">
        <ele>23.1</ele>
        <time>2020-06-05T11:42:37Z</time>
      </trkpt>
      <trkpt lat="47.17468" lon="-2.14634">
        <ele>23.2</ele>
        <time>2020-06-05T11:42:38Z</time>
      </trkpt>
      <trkpt lat="47.17472" lon="-2.14631">
        <ele>23.3</ele>
        <time>2020-06-05T11:42:39Z</time>
      </trkpt>
      <trkpt lat="47.17475" lon="-2.14627">
        <ele>23.3</ele>
        <time>2020-06-05T11:42:40Z</time>
      </trkpt>
      <trkpt lat="47.17479" lon="-2.14624">
        <ele>23.4</ele>
        <time>2020-06-05T11:42:41Z</time>
      </trkpt>
      <trkpt lat="47.17482" lon="-2.1462">
        <ele>23.4</ele>
        <time>2020-06-05T11:42:42Z</time>
      </trkpt>
      <trkpt lat="47.17486" lon="-2.14617">
        <ele>23.4</ele>
        <time>2020-06-05T11:42:43Z</time>
      </trkpt>
      <trkpt lat="47.17489" lon="-2.14614">
        <ele>23.4</ele>
        <time>2020-06-05T11:42:44Z</time>
      </trkpt>
      <trkpt lat="47.17492" lon="-2.14611">
        <ele>23.4</ele>
        <time>2020-06-05T11:42:45Z</time>
      </trkpt>
      <trkpt lat="47.17496" lon="-2.14608">
        <ele>23.4</ele>
        <time>2020-06-05T11:42:46Z</time>
      </trkpt>
      <trkpt lat="47.17499" lon="-2.14606">
        <ele>23.4</ele>
        <time>2020-06-05T11:42:47Z</time>
      </trkpt>
      <trkpt lat="47.17502" lon="-2.14603">
        <ele>23.4</ele>
        <time>2020-06-05T11:42:48Z</time>
      </trkpt>
      <trkpt lat="47.17505" lon="-2.146">
        <ele>23.4</ele>
        <time>2020-06-05T11:42:49Z</time>
      </trkpt>
      <trkpt lat="47.17508" lon="-2.14597">
        <ele>23.4</ele>
        <time>2020-06-05T11:42:50Z</time>
      </trkpt>
      <trkpt lat="47.17511" lon="-2.14593">
        <ele>23.4</ele>
        <time>2020-06-05T11:42:51Z</time>
      </trkpt>
      <trkpt lat="47.17515" lon="-2.1459">
        <ele>23.4</ele>
        <time>2020-06-05T11:42:52Z</time>
      </trkpt>
      <trkpt lat="47.17518" lon="-2.14587">
        <ele>23.3</ele>
        <time>2020-06-05T11:42:53Z</time>
      </trkpt>
      <trkpt lat="47.17522" lon="-2.14584">
        <ele>23.3</ele>
        <time>2020-06-05T11:42:54Z</time>
      </trkpt>
      <trkpt lat="47.17526" lon="-2.14581">
        <ele>23.2</ele>
        <time>2020-06-05T11:42:55Z</time>
      </trkpt>
      <trkpt lat="47.1753" lon="-2.14578">
        <ele>23.2</ele>
        <time>2020-06-05T11:42:56Z</time>
      </trkpt>
      <trkpt lat="47.17534" lon="-2.14573">
        <ele>23.1</ele>
        <time>2020-06-05T11:42:57Z</time>
      </trkpt>
      <trkpt lat="47.17538" lon="-2.14569">
        <ele>23.1</ele>
        <time>2020-06-05T11:42:58Z</time>
      </trkpt>
      <trkpt lat="47.17542" lon="-2.14566">
        <ele>23</ele>
        <time>2020-06-05T11:42:59Z</time>
      </trkpt>
      <trkpt lat="47.17544" lon="-2.14562">
        <ele>22.9</ele>
        <time>2020-06-05T11:43:00Z</time>
      </trkpt>
      <trkpt lat="47.17548" lon="-2.14559">
        <ele>22.9</ele>
        <time>2020-06-05T11:43:01Z</time>
      </trkpt>
      <trkpt lat="47.17551" lon="-2.14557">
        <ele>22.8</ele>
        <time>2020-06-05T11:43:02Z</time>
      </trkpt>
      <trkpt lat="47.17555" lon="-2.14559">
        <ele>22.8</ele>
        <time>2020-06-05T11:43:03Z</time>
      </trkpt>
      <trkpt lat="47.17559" lon="-2.14561">
        <ele>22.7</ele>
        <time>2020-06-05T11:43:04Z</time>
      </trkpt>
      <trkpt lat="47.17563" lon="-2.14564">
        <ele>22.5</ele>
        <time>2020-06-05T11:43:05Z</time>
      </trkpt>
      <trkpt lat="47.17568" lon="-2.14565">
        <ele>22.4</ele>
        <time>2020-06-05T11:43:06Z</time>
      </trkpt>
      <trkpt lat="47.17573" lon="-2.14567">
        <ele>22.2</ele>
        <time>2020-06-05T11:43:07Z</time>
      </trkpt>
      <trkpt lat="47.17577" lon="-2.1457">
        <ele>22.1</ele>
        <time>2020-06-05T11:43:08Z</time>
      </trkpt>
      <trkpt lat="47.17581" lon="-2.14573">
        <ele>21.9</ele>
        <time>2020-06-05T11:43:09Z</time>
      </trkpt>
      <trkpt lat="47.17585" lon="-2.14577">
        <ele>21.7</ele>
        <time>2020-06-05T11:43:10Z</time>
      </trkpt>
      <trkpt lat="47.1759" lon="-2.14579">
        <ele>21.6</ele>
        <time>2020-06-05T11:43:11Z</time>
      </trkpt>
      <trkpt lat="47.17594" lon="-2.14581">
        <ele>21.4</ele>
        <time>2020-06-05T11:43:12Z</time>
      </trkpt>
      <trkpt lat="47.17598" lon="-2.14584">
        <ele>21.2</ele>
        <time>2020-06-05T11:43:13Z</time>
      </trkpt>
      <trkpt lat="47.17602" lon="-2.14586">
        <ele>21</ele>
        <time>2020-06-05T11:43:14Z</time>
      </trkpt>
      <trkpt lat="47.17606" lon="-2.14588">
        <ele>20.8</ele>
        <time>2020-06-05T11:43:15Z</time>
      </trkpt>
      <trkpt lat="47.17611" lon="-2.14591">
        <ele>20.6</ele>
        <time>2020-06-05T11:43:16Z</time>
      </trkpt>
      <trkpt lat="47.17615" lon="-2.14593">
        <ele>20.5</ele>
        <time>2020-06-05T11:43:17Z</time>
      </trkpt>
      <trkpt lat="47.17619" lon="-2.14595">
        <ele>20.3</ele>
        <time>2020-06-05T11:43:18Z</time>
      </trkpt>
      <trkpt lat="47.17624" lon="-2.14598">
        <ele>20.2</ele>
        <time>2020-06-05T11:43:19Z</time>
      </trkpt>
      <trkpt lat="47.17628" lon="-2.146">
        <ele>20</ele>
        <time>2020-06-05T11:43:20Z</time>
      </trkpt>
      <trkpt lat="47.17633" lon="-2.14602">
        <ele>19.7</ele>
        <time>2020-06-05T11:43:21Z</time>
      </trkpt>
      <trkpt lat="47.17638" lon="-2.14604">
        <ele>19.5</ele>
        <time>2020-06-05T11:43:22Z</time>
      </trkpt>
      <trkpt lat="47.17644" lon="-2.14606">
        <ele>19.2</ele>
        <time>2020-06-05T11:43:23Z</time>
      </trkpt>
      <trkpt lat="47.17649" lon="-2.14608">
        <ele>18.9</ele>
        <time>2020-06-05T11:43:24Z</time>
      </trkpt>
      <trkpt lat="47.17655" lon="-2.1461">
        <ele>18.6</ele>
        <time>2020-06-05T11:43:25Z</time>
      </trkpt>
      <trkpt lat="47.17661" lon="-2.14613">
        <ele>18.3</ele>
        <time>2020-06-05T11:43:26Z</time>
      </trkpt>
      <trkpt lat="47.17667" lon="-2.14617">
        <ele>18</ele>
        <time>2020-06-05T11:43:27Z</time>
      </trkpt>
      <trkpt lat="47.17673" lon="-2.1462">
        <ele>17.7</ele>
        <time>2020-06-05T11:43:28Z</time>
      </trkpt>
      <trkpt lat="47.1768" lon="-2.14624">
        <ele>17.3</ele>
        <time>2020-06-05T11:43:29Z</time>
      </trkpt>
      <trkpt lat="47.17687" lon="-2.14628">
        <ele>16.9</ele>
        <time>2020-06-05T11:43:30Z</time>
      </trkpt>
      <trkpt lat="47.17694" lon="-2.14631">
        <ele>16.6</ele>
        <time>2020-06-05T11:43:31Z</time>
      </trkpt>
      <trkpt lat="47.17701" lon="-2.14635">
        <ele>16.2</ele>
        <time>2020-06-05T11:43:32Z</time>
      </trkpt>
      <trkpt lat="47.17709" lon="-2.14639">
        <ele>15.8</ele>
        <time>2020-06-05T11:43:33Z</time>
      </trkpt>
      <trkpt lat="47.17717" lon="-2.14643">
        <ele>15.4</ele>
        <time>2020-06-05T11:43:34Z</time>
      </trkpt>
      <trkpt lat="47.17725" lon="-2.14647">
        <ele>15</ele>
        <time>2020-06-05T11:43:35Z</time>
      </trkpt>
      <trkpt lat="47.17733" lon="-2.1465">
        <ele>14.6</ele>
        <time>2020-06-05T11:43:36Z</time>
      </trkpt>
      <trkpt lat="47.17741" lon="-2.14653">
        <ele>14.1</ele>
        <time>2020-06-05T11:43:37Z</time>
      </trkpt>
      <trkpt lat="47.17749" lon="-2.14656">
        <ele>13.7</ele>
        <time>2020-06-05T11:43:38Z</time>
      </trkpt>
      <trkpt lat="47.17757" lon="-2.14659">
        <ele>13.4</ele>
        <time>2020-06-05T11:43:39Z</time>
      </trkpt>
      <trkpt lat="47.17766" lon="-2.14663">
        <ele>13</ele>
        <time>2020-06-05T11:43:40Z</time>
      </trkpt>
      <trkpt lat="47.17774" lon="-2.14667">
        <ele>12.7</ele>
        <time>2020-06-05T11:43:41Z</time>
      </trkpt>
      <trkpt lat="47.17782" lon="-2.1467">
        <ele>12.3</ele>
        <time>2020-06-05T11:43:42Z</time>
      </trkpt>
      <trkpt lat="47.1779" lon="-2.14674">
        <ele>12.2</ele>
        <time>2020-06-05T11:43:43Z</time>
      </trkpt>
      <trkpt lat="47.17797" lon="-2.14679">
        <ele>12</ele>
        <time>2020-06-05T11:43:44Z</time>
      </trkpt>
      <trkpt lat="47.17805" lon="-2.14684">
        <ele>11.9</ele>
        <time>2020-06-05T11:43:45Z</time>
      </trkpt>
      <trkpt lat="47.17812" lon="-2.14687">
        <ele>11.8</ele>
        <time>2020-06-05T11:43:46Z</time>
      </trkpt>
      <trkpt lat="47.1782" lon="-2.1469">
        <ele>11.6</ele>
        <time>2020-06-05T11:43:47Z</time>
      </trkpt>
      <trkpt lat="47.17827" lon="-2.14692">
        <ele>11.6</ele>
        <time>2020-06-05T11:43:48Z</time>
      </trkpt>
      <trkpt lat="47.17833" lon="-2.14696">
        <ele>11.6</ele>
        <time>2020-06-05T11:43:49Z</time>
      </trkpt>
      <trkpt lat="47.17839" lon="-2.147">
        <ele>11.7</ele>
        <time>2020-06-05T11:43:50Z</time>
      </trkpt>
      <trkpt lat="47.17845" lon="-2.14703">
        <ele>11.8</ele>
        <time>2020-06-05T11:43:51Z</time>
      </trkpt>
      <trkpt lat="47.17851" lon="-2.14706">
        <ele>11.9</ele>
        <time>2020-06-05T11:43:52Z</time>
      </trkpt>
      <trkpt lat="47.17857" lon="-2.14708">
        <ele>12</ele>
        <time>2020-06-05T11:43:53Z</time>
      </trkpt>
      <trkpt lat="47.17862" lon="-2.14711">
        <ele>12.2</ele>
        <time>2020-06-05T11:43:54Z</time>
      </trkpt>
      <trkpt lat="47.17867" lon="-2.14713">
        <ele>12.4</ele>
        <time>2020-06-05T11:43:55Z</time>
      </trkpt>
      <trkpt lat="47.17871" lon="-2.14715">
        <ele>12.6</ele>
        <time>2020-06-05T11:43:56Z</time>
      </trkpt>
      <trkpt lat="47.17875" lon="-2.14718">
        <ele>12.9</ele>
        <time>2020-06-05T11:43:57Z</time>
      </trkpt>
      <trkpt lat="47.17879" lon="-2.14721">
        <ele>13.1</ele>
        <time>2020-06-05T11:43:58Z</time>
      </trkpt>
      <trkpt lat="47.17883" lon="-2.14724">
        <ele>13.3</ele>
        <time>2020-06-05T11:43:59Z</time>
      </trkpt>
      <trkpt lat="47.17887" lon="-2.14728">
        <ele>13.6</ele>
        <time>2020-06-05T11:44:00Z</time>
      </trkpt>
      <trkpt lat="47.17891" lon="-2.14731">
        <ele>13.9</ele>
        <time>2020-06-05T11:44:01Z</time>
      </trkpt>
      <trkpt lat="47.17896" lon="-2.14734">
        <ele>14.2</ele>
        <time>2020-06-05T11:44:02Z</time>
      </trkpt>
      <trkpt lat="47.179" lon="-2.14738">
        <ele>14.5</ele>
        <time>2020-06-05T11:44:03Z</time>
      </trkpt>
      <trkpt lat="47.17903" lon="-2.14744">
        <ele>14.8</ele>
        <time>2020-06-05T11:44:04Z</time>
      </trkpt>
      <trkpt lat="47.17907" lon="-2.14749">
        <ele>15.2</ele>
        <time>2020-06-05T11:44:05Z</time>
      </trkpt>
      <trkpt lat="47.17911" lon="-2.14754">
        <ele>15.5</ele>
        <time>2020-06-05T11:44:06Z</time>
      </trkpt>
      <trkpt lat="47.17915" lon="-2.14758">
        <ele>15.8</ele>
        <time>2020-06-05T11:44:07Z</time>
      </trkpt>
      <trkpt lat="47.17919" lon="-2.14763">
        <ele>16.1</ele>
        <time>2020-06-05T11:44:08Z</time>
      </trkpt>
      <trkpt lat="47.17922" lon="-2.14768">
        <ele>16.4</ele>
        <time>2020-06-05T11:44:09Z</time>
      </trkpt>
      <trkpt lat="47.17926" lon="-2.14773">
        <ele>16.7</ele>
        <time>2020-06-05T11:44:10Z</time>
      </trkpt>
      <trkpt lat="47.1793" lon="-2.14777">
        <ele>17</ele>
        <time>2020-06-05T11:44:11Z</time>
      </trkpt>
      <trkpt lat="47.17933" lon="-2.14781">
        <ele>17.3</ele>
        <time>2020-06-05T11:44:12Z</time>
      </trkpt>
      <trkpt lat="47.17937" lon="-2.14785">
        <ele>17.6</ele>
        <time>2020-06-05T11:44:13Z</time>
      </trkpt>
      <trkpt lat="47.17941" lon="-2.1479">
        <ele>18</ele>
        <time>2020-06-05T11:44:14Z</time>
      </trkpt>
      <trkpt lat="47.17944" lon="-2.14794">
        <ele>18.3</ele>
        <time>2020-06-05T11:44:15Z</time>
      </trkpt>
      <trkpt lat="47.17948" lon="-2.148">
        <ele>18.6</ele>
        <time>2020-06-05T11:44:16Z</time>
      </trkpt>
      <trkpt lat="47.17951" lon="-2.14803">
        <ele>18.9</ele>
        <time>2020-06-05T11:44:17Z</time>
      </trkpt>
      <trkpt lat="47.17953" lon="-2.14808">
        <ele>19.2</ele>
        <time>2020-06-05T11:44:18Z</time>
      </trkpt>
      <trkpt lat="47.17956" lon="-2.14812">
        <ele>19.4</ele>
        <time>2020-06-05T11:44:19Z</time>
      </trkpt>
      <trkpt lat="47.17959" lon="-2.14818">
        <ele>19.7</ele>
        <time>2020-06-05T11:44:20Z</time>
      </trkpt>
      <trkpt lat="47.17961" lon="-2.14822">
        <ele>20</ele>
        <time>2020-06-05T11:44:21Z</time>
      </trkpt>
      <trkpt lat="47.17964" lon="-2.14824">
        <ele>20.2</ele>
        <time>2020-06-05T11:44:22Z</time>
      </trkpt>
      <trkpt lat="47.17967" lon="-2.14828">
        <ele>20.4</ele>
        <time>2020-06-05T11:44:23Z</time>
      </trkpt>
      <trkpt lat="47.1797" lon="-2.14832">
        <ele>20.7</ele>
        <time>2020-06-05T11:44:24Z</time>
      </trkpt>
      <trkpt lat="47.17975" lon="-2.14835">
        <ele>21.1</ele>
        <time>2020-06-05T11:44:25Z</time>
      </trkpt>
      <trkpt lat="47.17978" lon="-2.14838">
        <ele>21.3</ele>
        <time>2020-06-05T11:44:26Z</time>
      </trkpt>
      <trkpt lat="47.17981" lon="-2.14841">
        <ele>21.6</ele>
        <time>2020-06-05T11:44:27Z</time>
      </trkpt>
      <trkpt lat="47.17984" lon="-2.14843">
        <ele>21.7</ele>
        <time>2020-06-05T11:44:28Z</time>
      </trkpt>
      <trkpt lat="47.17986" lon="-2.14845">
        <ele>21.9</ele>
        <time>2020-06-05T11:44:29Z</time>
      </trkpt>
      <trkpt lat="47.17989" lon="-2.14844">
        <ele>22.1</ele>
        <time>2020-06-05T11:44:30Z</time>
      </trkpt>
      <trkpt lat="47.17992" lon="-2.14844">
        <ele>22.3</ele>
        <time>2020-06-05T11:44:31Z</time>
      </trkpt>
      <trkpt lat="47.17995" lon="-2.14842">
        <ele>22.4</ele>
        <time>2020-06-05T11:44:32Z</time>
      </trkpt>
      <trkpt lat="47.17996" lon="-2.14842">
        <ele>22.4</ele>
        <time>2020-06-05T11:44:33Z</time>
      </trkpt>
      <trkpt lat="47.17999" lon="-2.14842">
        <ele>22.5</ele>
        <time>2020-06-05T11:44:34Z</time>
      </trkpt>
      <trkpt lat="47.18" lon="-2.14843">
        <ele>22.5</ele>
        <time>2020-06-05T11:44:35Z</time>
      </trkpt>
      <trkpt lat="47.18003" lon="-2.14844">
        <ele>22.6</ele>
        <time>2020-06-05T11:44:36Z</time>
      </trkpt>
      <trkpt lat="47.18004" lon="-2.14844">
        <ele>22.7</ele>
        <time>2020-06-05T11:44:37Z</time>
      </trkpt>
      <trkpt lat="47.18007" lon="-2.14843">
        <ele>22.7</ele>
        <time>2020-06-05T11:44:38Z</time>
      </trkpt>
      <trkpt lat="47.18008" lon="-2.14843">
        <ele>22.7</ele>
        <time>2020-06-05T11:44:39Z</time>
      </trkpt>
      <trkpt lat="47.18012" lon="-2.14839">
        <ele>22.8</ele>
        <time>2020-06-05T11:44:40Z</time>
      </trkpt>
      <trkpt lat="47.18013" lon="-2.14838">
        <ele>22.8</ele>
        <time>2020-06-05T11:44:41Z</time>
      </trkpt>
      <trkpt lat="47.18013" lon="-2.14837">
        <ele>22.9</ele>
        <time>2020-06-05T11:44:42Z</time>
      </trkpt>
      <trkpt lat="47.18014" lon="-2.14836">
        <ele>22.9</ele>
        <time>2020-06-05T11:44:43Z</time>
      </trkpt>
      <trkpt lat="47.18014" lon="-2.14836">
        <ele>22.9</ele>
        <time>2020-06-05T11:44:44Z</time>
      </trkpt>
      <trkpt lat="47.18015" lon="-2.14836">
        <ele>22.9</ele>
        <time>2020-06-05T11:44:45Z</time>
      </trkpt>
      <trkpt lat="47.18015" lon="-2.14836">
        <ele>22.9</ele>
        <time>2020-06-05T11:44:46Z</time>
      </trkpt>
      <trkpt lat="47.18015" lon="-2.14835">
        <ele>22.9</ele>
        <time>2020-06-05T11:44:47Z</time>
      </trkpt>
      <trkpt lat="47.18016" lon="-2.14835">
        <ele>22.9</ele>
        <time>2020-06-05T11:44:48Z</time>
      </trkpt>
      <trkpt lat="47.18016" lon="-2.14835">
        <ele>22.9</ele>
        <time>2020-06-05T11:44:49Z</time>
      </trkpt>
      <trkpt lat="47.18016" lon="-2.14834">
        <ele>23</ele>
        <time>2020-06-05T11:44:50Z</time>
      </trkpt>
      <trkpt lat="47.18017" lon="-2.14834">
        <ele>23</ele>
        <time>2020-06-05T11:44:51Z</time>
      </trkpt>
      <trkpt lat="47.18017" lon="-2.14834">
        <ele>23.1</ele>
        <time>2020-06-05T11:44:52Z</time>
      </trkpt>
      <trkpt lat="47.18018" lon="-2.14834">
        <ele>23.1</ele>
        <time>2020-06-05T11:44:53Z</time>
      </trkpt>
      <trkpt lat="47.18018" lon="-2.14833">
        <ele>23.1</ele>
        <time>2020-06-05T11:44:54Z</time>
      </trkpt>
      <trkpt lat="47.18018" lon="-2.14833">
        <ele>23.1</ele>
        <time>2020-06-05T11:44:55Z</time>
      </trkpt>
      <trkpt lat="47.18019" lon="-2.14833">
        <ele>23.1</ele>
        <time>2020-06-05T11:44:56Z</time>
      </trkpt>
      <trkpt lat="47.18019" lon="-2.14832">
        <ele>23.1</ele>
        <time>2020-06-05T11:44:57Z</time>
      </trkpt>
      <trkpt lat="47.18019" lon="-2.14832">
        <ele>23.1</ele>
        <time>2020-06-05T11:44:58Z</time>
      </trkpt>
      <trkpt lat="47.1802" lon="-2.14832">
        <ele>23.2</ele>
        <time>2020-06-05T11:44:59Z</time>
      </trkpt>
      <trkpt lat="47.1802" lon="-2.14832">
        <ele>23.2</ele>
        <time>2020-06-05T11:45:00Z</time>
      </trkpt>
      <trkpt lat="47.18021" lon="-2.14831">
        <ele>23.2</ele>
        <time>2020-06-05T11:45:01Z</time>
      </trkpt>
      <trkpt lat="47.18021" lon="-2.14831">
        <ele>23.2</ele>
        <time>2020-06-05T11:45:21Z</time>
      </trkpt>
      <trkpt lat="47.18021" lon="-2.14831">
        <ele>23.2</ele>
        <time>2020-06-05T11:45:22Z</time>
      </trkpt>
      <trkpt lat="47.18024" lon="-2.14828">
        <ele>23.3</ele>
        <time>2020-06-05T11:45:23Z</time>
      </trkpt>
      <trkpt lat="47.18025" lon="-2.14828">
        <ele>23.4</ele>
        <time>2020-06-05T11:45:24Z</time>
      </trkpt>
      <trkpt lat="47.18027" lon="-2.14826">
        <ele>23.5</ele>
        <time>2020-06-05T11:45:25Z</time>
      </trkpt>
      <trkpt lat="47.18028" lon="-2.14826">
        <ele>23.5</ele>
        <time>2020-06-05T11:45:26Z</time>
      </trkpt>
      <trkpt lat="47.18031" lon="-2.14825">
        <ele>23.6</ele>
        <time>2020-06-05T11:45:27Z</time>
      </trkpt>
      <trkpt lat="47.18032" lon="-2.14824">
        <ele>23.7</ele>
        <time>2020-06-05T11:45:28Z</time>
      </trkpt>
      <trkpt lat="47.18033" lon="-2.14823">
        <ele>23.8</ele>
        <time>2020-06-05T11:45:29Z</time>
      </trkpt>
      <trkpt lat="47.18034" lon="-2.14823">
        <ele>23.8</ele>
        <time>2020-06-05T11:45:30Z</time>
      </trkpt>
      <trkpt lat="47.18035" lon="-2.14822">
        <ele>23.8</ele>
        <time>2020-06-05T11:45:31Z</time>
      </trkpt>
      <trkpt lat="47.18037" lon="-2.14822">
        <ele>23.9</ele>
        <time>2020-06-05T11:45:32Z</time>
      </trkpt>
      <trkpt lat="47.18038" lon="-2.14821">
        <ele>24</ele>
        <time>2020-06-05T11:45:33Z</time>
      </trkpt>
      <trkpt lat="47.18039" lon="-2.14821">
        <ele>24</ele>
        <time>2020-06-05T11:45:34Z</time>
      </trkpt>
      <trkpt lat="47.18042" lon="-2.14819">
        <ele>24.1</ele>
        <time>2020-06-05T11:45:35Z</time>
      </trkpt>
      <trkpt lat="47.18043" lon="-2.14818">
        <ele>24.2</ele>
        <time>2020-06-05T11:45:36Z</time>
      </trkpt>
      <trkpt lat="47.18046" lon="-2.14818">
        <ele>24.3</ele>
        <time>2020-06-05T11:45:37Z</time>
      </trkpt>
      <trkpt lat="47.18047" lon="-2.14817">
        <ele>24.3</ele>
        <time>2020-06-05T11:45:38Z</time>
      </trkpt>
      <trkpt lat="47.18049" lon="-2.14817">
        <ele>24.4</ele>
        <time>2020-06-05T11:45:39Z</time>
      </trkpt>
      <trkpt lat="47.1805" lon="-2.14816">
        <ele>24.5</ele>
        <time>2020-06-05T11:45:40Z</time>
      </trkpt>
      <trkpt lat="47.18053" lon="-2.14815">
        <ele>24.6</ele>
        <time>2020-06-05T11:45:41Z</time>
      </trkpt>
      <trkpt lat="47.18054" lon="-2.14814">
        <ele>24.6</ele>
        <time>2020-06-05T11:45:42Z</time>
      </trkpt>
      <trkpt lat="47.18057" lon="-2.14813">
        <ele>24.7</ele>
        <time>2020-06-05T11:45:43Z</time>
      </trkpt>
      <trkpt lat="47.18058" lon="-2.14813">
        <ele>24.7</ele>
        <time>2020-06-05T11:45:44Z</time>
      </trkpt>
      <trkpt lat="47.18059" lon="-2.14812">
        <ele>24.9</ele>
        <time>2020-06-05T11:45:45Z</time>
      </trkpt>
      <trkpt lat="47.18061" lon="-2.14812">
        <ele>24.9</ele>
        <time>2020-06-05T11:45:46Z</time>
      </trkpt>
      <trkpt lat="47.18062" lon="-2.14811">
        <ele>25</ele>
        <time>2020-06-05T11:45:47Z</time>
      </trkpt>
      <trkpt lat="47.18064" lon="-2.1481">
        <ele>25</ele>
        <time>2020-06-05T11:45:48Z</time>
      </trkpt>
      <trkpt lat="47.18066" lon="-2.1481">
        <ele>25.1</ele>
        <time>2020-06-05T11:45:49Z</time>
      </trkpt>
      <trkpt lat="47.18067" lon="-2.14809">
        <ele>25.1</ele>
        <time>2020-06-05T11:45:50Z</time>
      </trkpt>
      <trkpt lat="47.18068" lon="-2.14808">
        <ele>25.1</ele>
        <time>2020-06-05T11:45:51Z</time>
      </trkpt>
      <trkpt lat="47.18069" lon="-2.14807">
        <ele>25.1</ele>
        <time>2020-06-05T11:45:52Z</time>
      </trkpt>
      <trkpt lat="47.18069" lon="-2.14806">
        <ele>25.2</ele>
        <time>2020-06-05T11:45:53Z</time>
      </trkpt>
      <trkpt lat="47.1807" lon="-2.14804">
        <ele>25.2</ele>
        <time>2020-06-05T11:45:54Z</time>
      </trkpt>
      <trkpt lat="47.18072" lon="-2.14802">
        <ele>25.2</ele>
        <time>2020-06-05T11:45:55Z</time>
      </trkpt>
      <trkpt lat="47.18073" lon="-2.14801">
        <ele>25.3</ele>
        <time>2020-06-05T11:45:56Z</time>
      </trkpt>
      <trkpt lat="47.18076" lon="-2.14799">
        <ele>25.3</ele>
        <time>2020-06-05T11:45:57Z</time>
      </trkpt>
      <trkpt lat="47.18077" lon="-2.14799">
        <ele>25.4</ele>
        <time>2020-06-05T11:45:58Z</time>
      </trkpt>
      <trkpt lat="47.1808" lon="-2.14799">
        <ele>25.5</ele>
        <time>2020-06-05T11:45:59Z</time>
      </trkpt>
      <trkpt lat="47.18081" lon="-2.14799">
        <ele>25.5</ele>
        <time>2020-06-05T11:46:00Z</time>
      </trkpt>
      <trkpt lat="47.18084" lon="-2.14799">
        <ele>25.6</ele>
        <time>2020-06-05T11:46:01Z</time>
      </trkpt>
      <trkpt lat="47.18088" lon="-2.14799">
        <ele>25.7</ele>
        <time>2020-06-05T11:46:02Z</time>
      </trkpt>
      <trkpt lat="47.18089" lon="-2.14799">
        <ele>25.7</ele>
        <time>2020-06-05T11:46:03Z</time>
      </trkpt>
      <trkpt lat="47.18093" lon="-2.14797">
        <ele>25.8</ele>
        <time>2020-06-05T11:46:04Z</time>
      </trkpt>
      <trkpt lat="47.18096" lon="-2.14796">
        <ele>25.9</ele>
        <time>2020-06-05T11:46:05Z</time>
      </trkpt>
      <trkpt lat="47.18097" lon="-2.14795">
        <ele>25.9</ele>
        <time>2020-06-05T11:46:06Z</time>
      </trkpt>
      <trkpt lat="47.18101" lon="-2.14794">
        <ele>26</ele>
        <time>2020-06-05T11:46:07Z</time>
      </trkpt>
      <trkpt lat="47.18102" lon="-2.14795">
        <ele>26</ele>
        <time>2020-06-05T11:46:08Z</time>
      </trkpt>
      <trkpt lat="47.18103" lon="-2.14795">
        <ele>26.1</ele>
        <time>2020-06-05T11:46:09Z</time>
      </trkpt>
      <trkpt lat="47.18104" lon="-2.14795">
        <ele>26.1</ele>
        <time>2020-06-05T11:46:10Z</time>
      </trkpt>
      <trkpt lat="47.18105" lon="-2.14796">
        <ele>26.1</ele>
        <time>2020-06-05T11:46:11Z</time>
      </trkpt>
      <trkpt lat="47.18104" lon="-2.14799">
        <ele>26.2</ele>
        <time>2020-06-05T11:46:12Z</time>
      </trkpt>
      <trkpt lat="47.18105" lon="-2.14799">
        <ele>26.2</ele>
        <time>2020-06-05T11:46:13Z</time>
      </trkpt>
      <trkpt lat="47.18104" lon="-2.14799">
        <ele>26.2</ele>
        <time>2020-06-05T11:46:14Z</time>
      </trkpt>
      <trkpt lat="47.18103" lon="-2.148">
        <ele>26.2</ele>
        <time>2020-06-05T11:46:15Z</time>
      </trkpt>
      <trkpt lat="47.18102" lon="-2.14802">
        <ele>26.2</ele>
        <time>2020-06-05T11:46:16Z</time>
      </trkpt>
      <trkpt lat="47.18102" lon="-2.14804">
        <ele>26.3</ele>
        <time>2020-06-05T11:46:17Z</time>
      </trkpt>
      <trkpt lat="47.18103" lon="-2.14809">
        <ele>26.3</ele>
        <time>2020-06-05T11:46:18Z</time>
      </trkpt>
      <trkpt lat="47.18103" lon="-2.1481">
        <ele>26.4</ele>
        <time>2020-06-05T11:46:19Z</time>
      </trkpt>
      <trkpt lat="47.18104" lon="-2.14814">
        <ele>26.4</ele>
        <time>2020-06-05T11:46:20Z</time>
      </trkpt>
      <trkpt lat="47.18105" lon="-2.14815">
        <ele>26.4</ele>
        <time>2020-06-05T11:46:21Z</time>
      </trkpt>
      <trkpt lat="47.18106" lon="-2.1482">
        <ele>26.5</ele>
        <time>2020-06-05T11:46:22Z</time>
      </trkpt>
      <trkpt lat="47.18106" lon="-2.14821">
        <ele>26.5</ele>
        <time>2020-06-05T11:46:23Z</time>
      </trkpt>
      <trkpt lat="47.18106" lon="-2.14823">
        <ele>26.5</ele>
        <time>2020-06-05T11:46:24Z</time>
      </trkpt>
      <trkpt lat="47.18106" lon="-2.14825">
        <ele>26.6</ele>
        <time>2020-06-05T11:46:25Z</time>
      </trkpt>
      <trkpt lat="47.18105" lon="-2.14827">
        <ele>26.6</ele>
        <time>2020-06-05T11:46:26Z</time>
      </trkpt>
      <trkpt lat="47.18103" lon="-2.14829">
        <ele>26.6</ele>
        <time>2020-06-05T11:46:27Z</time>
      </trkpt>
      <trkpt lat="47.18101" lon="-2.14832">
        <ele>26.7</ele>
        <time>2020-06-05T11:46:28Z</time>
      </trkpt>
      <trkpt lat="47.181" lon="-2.14834">
        <ele>26.7</ele>
        <time>2020-06-05T11:46:29Z</time>
      </trkpt>
      <trkpt lat="47.181" lon="-2.14839">
        <ele>26.8</ele>
        <time>2020-06-05T11:46:30Z</time>
      </trkpt>
      <trkpt lat="47.181" lon="-2.14841">
        <ele>26.9</ele>
        <time>2020-06-05T11:46:31Z</time>
      </trkpt>
      <trkpt lat="47.18099" lon="-2.14846">
        <ele>27.1</ele>
        <time>2020-06-05T11:46:32Z</time>
      </trkpt>
      <trkpt lat="47.18098" lon="-2.14848">
        <ele>27.2</ele>
        <time>2020-06-05T11:46:33Z</time>
      </trkpt>
      <trkpt lat="47.18098" lon="-2.14852">
        <ele>27.4</ele>
        <time>2020-06-05T11:46:34Z</time>
      </trkpt>
      <trkpt lat="47.18097" lon="-2.14854">
        <ele>27.4</ele>
        <time>2020-06-05T11:46:35Z</time>
      </trkpt>
      <trkpt lat="47.18097" lon="-2.14856">
        <ele>27.5</ele>
        <time>2020-06-05T11:46:36Z</time>
      </trkpt>
      <trkpt lat="47.18098" lon="-2.14856">
        <ele>27.5</ele>
        <time>2020-06-05T11:46:37Z</time>
      </trkpt>
      <trkpt lat="47.18098" lon="-2.14855">
        <ele>27.6</ele>
        <time>2020-06-05T11:46:38Z</time>
      </trkpt>
      <trkpt lat="47.18099" lon="-2.14854">
        <ele>27.6</ele>
        <time>2020-06-05T11:46:39Z</time>
      </trkpt>
      <trkpt lat="47.181" lon="-2.14853">
        <ele>27.7</ele>
        <time>2020-06-05T11:46:40Z</time>
      </trkpt>
      <trkpt lat="47.181" lon="-2.14848">
        <ele>27.8</ele>
        <time>2020-06-05T11:46:41Z</time>
      </trkpt>
      <trkpt lat="47.181" lon="-2.14847">
        <ele>27.9</ele>
        <time>2020-06-05T11:46:42Z</time>
      </trkpt>
      <trkpt lat="47.18102" lon="-2.14845">
        <ele>28</ele>
        <time>2020-06-05T11:46:43Z</time>
      </trkpt>
      <trkpt lat="47.18104" lon="-2.14845">
        <ele>28</ele>
        <time>2020-06-05T11:46:44Z</time>
      </trkpt>
      <trkpt lat="47.18106" lon="-2.14846">
        <ele>28.1</ele>
        <time>2020-06-05T11:46:45Z</time>
      </trkpt>
      <trkpt lat="47.18106" lon="-2.14848">
        <ele>28.2</ele>
        <time>2020-06-05T11:46:46Z</time>
      </trkpt>
      <trkpt lat="47.18107" lon="-2.1485">
        <ele>28.2</ele>
        <time>2020-06-05T11:46:47Z</time>
      </trkpt>
      <trkpt lat="47.18108" lon="-2.14852">
        <ele>28.3</ele>
        <time>2020-06-05T11:46:48Z</time>
      </trkpt>
      <trkpt lat="47.18108" lon="-2.14855">
        <ele>28.3</ele>
        <time>2020-06-05T11:46:49Z</time>
      </trkpt>
      <trkpt lat="47.18109" lon="-2.14857">
        <ele>28.4</ele>
        <time>2020-06-05T11:46:50Z</time>
      </trkpt>
      <trkpt lat="47.18111" lon="-2.14861">
        <ele>28.5</ele>
        <time>2020-06-05T11:46:51Z</time>
      </trkpt>
      <trkpt lat="47.18112" lon="-2.14862">
        <ele>28.5</ele>
        <time>2020-06-05T11:46:52Z</time>
      </trkpt>
      <trkpt lat="47.18114" lon="-2.14864">
        <ele>28.6</ele>
        <time>2020-06-05T11:46:53Z</time>
      </trkpt>
      <trkpt lat="47.18115" lon="-2.14866">
        <ele>28.6</ele>
        <time>2020-06-05T11:46:54Z</time>
      </trkpt>
      <trkpt lat="47.18118" lon="-2.14868">
        <ele>28.7</ele>
        <time>2020-06-05T11:46:55Z</time>
      </trkpt>
      <trkpt lat="47.18119" lon="-2.14869">
        <ele>28.7</ele>
        <time>2020-06-05T11:46:56Z</time>
      </trkpt>
      <trkpt lat="47.1812" lon="-2.14871">
        <ele>28.7</ele>
        <time>2020-06-05T11:46:57Z</time>
      </trkpt>
      <trkpt lat="47.1812" lon="-2.14872">
        <ele>28.7</ele>
        <time>2020-06-05T11:46:58Z</time>
      </trkpt>
      <trkpt lat="47.18121" lon="-2.1487">
        <ele>28.7</ele>
        <time>2020-06-05T11:46:59Z</time>
      </trkpt>
      <trkpt lat="47.18122" lon="-2.1487">
        <ele>28.8</ele>
        <time>2020-06-05T11:47:00Z</time>
      </trkpt>
      <trkpt lat="47.18125" lon="-2.14869">
        <ele>28.8</ele>
        <time>2020-06-05T11:47:01Z</time>
      </trkpt>
      <trkpt lat="47.18128" lon="-2.14868">
        <ele>28.9</ele>
        <time>2020-06-05T11:47:02Z</time>
      </trkpt>
      <trkpt lat="47.18131" lon="-2.14867">
        <ele>28.9</ele>
        <time>2020-06-05T11:47:03Z</time>
      </trkpt>
      <trkpt lat="47.18135" lon="-2.14866">
        <ele>29</ele>
        <time>2020-06-05T11:47:04Z</time>
      </trkpt>
      <trkpt lat="47.18138" lon="-2.14864">
        <ele>29</ele>
        <time>2020-06-05T11:47:05Z</time>
      </trkpt>
      <trkpt lat="47.18141" lon="-2.14863">
        <ele>29.1</ele>
        <time>2020-06-05T11:47:06Z</time>
      </trkpt>
      <trkpt lat="47.18142" lon="-2.14862">
        <ele>29.1</ele>
        <time>2020-06-05T11:47:07Z</time>
      </trkpt>
      <trkpt lat="47.18143" lon="-2.14861">
        <ele>29.1</ele>
        <time>2020-06-05T11:47:08Z</time>
      </trkpt>
      <trkpt lat="47.18144" lon="-2.14861">
        <ele>29.2</ele>
        <time>2020-06-05T11:47:09Z</time>
      </trkpt>
      <trkpt lat="47.18148" lon="-2.14861">
        <ele>29.2</ele>
        <time>2020-06-05T11:47:10Z</time>
      </trkpt>
      <trkpt lat="47.1815" lon="-2.14861">
        <ele>29.2</ele>
        <time>2020-06-05T11:47:11Z</time>
      </trkpt>
      <trkpt lat="47.18153" lon="-2.1486">
        <ele>29.2</ele>
        <time>2020-06-05T11:47:12Z</time>
      </trkpt>
      <trkpt lat="47.18154" lon="-2.14859">
        <ele>29.2</ele>
        <time>2020-06-05T11:47:13Z</time>
      </trkpt>
      <trkpt lat="47.18156" lon="-2.14859">
        <ele>29.2</ele>
        <time>2020-06-05T11:47:14Z</time>
      </trkpt>
      <trkpt lat="47.18157" lon="-2.14857">
        <ele>29.2</ele>
        <time>2020-06-05T11:47:15Z</time>
      </trkpt>
      <trkpt lat="47.18159" lon="-2.14855">
        <ele>29.2</ele>
        <time>2020-06-05T11:47:16Z</time>
      </trkpt>
      <trkpt lat="47.1816" lon="-2.14854">
        <ele>29.2</ele>
        <time>2020-06-05T11:47:17Z</time>
      </trkpt>
      <trkpt lat="47.18162" lon="-2.14852">
        <ele>29.2</ele>
        <time>2020-06-05T11:47:18Z</time>
      </trkpt>
      <trkpt lat="47.18163" lon="-2.14851">
        <ele>29.2</ele>
        <time>2020-06-05T11:47:19Z</time>
      </trkpt>
      <trkpt lat="47.18166" lon="-2.14851">
        <ele>29.2</ele>
        <time>2020-06-05T11:47:20Z</time>
      </trkpt>
      <trkpt lat="47.18167" lon="-2.1485">
        <ele>29.2</ele>
        <time>2020-06-05T11:47:21Z</time>
      </trkpt>
      <trkpt lat="47.18171" lon="-2.14848">
        <ele>29.2</ele>
        <time>2020-06-05T11:47:22Z</time>
      </trkpt>
      <trkpt lat="47.18172" lon="-2.14848">
        <ele>29.2</ele>
        <time>2020-06-05T11:47:23Z</time>
      </trkpt>
      <trkpt lat="47.18175" lon="-2.14846">
        <ele>29.2</ele>
        <time>2020-06-05T11:47:24Z</time>
      </trkpt>
      <trkpt lat="47.18178" lon="-2.14847">
        <ele>29.2</ele>
        <time>2020-06-05T11:47:25Z</time>
      </trkpt>
      <trkpt lat="47.18179" lon="-2.14847">
        <ele>29.3</ele>
        <time>2020-06-05T11:47:26Z</time>
      </trkpt>
      <trkpt lat="47.18181" lon="-2.14847">
        <ele>29.3</ele>
        <time>2020-06-05T11:47:27Z</time>
      </trkpt>
      <trkpt lat="47.18182" lon="-2.14848">
        <ele>29.3</ele>
        <time>2020-06-05T11:47:28Z</time>
      </trkpt>
      <trkpt lat="47.18183" lon="-2.14849">
        <ele>29.3</ele>
        <time>2020-06-05T11:47:29Z</time>
      </trkpt>
      <trkpt lat="47.18183" lon="-2.14849">
        <ele>29.3</ele>
        <time>2020-06-05T11:47:30Z</time>
      </trkpt>
      <trkpt lat="47.18183" lon="-2.1485">
        <ele>29.3</ele>
        <time>2020-06-05T11:47:31Z</time>
      </trkpt>
      <trkpt lat="47.18184" lon="-2.1485">
        <ele>29.3</ele>
        <time>2020-06-05T11:47:32Z</time>
      </trkpt>
      <trkpt lat="47.18184" lon="-2.14851">
        <ele>29.3</ele>
        <time>2020-06-05T11:47:33Z</time>
      </trkpt>
      <trkpt lat="47.18185" lon="-2.14852">
        <ele>29.3</ele>
        <time>2020-06-05T11:47:34Z</time>
      </trkpt>
      <trkpt lat="47.18186" lon="-2.14852">
        <ele>29.3</ele>
        <time>2020-06-05T11:47:35Z</time>
      </trkpt>
      <trkpt lat="47.18187" lon="-2.14852">
        <ele>29.4</ele>
        <time>2020-06-05T11:47:36Z</time>
      </trkpt>
      <trkpt lat="47.1819" lon="-2.14851">
        <ele>29.5</ele>
        <time>2020-06-05T11:47:37Z</time>
      </trkpt>
      <trkpt lat="47.18191" lon="-2.14851">
        <ele>29.5</ele>
        <time>2020-06-05T11:47:38Z</time>
      </trkpt>
      <trkpt lat="47.18194" lon="-2.14851">
        <ele>29.6</ele>
        <time>2020-06-05T11:47:39Z</time>
      </trkpt>
      <trkpt lat="47.18198" lon="-2.1485">
        <ele>29.7</ele>
        <time>2020-06-05T11:47:40Z</time>
      </trkpt>
      <trkpt lat="47.18201" lon="-2.14849">
        <ele>29.8</ele>
        <time>2020-06-05T11:47:41Z</time>
      </trkpt>
      <trkpt lat="47.18204" lon="-2.14849">
        <ele>29.9</ele>
        <time>2020-06-05T11:47:42Z</time>
      </trkpt>
      <trkpt lat="47.18208" lon="-2.14848">
        <ele>30</ele>
        <time>2020-06-05T11:47:43Z</time>
      </trkpt>
      <trkpt lat="47.18212" lon="-2.14847">
        <ele>30.1</ele>
        <time>2020-06-05T11:47:44Z</time>
      </trkpt>
      <trkpt lat="47.18215" lon="-2.14847">
        <ele>30.2</ele>
        <time>2020-06-05T11:47:45Z</time>
      </trkpt>
      <trkpt lat="47.18219" lon="-2.14845">
        <ele>30.3</ele>
        <time>2020-06-05T11:47:46Z</time>
      </trkpt>
      <trkpt lat="47.18221" lon="-2.14845">
        <ele>30.4</ele>
        <time>2020-06-05T11:47:47Z</time>
      </trkpt>
      <trkpt lat="47.18224" lon="-2.14843">
        <ele>30.5</ele>
        <time>2020-06-05T11:47:48Z</time>
      </trkpt>
      <trkpt lat="47.18228" lon="-2.14842">
        <ele>30.5</ele>
        <time>2020-06-05T11:47:49Z</time>
      </trkpt>
      <trkpt lat="47.18231" lon="-2.14841">
        <ele>30.6</ele>
        <time>2020-06-05T11:47:50Z</time>
      </trkpt>
      <trkpt lat="47.18233" lon="-2.1484">
        <ele>30.6</ele>
        <time>2020-06-05T11:47:51Z</time>
      </trkpt>
      <trkpt lat="47.18237" lon="-2.14839">
        <ele>30.7</ele>
        <time>2020-06-05T11:47:52Z</time>
      </trkpt>
      <trkpt lat="47.1824" lon="-2.14838">
        <ele>30.7</ele>
        <time>2020-06-05T11:47:53Z</time>
      </trkpt>
      <trkpt lat="47.18243" lon="-2.14837">
        <ele>30.8</ele>
        <time>2020-06-05T11:47:54Z</time>
      </trkpt>
      <trkpt lat="47.18246" lon="-2.14837">
        <ele>30.8</ele>
        <time>2020-06-05T11:47:55Z</time>
      </trkpt>
      <trkpt lat="47.18248" lon="-2.14837">
        <ele>30.9</ele>
        <time>2020-06-05T11:47:56Z</time>
      </trkpt>
      <trkpt lat="47.18252" lon="-2.14837">
        <ele>30.9</ele>
        <time>2020-06-05T11:47:57Z</time>
      </trkpt>
      <trkpt lat="47.18254" lon="-2.1484">
        <ele>30.9</ele>
        <time>2020-06-05T11:47:58Z</time>
      </trkpt>
      <trkpt lat="47.18256" lon="-2.14844">
        <ele>30.8</ele>
        <time>2020-06-05T11:47:59Z</time>
      </trkpt>
      <trkpt lat="47.18256" lon="-2.1485">
        <ele>30.8</ele>
        <time>2020-06-05T11:48:00Z</time>
      </trkpt>
      <trkpt lat="47.18257" lon="-2.14855">
        <ele>30.8</ele>
        <time>2020-06-05T11:48:01Z</time>
      </trkpt>
      <trkpt lat="47.18257" lon="-2.14859">
        <ele>30.7</ele>
        <time>2020-06-05T11:48:02Z</time>
      </trkpt>
      <trkpt lat="47.18257" lon="-2.14864">
        <ele>30.7</ele>
        <time>2020-06-05T11:48:03Z</time>
      </trkpt>
      <trkpt lat="47.18257" lon="-2.1487">
        <ele>30.7</ele>
        <time>2020-06-05T11:48:04Z</time>
      </trkpt>
      <trkpt lat="47.18257" lon="-2.14874">
        <ele>30.6</ele>
        <time>2020-06-05T11:48:05Z</time>
      </trkpt>
      <trkpt lat="47.18257" lon="-2.1488">
        <ele>30.6</ele>
        <time>2020-06-05T11:48:06Z</time>
      </trkpt>
      <trkpt lat="47.18255" lon="-2.14886">
        <ele>30.6</ele>
        <time>2020-06-05T11:48:07Z</time>
      </trkpt>
      <trkpt lat="47.18254" lon="-2.14891">
        <ele>30.5</ele>
        <time>2020-06-05T11:48:08Z</time>
      </trkpt>
      <trkpt lat="47.18253" lon="-2.14898">
        <ele>30.5</ele>
        <time>2020-06-05T11:48:09Z</time>
      </trkpt>
      <trkpt lat="47.18252" lon="-2.14904">
        <ele>30.4</ele>
        <time>2020-06-05T11:48:10Z</time>
      </trkpt>
      <trkpt lat="47.1825" lon="-2.14911">
        <ele>30.4</ele>
        <time>2020-06-05T11:48:11Z</time>
      </trkpt>
      <trkpt lat="47.1825" lon="-2.14918">
        <ele>30.4</ele>
        <time>2020-06-05T11:48:12Z</time>
      </trkpt>
      <trkpt lat="47.18249" lon="-2.14925">
        <ele>30.3</ele>
        <time>2020-06-05T11:48:13Z</time>
      </trkpt>
      <trkpt lat="47.18248" lon="-2.14932">
        <ele>30.3</ele>
        <time>2020-06-05T11:48:14Z</time>
      </trkpt>
      <trkpt lat="47.18247" lon="-2.14938">
        <ele>30.2</ele>
        <time>2020-06-05T11:48:15Z</time>
      </trkpt>
      <trkpt lat="47.18246" lon="-2.14944">
        <ele>30.2</ele>
        <time>2020-06-05T11:48:16Z</time>
      </trkpt>
      <trkpt lat="47.18244" lon="-2.1495">
        <ele>30.2</ele>
        <time>2020-06-05T11:48:17Z</time>
      </trkpt>
      <trkpt lat="47.18243" lon="-2.14956">
        <ele>30.1</ele>
        <time>2020-06-05T11:48:18Z</time>
      </trkpt>
      <trkpt lat="47.18241" lon="-2.14961">
        <ele>30.1</ele>
        <time>2020-06-05T11:48:19Z</time>
      </trkpt>
      <trkpt lat="47.1824" lon="-2.14967">
        <ele>30</ele>
        <time>2020-06-05T11:48:20Z</time>
      </trkpt>
      <trkpt lat="47.18239" lon="-2.14973">
        <ele>30</ele>
        <time>2020-06-05T11:48:21Z</time>
      </trkpt>
      <trkpt lat="47.18238" lon="-2.1498">
        <ele>29.9</ele>
        <time>2020-06-05T11:48:22Z</time>
      </trkpt>
      <trkpt lat="47.18236" lon="-2.14986">
        <ele>29.9</ele>
        <time>2020-06-05T11:48:23Z</time>
      </trkpt>
      <trkpt lat="47.18236" lon="-2.14993">
        <ele>29.8</ele>
        <time>2020-06-05T11:48:24Z</time>
      </trkpt>
      <trkpt lat="47.18235" lon="-2.15001">
        <ele>29.8</ele>
        <time>2020-06-05T11:48:25Z</time>
      </trkpt>
      <trkpt lat="47.18234" lon="-2.15008">
        <ele>29.7</ele>
        <time>2020-06-05T11:48:26Z</time>
      </trkpt>
      <trkpt lat="47.18233" lon="-2.15013">
        <ele>29.7</ele>
        <time>2020-06-05T11:48:27Z</time>
      </trkpt>
      <trkpt lat="47.18232" lon="-2.15019">
        <ele>29.7</ele>
        <time>2020-06-05T11:48:28Z</time>
      </trkpt>
      <trkpt lat="47.18231" lon="-2.15025">
        <ele>29.7</ele>
        <time>2020-06-05T11:48:29Z</time>
      </trkpt>
      <trkpt lat="47.18231" lon="-2.15032">
        <ele>29.5</ele>
        <time>2020-06-05T11:48:30Z</time>
      </trkpt>
      <trkpt lat="47.18232" lon="-2.15037">
        <ele>29.4</ele>
        <time>2020-06-05T11:48:31Z</time>
      </trkpt>
      <trkpt lat="47.18235" lon="-2.15041">
        <ele>29.3</ele>
        <time>2020-06-05T11:48:32Z</time>
      </trkpt>
      <trkpt lat="47.18239" lon="-2.15045">
        <ele>29</ele>
        <time>2020-06-05T11:48:33Z</time>
      </trkpt>
      <trkpt lat="47.18243" lon="-2.15047">
        <ele>28.9</ele>
        <time>2020-06-05T11:48:34Z</time>
      </trkpt>
      <trkpt lat="47.18247" lon="-2.1505">
        <ele>28.7</ele>
        <time>2020-06-05T11:48:35Z</time>
      </trkpt>
      <trkpt lat="47.18252" lon="-2.15053">
        <ele>28.5</ele>
        <time>2020-06-05T11:48:36Z</time>
      </trkpt>
      <trkpt lat="47.18256" lon="-2.15057">
        <ele>28.4</ele>
        <time>2020-06-05T11:48:37Z</time>
      </trkpt>
      <trkpt lat="47.18261" lon="-2.15058">
        <ele>28.2</ele>
        <time>2020-06-05T11:48:38Z</time>
      </trkpt>
      <trkpt lat="47.18265" lon="-2.15061">
        <ele>28.1</ele>
        <time>2020-06-05T11:48:39Z</time>
      </trkpt>
      <trkpt lat="47.1827" lon="-2.15064">
        <ele>28</ele>
        <time>2020-06-05T11:48:40Z</time>
      </trkpt>
      <trkpt lat="47.18274" lon="-2.15067">
        <ele>27.9</ele>
        <time>2020-06-05T11:48:41Z</time>
      </trkpt>
      <trkpt lat="47.18279" lon="-2.1507">
        <ele>27.8</ele>
        <time>2020-06-05T11:48:42Z</time>
      </trkpt>
      <trkpt lat="47.18283" lon="-2.15072">
        <ele>27.7</ele>
        <time>2020-06-05T11:48:43Z</time>
      </trkpt>
      <trkpt lat="47.18288" lon="-2.15071">
        <ele>27.7</ele>
        <time>2020-06-05T11:48:44Z</time>
      </trkpt>
      <trkpt lat="47.18293" lon="-2.1507">
        <ele>27.6</ele>
        <time>2020-06-05T11:48:45Z</time>
      </trkpt>
      <trkpt lat="47.18298" lon="-2.15067">
        <ele>27.5</ele>
        <time>2020-06-05T11:48:46Z</time>
      </trkpt>
      <trkpt lat="47.18303" lon="-2.15063">
        <ele>27.4</ele>
        <time>2020-06-05T11:48:47Z</time>
      </trkpt>
      <trkpt lat="47.18307" lon="-2.15059">
        <ele>27.3</ele>
        <time>2020-06-05T11:48:48Z</time>
      </trkpt>
      <trkpt lat="47.18312" lon="-2.15055">
        <ele>27.3</ele>
        <time>2020-06-05T11:48:49Z</time>
      </trkpt>
      <trkpt lat="47.18316" lon="-2.15052">
        <ele>27.3</ele>
        <time>2020-06-05T11:48:50Z</time>
      </trkpt>
      <trkpt lat="47.1832" lon="-2.15049">
        <ele>27.2</ele>
        <time>2020-06-05T11:48:51Z</time>
      </trkpt>
      <trkpt lat="47.18324" lon="-2.15047">
        <ele>27.2</ele>
        <time>2020-06-05T11:48:52Z</time>
      </trkpt>
      <trkpt lat="47.18328" lon="-2.15045">
        <ele>27.2</ele>
        <time>2020-06-05T11:48:53Z</time>
      </trkpt>
      <trkpt lat="47.18332" lon="-2.15043">
        <ele>27.2</ele>
        <time>2020-06-05T11:48:54Z</time>
      </trkpt>
      <trkpt lat="47.18336" lon="-2.1504">
        <ele>27.2</ele>
        <time>2020-06-05T11:48:55Z</time>
      </trkpt>
      <trkpt lat="47.18341" lon="-2.15037">
        <ele>27.1</ele>
        <time>2020-06-05T11:48:56Z</time>
      </trkpt>
      <trkpt lat="47.18345" lon="-2.15035">
        <ele>27.1</ele>
        <time>2020-06-05T11:48:57Z</time>
      </trkpt>
      <trkpt lat="47.18349" lon="-2.15032">
        <ele>27.1</ele>
        <time>2020-06-05T11:48:58Z</time>
      </trkpt>
      <trkpt lat="47.18354" lon="-2.15029">
        <ele>27.1</ele>
        <time>2020-06-05T11:48:59Z</time>
      </trkpt>
      <trkpt lat="47.18358" lon="-2.15026">
        <ele>27</ele>
        <time>2020-06-05T11:49:00Z</time>
      </trkpt>
      <trkpt lat="47.18363" lon="-2.15023">
        <ele>27</ele>
        <time>2020-06-05T11:49:01Z</time>
      </trkpt>
      <trkpt lat="47.18368" lon="-2.15021">
        <ele>26.9</ele>
        <time>2020-06-05T11:49:02Z</time>
      </trkpt>
      <trkpt lat="47.18374" lon="-2.15019">
        <ele>26.8</ele>
        <time>2020-06-05T11:49:03Z</time>
      </trkpt>
      <trkpt lat="47.18378" lon="-2.15018">
        <ele>26.8</ele>
        <time>2020-06-05T11:49:04Z</time>
      </trkpt>
      <trkpt lat="47.18383" lon="-2.15016">
        <ele>26.7</ele>
        <time>2020-06-05T11:49:05Z</time>
      </trkpt>
      <trkpt lat="47.18389" lon="-2.15014">
        <ele>26.6</ele>
        <time>2020-06-05T11:49:06Z</time>
      </trkpt>
      <trkpt lat="47.18394" lon="-2.15011">
        <ele>26.5</ele>
        <time>2020-06-05T11:49:07Z</time>
      </trkpt>
      <trkpt lat="47.184" lon="-2.15009">
        <ele>26.4</ele>
        <time>2020-06-05T11:49:08Z</time>
      </trkpt>
      <trkpt lat="47.18405" lon="-2.15006">
        <ele>26.3</ele>
        <time>2020-06-05T11:49:09Z</time>
      </trkpt>
      <trkpt lat="47.18411" lon="-2.15004">
        <ele>26.2</ele>
        <time>2020-06-05T11:49:10Z</time>
      </trkpt>
      <trkpt lat="47.18416" lon="-2.15002">
        <ele>26.2</ele>
        <time>2020-06-05T11:49:11Z</time>
      </trkpt>
      <trkpt lat="47.1842" lon="-2.14999">
        <ele>26.2</ele>
        <time>2020-06-05T11:49:12Z</time>
      </trkpt>
      <trkpt lat="47.18425" lon="-2.14996">
        <ele>26.2</ele>
        <time>2020-06-05T11:49:13Z</time>
      </trkpt>
      <trkpt lat="47.1843" lon="-2.14993">
        <ele>26.1</ele>
        <time>2020-06-05T11:49:14Z</time>
      </trkpt>
      <trkpt lat="47.18434" lon="-2.1499">
        <ele>26</ele>
        <time>2020-06-05T11:49:15Z</time>
      </trkpt>
      <trkpt lat="47.18439" lon="-2.14987">
        <ele>25.9</ele>
        <time>2020-06-05T11:49:16Z</time>
      </trkpt>
      <trkpt lat="47.18444" lon="-2.14982">
        <ele>25.8</ele>
        <time>2020-06-05T11:49:17Z</time>
      </trkpt>
      <trkpt lat="47.18449" lon="-2.14979">
        <ele>25.7</ele>
        <time>2020-06-05T11:49:18Z</time>
      </trkpt>
      <trkpt lat="47.18454" lon="-2.14975">
        <ele>25.6</ele>
        <time>2020-06-05T11:49:19Z</time>
      </trkpt>
      <trkpt lat="47.18458" lon="-2.14972">
        <ele>25.6</ele>
        <time>2020-06-05T11:49:20Z</time>
      </trkpt>
      <trkpt lat="47.18462" lon="-2.14969">
        <ele>25.5</ele>
        <time>2020-06-05T11:49:21Z</time>
      </trkpt>
      <trkpt lat="47.18466" lon="-2.14967">
        <ele>25.5</ele>
        <time>2020-06-05T11:49:22Z</time>
      </trkpt>
      <trkpt lat="47.18472" lon="-2.14964">
        <ele>25.4</ele>
        <time>2020-06-05T11:49:23Z</time>
      </trkpt>
      <trkpt lat="47.18477" lon="-2.14961">
        <ele>25.4</ele>
        <time>2020-06-05T11:49:24Z</time>
      </trkpt>
      <trkpt lat="47.18482" lon="-2.14957">
        <ele>25.4</ele>
        <time>2020-06-05T11:49:25Z</time>
      </trkpt>
      <trkpt lat="47.18488" lon="-2.14955">
        <ele>25.4</ele>
        <time>2020-06-05T11:49:26Z</time>
      </trkpt>
      <trkpt lat="47.18493" lon="-2.14953">
        <ele>25.4</ele>
        <time>2020-06-05T11:49:27Z</time>
      </trkpt>
      <trkpt lat="47.18498" lon="-2.14951">
        <ele>25.5</ele>
        <time>2020-06-05T11:49:28Z</time>
      </trkpt>
      <trkpt lat="47.18502" lon="-2.1495">
        <ele>25.5</ele>
        <time>2020-06-05T11:49:29Z</time>
      </trkpt>
      <trkpt lat="47.18507" lon="-2.14949">
        <ele>25.5</ele>
        <time>2020-06-05T11:49:30Z</time>
      </trkpt>
      <trkpt lat="47.18512" lon="-2.14947">
        <ele>25.5</ele>
        <time>2020-06-05T11:49:31Z</time>
      </trkpt>
      <trkpt lat="47.18517" lon="-2.14946">
        <ele>25.5</ele>
        <time>2020-06-05T11:49:32Z</time>
      </trkpt>
      <trkpt lat="47.1852" lon="-2.14945">
        <ele>25.6</ele>
        <time>2020-06-05T11:49:33Z</time>
      </trkpt>
      <trkpt lat="47.18523" lon="-2.14944">
        <ele>25.6</ele>
        <time>2020-06-05T11:49:34Z</time>
      </trkpt>
      <trkpt lat="47.18526" lon="-2.14941">
        <ele>25.6</ele>
        <time>2020-06-05T11:49:35Z</time>
      </trkpt>
      <trkpt lat="47.18528" lon="-2.14939">
        <ele>25.6</ele>
        <time>2020-06-05T11:49:36Z</time>
      </trkpt>
      <trkpt lat="47.18531" lon="-2.14938">
        <ele>25.6</ele>
        <time>2020-06-05T11:49:37Z</time>
      </trkpt>
      <trkpt lat="47.18534" lon="-2.14937">
        <ele>25.7</ele>
        <time>2020-06-05T11:49:38Z</time>
      </trkpt>
      <trkpt lat="47.18538" lon="-2.14934">
        <ele>25.7</ele>
        <time>2020-06-05T11:49:39Z</time>
      </trkpt>
      <trkpt lat="47.18539" lon="-2.14934">
        <ele>25.7</ele>
        <time>2020-06-05T11:49:40Z</time>
      </trkpt>
      <trkpt lat="47.18542" lon="-2.14933">
        <ele>25.7</ele>
        <time>2020-06-05T11:49:41Z</time>
      </trkpt>
      <trkpt lat="47.18545" lon="-2.14932">
        <ele>25.7</ele>
        <time>2020-06-05T11:49:42Z</time>
      </trkpt>
      <trkpt lat="47.18549" lon="-2.14932">
        <ele>25.7</ele>
        <time>2020-06-05T11:49:43Z</time>
      </trkpt>
      <trkpt lat="47.18552" lon="-2.14931">
        <ele>25.8</ele>
        <time>2020-06-05T11:49:44Z</time>
      </trkpt>
      <trkpt lat="47.18555" lon="-2.1493">
        <ele>25.8</ele>
        <time>2020-06-05T11:49:45Z</time>
      </trkpt>
      <trkpt lat="47.18559" lon="-2.14929">
        <ele>25.9</ele>
        <time>2020-06-05T11:49:46Z</time>
      </trkpt>
      <trkpt lat="47.18561" lon="-2.14927">
        <ele>25.9</ele>
        <time>2020-06-05T11:49:47Z</time>
      </trkpt>
      <trkpt lat="47.18565" lon="-2.14926">
        <ele>26</ele>
        <time>2020-06-05T11:49:48Z</time>
      </trkpt>
      <trkpt lat="47.18569" lon="-2.14925">
        <ele>26.1</ele>
        <time>2020-06-05T11:49:49Z</time>
      </trkpt>
      <trkpt lat="47.18572" lon="-2.14924">
        <ele>26.1</ele>
        <time>2020-06-05T11:49:50Z</time>
      </trkpt>
      <trkpt lat="47.18576" lon="-2.14924">
        <ele>26.2</ele>
        <time>2020-06-05T11:49:51Z</time>
      </trkpt>
      <trkpt lat="47.18579" lon="-2.14924">
        <ele>26.3</ele>
        <time>2020-06-05T11:49:52Z</time>
      </trkpt>
      <trkpt lat="47.18583" lon="-2.14924">
        <ele>26.4</ele>
        <time>2020-06-05T11:49:53Z</time>
      </trkpt>
      <trkpt lat="47.18586" lon="-2.14925">
        <ele>26.5</ele>
        <time>2020-06-05T11:49:54Z</time>
      </trkpt>
      <trkpt lat="47.18589" lon="-2.14925">
        <ele>26.5</ele>
        <time>2020-06-05T11:49:55Z</time>
      </trkpt>
      <trkpt lat="47.18592" lon="-2.14924">
        <ele>26.6</ele>
        <time>2020-06-05T11:49:56Z</time>
      </trkpt>
      <trkpt lat="47.18593" lon="-2.14924">
        <ele>26.6</ele>
        <time>2020-06-05T11:49:57Z</time>
      </trkpt>
      <trkpt lat="47.18596" lon="-2.14924">
        <ele>26.7</ele>
        <time>2020-06-05T11:49:58Z</time>
      </trkpt>
      <trkpt lat="47.18599" lon="-2.14924">
        <ele>26.7</ele>
        <time>2020-06-05T11:49:59Z</time>
      </trkpt>
      <trkpt lat="47.18602" lon="-2.14924">
        <ele>26.7</ele>
        <time>2020-06-05T11:50:00Z</time>
      </trkpt>
      <trkpt lat="47.18605" lon="-2.14925">
        <ele>26.8</ele>
        <time>2020-06-05T11:50:01Z</time>
      </trkpt>
      <trkpt lat="47.18606" lon="-2.14924">
        <ele>26.8</ele>
        <time>2020-06-05T11:50:02Z</time>
      </trkpt>
      <trkpt lat="47.1861" lon="-2.14922">
        <ele>26.8</ele>
        <time>2020-06-05T11:50:03Z</time>
      </trkpt>
      <trkpt lat="47.18611" lon="-2.14922">
        <ele>26.8</ele>
        <time>2020-06-05T11:50:04Z</time>
      </trkpt>
      <trkpt lat="47.18615" lon="-2.14921">
        <ele>26.9</ele>
        <time>2020-06-05T11:50:05Z</time>
      </trkpt>
      <trkpt lat="47.18617" lon="-2.14921">
        <ele>26.9</ele>
        <time>2020-06-05T11:50:06Z</time>
      </trkpt>
      <trkpt lat="47.18621" lon="-2.1492">
        <ele>26.9</ele>
        <time>2020-06-05T11:50:07Z</time>
      </trkpt>
      <trkpt lat="47.18622" lon="-2.14919">
        <ele>26.9</ele>
        <time>2020-06-05T11:50:08Z</time>
      </trkpt>
      <trkpt lat="47.18627" lon="-2.14919">
        <ele>27</ele>
        <time>2020-06-05T11:50:09Z</time>
      </trkpt>
      <trkpt lat="47.18631" lon="-2.14919">
        <ele>27</ele>
        <time>2020-06-05T11:50:10Z</time>
      </trkpt>
      <trkpt lat="47.18635" lon="-2.14918">
        <ele>27.1</ele>
        <time>2020-06-05T11:50:11Z</time>
      </trkpt>
      <trkpt lat="47.18638" lon="-2.14918">
        <ele>27.1</ele>
        <time>2020-06-05T11:50:12Z</time>
      </trkpt>
      <trkpt lat="47.18641" lon="-2.14917">
        <ele>27.2</ele>
        <time>2020-06-05T11:50:13Z</time>
      </trkpt>
      <trkpt lat="47.18644" lon="-2.14916">
        <ele>27.2</ele>
        <time>2020-06-05T11:50:14Z</time>
      </trkpt>
      <trkpt lat="47.18648" lon="-2.14915">
        <ele>27.2</ele>
        <time>2020-06-05T11:50:15Z</time>
      </trkpt>
      <trkpt lat="47.18652" lon="-2.14914">
        <ele>27.2</ele>
        <time>2020-06-05T11:50:16Z</time>
      </trkpt>
      <trkpt lat="47.18657" lon="-2.14912">
        <ele>27.3</ele>
        <time>2020-06-05T11:50:17Z</time>
      </trkpt>
      <trkpt lat="47.1866" lon="-2.1491">
        <ele>27.3</ele>
        <time>2020-06-05T11:50:18Z</time>
      </trkpt>
      <trkpt lat="47.18663" lon="-2.14909">
        <ele>27.3</ele>
        <time>2020-06-05T11:50:19Z</time>
      </trkpt>
      <trkpt lat="47.18667" lon="-2.1491">
        <ele>27.4</ele>
        <time>2020-06-05T11:50:20Z</time>
      </trkpt>
      <trkpt lat="47.18668" lon="-2.14909">
        <ele>27.4</ele>
        <time>2020-06-05T11:50:21Z</time>
      </trkpt>
      <trkpt lat="47.18672" lon="-2.14907">
        <ele>27.4</ele>
        <time>2020-06-05T11:50:22Z</time>
      </trkpt>
      <trkpt lat="47.18673" lon="-2.14907">
        <ele>27.4</ele>
        <time>2020-06-05T11:50:23Z</time>
      </trkpt>
      <trkpt lat="47.18676" lon="-2.14903">
        <ele>27.4</ele>
        <time>2020-06-05T11:50:24Z</time>
      </trkpt>
      <trkpt lat="47.18677" lon="-2.14901">
        <ele>27.4</ele>
        <time>2020-06-05T11:50:25Z</time>
      </trkpt>
      <trkpt lat="47.18681" lon="-2.14899">
        <ele>27.4</ele>
        <time>2020-06-05T11:50:26Z</time>
      </trkpt>
      <trkpt lat="47.18682" lon="-2.14898">
        <ele>27.4</ele>
        <time>2020-06-05T11:50:27Z</time>
      </trkpt>
      <trkpt lat="47.18686" lon="-2.14898">
        <ele>27.4</ele>
        <time>2020-06-05T11:50:28Z</time>
      </trkpt>
      <trkpt lat="47.18688" lon="-2.14897">
        <ele>27.4</ele>
        <time>2020-06-05T11:50:29Z</time>
      </trkpt>
      <trkpt lat="47.18691" lon="-2.14895">
        <ele>27.4</ele>
        <time>2020-06-05T11:50:30Z</time>
      </trkpt>
      <trkpt lat="47.18694" lon="-2.14894">
        <ele>27.4</ele>
        <time>2020-06-05T11:50:31Z</time>
      </trkpt>
      <trkpt lat="47.18698" lon="-2.14894">
        <ele>27.4</ele>
        <time>2020-06-05T11:50:32Z</time>
      </trkpt>
      <trkpt lat="47.18702" lon="-2.14893">
        <ele>27.4</ele>
        <time>2020-06-05T11:50:33Z</time>
      </trkpt>
      <trkpt lat="47.18707" lon="-2.14891">
        <ele>27.4</ele>
        <time>2020-06-05T11:50:34Z</time>
      </trkpt>
      <trkpt lat="47.18712" lon="-2.1489">
        <ele>27.4</ele>
        <time>2020-06-05T11:50:35Z</time>
      </trkpt>
      <trkpt lat="47.18718" lon="-2.14888">
        <ele>27.4</ele>
        <time>2020-06-05T11:50:36Z</time>
      </trkpt>
      <trkpt lat="47.18722" lon="-2.14887">
        <ele>27.4</ele>
        <time>2020-06-05T11:50:37Z</time>
      </trkpt>
      <trkpt lat="47.18727" lon="-2.14886">
        <ele>27.4</ele>
        <time>2020-06-05T11:50:38Z</time>
      </trkpt>
      <trkpt lat="47.18731" lon="-2.14885">
        <ele>27.4</ele>
        <time>2020-06-05T11:50:39Z</time>
      </trkpt>
      <trkpt lat="47.18735" lon="-2.14884">
        <ele>27.4</ele>
        <time>2020-06-05T11:50:40Z</time>
      </trkpt>
      <trkpt lat="47.18741" lon="-2.14883">
        <ele>27.5</ele>
        <time>2020-06-05T11:50:41Z</time>
      </trkpt>
      <trkpt lat="47.18746" lon="-2.14883">
        <ele>27.5</ele>
        <time>2020-06-05T11:50:42Z</time>
      </trkpt>
      <trkpt lat="47.1875" lon="-2.14882">
        <ele>27.5</ele>
        <time>2020-06-05T11:50:43Z</time>
      </trkpt>
      <trkpt lat="47.18755" lon="-2.14881">
        <ele>27.5</ele>
        <time>2020-06-05T11:50:44Z</time>
      </trkpt>
      <trkpt lat="47.18759" lon="-2.14881">
        <ele>27.5</ele>
        <time>2020-06-05T11:50:45Z</time>
      </trkpt>
      <trkpt lat="47.18765" lon="-2.14879">
        <ele>27.6</ele>
        <time>2020-06-05T11:50:46Z</time>
      </trkpt>
      <trkpt lat="47.1877" lon="-2.14877">
        <ele>27.6</ele>
        <time>2020-06-05T11:50:47Z</time>
      </trkpt>
      <trkpt lat="47.18775" lon="-2.14877">
        <ele>27.7</ele>
        <time>2020-06-05T11:50:48Z</time>
      </trkpt>
      <trkpt lat="47.18779" lon="-2.14877">
        <ele>27.8</ele>
        <time>2020-06-05T11:50:49Z</time>
      </trkpt>
      <trkpt lat="47.18783" lon="-2.14875">
        <ele>27.9</ele>
        <time>2020-06-05T11:50:50Z</time>
      </trkpt>
      <trkpt lat="47.18786" lon="-2.14873">
        <ele>28</ele>
        <time>2020-06-05T11:50:51Z</time>
      </trkpt>
      <trkpt lat="47.1879" lon="-2.14872">
        <ele>28.1</ele>
        <time>2020-06-05T11:50:52Z</time>
      </trkpt>
      <trkpt lat="47.18792" lon="-2.1487">
        <ele>28.2</ele>
        <time>2020-06-05T11:50:53Z</time>
      </trkpt>
      <trkpt lat="47.18795" lon="-2.14869">
        <ele>28.3</ele>
        <time>2020-06-05T11:50:54Z</time>
      </trkpt>
      <trkpt lat="47.18798" lon="-2.14868">
        <ele>28.3</ele>
        <time>2020-06-05T11:50:55Z</time>
      </trkpt>
      <trkpt lat="47.18801" lon="-2.14867">
        <ele>28.4</ele>
        <time>2020-06-05T11:50:56Z</time>
      </trkpt>
      <trkpt lat="47.18804" lon="-2.14865">
        <ele>28.4</ele>
        <time>2020-06-05T11:50:57Z</time>
      </trkpt>
      <trkpt lat="47.18805" lon="-2.14865">
        <ele>28.4</ele>
        <time>2020-06-05T11:50:58Z</time>
      </trkpt>
      <trkpt lat="47.18807" lon="-2.14864">
        <ele>28.4</ele>
        <time>2020-06-05T11:50:59Z</time>
      </trkpt>
      <trkpt lat="47.18808" lon="-2.14866">
        <ele>28.4</ele>
        <time>2020-06-05T11:51:00Z</time>
      </trkpt>
      <trkpt lat="47.18811" lon="-2.14864">
        <ele>28.5</ele>
        <time>2020-06-05T11:51:01Z</time>
      </trkpt>
      <trkpt lat="47.18814" lon="-2.14863">
        <ele>28.5</ele>
        <time>2020-06-05T11:51:02Z</time>
      </trkpt>
      <trkpt lat="47.18815" lon="-2.14862">
        <ele>28.6</ele>
        <time>2020-06-05T11:51:03Z</time>
      </trkpt>
      <trkpt lat="47.18819" lon="-2.14859">
        <ele>28.6</ele>
        <time>2020-06-05T11:51:04Z</time>
      </trkpt>
      <trkpt lat="47.1882" lon="-2.14858">
        <ele>28.7</ele>
        <time>2020-06-05T11:51:05Z</time>
      </trkpt>
      <trkpt lat="47.18823" lon="-2.14856">
        <ele>28.7</ele>
        <time>2020-06-05T11:51:06Z</time>
      </trkpt>
      <trkpt lat="47.18826" lon="-2.14853">
        <ele>28.8</ele>
        <time>2020-06-05T11:51:07Z</time>
      </trkpt>
      <trkpt lat="47.18828" lon="-2.14852">
        <ele>28.8</ele>
        <time>2020-06-05T11:51:08Z</time>
      </trkpt>
      <trkpt lat="47.18831" lon="-2.14849">
        <ele>28.9</ele>
        <time>2020-06-05T11:51:09Z</time>
      </trkpt>
      <trkpt lat="47.18832" lon="-2.14849">
        <ele>28.9</ele>
        <time>2020-06-05T11:51:10Z</time>
      </trkpt>
      <trkpt lat="47.18836" lon="-2.14847">
        <ele>28.9</ele>
        <time>2020-06-05T11:51:11Z</time>
      </trkpt>
      <trkpt lat="47.18837" lon="-2.14846">
        <ele>28.9</ele>
        <time>2020-06-05T11:51:12Z</time>
      </trkpt>
      <trkpt lat="47.18841" lon="-2.14845">
        <ele>29</ele>
        <time>2020-06-05T11:51:13Z</time>
      </trkpt>
      <trkpt lat="47.18843" lon="-2.14844">
        <ele>29</ele>
        <time>2020-06-05T11:51:14Z</time>
      </trkpt>
      <trkpt lat="47.18846" lon="-2.14844">
        <ele>29</ele>
        <time>2020-06-05T11:51:15Z</time>
      </trkpt>
      <trkpt lat="47.18847" lon="-2.14845">
        <ele>29</ele>
        <time>2020-06-05T11:51:16Z</time>
      </trkpt>
      <trkpt lat="47.1885" lon="-2.14848">
        <ele>29</ele>
        <time>2020-06-05T11:51:17Z</time>
      </trkpt>
      <trkpt lat="47.1885" lon="-2.14849">
        <ele>29</ele>
        <time>2020-06-05T11:51:18Z</time>
      </trkpt>
      <trkpt lat="47.18851" lon="-2.14851">
        <ele>29</ele>
        <time>2020-06-05T11:51:19Z</time>
      </trkpt>
      <trkpt lat="47.18852" lon="-2.14853">
        <ele>29</ele>
        <time>2020-06-05T11:51:20Z</time>
      </trkpt>
      <trkpt lat="47.18853" lon="-2.14857">
        <ele>29</ele>
        <time>2020-06-05T11:51:21Z</time>
      </trkpt>
      <trkpt lat="47.18854" lon="-2.14858">
        <ele>29</ele>
        <time>2020-06-05T11:51:22Z</time>
      </trkpt>
      <trkpt lat="47.18854" lon="-2.14862">
        <ele>29</ele>
        <time>2020-06-05T11:51:23Z</time>
      </trkpt>
      <trkpt lat="47.18855" lon="-2.14864">
        <ele>29</ele>
        <time>2020-06-05T11:51:24Z</time>
      </trkpt>
      <trkpt lat="47.18856" lon="-2.14867">
        <ele>29</ele>
        <time>2020-06-05T11:51:25Z</time>
      </trkpt>
      <trkpt lat="47.18856" lon="-2.14869">
        <ele>29</ele>
        <time>2020-06-05T11:51:26Z</time>
      </trkpt>
      <trkpt lat="47.18857" lon="-2.14873">
        <ele>29</ele>
        <time>2020-06-05T11:51:27Z</time>
      </trkpt>
      <trkpt lat="47.18857" lon="-2.14877">
        <ele>29</ele>
        <time>2020-06-05T11:51:28Z</time>
      </trkpt>
      <trkpt lat="47.18858" lon="-2.14882">
        <ele>29.1</ele>
        <time>2020-06-05T11:51:29Z</time>
      </trkpt>
      <trkpt lat="47.18858" lon="-2.14883">
        <ele>29.1</ele>
        <time>2020-06-05T11:51:30Z</time>
      </trkpt>
      <trkpt lat="47.1886" lon="-2.14887">
        <ele>29.1</ele>
        <time>2020-06-05T11:51:31Z</time>
      </trkpt>
      <trkpt lat="47.18861" lon="-2.14889">
        <ele>29.1</ele>
        <time>2020-06-05T11:51:32Z</time>
      </trkpt>
      <trkpt lat="47.18862" lon="-2.14893">
        <ele>29.2</ele>
        <time>2020-06-05T11:51:33Z</time>
      </trkpt>
      <trkpt lat="47.18864" lon="-2.14897">
        <ele>29.2</ele>
        <time>2020-06-05T11:51:34Z</time>
      </trkpt>
      <trkpt lat="47.18865" lon="-2.14902">
        <ele>29.3</ele>
        <time>2020-06-05T11:51:35Z</time>
      </trkpt>
      <trkpt lat="47.18867" lon="-2.14908">
        <ele>29.3</ele>
        <time>2020-06-05T11:51:36Z</time>
      </trkpt>
      <trkpt lat="47.18869" lon="-2.14914">
        <ele>29.4</ele>
        <time>2020-06-05T11:51:37Z</time>
      </trkpt>
      <trkpt lat="47.18871" lon="-2.14918">
        <ele>29.4</ele>
        <time>2020-06-05T11:51:38Z</time>
      </trkpt>
      <trkpt lat="47.18872" lon="-2.14925">
        <ele>29.5</ele>
        <time>2020-06-05T11:51:39Z</time>
      </trkpt>
      <trkpt lat="47.18873" lon="-2.14931">
        <ele>29.6</ele>
        <time>2020-06-05T11:51:40Z</time>
      </trkpt>
      <trkpt lat="47.18874" lon="-2.14937">
        <ele>29.7</ele>
        <time>2020-06-05T11:51:41Z</time>
      </trkpt>
      <trkpt lat="47.18875" lon="-2.14943">
        <ele>29.8</ele>
        <time>2020-06-05T11:51:42Z</time>
      </trkpt>
      <trkpt lat="47.18875" lon="-2.14949">
        <ele>30.1</ele>
        <time>2020-06-05T11:51:43Z</time>
      </trkpt>
      <trkpt lat="47.18877" lon="-2.14954">
        <ele>30.1</ele>
        <time>2020-06-05T11:51:44Z</time>
      </trkpt>
      <trkpt lat="47.18878" lon="-2.14956">
        <ele>30.1</ele>
        <time>2020-06-05T11:51:45Z</time>
      </trkpt>
      <trkpt lat="47.18879" lon="-2.14958">
        <ele>30.1</ele>
        <time>2020-06-05T11:51:46Z</time>
      </trkpt>
      <trkpt lat="47.1888" lon="-2.14958">
        <ele>30.1</ele>
        <time>2020-06-05T11:51:47Z</time>
      </trkpt>
      <trkpt lat="47.18882" lon="-2.14955">
        <ele>30.1</ele>
        <time>2020-06-05T11:51:48Z</time>
      </trkpt>
      <trkpt lat="47.18884" lon="-2.14951">
        <ele>30.1</ele>
        <time>2020-06-05T11:51:49Z</time>
      </trkpt>
      <trkpt lat="47.18885" lon="-2.1495">
        <ele>30.1</ele>
        <time>2020-06-05T11:51:50Z</time>
      </trkpt>
      <trkpt lat="47.18888" lon="-2.14946">
        <ele>30.1</ele>
        <time>2020-06-05T11:51:51Z</time>
      </trkpt>
      <trkpt lat="47.18889" lon="-2.14944">
        <ele>30.1</ele>
        <time>2020-06-05T11:51:52Z</time>
      </trkpt>
      <trkpt lat="47.18891" lon="-2.14942">
        <ele>30.2</ele>
        <time>2020-06-05T11:51:53Z</time>
      </trkpt>
      <trkpt lat="47.18891" lon="-2.14941">
        <ele>30.2</ele>
        <time>2020-06-05T11:51:54Z</time>
      </trkpt>
      <trkpt lat="47.18895" lon="-2.14938">
        <ele>30.2</ele>
        <time>2020-06-05T11:51:55Z</time>
      </trkpt>
      <trkpt lat="47.18896" lon="-2.14938">
        <ele>30.2</ele>
        <time>2020-06-05T11:51:56Z</time>
      </trkpt>
      <trkpt lat="47.18899" lon="-2.14936">
        <ele>30.2</ele>
        <time>2020-06-05T11:51:57Z</time>
      </trkpt>
      <trkpt lat="47.189" lon="-2.14935">
        <ele>30.3</ele>
        <time>2020-06-05T11:51:58Z</time>
      </trkpt>
      <trkpt lat="47.18903" lon="-2.14933">
        <ele>30.3</ele>
        <time>2020-06-05T11:51:59Z</time>
      </trkpt>
      <trkpt lat="47.18906" lon="-2.14932">
        <ele>30.3</ele>
        <time>2020-06-05T11:52:00Z</time>
      </trkpt>
      <trkpt lat="47.1891" lon="-2.14929">
        <ele>30.4</ele>
        <time>2020-06-05T11:52:01Z</time>
      </trkpt>
      <trkpt lat="47.18911" lon="-2.14928">
        <ele>30.4</ele>
        <time>2020-06-05T11:52:02Z</time>
      </trkpt>
      <trkpt lat="47.18915" lon="-2.14926">
        <ele>30.5</ele>
        <time>2020-06-05T11:52:03Z</time>
      </trkpt>
      <trkpt lat="47.18918" lon="-2.14922">
        <ele>30.5</ele>
        <time>2020-06-05T11:52:04Z</time>
      </trkpt>
      <trkpt lat="47.18921" lon="-2.1492">
        <ele>30.5</ele>
        <time>2020-06-05T11:52:05Z</time>
      </trkpt>
      <trkpt lat="47.18924" lon="-2.14918">
        <ele>30.6</ele>
        <time>2020-06-05T11:52:06Z</time>
      </trkpt>
      <trkpt lat="47.18927" lon="-2.14915">
        <ele>30.6</ele>
        <time>2020-06-05T11:52:07Z</time>
      </trkpt>
      <trkpt lat="47.1893" lon="-2.14913">
        <ele>30.6</ele>
        <time>2020-06-05T11:52:08Z</time>
      </trkpt>
      <trkpt lat="47.18933" lon="-2.1491">
        <ele>30.6</ele>
        <time>2020-06-05T11:52:09Z</time>
      </trkpt>
      <trkpt lat="47.18937" lon="-2.14908">
        <ele>30.6</ele>
        <time>2020-06-05T11:52:10Z</time>
      </trkpt>
      <trkpt lat="47.1894" lon="-2.14906">
        <ele>30.6</ele>
        <time>2020-06-05T11:52:11Z</time>
      </trkpt>
      <trkpt lat="47.18944" lon="-2.14904">
        <ele>30.6</ele>
        <time>2020-06-05T11:52:12Z</time>
      </trkpt>
      <trkpt lat="47.18949" lon="-2.14901">
        <ele>30.6</ele>
        <time>2020-06-05T11:52:13Z</time>
      </trkpt>
      <trkpt lat="47.18954" lon="-2.14898">
        <ele>30.6</ele>
        <time>2020-06-05T11:52:14Z</time>
      </trkpt>
      <trkpt lat="47.18958" lon="-2.14894">
        <ele>30.6</ele>
        <time>2020-06-05T11:52:15Z</time>
      </trkpt>
      <trkpt lat="47.18963" lon="-2.14891">
        <ele>30.5</ele>
        <time>2020-06-05T11:52:16Z</time>
      </trkpt>
      <trkpt lat="47.18967" lon="-2.14889">
        <ele>30.5</ele>
        <time>2020-06-05T11:52:17Z</time>
      </trkpt>
      <trkpt lat="47.18971" lon="-2.14886">
        <ele>30.5</ele>
        <time>2020-06-05T11:52:18Z</time>
      </trkpt>
      <trkpt lat="47.18976" lon="-2.14883">
        <ele>30.4</ele>
        <time>2020-06-05T11:52:19Z</time>
      </trkpt>
      <trkpt lat="47.1898" lon="-2.1488">
        <ele>30.3</ele>
        <time>2020-06-05T11:52:20Z</time>
      </trkpt>
      <trkpt lat="47.18985" lon="-2.14878">
        <ele>30.3</ele>
        <time>2020-06-05T11:52:21Z</time>
      </trkpt>
      <trkpt lat="47.18989" lon="-2.14875">
        <ele>30.2</ele>
        <time>2020-06-05T11:52:22Z</time>
      </trkpt>
      <trkpt lat="47.18993" lon="-2.14872">
        <ele>30.1</ele>
        <time>2020-06-05T11:52:23Z</time>
      </trkpt>
      <trkpt lat="47.18997" lon="-2.14869">
        <ele>30</ele>
        <time>2020-06-05T11:52:24Z</time>
      </trkpt>
      <trkpt lat="47.19001" lon="-2.14866">
        <ele>29.9</ele>
        <time>2020-06-05T11:52:25Z</time>
      </trkpt>
      <trkpt lat="47.19006" lon="-2.14864">
        <ele>29.7</ele>
        <time>2020-06-05T11:52:26Z</time>
      </trkpt>
      <trkpt lat="47.1901" lon="-2.14862">
        <ele>29.6</ele>
        <time>2020-06-05T11:52:27Z</time>
      </trkpt>
      <trkpt lat="47.19014" lon="-2.1486">
        <ele>29.5</ele>
        <time>2020-06-05T11:52:28Z</time>
      </trkpt>
      <trkpt lat="47.19018" lon="-2.14855">
        <ele>29.4</ele>
        <time>2020-06-05T11:52:29Z</time>
      </trkpt>
      <trkpt lat="47.19022" lon="-2.14854">
        <ele>29.3</ele>
        <time>2020-06-05T11:52:30Z</time>
      </trkpt>
      <trkpt lat="47.19025" lon="-2.14851">
        <ele>29.1</ele>
        <time>2020-06-05T11:52:31Z</time>
      </trkpt>
      <trkpt lat="47.19028" lon="-2.14848">
        <ele>29</ele>
        <time>2020-06-05T11:52:32Z</time>
      </trkpt>
      <trkpt lat="47.19032" lon="-2.14845">
        <ele>28.8</ele>
        <time>2020-06-05T11:52:33Z</time>
      </trkpt>
      <trkpt lat="47.19036" lon="-2.14843">
        <ele>28.7</ele>
        <time>2020-06-05T11:52:34Z</time>
      </trkpt>
      <trkpt lat="47.1904" lon="-2.14839">
        <ele>28.5</ele>
        <time>2020-06-05T11:52:35Z</time>
      </trkpt>
      <trkpt lat="47.19044" lon="-2.14836">
        <ele>28.4</ele>
        <time>2020-06-05T11:52:36Z</time>
      </trkpt>
      <trkpt lat="47.19048" lon="-2.14833">
        <ele>28.2</ele>
        <time>2020-06-05T11:52:37Z</time>
      </trkpt>
      <trkpt lat="47.19053" lon="-2.14828">
        <ele>28</ele>
        <time>2020-06-05T11:52:38Z</time>
      </trkpt>
      <trkpt lat="47.19058" lon="-2.14823">
        <ele>27.8</ele>
        <time>2020-06-05T11:52:39Z</time>
      </trkpt>
      <trkpt lat="47.19063" lon="-2.14819">
        <ele>27.6</ele>
        <time>2020-06-05T11:52:40Z</time>
      </trkpt>
      <trkpt lat="47.19069" lon="-2.14814">
        <ele>27.4</ele>
        <time>2020-06-05T11:52:41Z</time>
      </trkpt>
      <trkpt lat="47.19076" lon="-2.14811">
        <ele>27.1</ele>
        <time>2020-06-05T11:52:42Z</time>
      </trkpt>
      <trkpt lat="47.19084" lon="-2.14809">
        <ele>26.8</ele>
        <time>2020-06-05T11:52:43Z</time>
      </trkpt>
      <trkpt lat="47.19093" lon="-2.14806">
        <ele>26.5</ele>
        <time>2020-06-05T11:52:44Z</time>
      </trkpt>
      <trkpt lat="47.19101" lon="-2.14804">
        <ele>26.3</ele>
        <time>2020-06-05T11:52:45Z</time>
      </trkpt>
      <trkpt lat="47.19108" lon="-2.14801">
        <ele>26.4</ele>
        <time>2020-06-05T11:52:46Z</time>
      </trkpt>
      <trkpt lat="47.19115" lon="-2.14797">
        <ele>26.3</ele>
        <time>2020-06-05T11:52:47Z</time>
      </trkpt>
      <trkpt lat="47.19122" lon="-2.14795">
        <ele>26.3</ele>
        <time>2020-06-05T11:52:48Z</time>
      </trkpt>
      <trkpt lat="47.19128" lon="-2.14793">
        <ele>26.2</ele>
        <time>2020-06-05T11:52:49Z</time>
      </trkpt>
      <trkpt lat="47.19133" lon="-2.14791">
        <ele>26.2</ele>
        <time>2020-06-05T11:52:50Z</time>
      </trkpt>
      <trkpt lat="47.1914" lon="-2.14787">
        <ele>26.1</ele>
        <time>2020-06-05T11:52:51Z</time>
      </trkpt>
      <trkpt lat="47.19145" lon="-2.14785">
        <ele>26.1</ele>
        <time>2020-06-05T11:52:52Z</time>
      </trkpt>
      <trkpt lat="47.19149" lon="-2.14783">
        <ele>26.1</ele>
        <time>2020-06-05T11:52:53Z</time>
      </trkpt>
      <trkpt lat="47.19154" lon="-2.14781">
        <ele>26.1</ele>
        <time>2020-06-05T11:52:54Z</time>
      </trkpt>
      <trkpt lat="47.19159" lon="-2.1478">
        <ele>26.2</ele>
        <time>2020-06-05T11:52:55Z</time>
      </trkpt>
      <trkpt lat="47.19164" lon="-2.14777">
        <ele>26.2</ele>
        <time>2020-06-05T11:52:56Z</time>
      </trkpt>
      <trkpt lat="47.19169" lon="-2.14774">
        <ele>26.3</ele>
        <time>2020-06-05T11:52:57Z</time>
      </trkpt>
      <trkpt lat="47.19174" lon="-2.14773">
        <ele>26.4</ele>
        <time>2020-06-05T11:52:58Z</time>
      </trkpt>
      <trkpt lat="47.19178" lon="-2.1477">
        <ele>26.4</ele>
        <time>2020-06-05T11:52:59Z</time>
      </trkpt>
      <trkpt lat="47.19183" lon="-2.14769">
        <ele>26.5</ele>
        <time>2020-06-05T11:53:00Z</time>
      </trkpt>
      <trkpt lat="47.19188" lon="-2.14768">
        <ele>26.6</ele>
        <time>2020-06-05T11:53:01Z</time>
      </trkpt>
      <trkpt lat="47.19192" lon="-2.14767">
        <ele>26.7</ele>
        <time>2020-06-05T11:53:02Z</time>
      </trkpt>
      <trkpt lat="47.19197" lon="-2.14765">
        <ele>26.8</ele>
        <time>2020-06-05T11:53:03Z</time>
      </trkpt>
      <trkpt lat="47.19202" lon="-2.14763">
        <ele>26.9</ele>
        <time>2020-06-05T11:53:04Z</time>
      </trkpt>
      <trkpt lat="47.19207" lon="-2.14761">
        <ele>27</ele>
        <time>2020-06-05T11:53:05Z</time>
      </trkpt>
      <trkpt lat="47.19212" lon="-2.14759">
        <ele>27.1</ele>
        <time>2020-06-05T11:53:06Z</time>
      </trkpt>
      <trkpt lat="47.19216" lon="-2.14757">
        <ele>27.2</ele>
        <time>2020-06-05T11:53:07Z</time>
      </trkpt>
      <trkpt lat="47.19221" lon="-2.14756">
        <ele>27.3</ele>
        <time>2020-06-05T11:53:08Z</time>
      </trkpt>
      <trkpt lat="47.19225" lon="-2.14755">
        <ele>27.4</ele>
        <time>2020-06-05T11:53:09Z</time>
      </trkpt>
      <trkpt lat="47.1923" lon="-2.14753">
        <ele>27.6</ele>
        <time>2020-06-05T11:53:10Z</time>
      </trkpt>
      <trkpt lat="47.19235" lon="-2.14752">
        <ele>27.7</ele>
        <time>2020-06-05T11:53:11Z</time>
      </trkpt>
      <trkpt lat="47.1924" lon="-2.14751">
        <ele>27.8</ele>
        <time>2020-06-05T11:53:12Z</time>
      </trkpt>
      <trkpt lat="47.19245" lon="-2.1475">
        <ele>27.8</ele>
        <time>2020-06-05T11:53:13Z</time>
      </trkpt>
      <trkpt lat="47.19249" lon="-2.14749">
        <ele>27.9</ele>
        <time>2020-06-05T11:53:14Z</time>
      </trkpt>
      <trkpt lat="47.19254" lon="-2.14749">
        <ele>28.2</ele>
        <time>2020-06-05T11:53:15Z</time>
      </trkpt>
      <trkpt lat="47.19259" lon="-2.14749">
        <ele>28.4</ele>
        <time>2020-06-05T11:53:16Z</time>
      </trkpt>
      <trkpt lat="47.19263" lon="-2.14749">
        <ele>28.5</ele>
        <time>2020-06-05T11:53:17Z</time>
      </trkpt>
      <trkpt lat="47.19266" lon="-2.14748">
        <ele>28.6</ele>
        <time>2020-06-05T11:53:18Z</time>
      </trkpt>
      <trkpt lat="47.1927" lon="-2.14746">
        <ele>28.8</ele>
        <time>2020-06-05T11:53:19Z</time>
      </trkpt>
      <trkpt lat="47.19275" lon="-2.14745">
        <ele>28.9</ele>
        <time>2020-06-05T11:53:20Z</time>
      </trkpt>
      <trkpt lat="47.19279" lon="-2.14744">
        <ele>29.1</ele>
        <time>2020-06-05T11:53:21Z</time>
      </trkpt>
      <trkpt lat="47.19283" lon="-2.14743">
        <ele>29.2</ele>
        <time>2020-06-05T11:53:22Z</time>
      </trkpt>
      <trkpt lat="47.19286" lon="-2.14743">
        <ele>29.4</ele>
        <time>2020-06-05T11:53:23Z</time>
      </trkpt>
      <trkpt lat="47.1929" lon="-2.14742">
        <ele>29.5</ele>
        <time>2020-06-05T11:53:24Z</time>
      </trkpt>
      <trkpt lat="47.19294" lon="-2.14742">
        <ele>29.6</ele>
        <time>2020-06-05T11:53:25Z</time>
      </trkpt>
      <trkpt lat="47.19297" lon="-2.1474">
        <ele>29.7</ele>
        <time>2020-06-05T11:53:26Z</time>
      </trkpt>
      <trkpt lat="47.193" lon="-2.1474">
        <ele>29.9</ele>
        <time>2020-06-05T11:53:27Z</time>
      </trkpt>
      <trkpt lat="47.19303" lon="-2.1474">
        <ele>30</ele>
        <time>2020-06-05T11:53:28Z</time>
      </trkpt>
      <trkpt lat="47.19307" lon="-2.1474">
        <ele>30.1</ele>
        <time>2020-06-05T11:53:29Z</time>
      </trkpt>
      <trkpt lat="47.1931" lon="-2.1474">
        <ele>30.2</ele>
        <time>2020-06-05T11:53:30Z</time>
      </trkpt>
      <trkpt lat="47.19313" lon="-2.1474">
        <ele>30.3</ele>
        <time>2020-06-05T11:53:31Z</time>
      </trkpt>
      <trkpt lat="47.19316" lon="-2.14739">
        <ele>30.5</ele>
        <time>2020-06-05T11:53:32Z</time>
      </trkpt>
      <trkpt lat="47.19319" lon="-2.14739">
        <ele>30.6</ele>
        <time>2020-06-05T11:53:33Z</time>
      </trkpt>
      <trkpt lat="47.19322" lon="-2.14739">
        <ele>30.7</ele>
        <time>2020-06-05T11:53:34Z</time>
      </trkpt>
      <trkpt lat="47.19325" lon="-2.1474">
        <ele>30.8</ele>
        <time>2020-06-05T11:53:35Z</time>
      </trkpt>
      <trkpt lat="47.19326" lon="-2.14741">
        <ele>30.8</ele>
        <time>2020-06-05T11:53:36Z</time>
      </trkpt>
      <trkpt lat="47.19328" lon="-2.14744">
        <ele>30.8</ele>
        <time>2020-06-05T11:53:37Z</time>
      </trkpt>
      <trkpt lat="47.19328" lon="-2.14746">
        <ele>30.8</ele>
        <time>2020-06-05T11:53:38Z</time>
      </trkpt>
      <trkpt lat="47.1933" lon="-2.14749">
        <ele>30.8</ele>
        <time>2020-06-05T11:53:39Z</time>
      </trkpt>
      <trkpt lat="47.1933" lon="-2.14753">
        <ele>30.8</ele>
        <time>2020-06-05T11:53:40Z</time>
      </trkpt>
      <trkpt lat="47.19332" lon="-2.14759">
        <ele>30.7</ele>
        <time>2020-06-05T11:53:41Z</time>
      </trkpt>
      <trkpt lat="47.19332" lon="-2.14764">
        <ele>30.7</ele>
        <time>2020-06-05T11:53:42Z</time>
      </trkpt>
      <trkpt lat="47.19333" lon="-2.1477">
        <ele>30.6</ele>
        <time>2020-06-05T11:53:43Z</time>
      </trkpt>
      <trkpt lat="47.19333" lon="-2.14775">
        <ele>30.5</ele>
        <time>2020-06-05T11:53:44Z</time>
      </trkpt>
      <trkpt lat="47.19334" lon="-2.14781">
        <ele>30.4</ele>
        <time>2020-06-05T11:53:45Z</time>
      </trkpt>
      <trkpt lat="47.19336" lon="-2.14788">
        <ele>30.3</ele>
        <time>2020-06-05T11:53:46Z</time>
      </trkpt>
      <trkpt lat="47.19337" lon="-2.14794">
        <ele>30.2</ele>
        <time>2020-06-05T11:53:47Z</time>
      </trkpt>
      <trkpt lat="47.19337" lon="-2.14801">
        <ele>30.1</ele>
        <time>2020-06-05T11:53:48Z</time>
      </trkpt>
      <trkpt lat="47.19337" lon="-2.14807">
        <ele>30</ele>
        <time>2020-06-05T11:53:49Z</time>
      </trkpt>
      <trkpt lat="47.19338" lon="-2.14815">
        <ele>29.9</ele>
        <time>2020-06-05T11:53:50Z</time>
      </trkpt>
      <trkpt lat="47.19338" lon="-2.14822">
        <ele>29.8</ele>
        <time>2020-06-05T11:53:51Z</time>
      </trkpt>
      <trkpt lat="47.19337" lon="-2.1483">
        <ele>29.7</ele>
        <time>2020-06-05T11:53:52Z</time>
      </trkpt>
      <trkpt lat="47.19337" lon="-2.14838">
        <ele>29.6</ele>
        <time>2020-06-05T11:53:53Z</time>
      </trkpt>
      <trkpt lat="47.19337" lon="-2.14845">
        <ele>29.5</ele>
        <time>2020-06-05T11:53:54Z</time>
      </trkpt>
      <trkpt lat="47.19336" lon="-2.14852">
        <ele>29.4</ele>
        <time>2020-06-05T11:53:55Z</time>
      </trkpt>
      <trkpt lat="47.19336" lon="-2.14859">
        <ele>29.3</ele>
        <time>2020-06-05T11:53:56Z</time>
      </trkpt>
      <trkpt lat="47.19336" lon="-2.14866">
        <ele>29.2</ele>
        <time>2020-06-05T11:53:57Z</time>
      </trkpt>
      <trkpt lat="47.19337" lon="-2.14873">
        <ele>29.1</ele>
        <time>2020-06-05T11:53:58Z</time>
      </trkpt>
      <trkpt lat="47.19338" lon="-2.1488">
        <ele>29.1</ele>
        <time>2020-06-05T11:53:59Z</time>
      </trkpt>
      <trkpt lat="47.19339" lon="-2.14886">
        <ele>29</ele>
        <time>2020-06-05T11:54:00Z</time>
      </trkpt>
      <trkpt lat="47.19341" lon="-2.14892">
        <ele>29</ele>
        <time>2020-06-05T11:54:01Z</time>
      </trkpt>
      <trkpt lat="47.19343" lon="-2.14898">
        <ele>29</ele>
        <time>2020-06-05T11:54:02Z</time>
      </trkpt>
      <trkpt lat="47.19345" lon="-2.14904">
        <ele>29</ele>
        <time>2020-06-05T11:54:03Z</time>
      </trkpt>
      <trkpt lat="47.19346" lon="-2.14909">
        <ele>28.9</ele>
        <time>2020-06-05T11:54:04Z</time>
      </trkpt>
      <trkpt lat="47.19349" lon="-2.14914">
        <ele>28.9</ele>
        <time>2020-06-05T11:54:05Z</time>
      </trkpt>
      <trkpt lat="47.19352" lon="-2.14918">
        <ele>28.9</ele>
        <time>2020-06-05T11:54:06Z</time>
      </trkpt>
      <trkpt lat="47.19355" lon="-2.14921">
        <ele>28.9</ele>
        <time>2020-06-05T11:54:07Z</time>
      </trkpt>
      <trkpt lat="47.19357" lon="-2.14926">
        <ele>28.8</ele>
        <time>2020-06-05T11:54:08Z</time>
      </trkpt>
      <trkpt lat="47.1936" lon="-2.1493">
        <ele>28.8</ele>
        <time>2020-06-05T11:54:09Z</time>
      </trkpt>
      <trkpt lat="47.19363" lon="-2.14936">
        <ele>28.8</ele>
        <time>2020-06-05T11:54:10Z</time>
      </trkpt>
      <trkpt lat="47.19365" lon="-2.1494">
        <ele>28.7</ele>
        <time>2020-06-05T11:54:11Z</time>
      </trkpt>
      <trkpt lat="47.19368" lon="-2.14944">
        <ele>28.7</ele>
        <time>2020-06-05T11:54:12Z</time>
      </trkpt>
      <trkpt lat="47.19371" lon="-2.14949">
        <ele>28.6</ele>
        <time>2020-06-05T11:54:13Z</time>
      </trkpt>
      <trkpt lat="47.19375" lon="-2.14953">
        <ele>28.5</ele>
        <time>2020-06-05T11:54:14Z</time>
      </trkpt>
      <trkpt lat="47.19378" lon="-2.14959">
        <ele>28.4</ele>
        <time>2020-06-05T11:54:15Z</time>
      </trkpt>
      <trkpt lat="47.19382" lon="-2.14965">
        <ele>28.3</ele>
        <time>2020-06-05T11:54:16Z</time>
      </trkpt>
      <trkpt lat="47.19385" lon="-2.1497">
        <ele>28.1</ele>
        <time>2020-06-05T11:54:17Z</time>
      </trkpt>
      <trkpt lat="47.19389" lon="-2.14975">
        <ele>28</ele>
        <time>2020-06-05T11:54:18Z</time>
      </trkpt>
      <trkpt lat="47.19392" lon="-2.1498">
        <ele>27.9</ele>
        <time>2020-06-05T11:54:19Z</time>
      </trkpt>
      <trkpt lat="47.19395" lon="-2.14986">
        <ele>27.7</ele>
        <time>2020-06-05T11:54:20Z</time>
      </trkpt>
      <trkpt lat="47.19398" lon="-2.14991">
        <ele>27.6</ele>
        <time>2020-06-05T11:54:21Z</time>
      </trkpt>
      <trkpt lat="47.19401" lon="-2.14996">
        <ele>27.4</ele>
        <time>2020-06-05T11:54:22Z</time>
      </trkpt>
      <trkpt lat="47.19405" lon="-2.15001">
        <ele>27.2</ele>
        <time>2020-06-05T11:54:23Z</time>
      </trkpt>
      <trkpt lat="47.19409" lon="-2.15006">
        <ele>27</ele>
        <time>2020-06-05T11:54:24Z</time>
      </trkpt>
      <trkpt lat="47.19413" lon="-2.15011">
        <ele>26.8</ele>
        <time>2020-06-05T11:54:25Z</time>
      </trkpt>
      <trkpt lat="47.19418" lon="-2.15015">
        <ele>26.5</ele>
        <time>2020-06-05T11:54:26Z</time>
      </trkpt>
      <trkpt lat="47.19422" lon="-2.15021">
        <ele>26.2</ele>
        <time>2020-06-05T11:54:27Z</time>
      </trkpt>
      <trkpt lat="47.19427" lon="-2.15025">
        <ele>25.9</ele>
        <time>2020-06-05T11:54:28Z</time>
      </trkpt>
      <trkpt lat="47.19432" lon="-2.15028">
        <ele>25.6</ele>
        <time>2020-06-05T11:54:29Z</time>
      </trkpt>
      <trkpt lat="47.19438" lon="-2.15029">
        <ele>25.3</ele>
        <time>2020-06-05T11:54:30Z</time>
      </trkpt>
      <trkpt lat="47.19444" lon="-2.15031">
        <ele>24.9</ele>
        <time>2020-06-05T11:54:31Z</time>
      </trkpt>
      <trkpt lat="47.19451" lon="-2.15032">
        <ele>24.4</ele>
        <time>2020-06-05T11:54:32Z</time>
      </trkpt>
      <trkpt lat="47.19458" lon="-2.15034">
        <ele>24</ele>
        <time>2020-06-05T11:54:33Z</time>
      </trkpt>
      <trkpt lat="47.19465" lon="-2.15037">
        <ele>23.5</ele>
        <time>2020-06-05T11:54:34Z</time>
      </trkpt>
      <trkpt lat="47.19472" lon="-2.15041">
        <ele>23</ele>
        <time>2020-06-05T11:54:35Z</time>
      </trkpt>
      <trkpt lat="47.19478" lon="-2.15045">
        <ele>22.6</ele>
        <time>2020-06-05T11:54:36Z</time>
      </trkpt>
      <trkpt lat="47.19485" lon="-2.15051">
        <ele>22.1</ele>
        <time>2020-06-05T11:54:37Z</time>
      </trkpt>
      <trkpt lat="47.19492" lon="-2.15057">
        <ele>21.5</ele>
        <time>2020-06-05T11:54:38Z</time>
      </trkpt>
      <trkpt lat="47.19499" lon="-2.15063">
        <ele>21</ele>
        <time>2020-06-05T11:54:39Z</time>
      </trkpt>
      <trkpt lat="47.19505" lon="-2.15068">
        <ele>20.6</ele>
        <time>2020-06-05T11:54:40Z</time>
      </trkpt>
      <trkpt lat="47.1951" lon="-2.15073">
        <ele>20.3</ele>
        <time>2020-06-05T11:54:41Z</time>
      </trkpt>
      <trkpt lat="47.19516" lon="-2.15077">
        <ele>20</ele>
        <time>2020-06-05T11:54:42Z</time>
      </trkpt>
      <trkpt lat="47.19523" lon="-2.15081">
        <ele>19.8</ele>
        <time>2020-06-05T11:54:43Z</time>
      </trkpt>
      <trkpt lat="47.1953" lon="-2.15082">
        <ele>19.6</ele>
        <time>2020-06-05T11:54:44Z</time>
      </trkpt>
      <trkpt lat="47.19538" lon="-2.15078">
        <ele>19.7</ele>
        <time>2020-06-05T11:54:45Z</time>
      </trkpt>
      <trkpt lat="47.19545" lon="-2.15075">
        <ele>19.6</ele>
        <time>2020-06-05T11:54:46Z</time>
      </trkpt>
      <trkpt lat="47.19551" lon="-2.15071">
        <ele>19.6</ele>
        <time>2020-06-05T11:54:47Z</time>
      </trkpt>
      <trkpt lat="47.19558" lon="-2.15069">
        <ele>19.6</ele>
        <time>2020-06-05T11:54:48Z</time>
      </trkpt>
      <trkpt lat="47.19565" lon="-2.15065">
        <ele>19.7</ele>
        <time>2020-06-05T11:54:49Z</time>
      </trkpt>
      <trkpt lat="47.19572" lon="-2.15062">
        <ele>19.7</ele>
        <time>2020-06-05T11:54:50Z</time>
      </trkpt>
      <trkpt lat="47.19578" lon="-2.15059">
        <ele>19.8</ele>
        <time>2020-06-05T11:54:51Z</time>
      </trkpt>
      <trkpt lat="47.19584" lon="-2.15055">
        <ele>19.8</ele>
        <time>2020-06-05T11:54:52Z</time>
      </trkpt>
      <trkpt lat="47.1959" lon="-2.15051">
        <ele>19.9</ele>
        <time>2020-06-05T11:54:53Z</time>
      </trkpt>
      <trkpt lat="47.19595" lon="-2.15047">
        <ele>19.9</ele>
        <time>2020-06-05T11:54:54Z</time>
      </trkpt>
      <trkpt lat="47.196" lon="-2.15042">
        <ele>19.9</ele>
        <time>2020-06-05T11:54:55Z</time>
      </trkpt>
      <trkpt lat="47.19606" lon="-2.15038">
        <ele>20</ele>
        <time>2020-06-05T11:54:56Z</time>
      </trkpt>
      <trkpt lat="47.19611" lon="-2.15034">
        <ele>20</ele>
        <time>2020-06-05T11:54:57Z</time>
      </trkpt>
      <trkpt lat="47.19615" lon="-2.1503">
        <ele>20</ele>
        <time>2020-06-05T11:54:58Z</time>
      </trkpt>
      <trkpt lat="47.1962" lon="-2.15026">
        <ele>20</ele>
        <time>2020-06-05T11:54:59Z</time>
      </trkpt>
      <trkpt lat="47.19625" lon="-2.15023">
        <ele>20</ele>
        <time>2020-06-05T11:55:00Z</time>
      </trkpt>
      <trkpt lat="47.19629" lon="-2.15019">
        <ele>20</ele>
        <time>2020-06-05T11:55:01Z</time>
      </trkpt>
      <trkpt lat="47.19633" lon="-2.15015">
        <ele>20</ele>
        <time>2020-06-05T11:55:02Z</time>
      </trkpt>
      <trkpt lat="47.19638" lon="-2.15012">
        <ele>20</ele>
        <time>2020-06-05T11:55:03Z</time>
      </trkpt>
      <trkpt lat="47.19643" lon="-2.15008">
        <ele>20</ele>
        <time>2020-06-05T11:55:04Z</time>
      </trkpt>
      <trkpt lat="47.19647" lon="-2.15005">
        <ele>19.9</ele>
        <time>2020-06-05T11:55:05Z</time>
      </trkpt>
      <trkpt lat="47.19651" lon="-2.15004">
        <ele>19.9</ele>
        <time>2020-06-05T11:55:06Z</time>
      </trkpt>
      <trkpt lat="47.19656" lon="-2.15003">
        <ele>19.8</ele>
        <time>2020-06-05T11:55:07Z</time>
      </trkpt>
      <trkpt lat="47.1966" lon="-2.15001">
        <ele>19.7</ele>
        <time>2020-06-05T11:55:08Z</time>
      </trkpt>
      <trkpt lat="47.19665" lon="-2.14999">
        <ele>19.7</ele>
        <time>2020-06-05T11:55:09Z</time>
      </trkpt>
      <trkpt lat="47.1967" lon="-2.14998">
        <ele>19.6</ele>
        <time>2020-06-05T11:55:10Z</time>
      </trkpt>
      <trkpt lat="47.19673" lon="-2.14997">
        <ele>19.5</ele>
        <time>2020-06-05T11:55:11Z</time>
      </trkpt>
      <trkpt lat="47.19676" lon="-2.14995">
        <ele>19.5</ele>
        <time>2020-06-05T11:55:12Z</time>
      </trkpt>
      <trkpt lat="47.19679" lon="-2.14992">
        <ele>19.4</ele>
        <time>2020-06-05T11:55:13Z</time>
      </trkpt>
      <trkpt lat="47.19682" lon="-2.14991">
        <ele>19.4</ele>
        <time>2020-06-05T11:55:14Z</time>
      </trkpt>
      <trkpt lat="47.19684" lon="-2.14989">
        <ele>19.3</ele>
        <time>2020-06-05T11:55:15Z</time>
      </trkpt>
      <trkpt lat="47.19688" lon="-2.1499">
        <ele>19.3</ele>
        <time>2020-06-05T11:55:16Z</time>
      </trkpt>
      <trkpt lat="47.19689" lon="-2.1499">
        <ele>19.3</ele>
        <time>2020-06-05T11:55:17Z</time>
      </trkpt>
      <trkpt lat="47.1969" lon="-2.14994">
        <ele>19.3</ele>
        <time>2020-06-05T11:55:18Z</time>
      </trkpt>
      <trkpt lat="47.1969" lon="-2.14999">
        <ele>19.2</ele>
        <time>2020-06-05T11:55:19Z</time>
      </trkpt>
      <trkpt lat="47.19691" lon="-2.15004">
        <ele>19.2</ele>
        <time>2020-06-05T11:55:20Z</time>
      </trkpt>
      <trkpt lat="47.19692" lon="-2.1501">
        <ele>19.1</ele>
        <time>2020-06-05T11:55:21Z</time>
      </trkpt>
      <trkpt lat="47.19693" lon="-2.15016">
        <ele>19.1</ele>
        <time>2020-06-05T11:55:22Z</time>
      </trkpt>
      <trkpt lat="47.19693" lon="-2.15022">
        <ele>19</ele>
        <time>2020-06-05T11:55:23Z</time>
      </trkpt>
      <trkpt lat="47.19694" lon="-2.15028">
        <ele>19</ele>
        <time>2020-06-05T11:55:24Z</time>
      </trkpt>
      <trkpt lat="47.19695" lon="-2.15035">
        <ele>18.9</ele>
        <time>2020-06-05T11:55:25Z</time>
      </trkpt>
      <trkpt lat="47.19696" lon="-2.15042">
        <ele>18.8</ele>
        <time>2020-06-05T11:55:26Z</time>
      </trkpt>
      <trkpt lat="47.19697" lon="-2.15049">
        <ele>18.7</ele>
        <time>2020-06-05T11:55:27Z</time>
      </trkpt>
      <trkpt lat="47.19698" lon="-2.15056">
        <ele>18.7</ele>
        <time>2020-06-05T11:55:28Z</time>
      </trkpt>
      <trkpt lat="47.19699" lon="-2.15063">
        <ele>18.6</ele>
        <time>2020-06-05T11:55:29Z</time>
      </trkpt>
      <trkpt lat="47.197" lon="-2.15069">
        <ele>18.5</ele>
        <time>2020-06-05T11:55:30Z</time>
      </trkpt>
      <trkpt lat="47.197" lon="-2.15076">
        <ele>18.5</ele>
        <time>2020-06-05T11:55:31Z</time>
      </trkpt>
      <trkpt lat="47.19701" lon="-2.15082">
        <ele>18.5</ele>
        <time>2020-06-05T11:55:32Z</time>
      </trkpt>
      <trkpt lat="47.19702" lon="-2.15088">
        <ele>18.4</ele>
        <time>2020-06-05T11:55:33Z</time>
      </trkpt>
      <trkpt lat="47.19703" lon="-2.15094">
        <ele>18.4</ele>
        <time>2020-06-05T11:55:34Z</time>
      </trkpt>
      <trkpt lat="47.19704" lon="-2.151">
        <ele>18.3</ele>
        <time>2020-06-05T11:55:35Z</time>
      </trkpt>
      <trkpt lat="47.19706" lon="-2.15105">
        <ele>18.3</ele>
        <time>2020-06-05T11:55:36Z</time>
      </trkpt>
      <trkpt lat="47.19707" lon="-2.15111">
        <ele>18.3</ele>
        <time>2020-06-05T11:55:37Z</time>
      </trkpt>
      <trkpt lat="47.19708" lon="-2.15116">
        <ele>18.2</ele>
        <time>2020-06-05T11:55:38Z</time>
      </trkpt>
      <trkpt lat="47.19709" lon="-2.15121">
        <ele>18.2</ele>
        <time>2020-06-05T11:55:39Z</time>
      </trkpt>
      <trkpt lat="47.1971" lon="-2.15127">
        <ele>18.2</ele>
        <time>2020-06-05T11:55:40Z</time>
      </trkpt>
      <trkpt lat="47.19711" lon="-2.15133">
        <ele>18.2</ele>
        <time>2020-06-05T11:55:41Z</time>
      </trkpt>
      <trkpt lat="47.19712" lon="-2.15139">
        <ele>18.2</ele>
        <time>2020-06-05T11:55:42Z</time>
      </trkpt>
      <trkpt lat="47.19713" lon="-2.15145">
        <ele>18.2</ele>
        <time>2020-06-05T11:55:43Z</time>
      </trkpt>
      <trkpt lat="47.19714" lon="-2.15152">
        <ele>18.3</ele>
        <time>2020-06-05T11:55:44Z</time>
      </trkpt>
      <trkpt lat="47.19714" lon="-2.15157">
        <ele>18.3</ele>
        <time>2020-06-05T11:55:45Z</time>
      </trkpt>
      <trkpt lat="47.19714" lon="-2.15163">
        <ele>18.3</ele>
        <time>2020-06-05T11:55:46Z</time>
      </trkpt>
      <trkpt lat="47.19714" lon="-2.1517">
        <ele>18.3</ele>
        <time>2020-06-05T11:55:47Z</time>
      </trkpt>
      <trkpt lat="47.19716" lon="-2.15176">
        <ele>18.3</ele>
        <time>2020-06-05T11:55:48Z</time>
      </trkpt>
      <trkpt lat="47.19716" lon="-2.15181">
        <ele>18.3</ele>
        <time>2020-06-05T11:55:49Z</time>
      </trkpt>
      <trkpt lat="47.19718" lon="-2.15186">
        <ele>18.3</ele>
        <time>2020-06-05T11:55:50Z</time>
      </trkpt>
      <trkpt lat="47.19719" lon="-2.15192">
        <ele>18.3</ele>
        <time>2020-06-05T11:55:51Z</time>
      </trkpt>
      <trkpt lat="47.1972" lon="-2.15198">
        <ele>18.4</ele>
        <time>2020-06-05T11:55:52Z</time>
      </trkpt>
      <trkpt lat="47.19721" lon="-2.15204">
        <ele>18.4</ele>
        <time>2020-06-05T11:55:53Z</time>
      </trkpt>
      <trkpt lat="47.19722" lon="-2.1521">
        <ele>18.5</ele>
        <time>2020-06-05T11:55:54Z</time>
      </trkpt>
      <trkpt lat="47.19722" lon="-2.15216">
        <ele>18.6</ele>
        <time>2020-06-05T11:55:55Z</time>
      </trkpt>
      <trkpt lat="47.19722" lon="-2.15222">
        <ele>18.6</ele>
        <time>2020-06-05T11:55:56Z</time>
      </trkpt>
      <trkpt lat="47.19724" lon="-2.15229">
        <ele>18.7</ele>
        <time>2020-06-05T11:55:57Z</time>
      </trkpt>
      <trkpt lat="47.19725" lon="-2.15235">
        <ele>18.8</ele>
        <time>2020-06-05T11:55:58Z</time>
      </trkpt>
      <trkpt lat="47.19725" lon="-2.15241">
        <ele>18.9</ele>
        <time>2020-06-05T11:55:59Z</time>
      </trkpt>
      <trkpt lat="47.19725" lon="-2.15247">
        <ele>19</ele>
        <time>2020-06-05T11:56:00Z</time>
      </trkpt>
      <trkpt lat="47.19724" lon="-2.15253">
        <ele>19.1</ele>
        <time>2020-06-05T11:56:01Z</time>
      </trkpt>
      <trkpt lat="47.19724" lon="-2.15259">
        <ele>19.3</ele>
        <time>2020-06-05T11:56:02Z</time>
      </trkpt>
      <trkpt lat="47.19725" lon="-2.15265">
        <ele>19.4</ele>
        <time>2020-06-05T11:56:03Z</time>
      </trkpt>
      <trkpt lat="47.19726" lon="-2.1527">
        <ele>19.5</ele>
        <time>2020-06-05T11:56:04Z</time>
      </trkpt>
      <trkpt lat="47.19726" lon="-2.15276">
        <ele>19.6</ele>
        <time>2020-06-05T11:56:05Z</time>
      </trkpt>
      <trkpt lat="47.19728" lon="-2.1528">
        <ele>19.6</ele>
        <time>2020-06-05T11:56:06Z</time>
      </trkpt>
      <trkpt lat="47.19731" lon="-2.15281">
        <ele>19.9</ele>
        <time>2020-06-05T11:56:07Z</time>
      </trkpt>
      <trkpt lat="47.19735" lon="-2.1528">
        <ele>20</ele>
        <time>2020-06-05T11:56:08Z</time>
      </trkpt>
      <trkpt lat="47.19738" lon="-2.15278">
        <ele>20.1</ele>
        <time>2020-06-05T11:56:09Z</time>
      </trkpt>
      <trkpt lat="47.19742" lon="-2.15276">
        <ele>20.2</ele>
        <time>2020-06-05T11:56:10Z</time>
      </trkpt>
      <trkpt lat="47.19745" lon="-2.15276">
        <ele>20.3</ele>
        <time>2020-06-05T11:56:11Z</time>
      </trkpt>
      <trkpt lat="47.1975" lon="-2.15275">
        <ele>20.4</ele>
        <time>2020-06-05T11:56:12Z</time>
      </trkpt>
      <trkpt lat="47.19753" lon="-2.15275">
        <ele>20.5</ele>
        <time>2020-06-05T11:56:13Z</time>
      </trkpt>
      <trkpt lat="47.19757" lon="-2.15273">
        <ele>20.7</ele>
        <time>2020-06-05T11:56:14Z</time>
      </trkpt>
      <trkpt lat="47.1976" lon="-2.15273">
        <ele>20.7</ele>
        <time>2020-06-05T11:56:15Z</time>
      </trkpt>
      <trkpt lat="47.19764" lon="-2.15273">
        <ele>20.7</ele>
        <time>2020-06-05T11:56:16Z</time>
      </trkpt>
      <trkpt lat="47.19767" lon="-2.15272">
        <ele>20.7</ele>
        <time>2020-06-05T11:56:17Z</time>
      </trkpt>
      <trkpt lat="47.1977" lon="-2.15271">
        <ele>20.6</ele>
        <time>2020-06-05T11:56:18Z</time>
      </trkpt>
      <trkpt lat="47.19771" lon="-2.15271">
        <ele>20.6</ele>
        <time>2020-06-05T11:56:19Z</time>
      </trkpt>
      <trkpt lat="47.19775" lon="-2.1527">
        <ele>20.6</ele>
        <time>2020-06-05T11:56:20Z</time>
      </trkpt>
      <trkpt lat="47.19776" lon="-2.15269">
        <ele>20.6</ele>
        <time>2020-06-05T11:56:21Z</time>
      </trkpt>
      <trkpt lat="47.1978" lon="-2.15269">
        <ele>20.6</ele>
        <time>2020-06-05T11:56:22Z</time>
      </trkpt>
      <trkpt lat="47.19784" lon="-2.15269">
        <ele>20.5</ele>
        <time>2020-06-05T11:56:23Z</time>
      </trkpt>
      <trkpt lat="47.19787" lon="-2.15269">
        <ele>20.5</ele>
        <time>2020-06-05T11:56:24Z</time>
      </trkpt>
      <trkpt lat="47.1979" lon="-2.1527">
        <ele>20.4</ele>
        <time>2020-06-05T11:56:25Z</time>
      </trkpt>
      <trkpt lat="47.19794" lon="-2.1527">
        <ele>20.4</ele>
        <time>2020-06-05T11:56:26Z</time>
      </trkpt>
      <trkpt lat="47.19798" lon="-2.1527">
        <ele>20.3</ele>
        <time>2020-06-05T11:56:27Z</time>
      </trkpt>
      <trkpt lat="47.19802" lon="-2.1527">
        <ele>20.2</ele>
        <time>2020-06-05T11:56:28Z</time>
      </trkpt>
      <trkpt lat="47.19806" lon="-2.15271">
        <ele>20.1</ele>
        <time>2020-06-05T11:56:29Z</time>
      </trkpt>
      <trkpt lat="47.19811" lon="-2.15272">
        <ele>20</ele>
        <time>2020-06-05T11:56:30Z</time>
      </trkpt>
      <trkpt lat="47.19817" lon="-2.15273">
        <ele>19.9</ele>
        <time>2020-06-05T11:56:31Z</time>
      </trkpt>
      <trkpt lat="47.19822" lon="-2.15273">
        <ele>19.8</ele>
        <time>2020-06-05T11:56:32Z</time>
      </trkpt>
      <trkpt lat="47.19827" lon="-2.15274">
        <ele>19.6</ele>
        <time>2020-06-05T11:56:33Z</time>
      </trkpt>
      <trkpt lat="47.19833" lon="-2.15275">
        <ele>19.4</ele>
        <time>2020-06-05T11:56:34Z</time>
      </trkpt>
      <trkpt lat="47.19839" lon="-2.15275">
        <ele>19.2</ele>
        <time>2020-06-05T11:56:35Z</time>
      </trkpt>
      <trkpt lat="47.19845" lon="-2.15276">
        <ele>19</ele>
        <time>2020-06-05T11:56:36Z</time>
      </trkpt>
      <trkpt lat="47.19851" lon="-2.15277">
        <ele>18.8</ele>
        <time>2020-06-05T11:56:37Z</time>
      </trkpt>
      <trkpt lat="47.19856" lon="-2.15278">
        <ele>18.6</ele>
        <time>2020-06-05T11:56:38Z</time>
      </trkpt>
      <trkpt lat="47.19863" lon="-2.15278">
        <ele>18.4</ele>
        <time>2020-06-05T11:56:39Z</time>
      </trkpt>
      <trkpt lat="47.1987" lon="-2.1528">
        <ele>18.1</ele>
        <time>2020-06-05T11:56:40Z</time>
      </trkpt>
      <trkpt lat="47.19878" lon="-2.15281">
        <ele>17.8</ele>
        <time>2020-06-05T11:56:41Z</time>
      </trkpt>
      <trkpt lat="47.19886" lon="-2.15283">
        <ele>17.5</ele>
        <time>2020-06-05T11:56:42Z</time>
      </trkpt>
      <trkpt lat="47.19894" lon="-2.15286">
        <ele>17.1</ele>
        <time>2020-06-05T11:56:43Z</time>
      </trkpt>
      <trkpt lat="47.19902" lon="-2.15288">
        <ele>16.8</ele>
        <time>2020-06-05T11:56:44Z</time>
      </trkpt>
      <trkpt lat="47.1991" lon="-2.1529">
        <ele>16.4</ele>
        <time>2020-06-05T11:56:45Z</time>
      </trkpt>
      <trkpt lat="47.19919" lon="-2.15291">
        <ele>15.7</ele>
        <time>2020-06-05T11:56:46Z</time>
      </trkpt>
      <trkpt lat="47.19928" lon="-2.15293">
        <ele>15.2</ele>
        <time>2020-06-05T11:56:47Z</time>
      </trkpt>
      <trkpt lat="47.19936" lon="-2.15295">
        <ele>14.8</ele>
        <time>2020-06-05T11:56:48Z</time>
      </trkpt>
      <trkpt lat="47.19944" lon="-2.15297">
        <ele>14.4</ele>
        <time>2020-06-05T11:56:49Z</time>
      </trkpt>
      <trkpt lat="47.19951" lon="-2.15298">
        <ele>14.1</ele>
        <time>2020-06-05T11:56:50Z</time>
      </trkpt>
      <trkpt lat="47.19959" lon="-2.153">
        <ele>13.8</ele>
        <time>2020-06-05T11:56:51Z</time>
      </trkpt>
      <trkpt lat="47.19966" lon="-2.15301">
        <ele>13.6</ele>
        <time>2020-06-05T11:56:52Z</time>
      </trkpt>
      <trkpt lat="47.19973" lon="-2.15301">
        <ele>13.5</ele>
        <time>2020-06-05T11:56:53Z</time>
      </trkpt>
      <trkpt lat="47.19979" lon="-2.153">
        <ele>13.3</ele>
        <time>2020-06-05T11:56:54Z</time>
      </trkpt>
      <trkpt lat="47.19983" lon="-2.15301">
        <ele>13.3</ele>
        <time>2020-06-05T11:56:55Z</time>
      </trkpt>
      <trkpt lat="47.19986" lon="-2.15303">
        <ele>13.2</ele>
        <time>2020-06-05T11:56:56Z</time>
      </trkpt>
      <trkpt lat="47.19987" lon="-2.15304">
        <ele>13.2</ele>
        <time>2020-06-05T11:56:57Z</time>
      </trkpt>
      <trkpt lat="47.19987" lon="-2.15305">
        <ele>13.2</ele>
        <time>2020-06-05T11:56:58Z</time>
      </trkpt>
      <trkpt lat="47.19988" lon="-2.15305">
        <ele>13.1</ele>
        <time>2020-06-05T11:56:59Z</time>
      </trkpt>
      <trkpt lat="47.19989" lon="-2.15306">
        <ele>13.1</ele>
        <time>2020-06-05T11:57:00Z</time>
      </trkpt>
      <trkpt lat="47.19991" lon="-2.15306">
        <ele>13.1</ele>
        <time>2020-06-05T11:57:01Z</time>
      </trkpt>
      <trkpt lat="47.19992" lon="-2.15307">
        <ele>13.1</ele>
        <time>2020-06-05T11:57:02Z</time>
      </trkpt>
      <trkpt lat="47.19992" lon="-2.15306">
        <ele>13.1</ele>
        <time>2020-06-05T11:57:03Z</time>
      </trkpt>
      <trkpt lat="47.19993" lon="-2.15306">
        <ele>13</ele>
        <time>2020-06-05T11:57:04Z</time>
      </trkpt>
      <trkpt lat="47.19994" lon="-2.15307">
        <ele>13</ele>
        <time>2020-06-05T11:57:05Z</time>
      </trkpt>
      <trkpt lat="47.19994" lon="-2.15307">
        <ele>13</ele>
        <time>2020-06-05T11:57:06Z</time>
      </trkpt>
      <trkpt lat="47.19995" lon="-2.15307">
        <ele>13</ele>
        <time>2020-06-05T11:57:07Z</time>
      </trkpt>
      <trkpt lat="47.19995" lon="-2.15308">
        <ele>13</ele>
        <time>2020-06-05T11:57:08Z</time>
      </trkpt>
      <trkpt lat="47.19997" lon="-2.15309">
        <ele>12.9</ele>
        <time>2020-06-05T11:57:09Z</time>
      </trkpt>
      <trkpt lat="47.19998" lon="-2.1531">
        <ele>12.9</ele>
        <time>2020-06-05T11:57:10Z</time>
      </trkpt>
      <trkpt lat="47.19999" lon="-2.15312">
        <ele>12.9</ele>
        <time>2020-06-05T11:57:11Z</time>
      </trkpt>
      <trkpt lat="47.2" lon="-2.15312">
        <ele>12.9</ele>
        <time>2020-06-05T11:57:12Z</time>
      </trkpt>
      <trkpt lat="47.2" lon="-2.15312">
        <ele>12.9</ele>
        <time>2020-06-05T11:57:13Z</time>
      </trkpt>
      <trkpt lat="47.20001" lon="-2.15312">
        <ele>12.8</ele>
        <time>2020-06-05T11:57:14Z</time>
      </trkpt>
      <trkpt lat="47.20001" lon="-2.15312">
        <ele>12.8</ele>
        <time>2020-06-05T11:57:15Z</time>
      </trkpt>
      <trkpt lat="47.20001" lon="-2.15311">
        <ele>12.8</ele>
        <time>2020-06-05T11:57:16Z</time>
      </trkpt>
      <trkpt lat="47.2" lon="-2.15311">
        <ele>12.8</ele>
        <time>2020-06-05T11:57:17Z</time>
      </trkpt>
      <trkpt lat="47.2" lon="-2.15311">
        <ele>12.8</ele>
        <time>2020-06-05T11:57:18Z</time>
      </trkpt>
      <trkpt lat="47.2" lon="-2.15312">
        <ele>12.8</ele>
        <time>2020-06-05T11:57:19Z</time>
      </trkpt>
      <trkpt lat="47.2" lon="-2.15312">
        <ele>12.8</ele>
        <time>2020-06-05T11:57:20Z</time>
      </trkpt>
      <trkpt lat="47.20001" lon="-2.15312">
        <ele>12.8</ele>
        <time>2020-06-05T11:57:21Z</time>
      </trkpt>
      <trkpt lat="47.20001" lon="-2.15312">
        <ele>12.8</ele>
        <time>2020-06-05T11:57:22Z</time>
      </trkpt>
      <trkpt lat="47.20002" lon="-2.15312">
        <ele>12.8</ele>
        <time>2020-06-05T11:57:23Z</time>
      </trkpt>
      <trkpt lat="47.20002" lon="-2.15312">
        <ele>12.8</ele>
        <time>2020-06-05T11:57:24Z</time>
      </trkpt>
      <trkpt lat="47.20001" lon="-2.15312">
        <ele>12.8</ele>
        <time>2020-06-05T11:57:25Z</time>
      </trkpt>
      <trkpt lat="47.20002" lon="-2.15312">
        <ele>12.8</ele>
        <time>2020-06-05T11:57:26Z</time>
      </trkpt>
      <trkpt lat="47.20002" lon="-2.15312">
        <ele>12.8</ele>
        <time>2020-06-05T11:57:27Z</time>
      </trkpt>
      <trkpt lat="47.20001" lon="-2.15313">
        <ele>12.7</ele>
        <time>2020-06-05T11:57:28Z</time>
      </trkpt>
      <trkpt lat="47.20002" lon="-2.15314">
        <ele>12.7</ele>
        <time>2020-06-05T11:57:29Z</time>
      </trkpt>
      <trkpt lat="47.20002" lon="-2.15314">
        <ele>12.7</ele>
        <time>2020-06-05T11:57:30Z</time>
      </trkpt>
      <trkpt lat="47.20002" lon="-2.15313">
        <ele>12.7</ele>
        <time>2020-06-05T11:57:31Z</time>
      </trkpt>
      <trkpt lat="47.20004" lon="-2.15312">
        <ele>12.7</ele>
        <time>2020-06-05T11:57:32Z</time>
      </trkpt>
      <trkpt lat="47.20005" lon="-2.15312">
        <ele>12.7</ele>
        <time>2020-06-05T11:57:33Z</time>
      </trkpt>
      <trkpt lat="47.20007" lon="-2.15309">
        <ele>12.6</ele>
        <time>2020-06-05T11:57:34Z</time>
      </trkpt>
      <trkpt lat="47.20007" lon="-2.1531">
        <ele>12.6</ele>
        <time>2020-06-05T11:57:35Z</time>
      </trkpt>
      <trkpt lat="47.20007" lon="-2.1531">
        <ele>12.6</ele>
        <time>2020-06-05T11:57:36Z</time>
      </trkpt>
      <trkpt lat="47.20007" lon="-2.1531">
        <ele>12.6</ele>
        <time>2020-06-05T11:57:37Z</time>
      </trkpt>
      <trkpt lat="47.20008" lon="-2.1531">
        <ele>12.6</ele>
        <time>2020-06-05T11:57:38Z</time>
      </trkpt>
      <trkpt lat="47.20008" lon="-2.15308">
        <ele>12.6</ele>
        <time>2020-06-05T11:57:39Z</time>
      </trkpt>
      <trkpt lat="47.20009" lon="-2.15306">
        <ele>12.6</ele>
        <time>2020-06-05T11:57:40Z</time>
      </trkpt>
      <trkpt lat="47.20009" lon="-2.15304">
        <ele>12.6</ele>
        <time>2020-06-05T11:57:41Z</time>
      </trkpt>
      <trkpt lat="47.20009" lon="-2.15303">
        <ele>12.5</ele>
        <time>2020-06-05T11:57:42Z</time>
      </trkpt>
      <trkpt lat="47.20009" lon="-2.15303">
        <ele>12.5</ele>
        <time>2020-06-05T11:57:43Z</time>
      </trkpt>
      <trkpt lat="47.2001" lon="-2.15304">
        <ele>12.5</ele>
        <time>2020-06-05T11:57:44Z</time>
      </trkpt>
      <trkpt lat="47.2001" lon="-2.15304">
        <ele>12.5</ele>
        <time>2020-06-05T11:57:45Z</time>
      </trkpt>
      <trkpt lat="47.20011" lon="-2.15304">
        <ele>12.5</ele>
        <time>2020-06-05T11:57:46Z</time>
      </trkpt>
      <trkpt lat="47.20011" lon="-2.15304">
        <ele>12.5</ele>
        <time>2020-06-05T11:57:47Z</time>
      </trkpt>
      <trkpt lat="47.20011" lon="-2.15304">
        <ele>12.5</ele>
        <time>2020-06-05T11:57:48Z</time>
      </trkpt>
      <trkpt lat="47.20012" lon="-2.15304">
        <ele>12.5</ele>
        <time>2020-06-05T11:57:49Z</time>
      </trkpt>
      <trkpt lat="47.20012" lon="-2.15305">
        <ele>12.5</ele>
        <time>2020-06-05T11:57:50Z</time>
      </trkpt>
      <trkpt lat="47.20012" lon="-2.15306">
        <ele>12.5</ele>
        <time>2020-06-05T11:57:51Z</time>
      </trkpt>
      <trkpt lat="47.20012" lon="-2.15305">
        <ele>12.5</ele>
        <time>2020-06-05T11:57:52Z</time>
      </trkpt>
      <trkpt lat="47.20013" lon="-2.15305">
        <ele>12.5</ele>
        <time>2020-06-05T11:57:53Z</time>
      </trkpt>
      <trkpt lat="47.20012" lon="-2.15306">
        <ele>12.5</ele>
        <time>2020-06-05T11:57:54Z</time>
      </trkpt>
      <trkpt lat="47.20012" lon="-2.15306">
        <ele>12.5</ele>
        <time>2020-06-05T11:57:55Z</time>
      </trkpt>
      <trkpt lat="47.20012" lon="-2.15307">
        <ele>12.5</ele>
        <time>2020-06-05T11:57:56Z</time>
      </trkpt>
      <trkpt lat="47.20012" lon="-2.15307">
        <ele>12.5</ele>
        <time>2020-06-05T11:57:57Z</time>
      </trkpt>
      <trkpt lat="47.20011" lon="-2.15308">
        <ele>12.5</ele>
        <time>2020-06-05T11:57:58Z</time>
      </trkpt>
      <trkpt lat="47.20011" lon="-2.15307">
        <ele>12.5</ele>
        <time>2020-06-05T11:57:59Z</time>
      </trkpt>
      <trkpt lat="47.20014" lon="-2.15315">
        <ele>12.4</ele>
        <time>2020-06-05T11:58:37Z</time>
      </trkpt>
      <trkpt lat="47.20016" lon="-2.15314">
        <ele>12.4</ele>
        <time>2020-06-05T11:58:38Z</time>
      </trkpt>
      <trkpt lat="47.20017" lon="-2.15315">
        <ele>12.3</ele>
        <time>2020-06-05T11:58:39Z</time>
      </trkpt>
      <trkpt lat="47.20018" lon="-2.15316">
        <ele>12.3</ele>
        <time>2020-06-05T11:58:40Z</time>
      </trkpt>
      <trkpt lat="47.20022" lon="-2.15315">
        <ele>12.3</ele>
        <time>2020-06-05T11:58:41Z</time>
      </trkpt>
      <trkpt lat="47.20023" lon="-2.15314">
        <ele>12.3</ele>
        <time>2020-06-05T11:58:42Z</time>
      </trkpt>
      <trkpt lat="47.20027" lon="-2.15315">
        <ele>12.2</ele>
        <time>2020-06-05T11:58:43Z</time>
      </trkpt>
      <trkpt lat="47.20028" lon="-2.15315">
        <ele>12.2</ele>
        <time>2020-06-05T11:58:44Z</time>
      </trkpt>
      <trkpt lat="47.20031" lon="-2.15315">
        <ele>12.1</ele>
        <time>2020-06-05T11:58:45Z</time>
      </trkpt>
      <trkpt lat="47.20035" lon="-2.15316">
        <ele>12.1</ele>
        <time>2020-06-05T11:58:46Z</time>
      </trkpt>
      <trkpt lat="47.20039" lon="-2.15316">
        <ele>12</ele>
        <time>2020-06-05T11:58:47Z</time>
      </trkpt>
      <trkpt lat="47.20043" lon="-2.15316">
        <ele>12</ele>
        <time>2020-06-05T11:58:48Z</time>
      </trkpt>
      <trkpt lat="47.20047" lon="-2.15317">
        <ele>11.9</ele>
        <time>2020-06-05T11:58:49Z</time>
      </trkpt>
      <trkpt lat="47.2005" lon="-2.15317">
        <ele>11.8</ele>
        <time>2020-06-05T11:58:50Z</time>
      </trkpt>
      <trkpt lat="47.20055" lon="-2.15316">
        <ele>11.8</ele>
        <time>2020-06-05T11:58:51Z</time>
      </trkpt>
      <trkpt lat="47.20059" lon="-2.15315">
        <ele>11.7</ele>
        <time>2020-06-05T11:58:52Z</time>
      </trkpt>
      <trkpt lat="47.20063" lon="-2.15314">
        <ele>11.7</ele>
        <time>2020-06-05T11:58:53Z</time>
      </trkpt>
      <trkpt lat="47.20067" lon="-2.15312">
        <ele>11.6</ele>
        <time>2020-06-05T11:58:54Z</time>
      </trkpt>
      <trkpt lat="47.20072" lon="-2.1531">
        <ele>11.6</ele>
        <time>2020-06-05T11:58:55Z</time>
      </trkpt>
      <trkpt lat="47.20076" lon="-2.15311">
        <ele>11.6</ele>
        <time>2020-06-05T11:58:56Z</time>
      </trkpt>
      <trkpt lat="47.2008" lon="-2.15312">
        <ele>11.6</ele>
        <time>2020-06-05T11:58:57Z</time>
      </trkpt>
      <trkpt lat="47.20084" lon="-2.1531">
        <ele>11.6</ele>
        <time>2020-06-05T11:58:58Z</time>
      </trkpt>
      <trkpt lat="47.20087" lon="-2.15307">
        <ele>11.6</ele>
        <time>2020-06-05T11:58:59Z</time>
      </trkpt>
      <trkpt lat="47.2009" lon="-2.15304">
        <ele>11.6</ele>
        <time>2020-06-05T11:59:00Z</time>
      </trkpt>
      <trkpt lat="47.20093" lon="-2.15304">
        <ele>11.6</ele>
        <time>2020-06-05T11:59:01Z</time>
      </trkpt>
      <trkpt lat="47.20097" lon="-2.15304">
        <ele>11.6</ele>
        <time>2020-06-05T11:59:02Z</time>
      </trkpt>
      <trkpt lat="47.20101" lon="-2.15303">
        <ele>11.6</ele>
        <time>2020-06-05T11:59:03Z</time>
      </trkpt>
      <trkpt lat="47.20105" lon="-2.15303">
        <ele>11.5</ele>
        <time>2020-06-05T11:59:04Z</time>
      </trkpt>
      <trkpt lat="47.2011" lon="-2.15303">
        <ele>11.5</ele>
        <time>2020-06-05T11:59:05Z</time>
      </trkpt>
      <trkpt lat="47.20115" lon="-2.15301">
        <ele>11.5</ele>
        <time>2020-06-05T11:59:06Z</time>
      </trkpt>
      <trkpt lat="47.2012" lon="-2.153">
        <ele>11.5</ele>
        <time>2020-06-05T11:59:07Z</time>
      </trkpt>
      <trkpt lat="47.20125" lon="-2.15298">
        <ele>11.6</ele>
        <time>2020-06-05T11:59:08Z</time>
      </trkpt>
      <trkpt lat="47.2013" lon="-2.15297">
        <ele>11.6</ele>
        <time>2020-06-05T11:59:09Z</time>
      </trkpt>
      <trkpt lat="47.20136" lon="-2.15295">
        <ele>11.6</ele>
        <time>2020-06-05T11:59:10Z</time>
      </trkpt>
      <trkpt lat="47.2014" lon="-2.15294">
        <ele>11.6</ele>
        <time>2020-06-05T11:59:11Z</time>
      </trkpt>
      <trkpt lat="47.20143" lon="-2.15291">
        <ele>11.6</ele>
        <time>2020-06-05T11:59:12Z</time>
      </trkpt>
      <trkpt lat="47.20147" lon="-2.15289">
        <ele>11.6</ele>
        <time>2020-06-05T11:59:13Z</time>
      </trkpt>
      <trkpt lat="47.2015" lon="-2.15287">
        <ele>11.6</ele>
        <time>2020-06-05T11:59:14Z</time>
      </trkpt>
      <trkpt lat="47.20154" lon="-2.15284">
        <ele>11.6</ele>
        <time>2020-06-05T11:59:15Z</time>
      </trkpt>
      <trkpt lat="47.2016" lon="-2.15283">
        <ele>11.6</ele>
        <time>2020-06-05T11:59:16Z</time>
      </trkpt>
      <trkpt lat="47.20165" lon="-2.15281">
        <ele>11.5</ele>
        <time>2020-06-05T11:59:17Z</time>
      </trkpt>
      <trkpt lat="47.20171" lon="-2.1528">
        <ele>11.5</ele>
        <time>2020-06-05T11:59:18Z</time>
      </trkpt>
      <trkpt lat="47.20176" lon="-2.15278">
        <ele>11.5</ele>
        <time>2020-06-05T11:59:19Z</time>
      </trkpt>
      <trkpt lat="47.2018" lon="-2.15277">
        <ele>11.5</ele>
        <time>2020-06-05T11:59:20Z</time>
      </trkpt>
      <trkpt lat="47.20184" lon="-2.15275">
        <ele>11.5</ele>
        <time>2020-06-05T11:59:21Z</time>
      </trkpt>
      <trkpt lat="47.20188" lon="-2.15272">
        <ele>11.4</ele>
        <time>2020-06-05T11:59:22Z</time>
      </trkpt>
      <trkpt lat="47.20192" lon="-2.15269">
        <ele>11.4</ele>
        <time>2020-06-05T11:59:23Z</time>
      </trkpt>
      <trkpt lat="47.20196" lon="-2.15267">
        <ele>11.4</ele>
        <time>2020-06-05T11:59:24Z</time>
      </trkpt>
      <trkpt lat="47.202" lon="-2.15264">
        <ele>11.4</ele>
        <time>2020-06-05T11:59:25Z</time>
      </trkpt>
      <trkpt lat="47.20204" lon="-2.15261">
        <ele>11.4</ele>
        <time>2020-06-05T11:59:26Z</time>
      </trkpt>
      <trkpt lat="47.20208" lon="-2.15258">
        <ele>11.4</ele>
        <time>2020-06-05T11:59:27Z</time>
      </trkpt>
      <trkpt lat="47.20212" lon="-2.15255">
        <ele>11.5</ele>
        <time>2020-06-05T11:59:28Z</time>
      </trkpt>
      <trkpt lat="47.20216" lon="-2.15253">
        <ele>11.5</ele>
        <time>2020-06-05T11:59:29Z</time>
      </trkpt>
      <trkpt lat="47.20221" lon="-2.15251">
        <ele>11.5</ele>
        <time>2020-06-05T11:59:30Z</time>
      </trkpt>
      <trkpt lat="47.20225" lon="-2.15249">
        <ele>11.5</ele>
        <time>2020-06-05T11:59:31Z</time>
      </trkpt>
      <trkpt lat="47.20228" lon="-2.15248">
        <ele>11.5</ele>
        <time>2020-06-05T11:59:32Z</time>
      </trkpt>
      <trkpt lat="47.20232" lon="-2.15246">
        <ele>11.5</ele>
        <time>2020-06-05T11:59:33Z</time>
      </trkpt>
      <trkpt lat="47.20237" lon="-2.15244">
        <ele>11.5</ele>
        <time>2020-06-05T11:59:34Z</time>
      </trkpt>
      <trkpt lat="47.20242" lon="-2.15241">
        <ele>11.6</ele>
        <time>2020-06-05T11:59:35Z</time>
      </trkpt>
      <trkpt lat="47.20247" lon="-2.15239">
        <ele>11.6</ele>
        <time>2020-06-05T11:59:36Z</time>
      </trkpt>
      <trkpt lat="47.20252" lon="-2.1524">
        <ele>11.6</ele>
        <time>2020-06-05T11:59:37Z</time>
      </trkpt>
      <trkpt lat="47.20257" lon="-2.15242">
        <ele>11.7</ele>
        <time>2020-06-05T11:59:38Z</time>
      </trkpt>
      <trkpt lat="47.20261" lon="-2.15244">
        <ele>11.7</ele>
        <time>2020-06-05T11:59:39Z</time>
      </trkpt>
      <trkpt lat="47.20264" lon="-2.15245">
        <ele>11.8</ele>
        <time>2020-06-05T11:59:40Z</time>
      </trkpt>
      <trkpt lat="47.20268" lon="-2.15247">
        <ele>11.8</ele>
        <time>2020-06-05T11:59:41Z</time>
      </trkpt>
      <trkpt lat="47.20271" lon="-2.1525">
        <ele>11.9</ele>
        <time>2020-06-05T11:59:42Z</time>
      </trkpt>
      <trkpt lat="47.20275" lon="-2.15254">
        <ele>12</ele>
        <time>2020-06-05T11:59:43Z</time>
      </trkpt>
      <trkpt lat="47.2028" lon="-2.15257">
        <ele>12.1</ele>
        <time>2020-06-05T11:59:44Z</time>
      </trkpt>
      <trkpt lat="47.20283" lon="-2.15263">
        <ele>12.3</ele>
        <time>2020-06-05T11:59:45Z</time>
      </trkpt>
      <trkpt lat="47.20288" lon="-2.15265">
        <ele>12.4</ele>
        <time>2020-06-05T11:59:46Z</time>
      </trkpt>
      <trkpt lat="47.20293" lon="-2.15269">
        <ele>12.5</ele>
        <time>2020-06-05T11:59:47Z</time>
      </trkpt>
      <trkpt lat="47.20297" lon="-2.15273">
        <ele>12.6</ele>
        <time>2020-06-05T11:59:48Z</time>
      </trkpt>
      <trkpt lat="47.20301" lon="-2.15276">
        <ele>12.6</ele>
        <time>2020-06-05T11:59:49Z</time>
      </trkpt>
      <trkpt lat="47.20305" lon="-2.1528">
        <ele>12.6</ele>
        <time>2020-06-05T11:59:50Z</time>
      </trkpt>
      <trkpt lat="47.20308" lon="-2.15287">
        <ele>12.6</ele>
        <time>2020-06-05T11:59:51Z</time>
      </trkpt>
      <trkpt lat="47.20311" lon="-2.15293">
        <ele>12.6</ele>
        <time>2020-06-05T11:59:52Z</time>
      </trkpt>
      <trkpt lat="47.20314" lon="-2.15299">
        <ele>12.5</ele>
        <time>2020-06-05T11:59:53Z</time>
      </trkpt>
      <trkpt lat="47.20318" lon="-2.15304">
        <ele>12.5</ele>
        <time>2020-06-05T11:59:54Z</time>
      </trkpt>
      <trkpt lat="47.20321" lon="-2.15309">
        <ele>12.4</ele>
        <time>2020-06-05T11:59:55Z</time>
      </trkpt>
      <trkpt lat="47.20324" lon="-2.15314">
        <ele>12.4</ele>
        <time>2020-06-05T11:59:56Z</time>
      </trkpt>
      <trkpt lat="47.20327" lon="-2.15319">
        <ele>12.3</ele>
        <time>2020-06-05T11:59:57Z</time>
      </trkpt>
      <trkpt lat="47.2033" lon="-2.15324">
        <ele>12.2</ele>
        <time>2020-06-05T11:59:58Z</time>
      </trkpt>
      <trkpt lat="47.20333" lon="-2.1533">
        <ele>12.1</ele>
        <time>2020-06-05T11:59:59Z</time>
      </trkpt>
      <trkpt lat="47.20336" lon="-2.15336">
        <ele>12</ele>
        <time>2020-06-05T12:00:00Z</time>
      </trkpt>
      <trkpt lat="47.20339" lon="-2.15342">
        <ele>11.9</ele>
        <time>2020-06-05T12:00:01Z</time>
      </trkpt>
      <trkpt lat="47.20342" lon="-2.15347">
        <ele>11.8</ele>
        <time>2020-06-05T12:00:02Z</time>
      </trkpt>
      <trkpt lat="47.20345" lon="-2.15353">
        <ele>11.6</ele>
        <time>2020-06-05T12:00:03Z</time>
      </trkpt>
      <trkpt lat="47.20347" lon="-2.1536">
        <ele>11.5</ele>
        <time>2020-06-05T12:00:04Z</time>
      </trkpt>
      <trkpt lat="47.2035" lon="-2.15366">
        <ele>11.4</ele>
        <time>2020-06-05T12:00:05Z</time>
      </trkpt>
      <trkpt lat="47.20353" lon="-2.15372">
        <ele>11.2</ele>
        <time>2020-06-05T12:00:06Z</time>
      </trkpt>
      <trkpt lat="47.20356" lon="-2.15377">
        <ele>11.1</ele>
        <time>2020-06-05T12:00:07Z</time>
      </trkpt>
      <trkpt lat="47.20358" lon="-2.15383">
        <ele>10.9</ele>
        <time>2020-06-05T12:00:08Z</time>
      </trkpt>
      <trkpt lat="47.20361" lon="-2.15388">
        <ele>10.8</ele>
        <time>2020-06-05T12:00:09Z</time>
      </trkpt>
      <trkpt lat="47.20365" lon="-2.15393">
        <ele>10.6</ele>
        <time>2020-06-05T12:00:10Z</time>
      </trkpt>
      <trkpt lat="47.20368" lon="-2.15399">
        <ele>10.5</ele>
        <time>2020-06-05T12:00:11Z</time>
      </trkpt>
      <trkpt lat="47.2037" lon="-2.15405">
        <ele>10.4</ele>
        <time>2020-06-05T12:00:12Z</time>
      </trkpt>
      <trkpt lat="47.20374" lon="-2.15412">
        <ele>10.3</ele>
        <time>2020-06-05T12:00:13Z</time>
      </trkpt>
      <trkpt lat="47.20377" lon="-2.15418">
        <ele>10.2</ele>
        <time>2020-06-05T12:00:14Z</time>
      </trkpt>
      <trkpt lat="47.2038" lon="-2.15424">
        <ele>10.1</ele>
        <time>2020-06-05T12:00:15Z</time>
      </trkpt>
      <trkpt lat="47.20383" lon="-2.15429">
        <ele>10.1</ele>
        <time>2020-06-05T12:00:16Z</time>
      </trkpt>
      <trkpt lat="47.20385" lon="-2.15435">
        <ele>10.1</ele>
        <time>2020-06-05T12:00:17Z</time>
      </trkpt>
      <trkpt lat="47.20387" lon="-2.1544">
        <ele>10.1</ele>
        <time>2020-06-05T12:00:18Z</time>
      </trkpt>
      <trkpt lat="47.2039" lon="-2.15445">
        <ele>10.1</ele>
        <time>2020-06-05T12:00:19Z</time>
      </trkpt>
      <trkpt lat="47.20393" lon="-2.1545">
        <ele>10.1</ele>
        <time>2020-06-05T12:00:20Z</time>
      </trkpt>
      <trkpt lat="47.20397" lon="-2.15453">
        <ele>10.1</ele>
        <time>2020-06-05T12:00:21Z</time>
      </trkpt>
      <trkpt lat="47.20401" lon="-2.15456">
        <ele>10.1</ele>
        <time>2020-06-05T12:00:22Z</time>
      </trkpt>
      <trkpt lat="47.20405" lon="-2.15461">
        <ele>10.1</ele>
        <time>2020-06-05T12:00:23Z</time>
      </trkpt>
      <trkpt lat="47.20408" lon="-2.15465">
        <ele>10.1</ele>
        <time>2020-06-05T12:00:24Z</time>
      </trkpt>
      <trkpt lat="47.20414" lon="-2.1547">
        <ele>10.1</ele>
        <time>2020-06-05T12:00:25Z</time>
      </trkpt>
      <trkpt lat="47.20418" lon="-2.15476">
        <ele>10.1</ele>
        <time>2020-06-05T12:00:26Z</time>
      </trkpt>
      <trkpt lat="47.20423" lon="-2.15481">
        <ele>10.1</ele>
        <time>2020-06-05T12:00:27Z</time>
      </trkpt>
      <trkpt lat="47.20428" lon="-2.15486">
        <ele>10.1</ele>
        <time>2020-06-05T12:00:28Z</time>
      </trkpt>
      <trkpt lat="47.20432" lon="-2.15491">
        <ele>10.1</ele>
        <time>2020-06-05T12:00:29Z</time>
      </trkpt>
      <trkpt lat="47.20436" lon="-2.15494">
        <ele>10.1</ele>
        <time>2020-06-05T12:00:30Z</time>
      </trkpt>
      <trkpt lat="47.2044" lon="-2.15498">
        <ele>10.1</ele>
        <time>2020-06-05T12:00:31Z</time>
      </trkpt>
      <trkpt lat="47.20443" lon="-2.155">
        <ele>10.1</ele>
        <time>2020-06-05T12:00:32Z</time>
      </trkpt>
      <trkpt lat="47.20448" lon="-2.15502">
        <ele>10.1</ele>
        <time>2020-06-05T12:00:33Z</time>
      </trkpt>
      <trkpt lat="47.20452" lon="-2.15503">
        <ele>10.1</ele>
        <time>2020-06-05T12:00:34Z</time>
      </trkpt>
      <trkpt lat="47.20455" lon="-2.15502">
        <ele>10.1</ele>
        <time>2020-06-05T12:00:35Z</time>
      </trkpt>
      <trkpt lat="47.20458" lon="-2.15503">
        <ele>10.2</ele>
        <time>2020-06-05T12:00:36Z</time>
      </trkpt>
      <trkpt lat="47.20459" lon="-2.15503">
        <ele>10.2</ele>
        <time>2020-06-05T12:00:37Z</time>
      </trkpt>
      <trkpt lat="47.20462" lon="-2.15504">
        <ele>10.2</ele>
        <time>2020-06-05T12:00:38Z</time>
      </trkpt>
      <trkpt lat="47.20463" lon="-2.15505">
        <ele>10.2</ele>
        <time>2020-06-05T12:00:39Z</time>
      </trkpt>
      <trkpt lat="47.20466" lon="-2.15503">
        <ele>10.2</ele>
        <time>2020-06-05T12:00:40Z</time>
      </trkpt>
      <trkpt lat="47.20467" lon="-2.15502">
        <ele>10.2</ele>
        <time>2020-06-05T12:00:41Z</time>
      </trkpt>
      <trkpt lat="47.20467" lon="-2.15498">
        <ele>10.6</ele>
        <time>2020-06-05T12:00:42Z</time>
      </trkpt>
      <trkpt lat="47.20466" lon="-2.15497">
        <ele>10.6</ele>
        <time>2020-06-05T12:00:43Z</time>
      </trkpt>
      <trkpt lat="47.20467" lon="-2.15492">
        <ele>10.6</ele>
        <time>2020-06-05T12:00:44Z</time>
      </trkpt>
      <trkpt lat="47.20467" lon="-2.1549">
        <ele>10.6</ele>
        <time>2020-06-05T12:00:45Z</time>
      </trkpt>
      <trkpt lat="47.20468" lon="-2.15485">
        <ele>10.6</ele>
        <time>2020-06-05T12:00:46Z</time>
      </trkpt>
      <trkpt lat="47.20469" lon="-2.15479">
        <ele>10.7</ele>
        <time>2020-06-05T12:00:47Z</time>
      </trkpt>
      <trkpt lat="47.20471" lon="-2.15473">
        <ele>10.8</ele>
        <time>2020-06-05T12:00:48Z</time>
      </trkpt>
      <trkpt lat="47.20473" lon="-2.15467">
        <ele>10.8</ele>
        <time>2020-06-05T12:00:49Z</time>
      </trkpt>
      <trkpt lat="47.20475" lon="-2.15461">
        <ele>10.9</ele>
        <time>2020-06-05T12:00:50Z</time>
      </trkpt>
      <trkpt lat="47.20477" lon="-2.15455">
        <ele>11</ele>
        <time>2020-06-05T12:00:51Z</time>
      </trkpt>
      <trkpt lat="47.20478" lon="-2.15449">
        <ele>11</ele>
        <time>2020-06-05T12:00:52Z</time>
      </trkpt>
      <trkpt lat="47.2048" lon="-2.15442">
        <ele>11</ele>
        <time>2020-06-05T12:00:53Z</time>
      </trkpt>
      <trkpt lat="47.20483" lon="-2.15435">
        <ele>11.1</ele>
        <time>2020-06-05T12:00:54Z</time>
      </trkpt>
      <trkpt lat="47.20484" lon="-2.15428">
        <ele>11.1</ele>
        <time>2020-06-05T12:00:55Z</time>
      </trkpt>
      <trkpt lat="47.20486" lon="-2.1542">
        <ele>11.2</ele>
        <time>2020-06-05T12:00:56Z</time>
      </trkpt>
      <trkpt lat="47.20489" lon="-2.15413">
        <ele>11.3</ele>
        <time>2020-06-05T12:00:57Z</time>
      </trkpt>
      <trkpt lat="47.20491" lon="-2.15406">
        <ele>11.3</ele>
        <time>2020-06-05T12:00:58Z</time>
      </trkpt>
      <trkpt lat="47.20493" lon="-2.15398">
        <ele>11.4</ele>
        <time>2020-06-05T12:00:59Z</time>
      </trkpt>
      <trkpt lat="47.20494" lon="-2.15391">
        <ele>11.4</ele>
        <time>2020-06-05T12:01:00Z</time>
      </trkpt>
      <trkpt lat="47.20495" lon="-2.15384">
        <ele>11.4</ele>
        <time>2020-06-05T12:01:01Z</time>
      </trkpt>
      <trkpt lat="47.20496" lon="-2.15377">
        <ele>11.4</ele>
        <time>2020-06-05T12:01:02Z</time>
      </trkpt>
      <trkpt lat="47.20497" lon="-2.15369">
        <ele>11.4</ele>
        <time>2020-06-05T12:01:03Z</time>
      </trkpt>
      <trkpt lat="47.20498" lon="-2.1536">
        <ele>11.4</ele>
        <time>2020-06-05T12:01:04Z</time>
      </trkpt>
      <trkpt lat="47.205" lon="-2.15352">
        <ele>11.4</ele>
        <time>2020-06-05T12:01:05Z</time>
      </trkpt>
      <trkpt lat="47.20501" lon="-2.15344">
        <ele>11.5</ele>
        <time>2020-06-05T12:01:06Z</time>
      </trkpt>
      <trkpt lat="47.20501" lon="-2.15336">
        <ele>11.5</ele>
        <time>2020-06-05T12:01:07Z</time>
      </trkpt>
      <trkpt lat="47.20502" lon="-2.15329">
        <ele>11.5</ele>
        <time>2020-06-05T12:01:08Z</time>
      </trkpt>
      <trkpt lat="47.20503" lon="-2.15321">
        <ele>11.6</ele>
        <time>2020-06-05T12:01:09Z</time>
      </trkpt>
      <trkpt lat="47.20504" lon="-2.15314">
        <ele>11.6</ele>
        <time>2020-06-05T12:01:10Z</time>
      </trkpt>
      <trkpt lat="47.20505" lon="-2.15306">
        <ele>11.6</ele>
        <time>2020-06-05T12:01:11Z</time>
      </trkpt>
      <trkpt lat="47.20508" lon="-2.15295">
        <ele>11.6</ele>
        <time>2020-06-05T12:01:12Z</time>
      </trkpt>
      <trkpt lat="47.20509" lon="-2.15288">
        <ele>11.6</ele>
        <time>2020-06-05T12:01:13Z</time>
      </trkpt>
      <trkpt lat="47.2051" lon="-2.1528">
        <ele>11.6</ele>
        <time>2020-06-05T12:01:14Z</time>
      </trkpt>
      <trkpt lat="47.20512" lon="-2.15273">
        <ele>11.6</ele>
        <time>2020-06-05T12:01:15Z</time>
      </trkpt>
      <trkpt lat="47.20513" lon="-2.15266">
        <ele>11.7</ele>
        <time>2020-06-05T12:01:16Z</time>
      </trkpt>
      <trkpt lat="47.20515" lon="-2.15259">
        <ele>11.7</ele>
        <time>2020-06-05T12:01:17Z</time>
      </trkpt>
      <trkpt lat="47.20518" lon="-2.15254">
        <ele>11.7</ele>
        <time>2020-06-05T12:01:18Z</time>
      </trkpt>
      <trkpt lat="47.20522" lon="-2.15251">
        <ele>11.6</ele>
        <time>2020-06-05T12:01:19Z</time>
      </trkpt>
      <trkpt lat="47.20527" lon="-2.15249">
        <ele>11.5</ele>
        <time>2020-06-05T12:01:20Z</time>
      </trkpt>
      <trkpt lat="47.20533" lon="-2.15249">
        <ele>11.3</ele>
        <time>2020-06-05T12:01:21Z</time>
      </trkpt>
      <trkpt lat="47.20538" lon="-2.15249">
        <ele>11.2</ele>
        <time>2020-06-05T12:01:22Z</time>
      </trkpt>
      <trkpt lat="47.20544" lon="-2.1525">
        <ele>11.1</ele>
        <time>2020-06-05T12:01:23Z</time>
      </trkpt>
      <trkpt lat="47.20549" lon="-2.1525">
        <ele>11</ele>
        <time>2020-06-05T12:01:24Z</time>
      </trkpt>
      <trkpt lat="47.20555" lon="-2.15251">
        <ele>10.9</ele>
        <time>2020-06-05T12:01:25Z</time>
      </trkpt>
      <trkpt lat="47.20561" lon="-2.15254">
        <ele>10.7</ele>
        <time>2020-06-05T12:01:26Z</time>
      </trkpt>
      <trkpt lat="47.20566" lon="-2.15256">
        <ele>10.6</ele>
        <time>2020-06-05T12:01:27Z</time>
      </trkpt>
      <trkpt lat="47.20573" lon="-2.15257">
        <ele>10.5</ele>
        <time>2020-06-05T12:01:28Z</time>
      </trkpt>
      <trkpt lat="47.20578" lon="-2.15257">
        <ele>10.4</ele>
        <time>2020-06-05T12:01:29Z</time>
      </trkpt>
      <trkpt lat="47.20585" lon="-2.15258">
        <ele>10.3</ele>
        <time>2020-06-05T12:01:30Z</time>
      </trkpt>
      <trkpt lat="47.2059" lon="-2.15259">
        <ele>10.2</ele>
        <time>2020-06-05T12:01:31Z</time>
      </trkpt>
      <trkpt lat="47.20597" lon="-2.15262">
        <ele>10.1</ele>
        <time>2020-06-05T12:01:32Z</time>
      </trkpt>
      <trkpt lat="47.20603" lon="-2.15264">
        <ele>10</ele>
        <time>2020-06-05T12:01:33Z</time>
      </trkpt>
      <trkpt lat="47.20608" lon="-2.15265">
        <ele>9.9</ele>
        <time>2020-06-05T12:01:34Z</time>
      </trkpt>
      <trkpt lat="47.20615" lon="-2.15265">
        <ele>9.8</ele>
        <time>2020-06-05T12:01:35Z</time>
      </trkpt>
      <trkpt lat="47.20621" lon="-2.15266">
        <ele>9.8</ele>
        <time>2020-06-05T12:01:36Z</time>
      </trkpt>
      <trkpt lat="47.20626" lon="-2.15267">
        <ele>9.8</ele>
        <time>2020-06-05T12:01:37Z</time>
      </trkpt>
      <trkpt lat="47.20631" lon="-2.15269">
        <ele>9.8</ele>
        <time>2020-06-05T12:01:38Z</time>
      </trkpt>
      <trkpt lat="47.20636" lon="-2.15269">
        <ele>9.8</ele>
        <time>2020-06-05T12:01:39Z</time>
      </trkpt>
      <trkpt lat="47.20641" lon="-2.1527">
        <ele>9.8</ele>
        <time>2020-06-05T12:01:40Z</time>
      </trkpt>
      <trkpt lat="47.20647" lon="-2.1527">
        <ele>9.7</ele>
        <time>2020-06-05T12:01:41Z</time>
      </trkpt>
      <trkpt lat="47.20651" lon="-2.1527">
        <ele>9.7</ele>
        <time>2020-06-05T12:01:42Z</time>
      </trkpt>
      <trkpt lat="47.20656" lon="-2.1527">
        <ele>9.7</ele>
        <time>2020-06-05T12:01:43Z</time>
      </trkpt>
      <trkpt lat="47.20661" lon="-2.15269">
        <ele>9.7</ele>
        <time>2020-06-05T12:01:44Z</time>
      </trkpt>
      <trkpt lat="47.20667" lon="-2.15268">
        <ele>9.7</ele>
        <time>2020-06-05T12:01:45Z</time>
      </trkpt>
      <trkpt lat="47.20673" lon="-2.15269">
        <ele>9.7</ele>
        <time>2020-06-05T12:01:46Z</time>
      </trkpt>
      <trkpt lat="47.20679" lon="-2.1527">
        <ele>9.6</ele>
        <time>2020-06-05T12:01:47Z</time>
      </trkpt>
      <trkpt lat="47.20685" lon="-2.15273">
        <ele>9.6</ele>
        <time>2020-06-05T12:01:48Z</time>
      </trkpt>
      <trkpt lat="47.20691" lon="-2.15274">
        <ele>9.6</ele>
        <time>2020-06-05T12:01:49Z</time>
      </trkpt>
      <trkpt lat="47.20696" lon="-2.15275">
        <ele>9.5</ele>
        <time>2020-06-05T12:01:50Z</time>
      </trkpt>
      <trkpt lat="47.20705" lon="-2.15278">
        <ele>9.4</ele>
        <time>2020-06-05T12:01:51Z</time>
      </trkpt>
      <trkpt lat="47.20711" lon="-2.15281">
        <ele>9.4</ele>
        <time>2020-06-05T12:01:52Z</time>
      </trkpt>
      <trkpt lat="47.20717" lon="-2.15282">
        <ele>9.3</ele>
        <time>2020-06-05T12:01:53Z</time>
      </trkpt>
      <trkpt lat="47.20723" lon="-2.15284">
        <ele>9.2</ele>
        <time>2020-06-05T12:01:54Z</time>
      </trkpt>
      <trkpt lat="47.20729" lon="-2.15285">
        <ele>9.1</ele>
        <time>2020-06-05T12:01:55Z</time>
      </trkpt>
      <trkpt lat="47.20734" lon="-2.15287">
        <ele>9</ele>
        <time>2020-06-05T12:01:56Z</time>
      </trkpt>
      <trkpt lat="47.2074" lon="-2.15289">
        <ele>9</ele>
        <time>2020-06-05T12:01:57Z</time>
      </trkpt>
      <trkpt lat="47.20744" lon="-2.1529">
        <ele>8.9</ele>
        <time>2020-06-05T12:01:58Z</time>
      </trkpt>
      <trkpt lat="47.20749" lon="-2.15291">
        <ele>8.9</ele>
        <time>2020-06-05T12:01:59Z</time>
      </trkpt>
      <trkpt lat="47.20754" lon="-2.15291">
        <ele>8.8</ele>
        <time>2020-06-05T12:02:00Z</time>
      </trkpt>
      <trkpt lat="47.20759" lon="-2.15292">
        <ele>8.7</ele>
        <time>2020-06-05T12:02:01Z</time>
      </trkpt>
      <trkpt lat="47.20766" lon="-2.15292">
        <ele>8.6</ele>
        <time>2020-06-05T12:02:02Z</time>
      </trkpt>
      <trkpt lat="47.20773" lon="-2.15293">
        <ele>8.5</ele>
        <time>2020-06-05T12:02:03Z</time>
      </trkpt>
      <trkpt lat="47.2078" lon="-2.15295">
        <ele>8.4</ele>
        <time>2020-06-05T12:02:04Z</time>
      </trkpt>
      <trkpt lat="47.20786" lon="-2.15297">
        <ele>8.4</ele>
        <time>2020-06-05T12:02:05Z</time>
      </trkpt>
      <trkpt lat="47.20791" lon="-2.15299">
        <ele>8.3</ele>
        <time>2020-06-05T12:02:06Z</time>
      </trkpt>
      <trkpt lat="47.20796" lon="-2.15298">
        <ele>8.3</ele>
        <time>2020-06-05T12:02:07Z</time>
      </trkpt>
      <trkpt lat="47.20803" lon="-2.15297">
        <ele>8.2</ele>
        <time>2020-06-05T12:02:08Z</time>
      </trkpt>
      <trkpt lat="47.20809" lon="-2.153">
        <ele>8</ele>
        <time>2020-06-05T12:02:09Z</time>
      </trkpt>
      <trkpt lat="47.20814" lon="-2.15303">
        <ele>8</ele>
        <time>2020-06-05T12:02:10Z</time>
      </trkpt>
      <trkpt lat="47.2082" lon="-2.15306">
        <ele>7.9</ele>
        <time>2020-06-05T12:02:11Z</time>
      </trkpt>
      <trkpt lat="47.20825" lon="-2.15309">
        <ele>7.8</ele>
        <time>2020-06-05T12:02:12Z</time>
      </trkpt>
      <trkpt lat="47.20832" lon="-2.15313">
        <ele>7.7</ele>
        <time>2020-06-05T12:02:13Z</time>
      </trkpt>
      <trkpt lat="47.20838" lon="-2.15315">
        <ele>7.5</ele>
        <time>2020-06-05T12:02:14Z</time>
      </trkpt>
      <trkpt lat="47.20843" lon="-2.15317">
        <ele>7.4</ele>
        <time>2020-06-05T12:02:15Z</time>
      </trkpt>
      <trkpt lat="47.20849" lon="-2.1532">
        <ele>7.2</ele>
        <time>2020-06-05T12:02:16Z</time>
      </trkpt>
      <trkpt lat="47.20855" lon="-2.15321">
        <ele>7.1</ele>
        <time>2020-06-05T12:02:17Z</time>
      </trkpt>
      <trkpt lat="47.20862" lon="-2.15326">
        <ele>6.9</ele>
        <time>2020-06-05T12:02:18Z</time>
      </trkpt>
      <trkpt lat="47.20868" lon="-2.1533">
        <ele>6.8</ele>
        <time>2020-06-05T12:02:19Z</time>
      </trkpt>
      <trkpt lat="47.20874" lon="-2.15334">
        <ele>6.7</ele>
        <time>2020-06-05T12:02:20Z</time>
      </trkpt>
      <trkpt lat="47.20881" lon="-2.15337">
        <ele>6.6</ele>
        <time>2020-06-05T12:02:21Z</time>
      </trkpt>
      <trkpt lat="47.20887" lon="-2.15342">
        <ele>6.4</ele>
        <time>2020-06-05T12:02:22Z</time>
      </trkpt>
      <trkpt lat="47.20892" lon="-2.15348">
        <ele>6.4</ele>
        <time>2020-06-05T12:02:23Z</time>
      </trkpt>
      <trkpt lat="47.20897" lon="-2.15353">
        <ele>6.3</ele>
        <time>2020-06-05T12:02:24Z</time>
      </trkpt>
      <trkpt lat="47.20903" lon="-2.15359">
        <ele>6.2</ele>
        <time>2020-06-05T12:02:25Z</time>
      </trkpt>
      <trkpt lat="47.20909" lon="-2.15365">
        <ele>6.1</ele>
        <time>2020-06-05T12:02:26Z</time>
      </trkpt>
      <trkpt lat="47.20913" lon="-2.1537">
        <ele>6</ele>
        <time>2020-06-05T12:02:27Z</time>
      </trkpt>
      <trkpt lat="47.20918" lon="-2.15375">
        <ele>5.9</ele>
        <time>2020-06-05T12:02:28Z</time>
      </trkpt>
      <trkpt lat="47.20923" lon="-2.15382">
        <ele>5.8</ele>
        <time>2020-06-05T12:02:29Z</time>
      </trkpt>
      <trkpt lat="47.20929" lon="-2.15388">
        <ele>5.7</ele>
        <time>2020-06-05T12:02:30Z</time>
      </trkpt>
      <trkpt lat="47.20934" lon="-2.15394">
        <ele>5.7</ele>
        <time>2020-06-05T12:02:31Z</time>
      </trkpt>
      <trkpt lat="47.20939" lon="-2.154">
        <ele>5.6</ele>
        <time>2020-06-05T12:02:32Z</time>
      </trkpt>
      <trkpt lat="47.20943" lon="-2.15407">
        <ele>5.6</ele>
        <time>2020-06-05T12:02:33Z</time>
      </trkpt>
      <trkpt lat="47.20948" lon="-2.15414">
        <ele>5.5</ele>
        <time>2020-06-05T12:02:34Z</time>
      </trkpt>
      <trkpt lat="47.20951" lon="-2.15421">
        <ele>5.5</ele>
        <time>2020-06-05T12:02:35Z</time>
      </trkpt>
      <trkpt lat="47.20955" lon="-2.15429">
        <ele>5.4</ele>
        <time>2020-06-05T12:02:36Z</time>
      </trkpt>
      <trkpt lat="47.20959" lon="-2.15435">
        <ele>5.3</ele>
        <time>2020-06-05T12:02:37Z</time>
      </trkpt>
      <trkpt lat="47.20963" lon="-2.15442">
        <ele>5.3</ele>
        <time>2020-06-05T12:02:38Z</time>
      </trkpt>
      <trkpt lat="47.20968" lon="-2.1545">
        <ele>5.2</ele>
        <time>2020-06-05T12:02:39Z</time>
      </trkpt>
      <trkpt lat="47.20972" lon="-2.15457">
        <ele>5.1</ele>
        <time>2020-06-05T12:02:40Z</time>
      </trkpt>
      <trkpt lat="47.20976" lon="-2.15463">
        <ele>5.1</ele>
        <time>2020-06-05T12:02:41Z</time>
      </trkpt>
      <trkpt lat="47.20981" lon="-2.15469">
        <ele>5.1</ele>
        <time>2020-06-05T12:02:42Z</time>
      </trkpt>
      <trkpt lat="47.20984" lon="-2.15476">
        <ele>5</ele>
        <time>2020-06-05T12:02:43Z</time>
      </trkpt>
      <trkpt lat="47.20987" lon="-2.15482">
        <ele>5</ele>
        <time>2020-06-05T12:02:44Z</time>
      </trkpt>
      <trkpt lat="47.20991" lon="-2.1549">
        <ele>5</ele>
        <time>2020-06-05T12:02:45Z</time>
      </trkpt>
      <trkpt lat="47.20995" lon="-2.15498">
        <ele>4.9</ele>
        <time>2020-06-05T12:02:46Z</time>
      </trkpt>
      <trkpt lat="47.20999" lon="-2.15506">
        <ele>4.9</ele>
        <time>2020-06-05T12:02:47Z</time>
      </trkpt>
      <trkpt lat="47.21003" lon="-2.15513">
        <ele>4.9</ele>
        <time>2020-06-05T12:02:48Z</time>
      </trkpt>
      <trkpt lat="47.21007" lon="-2.15519">
        <ele>4.9</ele>
        <time>2020-06-05T12:02:49Z</time>
      </trkpt>
      <trkpt lat="47.21011" lon="-2.15525">
        <ele>4.8</ele>
        <time>2020-06-05T12:02:50Z</time>
      </trkpt>
      <trkpt lat="47.21015" lon="-2.15531">
        <ele>4.8</ele>
        <time>2020-06-05T12:02:51Z</time>
      </trkpt>
      <trkpt lat="47.21019" lon="-2.15536">
        <ele>4.8</ele>
        <time>2020-06-05T12:02:52Z</time>
      </trkpt>
      <trkpt lat="47.21023" lon="-2.1554">
        <ele>4.8</ele>
        <time>2020-06-05T12:02:53Z</time>
      </trkpt>
      <trkpt lat="47.21028" lon="-2.15547">
        <ele>4.8</ele>
        <time>2020-06-05T12:02:54Z</time>
      </trkpt>
      <trkpt lat="47.21033" lon="-2.15551">
        <ele>4.8</ele>
        <time>2020-06-05T12:02:55Z</time>
      </trkpt>
      <trkpt lat="47.21036" lon="-2.15558">
        <ele>4.8</ele>
        <time>2020-06-05T12:02:56Z</time>
      </trkpt>
      <trkpt lat="47.2104" lon="-2.15565">
        <ele>4.8</ele>
        <time>2020-06-05T12:02:57Z</time>
      </trkpt>
      <trkpt lat="47.21044" lon="-2.15572">
        <ele>4.8</ele>
        <time>2020-06-05T12:02:58Z</time>
      </trkpt>
      <trkpt lat="47.21048" lon="-2.15578">
        <ele>4.8</ele>
        <time>2020-06-05T12:02:59Z</time>
      </trkpt>
      <trkpt lat="47.21053" lon="-2.15585">
        <ele>4.8</ele>
        <time>2020-06-05T12:03:00Z</time>
      </trkpt>
      <trkpt lat="47.21057" lon="-2.15591">
        <ele>4.8</ele>
        <time>2020-06-05T12:03:01Z</time>
      </trkpt>
      <trkpt lat="47.21061" lon="-2.15597">
        <ele>4.8</ele>
        <time>2020-06-05T12:03:02Z</time>
      </trkpt>
      <trkpt lat="47.21065" lon="-2.15603">
        <ele>4.8</ele>
        <time>2020-06-05T12:03:03Z</time>
      </trkpt>
      <trkpt lat="47.21069" lon="-2.1561">
        <ele>4.8</ele>
        <time>2020-06-05T12:03:04Z</time>
      </trkpt>
      <trkpt lat="47.21074" lon="-2.15618">
        <ele>4.8</ele>
        <time>2020-06-05T12:03:05Z</time>
      </trkpt>
      <trkpt lat="47.21078" lon="-2.15625">
        <ele>4.8</ele>
        <time>2020-06-05T12:03:06Z</time>
      </trkpt>
      <trkpt lat="47.21082" lon="-2.15632">
        <ele>4.8</ele>
        <time>2020-06-05T12:03:07Z</time>
      </trkpt>
      <trkpt lat="47.21085" lon="-2.15638">
        <ele>4.8</ele>
        <time>2020-06-05T12:03:08Z</time>
      </trkpt>
      <trkpt lat="47.21088" lon="-2.15646">
        <ele>4.8</ele>
        <time>2020-06-05T12:03:09Z</time>
      </trkpt>
      <trkpt lat="47.21092" lon="-2.15653">
        <ele>4.9</ele>
        <time>2020-06-05T12:03:10Z</time>
      </trkpt>
      <trkpt lat="47.21096" lon="-2.15659">
        <ele>4.9</ele>
        <time>2020-06-05T12:03:11Z</time>
      </trkpt>
      <trkpt lat="47.211" lon="-2.15666">
        <ele>4.9</ele>
        <time>2020-06-05T12:03:12Z</time>
      </trkpt>
      <trkpt lat="47.21104" lon="-2.15673">
        <ele>4.9</ele>
        <time>2020-06-05T12:03:13Z</time>
      </trkpt>
      <trkpt lat="47.21107" lon="-2.1568">
        <ele>4.9</ele>
        <time>2020-06-05T12:03:14Z</time>
      </trkpt>
      <trkpt lat="47.21112" lon="-2.15687">
        <ele>4.9</ele>
        <time>2020-06-05T12:03:15Z</time>
      </trkpt>
      <trkpt lat="47.21116" lon="-2.15694">
        <ele>4.8</ele>
        <time>2020-06-05T12:03:16Z</time>
      </trkpt>
      <trkpt lat="47.21121" lon="-2.15701">
        <ele>4.8</ele>
        <time>2020-06-05T12:03:17Z</time>
      </trkpt>
      <trkpt lat="47.21126" lon="-2.15709">
        <ele>4.8</ele>
        <time>2020-06-05T12:03:18Z</time>
      </trkpt>
      <trkpt lat="47.2113" lon="-2.15716">
        <ele>4.8</ele>
        <time>2020-06-05T12:03:19Z</time>
      </trkpt>
      <trkpt lat="47.21135" lon="-2.15724">
        <ele>4.8</ele>
        <time>2020-06-05T12:03:20Z</time>
      </trkpt>
      <trkpt lat="47.2114" lon="-2.15731">
        <ele>4.8</ele>
        <time>2020-06-05T12:03:21Z</time>
      </trkpt>
      <trkpt lat="47.21146" lon="-2.15736">
        <ele>4.7</ele>
        <time>2020-06-05T12:03:22Z</time>
      </trkpt>
      <trkpt lat="47.21151" lon="-2.15743">
        <ele>4.6</ele>
        <time>2020-06-05T12:03:23Z</time>
      </trkpt>
      <trkpt lat="47.21156" lon="-2.15751">
        <ele>4.7</ele>
        <time>2020-06-05T12:03:24Z</time>
      </trkpt>
      <trkpt lat="47.2116" lon="-2.15757">
        <ele>4.7</ele>
        <time>2020-06-05T12:03:25Z</time>
      </trkpt>
      <trkpt lat="47.21164" lon="-2.15764">
        <ele>4.8</ele>
        <time>2020-06-05T12:03:26Z</time>
      </trkpt>
      <trkpt lat="47.21168" lon="-2.1577">
        <ele>4.8</ele>
        <time>2020-06-05T12:03:27Z</time>
      </trkpt>
      <trkpt lat="47.21172" lon="-2.15775">
        <ele>4.8</ele>
        <time>2020-06-05T12:03:28Z</time>
      </trkpt>
      <trkpt lat="47.21176" lon="-2.15781">
        <ele>4.8</ele>
        <time>2020-06-05T12:03:29Z</time>
      </trkpt>
      <trkpt lat="47.21181" lon="-2.15788">
        <ele>4.8</ele>
        <time>2020-06-05T12:03:30Z</time>
      </trkpt>
      <trkpt lat="47.21185" lon="-2.15794">
        <ele>4.8</ele>
        <time>2020-06-05T12:03:31Z</time>
      </trkpt>
      <trkpt lat="47.21188" lon="-2.15801">
        <ele>4.8</ele>
        <time>2020-06-05T12:03:32Z</time>
      </trkpt>
      <trkpt lat="47.21193" lon="-2.15807">
        <ele>4.8</ele>
        <time>2020-06-05T12:03:33Z</time>
      </trkpt>
      <trkpt lat="47.21196" lon="-2.15814">
        <ele>4.8</ele>
        <time>2020-06-05T12:03:34Z</time>
      </trkpt>
      <trkpt lat="47.21199" lon="-2.15819">
        <ele>4.8</ele>
        <time>2020-06-05T12:03:35Z</time>
      </trkpt>
      <trkpt lat="47.21203" lon="-2.15825">
        <ele>4.8</ele>
        <time>2020-06-05T12:03:36Z</time>
      </trkpt>
      <trkpt lat="47.21208" lon="-2.1583">
        <ele>4.8</ele>
        <time>2020-06-05T12:03:37Z</time>
      </trkpt>
      <trkpt lat="47.21212" lon="-2.15835">
        <ele>4.8</ele>
        <time>2020-06-05T12:03:38Z</time>
      </trkpt>
      <trkpt lat="47.21216" lon="-2.15841">
        <ele>4.8</ele>
        <time>2020-06-05T12:03:39Z</time>
      </trkpt>
      <trkpt lat="47.21221" lon="-2.15846">
        <ele>4.7</ele>
        <time>2020-06-05T12:03:40Z</time>
      </trkpt>
      <trkpt lat="47.21225" lon="-2.15851">
        <ele>4.7</ele>
        <time>2020-06-05T12:03:41Z</time>
      </trkpt>
      <trkpt lat="47.2123" lon="-2.15855">
        <ele>4.7</ele>
        <time>2020-06-05T12:03:42Z</time>
      </trkpt>
      <trkpt lat="47.21235" lon="-2.15861">
        <ele>4.7</ele>
        <time>2020-06-05T12:03:43Z</time>
      </trkpt>
      <trkpt lat="47.2124" lon="-2.15866">
        <ele>4.7</ele>
        <time>2020-06-05T12:03:44Z</time>
      </trkpt>
      <trkpt lat="47.21246" lon="-2.15872">
        <ele>4.7</ele>
        <time>2020-06-05T12:03:45Z</time>
      </trkpt>
      <trkpt lat="47.2125" lon="-2.15877">
        <ele>4.7</ele>
        <time>2020-06-05T12:03:46Z</time>
      </trkpt>
      <trkpt lat="47.21256" lon="-2.15881">
        <ele>4.7</ele>
        <time>2020-06-05T12:03:47Z</time>
      </trkpt>
      <trkpt lat="47.21262" lon="-2.15885">
        <ele>4.7</ele>
        <time>2020-06-05T12:03:48Z</time>
      </trkpt>
      <trkpt lat="47.21266" lon="-2.15889">
        <ele>4.7</ele>
        <time>2020-06-05T12:03:49Z</time>
      </trkpt>
      <trkpt lat="47.21271" lon="-2.15893">
        <ele>4.7</ele>
        <time>2020-06-05T12:03:50Z</time>
      </trkpt>
      <trkpt lat="47.21276" lon="-2.15896">
        <ele>4.7</ele>
        <time>2020-06-05T12:03:51Z</time>
      </trkpt>
      <trkpt lat="47.21281" lon="-2.159">
        <ele>4.7</ele>
        <time>2020-06-05T12:03:52Z</time>
      </trkpt>
      <trkpt lat="47.21287" lon="-2.15903">
        <ele>4.7</ele>
        <time>2020-06-05T12:03:53Z</time>
      </trkpt>
      <trkpt lat="47.21292" lon="-2.15907">
        <ele>4.7</ele>
        <time>2020-06-05T12:03:54Z</time>
      </trkpt>
      <trkpt lat="47.21298" lon="-2.1591">
        <ele>4.7</ele>
        <time>2020-06-05T12:03:55Z</time>
      </trkpt>
      <trkpt lat="47.21303" lon="-2.15912">
        <ele>4.6</ele>
        <time>2020-06-05T12:03:56Z</time>
      </trkpt>
      <trkpt lat="47.21309" lon="-2.15915">
        <ele>4.6</ele>
        <time>2020-06-05T12:03:57Z</time>
      </trkpt>
      <trkpt lat="47.21315" lon="-2.15918">
        <ele>4.6</ele>
        <time>2020-06-05T12:03:58Z</time>
      </trkpt>
      <trkpt lat="47.21321" lon="-2.15922">
        <ele>4.6</ele>
        <time>2020-06-05T12:03:59Z</time>
      </trkpt>
      <trkpt lat="47.21328" lon="-2.15924">
        <ele>4.6</ele>
        <time>2020-06-05T12:04:00Z</time>
      </trkpt>
      <trkpt lat="47.21334" lon="-2.15929">
        <ele>4.5</ele>
        <time>2020-06-05T12:04:01Z</time>
      </trkpt>
      <trkpt lat="47.21342" lon="-2.15932">
        <ele>4.5</ele>
        <time>2020-06-05T12:04:02Z</time>
      </trkpt>
      <trkpt lat="47.21347" lon="-2.15936">
        <ele>4.5</ele>
        <time>2020-06-05T12:04:03Z</time>
      </trkpt>
      <trkpt lat="47.21353" lon="-2.1594">
        <ele>4.6</ele>
        <time>2020-06-05T12:04:04Z</time>
      </trkpt>
      <trkpt lat="47.21358" lon="-2.15943">
        <ele>4.6</ele>
        <time>2020-06-05T12:04:05Z</time>
      </trkpt>
      <trkpt lat="47.21363" lon="-2.15946">
        <ele>4.7</ele>
        <time>2020-06-05T12:04:06Z</time>
      </trkpt>
      <trkpt lat="47.21369" lon="-2.15949">
        <ele>4.8</ele>
        <time>2020-06-05T12:04:07Z</time>
      </trkpt>
      <trkpt lat="47.21375" lon="-2.15953">
        <ele>4.9</ele>
        <time>2020-06-05T12:04:08Z</time>
      </trkpt>
      <trkpt lat="47.21381" lon="-2.15956">
        <ele>5</ele>
        <time>2020-06-05T12:04:09Z</time>
      </trkpt>
      <trkpt lat="47.21387" lon="-2.1596">
        <ele>5.1</ele>
        <time>2020-06-05T12:04:10Z</time>
      </trkpt>
      <trkpt lat="47.21392" lon="-2.15963">
        <ele>5.2</ele>
        <time>2020-06-05T12:04:11Z</time>
      </trkpt>
      <trkpt lat="47.21397" lon="-2.15966">
        <ele>5.3</ele>
        <time>2020-06-05T12:04:12Z</time>
      </trkpt>
      <trkpt lat="47.21402" lon="-2.15969">
        <ele>5.4</ele>
        <time>2020-06-05T12:04:13Z</time>
      </trkpt>
      <trkpt lat="47.21408" lon="-2.15972">
        <ele>5.4</ele>
        <time>2020-06-05T12:04:14Z</time>
      </trkpt>
      <trkpt lat="47.21413" lon="-2.15974">
        <ele>5.4</ele>
        <time>2020-06-05T12:04:15Z</time>
      </trkpt>
      <trkpt lat="47.21418" lon="-2.15977">
        <ele>5.5</ele>
        <time>2020-06-05T12:04:16Z</time>
      </trkpt>
      <trkpt lat="47.21422" lon="-2.1598">
        <ele>5.5</ele>
        <time>2020-06-05T12:04:17Z</time>
      </trkpt>
      <trkpt lat="47.21428" lon="-2.15982">
        <ele>5.6</ele>
        <time>2020-06-05T12:04:18Z</time>
      </trkpt>
      <trkpt lat="47.21433" lon="-2.15985">
        <ele>5.6</ele>
        <time>2020-06-05T12:04:19Z</time>
      </trkpt>
      <trkpt lat="47.21438" lon="-2.15987">
        <ele>5.7</ele>
        <time>2020-06-05T12:04:20Z</time>
      </trkpt>
      <trkpt lat="47.21444" lon="-2.15991">
        <ele>5.8</ele>
        <time>2020-06-05T12:04:21Z</time>
      </trkpt>
      <trkpt lat="47.21447" lon="-2.15994">
        <ele>5.9</ele>
        <time>2020-06-05T12:04:22Z</time>
      </trkpt>
      <trkpt lat="47.2145" lon="-2.15997">
        <ele>6</ele>
        <time>2020-06-05T12:04:23Z</time>
      </trkpt>
      <trkpt lat="47.21454" lon="-2.15999">
        <ele>6</ele>
        <time>2020-06-05T12:04:24Z</time>
      </trkpt>
      <trkpt lat="47.21458" lon="-2.16002">
        <ele>6.1</ele>
        <time>2020-06-05T12:04:25Z</time>
      </trkpt>
      <trkpt lat="47.21462" lon="-2.16004">
        <ele>6.1</ele>
        <time>2020-06-05T12:04:26Z</time>
      </trkpt>
      <trkpt lat="47.21467" lon="-2.16007">
        <ele>6.2</ele>
        <time>2020-06-05T12:04:27Z</time>
      </trkpt>
      <trkpt lat="47.21471" lon="-2.1601">
        <ele>6.3</ele>
        <time>2020-06-05T12:04:28Z</time>
      </trkpt>
      <trkpt lat="47.21477" lon="-2.16014">
        <ele>6.4</ele>
        <time>2020-06-05T12:04:29Z</time>
      </trkpt>
      <trkpt lat="47.21481" lon="-2.16016">
        <ele>6.4</ele>
        <time>2020-06-05T12:04:30Z</time>
      </trkpt>
      <trkpt lat="47.21486" lon="-2.16019">
        <ele>6.5</ele>
        <time>2020-06-05T12:04:31Z</time>
      </trkpt>
      <trkpt lat="47.21492" lon="-2.16022">
        <ele>6.5</ele>
        <time>2020-06-05T12:04:32Z</time>
      </trkpt>
      <trkpt lat="47.21498" lon="-2.16026">
        <ele>6.5</ele>
        <time>2020-06-05T12:04:33Z</time>
      </trkpt>
      <trkpt lat="47.21504" lon="-2.16029">
        <ele>6.6</ele>
        <time>2020-06-05T12:04:34Z</time>
      </trkpt>
      <trkpt lat="47.21509" lon="-2.16032">
        <ele>6.6</ele>
        <time>2020-06-05T12:04:35Z</time>
      </trkpt>
      <trkpt lat="47.21514" lon="-2.16035">
        <ele>6.7</ele>
        <time>2020-06-05T12:04:36Z</time>
      </trkpt>
      <trkpt lat="47.21519" lon="-2.16039">
        <ele>6.7</ele>
        <time>2020-06-05T12:04:37Z</time>
      </trkpt>
      <trkpt lat="47.21523" lon="-2.16042">
        <ele>6.8</ele>
        <time>2020-06-05T12:04:38Z</time>
      </trkpt>
      <trkpt lat="47.21529" lon="-2.16046">
        <ele>6.8</ele>
        <time>2020-06-05T12:04:39Z</time>
      </trkpt>
      <trkpt lat="47.21533" lon="-2.16048">
        <ele>6.9</ele>
        <time>2020-06-05T12:04:40Z</time>
      </trkpt>
      <trkpt lat="47.21538" lon="-2.16052">
        <ele>7</ele>
        <time>2020-06-05T12:04:41Z</time>
      </trkpt>
      <trkpt lat="47.21544" lon="-2.16057">
        <ele>7</ele>
        <time>2020-06-05T12:04:42Z</time>
      </trkpt>
      <trkpt lat="47.2155" lon="-2.1606">
        <ele>7.1</ele>
        <time>2020-06-05T12:04:43Z</time>
      </trkpt>
      <trkpt lat="47.21556" lon="-2.16064">
        <ele>7.1</ele>
        <time>2020-06-05T12:04:44Z</time>
      </trkpt>
      <trkpt lat="47.21562" lon="-2.16068">
        <ele>7.1</ele>
        <time>2020-06-05T12:04:45Z</time>
      </trkpt>
      <trkpt lat="47.21568" lon="-2.16071">
        <ele>7.2</ele>
        <time>2020-06-05T12:04:46Z</time>
      </trkpt>
      <trkpt lat="47.21574" lon="-2.16075">
        <ele>7.2</ele>
        <time>2020-06-05T12:04:47Z</time>
      </trkpt>
      <trkpt lat="47.21581" lon="-2.16078">
        <ele>7.2</ele>
        <time>2020-06-05T12:04:48Z</time>
      </trkpt>
      <trkpt lat="47.21587" lon="-2.16082">
        <ele>7.3</ele>
        <time>2020-06-05T12:04:49Z</time>
      </trkpt>
      <trkpt lat="47.21593" lon="-2.16085">
        <ele>7.3</ele>
        <time>2020-06-05T12:04:50Z</time>
      </trkpt>
      <trkpt lat="47.21599" lon="-2.16088">
        <ele>7.3</ele>
        <time>2020-06-05T12:04:51Z</time>
      </trkpt>
      <trkpt lat="47.21603" lon="-2.16091">
        <ele>7.4</ele>
        <time>2020-06-05T12:04:52Z</time>
      </trkpt>
      <trkpt lat="47.21608" lon="-2.16094">
        <ele>7.4</ele>
        <time>2020-06-05T12:04:53Z</time>
      </trkpt>
      <trkpt lat="47.21612" lon="-2.16098">
        <ele>7.4</ele>
        <time>2020-06-05T12:04:54Z</time>
      </trkpt>
      <trkpt lat="47.21617" lon="-2.16102">
        <ele>7.5</ele>
        <time>2020-06-05T12:04:55Z</time>
      </trkpt>
      <trkpt lat="47.21622" lon="-2.16105">
        <ele>7.5</ele>
        <time>2020-06-05T12:04:56Z</time>
      </trkpt>
      <trkpt lat="47.21627" lon="-2.16109">
        <ele>7.5</ele>
        <time>2020-06-05T12:04:57Z</time>
      </trkpt>
      <trkpt lat="47.21633" lon="-2.16114">
        <ele>7.6</ele>
        <time>2020-06-05T12:04:58Z</time>
      </trkpt>
      <trkpt lat="47.2164" lon="-2.16116">
        <ele>7.6</ele>
        <time>2020-06-05T12:04:59Z</time>
      </trkpt>
      <trkpt lat="47.21646" lon="-2.1612">
        <ele>7.6</ele>
        <time>2020-06-05T12:05:00Z</time>
      </trkpt>
      <trkpt lat="47.21651" lon="-2.16122">
        <ele>7.7</ele>
        <time>2020-06-05T12:05:01Z</time>
      </trkpt>
      <trkpt lat="47.21655" lon="-2.16126">
        <ele>7.7</ele>
        <time>2020-06-05T12:05:02Z</time>
      </trkpt>
      <trkpt lat="47.2166" lon="-2.16128">
        <ele>7.7</ele>
        <time>2020-06-05T12:05:03Z</time>
      </trkpt>
      <trkpt lat="47.21665" lon="-2.16131">
        <ele>7.7</ele>
        <time>2020-06-05T12:05:04Z</time>
      </trkpt>
      <trkpt lat="47.21671" lon="-2.16133">
        <ele>7.7</ele>
        <time>2020-06-05T12:05:05Z</time>
      </trkpt>
      <trkpt lat="47.21676" lon="-2.16136">
        <ele>7.7</ele>
        <time>2020-06-05T12:05:06Z</time>
      </trkpt>
      <trkpt lat="47.21681" lon="-2.16139">
        <ele>7.7</ele>
        <time>2020-06-05T12:05:07Z</time>
      </trkpt>
      <trkpt lat="47.21685" lon="-2.16142">
        <ele>7.7</ele>
        <time>2020-06-05T12:05:08Z</time>
      </trkpt>
      <trkpt lat="47.2169" lon="-2.16145">
        <ele>7.8</ele>
        <time>2020-06-05T12:05:09Z</time>
      </trkpt>
      <trkpt lat="47.21695" lon="-2.16148">
        <ele>7.8</ele>
        <time>2020-06-05T12:05:10Z</time>
      </trkpt>
      <trkpt lat="47.217" lon="-2.16151">
        <ele>7.8</ele>
        <time>2020-06-05T12:05:11Z</time>
      </trkpt>
      <trkpt lat="47.21705" lon="-2.16155">
        <ele>7.8</ele>
        <time>2020-06-05T12:05:12Z</time>
      </trkpt>
      <trkpt lat="47.21711" lon="-2.16158">
        <ele>7.8</ele>
        <time>2020-06-05T12:05:13Z</time>
      </trkpt>
      <trkpt lat="47.21715" lon="-2.16161">
        <ele>7.8</ele>
        <time>2020-06-05T12:05:14Z</time>
      </trkpt>
      <trkpt lat="47.21722" lon="-2.16164">
        <ele>7.8</ele>
        <time>2020-06-05T12:05:15Z</time>
      </trkpt>
      <trkpt lat="47.21727" lon="-2.16167">
        <ele>7.8</ele>
        <time>2020-06-05T12:05:16Z</time>
      </trkpt>
      <trkpt lat="47.21734" lon="-2.16169">
        <ele>7.8</ele>
        <time>2020-06-05T12:05:17Z</time>
      </trkpt>
      <trkpt lat="47.2174" lon="-2.16171">
        <ele>7.8</ele>
        <time>2020-06-05T12:05:18Z</time>
      </trkpt>
      <trkpt lat="47.21745" lon="-2.16174">
        <ele>7.9</ele>
        <time>2020-06-05T12:05:19Z</time>
      </trkpt>
      <trkpt lat="47.21751" lon="-2.16176">
        <ele>7.9</ele>
        <time>2020-06-05T12:05:20Z</time>
      </trkpt>
      <trkpt lat="47.21756" lon="-2.16179">
        <ele>7.9</ele>
        <time>2020-06-05T12:05:21Z</time>
      </trkpt>
      <trkpt lat="47.21762" lon="-2.16182">
        <ele>8</ele>
        <time>2020-06-05T12:05:22Z</time>
      </trkpt>
      <trkpt lat="47.21767" lon="-2.16185">
        <ele>8</ele>
        <time>2020-06-05T12:05:23Z</time>
      </trkpt>
      <trkpt lat="47.21773" lon="-2.16189">
        <ele>8.1</ele>
        <time>2020-06-05T12:05:24Z</time>
      </trkpt>
      <trkpt lat="47.21779" lon="-2.16192">
        <ele>8.1</ele>
        <time>2020-06-05T12:05:25Z</time>
      </trkpt>
      <trkpt lat="47.21785" lon="-2.16196">
        <ele>8.2</ele>
        <time>2020-06-05T12:05:26Z</time>
      </trkpt>
      <trkpt lat="47.21789" lon="-2.16198">
        <ele>8.2</ele>
        <time>2020-06-05T12:05:27Z</time>
      </trkpt>
      <trkpt lat="47.21794" lon="-2.16202">
        <ele>8.3</ele>
        <time>2020-06-05T12:05:28Z</time>
      </trkpt>
      <trkpt lat="47.21799" lon="-2.16204">
        <ele>8.5</ele>
        <time>2020-06-05T12:05:29Z</time>
      </trkpt>
      <trkpt lat="47.21804" lon="-2.16206">
        <ele>8.6</ele>
        <time>2020-06-05T12:05:30Z</time>
      </trkpt>
      <trkpt lat="47.21809" lon="-2.16208">
        <ele>8.8</ele>
        <time>2020-06-05T12:05:31Z</time>
      </trkpt>
      <trkpt lat="47.21814" lon="-2.1621">
        <ele>8.9</ele>
        <time>2020-06-05T12:05:32Z</time>
      </trkpt>
      <trkpt lat="47.21819" lon="-2.16212">
        <ele>9.1</ele>
        <time>2020-06-05T12:05:33Z</time>
      </trkpt>
      <trkpt lat="47.21824" lon="-2.16215">
        <ele>9.3</ele>
        <time>2020-06-05T12:05:34Z</time>
      </trkpt>
      <trkpt lat="47.21829" lon="-2.16218">
        <ele>9.4</ele>
        <time>2020-06-05T12:05:35Z</time>
      </trkpt>
      <trkpt lat="47.21834" lon="-2.1622">
        <ele>9.6</ele>
        <time>2020-06-05T12:05:36Z</time>
      </trkpt>
      <trkpt lat="47.21838" lon="-2.16222">
        <ele>9.7</ele>
        <time>2020-06-05T12:05:37Z</time>
      </trkpt>
      <trkpt lat="47.21842" lon="-2.16224">
        <ele>9.9</ele>
        <time>2020-06-05T12:05:38Z</time>
      </trkpt>
      <trkpt lat="47.21847" lon="-2.16226">
        <ele>10</ele>
        <time>2020-06-05T12:05:39Z</time>
      </trkpt>
      <trkpt lat="47.21852" lon="-2.16227">
        <ele>10.2</ele>
        <time>2020-06-05T12:05:40Z</time>
      </trkpt>
      <trkpt lat="47.21856" lon="-2.16228">
        <ele>10.3</ele>
        <time>2020-06-05T12:05:41Z</time>
      </trkpt>
      <trkpt lat="47.21861" lon="-2.16231">
        <ele>10.3</ele>
        <time>2020-06-05T12:05:42Z</time>
      </trkpt>
      <trkpt lat="47.21863" lon="-2.16236">
        <ele>10.4</ele>
        <time>2020-06-05T12:05:43Z</time>
      </trkpt>
      <trkpt lat="47.21866" lon="-2.16241">
        <ele>10.5</ele>
        <time>2020-06-05T12:05:44Z</time>
      </trkpt>
      <trkpt lat="47.21868" lon="-2.16246">
        <ele>10.6</ele>
        <time>2020-06-05T12:05:45Z</time>
      </trkpt>
      <trkpt lat="47.21868" lon="-2.16248">
        <ele>10.6</ele>
        <time>2020-06-05T12:05:46Z</time>
      </trkpt>
      <trkpt lat="47.2187" lon="-2.16252">
        <ele>10.7</ele>
        <time>2020-06-05T12:05:47Z</time>
      </trkpt>
      <trkpt lat="47.21872" lon="-2.16257">
        <ele>10.7</ele>
        <time>2020-06-05T12:05:48Z</time>
      </trkpt>
      <trkpt lat="47.21874" lon="-2.16263">
        <ele>10.8</ele>
        <time>2020-06-05T12:05:49Z</time>
      </trkpt>
      <trkpt lat="47.21877" lon="-2.16269">
        <ele>10.8</ele>
        <time>2020-06-05T12:05:50Z</time>
      </trkpt>
      <trkpt lat="47.2188" lon="-2.16275">
        <ele>10.8</ele>
        <time>2020-06-05T12:05:51Z</time>
      </trkpt>
      <trkpt lat="47.21883" lon="-2.16281">
        <ele>10.8</ele>
        <time>2020-06-05T12:05:52Z</time>
      </trkpt>
      <trkpt lat="47.21887" lon="-2.16288">
        <ele>10.8</ele>
        <time>2020-06-05T12:05:53Z</time>
      </trkpt>
      <trkpt lat="47.21892" lon="-2.16294">
        <ele>10.8</ele>
        <time>2020-06-05T12:05:54Z</time>
      </trkpt>
      <trkpt lat="47.21895" lon="-2.163">
        <ele>10.9</ele>
        <time>2020-06-05T12:05:55Z</time>
      </trkpt>
      <trkpt lat="47.21897" lon="-2.16307">
        <ele>10.9</ele>
        <time>2020-06-05T12:05:56Z</time>
      </trkpt>
      <trkpt lat="47.21898" lon="-2.16313">
        <ele>10.9</ele>
        <time>2020-06-05T12:05:57Z</time>
      </trkpt>
      <trkpt lat="47.219" lon="-2.16317">
        <ele>10.9</ele>
        <time>2020-06-05T12:05:58Z</time>
      </trkpt>
      <trkpt lat="47.21901" lon="-2.16322">
        <ele>11</ele>
        <time>2020-06-05T12:05:59Z</time>
      </trkpt>
      <trkpt lat="47.21904" lon="-2.16327">
        <ele>11</ele>
        <time>2020-06-05T12:06:00Z</time>
      </trkpt>
      <trkpt lat="47.21908" lon="-2.16334">
        <ele>11</ele>
        <time>2020-06-05T12:06:01Z</time>
      </trkpt>
      <trkpt lat="47.21911" lon="-2.1634">
        <ele>11.1</ele>
        <time>2020-06-05T12:06:02Z</time>
      </trkpt>
      <trkpt lat="47.21915" lon="-2.16346">
        <ele>11.1</ele>
        <time>2020-06-05T12:06:03Z</time>
      </trkpt>
      <trkpt lat="47.21918" lon="-2.16353">
        <ele>11.1</ele>
        <time>2020-06-05T12:06:04Z</time>
      </trkpt>
      <trkpt lat="47.21921" lon="-2.16359">
        <ele>11.1</ele>
        <time>2020-06-05T12:06:05Z</time>
      </trkpt>
      <trkpt lat="47.21923" lon="-2.16365">
        <ele>11.2</ele>
        <time>2020-06-05T12:06:06Z</time>
      </trkpt>
      <trkpt lat="47.21925" lon="-2.16371">
        <ele>11.2</ele>
        <time>2020-06-05T12:06:07Z</time>
      </trkpt>
      <trkpt lat="47.21928" lon="-2.16376">
        <ele>11.2</ele>
        <time>2020-06-05T12:06:08Z</time>
      </trkpt>
      <trkpt lat="47.21931" lon="-2.16381">
        <ele>11.2</ele>
        <time>2020-06-05T12:06:09Z</time>
      </trkpt>
      <trkpt lat="47.21935" lon="-2.16388">
        <ele>11.3</ele>
        <time>2020-06-05T12:06:10Z</time>
      </trkpt>
      <trkpt lat="47.21938" lon="-2.16394">
        <ele>11.3</ele>
        <time>2020-06-05T12:06:11Z</time>
      </trkpt>
      <trkpt lat="47.21941" lon="-2.164">
        <ele>11.3</ele>
        <time>2020-06-05T12:06:12Z</time>
      </trkpt>
      <trkpt lat="47.21943" lon="-2.16406">
        <ele>11.4</ele>
        <time>2020-06-05T12:06:13Z</time>
      </trkpt>
      <trkpt lat="47.21946" lon="-2.16412">
        <ele>11.4</ele>
        <time>2020-06-05T12:06:14Z</time>
      </trkpt>
      <trkpt lat="47.21949" lon="-2.16417">
        <ele>11.4</ele>
        <time>2020-06-05T12:06:15Z</time>
      </trkpt>
      <trkpt lat="47.21952" lon="-2.16424">
        <ele>11.4</ele>
        <time>2020-06-05T12:06:16Z</time>
      </trkpt>
      <trkpt lat="47.21955" lon="-2.16429">
        <ele>11.4</ele>
        <time>2020-06-05T12:06:17Z</time>
      </trkpt>
      <trkpt lat="47.21958" lon="-2.16434">
        <ele>11.4</ele>
        <time>2020-06-05T12:06:18Z</time>
      </trkpt>
      <trkpt lat="47.21962" lon="-2.1644">
        <ele>11.4</ele>
        <time>2020-06-05T12:06:19Z</time>
      </trkpt>
      <trkpt lat="47.21966" lon="-2.16446">
        <ele>11.4</ele>
        <time>2020-06-05T12:06:20Z</time>
      </trkpt>
      <trkpt lat="47.21969" lon="-2.16452">
        <ele>11.4</ele>
        <time>2020-06-05T12:06:21Z</time>
      </trkpt>
      <trkpt lat="47.21973" lon="-2.16458">
        <ele>11.3</ele>
        <time>2020-06-05T12:06:22Z</time>
      </trkpt>
      <trkpt lat="47.21978" lon="-2.16462">
        <ele>11.3</ele>
        <time>2020-06-05T12:06:23Z</time>
      </trkpt>
      <trkpt lat="47.21982" lon="-2.16465">
        <ele>11.3</ele>
        <time>2020-06-05T12:06:24Z</time>
      </trkpt>
      <trkpt lat="47.21986" lon="-2.16471">
        <ele>11.3</ele>
        <time>2020-06-05T12:06:25Z</time>
      </trkpt>
      <trkpt lat="47.2199" lon="-2.16476">
        <ele>11.3</ele>
        <time>2020-06-05T12:06:26Z</time>
      </trkpt>
      <trkpt lat="47.21994" lon="-2.16481">
        <ele>11.3</ele>
        <time>2020-06-05T12:06:27Z</time>
      </trkpt>
      <trkpt lat="47.21999" lon="-2.16485">
        <ele>11.3</ele>
        <time>2020-06-05T12:06:28Z</time>
      </trkpt>
      <trkpt lat="47.22003" lon="-2.16489">
        <ele>11.3</ele>
        <time>2020-06-05T12:06:29Z</time>
      </trkpt>
      <trkpt lat="47.22007" lon="-2.16494">
        <ele>11.3</ele>
        <time>2020-06-05T12:06:30Z</time>
      </trkpt>
      <trkpt lat="47.22012" lon="-2.16498">
        <ele>11.3</ele>
        <time>2020-06-05T12:06:31Z</time>
      </trkpt>
      <trkpt lat="47.22017" lon="-2.16503">
        <ele>11.3</ele>
        <time>2020-06-05T12:06:32Z</time>
      </trkpt>
      <trkpt lat="47.2202" lon="-2.16508">
        <ele>11.2</ele>
        <time>2020-06-05T12:06:33Z</time>
      </trkpt>
      <trkpt lat="47.22024" lon="-2.16512">
        <ele>11.2</ele>
        <time>2020-06-05T12:06:34Z</time>
      </trkpt>
      <trkpt lat="47.22028" lon="-2.16517">
        <ele>11.1</ele>
        <time>2020-06-05T12:06:35Z</time>
      </trkpt>
      <trkpt lat="47.22032" lon="-2.16522">
        <ele>11.1</ele>
        <time>2020-06-05T12:06:36Z</time>
      </trkpt>
      <trkpt lat="47.22036" lon="-2.16527">
        <ele>11</ele>
        <time>2020-06-05T12:06:37Z</time>
      </trkpt>
      <trkpt lat="47.2204" lon="-2.16532">
        <ele>11</ele>
        <time>2020-06-05T12:06:38Z</time>
      </trkpt>
      <trkpt lat="47.22044" lon="-2.16537">
        <ele>10.9</ele>
        <time>2020-06-05T12:06:39Z</time>
      </trkpt>
      <trkpt lat="47.22048" lon="-2.16542">
        <ele>10.9</ele>
        <time>2020-06-05T12:06:40Z</time>
      </trkpt>
      <trkpt lat="47.22053" lon="-2.16546">
        <ele>10.9</ele>
        <time>2020-06-05T12:06:41Z</time>
      </trkpt>
      <trkpt lat="47.22057" lon="-2.16551">
        <ele>10.8</ele>
        <time>2020-06-05T12:06:42Z</time>
      </trkpt>
      <trkpt lat="47.22062" lon="-2.16556">
        <ele>10.8</ele>
        <time>2020-06-05T12:06:43Z</time>
      </trkpt>
      <trkpt lat="47.22066" lon="-2.16562">
        <ele>10.8</ele>
        <time>2020-06-05T12:06:44Z</time>
      </trkpt>
      <trkpt lat="47.2207" lon="-2.16566">
        <ele>10.8</ele>
        <time>2020-06-05T12:06:45Z</time>
      </trkpt>
      <trkpt lat="47.22074" lon="-2.16571">
        <ele>10.8</ele>
        <time>2020-06-05T12:06:46Z</time>
      </trkpt>
      <trkpt lat="47.22077" lon="-2.16575">
        <ele>10.8</ele>
        <time>2020-06-05T12:06:47Z</time>
      </trkpt>
      <trkpt lat="47.22081" lon="-2.16579">
        <ele>10.8</ele>
        <time>2020-06-05T12:06:48Z</time>
      </trkpt>
      <trkpt lat="47.22086" lon="-2.16584">
        <ele>10.8</ele>
        <time>2020-06-05T12:06:49Z</time>
      </trkpt>
      <trkpt lat="47.2209" lon="-2.16589">
        <ele>10.9</ele>
        <time>2020-06-05T12:06:50Z</time>
      </trkpt>
      <trkpt lat="47.22095" lon="-2.16594">
        <ele>10.9</ele>
        <time>2020-06-05T12:06:51Z</time>
      </trkpt>
      <trkpt lat="47.22098" lon="-2.16598">
        <ele>10.9</ele>
        <time>2020-06-05T12:06:52Z</time>
      </trkpt>
      <trkpt lat="47.22102" lon="-2.16602">
        <ele>10.9</ele>
        <time>2020-06-05T12:06:53Z</time>
      </trkpt>
      <trkpt lat="47.22107" lon="-2.16606">
        <ele>10.9</ele>
        <time>2020-06-05T12:06:54Z</time>
      </trkpt>
      <trkpt lat="47.22111" lon="-2.16611">
        <ele>10.9</ele>
        <time>2020-06-05T12:06:55Z</time>
      </trkpt>
      <trkpt lat="47.22115" lon="-2.16616">
        <ele>11</ele>
        <time>2020-06-05T12:06:56Z</time>
      </trkpt>
      <trkpt lat="47.22119" lon="-2.16621">
        <ele>11</ele>
        <time>2020-06-05T12:06:57Z</time>
      </trkpt>
      <trkpt lat="47.22123" lon="-2.16626">
        <ele>11</ele>
        <time>2020-06-05T12:06:58Z</time>
      </trkpt>
      <trkpt lat="47.22128" lon="-2.16631">
        <ele>11</ele>
        <time>2020-06-05T12:06:59Z</time>
      </trkpt>
      <trkpt lat="47.22132" lon="-2.16635">
        <ele>11</ele>
        <time>2020-06-05T12:07:00Z</time>
      </trkpt>
      <trkpt lat="47.22136" lon="-2.1664">
        <ele>11</ele>
        <time>2020-06-05T12:07:01Z</time>
      </trkpt>
      <trkpt lat="47.22141" lon="-2.16646">
        <ele>11</ele>
        <time>2020-06-05T12:07:02Z</time>
      </trkpt>
      <trkpt lat="47.22145" lon="-2.16652">
        <ele>11</ele>
        <time>2020-06-05T12:07:03Z</time>
      </trkpt>
      <trkpt lat="47.22149" lon="-2.16658">
        <ele>11</ele>
        <time>2020-06-05T12:07:04Z</time>
      </trkpt>
      <trkpt lat="47.22153" lon="-2.16663">
        <ele>11</ele>
        <time>2020-06-05T12:07:05Z</time>
      </trkpt>
      <trkpt lat="47.22157" lon="-2.16668">
        <ele>10.9</ele>
        <time>2020-06-05T12:07:06Z</time>
      </trkpt>
      <trkpt lat="47.22161" lon="-2.16673">
        <ele>10.9</ele>
        <time>2020-06-05T12:07:07Z</time>
      </trkpt>
      <trkpt lat="47.22166" lon="-2.16678">
        <ele>10.9</ele>
        <time>2020-06-05T12:07:08Z</time>
      </trkpt>
      <trkpt lat="47.2217" lon="-2.16682">
        <ele>10.9</ele>
        <time>2020-06-05T12:07:09Z</time>
      </trkpt>
      <trkpt lat="47.22175" lon="-2.16686">
        <ele>10.9</ele>
        <time>2020-06-05T12:07:10Z</time>
      </trkpt>
      <trkpt lat="47.2218" lon="-2.1669">
        <ele>10.9</ele>
        <time>2020-06-05T12:07:11Z</time>
      </trkpt>
      <trkpt lat="47.22184" lon="-2.16694">
        <ele>10.9</ele>
        <time>2020-06-05T12:07:12Z</time>
      </trkpt>
      <trkpt lat="47.22189" lon="-2.16698">
        <ele>10.9</ele>
        <time>2020-06-05T12:07:13Z</time>
      </trkpt>
      <trkpt lat="47.22193" lon="-2.16704">
        <ele>10.9</ele>
        <time>2020-06-05T12:07:14Z</time>
      </trkpt>
      <trkpt lat="47.22197" lon="-2.16709">
        <ele>10.9</ele>
        <time>2020-06-05T12:07:15Z</time>
      </trkpt>
      <trkpt lat="47.22202" lon="-2.16715">
        <ele>10.9</ele>
        <time>2020-06-05T12:07:16Z</time>
      </trkpt>
      <trkpt lat="47.22206" lon="-2.1672">
        <ele>10.7</ele>
        <time>2020-06-05T12:07:17Z</time>
      </trkpt>
      <trkpt lat="47.22211" lon="-2.16725">
        <ele>10.7</ele>
        <time>2020-06-05T12:07:18Z</time>
      </trkpt>
      <trkpt lat="47.22215" lon="-2.1673">
        <ele>10.7</ele>
        <time>2020-06-05T12:07:19Z</time>
      </trkpt>
      <trkpt lat="47.22219" lon="-2.16736">
        <ele>10.6</ele>
        <time>2020-06-05T12:07:20Z</time>
      </trkpt>
      <trkpt lat="47.22225" lon="-2.16741">
        <ele>10.6</ele>
        <time>2020-06-05T12:07:21Z</time>
      </trkpt>
      <trkpt lat="47.2223" lon="-2.16745">
        <ele>10.5</ele>
        <time>2020-06-05T12:07:22Z</time>
      </trkpt>
      <trkpt lat="47.22235" lon="-2.16751">
        <ele>10.5</ele>
        <time>2020-06-05T12:07:23Z</time>
      </trkpt>
      <trkpt lat="47.22239" lon="-2.16756">
        <ele>10.5</ele>
        <time>2020-06-05T12:07:24Z</time>
      </trkpt>
      <trkpt lat="47.22242" lon="-2.16762">
        <ele>10.5</ele>
        <time>2020-06-05T12:07:25Z</time>
      </trkpt>
      <trkpt lat="47.22247" lon="-2.16767">
        <ele>10.6</ele>
        <time>2020-06-05T12:07:26Z</time>
      </trkpt>
      <trkpt lat="47.2225" lon="-2.16773">
        <ele>10.6</ele>
        <time>2020-06-05T12:07:27Z</time>
      </trkpt>
      <trkpt lat="47.22255" lon="-2.16778">
        <ele>10.6</ele>
        <time>2020-06-05T12:07:28Z</time>
      </trkpt>
      <trkpt lat="47.2226" lon="-2.16782">
        <ele>10.7</ele>
        <time>2020-06-05T12:07:29Z</time>
      </trkpt>
      <trkpt lat="47.22265" lon="-2.16787">
        <ele>10.7</ele>
        <time>2020-06-05T12:07:30Z</time>
      </trkpt>
      <trkpt lat="47.22269" lon="-2.16791">
        <ele>10.7</ele>
        <time>2020-06-05T12:07:31Z</time>
      </trkpt>
      <trkpt lat="47.22273" lon="-2.16796">
        <ele>10.7</ele>
        <time>2020-06-05T12:07:32Z</time>
      </trkpt>
      <trkpt lat="47.22278" lon="-2.168">
        <ele>10.7</ele>
        <time>2020-06-05T12:07:33Z</time>
      </trkpt>
      <trkpt lat="47.22283" lon="-2.16806">
        <ele>10.7</ele>
        <time>2020-06-05T12:07:34Z</time>
      </trkpt>
      <trkpt lat="47.22287" lon="-2.16811">
        <ele>10.8</ele>
        <time>2020-06-05T12:07:35Z</time>
      </trkpt>
      <trkpt lat="47.2229" lon="-2.16816">
        <ele>10.8</ele>
        <time>2020-06-05T12:07:36Z</time>
      </trkpt>
      <trkpt lat="47.22295" lon="-2.1682">
        <ele>10.8</ele>
        <time>2020-06-05T12:07:37Z</time>
      </trkpt>
      <trkpt lat="47.22299" lon="-2.16824">
        <ele>10.8</ele>
        <time>2020-06-05T12:07:38Z</time>
      </trkpt>
      <trkpt lat="47.22303" lon="-2.16829">
        <ele>10.9</ele>
        <time>2020-06-05T12:07:39Z</time>
      </trkpt>
      <trkpt lat="47.22308" lon="-2.16833">
        <ele>10.9</ele>
        <time>2020-06-05T12:07:40Z</time>
      </trkpt>
      <trkpt lat="47.22312" lon="-2.16838">
        <ele>11</ele>
        <time>2020-06-05T12:07:41Z</time>
      </trkpt>
      <trkpt lat="47.22317" lon="-2.16843">
        <ele>11</ele>
        <time>2020-06-05T12:07:42Z</time>
      </trkpt>
      <trkpt lat="47.22321" lon="-2.16848">
        <ele>11.1</ele>
        <time>2020-06-05T12:07:43Z</time>
      </trkpt>
      <trkpt lat="47.22325" lon="-2.16854">
        <ele>11.1</ele>
        <time>2020-06-05T12:07:44Z</time>
      </trkpt>
      <trkpt lat="47.2233" lon="-2.16859">
        <ele>11.1</ele>
        <time>2020-06-05T12:07:45Z</time>
      </trkpt>
      <trkpt lat="47.22335" lon="-2.16864">
        <ele>11.1</ele>
        <time>2020-06-05T12:07:46Z</time>
      </trkpt>
      <trkpt lat="47.22339" lon="-2.16869">
        <ele>11.2</ele>
        <time>2020-06-05T12:07:47Z</time>
      </trkpt>
      <trkpt lat="47.22343" lon="-2.16874">
        <ele>11.2</ele>
        <time>2020-06-05T12:07:48Z</time>
      </trkpt>
      <trkpt lat="47.22348" lon="-2.1688">
        <ele>11.2</ele>
        <time>2020-06-05T12:07:49Z</time>
      </trkpt>
      <trkpt lat="47.22352" lon="-2.16885">
        <ele>11.3</ele>
        <time>2020-06-05T12:07:50Z</time>
      </trkpt>
      <trkpt lat="47.22357" lon="-2.16891">
        <ele>11.3</ele>
        <time>2020-06-05T12:07:51Z</time>
      </trkpt>
      <trkpt lat="47.22362" lon="-2.16896">
        <ele>11.3</ele>
        <time>2020-06-05T12:07:52Z</time>
      </trkpt>
      <trkpt lat="47.22365" lon="-2.169">
        <ele>11.4</ele>
        <time>2020-06-05T12:07:53Z</time>
      </trkpt>
      <trkpt lat="47.22369" lon="-2.16904">
        <ele>11.5</ele>
        <time>2020-06-05T12:07:54Z</time>
      </trkpt>
      <trkpt lat="47.22373" lon="-2.16908">
        <ele>11.5</ele>
        <time>2020-06-05T12:07:55Z</time>
      </trkpt>
      <trkpt lat="47.22377" lon="-2.16912">
        <ele>11.6</ele>
        <time>2020-06-05T12:07:56Z</time>
      </trkpt>
      <trkpt lat="47.22381" lon="-2.16916">
        <ele>11.7</ele>
        <time>2020-06-05T12:07:57Z</time>
      </trkpt>
      <trkpt lat="47.22384" lon="-2.16921">
        <ele>11.8</ele>
        <time>2020-06-05T12:07:58Z</time>
      </trkpt>
      <trkpt lat="47.22388" lon="-2.16926">
        <ele>11.8</ele>
        <time>2020-06-05T12:07:59Z</time>
      </trkpt>
      <trkpt lat="47.22391" lon="-2.1693">
        <ele>11.9</ele>
        <time>2020-06-05T12:08:00Z</time>
      </trkpt>
      <trkpt lat="47.22394" lon="-2.16935">
        <ele>11.9</ele>
        <time>2020-06-05T12:08:01Z</time>
      </trkpt>
      <trkpt lat="47.22398" lon="-2.16939">
        <ele>11.9</ele>
        <time>2020-06-05T12:08:02Z</time>
      </trkpt>
      <trkpt lat="47.22401" lon="-2.16942">
        <ele>12</ele>
        <time>2020-06-05T12:08:03Z</time>
      </trkpt>
      <trkpt lat="47.22404" lon="-2.16945">
        <ele>12</ele>
        <time>2020-06-05T12:08:04Z</time>
      </trkpt>
      <trkpt lat="47.22406" lon="-2.16949">
        <ele>12.1</ele>
        <time>2020-06-05T12:08:05Z</time>
      </trkpt>
      <trkpt lat="47.22409" lon="-2.16952">
        <ele>12.1</ele>
        <time>2020-06-05T12:08:06Z</time>
      </trkpt>
      <trkpt lat="47.22412" lon="-2.16957">
        <ele>12.2</ele>
        <time>2020-06-05T12:08:07Z</time>
      </trkpt>
      <trkpt lat="47.22416" lon="-2.16961">
        <ele>12.2</ele>
        <time>2020-06-05T12:08:08Z</time>
      </trkpt>
      <trkpt lat="47.22419" lon="-2.16965">
        <ele>12.3</ele>
        <time>2020-06-05T12:08:09Z</time>
      </trkpt>
      <trkpt lat="47.22423" lon="-2.16968">
        <ele>12.3</ele>
        <time>2020-06-05T12:08:10Z</time>
      </trkpt>
      <trkpt lat="47.22427" lon="-2.16972">
        <ele>12.4</ele>
        <time>2020-06-05T12:08:11Z</time>
      </trkpt>
      <trkpt lat="47.22429" lon="-2.16977">
        <ele>12.4</ele>
        <time>2020-06-05T12:08:12Z</time>
      </trkpt>
      <trkpt lat="47.22433" lon="-2.16981">
        <ele>12.4</ele>
        <time>2020-06-05T12:08:13Z</time>
      </trkpt>
      <trkpt lat="47.22437" lon="-2.16985">
        <ele>12.5</ele>
        <time>2020-06-05T12:08:14Z</time>
      </trkpt>
      <trkpt lat="47.2244" lon="-2.16989">
        <ele>12.5</ele>
        <time>2020-06-05T12:08:15Z</time>
      </trkpt>
      <trkpt lat="47.22444" lon="-2.16993">
        <ele>12.6</ele>
        <time>2020-06-05T12:08:16Z</time>
      </trkpt>
      <trkpt lat="47.22447" lon="-2.16997">
        <ele>12.6</ele>
        <time>2020-06-05T12:08:17Z</time>
      </trkpt>
      <trkpt lat="47.2245" lon="-2.17001">
        <ele>12.6</ele>
        <time>2020-06-05T12:08:18Z</time>
      </trkpt>
      <trkpt lat="47.22454" lon="-2.17005">
        <ele>12.7</ele>
        <time>2020-06-05T12:08:19Z</time>
      </trkpt>
      <trkpt lat="47.22457" lon="-2.17009">
        <ele>12.7</ele>
        <time>2020-06-05T12:08:20Z</time>
      </trkpt>
      <trkpt lat="47.22462" lon="-2.17014">
        <ele>12.7</ele>
        <time>2020-06-05T12:08:21Z</time>
      </trkpt>
      <trkpt lat="47.22466" lon="-2.17019">
        <ele>12.7</ele>
        <time>2020-06-05T12:08:22Z</time>
      </trkpt>
      <trkpt lat="47.2247" lon="-2.17024">
        <ele>12.8</ele>
        <time>2020-06-05T12:08:23Z</time>
      </trkpt>
      <trkpt lat="47.22474" lon="-2.1703">
        <ele>12.8</ele>
        <time>2020-06-05T12:08:24Z</time>
      </trkpt>
      <trkpt lat="47.22478" lon="-2.17035">
        <ele>12.8</ele>
        <time>2020-06-05T12:08:25Z</time>
      </trkpt>
      <trkpt lat="47.22482" lon="-2.17039">
        <ele>12.8</ele>
        <time>2020-06-05T12:08:26Z</time>
      </trkpt>
      <trkpt lat="47.22485" lon="-2.17043">
        <ele>12.8</ele>
        <time>2020-06-05T12:08:27Z</time>
      </trkpt>
      <trkpt lat="47.22489" lon="-2.17046">
        <ele>12.8</ele>
        <time>2020-06-05T12:08:28Z</time>
      </trkpt>
      <trkpt lat="47.22492" lon="-2.1705">
        <ele>12.8</ele>
        <time>2020-06-05T12:08:29Z</time>
      </trkpt>
      <trkpt lat="47.22495" lon="-2.17054">
        <ele>12.8</ele>
        <time>2020-06-05T12:08:30Z</time>
      </trkpt>
      <trkpt lat="47.22498" lon="-2.17057">
        <ele>12.8</ele>
        <time>2020-06-05T12:08:31Z</time>
      </trkpt>
      <trkpt lat="47.22501" lon="-2.17061">
        <ele>12.8</ele>
        <time>2020-06-05T12:08:32Z</time>
      </trkpt>
      <trkpt lat="47.22504" lon="-2.17066">
        <ele>12.7</ele>
        <time>2020-06-05T12:08:33Z</time>
      </trkpt>
      <trkpt lat="47.22508" lon="-2.17071">
        <ele>12.7</ele>
        <time>2020-06-05T12:08:34Z</time>
      </trkpt>
      <trkpt lat="47.22512" lon="-2.17076">
        <ele>12.7</ele>
        <time>2020-06-05T12:08:35Z</time>
      </trkpt>
      <trkpt lat="47.22517" lon="-2.17081">
        <ele>12.6</ele>
        <time>2020-06-05T12:08:36Z</time>
      </trkpt>
      <trkpt lat="47.22521" lon="-2.17086">
        <ele>12.6</ele>
        <time>2020-06-05T12:08:37Z</time>
      </trkpt>
      <trkpt lat="47.22525" lon="-2.17091">
        <ele>12.5</ele>
        <time>2020-06-05T12:08:38Z</time>
      </trkpt>
      <trkpt lat="47.2253" lon="-2.17096">
        <ele>12.4</ele>
        <time>2020-06-05T12:08:39Z</time>
      </trkpt>
      <trkpt lat="47.22533" lon="-2.171">
        <ele>12.4</ele>
        <time>2020-06-05T12:08:40Z</time>
      </trkpt>
      <trkpt lat="47.22538" lon="-2.17104">
        <ele>12.4</ele>
        <time>2020-06-05T12:08:41Z</time>
      </trkpt>
      <trkpt lat="47.22542" lon="-2.17109">
        <ele>12.4</ele>
        <time>2020-06-05T12:08:42Z</time>
      </trkpt>
      <trkpt lat="47.22547" lon="-2.17113">
        <ele>12.3</ele>
        <time>2020-06-05T12:08:43Z</time>
      </trkpt>
      <trkpt lat="47.22552" lon="-2.17118">
        <ele>12.3</ele>
        <time>2020-06-05T12:08:44Z</time>
      </trkpt>
      <trkpt lat="47.22556" lon="-2.17123">
        <ele>12.3</ele>
        <time>2020-06-05T12:08:45Z</time>
      </trkpt>
      <trkpt lat="47.22561" lon="-2.17128">
        <ele>12.2</ele>
        <time>2020-06-05T12:08:46Z</time>
      </trkpt>
      <trkpt lat="47.22565" lon="-2.17134">
        <ele>12.2</ele>
        <time>2020-06-05T12:08:47Z</time>
      </trkpt>
      <trkpt lat="47.2257" lon="-2.1714">
        <ele>12.2</ele>
        <time>2020-06-05T12:08:48Z</time>
      </trkpt>
      <trkpt lat="47.22573" lon="-2.17145">
        <ele>12.1</ele>
        <time>2020-06-05T12:08:49Z</time>
      </trkpt>
      <trkpt lat="47.22577" lon="-2.17151">
        <ele>12.1</ele>
        <time>2020-06-05T12:08:50Z</time>
      </trkpt>
      <trkpt lat="47.22582" lon="-2.17157">
        <ele>12.1</ele>
        <time>2020-06-05T12:08:51Z</time>
      </trkpt>
      <trkpt lat="47.22587" lon="-2.17163">
        <ele>12</ele>
        <time>2020-06-05T12:08:52Z</time>
      </trkpt>
      <trkpt lat="47.2259" lon="-2.17168">
        <ele>12</ele>
        <time>2020-06-05T12:08:53Z</time>
      </trkpt>
      <trkpt lat="47.22595" lon="-2.17175">
        <ele>11.9</ele>
        <time>2020-06-05T12:08:54Z</time>
      </trkpt>
      <trkpt lat="47.22599" lon="-2.17181">
        <ele>11.8</ele>
        <time>2020-06-05T12:08:55Z</time>
      </trkpt>
      <trkpt lat="47.22604" lon="-2.17187">
        <ele>11.8</ele>
        <time>2020-06-05T12:08:56Z</time>
      </trkpt>
      <trkpt lat="47.2261" lon="-2.17194">
        <ele>11.7</ele>
        <time>2020-06-05T12:08:57Z</time>
      </trkpt>
      <trkpt lat="47.22614" lon="-2.172">
        <ele>11.7</ele>
        <time>2020-06-05T12:08:58Z</time>
      </trkpt>
      <trkpt lat="47.22619" lon="-2.17206">
        <ele>11.6</ele>
        <time>2020-06-05T12:08:59Z</time>
      </trkpt>
      <trkpt lat="47.22624" lon="-2.17211">
        <ele>11.6</ele>
        <time>2020-06-05T12:09:00Z</time>
      </trkpt>
      <trkpt lat="47.22628" lon="-2.17217">
        <ele>11.6</ele>
        <time>2020-06-05T12:09:01Z</time>
      </trkpt>
      <trkpt lat="47.22633" lon="-2.17224">
        <ele>11.6</ele>
        <time>2020-06-05T12:09:02Z</time>
      </trkpt>
      <trkpt lat="47.22637" lon="-2.17231">
        <ele>11.6</ele>
        <time>2020-06-05T12:09:03Z</time>
      </trkpt>
      <trkpt lat="47.22642" lon="-2.17237">
        <ele>11.6</ele>
        <time>2020-06-05T12:09:04Z</time>
      </trkpt>
      <trkpt lat="47.22647" lon="-2.17243">
        <ele>11.6</ele>
        <time>2020-06-05T12:09:05Z</time>
      </trkpt>
      <trkpt lat="47.22652" lon="-2.17249">
        <ele>11.5</ele>
        <time>2020-06-05T12:09:06Z</time>
      </trkpt>
      <trkpt lat="47.22657" lon="-2.17255">
        <ele>11.5</ele>
        <time>2020-06-05T12:09:07Z</time>
      </trkpt>
      <trkpt lat="47.22661" lon="-2.17261">
        <ele>11.5</ele>
        <time>2020-06-05T12:09:08Z</time>
      </trkpt>
      <trkpt lat="47.22666" lon="-2.17268">
        <ele>11.5</ele>
        <time>2020-06-05T12:09:09Z</time>
      </trkpt>
      <trkpt lat="47.22672" lon="-2.17275">
        <ele>11.5</ele>
        <time>2020-06-05T12:09:10Z</time>
      </trkpt>
      <trkpt lat="47.22676" lon="-2.17281">
        <ele>11.4</ele>
        <time>2020-06-05T12:09:11Z</time>
      </trkpt>
      <trkpt lat="47.2268" lon="-2.17285">
        <ele>11.4</ele>
        <time>2020-06-05T12:09:12Z</time>
      </trkpt>
      <trkpt lat="47.22684" lon="-2.1729">
        <ele>11.3</ele>
        <time>2020-06-05T12:09:13Z</time>
      </trkpt>
      <trkpt lat="47.22688" lon="-2.17295">
        <ele>11.3</ele>
        <time>2020-06-05T12:09:14Z</time>
      </trkpt>
      <trkpt lat="47.22693" lon="-2.173">
        <ele>11.3</ele>
        <time>2020-06-05T12:09:15Z</time>
      </trkpt>
      <trkpt lat="47.22697" lon="-2.17305">
        <ele>11.3</ele>
        <time>2020-06-05T12:09:16Z</time>
      </trkpt>
      <trkpt lat="47.22701" lon="-2.1731">
        <ele>11.2</ele>
        <time>2020-06-05T12:09:17Z</time>
      </trkpt>
      <trkpt lat="47.22705" lon="-2.17315">
        <ele>11.2</ele>
        <time>2020-06-05T12:09:18Z</time>
      </trkpt>
      <trkpt lat="47.22709" lon="-2.17319">
        <ele>11.2</ele>
        <time>2020-06-05T12:09:19Z</time>
      </trkpt>
      <trkpt lat="47.22713" lon="-2.17324">
        <ele>11.2</ele>
        <time>2020-06-05T12:09:20Z</time>
      </trkpt>
      <trkpt lat="47.22717" lon="-2.1733">
        <ele>11.2</ele>
        <time>2020-06-05T12:09:21Z</time>
      </trkpt>
      <trkpt lat="47.2272" lon="-2.17335">
        <ele>11.2</ele>
        <time>2020-06-05T12:09:22Z</time>
      </trkpt>
      <trkpt lat="47.22724" lon="-2.1734">
        <ele>11.2</ele>
        <time>2020-06-05T12:09:23Z</time>
      </trkpt>
      <trkpt lat="47.22727" lon="-2.17344">
        <ele>11.2</ele>
        <time>2020-06-05T12:09:24Z</time>
      </trkpt>
      <trkpt lat="47.22732" lon="-2.1735">
        <ele>11.2</ele>
        <time>2020-06-05T12:09:25Z</time>
      </trkpt>
      <trkpt lat="47.22736" lon="-2.17356">
        <ele>11.2</ele>
        <time>2020-06-05T12:09:26Z</time>
      </trkpt>
      <trkpt lat="47.2274" lon="-2.17362">
        <ele>11.2</ele>
        <time>2020-06-05T12:09:27Z</time>
      </trkpt>
      <trkpt lat="47.22744" lon="-2.17367">
        <ele>11.2</ele>
        <time>2020-06-05T12:09:28Z</time>
      </trkpt>
      <trkpt lat="47.22747" lon="-2.17373">
        <ele>11.2</ele>
        <time>2020-06-05T12:09:29Z</time>
      </trkpt>
      <trkpt lat="47.2275" lon="-2.17379">
        <ele>11.2</ele>
        <time>2020-06-05T12:09:30Z</time>
      </trkpt>
      <trkpt lat="47.22754" lon="-2.17384">
        <ele>11.2</ele>
        <time>2020-06-05T12:09:31Z</time>
      </trkpt>
      <trkpt lat="47.22758" lon="-2.1739">
        <ele>11.2</ele>
        <time>2020-06-05T12:09:32Z</time>
      </trkpt>
      <trkpt lat="47.22762" lon="-2.17395">
        <ele>11.2</ele>
        <time>2020-06-05T12:09:33Z</time>
      </trkpt>
      <trkpt lat="47.22765" lon="-2.17399">
        <ele>11.2</ele>
        <time>2020-06-05T12:09:34Z</time>
      </trkpt>
      <trkpt lat="47.2277" lon="-2.17405">
        <ele>11.3</ele>
        <time>2020-06-05T12:09:35Z</time>
      </trkpt>
      <trkpt lat="47.22773" lon="-2.1741">
        <ele>11.3</ele>
        <time>2020-06-05T12:09:36Z</time>
      </trkpt>
      <trkpt lat="47.22777" lon="-2.17414">
        <ele>11.3</ele>
        <time>2020-06-05T12:09:37Z</time>
      </trkpt>
      <trkpt lat="47.2278" lon="-2.17419">
        <ele>11.3</ele>
        <time>2020-06-05T12:09:38Z</time>
      </trkpt>
      <trkpt lat="47.22784" lon="-2.17424">
        <ele>11.3</ele>
        <time>2020-06-05T12:09:39Z</time>
      </trkpt>
      <trkpt lat="47.22788" lon="-2.17428">
        <ele>11.2</ele>
        <time>2020-06-05T12:09:40Z</time>
      </trkpt>
      <trkpt lat="47.22791" lon="-2.17433">
        <ele>11.2</ele>
        <time>2020-06-05T12:09:41Z</time>
      </trkpt>
      <trkpt lat="47.22794" lon="-2.17438">
        <ele>11.3</ele>
        <time>2020-06-05T12:09:42Z</time>
      </trkpt>
      <trkpt lat="47.22798" lon="-2.17443">
        <ele>11.3</ele>
        <time>2020-06-05T12:09:43Z</time>
      </trkpt>
      <trkpt lat="47.22801" lon="-2.17446">
        <ele>11.3</ele>
        <time>2020-06-05T12:09:44Z</time>
      </trkpt>
      <trkpt lat="47.22804" lon="-2.17451">
        <ele>11.3</ele>
        <time>2020-06-05T12:09:45Z</time>
      </trkpt>
      <trkpt lat="47.22808" lon="-2.17455">
        <ele>11.3</ele>
        <time>2020-06-05T12:09:46Z</time>
      </trkpt>
      <trkpt lat="47.22811" lon="-2.17459">
        <ele>11.3</ele>
        <time>2020-06-05T12:09:47Z</time>
      </trkpt>
      <trkpt lat="47.22815" lon="-2.17463">
        <ele>11.4</ele>
        <time>2020-06-05T12:09:48Z</time>
      </trkpt>
      <trkpt lat="47.22818" lon="-2.17467">
        <ele>11.4</ele>
        <time>2020-06-05T12:09:49Z</time>
      </trkpt>
      <trkpt lat="47.22821" lon="-2.17471">
        <ele>11.4</ele>
        <time>2020-06-05T12:09:50Z</time>
      </trkpt>
      <trkpt lat="47.22824" lon="-2.17475">
        <ele>11.4</ele>
        <time>2020-06-05T12:09:51Z</time>
      </trkpt>
      <trkpt lat="47.22826" lon="-2.17478">
        <ele>11.4</ele>
        <time>2020-06-05T12:09:52Z</time>
      </trkpt>
      <trkpt lat="47.2283" lon="-2.17482">
        <ele>11.5</ele>
        <time>2020-06-05T12:09:53Z</time>
      </trkpt>
      <trkpt lat="47.22832" lon="-2.17486">
        <ele>11.5</ele>
        <time>2020-06-05T12:09:54Z</time>
      </trkpt>
      <trkpt lat="47.22835" lon="-2.17491">
        <ele>11.5</ele>
        <time>2020-06-05T12:09:55Z</time>
      </trkpt>
      <trkpt lat="47.22838" lon="-2.17495">
        <ele>11.5</ele>
        <time>2020-06-05T12:09:56Z</time>
      </trkpt>
      <trkpt lat="47.22841" lon="-2.17499">
        <ele>11.5</ele>
        <time>2020-06-05T12:09:57Z</time>
      </trkpt>
      <trkpt lat="47.22844" lon="-2.17502">
        <ele>11.5</ele>
        <time>2020-06-05T12:09:58Z</time>
      </trkpt>
      <trkpt lat="47.22847" lon="-2.17506">
        <ele>11.6</ele>
        <time>2020-06-05T12:09:59Z</time>
      </trkpt>
      <trkpt lat="47.22849" lon="-2.17509">
        <ele>11.6</ele>
        <time>2020-06-05T12:10:00Z</time>
      </trkpt>
      <trkpt lat="47.22852" lon="-2.17513">
        <ele>11.6</ele>
        <time>2020-06-05T12:10:01Z</time>
      </trkpt>
      <trkpt lat="47.22853" lon="-2.17514">
        <ele>11.6</ele>
        <time>2020-06-05T12:10:02Z</time>
      </trkpt>
      <trkpt lat="47.22856" lon="-2.17517">
        <ele>11.5</ele>
        <time>2020-06-05T12:10:03Z</time>
      </trkpt>
      <trkpt lat="47.22859" lon="-2.17521">
        <ele>11.5</ele>
        <time>2020-06-05T12:10:04Z</time>
      </trkpt>
      <trkpt lat="47.22861" lon="-2.17522">
        <ele>11.5</ele>
        <time>2020-06-05T12:10:05Z</time>
      </trkpt>
      <trkpt lat="47.22863" lon="-2.17525">
        <ele>11.4</ele>
        <time>2020-06-05T12:10:06Z</time>
      </trkpt>
      <trkpt lat="47.22866" lon="-2.17529">
        <ele>11.4</ele>
        <time>2020-06-05T12:10:07Z</time>
      </trkpt>
      <trkpt lat="47.22867" lon="-2.1753">
        <ele>11.4</ele>
        <time>2020-06-05T12:10:08Z</time>
      </trkpt>
      <trkpt lat="47.22869" lon="-2.17534">
        <ele>11.3</ele>
        <time>2020-06-05T12:10:09Z</time>
      </trkpt>
      <trkpt lat="47.2287" lon="-2.17535">
        <ele>11.3</ele>
        <time>2020-06-05T12:10:10Z</time>
      </trkpt>
      <trkpt lat="47.22873" lon="-2.17539">
        <ele>11.2</ele>
        <time>2020-06-05T12:10:11Z</time>
      </trkpt>
      <trkpt lat="47.22873" lon="-2.1754">
        <ele>11.2</ele>
        <time>2020-06-05T12:10:12Z</time>
      </trkpt>
      <trkpt lat="47.22875" lon="-2.17544">
        <ele>11.2</ele>
        <time>2020-06-05T12:10:13Z</time>
      </trkpt>
      <trkpt lat="47.22876" lon="-2.17548">
        <ele>11.1</ele>
        <time>2020-06-05T12:10:14Z</time>
      </trkpt>
      <trkpt lat="47.22876" lon="-2.17554">
        <ele>11</ele>
        <time>2020-06-05T12:10:15Z</time>
      </trkpt>
      <trkpt lat="47.22876" lon="-2.17556">
        <ele>11</ele>
        <time>2020-06-05T12:10:16Z</time>
      </trkpt>
      <trkpt lat="47.22877" lon="-2.17562">
        <ele>10.9</ele>
        <time>2020-06-05T12:10:17Z</time>
      </trkpt>
      <trkpt lat="47.22877" lon="-2.17567">
        <ele>10.9</ele>
        <time>2020-06-05T12:10:18Z</time>
      </trkpt>
      <trkpt lat="47.22877" lon="-2.17572">
        <ele>10.8</ele>
        <time>2020-06-05T12:10:19Z</time>
      </trkpt>
      <trkpt lat="47.22878" lon="-2.17577">
        <ele>10.8</ele>
        <time>2020-06-05T12:10:20Z</time>
      </trkpt>
      <trkpt lat="47.22878" lon="-2.17582">
        <ele>10.7</ele>
        <time>2020-06-05T12:10:21Z</time>
      </trkpt>
      <trkpt lat="47.22879" lon="-2.17587">
        <ele>10.7</ele>
        <time>2020-06-05T12:10:22Z</time>
      </trkpt>
      <trkpt lat="47.22882" lon="-2.17591">
        <ele>10.7</ele>
        <time>2020-06-05T12:10:23Z</time>
      </trkpt>
      <trkpt lat="47.22885" lon="-2.17595">
        <ele>10.7</ele>
        <time>2020-06-05T12:10:24Z</time>
      </trkpt>
      <trkpt lat="47.22889" lon="-2.176">
        <ele>10.7</ele>
        <time>2020-06-05T12:10:25Z</time>
      </trkpt>
      <trkpt lat="47.22892" lon="-2.17604">
        <ele>10.7</ele>
        <time>2020-06-05T12:10:26Z</time>
      </trkpt>
      <trkpt lat="47.22895" lon="-2.17607">
        <ele>10.7</ele>
        <time>2020-06-05T12:10:27Z</time>
      </trkpt>
      <trkpt lat="47.22899" lon="-2.17611">
        <ele>10.7</ele>
        <time>2020-06-05T12:10:28Z</time>
      </trkpt>
      <trkpt lat="47.22901" lon="-2.17616">
        <ele>10.7</ele>
        <time>2020-06-05T12:10:29Z</time>
      </trkpt>
      <trkpt lat="47.22905" lon="-2.1762">
        <ele>10.6</ele>
        <time>2020-06-05T12:10:30Z</time>
      </trkpt>
      <trkpt lat="47.22908" lon="-2.17624">
        <ele>10.6</ele>
        <time>2020-06-05T12:10:31Z</time>
      </trkpt>
      <trkpt lat="47.22911" lon="-2.17627">
        <ele>10.6</ele>
        <time>2020-06-05T12:10:32Z</time>
      </trkpt>
      <trkpt lat="47.22914" lon="-2.17631">
        <ele>10.6</ele>
        <time>2020-06-05T12:10:33Z</time>
      </trkpt>
      <trkpt lat="47.22918" lon="-2.17636">
        <ele>10.6</ele>
        <time>2020-06-05T12:10:34Z</time>
      </trkpt>
      <trkpt lat="47.22921" lon="-2.17641">
        <ele>10.6</ele>
        <time>2020-06-05T12:10:35Z</time>
      </trkpt>
      <trkpt lat="47.22925" lon="-2.17645">
        <ele>10.6</ele>
        <time>2020-06-05T12:10:36Z</time>
      </trkpt>
      <trkpt lat="47.22929" lon="-2.1765">
        <ele>10.6</ele>
        <time>2020-06-05T12:10:37Z</time>
      </trkpt>
      <trkpt lat="47.22933" lon="-2.17655">
        <ele>10.5</ele>
        <time>2020-06-05T12:10:38Z</time>
      </trkpt>
      <trkpt lat="47.22937" lon="-2.17658">
        <ele>10.5</ele>
        <time>2020-06-05T12:10:39Z</time>
      </trkpt>
      <trkpt lat="47.22942" lon="-2.17663">
        <ele>10.5</ele>
        <time>2020-06-05T12:10:40Z</time>
      </trkpt>
      <trkpt lat="47.22945" lon="-2.17666">
        <ele>10.5</ele>
        <time>2020-06-05T12:10:41Z</time>
      </trkpt>
      <trkpt lat="47.22951" lon="-2.17671">
        <ele>10.4</ele>
        <time>2020-06-05T12:10:42Z</time>
      </trkpt>
      <trkpt lat="47.22953" lon="-2.17675">
        <ele>10.4</ele>
        <time>2020-06-05T12:10:43Z</time>
      </trkpt>
      <trkpt lat="47.22955" lon="-2.17678">
        <ele>10.4</ele>
        <time>2020-06-05T12:10:44Z</time>
      </trkpt>
      <trkpt lat="47.2296" lon="-2.17679">
        <ele>10.4</ele>
        <time>2020-06-05T12:10:45Z</time>
      </trkpt>
      <trkpt lat="47.22963" lon="-2.17681">
        <ele>10.3</ele>
        <time>2020-06-05T12:10:46Z</time>
      </trkpt>
      <trkpt lat="47.22967" lon="-2.17683">
        <ele>10.3</ele>
        <time>2020-06-05T12:10:47Z</time>
      </trkpt>
      <trkpt lat="47.22971" lon="-2.17684">
        <ele>10.3</ele>
        <time>2020-06-05T12:10:48Z</time>
      </trkpt>
      <trkpt lat="47.22975" lon="-2.17686">
        <ele>10.4</ele>
        <time>2020-06-05T12:10:49Z</time>
      </trkpt>
      <trkpt lat="47.22978" lon="-2.17689">
        <ele>10.4</ele>
        <time>2020-06-05T12:10:50Z</time>
      </trkpt>
      <trkpt lat="47.2298" lon="-2.17691">
        <ele>10.4</ele>
        <time>2020-06-05T12:10:51Z</time>
      </trkpt>
      <trkpt lat="47.22984" lon="-2.17694">
        <ele>10.4</ele>
        <time>2020-06-05T12:10:52Z</time>
      </trkpt>
      <trkpt lat="47.22987" lon="-2.17698">
        <ele>10.4</ele>
        <time>2020-06-05T12:10:53Z</time>
      </trkpt>
      <trkpt lat="47.2299" lon="-2.17702">
        <ele>10.4</ele>
        <time>2020-06-05T12:10:54Z</time>
      </trkpt>
      <trkpt lat="47.22993" lon="-2.17706">
        <ele>10.5</ele>
        <time>2020-06-05T12:10:55Z</time>
      </trkpt>
      <trkpt lat="47.22996" lon="-2.17711">
        <ele>10.5</ele>
        <time>2020-06-05T12:10:56Z</time>
      </trkpt>
      <trkpt lat="47.23001" lon="-2.17715">
        <ele>10.5</ele>
        <time>2020-06-05T12:10:57Z</time>
      </trkpt>
      <trkpt lat="47.23005" lon="-2.17719">
        <ele>10.5</ele>
        <time>2020-06-05T12:10:58Z</time>
      </trkpt>
      <trkpt lat="47.23008" lon="-2.17723">
        <ele>10.6</ele>
        <time>2020-06-05T12:10:59Z</time>
      </trkpt>
      <trkpt lat="47.23012" lon="-2.17727">
        <ele>10.6</ele>
        <time>2020-06-05T12:11:00Z</time>
      </trkpt>
      <trkpt lat="47.23016" lon="-2.17732">
        <ele>10.6</ele>
        <time>2020-06-05T12:11:01Z</time>
      </trkpt>
      <trkpt lat="47.23019" lon="-2.17736">
        <ele>10.6</ele>
        <time>2020-06-05T12:11:02Z</time>
      </trkpt>
      <trkpt lat="47.23023" lon="-2.17741">
        <ele>10.6</ele>
        <time>2020-06-05T12:11:03Z</time>
      </trkpt>
      <trkpt lat="47.23027" lon="-2.17746">
        <ele>10.6</ele>
        <time>2020-06-05T12:11:04Z</time>
      </trkpt>
      <trkpt lat="47.2303" lon="-2.1775">
        <ele>10.7</ele>
        <time>2020-06-05T12:11:05Z</time>
      </trkpt>
      <trkpt lat="47.23034" lon="-2.17754">
        <ele>10.7</ele>
        <time>2020-06-05T12:11:06Z</time>
      </trkpt>
      <trkpt lat="47.23038" lon="-2.17757">
        <ele>10.7</ele>
        <time>2020-06-05T12:11:07Z</time>
      </trkpt>
      <trkpt lat="47.23041" lon="-2.17761">
        <ele>10.7</ele>
        <time>2020-06-05T12:11:08Z</time>
      </trkpt>
      <trkpt lat="47.23045" lon="-2.17765">
        <ele>10.6</ele>
        <time>2020-06-05T12:11:09Z</time>
      </trkpt>
      <trkpt lat="47.23048" lon="-2.1777">
        <ele>10.6</ele>
        <time>2020-06-05T12:11:10Z</time>
      </trkpt>
      <trkpt lat="47.23052" lon="-2.17774">
        <ele>10.6</ele>
        <time>2020-06-05T12:11:11Z</time>
      </trkpt>
      <trkpt lat="47.23055" lon="-2.17779">
        <ele>10.5</ele>
        <time>2020-06-05T12:11:12Z</time>
      </trkpt>
      <trkpt lat="47.2306" lon="-2.17784">
        <ele>10.5</ele>
        <time>2020-06-05T12:11:13Z</time>
      </trkpt>
      <trkpt lat="47.23064" lon="-2.17788">
        <ele>10.4</ele>
        <time>2020-06-05T12:11:14Z</time>
      </trkpt>
      <trkpt lat="47.23067" lon="-2.17793">
        <ele>10.3</ele>
        <time>2020-06-05T12:11:15Z</time>
      </trkpt>
      <trkpt lat="47.23071" lon="-2.17797">
        <ele>10.3</ele>
        <time>2020-06-05T12:11:16Z</time>
      </trkpt>
      <trkpt lat="47.23075" lon="-2.17802">
        <ele>10.2</ele>
        <time>2020-06-05T12:11:17Z</time>
      </trkpt>
      <trkpt lat="47.23081" lon="-2.17806">
        <ele>10.2</ele>
        <time>2020-06-05T12:11:18Z</time>
      </trkpt>
      <trkpt lat="47.23085" lon="-2.17811">
        <ele>10.1</ele>
        <time>2020-06-05T12:11:19Z</time>
      </trkpt>
      <trkpt lat="47.23089" lon="-2.17816">
        <ele>10.1</ele>
        <time>2020-06-05T12:11:20Z</time>
      </trkpt>
      <trkpt lat="47.23092" lon="-2.17821">
        <ele>10</ele>
        <time>2020-06-05T12:11:21Z</time>
      </trkpt>
      <trkpt lat="47.23096" lon="-2.17825">
        <ele>9.9</ele>
        <time>2020-06-05T12:11:22Z</time>
      </trkpt>
      <trkpt lat="47.231" lon="-2.17829">
        <ele>9.9</ele>
        <time>2020-06-05T12:11:23Z</time>
      </trkpt>
      <trkpt lat="47.23103" lon="-2.17833">
        <ele>9.8</ele>
        <time>2020-06-05T12:11:24Z</time>
      </trkpt>
      <trkpt lat="47.23107" lon="-2.17838">
        <ele>9.8</ele>
        <time>2020-06-05T12:11:25Z</time>
      </trkpt>
      <trkpt lat="47.23111" lon="-2.17842">
        <ele>9.7</ele>
        <time>2020-06-05T12:11:26Z</time>
      </trkpt>
      <trkpt lat="47.23115" lon="-2.17846">
        <ele>9.7</ele>
        <time>2020-06-05T12:11:27Z</time>
      </trkpt>
      <trkpt lat="47.23119" lon="-2.1785">
        <ele>9.7</ele>
        <time>2020-06-05T12:11:28Z</time>
      </trkpt>
      <trkpt lat="47.23122" lon="-2.17855">
        <ele>9.6</ele>
        <time>2020-06-05T12:11:29Z</time>
      </trkpt>
      <trkpt lat="47.23127" lon="-2.17859">
        <ele>9.6</ele>
        <time>2020-06-05T12:11:30Z</time>
      </trkpt>
      <trkpt lat="47.23132" lon="-2.17862">
        <ele>9.6</ele>
        <time>2020-06-05T12:11:31Z</time>
      </trkpt>
      <trkpt lat="47.23136" lon="-2.17866">
        <ele>9.5</ele>
        <time>2020-06-05T12:11:32Z</time>
      </trkpt>
      <trkpt lat="47.2314" lon="-2.1787">
        <ele>9.6</ele>
        <time>2020-06-05T12:11:33Z</time>
      </trkpt>
      <trkpt lat="47.23145" lon="-2.17873">
        <ele>9.6</ele>
        <time>2020-06-05T12:11:34Z</time>
      </trkpt>
      <trkpt lat="47.2315" lon="-2.17877">
        <ele>9.7</ele>
        <time>2020-06-05T12:11:35Z</time>
      </trkpt>
      <trkpt lat="47.23155" lon="-2.1788">
        <ele>9.8</ele>
        <time>2020-06-05T12:11:36Z</time>
      </trkpt>
      <trkpt lat="47.23159" lon="-2.17883">
        <ele>9.9</ele>
        <time>2020-06-05T12:11:37Z</time>
      </trkpt>
      <trkpt lat="47.23164" lon="-2.17885">
        <ele>10</ele>
        <time>2020-06-05T12:11:38Z</time>
      </trkpt>
      <trkpt lat="47.23169" lon="-2.17888">
        <ele>10.1</ele>
        <time>2020-06-05T12:11:39Z</time>
      </trkpt>
      <trkpt lat="47.23173" lon="-2.17889">
        <ele>10.2</ele>
        <time>2020-06-05T12:11:40Z</time>
      </trkpt>
      <trkpt lat="47.23178" lon="-2.17891">
        <ele>10.3</ele>
        <time>2020-06-05T12:11:41Z</time>
      </trkpt>
      <trkpt lat="47.23182" lon="-2.17892">
        <ele>10.3</ele>
        <time>2020-06-05T12:11:42Z</time>
      </trkpt>
      <trkpt lat="47.23187" lon="-2.17893">
        <ele>10.4</ele>
        <time>2020-06-05T12:11:43Z</time>
      </trkpt>
      <trkpt lat="47.23191" lon="-2.17895">
        <ele>10.4</ele>
        <time>2020-06-05T12:11:44Z</time>
      </trkpt>
      <trkpt lat="47.23195" lon="-2.17895">
        <ele>10.4</ele>
        <time>2020-06-05T12:11:45Z</time>
      </trkpt>
      <trkpt lat="47.232" lon="-2.17895">
        <ele>10.4</ele>
        <time>2020-06-05T12:11:46Z</time>
      </trkpt>
      <trkpt lat="47.23203" lon="-2.17894">
        <ele>10.3</ele>
        <time>2020-06-05T12:11:47Z</time>
      </trkpt>
      <trkpt lat="47.23207" lon="-2.17893">
        <ele>10.3</ele>
        <time>2020-06-05T12:11:48Z</time>
      </trkpt>
      <trkpt lat="47.23212" lon="-2.17894">
        <ele>10.2</ele>
        <time>2020-06-05T12:11:49Z</time>
      </trkpt>
      <trkpt lat="47.23217" lon="-2.17893">
        <ele>10.1</ele>
        <time>2020-06-05T12:11:50Z</time>
      </trkpt>
      <trkpt lat="47.23222" lon="-2.17892">
        <ele>9.9</ele>
        <time>2020-06-05T12:11:51Z</time>
      </trkpt>
      <trkpt lat="47.23227" lon="-2.17891">
        <ele>9.8</ele>
        <time>2020-06-05T12:11:52Z</time>
      </trkpt>
      <trkpt lat="47.23231" lon="-2.1789">
        <ele>9.6</ele>
        <time>2020-06-05T12:11:53Z</time>
      </trkpt>
      <trkpt lat="47.23236" lon="-2.1789">
        <ele>9.4</ele>
        <time>2020-06-05T12:11:54Z</time>
      </trkpt>
      <trkpt lat="47.23241" lon="-2.17889">
        <ele>9.2</ele>
        <time>2020-06-05T12:11:55Z</time>
      </trkpt>
      <trkpt lat="47.23246" lon="-2.17888">
        <ele>9</ele>
        <time>2020-06-05T12:11:56Z</time>
      </trkpt>
      <trkpt lat="47.23252" lon="-2.17886">
        <ele>8.8</ele>
        <time>2020-06-05T12:11:57Z</time>
      </trkpt>
      <trkpt lat="47.23257" lon="-2.17885">
        <ele>8.7</ele>
        <time>2020-06-05T12:11:58Z</time>
      </trkpt>
      <trkpt lat="47.23262" lon="-2.17881">
        <ele>8.5</ele>
        <time>2020-06-05T12:11:59Z</time>
      </trkpt>
      <trkpt lat="47.23268" lon="-2.17878">
        <ele>8.3</ele>
        <time>2020-06-05T12:12:00Z</time>
      </trkpt>
      <trkpt lat="47.23274" lon="-2.17874">
        <ele>8.2</ele>
        <time>2020-06-05T12:12:01Z</time>
      </trkpt>
      <trkpt lat="47.23279" lon="-2.17869">
        <ele>8</ele>
        <time>2020-06-05T12:12:02Z</time>
      </trkpt>
      <trkpt lat="47.23284" lon="-2.17865">
        <ele>7.9</ele>
        <time>2020-06-05T12:12:03Z</time>
      </trkpt>
      <trkpt lat="47.23289" lon="-2.17861">
        <ele>7.8</ele>
        <time>2020-06-05T12:12:04Z</time>
      </trkpt>
      <trkpt lat="47.23292" lon="-2.17858">
        <ele>7.7</ele>
        <time>2020-06-05T12:12:05Z</time>
      </trkpt>
      <trkpt lat="47.23295" lon="-2.17857">
        <ele>7.6</ele>
        <time>2020-06-05T12:12:06Z</time>
      </trkpt>
      <trkpt lat="47.23298" lon="-2.17856">
        <ele>7.7</ele>
        <time>2020-06-05T12:12:07Z</time>
      </trkpt>
      <trkpt lat="47.233" lon="-2.17857">
        <ele>7.7</ele>
        <time>2020-06-05T12:12:08Z</time>
      </trkpt>
      <trkpt lat="47.23303" lon="-2.17859">
        <ele>8.2</ele>
        <time>2020-06-05T12:12:09Z</time>
      </trkpt>
      <trkpt lat="47.23304" lon="-2.1786">
        <ele>8.2</ele>
        <time>2020-06-05T12:12:10Z</time>
      </trkpt>
      <trkpt lat="47.23305" lon="-2.1786">
        <ele>8.2</ele>
        <time>2020-06-05T12:12:11Z</time>
      </trkpt>
      <trkpt lat="47.23306" lon="-2.17861">
        <ele>8.2</ele>
        <time>2020-06-05T12:12:12Z</time>
      </trkpt>
      <trkpt lat="47.23307" lon="-2.1786">
        <ele>8.2</ele>
        <time>2020-06-05T12:12:13Z</time>
      </trkpt>
      <trkpt lat="47.23309" lon="-2.17857">
        <ele>8.2</ele>
        <time>2020-06-05T12:12:14Z</time>
      </trkpt>
      <trkpt lat="47.2331" lon="-2.17856">
        <ele>8.2</ele>
        <time>2020-06-05T12:12:15Z</time>
      </trkpt>
      <trkpt lat="47.23313" lon="-2.17851">
        <ele>8.2</ele>
        <time>2020-06-05T12:12:16Z</time>
      </trkpt>
      <trkpt lat="47.23313" lon="-2.17849">
        <ele>8.2</ele>
        <time>2020-06-05T12:12:17Z</time>
      </trkpt>
      <trkpt lat="47.23316" lon="-2.17845">
        <ele>8.2</ele>
        <time>2020-06-05T12:12:18Z</time>
      </trkpt>
      <trkpt lat="47.23318" lon="-2.1784">
        <ele>8.2</ele>
        <time>2020-06-05T12:12:19Z</time>
      </trkpt>
      <trkpt lat="47.23322" lon="-2.17835">
        <ele>8.2</ele>
        <time>2020-06-05T12:12:20Z</time>
      </trkpt>
      <trkpt lat="47.23325" lon="-2.17831">
        <ele>8.2</ele>
        <time>2020-06-05T12:12:21Z</time>
      </trkpt>
      <trkpt lat="47.23327" lon="-2.17826">
        <ele>8.2</ele>
        <time>2020-06-05T12:12:22Z</time>
      </trkpt>
      <trkpt lat="47.2333" lon="-2.1782">
        <ele>8.2</ele>
        <time>2020-06-05T12:12:23Z</time>
      </trkpt>
      <trkpt lat="47.23333" lon="-2.17814">
        <ele>8.2</ele>
        <time>2020-06-05T12:12:24Z</time>
      </trkpt>
      <trkpt lat="47.23334" lon="-2.17807">
        <ele>8.3</ele>
        <time>2020-06-05T12:12:25Z</time>
      </trkpt>
      <trkpt lat="47.23336" lon="-2.17801">
        <ele>8.3</ele>
        <time>2020-06-05T12:12:26Z</time>
      </trkpt>
      <trkpt lat="47.23337" lon="-2.17795">
        <ele>8.3</ele>
        <time>2020-06-05T12:12:27Z</time>
      </trkpt>
      <trkpt lat="47.23338" lon="-2.17789">
        <ele>8.3</ele>
        <time>2020-06-05T12:12:28Z</time>
      </trkpt>
      <trkpt lat="47.2334" lon="-2.17783">
        <ele>8.4</ele>
        <time>2020-06-05T12:12:29Z</time>
      </trkpt>
      <trkpt lat="47.23342" lon="-2.17779">
        <ele>8.4</ele>
        <time>2020-06-05T12:12:30Z</time>
      </trkpt>
      <trkpt lat="47.23342" lon="-2.17774">
        <ele>8.4</ele>
        <time>2020-06-05T12:12:31Z</time>
      </trkpt>
      <trkpt lat="47.23342" lon="-2.17768">
        <ele>8.4</ele>
        <time>2020-06-05T12:12:32Z</time>
      </trkpt>
      <trkpt lat="47.23343" lon="-2.17762">
        <ele>8.4</ele>
        <time>2020-06-05T12:12:33Z</time>
      </trkpt>
      <trkpt lat="47.23342" lon="-2.17757">
        <ele>8.5</ele>
        <time>2020-06-05T12:12:34Z</time>
      </trkpt>
      <trkpt lat="47.23342" lon="-2.17751">
        <ele>8.5</ele>
        <time>2020-06-05T12:12:35Z</time>
      </trkpt>
      <trkpt lat="47.23342" lon="-2.17745">
        <ele>8.5</ele>
        <time>2020-06-05T12:12:36Z</time>
      </trkpt>
      <trkpt lat="47.23343" lon="-2.1774">
        <ele>8.6</ele>
        <time>2020-06-05T12:12:37Z</time>
      </trkpt>
      <trkpt lat="47.23344" lon="-2.17735">
        <ele>8.6</ele>
        <time>2020-06-05T12:12:38Z</time>
      </trkpt>
      <trkpt lat="47.23344" lon="-2.1773">
        <ele>8.6</ele>
        <time>2020-06-05T12:12:39Z</time>
      </trkpt>
      <trkpt lat="47.23345" lon="-2.17725">
        <ele>8.6</ele>
        <time>2020-06-05T12:12:40Z</time>
      </trkpt>
      <trkpt lat="47.23345" lon="-2.17719">
        <ele>8.7</ele>
        <time>2020-06-05T12:12:41Z</time>
      </trkpt>
      <trkpt lat="47.23346" lon="-2.17714">
        <ele>8.7</ele>
        <time>2020-06-05T12:12:42Z</time>
      </trkpt>
      <trkpt lat="47.23346" lon="-2.17709">
        <ele>8.7</ele>
        <time>2020-06-05T12:12:43Z</time>
      </trkpt>
      <trkpt lat="47.23346" lon="-2.17702">
        <ele>8.7</ele>
        <time>2020-06-05T12:12:44Z</time>
      </trkpt>
      <trkpt lat="47.23345" lon="-2.17695">
        <ele>8.8</ele>
        <time>2020-06-05T12:12:45Z</time>
      </trkpt>
      <trkpt lat="47.23345" lon="-2.17689">
        <ele>8.8</ele>
        <time>2020-06-05T12:12:46Z</time>
      </trkpt>
      <trkpt lat="47.23346" lon="-2.17683">
        <ele>8.8</ele>
        <time>2020-06-05T12:12:47Z</time>
      </trkpt>
      <trkpt lat="47.23347" lon="-2.17678">
        <ele>8.8</ele>
        <time>2020-06-05T12:12:48Z</time>
      </trkpt>
      <trkpt lat="47.23347" lon="-2.17671">
        <ele>8.8</ele>
        <time>2020-06-05T12:12:49Z</time>
      </trkpt>
      <trkpt lat="47.23347" lon="-2.17665">
        <ele>8.9</ele>
        <time>2020-06-05T12:12:50Z</time>
      </trkpt>
      <trkpt lat="47.23347" lon="-2.17658">
        <ele>8.9</ele>
        <time>2020-06-05T12:12:51Z</time>
      </trkpt>
      <trkpt lat="47.23348" lon="-2.17652">
        <ele>8.9</ele>
        <time>2020-06-05T12:12:52Z</time>
      </trkpt>
      <trkpt lat="47.23349" lon="-2.17646">
        <ele>9</ele>
        <time>2020-06-05T12:12:53Z</time>
      </trkpt>
      <trkpt lat="47.23349" lon="-2.1764">
        <ele>9</ele>
        <time>2020-06-05T12:12:54Z</time>
      </trkpt>
      <trkpt lat="47.23349" lon="-2.17635">
        <ele>9.1</ele>
        <time>2020-06-05T12:12:55Z</time>
      </trkpt>
      <trkpt lat="47.23349" lon="-2.1763">
        <ele>9.1</ele>
        <time>2020-06-05T12:12:56Z</time>
      </trkpt>
      <trkpt lat="47.23349" lon="-2.17625">
        <ele>9.1</ele>
        <time>2020-06-05T12:12:57Z</time>
      </trkpt>
      <trkpt lat="47.23349" lon="-2.1762">
        <ele>9.2</ele>
        <time>2020-06-05T12:12:58Z</time>
      </trkpt>
      <trkpt lat="47.23348" lon="-2.17616">
        <ele>9.2</ele>
        <time>2020-06-05T12:12:59Z</time>
      </trkpt>
      <trkpt lat="47.23349" lon="-2.1761">
        <ele>9.2</ele>
        <time>2020-06-05T12:13:00Z</time>
      </trkpt>
      <trkpt lat="47.23349" lon="-2.17607">
        <ele>9.3</ele>
        <time>2020-06-05T12:13:01Z</time>
      </trkpt>
      <trkpt lat="47.23349" lon="-2.17602">
        <ele>9.3</ele>
        <time>2020-06-05T12:13:02Z</time>
      </trkpt>
      <trkpt lat="47.23349" lon="-2.17596">
        <ele>9.3</ele>
        <time>2020-06-05T12:13:03Z</time>
      </trkpt>
      <trkpt lat="47.23349" lon="-2.17591">
        <ele>9.3</ele>
        <time>2020-06-05T12:13:04Z</time>
      </trkpt>
      <trkpt lat="47.2335" lon="-2.17584">
        <ele>9.3</ele>
        <time>2020-06-05T12:13:05Z</time>
      </trkpt>
      <trkpt lat="47.23349" lon="-2.17577">
        <ele>9.3</ele>
        <time>2020-06-05T12:13:06Z</time>
      </trkpt>
      <trkpt lat="47.23349" lon="-2.17572">
        <ele>9.3</ele>
        <time>2020-06-05T12:13:07Z</time>
      </trkpt>
      <trkpt lat="47.23349" lon="-2.17567">
        <ele>9.3</ele>
        <time>2020-06-05T12:13:08Z</time>
      </trkpt>
      <trkpt lat="47.23349" lon="-2.17562">
        <ele>9.3</ele>
        <time>2020-06-05T12:13:09Z</time>
      </trkpt>
      <trkpt lat="47.2335" lon="-2.17561">
        <ele>9.4</ele>
        <time>2020-06-05T12:13:10Z</time>
      </trkpt>
      <trkpt lat="47.2335" lon="-2.17559">
        <ele>9.4</ele>
        <time>2020-06-05T12:13:11Z</time>
      </trkpt>
      <trkpt lat="47.2335" lon="-2.17558">
        <ele>9.4</ele>
        <time>2020-06-05T12:13:12Z</time>
      </trkpt>
      <trkpt lat="47.2335" lon="-2.17556">
        <ele>9.5</ele>
        <time>2020-06-05T12:13:13Z</time>
      </trkpt>
      <trkpt lat="47.23351" lon="-2.17554">
        <ele>9.5</ele>
        <time>2020-06-05T12:13:14Z</time>
      </trkpt>
      <trkpt lat="47.23351" lon="-2.17552">
        <ele>9.5</ele>
        <time>2020-06-05T12:13:15Z</time>
      </trkpt>
      <trkpt lat="47.23354" lon="-2.17549">
        <ele>9.6</ele>
        <time>2020-06-05T12:13:16Z</time>
      </trkpt>
      <trkpt lat="47.23354" lon="-2.17548">
        <ele>9.6</ele>
        <time>2020-06-05T12:13:17Z</time>
      </trkpt>
      <trkpt lat="47.23357" lon="-2.17546">
        <ele>9.6</ele>
        <time>2020-06-05T12:13:18Z</time>
      </trkpt>
      <trkpt lat="47.2336" lon="-2.17543">
        <ele>9.6</ele>
        <time>2020-06-05T12:13:19Z</time>
      </trkpt>
      <trkpt lat="47.23363" lon="-2.17541">
        <ele>9.6</ele>
        <time>2020-06-05T12:13:20Z</time>
      </trkpt>
      <trkpt lat="47.23367" lon="-2.17539">
        <ele>9.6</ele>
        <time>2020-06-05T12:13:21Z</time>
      </trkpt>
      <trkpt lat="47.23372" lon="-2.17539">
        <ele>9.7</ele>
        <time>2020-06-05T12:13:22Z</time>
      </trkpt>
      <trkpt lat="47.23376" lon="-2.17538">
        <ele>9.7</ele>
        <time>2020-06-05T12:13:23Z</time>
      </trkpt>
      <trkpt lat="47.2338" lon="-2.17538">
        <ele>9.7</ele>
        <time>2020-06-05T12:13:24Z</time>
      </trkpt>
      <trkpt lat="47.23384" lon="-2.17538">
        <ele>9.8</ele>
        <time>2020-06-05T12:13:25Z</time>
      </trkpt>
      <trkpt lat="47.23389" lon="-2.17538">
        <ele>9.9</ele>
        <time>2020-06-05T12:13:26Z</time>
      </trkpt>
      <trkpt lat="47.23393" lon="-2.17538">
        <ele>9.9</ele>
        <time>2020-06-05T12:13:27Z</time>
      </trkpt>
      <trkpt lat="47.23399" lon="-2.17538">
        <ele>10</ele>
        <time>2020-06-05T12:13:28Z</time>
      </trkpt>
      <trkpt lat="47.23403" lon="-2.1754">
        <ele>10.1</ele>
        <time>2020-06-05T12:13:29Z</time>
      </trkpt>
      <trkpt lat="47.23408" lon="-2.17542">
        <ele>10.1</ele>
        <time>2020-06-05T12:13:30Z</time>
      </trkpt>
      <trkpt lat="47.23411" lon="-2.17543">
        <ele>10.2</ele>
        <time>2020-06-05T12:13:31Z</time>
      </trkpt>
      <trkpt lat="47.23416" lon="-2.17544">
        <ele>10.2</ele>
        <time>2020-06-05T12:13:32Z</time>
      </trkpt>
      <trkpt lat="47.23419" lon="-2.17546">
        <ele>10.2</ele>
        <time>2020-06-05T12:13:33Z</time>
      </trkpt>
      <trkpt lat="47.23423" lon="-2.17546">
        <ele>10.3</ele>
        <time>2020-06-05T12:13:34Z</time>
      </trkpt>
      <trkpt lat="47.23427" lon="-2.17546">
        <ele>10.3</ele>
        <time>2020-06-05T12:13:35Z</time>
      </trkpt>
      <trkpt lat="47.23432" lon="-2.17547">
        <ele>10.3</ele>
        <time>2020-06-05T12:13:36Z</time>
      </trkpt>
      <trkpt lat="47.23437" lon="-2.17549">
        <ele>10.3</ele>
        <time>2020-06-05T12:13:37Z</time>
      </trkpt>
      <trkpt lat="47.23442" lon="-2.1755">
        <ele>10.3</ele>
        <time>2020-06-05T12:13:38Z</time>
      </trkpt>
      <trkpt lat="47.23447" lon="-2.17551">
        <ele>10.3</ele>
        <time>2020-06-05T12:13:39Z</time>
      </trkpt>
      <trkpt lat="47.23452" lon="-2.17552">
        <ele>10.3</ele>
        <time>2020-06-05T12:13:40Z</time>
      </trkpt>
      <trkpt lat="47.23456" lon="-2.17553">
        <ele>10.2</ele>
        <time>2020-06-05T12:13:41Z</time>
      </trkpt>
      <trkpt lat="47.2346" lon="-2.17552">
        <ele>10.2</ele>
        <time>2020-06-05T12:13:42Z</time>
      </trkpt>
      <trkpt lat="47.23465" lon="-2.17552">
        <ele>10.1</ele>
        <time>2020-06-05T12:13:43Z</time>
      </trkpt>
      <trkpt lat="47.2347" lon="-2.17552">
        <ele>10.1</ele>
        <time>2020-06-05T12:13:44Z</time>
      </trkpt>
      <trkpt lat="47.23474" lon="-2.17554">
        <ele>10</ele>
        <time>2020-06-05T12:13:45Z</time>
      </trkpt>
      <trkpt lat="47.23478" lon="-2.17555">
        <ele>10</ele>
        <time>2020-06-05T12:13:46Z</time>
      </trkpt>
      <trkpt lat="47.23482" lon="-2.17556">
        <ele>9.9</ele>
        <time>2020-06-05T12:13:47Z</time>
      </trkpt>
      <trkpt lat="47.23487" lon="-2.17556">
        <ele>9.8</ele>
        <time>2020-06-05T12:13:48Z</time>
      </trkpt>
      <trkpt lat="47.23491" lon="-2.17556">
        <ele>9.8</ele>
        <time>2020-06-05T12:13:49Z</time>
      </trkpt>
      <trkpt lat="47.23497" lon="-2.17555">
        <ele>9.7</ele>
        <time>2020-06-05T12:13:50Z</time>
      </trkpt>
      <trkpt lat="47.23501" lon="-2.17555">
        <ele>9.6</ele>
        <time>2020-06-05T12:13:51Z</time>
      </trkpt>
      <trkpt lat="47.23505" lon="-2.17555">
        <ele>9.5</ele>
        <time>2020-06-05T12:13:52Z</time>
      </trkpt>
      <trkpt lat="47.23509" lon="-2.17555">
        <ele>9.3</ele>
        <time>2020-06-05T12:13:53Z</time>
      </trkpt>
      <trkpt lat="47.23514" lon="-2.17555">
        <ele>9.2</ele>
        <time>2020-06-05T12:13:54Z</time>
      </trkpt>
      <trkpt lat="47.23519" lon="-2.17555">
        <ele>9.1</ele>
        <time>2020-06-05T12:13:55Z</time>
      </trkpt>
      <trkpt lat="47.23523" lon="-2.17557">
        <ele>8.9</ele>
        <time>2020-06-05T12:13:56Z</time>
      </trkpt>
      <trkpt lat="47.23527" lon="-2.17557">
        <ele>8.8</ele>
        <time>2020-06-05T12:13:57Z</time>
      </trkpt>
      <trkpt lat="47.23532" lon="-2.17555">
        <ele>8.6</ele>
        <time>2020-06-05T12:13:58Z</time>
      </trkpt>
      <trkpt lat="47.23537" lon="-2.17553">
        <ele>8.4</ele>
        <time>2020-06-05T12:13:59Z</time>
      </trkpt>
      <trkpt lat="47.23541" lon="-2.17549">
        <ele>8.2</ele>
        <time>2020-06-05T12:14:00Z</time>
      </trkpt>
      <trkpt lat="47.23545" lon="-2.17544">
        <ele>8</ele>
        <time>2020-06-05T12:14:01Z</time>
      </trkpt>
      <trkpt lat="47.23548" lon="-2.17539">
        <ele>7.9</ele>
        <time>2020-06-05T12:14:02Z</time>
      </trkpt>
      <trkpt lat="47.23553" lon="-2.17533">
        <ele>7.7</ele>
        <time>2020-06-05T12:14:03Z</time>
      </trkpt>
      <trkpt lat="47.23557" lon="-2.17525">
        <ele>7.5</ele>
        <time>2020-06-05T12:14:04Z</time>
      </trkpt>
      <trkpt lat="47.23561" lon="-2.17519">
        <ele>7.3</ele>
        <time>2020-06-05T12:14:05Z</time>
      </trkpt>
      <trkpt lat="47.23565" lon="-2.17511">
        <ele>7.1</ele>
        <time>2020-06-05T12:14:06Z</time>
      </trkpt>
      <trkpt lat="47.23568" lon="-2.17502">
        <ele>6.9</ele>
        <time>2020-06-05T12:14:07Z</time>
      </trkpt>
      <trkpt lat="47.2357" lon="-2.17495">
        <ele>6.9</ele>
        <time>2020-06-05T12:14:08Z</time>
      </trkpt>
      <trkpt lat="47.23572" lon="-2.17487">
        <ele>6.8</ele>
        <time>2020-06-05T12:14:09Z</time>
      </trkpt>
      <trkpt lat="47.23575" lon="-2.17481">
        <ele>6.7</ele>
        <time>2020-06-05T12:14:10Z</time>
      </trkpt>
      <trkpt lat="47.23577" lon="-2.17475">
        <ele>6.7</ele>
        <time>2020-06-05T12:14:11Z</time>
      </trkpt>
      <trkpt lat="47.23579" lon="-2.17469">
        <ele>6.7</ele>
        <time>2020-06-05T12:14:12Z</time>
      </trkpt>
      <trkpt lat="47.23582" lon="-2.17462">
        <ele>6.6</ele>
        <time>2020-06-05T12:14:13Z</time>
      </trkpt>
      <trkpt lat="47.23584" lon="-2.17455">
        <ele>6.6</ele>
        <time>2020-06-05T12:14:14Z</time>
      </trkpt>
      <trkpt lat="47.23586" lon="-2.17447">
        <ele>6.5</ele>
        <time>2020-06-05T12:14:15Z</time>
      </trkpt>
      <trkpt lat="47.23589" lon="-2.17439">
        <ele>6.4</ele>
        <time>2020-06-05T12:14:16Z</time>
      </trkpt>
      <trkpt lat="47.23591" lon="-2.17431">
        <ele>6.3</ele>
        <time>2020-06-05T12:14:17Z</time>
      </trkpt>
      <trkpt lat="47.23593" lon="-2.17425">
        <ele>6.3</ele>
        <time>2020-06-05T12:14:18Z</time>
      </trkpt>
      <trkpt lat="47.23595" lon="-2.17418">
        <ele>6.2</ele>
        <time>2020-06-05T12:14:19Z</time>
      </trkpt>
      <trkpt lat="47.23597" lon="-2.17413">
        <ele>6.2</ele>
        <time>2020-06-05T12:14:20Z</time>
      </trkpt>
      <trkpt lat="47.23599" lon="-2.17406">
        <ele>6.1</ele>
        <time>2020-06-05T12:14:21Z</time>
      </trkpt>
      <trkpt lat="47.23601" lon="-2.17401">
        <ele>6.1</ele>
        <time>2020-06-05T12:14:22Z</time>
      </trkpt>
      <trkpt lat="47.23604" lon="-2.17395">
        <ele>6</ele>
        <time>2020-06-05T12:14:23Z</time>
      </trkpt>
      <trkpt lat="47.23608" lon="-2.17389">
        <ele>6</ele>
        <time>2020-06-05T12:14:24Z</time>
      </trkpt>
      <trkpt lat="47.23609" lon="-2.17384">
        <ele>6</ele>
        <time>2020-06-05T12:14:25Z</time>
      </trkpt>
      <trkpt lat="47.23611" lon="-2.17378">
        <ele>6</ele>
        <time>2020-06-05T12:14:26Z</time>
      </trkpt>
      <trkpt lat="47.23612" lon="-2.17372">
        <ele>6</ele>
        <time>2020-06-05T12:14:27Z</time>
      </trkpt>
      <trkpt lat="47.23615" lon="-2.17365">
        <ele>5.9</ele>
        <time>2020-06-05T12:14:28Z</time>
      </trkpt>
      <trkpt lat="47.23616" lon="-2.17358">
        <ele>5.9</ele>
        <time>2020-06-05T12:14:29Z</time>
      </trkpt>
      <trkpt lat="47.23617" lon="-2.17351">
        <ele>6</ele>
        <time>2020-06-05T12:14:30Z</time>
      </trkpt>
      <trkpt lat="47.23618" lon="-2.17345">
        <ele>6</ele>
        <time>2020-06-05T12:14:31Z</time>
      </trkpt>
      <trkpt lat="47.23619" lon="-2.1734">
        <ele>6</ele>
        <time>2020-06-05T12:14:32Z</time>
      </trkpt>
      <trkpt lat="47.23621" lon="-2.17333">
        <ele>6</ele>
        <time>2020-06-05T12:14:33Z</time>
      </trkpt>
      <trkpt lat="47.23622" lon="-2.17327">
        <ele>6.1</ele>
        <time>2020-06-05T12:14:34Z</time>
      </trkpt>
      <trkpt lat="47.23623" lon="-2.17321">
        <ele>6.1</ele>
        <time>2020-06-05T12:14:35Z</time>
      </trkpt>
      <trkpt lat="47.23626" lon="-2.17316">
        <ele>6.2</ele>
        <time>2020-06-05T12:14:36Z</time>
      </trkpt>
      <trkpt lat="47.23626" lon="-2.1731">
        <ele>6.2</ele>
        <time>2020-06-05T12:14:37Z</time>
      </trkpt>
      <trkpt lat="47.23628" lon="-2.17303">
        <ele>6.2</ele>
        <time>2020-06-05T12:14:38Z</time>
      </trkpt>
      <trkpt lat="47.23629" lon="-2.17295">
        <ele>6.3</ele>
        <time>2020-06-05T12:14:39Z</time>
      </trkpt>
      <trkpt lat="47.2363" lon="-2.17288">
        <ele>6.4</ele>
        <time>2020-06-05T12:14:40Z</time>
      </trkpt>
      <trkpt lat="47.23631" lon="-2.17283">
        <ele>6.4</ele>
        <time>2020-06-05T12:14:41Z</time>
      </trkpt>
      <trkpt lat="47.23632" lon="-2.17276">
        <ele>6.4</ele>
        <time>2020-06-05T12:14:42Z</time>
      </trkpt>
      <trkpt lat="47.23634" lon="-2.17269">
        <ele>6.5</ele>
        <time>2020-06-05T12:14:43Z</time>
      </trkpt>
      <trkpt lat="47.23636" lon="-2.17262">
        <ele>6.5</ele>
        <time>2020-06-05T12:14:44Z</time>
      </trkpt>
      <trkpt lat="47.23638" lon="-2.17255">
        <ele>6.6</ele>
        <time>2020-06-05T12:14:45Z</time>
      </trkpt>
      <trkpt lat="47.2364" lon="-2.17248">
        <ele>6.6</ele>
        <time>2020-06-05T12:14:46Z</time>
      </trkpt>
      <trkpt lat="47.23642" lon="-2.17241">
        <ele>6.7</ele>
        <time>2020-06-05T12:14:47Z</time>
      </trkpt>
      <trkpt lat="47.23644" lon="-2.17235">
        <ele>6.7</ele>
        <time>2020-06-05T12:14:48Z</time>
      </trkpt>
      <trkpt lat="47.23645" lon="-2.1723">
        <ele>6.8</ele>
        <time>2020-06-05T12:14:49Z</time>
      </trkpt>
      <trkpt lat="47.23648" lon="-2.17223">
        <ele>6.8</ele>
        <time>2020-06-05T12:14:50Z</time>
      </trkpt>
      <trkpt lat="47.23651" lon="-2.17219">
        <ele>6.9</ele>
        <time>2020-06-05T12:14:51Z</time>
      </trkpt>
      <trkpt lat="47.23653" lon="-2.17214">
        <ele>6.9</ele>
        <time>2020-06-05T12:14:52Z</time>
      </trkpt>
      <trkpt lat="47.23656" lon="-2.1721">
        <ele>7</ele>
        <time>2020-06-05T12:14:53Z</time>
      </trkpt>
      <trkpt lat="47.23659" lon="-2.17204">
        <ele>7</ele>
        <time>2020-06-05T12:14:54Z</time>
      </trkpt>
      <trkpt lat="47.23663" lon="-2.172">
        <ele>7</ele>
        <time>2020-06-05T12:14:55Z</time>
      </trkpt>
      <trkpt lat="47.23667" lon="-2.17195">
        <ele>7.1</ele>
        <time>2020-06-05T12:14:56Z</time>
      </trkpt>
      <trkpt lat="47.23671" lon="-2.1719">
        <ele>7.1</ele>
        <time>2020-06-05T12:14:57Z</time>
      </trkpt>
      <trkpt lat="47.23675" lon="-2.17185">
        <ele>7.1</ele>
        <time>2020-06-05T12:14:58Z</time>
      </trkpt>
      <trkpt lat="47.23677" lon="-2.17182">
        <ele>7.2</ele>
        <time>2020-06-05T12:14:59Z</time>
      </trkpt>
      <trkpt lat="47.23678" lon="-2.17181">
        <ele>7.2</ele>
        <time>2020-06-05T12:15:00Z</time>
      </trkpt>
      <trkpt lat="47.23679" lon="-2.17178">
        <ele>7.2</ele>
        <time>2020-06-05T12:15:01Z</time>
      </trkpt>
      <trkpt lat="47.23679" lon="-2.17177">
        <ele>7.2</ele>
        <time>2020-06-05T12:15:02Z</time>
      </trkpt>
      <trkpt lat="47.23679" lon="-2.17171">
        <ele>7.2</ele>
        <time>2020-06-05T12:15:03Z</time>
      </trkpt>
      <trkpt lat="47.23679" lon="-2.17169">
        <ele>7.2</ele>
        <time>2020-06-05T12:15:04Z</time>
      </trkpt>
      <trkpt lat="47.23681" lon="-2.17166">
        <ele>7.3</ele>
        <time>2020-06-05T12:15:05Z</time>
      </trkpt>
      <trkpt lat="47.23684" lon="-2.17162">
        <ele>7.3</ele>
        <time>2020-06-05T12:15:06Z</time>
      </trkpt>
      <trkpt lat="47.23687" lon="-2.17158">
        <ele>7.3</ele>
        <time>2020-06-05T12:15:07Z</time>
      </trkpt>
      <trkpt lat="47.2369" lon="-2.17154">
        <ele>7.4</ele>
        <time>2020-06-05T12:15:08Z</time>
      </trkpt>
      <trkpt lat="47.23694" lon="-2.17148">
        <ele>7.4</ele>
        <time>2020-06-05T12:15:09Z</time>
      </trkpt>
      <trkpt lat="47.23698" lon="-2.17143">
        <ele>7.5</ele>
        <time>2020-06-05T12:15:10Z</time>
      </trkpt>
      <trkpt lat="47.23702" lon="-2.17138">
        <ele>7.6</ele>
        <time>2020-06-05T12:15:11Z</time>
      </trkpt>
      <trkpt lat="47.23706" lon="-2.17133">
        <ele>7.6</ele>
        <time>2020-06-05T12:15:12Z</time>
      </trkpt>
      <trkpt lat="47.23709" lon="-2.17127">
        <ele>7.6</ele>
        <time>2020-06-05T12:15:13Z</time>
      </trkpt>
      <trkpt lat="47.23714" lon="-2.17121">
        <ele>7.6</ele>
        <time>2020-06-05T12:15:14Z</time>
      </trkpt>
      <trkpt lat="47.23718" lon="-2.17114">
        <ele>7.6</ele>
        <time>2020-06-05T12:15:15Z</time>
      </trkpt>
      <trkpt lat="47.23721" lon="-2.17111">
        <ele>7.5</ele>
        <time>2020-06-05T12:15:16Z</time>
      </trkpt>
      <trkpt lat="47.23725" lon="-2.17105">
        <ele>7.5</ele>
        <time>2020-06-05T12:15:17Z</time>
      </trkpt>
      <trkpt lat="47.23729" lon="-2.17098">
        <ele>7.4</ele>
        <time>2020-06-05T12:15:18Z</time>
      </trkpt>
      <trkpt lat="47.23734" lon="-2.17092">
        <ele>7.3</ele>
        <time>2020-06-05T12:15:19Z</time>
      </trkpt>
      <trkpt lat="47.2374" lon="-2.17086">
        <ele>7.2</ele>
        <time>2020-06-05T12:15:20Z</time>
      </trkpt>
      <trkpt lat="47.23744" lon="-2.17079">
        <ele>7.1</ele>
        <time>2020-06-05T12:15:21Z</time>
      </trkpt>
      <trkpt lat="47.2375" lon="-2.17072">
        <ele>7.1</ele>
        <time>2020-06-05T12:15:22Z</time>
      </trkpt>
      <trkpt lat="47.23755" lon="-2.17066">
        <ele>7</ele>
        <time>2020-06-05T12:15:23Z</time>
      </trkpt>
      <trkpt lat="47.2376" lon="-2.1706">
        <ele>6.9</ele>
        <time>2020-06-05T12:15:24Z</time>
      </trkpt>
      <trkpt lat="47.23766" lon="-2.17054">
        <ele>6.9</ele>
        <time>2020-06-05T12:15:25Z</time>
      </trkpt>
      <trkpt lat="47.2377" lon="-2.17049">
        <ele>6.8</ele>
        <time>2020-06-05T12:15:26Z</time>
      </trkpt>
      <trkpt lat="47.23775" lon="-2.17044">
        <ele>6.7</ele>
        <time>2020-06-05T12:15:27Z</time>
      </trkpt>
      <trkpt lat="47.23778" lon="-2.17039">
        <ele>6.6</ele>
        <time>2020-06-05T12:15:28Z</time>
      </trkpt>
      <trkpt lat="47.23782" lon="-2.17035">
        <ele>6.5</ele>
        <time>2020-06-05T12:15:29Z</time>
      </trkpt>
      <trkpt lat="47.23786" lon="-2.17031">
        <ele>6.4</ele>
        <time>2020-06-05T12:15:30Z</time>
      </trkpt>
      <trkpt lat="47.2379" lon="-2.17028">
        <ele>6.3</ele>
        <time>2020-06-05T12:15:31Z</time>
      </trkpt>
      <trkpt lat="47.23795" lon="-2.17021">
        <ele>6.2</ele>
        <time>2020-06-05T12:15:32Z</time>
      </trkpt>
      <trkpt lat="47.23798" lon="-2.17017">
        <ele>6</ele>
        <time>2020-06-05T12:15:33Z</time>
      </trkpt>
      <trkpt lat="47.238" lon="-2.17013">
        <ele>6</ele>
        <time>2020-06-05T12:15:34Z</time>
      </trkpt>
      <trkpt lat="47.23805" lon="-2.17007">
        <ele>5.8</ele>
        <time>2020-06-05T12:15:35Z</time>
      </trkpt>
      <trkpt lat="47.2381" lon="-2.17003">
        <ele>5.6</ele>
        <time>2020-06-05T12:15:36Z</time>
      </trkpt>
      <trkpt lat="47.23814" lon="-2.16998">
        <ele>5.4</ele>
        <time>2020-06-05T12:15:37Z</time>
      </trkpt>
      <trkpt lat="47.23818" lon="-2.16993">
        <ele>5.3</ele>
        <time>2020-06-05T12:15:38Z</time>
      </trkpt>
      <trkpt lat="47.23822" lon="-2.16988">
        <ele>5.2</ele>
        <time>2020-06-05T12:15:39Z</time>
      </trkpt>
      <trkpt lat="47.23827" lon="-2.16983">
        <ele>5.1</ele>
        <time>2020-06-05T12:15:40Z</time>
      </trkpt>
      <trkpt lat="47.23831" lon="-2.16977">
        <ele>5</ele>
        <time>2020-06-05T12:15:41Z</time>
      </trkpt>
      <trkpt lat="47.23834" lon="-2.16973">
        <ele>4.9</ele>
        <time>2020-06-05T12:15:42Z</time>
      </trkpt>
      <trkpt lat="47.23838" lon="-2.16968">
        <ele>4.8</ele>
        <time>2020-06-05T12:15:43Z</time>
      </trkpt>
      <trkpt lat="47.23842" lon="-2.16962">
        <ele>4.6</ele>
        <time>2020-06-05T12:15:44Z</time>
      </trkpt>
      <trkpt lat="47.23845" lon="-2.16955">
        <ele>4.5</ele>
        <time>2020-06-05T12:15:45Z</time>
      </trkpt>
      <trkpt lat="47.23849" lon="-2.16947">
        <ele>4.3</ele>
        <time>2020-06-05T12:15:46Z</time>
      </trkpt>
      <trkpt lat="47.23852" lon="-2.16939">
        <ele>4.3</ele>
        <time>2020-06-05T12:15:47Z</time>
      </trkpt>
      <trkpt lat="47.23855" lon="-2.16932">
        <ele>4.3</ele>
        <time>2020-06-05T12:15:48Z</time>
      </trkpt>
      <trkpt lat="47.23857" lon="-2.16925">
        <ele>4.3</ele>
        <time>2020-06-05T12:15:49Z</time>
      </trkpt>
      <trkpt lat="47.23858" lon="-2.16917">
        <ele>4.3</ele>
        <time>2020-06-05T12:15:50Z</time>
      </trkpt>
      <trkpt lat="47.23857" lon="-2.16908">
        <ele>4.2</ele>
        <time>2020-06-05T12:15:51Z</time>
      </trkpt>
      <trkpt lat="47.23857" lon="-2.16899">
        <ele>4.2</ele>
        <time>2020-06-05T12:15:52Z</time>
      </trkpt>
      <trkpt lat="47.23859" lon="-2.16891">
        <ele>4.2</ele>
        <time>2020-06-05T12:15:53Z</time>
      </trkpt>
      <trkpt lat="47.23862" lon="-2.16884">
        <ele>4.2</ele>
        <time>2020-06-05T12:15:54Z</time>
      </trkpt>
      <trkpt lat="47.23867" lon="-2.16881">
        <ele>4.3</ele>
        <time>2020-06-05T12:15:55Z</time>
      </trkpt>
      <trkpt lat="47.23872" lon="-2.16876">
        <ele>4.4</ele>
        <time>2020-06-05T12:15:56Z</time>
      </trkpt>
      <trkpt lat="47.23876" lon="-2.16871">
        <ele>4.4</ele>
        <time>2020-06-05T12:15:57Z</time>
      </trkpt>
      <trkpt lat="47.23881" lon="-2.16866">
        <ele>4.3</ele>
        <time>2020-06-05T12:15:58Z</time>
      </trkpt>
      <trkpt lat="47.23884" lon="-2.1686">
        <ele>4.3</ele>
        <time>2020-06-05T12:15:59Z</time>
      </trkpt>
      <trkpt lat="47.23888" lon="-2.16855">
        <ele>4.2</ele>
        <time>2020-06-05T12:16:00Z</time>
      </trkpt>
      <trkpt lat="47.23891" lon="-2.1685">
        <ele>4.2</ele>
        <time>2020-06-05T12:16:01Z</time>
      </trkpt>
      <trkpt lat="47.23895" lon="-2.16845">
        <ele>4.2</ele>
        <time>2020-06-05T12:16:02Z</time>
      </trkpt>
      <trkpt lat="47.23899" lon="-2.1684">
        <ele>4.1</ele>
        <time>2020-06-05T12:16:03Z</time>
      </trkpt>
      <trkpt lat="47.23903" lon="-2.16835">
        <ele>4.1</ele>
        <time>2020-06-05T12:16:04Z</time>
      </trkpt>
      <trkpt lat="47.23907" lon="-2.16831">
        <ele>4.1</ele>
        <time>2020-06-05T12:16:05Z</time>
      </trkpt>
      <trkpt lat="47.23912" lon="-2.16824">
        <ele>4.1</ele>
        <time>2020-06-05T12:16:06Z</time>
      </trkpt>
      <trkpt lat="47.23916" lon="-2.16819">
        <ele>4.1</ele>
        <time>2020-06-05T12:16:07Z</time>
      </trkpt>
      <trkpt lat="47.2392" lon="-2.16814">
        <ele>4.2</ele>
        <time>2020-06-05T12:16:08Z</time>
      </trkpt>
      <trkpt lat="47.23924" lon="-2.16809">
        <ele>4.3</ele>
        <time>2020-06-05T12:16:09Z</time>
      </trkpt>
      <trkpt lat="47.23929" lon="-2.16805">
        <ele>4.3</ele>
        <time>2020-06-05T12:16:10Z</time>
      </trkpt>
      <trkpt lat="47.23933" lon="-2.16801">
        <ele>4.4</ele>
        <time>2020-06-05T12:16:11Z</time>
      </trkpt>
      <trkpt lat="47.23938" lon="-2.16797">
        <ele>4.4</ele>
        <time>2020-06-05T12:16:12Z</time>
      </trkpt>
      <trkpt lat="47.23942" lon="-2.16793">
        <ele>4.5</ele>
        <time>2020-06-05T12:16:13Z</time>
      </trkpt>
      <trkpt lat="47.23946" lon="-2.16788">
        <ele>4.5</ele>
        <time>2020-06-05T12:16:14Z</time>
      </trkpt>
      <trkpt lat="47.23951" lon="-2.16782">
        <ele>4.6</ele>
        <time>2020-06-05T12:16:15Z</time>
      </trkpt>
      <trkpt lat="47.23955" lon="-2.16777">
        <ele>4.6</ele>
        <time>2020-06-05T12:16:16Z</time>
      </trkpt>
      <trkpt lat="47.23959" lon="-2.16771">
        <ele>4.7</ele>
        <time>2020-06-05T12:16:17Z</time>
      </trkpt>
      <trkpt lat="47.23962" lon="-2.16768">
        <ele>4.6</ele>
        <time>2020-06-05T12:16:18Z</time>
      </trkpt>
      <trkpt lat="47.23968" lon="-2.16762">
        <ele>4.6</ele>
        <time>2020-06-05T12:16:19Z</time>
      </trkpt>
      <trkpt lat="47.23973" lon="-2.16756">
        <ele>4.6</ele>
        <time>2020-06-05T12:16:20Z</time>
      </trkpt>
      <trkpt lat="47.23977" lon="-2.1675">
        <ele>4.6</ele>
        <time>2020-06-05T12:16:21Z</time>
      </trkpt>
      <trkpt lat="47.23981" lon="-2.16745">
        <ele>4.7</ele>
        <time>2020-06-05T12:16:22Z</time>
      </trkpt>
      <trkpt lat="47.23986" lon="-2.16739">
        <ele>4.7</ele>
        <time>2020-06-05T12:16:23Z</time>
      </trkpt>
      <trkpt lat="47.23989" lon="-2.16735">
        <ele>4.7</ele>
        <time>2020-06-05T12:16:24Z</time>
      </trkpt>
      <trkpt lat="47.23993" lon="-2.1673">
        <ele>4.8</ele>
        <time>2020-06-05T12:16:25Z</time>
      </trkpt>
      <trkpt lat="47.23996" lon="-2.16725">
        <ele>4.8</ele>
        <time>2020-06-05T12:16:26Z</time>
      </trkpt>
      <trkpt lat="47.24" lon="-2.16721">
        <ele>4.8</ele>
        <time>2020-06-05T12:16:27Z</time>
      </trkpt>
      <trkpt lat="47.24003" lon="-2.16716">
        <ele>4.8</ele>
        <time>2020-06-05T12:16:28Z</time>
      </trkpt>
      <trkpt lat="47.24006" lon="-2.16711">
        <ele>4.8</ele>
        <time>2020-06-05T12:16:29Z</time>
      </trkpt>
      <trkpt lat="47.24012" lon="-2.16705">
        <ele>4.8</ele>
        <time>2020-06-05T12:16:30Z</time>
      </trkpt>
      <trkpt lat="47.24017" lon="-2.16699">
        <ele>4.9</ele>
        <time>2020-06-05T12:16:31Z</time>
      </trkpt>
      <trkpt lat="47.24022" lon="-2.16693">
        <ele>4.9</ele>
        <time>2020-06-05T12:16:32Z</time>
      </trkpt>
      <trkpt lat="47.24026" lon="-2.16688">
        <ele>4.9</ele>
        <time>2020-06-05T12:16:33Z</time>
      </trkpt>
      <trkpt lat="47.24031" lon="-2.16681">
        <ele>5</ele>
        <time>2020-06-05T12:16:34Z</time>
      </trkpt>
      <trkpt lat="47.24035" lon="-2.16676">
        <ele>5</ele>
        <time>2020-06-05T12:16:35Z</time>
      </trkpt>
      <trkpt lat="47.24041" lon="-2.1667">
        <ele>5</ele>
        <time>2020-06-05T12:16:36Z</time>
      </trkpt>
      <trkpt lat="47.24046" lon="-2.16663">
        <ele>5</ele>
        <time>2020-06-05T12:16:37Z</time>
      </trkpt>
      <trkpt lat="47.2405" lon="-2.16659">
        <ele>5</ele>
        <time>2020-06-05T12:16:38Z</time>
      </trkpt>
      <trkpt lat="47.24055" lon="-2.16655">
        <ele>5.1</ele>
        <time>2020-06-05T12:16:39Z</time>
      </trkpt>
      <trkpt lat="47.2406" lon="-2.16651">
        <ele>5.1</ele>
        <time>2020-06-05T12:16:40Z</time>
      </trkpt>
      <trkpt lat="47.24065" lon="-2.16645">
        <ele>5.2</ele>
        <time>2020-06-05T12:16:41Z</time>
      </trkpt>
      <trkpt lat="47.24071" lon="-2.16637">
        <ele>5.3</ele>
        <time>2020-06-05T12:16:42Z</time>
      </trkpt>
      <trkpt lat="47.24075" lon="-2.16631">
        <ele>5.3</ele>
        <time>2020-06-05T12:16:43Z</time>
      </trkpt>
      <trkpt lat="47.24079" lon="-2.16626">
        <ele>5.2</ele>
        <time>2020-06-05T12:16:44Z</time>
      </trkpt>
      <trkpt lat="47.24085" lon="-2.16617">
        <ele>5.2</ele>
        <time>2020-06-05T12:16:45Z</time>
      </trkpt>
      <trkpt lat="47.2409" lon="-2.16612">
        <ele>5.1</ele>
        <time>2020-06-05T12:16:46Z</time>
      </trkpt>
      <trkpt lat="47.24096" lon="-2.16605">
        <ele>5.1</ele>
        <time>2020-06-05T12:16:47Z</time>
      </trkpt>
      <trkpt lat="47.24102" lon="-2.16597">
        <ele>5</ele>
        <time>2020-06-05T12:16:48Z</time>
      </trkpt>
      <trkpt lat="47.24107" lon="-2.16591">
        <ele>5</ele>
        <time>2020-06-05T12:16:49Z</time>
      </trkpt>
      <trkpt lat="47.24112" lon="-2.16585">
        <ele>5</ele>
        <time>2020-06-05T12:16:50Z</time>
      </trkpt>
      <trkpt lat="47.24118" lon="-2.16579">
        <ele>5.1</ele>
        <time>2020-06-05T12:16:51Z</time>
      </trkpt>
      <trkpt lat="47.24123" lon="-2.16573">
        <ele>5.2</ele>
        <time>2020-06-05T12:16:52Z</time>
      </trkpt>
      <trkpt lat="47.24129" lon="-2.16566">
        <ele>5.3</ele>
        <time>2020-06-05T12:16:53Z</time>
      </trkpt>
      <trkpt lat="47.24134" lon="-2.1656">
        <ele>5.3</ele>
        <time>2020-06-05T12:16:54Z</time>
      </trkpt>
      <trkpt lat="47.24141" lon="-2.16553">
        <ele>5.4</ele>
        <time>2020-06-05T12:16:55Z</time>
      </trkpt>
      <trkpt lat="47.24146" lon="-2.16548">
        <ele>5.4</ele>
        <time>2020-06-05T12:16:56Z</time>
      </trkpt>
      <trkpt lat="47.24153" lon="-2.16541">
        <ele>5.4</ele>
        <time>2020-06-05T12:16:57Z</time>
      </trkpt>
      <trkpt lat="47.24158" lon="-2.16535">
        <ele>5.4</ele>
        <time>2020-06-05T12:16:58Z</time>
      </trkpt>
      <trkpt lat="47.24164" lon="-2.16529">
        <ele>5.4</ele>
        <time>2020-06-05T12:16:59Z</time>
      </trkpt>
      <trkpt lat="47.24169" lon="-2.16522">
        <ele>5.5</ele>
        <time>2020-06-05T12:17:00Z</time>
      </trkpt>
      <trkpt lat="47.24174" lon="-2.16516">
        <ele>5.5</ele>
        <time>2020-06-05T12:17:01Z</time>
      </trkpt>
      <trkpt lat="47.24179" lon="-2.16511">
        <ele>5.5</ele>
        <time>2020-06-05T12:17:02Z</time>
      </trkpt>
      <trkpt lat="47.24185" lon="-2.16506">
        <ele>5.5</ele>
        <time>2020-06-05T12:17:03Z</time>
      </trkpt>
      <trkpt lat="47.2419" lon="-2.16501">
        <ele>5.5</ele>
        <time>2020-06-05T12:17:04Z</time>
      </trkpt>
      <trkpt lat="47.24194" lon="-2.16494">
        <ele>5.5</ele>
        <time>2020-06-05T12:17:05Z</time>
      </trkpt>
      <trkpt lat="47.24199" lon="-2.16487">
        <ele>5.5</ele>
        <time>2020-06-05T12:17:06Z</time>
      </trkpt>
      <trkpt lat="47.24202" lon="-2.16484">
        <ele>5.5</ele>
        <time>2020-06-05T12:17:07Z</time>
      </trkpt>
      <trkpt lat="47.24207" lon="-2.16478">
        <ele>5.5</ele>
        <time>2020-06-05T12:17:08Z</time>
      </trkpt>
      <trkpt lat="47.24212" lon="-2.16473">
        <ele>5.5</ele>
        <time>2020-06-05T12:17:09Z</time>
      </trkpt>
      <trkpt lat="47.24216" lon="-2.16468">
        <ele>5.5</ele>
        <time>2020-06-05T12:17:10Z</time>
      </trkpt>
      <trkpt lat="47.24221" lon="-2.16462">
        <ele>5.5</ele>
        <time>2020-06-05T12:17:11Z</time>
      </trkpt>
      <trkpt lat="47.24226" lon="-2.16457">
        <ele>5.5</ele>
        <time>2020-06-05T12:17:12Z</time>
      </trkpt>
      <trkpt lat="47.24231" lon="-2.16451">
        <ele>5.6</ele>
        <time>2020-06-05T12:17:13Z</time>
      </trkpt>
      <trkpt lat="47.24235" lon="-2.16445">
        <ele>5.6</ele>
        <time>2020-06-05T12:17:14Z</time>
      </trkpt>
      <trkpt lat="47.2424" lon="-2.16438">
        <ele>5.6</ele>
        <time>2020-06-05T12:17:15Z</time>
      </trkpt>
      <trkpt lat="47.24245" lon="-2.16433">
        <ele>5.6</ele>
        <time>2020-06-05T12:17:16Z</time>
      </trkpt>
      <trkpt lat="47.24249" lon="-2.16427">
        <ele>5.7</ele>
        <time>2020-06-05T12:17:17Z</time>
      </trkpt>
      <trkpt lat="47.24253" lon="-2.16422">
        <ele>5.7</ele>
        <time>2020-06-05T12:17:18Z</time>
      </trkpt>
      <trkpt lat="47.24257" lon="-2.16417">
        <ele>5.7</ele>
        <time>2020-06-05T12:17:19Z</time>
      </trkpt>
      <trkpt lat="47.24261" lon="-2.16414">
        <ele>5.7</ele>
        <time>2020-06-05T12:17:20Z</time>
      </trkpt>
      <trkpt lat="47.24266" lon="-2.16408">
        <ele>5.7</ele>
        <time>2020-06-05T12:17:21Z</time>
      </trkpt>
      <trkpt lat="47.24271" lon="-2.16403">
        <ele>5.8</ele>
        <time>2020-06-05T12:17:22Z</time>
      </trkpt>
      <trkpt lat="47.24277" lon="-2.16395">
        <ele>5.8</ele>
        <time>2020-06-05T12:17:23Z</time>
      </trkpt>
      <trkpt lat="47.24283" lon="-2.16388">
        <ele>5.8</ele>
        <time>2020-06-05T12:17:24Z</time>
      </trkpt>
      <trkpt lat="47.24287" lon="-2.16382">
        <ele>5.8</ele>
        <time>2020-06-05T12:17:25Z</time>
      </trkpt>
      <trkpt lat="47.24291" lon="-2.16377">
        <ele>5.8</ele>
        <time>2020-06-05T12:17:26Z</time>
      </trkpt>
      <trkpt lat="47.24295" lon="-2.16372">
        <ele>5.8</ele>
        <time>2020-06-05T12:17:27Z</time>
      </trkpt>
      <trkpt lat="47.24299" lon="-2.16367">
        <ele>5.9</ele>
        <time>2020-06-05T12:17:28Z</time>
      </trkpt>
      <trkpt lat="47.24302" lon="-2.16363">
        <ele>5.9</ele>
        <time>2020-06-05T12:17:29Z</time>
      </trkpt>
      <trkpt lat="47.24306" lon="-2.16357">
        <ele>5.9</ele>
        <time>2020-06-05T12:17:30Z</time>
      </trkpt>
      <trkpt lat="47.2431" lon="-2.16352">
        <ele>5.9</ele>
        <time>2020-06-05T12:17:31Z</time>
      </trkpt>
      <trkpt lat="47.24315" lon="-2.16347">
        <ele>6</ele>
        <time>2020-06-05T12:17:32Z</time>
      </trkpt>
      <trkpt lat="47.24319" lon="-2.16341">
        <ele>6</ele>
        <time>2020-06-05T12:17:33Z</time>
      </trkpt>
      <trkpt lat="47.24323" lon="-2.16336">
        <ele>6.1</ele>
        <time>2020-06-05T12:17:34Z</time>
      </trkpt>
      <trkpt lat="47.24328" lon="-2.16332">
        <ele>6.1</ele>
        <time>2020-06-05T12:17:35Z</time>
      </trkpt>
      <trkpt lat="47.24332" lon="-2.16327">
        <ele>6.1</ele>
        <time>2020-06-05T12:17:36Z</time>
      </trkpt>
      <trkpt lat="47.24336" lon="-2.16321">
        <ele>6.2</ele>
        <time>2020-06-05T12:17:37Z</time>
      </trkpt>
      <trkpt lat="47.24341" lon="-2.16316">
        <ele>6.2</ele>
        <time>2020-06-05T12:17:38Z</time>
      </trkpt>
      <trkpt lat="47.24345" lon="-2.16312">
        <ele>6.3</ele>
        <time>2020-06-05T12:17:39Z</time>
      </trkpt>
      <trkpt lat="47.24349" lon="-2.16308">
        <ele>6.3</ele>
        <time>2020-06-05T12:17:40Z</time>
      </trkpt>
      <trkpt lat="47.24353" lon="-2.16306">
        <ele>6.2</ele>
        <time>2020-06-05T12:17:41Z</time>
      </trkpt>
      <trkpt lat="47.24358" lon="-2.16302">
        <ele>6.2</ele>
        <time>2020-06-05T12:17:42Z</time>
      </trkpt>
      <trkpt lat="47.24362" lon="-2.16299">
        <ele>6.2</ele>
        <time>2020-06-05T12:17:43Z</time>
      </trkpt>
      <trkpt lat="47.24366" lon="-2.16295">
        <ele>6.2</ele>
        <time>2020-06-05T12:17:44Z</time>
      </trkpt>
      <trkpt lat="47.2437" lon="-2.16292">
        <ele>6.3</ele>
        <time>2020-06-05T12:17:45Z</time>
      </trkpt>
      <trkpt lat="47.24374" lon="-2.16288">
        <ele>6.3</ele>
        <time>2020-06-05T12:17:46Z</time>
      </trkpt>
      <trkpt lat="47.24379" lon="-2.16284">
        <ele>6.3</ele>
        <time>2020-06-05T12:17:47Z</time>
      </trkpt>
      <trkpt lat="47.24382" lon="-2.16279">
        <ele>6.4</ele>
        <time>2020-06-05T12:17:48Z</time>
      </trkpt>
      <trkpt lat="47.24386" lon="-2.16275">
        <ele>6.4</ele>
        <time>2020-06-05T12:17:49Z</time>
      </trkpt>
      <trkpt lat="47.24389" lon="-2.16269">
        <ele>6.5</ele>
        <time>2020-06-05T12:17:50Z</time>
      </trkpt>
      <trkpt lat="47.24392" lon="-2.16264">
        <ele>6.5</ele>
        <time>2020-06-05T12:17:51Z</time>
      </trkpt>
      <trkpt lat="47.24395" lon="-2.16261">
        <ele>6.6</ele>
        <time>2020-06-05T12:17:52Z</time>
      </trkpt>
      <trkpt lat="47.244" lon="-2.16258">
        <ele>6.6</ele>
        <time>2020-06-05T12:17:53Z</time>
      </trkpt>
      <trkpt lat="47.24405" lon="-2.16257">
        <ele>6.7</ele>
        <time>2020-06-05T12:17:54Z</time>
      </trkpt>
      <trkpt lat="47.24411" lon="-2.16255">
        <ele>6.8</ele>
        <time>2020-06-05T12:17:55Z</time>
      </trkpt>
      <trkpt lat="47.24417" lon="-2.16252">
        <ele>7</ele>
        <time>2020-06-05T12:17:56Z</time>
      </trkpt>
      <trkpt lat="47.24422" lon="-2.16248">
        <ele>7.1</ele>
        <time>2020-06-05T12:17:57Z</time>
      </trkpt>
      <trkpt lat="47.24426" lon="-2.16244">
        <ele>7.2</ele>
        <time>2020-06-05T12:17:58Z</time>
      </trkpt>
      <trkpt lat="47.2443" lon="-2.16241">
        <ele>7.2</ele>
        <time>2020-06-05T12:17:59Z</time>
      </trkpt>
      <trkpt lat="47.24433" lon="-2.16238">
        <ele>7.3</ele>
        <time>2020-06-05T12:18:00Z</time>
      </trkpt>
      <trkpt lat="47.24436" lon="-2.16236">
        <ele>7.4</ele>
        <time>2020-06-05T12:18:01Z</time>
      </trkpt>
      <trkpt lat="47.24438" lon="-2.16231">
        <ele>7.5</ele>
        <time>2020-06-05T12:18:02Z</time>
      </trkpt>
      <trkpt lat="47.24441" lon="-2.16227">
        <ele>7.6</ele>
        <time>2020-06-05T12:18:03Z</time>
      </trkpt>
      <trkpt lat="47.24443" lon="-2.16225">
        <ele>7.7</ele>
        <time>2020-06-05T12:18:04Z</time>
      </trkpt>
      <trkpt lat="47.24447" lon="-2.16224">
        <ele>7.9</ele>
        <time>2020-06-05T12:18:05Z</time>
      </trkpt>
      <trkpt lat="47.24448" lon="-2.16223">
        <ele>7.9</ele>
        <time>2020-06-05T12:18:06Z</time>
      </trkpt>
      <trkpt lat="47.24448" lon="-2.16221">
        <ele>8</ele>
        <time>2020-06-05T12:18:07Z</time>
      </trkpt>
      <trkpt lat="47.24449" lon="-2.1622">
        <ele>8</ele>
        <time>2020-06-05T12:18:08Z</time>
      </trkpt>
      <trkpt lat="47.2445" lon="-2.16219">
        <ele>8.1</ele>
        <time>2020-06-05T12:18:09Z</time>
      </trkpt>
      <trkpt lat="47.2445" lon="-2.16218">
        <ele>8.1</ele>
        <time>2020-06-05T12:18:10Z</time>
      </trkpt>
      <trkpt lat="47.24451" lon="-2.16218">
        <ele>8.1</ele>
        <time>2020-06-05T12:18:11Z</time>
      </trkpt>
      <trkpt lat="47.24451" lon="-2.16217">
        <ele>8.1</ele>
        <time>2020-06-05T12:18:12Z</time>
      </trkpt>
      <trkpt lat="47.24451" lon="-2.16217">
        <ele>8.1</ele>
        <time>2020-06-05T12:18:13Z</time>
      </trkpt>
      <trkpt lat="47.24451" lon="-2.16217">
        <ele>8.1</ele>
        <time>2020-06-05T12:18:14Z</time>
      </trkpt>
      <trkpt lat="47.24451" lon="-2.16216">
        <ele>8.1</ele>
        <time>2020-06-05T12:18:15Z</time>
      </trkpt>
      <trkpt lat="47.24451" lon="-2.16216">
        <ele>8.1</ele>
        <time>2020-06-05T12:18:16Z</time>
      </trkpt>
      <trkpt lat="47.24452" lon="-2.16215">
        <ele>8.1</ele>
        <time>2020-06-05T12:18:17Z</time>
      </trkpt>
      <trkpt lat="47.24452" lon="-2.16215">
        <ele>8.1</ele>
        <time>2020-06-05T12:18:18Z</time>
      </trkpt>
      <trkpt lat="47.24452" lon="-2.16214">
        <ele>8.1</ele>
        <time>2020-06-05T12:18:19Z</time>
      </trkpt>
      <trkpt lat="47.24452" lon="-2.16214">
        <ele>8.1</ele>
        <time>2020-06-05T12:18:20Z</time>
      </trkpt>
      <trkpt lat="47.24452" lon="-2.16214">
        <ele>8.1</ele>
        <time>2020-06-05T12:18:21Z</time>
      </trkpt>
      <trkpt lat="47.24456" lon="-2.16212">
        <ele>8.2</ele>
        <time>2020-06-05T12:18:22Z</time>
      </trkpt>
      <trkpt lat="47.24457" lon="-2.16211">
        <ele>8.2</ele>
        <time>2020-06-05T12:18:23Z</time>
      </trkpt>
      <trkpt lat="47.24461" lon="-2.16209">
        <ele>8.3</ele>
        <time>2020-06-05T12:18:24Z</time>
      </trkpt>
      <trkpt lat="47.24464" lon="-2.16209">
        <ele>8.3</ele>
        <time>2020-06-05T12:18:25Z</time>
      </trkpt>
      <trkpt lat="47.24468" lon="-2.1621">
        <ele>8.4</ele>
        <time>2020-06-05T12:18:26Z</time>
      </trkpt>
      <trkpt lat="47.24472" lon="-2.16211">
        <ele>8.4</ele>
        <time>2020-06-05T12:18:27Z</time>
      </trkpt>
      <trkpt lat="47.24475" lon="-2.16211">
        <ele>8.5</ele>
        <time>2020-06-05T12:18:28Z</time>
      </trkpt>
      <trkpt lat="47.24478" lon="-2.16208">
        <ele>8.5</ele>
        <time>2020-06-05T12:18:29Z</time>
      </trkpt>
      <trkpt lat="47.24482" lon="-2.16207">
        <ele>8.5</ele>
        <time>2020-06-05T12:18:30Z</time>
      </trkpt>
      <trkpt lat="47.24485" lon="-2.16204">
        <ele>8.5</ele>
        <time>2020-06-05T12:18:31Z</time>
      </trkpt>
      <trkpt lat="47.24488" lon="-2.162">
        <ele>8.4</ele>
        <time>2020-06-05T12:18:32Z</time>
      </trkpt>
      <trkpt lat="47.24491" lon="-2.16198">
        <ele>8.4</ele>
        <time>2020-06-05T12:18:33Z</time>
      </trkpt>
      <trkpt lat="47.24494" lon="-2.16197">
        <ele>8.4</ele>
        <time>2020-06-05T12:18:34Z</time>
      </trkpt>
      <trkpt lat="47.24498" lon="-2.16196">
        <ele>8.2</ele>
        <time>2020-06-05T12:18:35Z</time>
      </trkpt>
      <trkpt lat="47.24502" lon="-2.16196">
        <ele>8.1</ele>
        <time>2020-06-05T12:18:36Z</time>
      </trkpt>
      <trkpt lat="47.24506" lon="-2.16195">
        <ele>7.9</ele>
        <time>2020-06-05T12:18:37Z</time>
      </trkpt>
      <trkpt lat="47.2451" lon="-2.16194">
        <ele>7.7</ele>
        <time>2020-06-05T12:18:38Z</time>
      </trkpt>
      <trkpt lat="47.24514" lon="-2.1619">
        <ele>7.5</ele>
        <time>2020-06-05T12:18:39Z</time>
      </trkpt>
      <trkpt lat="47.24518" lon="-2.16186">
        <ele>7.2</ele>
        <time>2020-06-05T12:18:40Z</time>
      </trkpt>
      <trkpt lat="47.24521" lon="-2.16181">
        <ele>7</ele>
        <time>2020-06-05T12:18:41Z</time>
      </trkpt>
      <trkpt lat="47.24523" lon="-2.16174">
        <ele>6.8</ele>
        <time>2020-06-05T12:18:42Z</time>
      </trkpt>
      <trkpt lat="47.24524" lon="-2.16166">
        <ele>6.5</ele>
        <time>2020-06-05T12:18:43Z</time>
      </trkpt>
      <trkpt lat="47.24524" lon="-2.16156">
        <ele>6.2</ele>
        <time>2020-06-05T12:18:44Z</time>
      </trkpt>
      <trkpt lat="47.24524" lon="-2.16148">
        <ele>6.1</ele>
        <time>2020-06-05T12:18:45Z</time>
      </trkpt>
      <trkpt lat="47.24523" lon="-2.16138">
        <ele>6</ele>
        <time>2020-06-05T12:18:46Z</time>
      </trkpt>
      <trkpt lat="47.24522" lon="-2.16128">
        <ele>5.9</ele>
        <time>2020-06-05T12:18:47Z</time>
      </trkpt>
      <trkpt lat="47.2452" lon="-2.16117">
        <ele>5.7</ele>
        <time>2020-06-05T12:18:48Z</time>
      </trkpt>
      <trkpt lat="47.24519" lon="-2.16106">
        <ele>5.6</ele>
        <time>2020-06-05T12:18:49Z</time>
      </trkpt>
      <trkpt lat="47.24517" lon="-2.16094">
        <ele>5.4</ele>
        <time>2020-06-05T12:18:50Z</time>
      </trkpt>
      <trkpt lat="47.24515" lon="-2.16084">
        <ele>5.3</ele>
        <time>2020-06-05T12:18:51Z</time>
      </trkpt>
      <trkpt lat="47.24514" lon="-2.16072">
        <ele>5.1</ele>
        <time>2020-06-05T12:18:52Z</time>
      </trkpt>
      <trkpt lat="47.24512" lon="-2.16059">
        <ele>5</ele>
        <time>2020-06-05T12:18:53Z</time>
      </trkpt>
      <trkpt lat="47.24511" lon="-2.16049">
        <ele>5</ele>
        <time>2020-06-05T12:18:54Z</time>
      </trkpt>
      <trkpt lat="47.24509" lon="-2.16036">
        <ele>5</ele>
        <time>2020-06-05T12:18:55Z</time>
      </trkpt>
      <trkpt lat="47.24508" lon="-2.16024">
        <ele>5</ele>
        <time>2020-06-05T12:18:56Z</time>
      </trkpt>
      <trkpt lat="47.24507" lon="-2.16012">
        <ele>5</ele>
        <time>2020-06-05T12:18:57Z</time>
      </trkpt>
      <trkpt lat="47.24505" lon="-2.16001">
        <ele>5</ele>
        <time>2020-06-05T12:18:58Z</time>
      </trkpt>
      <trkpt lat="47.24503" lon="-2.15989">
        <ele>5.1</ele>
        <time>2020-06-05T12:18:59Z</time>
      </trkpt>
      <trkpt lat="47.24502" lon="-2.15977">
        <ele>5.1</ele>
        <time>2020-06-05T12:19:00Z</time>
      </trkpt>
      <trkpt lat="47.24502" lon="-2.15965">
        <ele>5.2</ele>
        <time>2020-06-05T12:19:01Z</time>
      </trkpt>
      <trkpt lat="47.24501" lon="-2.15952">
        <ele>5.3</ele>
        <time>2020-06-05T12:19:02Z</time>
      </trkpt>
      <trkpt lat="47.24499" lon="-2.15939">
        <ele>5.5</ele>
        <time>2020-06-05T12:19:03Z</time>
      </trkpt>
      <trkpt lat="47.24497" lon="-2.15926">
        <ele>5.7</ele>
        <time>2020-06-05T12:19:04Z</time>
      </trkpt>
      <trkpt lat="47.24495" lon="-2.15914">
        <ele>5.9</ele>
        <time>2020-06-05T12:19:05Z</time>
      </trkpt>
      <trkpt lat="47.24494" lon="-2.15902">
        <ele>6.1</ele>
        <time>2020-06-05T12:19:06Z</time>
      </trkpt>
      <trkpt lat="47.24493" lon="-2.15889">
        <ele>6.2</ele>
        <time>2020-06-05T12:19:07Z</time>
      </trkpt>
      <trkpt lat="47.24493" lon="-2.15877">
        <ele>6.3</ele>
        <time>2020-06-05T12:19:08Z</time>
      </trkpt>
      <trkpt lat="47.24492" lon="-2.15865">
        <ele>6.5</ele>
        <time>2020-06-05T12:19:09Z</time>
      </trkpt>
      <trkpt lat="47.24492" lon="-2.15854">
        <ele>6.7</ele>
        <time>2020-06-05T12:19:10Z</time>
      </trkpt>
      <trkpt lat="47.24491" lon="-2.15844">
        <ele>6.8</ele>
        <time>2020-06-05T12:19:11Z</time>
      </trkpt>
      <trkpt lat="47.24488" lon="-2.15836">
        <ele>7</ele>
        <time>2020-06-05T12:19:12Z</time>
      </trkpt>
      <trkpt lat="47.24482" lon="-2.15829">
        <ele>7.2</ele>
        <time>2020-06-05T12:19:13Z</time>
      </trkpt>
      <trkpt lat="47.24478" lon="-2.15821">
        <ele>7.4</ele>
        <time>2020-06-05T12:19:14Z</time>
      </trkpt>
      <trkpt lat="47.24474" lon="-2.15813">
        <ele>7.5</ele>
        <time>2020-06-05T12:19:15Z</time>
      </trkpt>
      <trkpt lat="47.2447" lon="-2.15805">
        <ele>7.7</ele>
        <time>2020-06-05T12:19:16Z</time>
      </trkpt>
      <trkpt lat="47.24465" lon="-2.158">
        <ele>8</ele>
        <time>2020-06-05T12:19:17Z</time>
      </trkpt>
      <trkpt lat="47.2446" lon="-2.15796">
        <ele>8.1</ele>
        <time>2020-06-05T12:19:18Z</time>
      </trkpt>
      <trkpt lat="47.24454" lon="-2.15795">
        <ele>8.2</ele>
        <time>2020-06-05T12:19:19Z</time>
      </trkpt>
      <trkpt lat="47.24449" lon="-2.15795">
        <ele>8.2</ele>
        <time>2020-06-05T12:19:20Z</time>
      </trkpt>
      <trkpt lat="47.24444" lon="-2.15795">
        <ele>8.3</ele>
        <time>2020-06-05T12:19:21Z</time>
      </trkpt>
      <trkpt lat="47.24439" lon="-2.15795">
        <ele>8.4</ele>
        <time>2020-06-05T12:19:22Z</time>
      </trkpt>
      <trkpt lat="47.24434" lon="-2.15792">
        <ele>8.5</ele>
        <time>2020-06-05T12:19:23Z</time>
      </trkpt>
      <trkpt lat="47.2443" lon="-2.15791">
        <ele>8.6</ele>
        <time>2020-06-05T12:19:24Z</time>
      </trkpt>
      <trkpt lat="47.24425" lon="-2.1579">
        <ele>8.7</ele>
        <time>2020-06-05T12:19:25Z</time>
      </trkpt>
      <trkpt lat="47.24421" lon="-2.1579">
        <ele>8.8</ele>
        <time>2020-06-05T12:19:26Z</time>
      </trkpt>
      <trkpt lat="47.24416" lon="-2.1579">
        <ele>8.9</ele>
        <time>2020-06-05T12:19:27Z</time>
      </trkpt>
      <trkpt lat="47.24412" lon="-2.1579">
        <ele>9.1</ele>
        <time>2020-06-05T12:19:28Z</time>
      </trkpt>
      <trkpt lat="47.24408" lon="-2.15789">
        <ele>9.2</ele>
        <time>2020-06-05T12:19:29Z</time>
      </trkpt>
      <trkpt lat="47.24404" lon="-2.15789">
        <ele>9.4</ele>
        <time>2020-06-05T12:19:30Z</time>
      </trkpt>
      <trkpt lat="47.24401" lon="-2.15788">
        <ele>9.5</ele>
        <time>2020-06-05T12:19:31Z</time>
      </trkpt>
      <trkpt lat="47.24397" lon="-2.15789">
        <ele>9.6</ele>
        <time>2020-06-05T12:19:32Z</time>
      </trkpt>
      <trkpt lat="47.24393" lon="-2.15789">
        <ele>9.7</ele>
        <time>2020-06-05T12:19:33Z</time>
      </trkpt>
      <trkpt lat="47.24389" lon="-2.15789">
        <ele>9.8</ele>
        <time>2020-06-05T12:19:34Z</time>
      </trkpt>
      <trkpt lat="47.24386" lon="-2.15787">
        <ele>9.9</ele>
        <time>2020-06-05T12:19:35Z</time>
      </trkpt>
      <trkpt lat="47.24382" lon="-2.15786">
        <ele>10</ele>
        <time>2020-06-05T12:19:36Z</time>
      </trkpt>
      <trkpt lat="47.24379" lon="-2.15788">
        <ele>10.1</ele>
        <time>2020-06-05T12:19:37Z</time>
      </trkpt>
      <trkpt lat="47.24376" lon="-2.15789">
        <ele>10.2</ele>
        <time>2020-06-05T12:19:38Z</time>
      </trkpt>
      <trkpt lat="47.24372" lon="-2.15789">
        <ele>10.3</ele>
        <time>2020-06-05T12:19:39Z</time>
      </trkpt>
      <trkpt lat="47.24369" lon="-2.15787">
        <ele>10.4</ele>
        <time>2020-06-05T12:19:40Z</time>
      </trkpt>
      <trkpt lat="47.24366" lon="-2.15786">
        <ele>10.5</ele>
        <time>2020-06-05T12:19:41Z</time>
      </trkpt>
      <trkpt lat="47.24363" lon="-2.15785">
        <ele>10.5</ele>
        <time>2020-06-05T12:19:42Z</time>
      </trkpt>
      <trkpt lat="47.2436" lon="-2.15785">
        <ele>10.6</ele>
        <time>2020-06-05T12:19:43Z</time>
      </trkpt>
      <trkpt lat="47.24356" lon="-2.15784">
        <ele>10.7</ele>
        <time>2020-06-05T12:19:44Z</time>
      </trkpt>
      <trkpt lat="47.24352" lon="-2.15782">
        <ele>10.8</ele>
        <time>2020-06-05T12:19:45Z</time>
      </trkpt>
      <trkpt lat="47.24348" lon="-2.15782">
        <ele>10.9</ele>
        <time>2020-06-05T12:19:46Z</time>
      </trkpt>
      <trkpt lat="47.24345" lon="-2.1578">
        <ele>10.9</ele>
        <time>2020-06-05T12:19:47Z</time>
      </trkpt>
      <trkpt lat="47.24341" lon="-2.15779">
        <ele>11</ele>
        <time>2020-06-05T12:19:48Z</time>
      </trkpt>
      <trkpt lat="47.24337" lon="-2.15777">
        <ele>11</ele>
        <time>2020-06-05T12:19:49Z</time>
      </trkpt>
      <trkpt lat="47.24333" lon="-2.15776">
        <ele>11.1</ele>
        <time>2020-06-05T12:19:50Z</time>
      </trkpt>
      <trkpt lat="47.24329" lon="-2.15775">
        <ele>11.1</ele>
        <time>2020-06-05T12:19:51Z</time>
      </trkpt>
      <trkpt lat="47.24326" lon="-2.15772">
        <ele>11.2</ele>
        <time>2020-06-05T12:19:52Z</time>
      </trkpt>
      <trkpt lat="47.24321" lon="-2.15772">
        <ele>11.2</ele>
        <time>2020-06-05T12:19:53Z</time>
      </trkpt>
      <trkpt lat="47.24317" lon="-2.1577">
        <ele>11.3</ele>
        <time>2020-06-05T12:19:54Z</time>
      </trkpt>
      <trkpt lat="47.24313" lon="-2.15768">
        <ele>11.3</ele>
        <time>2020-06-05T12:19:55Z</time>
      </trkpt>
      <trkpt lat="47.24308" lon="-2.15767">
        <ele>11.4</ele>
        <time>2020-06-05T12:19:56Z</time>
      </trkpt>
      <trkpt lat="47.24303" lon="-2.15766">
        <ele>11.5</ele>
        <time>2020-06-05T12:19:57Z</time>
      </trkpt>
      <trkpt lat="47.24299" lon="-2.15765">
        <ele>11.5</ele>
        <time>2020-06-05T12:19:58Z</time>
      </trkpt>
      <trkpt lat="47.24294" lon="-2.15764">
        <ele>11.6</ele>
        <time>2020-06-05T12:19:59Z</time>
      </trkpt>
      <trkpt lat="47.2429" lon="-2.15762">
        <ele>11.7</ele>
        <time>2020-06-05T12:20:00Z</time>
      </trkpt>
      <trkpt lat="47.24285" lon="-2.1576">
        <ele>11.7</ele>
        <time>2020-06-05T12:20:01Z</time>
      </trkpt>
      <trkpt lat="47.24281" lon="-2.15757">
        <ele>11.8</ele>
        <time>2020-06-05T12:20:02Z</time>
      </trkpt>
      <trkpt lat="47.24276" lon="-2.15754">
        <ele>12</ele>
        <time>2020-06-05T12:20:03Z</time>
      </trkpt>
      <trkpt lat="47.24271" lon="-2.15751">
        <ele>12.2</ele>
        <time>2020-06-05T12:20:04Z</time>
      </trkpt>
      <trkpt lat="47.24267" lon="-2.15749">
        <ele>12.3</ele>
        <time>2020-06-05T12:20:05Z</time>
      </trkpt>
      <trkpt lat="47.24263" lon="-2.15747">
        <ele>12.3</ele>
        <time>2020-06-05T12:20:06Z</time>
      </trkpt>
      <trkpt lat="47.24258" lon="-2.15744">
        <ele>12.4</ele>
        <time>2020-06-05T12:20:07Z</time>
      </trkpt>
      <trkpt lat="47.24254" lon="-2.15741">
        <ele>12.5</ele>
        <time>2020-06-05T12:20:08Z</time>
      </trkpt>
      <trkpt lat="47.24249" lon="-2.15735">
        <ele>12.6</ele>
        <time>2020-06-05T12:20:09Z</time>
      </trkpt>
      <trkpt lat="47.24245" lon="-2.15728">
        <ele>12.6</ele>
        <time>2020-06-05T12:20:10Z</time>
      </trkpt>
      <trkpt lat="47.24239" lon="-2.15724">
        <ele>12.7</ele>
        <time>2020-06-05T12:20:11Z</time>
      </trkpt>
      <trkpt lat="47.24235" lon="-2.1572">
        <ele>12.7</ele>
        <time>2020-06-05T12:20:12Z</time>
      </trkpt>
      <trkpt lat="47.2423" lon="-2.15718">
        <ele>12.7</ele>
        <time>2020-06-05T12:20:13Z</time>
      </trkpt>
      <trkpt lat="47.24227" lon="-2.15718">
        <ele>12.8</ele>
        <time>2020-06-05T12:20:14Z</time>
      </trkpt>
      <trkpt lat="47.24223" lon="-2.15718">
        <ele>12.8</ele>
        <time>2020-06-05T12:20:15Z</time>
      </trkpt>
      <trkpt lat="47.24222" lon="-2.15717">
        <ele>12.8</ele>
        <time>2020-06-05T12:20:16Z</time>
      </trkpt>
      <trkpt lat="47.24219" lon="-2.15715">
        <ele>12.7</ele>
        <time>2020-06-05T12:20:17Z</time>
      </trkpt>
      <trkpt lat="47.24217" lon="-2.15711">
        <ele>12.7</ele>
        <time>2020-06-05T12:20:18Z</time>
      </trkpt>
      <trkpt lat="47.24214" lon="-2.15708">
        <ele>12.7</ele>
        <time>2020-06-05T12:20:19Z</time>
      </trkpt>
      <trkpt lat="47.24212" lon="-2.15704">
        <ele>12.6</ele>
        <time>2020-06-05T12:20:20Z</time>
      </trkpt>
      <trkpt lat="47.2421" lon="-2.15701">
        <ele>12.6</ele>
        <time>2020-06-05T12:20:21Z</time>
      </trkpt>
      <trkpt lat="47.24208" lon="-2.15697">
        <ele>12.6</ele>
        <time>2020-06-05T12:20:22Z</time>
      </trkpt>
      <trkpt lat="47.24207" lon="-2.15694">
        <ele>12.6</ele>
        <time>2020-06-05T12:20:23Z</time>
      </trkpt>
      <trkpt lat="47.24203" lon="-2.1569">
        <ele>12.6</ele>
        <time>2020-06-05T12:20:24Z</time>
      </trkpt>
      <trkpt lat="47.24202" lon="-2.15689">
        <ele>12.6</ele>
        <time>2020-06-05T12:20:25Z</time>
      </trkpt>
      <trkpt lat="47.24198" lon="-2.15686">
        <ele>12.6</ele>
        <time>2020-06-05T12:20:26Z</time>
      </trkpt>
      <trkpt lat="47.24195" lon="-2.15683">
        <ele>12.6</ele>
        <time>2020-06-05T12:20:27Z</time>
      </trkpt>
      <trkpt lat="47.24192" lon="-2.15681">
        <ele>12.6</ele>
        <time>2020-06-05T12:20:28Z</time>
      </trkpt>
      <trkpt lat="47.24189" lon="-2.15679">
        <ele>12.6</ele>
        <time>2020-06-05T12:20:29Z</time>
      </trkpt>
      <trkpt lat="47.24185" lon="-2.15677">
        <ele>12.6</ele>
        <time>2020-06-05T12:20:30Z</time>
      </trkpt>
      <trkpt lat="47.24182" lon="-2.15675">
        <ele>12.6</ele>
        <time>2020-06-05T12:20:31Z</time>
      </trkpt>
      <trkpt lat="47.24179" lon="-2.1567">
        <ele>12.7</ele>
        <time>2020-06-05T12:20:32Z</time>
      </trkpt>
      <trkpt lat="47.24175" lon="-2.15667">
        <ele>12.7</ele>
        <time>2020-06-05T12:20:33Z</time>
      </trkpt>
      <trkpt lat="47.24171" lon="-2.15665">
        <ele>12.7</ele>
        <time>2020-06-05T12:20:34Z</time>
      </trkpt>
      <trkpt lat="47.24168" lon="-2.15662">
        <ele>12.7</ele>
        <time>2020-06-05T12:20:35Z</time>
      </trkpt>
      <trkpt lat="47.24165" lon="-2.15661">
        <ele>12.7</ele>
        <time>2020-06-05T12:20:36Z</time>
      </trkpt>
      <trkpt lat="47.24161" lon="-2.15661">
        <ele>12.7</ele>
        <time>2020-06-05T12:20:37Z</time>
      </trkpt>
      <trkpt lat="47.24157" lon="-2.15658">
        <ele>12.8</ele>
        <time>2020-06-05T12:20:38Z</time>
      </trkpt>
      <trkpt lat="47.24153" lon="-2.15656">
        <ele>12.8</ele>
        <time>2020-06-05T12:20:39Z</time>
      </trkpt>
      <trkpt lat="47.2415" lon="-2.15656">
        <ele>12.8</ele>
        <time>2020-06-05T12:20:40Z</time>
      </trkpt>
      <trkpt lat="47.24146" lon="-2.15658">
        <ele>12.8</ele>
        <time>2020-06-05T12:20:41Z</time>
      </trkpt>
      <trkpt lat="47.24143" lon="-2.15662">
        <ele>12.8</ele>
        <time>2020-06-05T12:20:42Z</time>
      </trkpt>
      <trkpt lat="47.24139" lon="-2.15663">
        <ele>12.8</ele>
        <time>2020-06-05T12:20:43Z</time>
      </trkpt>
      <trkpt lat="47.24136" lon="-2.15665">
        <ele>12.7</ele>
        <time>2020-06-05T12:20:44Z</time>
      </trkpt>
      <trkpt lat="47.24133" lon="-2.15666">
        <ele>12.7</ele>
        <time>2020-06-05T12:20:45Z</time>
      </trkpt>
      <trkpt lat="47.2413" lon="-2.15668">
        <ele>12.7</ele>
        <time>2020-06-05T12:20:46Z</time>
      </trkpt>
      <trkpt lat="47.24127" lon="-2.15669">
        <ele>12.7</ele>
        <time>2020-06-05T12:20:47Z</time>
      </trkpt>
      <trkpt lat="47.24123" lon="-2.15668">
        <ele>12.7</ele>
        <time>2020-06-05T12:20:48Z</time>
      </trkpt>
      <trkpt lat="47.2412" lon="-2.15666">
        <ele>12.7</ele>
        <time>2020-06-05T12:20:49Z</time>
      </trkpt>
      <trkpt lat="47.24117" lon="-2.15663">
        <ele>12.7</ele>
        <time>2020-06-05T12:20:50Z</time>
      </trkpt>
      <trkpt lat="47.24113" lon="-2.1566">
        <ele>12.7</ele>
        <time>2020-06-05T12:20:51Z</time>
      </trkpt>
      <trkpt lat="47.24111" lon="-2.15657">
        <ele>12.7</ele>
        <time>2020-06-05T12:20:52Z</time>
      </trkpt>
      <trkpt lat="47.24111" lon="-2.15652">
        <ele>12.8</ele>
        <time>2020-06-05T12:20:53Z</time>
      </trkpt>
      <trkpt lat="47.24111" lon="-2.15648">
        <ele>12.8</ele>
        <time>2020-06-05T12:20:54Z</time>
      </trkpt>
      <trkpt lat="47.24109" lon="-2.15645">
        <ele>12.8</ele>
        <time>2020-06-05T12:20:55Z</time>
      </trkpt>
      <trkpt lat="47.24106" lon="-2.15641">
        <ele>12.8</ele>
        <time>2020-06-05T12:20:56Z</time>
      </trkpt>
      <trkpt lat="47.24104" lon="-2.15637">
        <ele>12.9</ele>
        <time>2020-06-05T12:20:57Z</time>
      </trkpt>
      <trkpt lat="47.24102" lon="-2.15633">
        <ele>12.9</ele>
        <time>2020-06-05T12:20:58Z</time>
      </trkpt>
      <trkpt lat="47.241" lon="-2.15629">
        <ele>12.9</ele>
        <time>2020-06-05T12:20:59Z</time>
      </trkpt>
      <trkpt lat="47.24097" lon="-2.15626">
        <ele>13</ele>
        <time>2020-06-05T12:21:00Z</time>
      </trkpt>
      <trkpt lat="47.24093" lon="-2.15624">
        <ele>13</ele>
        <time>2020-06-05T12:21:01Z</time>
      </trkpt>
      <trkpt lat="47.24089" lon="-2.1562">
        <ele>13.1</ele>
        <time>2020-06-05T12:21:02Z</time>
      </trkpt>
      <trkpt lat="47.24086" lon="-2.15617">
        <ele>13.1</ele>
        <time>2020-06-05T12:21:03Z</time>
      </trkpt>
      <trkpt lat="47.24082" lon="-2.15613">
        <ele>13.2</ele>
        <time>2020-06-05T12:21:04Z</time>
      </trkpt>
      <trkpt lat="47.24077" lon="-2.1561">
        <ele>13.3</ele>
        <time>2020-06-05T12:21:05Z</time>
      </trkpt>
      <trkpt lat="47.24073" lon="-2.15607">
        <ele>13.2</ele>
        <time>2020-06-05T12:21:06Z</time>
      </trkpt>
      <trkpt lat="47.24068" lon="-2.15604">
        <ele>13.2</ele>
        <time>2020-06-05T12:21:07Z</time>
      </trkpt>
      <trkpt lat="47.24062" lon="-2.15602">
        <ele>13.1</ele>
        <time>2020-06-05T12:21:08Z</time>
      </trkpt>
      <trkpt lat="47.24057" lon="-2.15599">
        <ele>13.1</ele>
        <time>2020-06-05T12:21:09Z</time>
      </trkpt>
      <trkpt lat="47.24052" lon="-2.15598">
        <ele>13.1</ele>
        <time>2020-06-05T12:21:10Z</time>
      </trkpt>
      <trkpt lat="47.24046" lon="-2.15599">
        <ele>13.1</ele>
        <time>2020-06-05T12:21:11Z</time>
      </trkpt>
      <trkpt lat="47.24041" lon="-2.15597">
        <ele>13</ele>
        <time>2020-06-05T12:21:12Z</time>
      </trkpt>
      <trkpt lat="47.24036" lon="-2.15596">
        <ele>13</ele>
        <time>2020-06-05T12:21:13Z</time>
      </trkpt>
      <trkpt lat="47.24031" lon="-2.15594">
        <ele>13</ele>
        <time>2020-06-05T12:21:14Z</time>
      </trkpt>
      <trkpt lat="47.24026" lon="-2.15593">
        <ele>12.9</ele>
        <time>2020-06-05T12:21:15Z</time>
      </trkpt>
      <trkpt lat="47.2402" lon="-2.15592">
        <ele>12.9</ele>
        <time>2020-06-05T12:21:16Z</time>
      </trkpt>
      <trkpt lat="47.24015" lon="-2.15591">
        <ele>12.9</ele>
        <time>2020-06-05T12:21:17Z</time>
      </trkpt>
      <trkpt lat="47.24009" lon="-2.15591">
        <ele>12.8</ele>
        <time>2020-06-05T12:21:18Z</time>
      </trkpt>
      <trkpt lat="47.24004" lon="-2.15592">
        <ele>12.7</ele>
        <time>2020-06-05T12:21:19Z</time>
      </trkpt>
      <trkpt lat="47.23999" lon="-2.15591">
        <ele>12.7</ele>
        <time>2020-06-05T12:21:20Z</time>
      </trkpt>
      <trkpt lat="47.23994" lon="-2.1559">
        <ele>12.7</ele>
        <time>2020-06-05T12:21:21Z</time>
      </trkpt>
      <trkpt lat="47.23989" lon="-2.15589">
        <ele>12.7</ele>
        <time>2020-06-05T12:21:22Z</time>
      </trkpt>
      <trkpt lat="47.23984" lon="-2.15587">
        <ele>12.7</ele>
        <time>2020-06-05T12:21:23Z</time>
      </trkpt>
      <trkpt lat="47.23979" lon="-2.15585">
        <ele>12.7</ele>
        <time>2020-06-05T12:21:24Z</time>
      </trkpt>
      <trkpt lat="47.23974" lon="-2.15582">
        <ele>12.8</ele>
        <time>2020-06-05T12:21:25Z</time>
      </trkpt>
      <trkpt lat="47.23969" lon="-2.1558">
        <ele>12.8</ele>
        <time>2020-06-05T12:21:26Z</time>
      </trkpt>
      <trkpt lat="47.23965" lon="-2.1558">
        <ele>12.9</ele>
        <time>2020-06-05T12:21:27Z</time>
      </trkpt>
      <trkpt lat="47.23963" lon="-2.15584">
        <ele>12.9</ele>
        <time>2020-06-05T12:21:28Z</time>
      </trkpt>
      <trkpt lat="47.23958" lon="-2.15586">
        <ele>12.9</ele>
        <time>2020-06-05T12:21:29Z</time>
      </trkpt>
      <trkpt lat="47.23954" lon="-2.15584">
        <ele>13</ele>
        <time>2020-06-05T12:21:30Z</time>
      </trkpt>
      <trkpt lat="47.23952" lon="-2.1558">
        <ele>13</ele>
        <time>2020-06-05T12:21:31Z</time>
      </trkpt>
      <trkpt lat="47.23949" lon="-2.15579">
        <ele>13</ele>
        <time>2020-06-05T12:21:32Z</time>
      </trkpt>
      <trkpt lat="47.23944" lon="-2.15579">
        <ele>12.9</ele>
        <time>2020-06-05T12:21:33Z</time>
      </trkpt>
      <trkpt lat="47.23939" lon="-2.15576">
        <ele>12.9</ele>
        <time>2020-06-05T12:21:34Z</time>
      </trkpt>
      <trkpt lat="47.23934" lon="-2.15575">
        <ele>13</ele>
        <time>2020-06-05T12:21:35Z</time>
      </trkpt>
      <trkpt lat="47.23929" lon="-2.15575">
        <ele>13</ele>
        <time>2020-06-05T12:21:36Z</time>
      </trkpt>
      <trkpt lat="47.23924" lon="-2.15574">
        <ele>13.1</ele>
        <time>2020-06-05T12:21:37Z</time>
      </trkpt>
      <trkpt lat="47.23918" lon="-2.15574">
        <ele>13.1</ele>
        <time>2020-06-05T12:21:38Z</time>
      </trkpt>
      <trkpt lat="47.23913" lon="-2.15573">
        <ele>13.3</ele>
        <time>2020-06-05T12:21:39Z</time>
      </trkpt>
      <trkpt lat="47.23908" lon="-2.15572">
        <ele>13.4</ele>
        <time>2020-06-05T12:21:40Z</time>
      </trkpt>
      <trkpt lat="47.23903" lon="-2.15571">
        <ele>13.5</ele>
        <time>2020-06-05T12:21:41Z</time>
      </trkpt>
      <trkpt lat="47.23898" lon="-2.1557">
        <ele>13.3</ele>
        <time>2020-06-05T12:21:42Z</time>
      </trkpt>
      <trkpt lat="47.23894" lon="-2.15571">
        <ele>13.3</ele>
        <time>2020-06-05T12:21:43Z</time>
      </trkpt>
      <trkpt lat="47.23891" lon="-2.15577">
        <ele>13.2</ele>
        <time>2020-06-05T12:21:44Z</time>
      </trkpt>
      <trkpt lat="47.23889" lon="-2.15585">
        <ele>13.1</ele>
        <time>2020-06-05T12:21:45Z</time>
      </trkpt>
      <trkpt lat="47.23887" lon="-2.15591">
        <ele>13</ele>
        <time>2020-06-05T12:21:46Z</time>
      </trkpt>
      <trkpt lat="47.23885" lon="-2.15595">
        <ele>13</ele>
        <time>2020-06-05T12:21:47Z</time>
      </trkpt>
      <trkpt lat="47.23884" lon="-2.15599">
        <ele>13</ele>
        <time>2020-06-05T12:21:48Z</time>
      </trkpt>
      <trkpt lat="47.23881" lon="-2.15604">
        <ele>13</ele>
        <time>2020-06-05T12:21:49Z</time>
      </trkpt>
      <trkpt lat="47.2388" lon="-2.15605">
        <ele>12.7</ele>
        <time>2020-06-05T12:21:50Z</time>
      </trkpt>
      <trkpt lat="47.23875" lon="-2.15606">
        <ele>12.6</ele>
        <time>2020-06-05T12:21:51Z</time>
      </trkpt>
      <trkpt lat="47.23871" lon="-2.15605">
        <ele>12.5</ele>
        <time>2020-06-05T12:21:52Z</time>
      </trkpt>
      <trkpt lat="47.23866" lon="-2.15604">
        <ele>12.4</ele>
        <time>2020-06-05T12:21:53Z</time>
      </trkpt>
      <trkpt lat="47.23862" lon="-2.15605">
        <ele>12.1</ele>
        <time>2020-06-05T12:21:54Z</time>
      </trkpt>
      <trkpt lat="47.23858" lon="-2.15607">
        <ele>12.3</ele>
        <time>2020-06-05T12:21:55Z</time>
      </trkpt>
      <trkpt lat="47.23854" lon="-2.15608">
        <ele>12.6</ele>
        <time>2020-06-05T12:21:56Z</time>
      </trkpt>
      <trkpt lat="47.23851" lon="-2.15607">
        <ele>12.8</ele>
        <time>2020-06-05T12:21:57Z</time>
      </trkpt>
      <trkpt lat="47.23849" lon="-2.15603">
        <ele>13</ele>
        <time>2020-06-05T12:21:58Z</time>
      </trkpt>
      <trkpt lat="47.23847" lon="-2.15599">
        <ele>12.9</ele>
        <time>2020-06-05T12:21:59Z</time>
      </trkpt>
      <trkpt lat="47.23844" lon="-2.15596">
        <ele>12.8</ele>
        <time>2020-06-05T12:22:00Z</time>
      </trkpt>
      <trkpt lat="47.23842" lon="-2.15594">
        <ele>12.7</ele>
        <time>2020-06-05T12:22:01Z</time>
      </trkpt>
      <trkpt lat="47.23839" lon="-2.15592">
        <ele>12.6</ele>
        <time>2020-06-05T12:22:02Z</time>
      </trkpt>
      <trkpt lat="47.23835" lon="-2.15592">
        <ele>12.4</ele>
        <time>2020-06-05T12:22:03Z</time>
      </trkpt>
      <trkpt lat="47.23832" lon="-2.15592">
        <ele>12.3</ele>
        <time>2020-06-05T12:22:04Z</time>
      </trkpt>
      <trkpt lat="47.23828" lon="-2.15593">
        <ele>12.2</ele>
        <time>2020-06-05T12:22:05Z</time>
      </trkpt>
      <trkpt lat="47.23823" lon="-2.15594">
        <ele>12.1</ele>
        <time>2020-06-05T12:22:06Z</time>
      </trkpt>
      <trkpt lat="47.23819" lon="-2.15596">
        <ele>12.1</ele>
        <time>2020-06-05T12:22:07Z</time>
      </trkpt>
      <trkpt lat="47.23815" lon="-2.15598">
        <ele>11.9</ele>
        <time>2020-06-05T12:22:08Z</time>
      </trkpt>
      <trkpt lat="47.2381" lon="-2.15599">
        <ele>11.9</ele>
        <time>2020-06-05T12:22:09Z</time>
      </trkpt>
      <trkpt lat="47.23805" lon="-2.15601">
        <ele>11.8</ele>
        <time>2020-06-05T12:22:10Z</time>
      </trkpt>
      <trkpt lat="47.238" lon="-2.15603">
        <ele>11.8</ele>
        <time>2020-06-05T12:22:11Z</time>
      </trkpt>
      <trkpt lat="47.23795" lon="-2.15604">
        <ele>11.7</ele>
        <time>2020-06-05T12:22:12Z</time>
      </trkpt>
      <trkpt lat="47.23789" lon="-2.15606">
        <ele>11.6</ele>
        <time>2020-06-05T12:22:13Z</time>
      </trkpt>
      <trkpt lat="47.23783" lon="-2.15608">
        <ele>11.6</ele>
        <time>2020-06-05T12:22:14Z</time>
      </trkpt>
      <trkpt lat="47.23777" lon="-2.1561">
        <ele>11.5</ele>
        <time>2020-06-05T12:22:15Z</time>
      </trkpt>
      <trkpt lat="47.23771" lon="-2.15611">
        <ele>11.4</ele>
        <time>2020-06-05T12:22:16Z</time>
      </trkpt>
      <trkpt lat="47.23765" lon="-2.15613">
        <ele>11.4</ele>
        <time>2020-06-05T12:22:17Z</time>
      </trkpt>
      <trkpt lat="47.2376" lon="-2.15613">
        <ele>11.4</ele>
        <time>2020-06-05T12:22:18Z</time>
      </trkpt>
      <trkpt lat="47.23754" lon="-2.15612">
        <ele>11.4</ele>
        <time>2020-06-05T12:22:19Z</time>
      </trkpt>
      <trkpt lat="47.23749" lon="-2.15611">
        <ele>11.4</ele>
        <time>2020-06-05T12:22:20Z</time>
      </trkpt>
      <trkpt lat="47.23745" lon="-2.15607">
        <ele>11.4</ele>
        <time>2020-06-05T12:22:21Z</time>
      </trkpt>
      <trkpt lat="47.23742" lon="-2.15603">
        <ele>11.4</ele>
        <time>2020-06-05T12:22:22Z</time>
      </trkpt>
      <trkpt lat="47.23738" lon="-2.15601">
        <ele>11.4</ele>
        <time>2020-06-05T12:22:23Z</time>
      </trkpt>
      <trkpt lat="47.23735" lon="-2.156">
        <ele>11.4</ele>
        <time>2020-06-05T12:22:24Z</time>
      </trkpt>
      <trkpt lat="47.23733" lon="-2.156">
        <ele>11.3</ele>
        <time>2020-06-05T12:22:25Z</time>
      </trkpt>
      <trkpt lat="47.23732" lon="-2.156">
        <ele>11.3</ele>
        <time>2020-06-05T12:22:26Z</time>
      </trkpt>
      <trkpt lat="47.23729" lon="-2.15598">
        <ele>11.3</ele>
        <time>2020-06-05T12:22:27Z</time>
      </trkpt>
      <trkpt lat="47.23728" lon="-2.15598">
        <ele>11.3</ele>
        <time>2020-06-05T12:22:28Z</time>
      </trkpt>
      <trkpt lat="47.23726" lon="-2.15594">
        <ele>11.2</ele>
        <time>2020-06-05T12:22:29Z</time>
      </trkpt>
      <trkpt lat="47.23725" lon="-2.15592">
        <ele>11.2</ele>
        <time>2020-06-05T12:22:30Z</time>
      </trkpt>
      <trkpt lat="47.23727" lon="-2.15589">
        <ele>11.2</ele>
        <time>2020-06-05T12:22:31Z</time>
      </trkpt>
      <trkpt lat="47.2373" lon="-2.15586">
        <ele>11.2</ele>
        <time>2020-06-05T12:22:32Z</time>
      </trkpt>
      <trkpt lat="47.23733" lon="-2.15584">
        <ele>11.4</ele>
        <time>2020-06-05T12:22:33Z</time>
      </trkpt>
      <trkpt lat="47.23737" lon="-2.15582">
        <ele>11.4</ele>
        <time>2020-06-05T12:22:34Z</time>
      </trkpt>
      <trkpt lat="47.2374" lon="-2.1558">
        <ele>11.5</ele>
        <time>2020-06-05T12:22:35Z</time>
      </trkpt>
      <trkpt lat="47.23742" lon="-2.15576">
        <ele>11.6</ele>
        <time>2020-06-05T12:22:36Z</time>
      </trkpt>
      <trkpt lat="47.23744" lon="-2.15571">
        <ele>11.8</ele>
        <time>2020-06-05T12:22:37Z</time>
      </trkpt>
      <trkpt lat="47.23744" lon="-2.15566">
        <ele>11.8</ele>
        <time>2020-06-05T12:22:38Z</time>
      </trkpt>
      <trkpt lat="47.23743" lon="-2.15561">
        <ele>11.9</ele>
        <time>2020-06-05T12:22:39Z</time>
      </trkpt>
      <trkpt lat="47.23743" lon="-2.15557">
        <ele>11.9</ele>
        <time>2020-06-05T12:22:40Z</time>
      </trkpt>
      <trkpt lat="47.23743" lon="-2.15553">
        <ele>12</ele>
        <time>2020-06-05T12:22:41Z</time>
      </trkpt>
      <trkpt lat="47.23744" lon="-2.15549">
        <ele>12.1</ele>
        <time>2020-06-05T12:22:42Z</time>
      </trkpt>
      <trkpt lat="47.23745" lon="-2.15544">
        <ele>12.2</ele>
        <time>2020-06-05T12:22:43Z</time>
      </trkpt>
      <trkpt lat="47.23746" lon="-2.15542">
        <ele>12.2</ele>
        <time>2020-06-05T12:22:44Z</time>
      </trkpt>
      <trkpt lat="47.23748" lon="-2.15539">
        <ele>12.3</ele>
        <time>2020-06-05T12:22:45Z</time>
      </trkpt>
      <trkpt lat="47.2375" lon="-2.15535">
        <ele>12.4</ele>
        <time>2020-06-05T12:22:46Z</time>
      </trkpt>
      <trkpt lat="47.23753" lon="-2.15532">
        <ele>12.5</ele>
        <time>2020-06-05T12:22:47Z</time>
      </trkpt>
      <trkpt lat="47.23754" lon="-2.15531">
        <ele>12.5</ele>
        <time>2020-06-05T12:22:48Z</time>
      </trkpt>
      <trkpt lat="47.23757" lon="-2.15531">
        <ele>12.5</ele>
        <time>2020-06-05T12:22:49Z</time>
      </trkpt>
      <trkpt lat="47.23758" lon="-2.15531">
        <ele>12.5</ele>
        <time>2020-06-05T12:22:50Z</time>
      </trkpt>
      <trkpt lat="47.23761" lon="-2.15531">
        <ele>12.6</ele>
        <time>2020-06-05T12:22:51Z</time>
      </trkpt>
      <trkpt lat="47.23762" lon="-2.15531">
        <ele>12.6</ele>
        <time>2020-06-05T12:22:52Z</time>
      </trkpt>
      <trkpt lat="47.23764" lon="-2.15529">
        <ele>12.7</ele>
        <time>2020-06-05T12:22:53Z</time>
      </trkpt>
      <trkpt lat="47.23765" lon="-2.15528">
        <ele>12.7</ele>
        <time>2020-06-05T12:22:54Z</time>
      </trkpt>
      <trkpt lat="47.23767" lon="-2.15529">
        <ele>12.7</ele>
        <time>2020-06-05T12:22:55Z</time>
      </trkpt>
      <trkpt lat="47.23768" lon="-2.15529">
        <ele>12.8</ele>
        <time>2020-06-05T12:22:56Z</time>
      </trkpt>
      <trkpt lat="47.23768" lon="-2.15528">
        <ele>12.8</ele>
        <time>2020-06-05T12:22:57Z</time>
      </trkpt>
      <trkpt lat="47.23768" lon="-2.15528">
        <ele>12.8</ele>
        <time>2020-06-05T12:22:58Z</time>
      </trkpt>
      <trkpt lat="47.23768" lon="-2.15528">
        <ele>12.8</ele>
        <time>2020-06-05T12:22:59Z</time>
      </trkpt>
      <trkpt lat="47.23769" lon="-2.15528">
        <ele>12.8</ele>
        <time>2020-06-05T12:23:00Z</time>
      </trkpt>
      <trkpt lat="47.23769" lon="-2.15527">
        <ele>12.7</ele>
        <time>2020-06-05T12:23:01Z</time>
      </trkpt>
      <trkpt lat="47.2377" lon="-2.15529">
        <ele>12.8</ele>
        <time>2020-06-05T12:23:02Z</time>
      </trkpt>
      <trkpt lat="47.2377" lon="-2.15529">
        <ele>12.8</ele>
        <time>2020-06-05T12:23:03Z</time>
      </trkpt>
      <trkpt lat="47.2377" lon="-2.15529">
        <ele>12.8</ele>
        <time>2020-06-05T12:23:04Z</time>
      </trkpt>
      <trkpt lat="47.2377" lon="-2.15528">
        <ele>12.8</ele>
        <time>2020-06-05T12:23:05Z</time>
      </trkpt>
      <trkpt lat="47.2377" lon="-2.15528">
        <ele>12.8</ele>
        <time>2020-06-05T12:23:06Z</time>
      </trkpt>
      <trkpt lat="47.23771" lon="-2.15528">
        <ele>12.8</ele>
        <time>2020-06-05T12:23:07Z</time>
      </trkpt>
      <trkpt lat="47.2377" lon="-2.15524">
        <ele>12.8</ele>
        <time>2020-06-05T12:24:20Z</time>
      </trkpt>
      <trkpt lat="47.23769" lon="-2.15523">
        <ele>12.8</ele>
        <time>2020-06-05T12:24:21Z</time>
      </trkpt>
      <trkpt lat="47.23769" lon="-2.15522">
        <ele>12.8</ele>
        <time>2020-06-05T12:24:22Z</time>
      </trkpt>
      <trkpt lat="47.23769" lon="-2.1552">
        <ele>12.8</ele>
        <time>2020-06-05T12:24:23Z</time>
      </trkpt>
      <trkpt lat="47.23768" lon="-2.15519">
        <ele>12.8</ele>
        <time>2020-06-05T12:24:24Z</time>
      </trkpt>
      <trkpt lat="47.23767" lon="-2.15519">
        <ele>12.7</ele>
        <time>2020-06-05T12:24:25Z</time>
      </trkpt>
      <trkpt lat="47.23765" lon="-2.1552">
        <ele>12.7</ele>
        <time>2020-06-05T12:24:26Z</time>
      </trkpt>
      <trkpt lat="47.23764" lon="-2.15519">
        <ele>12.7</ele>
        <time>2020-06-05T12:24:27Z</time>
      </trkpt>
      <trkpt lat="47.23763" lon="-2.1552">
        <ele>12.7</ele>
        <time>2020-06-05T12:24:28Z</time>
      </trkpt>
      <trkpt lat="47.23762" lon="-2.1552">
        <ele>12.7</ele>
        <time>2020-06-05T12:24:29Z</time>
      </trkpt>
      <trkpt lat="47.23762" lon="-2.1552">
        <ele>12.7</ele>
        <time>2020-06-05T12:24:30Z</time>
      </trkpt>
      <trkpt lat="47.23762" lon="-2.15519">
        <ele>12.7</ele>
        <time>2020-06-05T12:24:31Z</time>
      </trkpt>
      <trkpt lat="47.23762" lon="-2.15519">
        <ele>12.7</ele>
        <time>2020-06-05T12:24:32Z</time>
      </trkpt>
      <trkpt lat="47.23764" lon="-2.15519">
        <ele>12.7</ele>
        <time>2020-06-05T12:24:33Z</time>
      </trkpt>
      <trkpt lat="47.23763" lon="-2.15519">
        <ele>12.7</ele>
        <time>2020-06-05T12:24:34Z</time>
      </trkpt>
      <trkpt lat="47.23763" lon="-2.15519">
        <ele>12.7</ele>
        <time>2020-06-05T12:24:35Z</time>
      </trkpt>
      <trkpt lat="47.23764" lon="-2.15519">
        <ele>12.7</ele>
        <time>2020-06-05T12:24:36Z</time>
      </trkpt>
      <trkpt lat="47.23763" lon="-2.15519">
        <ele>12.7</ele>
        <time>2020-06-05T12:24:37Z</time>
      </trkpt>
      <trkpt lat="47.23763" lon="-2.15519">
        <ele>12.6</ele>
        <time>2020-06-05T12:24:38Z</time>
      </trkpt>
      <trkpt lat="47.23763" lon="-2.15518">
        <ele>12.6</ele>
        <time>2020-06-05T12:24:39Z</time>
      </trkpt>
      <trkpt lat="47.23764" lon="-2.15517">
        <ele>12.6</ele>
        <time>2020-06-05T12:24:40Z</time>
      </trkpt>
      <trkpt lat="47.23764" lon="-2.15517">
        <ele>12.7</ele>
        <time>2020-06-05T12:24:41Z</time>
      </trkpt>
      <trkpt lat="47.23765" lon="-2.15517">
        <ele>12.7</ele>
        <time>2020-06-05T12:24:42Z</time>
      </trkpt>
      <trkpt lat="47.23766" lon="-2.15516">
        <ele>12.7</ele>
        <time>2020-06-05T12:24:43Z</time>
      </trkpt>
      <trkpt lat="47.23767" lon="-2.15517">
        <ele>12.7</ele>
        <time>2020-06-05T12:24:44Z</time>
      </trkpt>
      <trkpt lat="47.23768" lon="-2.1552">
        <ele>12.7</ele>
        <time>2020-06-05T12:24:45Z</time>
      </trkpt>
      <trkpt lat="47.23768" lon="-2.15521">
        <ele>12.7</ele>
        <time>2020-06-05T12:24:46Z</time>
      </trkpt>
      <trkpt lat="47.23769" lon="-2.15522">
        <ele>12.7</ele>
        <time>2020-06-05T12:24:47Z</time>
      </trkpt>
      <trkpt lat="47.23769" lon="-2.15523">
        <ele>12.7</ele>
        <time>2020-06-05T12:24:48Z</time>
      </trkpt>
      <trkpt lat="47.2377" lon="-2.15525">
        <ele>12.7</ele>
        <time>2020-06-05T12:24:49Z</time>
      </trkpt>
      <trkpt lat="47.23771" lon="-2.15526">
        <ele>12.7</ele>
        <time>2020-06-05T12:24:50Z</time>
      </trkpt>
      <trkpt lat="47.23772" lon="-2.15526">
        <ele>12.7</ele>
        <time>2020-06-05T12:24:51Z</time>
      </trkpt>
      <trkpt lat="47.23773" lon="-2.15527">
        <ele>12.8</ele>
        <time>2020-06-05T12:24:52Z</time>
      </trkpt>
      <trkpt lat="47.23774" lon="-2.15526">
        <ele>12.7</ele>
        <time>2020-06-05T12:24:53Z</time>
      </trkpt>
      <trkpt lat="47.23775" lon="-2.15527">
        <ele>12.8</ele>
        <time>2020-06-05T12:24:54Z</time>
      </trkpt>
      <trkpt lat="47.23776" lon="-2.15526">
        <ele>12.8</ele>
        <time>2020-06-05T12:24:55Z</time>
      </trkpt>
      <trkpt lat="47.23775" lon="-2.15525">
        <ele>12.8</ele>
        <time>2020-06-05T12:24:56Z</time>
      </trkpt>
      <trkpt lat="47.23775" lon="-2.15524">
        <ele>12.8</ele>
        <time>2020-06-05T12:24:57Z</time>
      </trkpt>
      <trkpt lat="47.23775" lon="-2.15523">
        <ele>12.8</ele>
        <time>2020-06-05T12:24:58Z</time>
      </trkpt>
      <trkpt lat="47.23776" lon="-2.15522">
        <ele>12.8</ele>
        <time>2020-06-05T12:24:59Z</time>
      </trkpt>
      <trkpt lat="47.23777" lon="-2.15522">
        <ele>12.8</ele>
        <time>2020-06-05T12:25:00Z</time>
      </trkpt>
      <trkpt lat="47.23777" lon="-2.15522">
        <ele>12.8</ele>
        <time>2020-06-05T12:25:01Z</time>
      </trkpt>
      <trkpt lat="47.23777" lon="-2.15521">
        <ele>12.8</ele>
        <time>2020-06-05T12:25:02Z</time>
      </trkpt>
      <trkpt lat="47.23776" lon="-2.15521">
        <ele>12.8</ele>
        <time>2020-06-05T12:25:03Z</time>
      </trkpt>
      <trkpt lat="47.23776" lon="-2.1552">
        <ele>12.8</ele>
        <time>2020-06-05T12:25:04Z</time>
      </trkpt>
      <trkpt lat="47.23777" lon="-2.1552">
        <ele>12.8</ele>
        <time>2020-06-05T12:25:05Z</time>
      </trkpt>
      <trkpt lat="47.23777" lon="-2.15519">
        <ele>12.8</ele>
        <time>2020-06-05T12:25:06Z</time>
      </trkpt>
      <trkpt lat="47.23778" lon="-2.15519">
        <ele>12.8</ele>
        <time>2020-06-05T12:25:07Z</time>
      </trkpt>
      <trkpt lat="47.23777" lon="-2.15519">
        <ele>12.8</ele>
        <time>2020-06-05T12:25:08Z</time>
      </trkpt>
      <trkpt lat="47.23777" lon="-2.1552">
        <ele>12.8</ele>
        <time>2020-06-05T12:25:09Z</time>
      </trkpt>
      <trkpt lat="47.23776" lon="-2.15521">
        <ele>12.8</ele>
        <time>2020-06-05T12:25:10Z</time>
      </trkpt>
      <trkpt lat="47.23775" lon="-2.15522">
        <ele>12.7</ele>
        <time>2020-06-05T12:25:11Z</time>
      </trkpt>
      <trkpt lat="47.23774" lon="-2.15523">
        <ele>12.7</ele>
        <time>2020-06-05T12:25:12Z</time>
      </trkpt>
      <trkpt lat="47.23774" lon="-2.15524">
        <ele>12.7</ele>
        <time>2020-06-05T12:25:13Z</time>
      </trkpt>
      <trkpt lat="47.23773" lon="-2.15524">
        <ele>12.7</ele>
        <time>2020-06-05T12:25:14Z</time>
      </trkpt>
      <trkpt lat="47.23772" lon="-2.15525">
        <ele>12.7</ele>
        <time>2020-06-05T13:24:57Z</time>
      </trkpt>
      <trkpt lat="47.23771" lon="-2.15526">
        <ele>12.6</ele>
        <time>2020-06-05T13:24:58Z</time>
      </trkpt>
      <trkpt lat="47.23771" lon="-2.15527">
        <ele>12.6</ele>
        <time>2020-06-05T13:24:59Z</time>
      </trkpt>
      <trkpt lat="47.2377" lon="-2.15528">
        <ele>12.6</ele>
        <time>2020-06-05T13:25:00Z</time>
      </trkpt>
      <trkpt lat="47.23769" lon="-2.15528">
        <ele>12.6</ele>
        <time>2020-06-05T13:25:01Z</time>
      </trkpt>
      <trkpt lat="47.23768" lon="-2.15529">
        <ele>12.6</ele>
        <time>2020-06-05T13:25:02Z</time>
      </trkpt>
      <trkpt lat="47.23767" lon="-2.1553">
        <ele>12.5</ele>
        <time>2020-06-05T13:25:03Z</time>
      </trkpt>
      <trkpt lat="47.23767" lon="-2.15531">
        <ele>12.5</ele>
        <time>2020-06-05T13:25:04Z</time>
      </trkpt>
      <trkpt lat="47.23766" lon="-2.15532">
        <ele>12.5</ele>
        <time>2020-06-05T13:25:05Z</time>
      </trkpt>
      <trkpt lat="47.23765" lon="-2.15533">
        <ele>12.5</ele>
        <time>2020-06-05T13:25:06Z</time>
      </trkpt>
      <trkpt lat="47.23764" lon="-2.15533">
        <ele>12.5</ele>
        <time>2020-06-05T13:25:07Z</time>
      </trkpt>
      <trkpt lat="47.23764" lon="-2.15534">
        <ele>12.4</ele>
        <time>2020-06-05T13:26:53Z</time>
      </trkpt>
      <trkpt lat="47.23763" lon="-2.15535">
        <ele>12.4</ele>
        <time>2020-06-05T13:26:54Z</time>
      </trkpt>
      <trkpt lat="47.23762" lon="-2.1554">
        <ele>12.3</ele>
        <time>2020-06-05T13:26:55Z</time>
      </trkpt>
      <trkpt lat="47.23762" lon="-2.15542">
        <ele>12.3</ele>
        <time>2020-06-05T13:26:56Z</time>
      </trkpt>
      <trkpt lat="47.23762" lon="-2.15549">
        <ele>12.2</ele>
        <time>2020-06-05T13:26:57Z</time>
      </trkpt>
      <trkpt lat="47.23761" lon="-2.15554">
        <ele>12.1</ele>
        <time>2020-06-05T13:26:58Z</time>
      </trkpt>
      <trkpt lat="47.23759" lon="-2.15558">
        <ele>12</ele>
        <time>2020-06-05T13:26:59Z</time>
      </trkpt>
      <trkpt lat="47.23758" lon="-2.15564">
        <ele>11.9</ele>
        <time>2020-06-05T13:27:00Z</time>
      </trkpt>
      <trkpt lat="47.23757" lon="-2.15569">
        <ele>11.7</ele>
        <time>2020-06-05T13:27:01Z</time>
      </trkpt>
      <trkpt lat="47.23756" lon="-2.15573">
        <ele>11.6</ele>
        <time>2020-06-05T13:27:02Z</time>
      </trkpt>
      <trkpt lat="47.23756" lon="-2.15579">
        <ele>11.5</ele>
        <time>2020-06-05T13:27:03Z</time>
      </trkpt>
      <trkpt lat="47.23756" lon="-2.15585">
        <ele>11.5</ele>
        <time>2020-06-05T13:27:04Z</time>
      </trkpt>
      <trkpt lat="47.23758" lon="-2.15589">
        <ele>11.4</ele>
        <time>2020-06-05T13:27:05Z</time>
      </trkpt>
      <trkpt lat="47.23759" lon="-2.15591">
        <ele>11.3</ele>
        <time>2020-06-05T13:27:06Z</time>
      </trkpt>
      <trkpt lat="47.23762" lon="-2.15593">
        <ele>11.4</ele>
        <time>2020-06-05T13:27:07Z</time>
      </trkpt>
      <trkpt lat="47.23764" lon="-2.15593">
        <ele>11.4</ele>
        <time>2020-06-05T13:27:08Z</time>
      </trkpt>
      <trkpt lat="47.23767" lon="-2.15595">
        <ele>11.4</ele>
        <time>2020-06-05T13:27:09Z</time>
      </trkpt>
      <trkpt lat="47.23768" lon="-2.15595">
        <ele>11.4</ele>
        <time>2020-06-05T13:27:10Z</time>
      </trkpt>
      <trkpt lat="47.23771" lon="-2.15596">
        <ele>11.4</ele>
        <time>2020-06-05T13:27:11Z</time>
      </trkpt>
      <trkpt lat="47.23771" lon="-2.15596">
        <ele>11.4</ele>
        <time>2020-06-05T13:27:12Z</time>
      </trkpt>
      <trkpt lat="47.23775" lon="-2.15595">
        <ele>11.5</ele>
        <time>2020-06-05T13:27:13Z</time>
      </trkpt>
      <trkpt lat="47.23776" lon="-2.15595">
        <ele>11.5</ele>
        <time>2020-06-05T13:27:14Z</time>
      </trkpt>
      <trkpt lat="47.23779" lon="-2.15595">
        <ele>11.5</ele>
        <time>2020-06-05T13:27:15Z</time>
      </trkpt>
      <trkpt lat="47.23782" lon="-2.15594">
        <ele>11.6</ele>
        <time>2020-06-05T13:27:16Z</time>
      </trkpt>
      <trkpt lat="47.23785" lon="-2.15593">
        <ele>11.6</ele>
        <time>2020-06-05T13:27:17Z</time>
      </trkpt>
      <trkpt lat="47.23788" lon="-2.15592">
        <ele>11.6</ele>
        <time>2020-06-05T13:27:18Z</time>
      </trkpt>
      <trkpt lat="47.2379" lon="-2.15591">
        <ele>11.7</ele>
        <time>2020-06-05T13:27:19Z</time>
      </trkpt>
      <trkpt lat="47.23793" lon="-2.15589">
        <ele>11.7</ele>
        <time>2020-06-05T13:27:20Z</time>
      </trkpt>
      <trkpt lat="47.23796" lon="-2.15587">
        <ele>11.8</ele>
        <time>2020-06-05T13:27:21Z</time>
      </trkpt>
      <trkpt lat="47.23799" lon="-2.15585">
        <ele>11.8</ele>
        <time>2020-06-05T13:27:22Z</time>
      </trkpt>
      <trkpt lat="47.23802" lon="-2.15584">
        <ele>11.8</ele>
        <time>2020-06-05T13:27:23Z</time>
      </trkpt>
      <trkpt lat="47.23806" lon="-2.15583">
        <ele>11.9</ele>
        <time>2020-06-05T13:27:24Z</time>
      </trkpt>
      <trkpt lat="47.23807" lon="-2.15582">
        <ele>11.9</ele>
        <time>2020-06-05T13:27:25Z</time>
      </trkpt>
      <trkpt lat="47.23811" lon="-2.15582">
        <ele>12</ele>
        <time>2020-06-05T13:27:26Z</time>
      </trkpt>
      <trkpt lat="47.23812" lon="-2.15581">
        <ele>12.1</ele>
        <time>2020-06-05T13:27:27Z</time>
      </trkpt>
      <trkpt lat="47.23815" lon="-2.15581">
        <ele>12.1</ele>
        <time>2020-06-05T13:27:28Z</time>
      </trkpt>
      <trkpt lat="47.23816" lon="-2.15581">
        <ele>12.2</ele>
        <time>2020-06-05T13:27:29Z</time>
      </trkpt>
      <trkpt lat="47.23818" lon="-2.15582">
        <ele>12.2</ele>
        <time>2020-06-05T13:27:30Z</time>
      </trkpt>
      <trkpt lat="47.2382" lon="-2.15581">
        <ele>12.3</ele>
        <time>2020-06-05T13:27:31Z</time>
      </trkpt>
      <trkpt lat="47.23821" lon="-2.1558">
        <ele>12.3</ele>
        <time>2020-06-05T13:27:32Z</time>
      </trkpt>
      <trkpt lat="47.23823" lon="-2.15579">
        <ele>12.3</ele>
        <time>2020-06-05T13:27:33Z</time>
      </trkpt>
      <trkpt lat="47.23825" lon="-2.15576">
        <ele>12.4</ele>
        <time>2020-06-05T13:27:34Z</time>
      </trkpt>
      <trkpt lat="47.23825" lon="-2.15575">
        <ele>12.4</ele>
        <time>2020-06-05T13:27:35Z</time>
      </trkpt>
      <trkpt lat="47.23827" lon="-2.15573">
        <ele>12.5</ele>
        <time>2020-06-05T13:27:36Z</time>
      </trkpt>
      <trkpt lat="47.23827" lon="-2.15571">
        <ele>12.5</ele>
        <time>2020-06-05T13:27:37Z</time>
      </trkpt>
      <trkpt lat="47.23828" lon="-2.1557">
        <ele>12.5</ele>
        <time>2020-06-05T13:27:38Z</time>
      </trkpt>
      <trkpt lat="47.23829" lon="-2.15568">
        <ele>12.6</ele>
        <time>2020-06-05T13:27:39Z</time>
      </trkpt>
      <trkpt lat="47.2383" lon="-2.15566">
        <ele>12.6</ele>
        <time>2020-06-05T13:27:40Z</time>
      </trkpt>
      <trkpt lat="47.23831" lon="-2.15564">
        <ele>12.7</ele>
        <time>2020-06-05T13:27:41Z</time>
      </trkpt>
      <trkpt lat="47.23833" lon="-2.15562">
        <ele>12.8</ele>
        <time>2020-06-05T13:27:42Z</time>
      </trkpt>
      <trkpt lat="47.23833" lon="-2.15561">
        <ele>12.9</ele>
        <time>2020-06-05T13:27:43Z</time>
      </trkpt>
      <trkpt lat="47.23834" lon="-2.1556">
        <ele>12.9</ele>
        <time>2020-06-05T13:27:44Z</time>
      </trkpt>
      <trkpt lat="47.23834" lon="-2.15558">
        <ele>13</ele>
        <time>2020-06-05T13:27:45Z</time>
      </trkpt>
      <trkpt lat="47.23835" lon="-2.15557">
        <ele>13.1</ele>
        <time>2020-06-05T13:27:46Z</time>
      </trkpt>
      <trkpt lat="47.23836" lon="-2.15556">
        <ele>13.1</ele>
        <time>2020-06-05T13:27:47Z</time>
      </trkpt>
      <trkpt lat="47.23837" lon="-2.15554">
        <ele>13.2</ele>
        <time>2020-06-05T13:27:48Z</time>
      </trkpt>
      <trkpt lat="47.23838" lon="-2.15552">
        <ele>13.3</ele>
        <time>2020-06-05T13:27:49Z</time>
      </trkpt>
      <trkpt lat="47.23838" lon="-2.15551">
        <ele>13.8</ele>
        <time>2020-06-05T13:27:50Z</time>
      </trkpt>
      <trkpt lat="47.23838" lon="-2.1555">
        <ele>13.8</ele>
        <time>2020-06-05T13:27:51Z</time>
      </trkpt>
      <trkpt lat="47.23838" lon="-2.15549">
        <ele>13.8</ele>
        <time>2020-06-05T13:27:52Z</time>
      </trkpt>
      <trkpt lat="47.23838" lon="-2.15548">
        <ele>13.9</ele>
        <time>2020-06-05T13:27:53Z</time>
      </trkpt>
      <trkpt lat="47.23838" lon="-2.15546">
        <ele>13.9</ele>
        <time>2020-06-05T13:27:54Z</time>
      </trkpt>
      <trkpt lat="47.23837" lon="-2.15544">
        <ele>13.9</ele>
        <time>2020-06-05T13:27:55Z</time>
      </trkpt>
      <trkpt lat="47.23836" lon="-2.15542">
        <ele>13.9</ele>
        <time>2020-06-05T13:27:56Z</time>
      </trkpt>
      <trkpt lat="47.23835" lon="-2.15541">
        <ele>13.9</ele>
        <time>2020-06-05T13:27:57Z</time>
      </trkpt>
      <trkpt lat="47.23832" lon="-2.1554">
        <ele>13.9</ele>
        <time>2020-06-05T13:27:58Z</time>
      </trkpt>
      <trkpt lat="47.23831" lon="-2.15539">
        <ele>13.9</ele>
        <time>2020-06-05T13:27:59Z</time>
      </trkpt>
      <trkpt lat="47.23828" lon="-2.15537">
        <ele>13.9</ele>
        <time>2020-06-05T13:28:00Z</time>
      </trkpt>
      <trkpt lat="47.23827" lon="-2.15536">
        <ele>14</ele>
        <time>2020-06-05T13:28:01Z</time>
      </trkpt>
      <trkpt lat="47.23823" lon="-2.15535">
        <ele>14</ele>
        <time>2020-06-05T13:28:02Z</time>
      </trkpt>
      <trkpt lat="47.23821" lon="-2.15535">
        <ele>14</ele>
        <time>2020-06-05T13:28:03Z</time>
      </trkpt>
      <trkpt lat="47.23819" lon="-2.15534">
        <ele>14</ele>
        <time>2020-06-05T13:28:04Z</time>
      </trkpt>
      <trkpt lat="47.23816" lon="-2.1553">
        <ele>14</ele>
        <time>2020-06-05T13:28:05Z</time>
      </trkpt>
      <trkpt lat="47.23814" lon="-2.15527">
        <ele>14</ele>
        <time>2020-06-05T13:28:06Z</time>
      </trkpt>
      <trkpt lat="47.23812" lon="-2.15522">
        <ele>14.1</ele>
        <time>2020-06-05T13:28:07Z</time>
      </trkpt>
      <trkpt lat="47.2381" lon="-2.15518">
        <ele>14.1</ele>
        <time>2020-06-05T13:28:08Z</time>
      </trkpt>
      <trkpt lat="47.23808" lon="-2.15512">
        <ele>14.1</ele>
        <time>2020-06-05T13:28:09Z</time>
      </trkpt>
      <trkpt lat="47.23805" lon="-2.15507">
        <ele>14.1</ele>
        <time>2020-06-05T13:28:10Z</time>
      </trkpt>
      <trkpt lat="47.23803" lon="-2.15503">
        <ele>14.1</ele>
        <time>2020-06-05T13:28:11Z</time>
      </trkpt>
      <trkpt lat="47.23802" lon="-2.15499">
        <ele>14.1</ele>
        <time>2020-06-05T13:28:12Z</time>
      </trkpt>
      <trkpt lat="47.238" lon="-2.15494">
        <ele>14.2</ele>
        <time>2020-06-05T13:28:13Z</time>
      </trkpt>
      <trkpt lat="47.23799" lon="-2.15493">
        <ele>14.2</ele>
        <time>2020-06-05T13:28:14Z</time>
      </trkpt>
      <trkpt lat="47.23797" lon="-2.15488">
        <ele>14.2</ele>
        <time>2020-06-05T13:28:15Z</time>
      </trkpt>
      <trkpt lat="47.23797" lon="-2.15487">
        <ele>14.2</ele>
        <time>2020-06-05T13:28:16Z</time>
      </trkpt>
      <trkpt lat="47.23795" lon="-2.15483">
        <ele>14.2</ele>
        <time>2020-06-05T13:28:17Z</time>
      </trkpt>
      <trkpt lat="47.23795" lon="-2.15482">
        <ele>14.2</ele>
        <time>2020-06-05T13:28:18Z</time>
      </trkpt>
      <trkpt lat="47.23793" lon="-2.15479">
        <ele>14.3</ele>
        <time>2020-06-05T13:28:19Z</time>
      </trkpt>
      <trkpt lat="47.2379" lon="-2.15475">
        <ele>14.3</ele>
        <time>2020-06-05T13:28:20Z</time>
      </trkpt>
      <trkpt lat="47.23788" lon="-2.15472">
        <ele>14.4</ele>
        <time>2020-06-05T13:28:21Z</time>
      </trkpt>
      <trkpt lat="47.23786" lon="-2.15469">
        <ele>14.5</ele>
        <time>2020-06-05T13:28:22Z</time>
      </trkpt>
      <trkpt lat="47.23783" lon="-2.15466">
        <ele>14.5</ele>
        <time>2020-06-05T13:28:23Z</time>
      </trkpt>
      <trkpt lat="47.23781" lon="-2.15464">
        <ele>14.6</ele>
        <time>2020-06-05T13:28:24Z</time>
      </trkpt>
      <trkpt lat="47.23779" lon="-2.15461">
        <ele>14.7</ele>
        <time>2020-06-05T13:28:25Z</time>
      </trkpt>
      <trkpt lat="47.23776" lon="-2.15458">
        <ele>14.8</ele>
        <time>2020-06-05T13:28:26Z</time>
      </trkpt>
      <trkpt lat="47.23773" lon="-2.15455">
        <ele>14.9</ele>
        <time>2020-06-05T13:28:27Z</time>
      </trkpt>
      <trkpt lat="47.23771" lon="-2.15454">
        <ele>14.9</ele>
        <time>2020-06-05T13:28:28Z</time>
      </trkpt>
      <trkpt lat="47.23769" lon="-2.15451">
        <ele>14.9</ele>
        <time>2020-06-05T13:28:29Z</time>
      </trkpt>
      <trkpt lat="47.23766" lon="-2.15449">
        <ele>15</ele>
        <time>2020-06-05T13:28:30Z</time>
      </trkpt>
      <trkpt lat="47.23764" lon="-2.15447">
        <ele>15.1</ele>
        <time>2020-06-05T13:28:31Z</time>
      </trkpt>
      <trkpt lat="47.23764" lon="-2.15442">
        <ele>15.1</ele>
        <time>2020-06-05T13:28:32Z</time>
      </trkpt>
      <trkpt lat="47.23765" lon="-2.15441">
        <ele>15.2</ele>
        <time>2020-06-05T13:28:33Z</time>
      </trkpt>
      <trkpt lat="47.23765" lon="-2.15436">
        <ele>15.3</ele>
        <time>2020-06-05T13:28:34Z</time>
      </trkpt>
      <trkpt lat="47.23766" lon="-2.1543">
        <ele>15.3</ele>
        <time>2020-06-05T13:28:35Z</time>
      </trkpt>
      <trkpt lat="47.23766" lon="-2.15428">
        <ele>15.3</ele>
        <time>2020-06-05T13:28:36Z</time>
      </trkpt>
      <trkpt lat="47.23767" lon="-2.15424">
        <ele>15.3</ele>
        <time>2020-06-05T13:28:37Z</time>
      </trkpt>
      <trkpt lat="47.23768" lon="-2.15423">
        <ele>15.3</ele>
        <time>2020-06-05T13:28:38Z</time>
      </trkpt>
      <trkpt lat="47.2377" lon="-2.15421">
        <ele>15.3</ele>
        <time>2020-06-05T13:28:39Z</time>
      </trkpt>
      <trkpt lat="47.2377" lon="-2.1542">
        <ele>15.3</ele>
        <time>2020-06-05T13:28:40Z</time>
      </trkpt>
      <trkpt lat="47.23771" lon="-2.1542">
        <ele>14.8</ele>
        <time>2020-06-05T13:28:41Z</time>
      </trkpt>
      <trkpt lat="47.23773" lon="-2.15419">
        <ele>14.8</ele>
        <time>2020-06-05T13:28:42Z</time>
      </trkpt>
      <trkpt lat="47.23773" lon="-2.15418">
        <ele>14.8</ele>
        <time>2020-06-05T13:28:43Z</time>
      </trkpt>
      <trkpt lat="47.23773" lon="-2.15418">
        <ele>14.8</ele>
        <time>2020-06-05T13:28:44Z</time>
      </trkpt>
      <trkpt lat="47.23773" lon="-2.15419">
        <ele>14.8</ele>
        <time>2020-06-05T13:28:45Z</time>
      </trkpt>
      <trkpt lat="47.23773" lon="-2.15419">
        <ele>14.8</ele>
        <time>2020-06-05T13:28:46Z</time>
      </trkpt>
      <trkpt lat="47.23773" lon="-2.15419">
        <ele>14.8</ele>
        <time>2020-06-05T13:28:47Z</time>
      </trkpt>
      <trkpt lat="47.23773" lon="-2.15419">
        <ele>14.8</ele>
        <time>2020-06-05T13:28:48Z</time>
      </trkpt>
      <trkpt lat="47.23774" lon="-2.15418">
        <ele>14.8</ele>
        <time>2020-06-05T13:28:49Z</time>
      </trkpt>
      <trkpt lat="47.23774" lon="-2.15418">
        <ele>14.8</ele>
        <time>2020-06-05T13:28:50Z</time>
      </trkpt>
      <trkpt lat="47.23774" lon="-2.15418">
        <ele>14.8</ele>
        <time>2020-06-05T13:28:51Z</time>
      </trkpt>
      <trkpt lat="47.23774" lon="-2.15418">
        <ele>14.8</ele>
        <time>2020-06-05T13:28:52Z</time>
      </trkpt>
      <trkpt lat="47.23775" lon="-2.15418">
        <ele>14.8</ele>
        <time>2020-06-05T13:28:53Z</time>
      </trkpt>
      <trkpt lat="47.23777" lon="-2.15416">
        <ele>14.8</ele>
        <time>2020-06-05T13:28:57Z</time>
      </trkpt>
      <trkpt lat="47.23778" lon="-2.15416">
        <ele>14.8</ele>
        <time>2020-06-05T13:28:58Z</time>
      </trkpt>
      <trkpt lat="47.23778" lon="-2.15416">
        <ele>14.8</ele>
        <time>2020-06-05T13:28:59Z</time>
      </trkpt>
      <trkpt lat="47.23778" lon="-2.15417">
        <ele>14.8</ele>
        <time>2020-06-05T13:29:00Z</time>
      </trkpt>
      <trkpt lat="47.23779" lon="-2.15418">
        <ele>14.8</ele>
        <time>2020-06-05T13:29:01Z</time>
      </trkpt>
      <trkpt lat="47.2378" lon="-2.15419">
        <ele>14.8</ele>
        <time>2020-06-05T13:29:02Z</time>
      </trkpt>
      <trkpt lat="47.23782" lon="-2.15421">
        <ele>14.8</ele>
        <time>2020-06-05T13:29:03Z</time>
      </trkpt>
      <trkpt lat="47.23784" lon="-2.15424">
        <ele>14.8</ele>
        <time>2020-06-05T13:29:04Z</time>
      </trkpt>
      <trkpt lat="47.23786" lon="-2.15428">
        <ele>14.8</ele>
        <time>2020-06-05T13:29:05Z</time>
      </trkpt>
      <trkpt lat="47.23788" lon="-2.15432">
        <ele>14.8</ele>
        <time>2020-06-05T13:29:06Z</time>
      </trkpt>
      <trkpt lat="47.2379" lon="-2.15437">
        <ele>14.8</ele>
        <time>2020-06-05T13:29:07Z</time>
      </trkpt>
      <trkpt lat="47.23793" lon="-2.15442">
        <ele>14.5</ele>
        <time>2020-06-05T13:29:08Z</time>
      </trkpt>
      <trkpt lat="47.23796" lon="-2.15448">
        <ele>14.3</ele>
        <time>2020-06-05T13:29:09Z</time>
      </trkpt>
      <trkpt lat="47.23799" lon="-2.15454">
        <ele>14.1</ele>
        <time>2020-06-05T13:29:10Z</time>
      </trkpt>
      <trkpt lat="47.23801" lon="-2.15459">
        <ele>14</ele>
        <time>2020-06-05T13:29:11Z</time>
      </trkpt>
      <trkpt lat="47.23804" lon="-2.15465">
        <ele>13.9</ele>
        <time>2020-06-05T13:29:12Z</time>
      </trkpt>
      <trkpt lat="47.23808" lon="-2.15472">
        <ele>13.7</ele>
        <time>2020-06-05T13:29:13Z</time>
      </trkpt>
      <trkpt lat="47.23811" lon="-2.15478">
        <ele>13.7</ele>
        <time>2020-06-05T13:29:14Z</time>
      </trkpt>
      <trkpt lat="47.23814" lon="-2.15483">
        <ele>13.6</ele>
        <time>2020-06-05T13:29:15Z</time>
      </trkpt>
      <trkpt lat="47.23817" lon="-2.15489">
        <ele>13.5</ele>
        <time>2020-06-05T13:29:16Z</time>
      </trkpt>
      <trkpt lat="47.2382" lon="-2.15495">
        <ele>13.4</ele>
        <time>2020-06-05T13:29:17Z</time>
      </trkpt>
      <trkpt lat="47.23824" lon="-2.15501">
        <ele>13.4</ele>
        <time>2020-06-05T13:29:18Z</time>
      </trkpt>
      <trkpt lat="47.23828" lon="-2.15506">
        <ele>13.4</ele>
        <time>2020-06-05T13:29:19Z</time>
      </trkpt>
      <trkpt lat="47.23833" lon="-2.1551">
        <ele>13.3</ele>
        <time>2020-06-05T13:29:20Z</time>
      </trkpt>
      <trkpt lat="47.23837" lon="-2.15514">
        <ele>13.4</ele>
        <time>2020-06-05T13:29:21Z</time>
      </trkpt>
      <trkpt lat="47.23841" lon="-2.15517">
        <ele>13.4</ele>
        <time>2020-06-05T13:29:22Z</time>
      </trkpt>
      <trkpt lat="47.23845" lon="-2.1552">
        <ele>13.4</ele>
        <time>2020-06-05T13:29:23Z</time>
      </trkpt>
      <trkpt lat="47.23849" lon="-2.15524">
        <ele>13.4</ele>
        <time>2020-06-05T13:29:24Z</time>
      </trkpt>
      <trkpt lat="47.23852" lon="-2.15526">
        <ele>13.5</ele>
        <time>2020-06-05T13:29:25Z</time>
      </trkpt>
      <trkpt lat="47.23856" lon="-2.15528">
        <ele>13.5</ele>
        <time>2020-06-05T13:29:26Z</time>
      </trkpt>
      <trkpt lat="47.2386" lon="-2.15529">
        <ele>13.4</ele>
        <time>2020-06-05T13:29:27Z</time>
      </trkpt>
      <trkpt lat="47.23865" lon="-2.15529">
        <ele>13.4</ele>
        <time>2020-06-05T13:29:28Z</time>
      </trkpt>
      <trkpt lat="47.23868" lon="-2.15531">
        <ele>13.4</ele>
        <time>2020-06-05T13:29:29Z</time>
      </trkpt>
      <trkpt lat="47.23872" lon="-2.15533">
        <ele>13.3</ele>
        <time>2020-06-05T13:29:30Z</time>
      </trkpt>
      <trkpt lat="47.23875" lon="-2.15537">
        <ele>13.3</ele>
        <time>2020-06-05T13:29:31Z</time>
      </trkpt>
      <trkpt lat="47.23878" lon="-2.15541">
        <ele>13.3</ele>
        <time>2020-06-05T13:29:32Z</time>
      </trkpt>
      <trkpt lat="47.23881" lon="-2.15546">
        <ele>13.2</ele>
        <time>2020-06-05T13:29:33Z</time>
      </trkpt>
      <trkpt lat="47.23885" lon="-2.15551">
        <ele>13.2</ele>
        <time>2020-06-05T13:29:34Z</time>
      </trkpt>
      <trkpt lat="47.23889" lon="-2.15556">
        <ele>13.3</ele>
        <time>2020-06-05T13:29:35Z</time>
      </trkpt>
      <trkpt lat="47.23893" lon="-2.1556">
        <ele>13.3</ele>
        <time>2020-06-05T13:29:36Z</time>
      </trkpt>
      <trkpt lat="47.23898" lon="-2.15562">
        <ele>13.4</ele>
        <time>2020-06-05T13:29:37Z</time>
      </trkpt>
      <trkpt lat="47.23903" lon="-2.15563">
        <ele>13.4</ele>
        <time>2020-06-05T13:29:38Z</time>
      </trkpt>
      <trkpt lat="47.23909" lon="-2.15565">
        <ele>13.4</ele>
        <time>2020-06-05T13:29:39Z</time>
      </trkpt>
      <trkpt lat="47.23915" lon="-2.15566">
        <ele>13.2</ele>
        <time>2020-06-05T13:29:40Z</time>
      </trkpt>
      <trkpt lat="47.23921" lon="-2.15569">
        <ele>13.1</ele>
        <time>2020-06-05T13:29:41Z</time>
      </trkpt>
      <trkpt lat="47.23927" lon="-2.15571">
        <ele>13</ele>
        <time>2020-06-05T13:29:42Z</time>
      </trkpt>
      <trkpt lat="47.23934" lon="-2.15572">
        <ele>13</ele>
        <time>2020-06-05T13:29:43Z</time>
      </trkpt>
      <trkpt lat="47.2394" lon="-2.15573">
        <ele>12.9</ele>
        <time>2020-06-05T13:29:44Z</time>
      </trkpt>
      <trkpt lat="47.23946" lon="-2.15574">
        <ele>12.9</ele>
        <time>2020-06-05T13:29:45Z</time>
      </trkpt>
      <trkpt lat="47.23951" lon="-2.15575">
        <ele>13</ele>
        <time>2020-06-05T13:29:46Z</time>
      </trkpt>
      <trkpt lat="47.23956" lon="-2.15576">
        <ele>12.9</ele>
        <time>2020-06-05T13:29:47Z</time>
      </trkpt>
      <trkpt lat="47.23961" lon="-2.15577">
        <ele>12.9</ele>
        <time>2020-06-05T13:29:48Z</time>
      </trkpt>
      <trkpt lat="47.23967" lon="-2.15577">
        <ele>12.9</ele>
        <time>2020-06-05T13:29:49Z</time>
      </trkpt>
      <trkpt lat="47.23972" lon="-2.15577">
        <ele>12.8</ele>
        <time>2020-06-05T13:29:50Z</time>
      </trkpt>
      <trkpt lat="47.23977" lon="-2.15578">
        <ele>12.7</ele>
        <time>2020-06-05T13:29:51Z</time>
      </trkpt>
      <trkpt lat="47.23983" lon="-2.15579">
        <ele>12.7</ele>
        <time>2020-06-05T13:29:52Z</time>
      </trkpt>
      <trkpt lat="47.23989" lon="-2.15576">
        <ele>12.7</ele>
        <time>2020-06-05T13:29:53Z</time>
      </trkpt>
      <trkpt lat="47.23995" lon="-2.15577">
        <ele>12.7</ele>
        <time>2020-06-05T13:29:54Z</time>
      </trkpt>
      <trkpt lat="47.24" lon="-2.15577">
        <ele>12.7</ele>
        <time>2020-06-05T13:29:55Z</time>
      </trkpt>
      <trkpt lat="47.24005" lon="-2.15578">
        <ele>12.8</ele>
        <time>2020-06-05T13:29:56Z</time>
      </trkpt>
      <trkpt lat="47.2401" lon="-2.15579">
        <ele>12.8</ele>
        <time>2020-06-05T13:29:57Z</time>
      </trkpt>
      <trkpt lat="47.24015" lon="-2.1558">
        <ele>12.9</ele>
        <time>2020-06-05T13:29:58Z</time>
      </trkpt>
      <trkpt lat="47.24021" lon="-2.15582">
        <ele>12.9</ele>
        <time>2020-06-05T13:29:59Z</time>
      </trkpt>
      <trkpt lat="47.24026" lon="-2.15583">
        <ele>12.9</ele>
        <time>2020-06-05T13:30:00Z</time>
      </trkpt>
      <trkpt lat="47.24031" lon="-2.15585">
        <ele>13</ele>
        <time>2020-06-05T13:30:01Z</time>
      </trkpt>
      <trkpt lat="47.24035" lon="-2.15586">
        <ele>13</ele>
        <time>2020-06-05T13:30:02Z</time>
      </trkpt>
      <trkpt lat="47.2404" lon="-2.15587">
        <ele>13</ele>
        <time>2020-06-05T13:30:03Z</time>
      </trkpt>
      <trkpt lat="47.24045" lon="-2.15589">
        <ele>13.1</ele>
        <time>2020-06-05T13:30:04Z</time>
      </trkpt>
      <trkpt lat="47.24051" lon="-2.15591">
        <ele>13.1</ele>
        <time>2020-06-05T13:30:05Z</time>
      </trkpt>
      <trkpt lat="47.24056" lon="-2.15593">
        <ele>13.1</ele>
        <time>2020-06-05T13:30:06Z</time>
      </trkpt>
      <trkpt lat="47.24062" lon="-2.15594">
        <ele>13.1</ele>
        <time>2020-06-05T13:30:07Z</time>
      </trkpt>
      <trkpt lat="47.24067" lon="-2.15595">
        <ele>13.2</ele>
        <time>2020-06-05T13:30:08Z</time>
      </trkpt>
      <trkpt lat="47.24073" lon="-2.15597">
        <ele>13.2</ele>
        <time>2020-06-05T13:30:09Z</time>
      </trkpt>
      <trkpt lat="47.24079" lon="-2.156">
        <ele>13.3</ele>
        <time>2020-06-05T13:30:10Z</time>
      </trkpt>
      <trkpt lat="47.24084" lon="-2.15602">
        <ele>13.2</ele>
        <time>2020-06-05T13:30:11Z</time>
      </trkpt>
      <trkpt lat="47.2409" lon="-2.15603">
        <ele>13.2</ele>
        <time>2020-06-05T13:30:12Z</time>
      </trkpt>
      <trkpt lat="47.24095" lon="-2.15605">
        <ele>13.1</ele>
        <time>2020-06-05T13:30:13Z</time>
      </trkpt>
      <trkpt lat="47.241" lon="-2.15607">
        <ele>13.1</ele>
        <time>2020-06-05T13:30:14Z</time>
      </trkpt>
      <trkpt lat="47.24105" lon="-2.15609">
        <ele>13.1</ele>
        <time>2020-06-05T13:30:15Z</time>
      </trkpt>
      <trkpt lat="47.24109" lon="-2.1561">
        <ele>13</ele>
        <time>2020-06-05T13:30:16Z</time>
      </trkpt>
      <trkpt lat="47.24113" lon="-2.15611">
        <ele>13</ele>
        <time>2020-06-05T13:30:17Z</time>
      </trkpt>
      <trkpt lat="47.24118" lon="-2.15609">
        <ele>13.1</ele>
        <time>2020-06-05T13:30:18Z</time>
      </trkpt>
      <trkpt lat="47.24122" lon="-2.15607">
        <ele>13.1</ele>
        <time>2020-06-05T13:30:19Z</time>
      </trkpt>
      <trkpt lat="47.24125" lon="-2.15603">
        <ele>13.1</ele>
        <time>2020-06-05T13:30:20Z</time>
      </trkpt>
      <trkpt lat="47.24129" lon="-2.15601">
        <ele>13.2</ele>
        <time>2020-06-05T13:30:21Z</time>
      </trkpt>
      <trkpt lat="47.24133" lon="-2.15601">
        <ele>13.2</ele>
        <time>2020-06-05T13:30:22Z</time>
      </trkpt>
      <trkpt lat="47.24136" lon="-2.15603">
        <ele>13.3</ele>
        <time>2020-06-05T13:30:23Z</time>
      </trkpt>
      <trkpt lat="47.2414" lon="-2.15606">
        <ele>13.3</ele>
        <time>2020-06-05T13:30:24Z</time>
      </trkpt>
      <trkpt lat="47.24143" lon="-2.1561">
        <ele>13.3</ele>
        <time>2020-06-05T13:30:25Z</time>
      </trkpt>
      <trkpt lat="47.24145" lon="-2.15614">
        <ele>13.3</ele>
        <time>2020-06-05T13:30:26Z</time>
      </trkpt>
      <trkpt lat="47.24148" lon="-2.15618">
        <ele>13.3</ele>
        <time>2020-06-05T13:30:27Z</time>
      </trkpt>
      <trkpt lat="47.2415" lon="-2.15623">
        <ele>13.3</ele>
        <time>2020-06-05T13:30:28Z</time>
      </trkpt>
      <trkpt lat="47.24153" lon="-2.15629">
        <ele>13.1</ele>
        <time>2020-06-05T13:30:29Z</time>
      </trkpt>
      <trkpt lat="47.24155" lon="-2.15635">
        <ele>13</ele>
        <time>2020-06-05T13:30:30Z</time>
      </trkpt>
      <trkpt lat="47.24158" lon="-2.15641">
        <ele>12.9</ele>
        <time>2020-06-05T13:30:31Z</time>
      </trkpt>
      <trkpt lat="47.24161" lon="-2.15647">
        <ele>12.8</ele>
        <time>2020-06-05T13:30:32Z</time>
      </trkpt>
      <trkpt lat="47.24165" lon="-2.15652">
        <ele>12.8</ele>
        <time>2020-06-05T13:30:33Z</time>
      </trkpt>
      <trkpt lat="47.24169" lon="-2.15657">
        <ele>12.7</ele>
        <time>2020-06-05T13:30:34Z</time>
      </trkpt>
      <trkpt lat="47.24174" lon="-2.15662">
        <ele>12.7</ele>
        <time>2020-06-05T13:30:35Z</time>
      </trkpt>
      <trkpt lat="47.24179" lon="-2.15665">
        <ele>12.7</ele>
        <time>2020-06-05T13:30:36Z</time>
      </trkpt>
      <trkpt lat="47.24183" lon="-2.15668">
        <ele>12.6</ele>
        <time>2020-06-05T13:30:37Z</time>
      </trkpt>
      <trkpt lat="47.24188" lon="-2.15672">
        <ele>12.6</ele>
        <time>2020-06-05T13:30:38Z</time>
      </trkpt>
      <trkpt lat="47.24192" lon="-2.15676">
        <ele>12.6</ele>
        <time>2020-06-05T13:30:39Z</time>
      </trkpt>
      <trkpt lat="47.24196" lon="-2.1568">
        <ele>12.6</ele>
        <time>2020-06-05T13:30:40Z</time>
      </trkpt>
      <trkpt lat="47.242" lon="-2.15684">
        <ele>12.6</ele>
        <time>2020-06-05T13:30:41Z</time>
      </trkpt>
      <trkpt lat="47.24205" lon="-2.15688">
        <ele>12.6</ele>
        <time>2020-06-05T13:30:42Z</time>
      </trkpt>
      <trkpt lat="47.2421" lon="-2.15693">
        <ele>12.6</ele>
        <time>2020-06-05T13:30:43Z</time>
      </trkpt>
      <trkpt lat="47.24216" lon="-2.15697">
        <ele>12.6</ele>
        <time>2020-06-05T13:30:44Z</time>
      </trkpt>
      <trkpt lat="47.24221" lon="-2.15699">
        <ele>12.7</ele>
        <time>2020-06-05T13:30:45Z</time>
      </trkpt>
      <trkpt lat="47.24225" lon="-2.15705">
        <ele>12.7</ele>
        <time>2020-06-05T13:30:46Z</time>
      </trkpt>
      <trkpt lat="47.24231" lon="-2.15708">
        <ele>12.8</ele>
        <time>2020-06-05T13:30:47Z</time>
      </trkpt>
      <trkpt lat="47.24236" lon="-2.15712">
        <ele>12.8</ele>
        <time>2020-06-05T13:30:48Z</time>
      </trkpt>
      <trkpt lat="47.24241" lon="-2.15717">
        <ele>12.7</ele>
        <time>2020-06-05T13:30:49Z</time>
      </trkpt>
      <trkpt lat="47.24246" lon="-2.15721">
        <ele>12.7</ele>
        <time>2020-06-05T13:30:50Z</time>
      </trkpt>
      <trkpt lat="47.24251" lon="-2.15725">
        <ele>12.6</ele>
        <time>2020-06-05T13:30:51Z</time>
      </trkpt>
      <trkpt lat="47.24256" lon="-2.15729">
        <ele>12.6</ele>
        <time>2020-06-05T13:30:52Z</time>
      </trkpt>
      <trkpt lat="47.2426" lon="-2.15733">
        <ele>12.5</ele>
        <time>2020-06-05T13:30:53Z</time>
      </trkpt>
      <trkpt lat="47.24265" lon="-2.15737">
        <ele>12.4</ele>
        <time>2020-06-05T13:30:54Z</time>
      </trkpt>
      <trkpt lat="47.2427" lon="-2.1574">
        <ele>12.3</ele>
        <time>2020-06-05T13:30:55Z</time>
      </trkpt>
      <trkpt lat="47.24276" lon="-2.15743">
        <ele>12.1</ele>
        <time>2020-06-05T13:30:56Z</time>
      </trkpt>
      <trkpt lat="47.24281" lon="-2.15747">
        <ele>12</ele>
        <time>2020-06-05T13:30:57Z</time>
      </trkpt>
      <trkpt lat="47.24286" lon="-2.15751">
        <ele>11.8</ele>
        <time>2020-06-05T13:30:58Z</time>
      </trkpt>
      <trkpt lat="47.24292" lon="-2.15754">
        <ele>11.7</ele>
        <time>2020-06-05T13:30:59Z</time>
      </trkpt>
      <trkpt lat="47.24297" lon="-2.15758">
        <ele>11.6</ele>
        <time>2020-06-05T13:31:00Z</time>
      </trkpt>
      <trkpt lat="47.24303" lon="-2.15762">
        <ele>11.5</ele>
        <time>2020-06-05T13:31:01Z</time>
      </trkpt>
      <trkpt lat="47.24308" lon="-2.15764">
        <ele>11.4</ele>
        <time>2020-06-05T13:31:02Z</time>
      </trkpt>
      <trkpt lat="47.24314" lon="-2.15767">
        <ele>11.3</ele>
        <time>2020-06-05T13:31:03Z</time>
      </trkpt>
      <trkpt lat="47.2432" lon="-2.1577">
        <ele>11.3</ele>
        <time>2020-06-05T13:31:04Z</time>
      </trkpt>
      <trkpt lat="47.24325" lon="-2.15772">
        <ele>11.2</ele>
        <time>2020-06-05T13:31:05Z</time>
      </trkpt>
      <trkpt lat="47.24331" lon="-2.15775">
        <ele>11.1</ele>
        <time>2020-06-05T13:31:06Z</time>
      </trkpt>
      <trkpt lat="47.24337" lon="-2.15779">
        <ele>11</ele>
        <time>2020-06-05T13:31:07Z</time>
      </trkpt>
      <trkpt lat="47.24343" lon="-2.1578">
        <ele>10.9</ele>
        <time>2020-06-05T13:31:08Z</time>
      </trkpt>
      <trkpt lat="47.2435" lon="-2.15782">
        <ele>10.8</ele>
        <time>2020-06-05T13:31:09Z</time>
      </trkpt>
      <trkpt lat="47.24355" lon="-2.15784">
        <ele>10.7</ele>
        <time>2020-06-05T13:31:10Z</time>
      </trkpt>
      <trkpt lat="47.24362" lon="-2.15786">
        <ele>10.6</ele>
        <time>2020-06-05T13:31:11Z</time>
      </trkpt>
      <trkpt lat="47.24369" lon="-2.15786">
        <ele>10.4</ele>
        <time>2020-06-05T13:31:12Z</time>
      </trkpt>
      <trkpt lat="47.24376" lon="-2.15786">
        <ele>10.2</ele>
        <time>2020-06-05T13:31:13Z</time>
      </trkpt>
      <trkpt lat="47.24383" lon="-2.15786">
        <ele>10.1</ele>
        <time>2020-06-05T13:31:14Z</time>
      </trkpt>
      <trkpt lat="47.24389" lon="-2.15787">
        <ele>9.9</ele>
        <time>2020-06-05T13:31:15Z</time>
      </trkpt>
      <trkpt lat="47.24396" lon="-2.15787">
        <ele>9.7</ele>
        <time>2020-06-05T13:31:16Z</time>
      </trkpt>
      <trkpt lat="47.24402" lon="-2.15788">
        <ele>9.5</ele>
        <time>2020-06-05T13:31:17Z</time>
      </trkpt>
      <trkpt lat="47.24407" lon="-2.15787">
        <ele>9.4</ele>
        <time>2020-06-05T13:31:18Z</time>
      </trkpt>
      <trkpt lat="47.24413" lon="-2.15787">
        <ele>9.1</ele>
        <time>2020-06-05T13:31:19Z</time>
      </trkpt>
      <trkpt lat="47.24417" lon="-2.15786">
        <ele>9</ele>
        <time>2020-06-05T13:31:20Z</time>
      </trkpt>
      <trkpt lat="47.24422" lon="-2.15787">
        <ele>8.8</ele>
        <time>2020-06-05T13:31:21Z</time>
      </trkpt>
      <trkpt lat="47.24428" lon="-2.15787">
        <ele>8.7</ele>
        <time>2020-06-05T13:31:22Z</time>
      </trkpt>
      <trkpt lat="47.24434" lon="-2.15787">
        <ele>8.7</ele>
        <time>2020-06-05T13:31:23Z</time>
      </trkpt>
      <trkpt lat="47.2444" lon="-2.15787">
        <ele>8.7</ele>
        <time>2020-06-05T13:31:24Z</time>
      </trkpt>
      <trkpt lat="47.24447" lon="-2.15787">
        <ele>8.7</ele>
        <time>2020-06-05T13:31:25Z</time>
      </trkpt>
      <trkpt lat="47.24453" lon="-2.15787">
        <ele>8.7</ele>
        <time>2020-06-05T13:31:26Z</time>
      </trkpt>
      <trkpt lat="47.2446" lon="-2.15787">
        <ele>8.9</ele>
        <time>2020-06-05T13:31:27Z</time>
      </trkpt>
      <trkpt lat="47.24466" lon="-2.15787">
        <ele>8.7</ele>
        <time>2020-06-05T13:31:28Z</time>
      </trkpt>
      <trkpt lat="47.24473" lon="-2.15785">
        <ele>8.2</ele>
        <time>2020-06-05T13:31:29Z</time>
      </trkpt>
      <trkpt lat="47.24479" lon="-2.15779">
        <ele>8.3</ele>
        <time>2020-06-05T13:31:30Z</time>
      </trkpt>
      <trkpt lat="47.24485" lon="-2.15773">
        <ele>8.3</ele>
        <time>2020-06-05T13:31:31Z</time>
      </trkpt>
      <trkpt lat="47.2449" lon="-2.15768">
        <ele>8.5</ele>
        <time>2020-06-05T13:31:32Z</time>
      </trkpt>
      <trkpt lat="47.24493" lon="-2.15763">
        <ele>8.5</ele>
        <time>2020-06-05T13:31:33Z</time>
      </trkpt>
      <trkpt lat="47.24498" lon="-2.15759">
        <ele>8.5</ele>
        <time>2020-06-05T13:31:34Z</time>
      </trkpt>
      <trkpt lat="47.24504" lon="-2.15756">
        <ele>8.5</ele>
        <time>2020-06-05T13:31:35Z</time>
      </trkpt>
      <trkpt lat="47.24509" lon="-2.15755">
        <ele>8.6</ele>
        <time>2020-06-05T13:31:36Z</time>
      </trkpt>
      <trkpt lat="47.24515" lon="-2.15755">
        <ele>8.6</ele>
        <time>2020-06-05T13:31:37Z</time>
      </trkpt>
      <trkpt lat="47.24519" lon="-2.15759">
        <ele>8.7</ele>
        <time>2020-06-05T13:31:38Z</time>
      </trkpt>
      <trkpt lat="47.24524" lon="-2.15765">
        <ele>8.8</ele>
        <time>2020-06-05T13:31:39Z</time>
      </trkpt>
      <trkpt lat="47.24527" lon="-2.1577">
        <ele>8.8</ele>
        <time>2020-06-05T13:31:40Z</time>
      </trkpt>
      <trkpt lat="47.2453" lon="-2.15775">
        <ele>8.9</ele>
        <time>2020-06-05T13:31:41Z</time>
      </trkpt>
      <trkpt lat="47.24533" lon="-2.1578">
        <ele>9</ele>
        <time>2020-06-05T13:31:42Z</time>
      </trkpt>
      <trkpt lat="47.24536" lon="-2.15786">
        <ele>9.1</ele>
        <time>2020-06-05T13:31:43Z</time>
      </trkpt>
      <trkpt lat="47.24538" lon="-2.15793">
        <ele>9.2</ele>
        <time>2020-06-05T13:31:44Z</time>
      </trkpt>
      <trkpt lat="47.2454" lon="-2.15802">
        <ele>8.9</ele>
        <time>2020-06-05T13:31:45Z</time>
      </trkpt>
      <trkpt lat="47.24541" lon="-2.15811">
        <ele>8.4</ele>
        <time>2020-06-05T13:31:46Z</time>
      </trkpt>
      <trkpt lat="47.24542" lon="-2.15818">
        <ele>8.2</ele>
        <time>2020-06-05T13:31:47Z</time>
      </trkpt>
      <trkpt lat="47.24543" lon="-2.15825">
        <ele>8.1</ele>
        <time>2020-06-05T13:31:48Z</time>
      </trkpt>
      <trkpt lat="47.24545" lon="-2.15831">
        <ele>8</ele>
        <time>2020-06-05T13:31:49Z</time>
      </trkpt>
      <trkpt lat="47.24546" lon="-2.15835">
        <ele>8</ele>
        <time>2020-06-05T13:31:50Z</time>
      </trkpt>
      <trkpt lat="47.24548" lon="-2.15839">
        <ele>8</ele>
        <time>2020-06-05T13:31:51Z</time>
      </trkpt>
      <trkpt lat="47.24551" lon="-2.15842">
        <ele>8</ele>
        <time>2020-06-05T13:31:52Z</time>
      </trkpt>
      <trkpt lat="47.24553" lon="-2.15844">
        <ele>8</ele>
        <time>2020-06-05T13:31:53Z</time>
      </trkpt>
      <trkpt lat="47.24556" lon="-2.15847">
        <ele>8</ele>
        <time>2020-06-05T13:31:54Z</time>
      </trkpt>
      <trkpt lat="47.24559" lon="-2.15852">
        <ele>8.1</ele>
        <time>2020-06-05T13:31:55Z</time>
      </trkpt>
      <trkpt lat="47.24562" lon="-2.15856">
        <ele>8.1</ele>
        <time>2020-06-05T13:31:56Z</time>
      </trkpt>
      <trkpt lat="47.24565" lon="-2.15861">
        <ele>8.2</ele>
        <time>2020-06-05T13:31:57Z</time>
      </trkpt>
      <trkpt lat="47.24567" lon="-2.15865">
        <ele>8.2</ele>
        <time>2020-06-05T13:31:58Z</time>
      </trkpt>
      <trkpt lat="47.2457" lon="-2.15869">
        <ele>8.3</ele>
        <time>2020-06-05T13:31:59Z</time>
      </trkpt>
      <trkpt lat="47.24572" lon="-2.15873">
        <ele>8.4</ele>
        <time>2020-06-05T13:32:00Z</time>
      </trkpt>
      <trkpt lat="47.24575" lon="-2.15875">
        <ele>8.4</ele>
        <time>2020-06-05T13:32:01Z</time>
      </trkpt>
      <trkpt lat="47.24577" lon="-2.15878">
        <ele>8.5</ele>
        <time>2020-06-05T13:32:02Z</time>
      </trkpt>
      <trkpt lat="47.2458" lon="-2.1588">
        <ele>8.5</ele>
        <time>2020-06-05T13:32:03Z</time>
      </trkpt>
      <trkpt lat="47.24581" lon="-2.1588">
        <ele>8.5</ele>
        <time>2020-06-05T13:32:04Z</time>
      </trkpt>
      <trkpt lat="47.24582" lon="-2.15882">
        <ele>8.5</ele>
        <time>2020-06-05T13:32:05Z</time>
      </trkpt>
      <trkpt lat="47.24583" lon="-2.15884">
        <ele>8.6</ele>
        <time>2020-06-05T13:32:06Z</time>
      </trkpt>
      <trkpt lat="47.24584" lon="-2.15885">
        <ele>8.6</ele>
        <time>2020-06-05T13:32:07Z</time>
      </trkpt>
      <trkpt lat="47.24586" lon="-2.15887">
        <ele>8.6</ele>
        <time>2020-06-05T13:32:08Z</time>
      </trkpt>
      <trkpt lat="47.24588" lon="-2.1589">
        <ele>8.7</ele>
        <time>2020-06-05T13:32:09Z</time>
      </trkpt>
      <trkpt lat="47.24589" lon="-2.15891">
        <ele>8.7</ele>
        <time>2020-06-05T13:32:10Z</time>
      </trkpt>
      <trkpt lat="47.24591" lon="-2.15894">
        <ele>8.8</ele>
        <time>2020-06-05T13:32:11Z</time>
      </trkpt>
      <trkpt lat="47.24591" lon="-2.15895">
        <ele>8.8</ele>
        <time>2020-06-05T13:32:12Z</time>
      </trkpt>
      <trkpt lat="47.24592" lon="-2.15896">
        <ele>8.8</ele>
        <time>2020-06-05T13:32:13Z</time>
      </trkpt>
      <trkpt lat="47.24592" lon="-2.15898">
        <ele>8.8</ele>
        <time>2020-06-05T13:32:14Z</time>
      </trkpt>
      <trkpt lat="47.24592" lon="-2.15899">
        <ele>8.9</ele>
        <time>2020-06-05T13:32:15Z</time>
      </trkpt>
      <trkpt lat="47.24592" lon="-2.15899">
        <ele>8.9</ele>
        <time>2020-06-05T13:32:16Z</time>
      </trkpt>
      <trkpt lat="47.24591" lon="-2.159">
        <ele>8.9</ele>
        <time>2020-06-05T13:32:17Z</time>
      </trkpt>
      <trkpt lat="47.2459" lon="-2.15899">
        <ele>8.9</ele>
        <time>2020-06-05T13:32:18Z</time>
      </trkpt>
      <trkpt lat="47.24589" lon="-2.15898">
        <ele>8.9</ele>
        <time>2020-06-05T13:32:19Z</time>
      </trkpt>
      <trkpt lat="47.24589" lon="-2.15898">
        <ele>9</ele>
        <time>2020-06-05T13:32:20Z</time>
      </trkpt>
      <trkpt lat="47.24588" lon="-2.15898">
        <ele>9</ele>
        <time>2020-06-05T13:32:21Z</time>
      </trkpt>
      <trkpt lat="47.24588" lon="-2.15899">
        <ele>9</ele>
        <time>2020-06-05T13:32:22Z</time>
      </trkpt>
      <trkpt lat="47.24588" lon="-2.15899">
        <ele>9</ele>
        <time>2020-06-05T13:32:23Z</time>
      </trkpt>
      <trkpt lat="47.24588" lon="-2.15898">
        <ele>9</ele>
        <time>2020-06-05T13:32:24Z</time>
      </trkpt>
      <trkpt lat="47.24588" lon="-2.15898">
        <ele>9</ele>
        <time>2020-06-05T13:32:25Z</time>
      </trkpt>
      <trkpt lat="47.24588" lon="-2.15897">
        <ele>9.1</ele>
        <time>2020-06-05T13:32:26Z</time>
      </trkpt>
      <trkpt lat="47.24589" lon="-2.15898">
        <ele>9.1</ele>
        <time>2020-06-05T13:32:27Z</time>
      </trkpt>
      <trkpt lat="47.24588" lon="-2.15898">
        <ele>9.1</ele>
        <time>2020-06-05T13:32:28Z</time>
      </trkpt>
      <trkpt lat="47.24589" lon="-2.15898">
        <ele>9.1</ele>
        <time>2020-06-05T13:32:29Z</time>
      </trkpt>
      <trkpt lat="47.24588" lon="-2.15898">
        <ele>9.1</ele>
        <time>2020-06-05T13:32:30Z</time>
      </trkpt>
      <trkpt lat="47.24588" lon="-2.15899">
        <ele>9.1</ele>
        <time>2020-06-05T13:32:31Z</time>
      </trkpt>
      <trkpt lat="47.24588" lon="-2.15898">
        <ele>9.1</ele>
        <time>2020-06-05T13:32:32Z</time>
      </trkpt>
      <trkpt lat="47.24588" lon="-2.15899">
        <ele>9.1</ele>
        <time>2020-06-05T13:32:33Z</time>
      </trkpt>
      <trkpt lat="47.24588" lon="-2.15897">
        <ele>9.2</ele>
        <time>2020-06-05T13:32:34Z</time>
      </trkpt>
      <trkpt lat="47.24587" lon="-2.15896">
        <ele>9.2</ele>
        <time>2020-06-05T13:32:35Z</time>
      </trkpt>
      <trkpt lat="47.24587" lon="-2.15896">
        <ele>9.2</ele>
        <time>2020-06-05T13:32:36Z</time>
      </trkpt>
      <trkpt lat="47.24585" lon="-2.15895">
        <ele>9.2</ele>
        <time>2020-06-05T13:32:37Z</time>
      </trkpt>
      <trkpt lat="47.24584" lon="-2.15894">
        <ele>9.2</ele>
        <time>2020-06-05T13:32:38Z</time>
      </trkpt>
      <trkpt lat="47.24583" lon="-2.15893">
        <ele>9.1</ele>
        <time>2020-06-05T13:32:39Z</time>
      </trkpt>
      <trkpt lat="47.24582" lon="-2.15893">
        <ele>9.1</ele>
        <time>2020-06-05T13:32:40Z</time>
      </trkpt>
      <trkpt lat="47.2458" lon="-2.15892">
        <ele>9</ele>
        <time>2020-06-05T13:32:41Z</time>
      </trkpt>
      <trkpt lat="47.24579" lon="-2.15891">
        <ele>9</ele>
        <time>2020-06-05T13:32:42Z</time>
      </trkpt>
      <trkpt lat="47.24578" lon="-2.15891">
        <ele>8.9</ele>
        <time>2020-06-05T13:32:43Z</time>
      </trkpt>
      <trkpt lat="47.24577" lon="-2.1589">
        <ele>8.9</ele>
        <time>2020-06-05T13:32:44Z</time>
      </trkpt>
      <trkpt lat="47.24576" lon="-2.15888">
        <ele>8.8</ele>
        <time>2020-06-05T13:32:45Z</time>
      </trkpt>
      <trkpt lat="47.24575" lon="-2.15886">
        <ele>8.8</ele>
        <time>2020-06-05T13:32:46Z</time>
      </trkpt>
      <trkpt lat="47.24575" lon="-2.15885">
        <ele>8.8</ele>
        <time>2020-06-05T13:32:47Z</time>
      </trkpt>
      <trkpt lat="47.24574" lon="-2.15882">
        <ele>8.7</ele>
        <time>2020-06-05T13:32:48Z</time>
      </trkpt>
      <trkpt lat="47.24573" lon="-2.15881">
        <ele>8.7</ele>
        <time>2020-06-05T13:32:49Z</time>
      </trkpt>
      <trkpt lat="47.24573" lon="-2.1588">
        <ele>8.7</ele>
        <time>2020-06-05T13:32:50Z</time>
      </trkpt>
      <trkpt lat="47.24572" lon="-2.1588">
        <ele>8.7</ele>
        <time>2020-06-05T13:32:51Z</time>
      </trkpt>
      <trkpt lat="47.24572" lon="-2.1588">
        <ele>8.7</ele>
        <time>2020-06-05T13:32:52Z</time>
      </trkpt>
      <trkpt lat="47.24572" lon="-2.15879">
        <ele>8.7</ele>
        <time>2020-06-05T13:32:53Z</time>
      </trkpt>
      <trkpt lat="47.24571" lon="-2.15879">
        <ele>8.6</ele>
        <time>2020-06-05T13:32:54Z</time>
      </trkpt>
      <trkpt lat="47.24571" lon="-2.15879">
        <ele>8.6</ele>
        <time>2020-06-05T13:32:55Z</time>
      </trkpt>
      <trkpt lat="47.2457" lon="-2.15878">
        <ele>8.6</ele>
        <time>2020-06-05T13:32:56Z</time>
      </trkpt>
      <trkpt lat="47.2457" lon="-2.15878">
        <ele>8.6</ele>
        <time>2020-06-05T13:32:57Z</time>
      </trkpt>
      <trkpt lat="47.2457" lon="-2.15877">
        <ele>8.6</ele>
        <time>2020-06-05T13:32:58Z</time>
      </trkpt>
      <trkpt lat="47.24569" lon="-2.15877">
        <ele>8.6</ele>
        <time>2020-06-05T13:33:21Z</time>
      </trkpt>
      <trkpt lat="47.24569" lon="-2.15877">
        <ele>8.6</ele>
        <time>2020-06-05T13:33:22Z</time>
      </trkpt>
      <trkpt lat="47.24569" lon="-2.15876">
        <ele>8.6</ele>
        <time>2020-06-05T13:33:23Z</time>
      </trkpt>
      <trkpt lat="47.24565" lon="-2.15874">
        <ele>8.5</ele>
        <time>2020-06-05T13:33:24Z</time>
      </trkpt>
      <trkpt lat="47.24564" lon="-2.15872">
        <ele>8.5</ele>
        <time>2020-06-05T13:33:25Z</time>
      </trkpt>
      <trkpt lat="47.24561" lon="-2.15869">
        <ele>8.4</ele>
        <time>2020-06-05T13:33:26Z</time>
      </trkpt>
      <trkpt lat="47.24558" lon="-2.15866">
        <ele>8.3</ele>
        <time>2020-06-05T13:33:27Z</time>
      </trkpt>
      <trkpt lat="47.24556" lon="-2.15863">
        <ele>8.2</ele>
        <time>2020-06-05T13:33:28Z</time>
      </trkpt>
      <trkpt lat="47.24553" lon="-2.1586">
        <ele>8.2</ele>
        <time>2020-06-05T13:33:29Z</time>
      </trkpt>
      <trkpt lat="47.2455" lon="-2.15857">
        <ele>8.1</ele>
        <time>2020-06-05T13:33:30Z</time>
      </trkpt>
      <trkpt lat="47.24547" lon="-2.15853">
        <ele>8.1</ele>
        <time>2020-06-05T13:33:31Z</time>
      </trkpt>
      <trkpt lat="47.24543" lon="-2.1585">
        <ele>8</ele>
        <time>2020-06-05T13:33:32Z</time>
      </trkpt>
      <trkpt lat="47.2454" lon="-2.15846">
        <ele>8</ele>
        <time>2020-06-05T13:33:33Z</time>
      </trkpt>
      <trkpt lat="47.24537" lon="-2.15843">
        <ele>8</ele>
        <time>2020-06-05T13:33:34Z</time>
      </trkpt>
      <trkpt lat="47.24533" lon="-2.1584">
        <ele>8.3</ele>
        <time>2020-06-05T13:33:35Z</time>
      </trkpt>
      <trkpt lat="47.2453" lon="-2.15837">
        <ele>8.2</ele>
        <time>2020-06-05T13:33:36Z</time>
      </trkpt>
      <trkpt lat="47.24526" lon="-2.15834">
        <ele>8.2</ele>
        <time>2020-06-05T13:33:37Z</time>
      </trkpt>
      <trkpt lat="47.24523" lon="-2.15835">
        <ele>8.2</ele>
        <time>2020-06-05T13:33:38Z</time>
      </trkpt>
      <trkpt lat="47.24519" lon="-2.15837">
        <ele>8</ele>
        <time>2020-06-05T13:33:39Z</time>
      </trkpt>
      <trkpt lat="47.24515" lon="-2.1584">
        <ele>7.9</ele>
        <time>2020-06-05T13:33:40Z</time>
      </trkpt>
      <trkpt lat="47.2451" lon="-2.15841">
        <ele>7.7</ele>
        <time>2020-06-05T13:33:41Z</time>
      </trkpt>
      <trkpt lat="47.24505" lon="-2.15842">
        <ele>7.5</ele>
        <time>2020-06-05T13:33:42Z</time>
      </trkpt>
      <trkpt lat="47.24499" lon="-2.15841">
        <ele>7.3</ele>
        <time>2020-06-05T13:33:43Z</time>
      </trkpt>
      <trkpt lat="47.24493" lon="-2.1584">
        <ele>7.1</ele>
        <time>2020-06-05T13:33:44Z</time>
      </trkpt>
      <trkpt lat="47.24488" lon="-2.15837">
        <ele>7</ele>
        <time>2020-06-05T13:33:45Z</time>
      </trkpt>
      <trkpt lat="47.24483" lon="-2.15832">
        <ele>7.2</ele>
        <time>2020-06-05T13:33:46Z</time>
      </trkpt>
      <trkpt lat="47.24479" lon="-2.15825">
        <ele>7.3</ele>
        <time>2020-06-05T13:33:47Z</time>
      </trkpt>
      <trkpt lat="47.24476" lon="-2.15818">
        <ele>7.4</ele>
        <time>2020-06-05T13:33:48Z</time>
      </trkpt>
      <trkpt lat="47.24474" lon="-2.15811">
        <ele>7.5</ele>
        <time>2020-06-05T13:33:49Z</time>
      </trkpt>
      <trkpt lat="47.24473" lon="-2.15804">
        <ele>7.7</ele>
        <time>2020-06-05T13:33:50Z</time>
      </trkpt>
      <trkpt lat="47.24473" lon="-2.15796">
        <ele>7.8</ele>
        <time>2020-06-05T13:33:51Z</time>
      </trkpt>
      <trkpt lat="47.24473" lon="-2.15788">
        <ele>7.9</ele>
        <time>2020-06-05T13:33:52Z</time>
      </trkpt>
      <trkpt lat="47.24474" lon="-2.15781">
        <ele>8.1</ele>
        <time>2020-06-05T13:33:53Z</time>
      </trkpt>
      <trkpt lat="47.24475" lon="-2.15777">
        <ele>8.2</ele>
        <time>2020-06-05T13:33:54Z</time>
      </trkpt>
      <trkpt lat="47.24476" lon="-2.15771">
        <ele>8.3</ele>
        <time>2020-06-05T13:33:55Z</time>
      </trkpt>
      <trkpt lat="47.24479" lon="-2.15766">
        <ele>8.4</ele>
        <time>2020-06-05T13:33:56Z</time>
      </trkpt>
      <trkpt lat="47.24482" lon="-2.1576">
        <ele>8.4</ele>
        <time>2020-06-05T13:33:57Z</time>
      </trkpt>
      <trkpt lat="47.24484" lon="-2.15756">
        <ele>8.5</ele>
        <time>2020-06-05T13:33:58Z</time>
      </trkpt>
      <trkpt lat="47.24488" lon="-2.15754">
        <ele>8.5</ele>
        <time>2020-06-05T13:33:59Z</time>
      </trkpt>
      <trkpt lat="47.24492" lon="-2.15752">
        <ele>8.5</ele>
        <time>2020-06-05T13:34:00Z</time>
      </trkpt>
      <trkpt lat="47.24496" lon="-2.15751">
        <ele>8.5</ele>
        <time>2020-06-05T13:34:01Z</time>
      </trkpt>
      <trkpt lat="47.24501" lon="-2.1575">
        <ele>8.5</ele>
        <time>2020-06-05T13:34:02Z</time>
      </trkpt>
      <trkpt lat="47.24505" lon="-2.1575">
        <ele>8.5</ele>
        <time>2020-06-05T13:34:03Z</time>
      </trkpt>
      <trkpt lat="47.2451" lon="-2.1575">
        <ele>8.6</ele>
        <time>2020-06-05T13:34:04Z</time>
      </trkpt>
      <trkpt lat="47.24514" lon="-2.1575">
        <ele>8.6</ele>
        <time>2020-06-05T13:34:05Z</time>
      </trkpt>
      <trkpt lat="47.24518" lon="-2.15751">
        <ele>8.6</ele>
        <time>2020-06-05T13:34:06Z</time>
      </trkpt>
      <trkpt lat="47.24523" lon="-2.15753">
        <ele>8.7</ele>
        <time>2020-06-05T13:34:07Z</time>
      </trkpt>
      <trkpt lat="47.24527" lon="-2.15754">
        <ele>8.7</ele>
        <time>2020-06-05T13:34:08Z</time>
      </trkpt>
      <trkpt lat="47.24531" lon="-2.15755">
        <ele>8.7</ele>
        <time>2020-06-05T13:34:09Z</time>
      </trkpt>
      <trkpt lat="47.24535" lon="-2.15756">
        <ele>8.7</ele>
        <time>2020-06-05T13:34:10Z</time>
      </trkpt>
      <trkpt lat="47.24539" lon="-2.15755">
        <ele>8.7</ele>
        <time>2020-06-05T13:34:11Z</time>
      </trkpt>
      <trkpt lat="47.24542" lon="-2.15753">
        <ele>8.7</ele>
        <time>2020-06-05T13:34:12Z</time>
      </trkpt>
      <trkpt lat="47.24545" lon="-2.15751">
        <ele>8.7</ele>
        <time>2020-06-05T13:34:13Z</time>
      </trkpt>
      <trkpt lat="47.24548" lon="-2.15748">
        <ele>8.7</ele>
        <time>2020-06-05T13:34:14Z</time>
      </trkpt>
      <trkpt lat="47.24551" lon="-2.15745">
        <ele>8.7</ele>
        <time>2020-06-05T13:34:15Z</time>
      </trkpt>
      <trkpt lat="47.24555" lon="-2.15741">
        <ele>8.7</ele>
        <time>2020-06-05T13:34:16Z</time>
      </trkpt>
      <trkpt lat="47.24558" lon="-2.15739">
        <ele>8.7</ele>
        <time>2020-06-05T13:34:17Z</time>
      </trkpt>
      <trkpt lat="47.24562" lon="-2.15739">
        <ele>8.7</ele>
        <time>2020-06-05T13:34:18Z</time>
      </trkpt>
      <trkpt lat="47.24563" lon="-2.1574">
        <ele>8.7</ele>
        <time>2020-06-05T13:34:19Z</time>
      </trkpt>
      <trkpt lat="47.24564" lon="-2.15745">
        <ele>8.8</ele>
        <time>2020-06-05T13:34:20Z</time>
      </trkpt>
      <trkpt lat="47.24564" lon="-2.15747">
        <ele>8.8</ele>
        <time>2020-06-05T13:34:21Z</time>
      </trkpt>
      <trkpt lat="47.24561" lon="-2.15751">
        <ele>8.8</ele>
        <time>2020-06-05T13:34:22Z</time>
      </trkpt>
      <trkpt lat="47.24558" lon="-2.15756">
        <ele>8.8</ele>
        <time>2020-06-05T13:34:23Z</time>
      </trkpt>
      <trkpt lat="47.24556" lon="-2.15761">
        <ele>8.8</ele>
        <time>2020-06-05T13:34:24Z</time>
      </trkpt>
      <trkpt lat="47.24554" lon="-2.15765">
        <ele>8.8</ele>
        <time>2020-06-05T13:34:25Z</time>
      </trkpt>
      <trkpt lat="47.24553" lon="-2.15769">
        <ele>8.8</ele>
        <time>2020-06-05T13:34:26Z</time>
      </trkpt>
      <trkpt lat="47.24552" lon="-2.15771">
        <ele>8.8</ele>
        <time>2020-06-05T13:34:27Z</time>
      </trkpt>
      <trkpt lat="47.24552" lon="-2.15774">
        <ele>8.8</ele>
        <time>2020-06-05T13:34:28Z</time>
      </trkpt>
      <trkpt lat="47.24552" lon="-2.15775">
        <ele>8.8</ele>
        <time>2020-06-05T13:34:29Z</time>
      </trkpt>
      <trkpt lat="47.24552" lon="-2.15777">
        <ele>8.8</ele>
        <time>2020-06-05T13:34:30Z</time>
      </trkpt>
      <trkpt lat="47.24552" lon="-2.15778">
        <ele>8.8</ele>
        <time>2020-06-05T13:34:31Z</time>
      </trkpt>
      <trkpt lat="47.24553" lon="-2.15779">
        <ele>8.8</ele>
        <time>2020-06-05T13:34:32Z</time>
      </trkpt>
      <trkpt lat="47.24553" lon="-2.1578">
        <ele>8.8</ele>
        <time>2020-06-05T13:34:33Z</time>
      </trkpt>
      <trkpt lat="47.24553" lon="-2.15781">
        <ele>8.8</ele>
        <time>2020-06-05T13:34:34Z</time>
      </trkpt>
      <trkpt lat="47.24553" lon="-2.1578">
        <ele>8.8</ele>
        <time>2020-06-05T13:34:35Z</time>
      </trkpt>
      <trkpt lat="47.24553" lon="-2.1578">
        <ele>8.8</ele>
        <time>2020-06-05T13:34:36Z</time>
      </trkpt>
      <trkpt lat="47.24553" lon="-2.15781">
        <ele>8.8</ele>
        <time>2020-06-05T13:34:37Z</time>
      </trkpt>
      <trkpt lat="47.24553" lon="-2.15781">
        <ele>8.8</ele>
        <time>2020-06-05T13:34:38Z</time>
      </trkpt>
      <trkpt lat="47.24553" lon="-2.15781">
        <ele>8.8</ele>
        <time>2020-06-05T13:34:39Z</time>
      </trkpt>
      <trkpt lat="47.24553" lon="-2.15781">
        <ele>8.8</ele>
        <time>2020-06-05T13:34:40Z</time>
      </trkpt>
      <trkpt lat="47.24553" lon="-2.15781">
        <ele>8.8</ele>
        <time>2020-06-05T13:34:41Z</time>
      </trkpt>
      <trkpt lat="47.24553" lon="-2.15781">
        <ele>8.9</ele>
        <time>2020-06-05T13:34:42Z</time>
      </trkpt>
      <trkpt lat="47.24553" lon="-2.15781">
        <ele>8.9</ele>
        <time>2020-06-05T13:34:43Z</time>
      </trkpt>
      <trkpt lat="47.24553" lon="-2.15781">
        <ele>8.9</ele>
        <time>2020-06-05T13:34:44Z</time>
      </trkpt>
      <trkpt lat="47.24546" lon="-2.15775">
        <ele>8.9</ele>
        <time>2020-06-05T13:39:57Z</time>
      </trkpt>
      <trkpt lat="47.24545" lon="-2.15775">
        <ele>8.9</ele>
        <time>2020-06-05T13:39:58Z</time>
      </trkpt>
      <trkpt lat="47.24544" lon="-2.15775">
        <ele>8.9</ele>
        <time>2020-06-05T13:39:59Z</time>
      </trkpt>
      <trkpt lat="47.24544" lon="-2.15774">
        <ele>8.9</ele>
        <time>2020-06-05T13:40:00Z</time>
      </trkpt>
      <trkpt lat="47.24543" lon="-2.15775">
        <ele>8.9</ele>
        <time>2020-06-05T13:40:01Z</time>
      </trkpt>
      <trkpt lat="47.24543" lon="-2.15777">
        <ele>8.9</ele>
        <time>2020-06-05T13:40:02Z</time>
      </trkpt>
      <trkpt lat="47.24542" lon="-2.15778">
        <ele>8.9</ele>
        <time>2020-06-05T13:40:03Z</time>
      </trkpt>
      <trkpt lat="47.24542" lon="-2.15779">
        <ele>8.9</ele>
        <time>2020-06-05T13:40:04Z</time>
      </trkpt>
      <trkpt lat="47.24541" lon="-2.15784">
        <ele>9.2</ele>
        <time>2020-06-05T13:40:05Z</time>
      </trkpt>
      <trkpt lat="47.2454" lon="-2.15785">
        <ele>9.2</ele>
        <time>2020-06-05T13:40:06Z</time>
      </trkpt>
      <trkpt lat="47.24539" lon="-2.1579">
        <ele>9.2</ele>
        <time>2020-06-05T13:40:07Z</time>
      </trkpt>
      <trkpt lat="47.24539" lon="-2.15792">
        <ele>9.2</ele>
        <time>2020-06-05T13:40:08Z</time>
      </trkpt>
      <trkpt lat="47.24539" lon="-2.15798">
        <ele>9.2</ele>
        <time>2020-06-05T13:40:09Z</time>
      </trkpt>
      <trkpt lat="47.24539" lon="-2.15803">
        <ele>8.8</ele>
        <time>2020-06-05T13:40:10Z</time>
      </trkpt>
      <trkpt lat="47.24538" lon="-2.15809">
        <ele>8.7</ele>
        <time>2020-06-05T13:40:11Z</time>
      </trkpt>
      <trkpt lat="47.24537" lon="-2.15814">
        <ele>8.6</ele>
        <time>2020-06-05T13:40:12Z</time>
      </trkpt>
      <trkpt lat="47.24535" lon="-2.15819">
        <ele>8.5</ele>
        <time>2020-06-05T13:40:13Z</time>
      </trkpt>
      <trkpt lat="47.24533" lon="-2.15823">
        <ele>8.4</ele>
        <time>2020-06-05T13:40:14Z</time>
      </trkpt>
      <trkpt lat="47.24531" lon="-2.15828">
        <ele>8.4</ele>
        <time>2020-06-05T13:40:15Z</time>
      </trkpt>
      <trkpt lat="47.24528" lon="-2.15833">
        <ele>8.3</ele>
        <time>2020-06-05T13:40:16Z</time>
      </trkpt>
      <trkpt lat="47.24524" lon="-2.15837">
        <ele>8.2</ele>
        <time>2020-06-05T13:40:17Z</time>
      </trkpt>
      <trkpt lat="47.24521" lon="-2.15841">
        <ele>8.2</ele>
        <time>2020-06-05T13:40:18Z</time>
      </trkpt>
      <trkpt lat="47.24517" lon="-2.15845">
        <ele>7.9</ele>
        <time>2020-06-05T13:40:19Z</time>
      </trkpt>
      <trkpt lat="47.24512" lon="-2.15849">
        <ele>7.7</ele>
        <time>2020-06-05T13:40:20Z</time>
      </trkpt>
      <trkpt lat="47.24508" lon="-2.15855">
        <ele>7.4</ele>
        <time>2020-06-05T13:40:21Z</time>
      </trkpt>
      <trkpt lat="47.24506" lon="-2.15864">
        <ele>7.1</ele>
        <time>2020-06-05T13:40:22Z</time>
      </trkpt>
      <trkpt lat="47.24505" lon="-2.15873">
        <ele>6.9</ele>
        <time>2020-06-05T13:40:23Z</time>
      </trkpt>
      <trkpt lat="47.24504" lon="-2.15883">
        <ele>6.6</ele>
        <time>2020-06-05T13:40:24Z</time>
      </trkpt>
      <trkpt lat="47.24503" lon="-2.15894">
        <ele>6.3</ele>
        <time>2020-06-05T13:40:25Z</time>
      </trkpt>
      <trkpt lat="47.24503" lon="-2.15905">
        <ele>6</ele>
        <time>2020-06-05T13:40:26Z</time>
      </trkpt>
      <trkpt lat="47.24503" lon="-2.15914">
        <ele>5.9</ele>
        <time>2020-06-05T13:40:27Z</time>
      </trkpt>
      <trkpt lat="47.24503" lon="-2.15923">
        <ele>5.8</ele>
        <time>2020-06-05T13:40:28Z</time>
      </trkpt>
      <trkpt lat="47.24504" lon="-2.15932">
        <ele>5.6</ele>
        <time>2020-06-05T13:40:29Z</time>
      </trkpt>
      <trkpt lat="47.24505" lon="-2.15942">
        <ele>5.5</ele>
        <time>2020-06-05T13:40:30Z</time>
      </trkpt>
      <trkpt lat="47.24505" lon="-2.15951">
        <ele>5.3</ele>
        <time>2020-06-05T13:40:31Z</time>
      </trkpt>
      <trkpt lat="47.24505" lon="-2.1596">
        <ele>5.3</ele>
        <time>2020-06-05T13:40:32Z</time>
      </trkpt>
      <trkpt lat="47.24505" lon="-2.15969">
        <ele>5.2</ele>
        <time>2020-06-05T13:40:33Z</time>
      </trkpt>
      <trkpt lat="47.24505" lon="-2.15978">
        <ele>5.1</ele>
        <time>2020-06-05T13:40:34Z</time>
      </trkpt>
      <trkpt lat="47.24506" lon="-2.15985">
        <ele>5.1</ele>
        <time>2020-06-05T13:40:35Z</time>
      </trkpt>
      <trkpt lat="47.24508" lon="-2.15993">
        <ele>5</ele>
        <time>2020-06-05T13:40:36Z</time>
      </trkpt>
      <trkpt lat="47.24509" lon="-2.16">
        <ele>5</ele>
        <time>2020-06-05T13:40:37Z</time>
      </trkpt>
      <trkpt lat="47.24511" lon="-2.16007">
        <ele>5</ele>
        <time>2020-06-05T13:40:38Z</time>
      </trkpt>
      <trkpt lat="47.24514" lon="-2.16014">
        <ele>5</ele>
        <time>2020-06-05T13:40:39Z</time>
      </trkpt>
      <trkpt lat="47.24515" lon="-2.16021">
        <ele>5</ele>
        <time>2020-06-05T13:40:40Z</time>
      </trkpt>
      <trkpt lat="47.24517" lon="-2.16029">
        <ele>5</ele>
        <time>2020-06-05T13:40:41Z</time>
      </trkpt>
      <trkpt lat="47.24518" lon="-2.16037">
        <ele>5</ele>
        <time>2020-06-05T13:40:42Z</time>
      </trkpt>
      <trkpt lat="47.24518" lon="-2.16049">
        <ele>5</ele>
        <time>2020-06-05T13:40:43Z</time>
      </trkpt>
      <trkpt lat="47.24518" lon="-2.16059">
        <ele>5.1</ele>
        <time>2020-06-05T13:40:44Z</time>
      </trkpt>
      <trkpt lat="47.24519" lon="-2.16068">
        <ele>5.1</ele>
        <time>2020-06-05T13:40:45Z</time>
      </trkpt>
      <trkpt lat="47.2452" lon="-2.16076">
        <ele>5.2</ele>
        <time>2020-06-05T13:40:46Z</time>
      </trkpt>
      <trkpt lat="47.24521" lon="-2.16085">
        <ele>5.3</ele>
        <time>2020-06-05T13:40:47Z</time>
      </trkpt>
      <trkpt lat="47.24522" lon="-2.16094">
        <ele>5.4</ele>
        <time>2020-06-05T13:40:48Z</time>
      </trkpt>
      <trkpt lat="47.24523" lon="-2.16102">
        <ele>5.5</ele>
        <time>2020-06-05T13:40:49Z</time>
      </trkpt>
      <trkpt lat="47.24525" lon="-2.1611">
        <ele>5.6</ele>
        <time>2020-06-05T13:40:50Z</time>
      </trkpt>
      <trkpt lat="47.24526" lon="-2.16118">
        <ele>5.7</ele>
        <time>2020-06-05T13:40:51Z</time>
      </trkpt>
      <trkpt lat="47.24527" lon="-2.16127">
        <ele>5.8</ele>
        <time>2020-06-05T13:40:52Z</time>
      </trkpt>
      <trkpt lat="47.24528" lon="-2.16135">
        <ele>5.9</ele>
        <time>2020-06-05T13:40:53Z</time>
      </trkpt>
      <trkpt lat="47.2453" lon="-2.16142">
        <ele>6</ele>
        <time>2020-06-05T13:40:54Z</time>
      </trkpt>
      <trkpt lat="47.24531" lon="-2.1615">
        <ele>6.1</ele>
        <time>2020-06-05T13:40:55Z</time>
      </trkpt>
      <trkpt lat="47.24532" lon="-2.16158">
        <ele>6.2</ele>
        <time>2020-06-05T13:40:56Z</time>
      </trkpt>
      <trkpt lat="47.24533" lon="-2.16166">
        <ele>6.4</ele>
        <time>2020-06-05T13:40:57Z</time>
      </trkpt>
      <trkpt lat="47.24533" lon="-2.16174">
        <ele>6.6</ele>
        <time>2020-06-05T13:40:58Z</time>
      </trkpt>
      <trkpt lat="47.24533" lon="-2.16181">
        <ele>6.8</ele>
        <time>2020-06-05T13:40:59Z</time>
      </trkpt>
      <trkpt lat="47.24532" lon="-2.16187">
        <ele>6.9</ele>
        <time>2020-06-05T13:41:00Z</time>
      </trkpt>
      <trkpt lat="47.2453" lon="-2.16194">
        <ele>7.1</ele>
        <time>2020-06-05T13:41:01Z</time>
      </trkpt>
      <trkpt lat="47.24527" lon="-2.16199">
        <ele>7.2</ele>
        <time>2020-06-05T13:41:02Z</time>
      </trkpt>
      <trkpt lat="47.24525" lon="-2.16205">
        <ele>7.4</ele>
        <time>2020-06-05T13:41:03Z</time>
      </trkpt>
      <trkpt lat="47.24523" lon="-2.1621">
        <ele>7.6</ele>
        <time>2020-06-05T13:41:04Z</time>
      </trkpt>
      <trkpt lat="47.24521" lon="-2.16216">
        <ele>7.7</ele>
        <time>2020-06-05T13:41:05Z</time>
      </trkpt>
      <trkpt lat="47.24519" lon="-2.1622">
        <ele>7.9</ele>
        <time>2020-06-05T13:41:06Z</time>
      </trkpt>
      <trkpt lat="47.24518" lon="-2.16225">
        <ele>8.1</ele>
        <time>2020-06-05T13:41:07Z</time>
      </trkpt>
      <trkpt lat="47.24516" lon="-2.1623">
        <ele>8.3</ele>
        <time>2020-06-05T13:41:08Z</time>
      </trkpt>
      <trkpt lat="47.24516" lon="-2.16235">
        <ele>8.6</ele>
        <time>2020-06-05T13:41:09Z</time>
      </trkpt>
      <trkpt lat="47.24516" lon="-2.1624">
        <ele>8.7</ele>
        <time>2020-06-05T13:41:10Z</time>
      </trkpt>
      <trkpt lat="47.24515" lon="-2.16246">
        <ele>8.9</ele>
        <time>2020-06-05T13:41:11Z</time>
      </trkpt>
      <trkpt lat="47.24516" lon="-2.16251">
        <ele>9</ele>
        <time>2020-06-05T13:41:12Z</time>
      </trkpt>
      <trkpt lat="47.24517" lon="-2.16257">
        <ele>9</ele>
        <time>2020-06-05T13:41:13Z</time>
      </trkpt>
      <trkpt lat="47.24518" lon="-2.16262">
        <ele>9.1</ele>
        <time>2020-06-05T13:41:14Z</time>
      </trkpt>
      <trkpt lat="47.24521" lon="-2.16265">
        <ele>9.1</ele>
        <time>2020-06-05T13:41:15Z</time>
      </trkpt>
      <trkpt lat="47.24525" lon="-2.16267">
        <ele>9.2</ele>
        <time>2020-06-05T13:41:16Z</time>
      </trkpt>
      <trkpt lat="47.24529" lon="-2.16268">
        <ele>9.2</ele>
        <time>2020-06-05T13:41:17Z</time>
      </trkpt>
      <trkpt lat="47.24534" lon="-2.16267">
        <ele>9.3</ele>
        <time>2020-06-05T13:41:18Z</time>
      </trkpt>
      <trkpt lat="47.2454" lon="-2.16267">
        <ele>9.3</ele>
        <time>2020-06-05T13:41:19Z</time>
      </trkpt>
      <trkpt lat="47.24545" lon="-2.16267">
        <ele>9.3</ele>
        <time>2020-06-05T13:41:20Z</time>
      </trkpt>
      <trkpt lat="47.2455" lon="-2.16266">
        <ele>9.4</ele>
        <time>2020-06-05T13:41:21Z</time>
      </trkpt>
      <trkpt lat="47.24555" lon="-2.16266">
        <ele>9.4</ele>
        <time>2020-06-05T13:41:22Z</time>
      </trkpt>
      <trkpt lat="47.2456" lon="-2.16265">
        <ele>9.4</ele>
        <time>2020-06-05T13:41:23Z</time>
      </trkpt>
      <trkpt lat="47.24565" lon="-2.16264">
        <ele>9.5</ele>
        <time>2020-06-05T13:41:24Z</time>
      </trkpt>
      <trkpt lat="47.24571" lon="-2.16266">
        <ele>9.6</ele>
        <time>2020-06-05T13:41:25Z</time>
      </trkpt>
      <trkpt lat="47.24575" lon="-2.16267">
        <ele>9.7</ele>
        <time>2020-06-05T13:41:26Z</time>
      </trkpt>
      <trkpt lat="47.2458" lon="-2.16267">
        <ele>9.7</ele>
        <time>2020-06-05T13:41:27Z</time>
      </trkpt>
      <trkpt lat="47.24585" lon="-2.16267">
        <ele>9.7</ele>
        <time>2020-06-05T13:41:28Z</time>
      </trkpt>
      <trkpt lat="47.2459" lon="-2.16268">
        <ele>9.7</ele>
        <time>2020-06-05T13:41:29Z</time>
      </trkpt>
      <trkpt lat="47.24595" lon="-2.16268">
        <ele>9.8</ele>
        <time>2020-06-05T13:41:30Z</time>
      </trkpt>
      <trkpt lat="47.24601" lon="-2.16267">
        <ele>9.8</ele>
        <time>2020-06-05T13:41:31Z</time>
      </trkpt>
      <trkpt lat="47.24607" lon="-2.16267">
        <ele>9.8</ele>
        <time>2020-06-05T13:41:32Z</time>
      </trkpt>
      <trkpt lat="47.24613" lon="-2.16267">
        <ele>9.7</ele>
        <time>2020-06-05T13:41:33Z</time>
      </trkpt>
      <trkpt lat="47.24619" lon="-2.16267">
        <ele>9.7</ele>
        <time>2020-06-05T13:41:34Z</time>
      </trkpt>
      <trkpt lat="47.24624" lon="-2.16266">
        <ele>9.7</ele>
        <time>2020-06-05T13:41:35Z</time>
      </trkpt>
      <trkpt lat="47.2463" lon="-2.16265">
        <ele>9.7</ele>
        <time>2020-06-05T13:41:36Z</time>
      </trkpt>
      <trkpt lat="47.24636" lon="-2.16265">
        <ele>9.7</ele>
        <time>2020-06-05T13:41:37Z</time>
      </trkpt>
      <trkpt lat="47.24641" lon="-2.16263">
        <ele>9.7</ele>
        <time>2020-06-05T13:41:38Z</time>
      </trkpt>
      <trkpt lat="47.24647" lon="-2.16262">
        <ele>9.7</ele>
        <time>2020-06-05T13:41:39Z</time>
      </trkpt>
      <trkpt lat="47.24652" lon="-2.16264">
        <ele>9.7</ele>
        <time>2020-06-05T13:41:40Z</time>
      </trkpt>
      <trkpt lat="47.24657" lon="-2.16265">
        <ele>9.7</ele>
        <time>2020-06-05T13:41:41Z</time>
      </trkpt>
      <trkpt lat="47.24661" lon="-2.16266">
        <ele>9.7</ele>
        <time>2020-06-05T13:41:42Z</time>
      </trkpt>
      <trkpt lat="47.24665" lon="-2.16269">
        <ele>9.7</ele>
        <time>2020-06-05T13:41:43Z</time>
      </trkpt>
      <trkpt lat="47.24669" lon="-2.16274">
        <ele>9.8</ele>
        <time>2020-06-05T13:41:44Z</time>
      </trkpt>
      <trkpt lat="47.24672" lon="-2.16281">
        <ele>9.8</ele>
        <time>2020-06-05T13:41:45Z</time>
      </trkpt>
      <trkpt lat="47.24675" lon="-2.16286">
        <ele>9.8</ele>
        <time>2020-06-05T13:41:46Z</time>
      </trkpt>
      <trkpt lat="47.24677" lon="-2.16293">
        <ele>9.8</ele>
        <time>2020-06-05T13:41:47Z</time>
      </trkpt>
      <trkpt lat="47.2468" lon="-2.16299">
        <ele>9.8</ele>
        <time>2020-06-05T13:41:48Z</time>
      </trkpt>
      <trkpt lat="47.24683" lon="-2.16305">
        <ele>9.8</ele>
        <time>2020-06-05T13:41:49Z</time>
      </trkpt>
      <trkpt lat="47.24686" lon="-2.16312">
        <ele>9.8</ele>
        <time>2020-06-05T13:41:50Z</time>
      </trkpt>
      <trkpt lat="47.24688" lon="-2.16319">
        <ele>9.8</ele>
        <time>2020-06-05T13:41:51Z</time>
      </trkpt>
      <trkpt lat="47.2469" lon="-2.16325">
        <ele>9.8</ele>
        <time>2020-06-05T13:41:52Z</time>
      </trkpt>
      <trkpt lat="47.24692" lon="-2.1633">
        <ele>9.8</ele>
        <time>2020-06-05T13:41:53Z</time>
      </trkpt>
      <trkpt lat="47.24694" lon="-2.16336">
        <ele>9.7</ele>
        <time>2020-06-05T13:41:54Z</time>
      </trkpt>
      <trkpt lat="47.24696" lon="-2.16341">
        <ele>9.7</ele>
        <time>2020-06-05T13:41:55Z</time>
      </trkpt>
      <trkpt lat="47.24698" lon="-2.16347">
        <ele>9.7</ele>
        <time>2020-06-05T13:41:56Z</time>
      </trkpt>
      <trkpt lat="47.24701" lon="-2.16352">
        <ele>9.7</ele>
        <time>2020-06-05T13:41:57Z</time>
      </trkpt>
      <trkpt lat="47.24702" lon="-2.16358">
        <ele>9.7</ele>
        <time>2020-06-05T13:41:58Z</time>
      </trkpt>
      <trkpt lat="47.24705" lon="-2.16363">
        <ele>9.7</ele>
        <time>2020-06-05T13:41:59Z</time>
      </trkpt>
      <trkpt lat="47.24706" lon="-2.16368">
        <ele>9.6</ele>
        <time>2020-06-05T13:42:00Z</time>
      </trkpt>
      <trkpt lat="47.24708" lon="-2.16372">
        <ele>9.6</ele>
        <time>2020-06-05T13:42:01Z</time>
      </trkpt>
      <trkpt lat="47.24711" lon="-2.16376">
        <ele>9.5</ele>
        <time>2020-06-05T13:42:02Z</time>
      </trkpt>
      <trkpt lat="47.24716" lon="-2.16378">
        <ele>9.5</ele>
        <time>2020-06-05T13:42:03Z</time>
      </trkpt>
      <trkpt lat="47.2472" lon="-2.16379">
        <ele>9.4</ele>
        <time>2020-06-05T13:42:04Z</time>
      </trkpt>
      <trkpt lat="47.24725" lon="-2.16383">
        <ele>9.3</ele>
        <time>2020-06-05T13:42:05Z</time>
      </trkpt>
      <trkpt lat="47.2473" lon="-2.16385">
        <ele>9.1</ele>
        <time>2020-06-05T13:42:06Z</time>
      </trkpt>
      <trkpt lat="47.24735" lon="-2.16386">
        <ele>9</ele>
        <time>2020-06-05T13:42:07Z</time>
      </trkpt>
      <trkpt lat="47.24741" lon="-2.16385">
        <ele>8.9</ele>
        <time>2020-06-05T13:42:08Z</time>
      </trkpt>
      <trkpt lat="47.24746" lon="-2.16387">
        <ele>8.8</ele>
        <time>2020-06-05T13:42:09Z</time>
      </trkpt>
      <trkpt lat="47.24751" lon="-2.16389">
        <ele>8.7</ele>
        <time>2020-06-05T13:42:10Z</time>
      </trkpt>
      <trkpt lat="47.24756" lon="-2.1639">
        <ele>8.7</ele>
        <time>2020-06-05T13:42:11Z</time>
      </trkpt>
      <trkpt lat="47.24761" lon="-2.16391">
        <ele>8.6</ele>
        <time>2020-06-05T13:42:12Z</time>
      </trkpt>
      <trkpt lat="47.24766" lon="-2.16393">
        <ele>8.5</ele>
        <time>2020-06-05T13:42:13Z</time>
      </trkpt>
      <trkpt lat="47.2477" lon="-2.16395">
        <ele>8.4</ele>
        <time>2020-06-05T13:42:14Z</time>
      </trkpt>
      <trkpt lat="47.24774" lon="-2.16396">
        <ele>8.4</ele>
        <time>2020-06-05T13:42:15Z</time>
      </trkpt>
      <trkpt lat="47.24779" lon="-2.16396">
        <ele>8.3</ele>
        <time>2020-06-05T13:42:16Z</time>
      </trkpt>
      <trkpt lat="47.24784" lon="-2.16397">
        <ele>8.3</ele>
        <time>2020-06-05T13:42:17Z</time>
      </trkpt>
      <trkpt lat="47.24789" lon="-2.16398">
        <ele>8.3</ele>
        <time>2020-06-05T13:42:18Z</time>
      </trkpt>
      <trkpt lat="47.24793" lon="-2.16398">
        <ele>8.3</ele>
        <time>2020-06-05T13:42:19Z</time>
      </trkpt>
      <trkpt lat="47.24797" lon="-2.164">
        <ele>8.3</ele>
        <time>2020-06-05T13:42:20Z</time>
      </trkpt>
      <trkpt lat="47.24802" lon="-2.16401">
        <ele>8.2</ele>
        <time>2020-06-05T13:42:21Z</time>
      </trkpt>
      <trkpt lat="47.24806" lon="-2.16404">
        <ele>8.2</ele>
        <time>2020-06-05T13:42:22Z</time>
      </trkpt>
      <trkpt lat="47.24811" lon="-2.16407">
        <ele>8.2</ele>
        <time>2020-06-05T13:42:23Z</time>
      </trkpt>
      <trkpt lat="47.24816" lon="-2.16408">
        <ele>8.2</ele>
        <time>2020-06-05T13:42:24Z</time>
      </trkpt>
      <trkpt lat="47.24823" lon="-2.16409">
        <ele>8.2</ele>
        <time>2020-06-05T13:42:25Z</time>
      </trkpt>
      <trkpt lat="47.24829" lon="-2.16412">
        <ele>8.2</ele>
        <time>2020-06-05T13:42:26Z</time>
      </trkpt>
      <trkpt lat="47.24834" lon="-2.16414">
        <ele>8.2</ele>
        <time>2020-06-05T13:42:27Z</time>
      </trkpt>
      <trkpt lat="47.24839" lon="-2.16416">
        <ele>8.1</ele>
        <time>2020-06-05T13:42:28Z</time>
      </trkpt>
      <trkpt lat="47.24844" lon="-2.16419">
        <ele>8.1</ele>
        <time>2020-06-05T13:42:29Z</time>
      </trkpt>
      <trkpt lat="47.24849" lon="-2.16421">
        <ele>8.1</ele>
        <time>2020-06-05T13:42:30Z</time>
      </trkpt>
      <trkpt lat="47.24854" lon="-2.16423">
        <ele>8.1</ele>
        <time>2020-06-05T13:42:31Z</time>
      </trkpt>
      <trkpt lat="47.24858" lon="-2.16423">
        <ele>8</ele>
        <time>2020-06-05T13:42:32Z</time>
      </trkpt>
      <trkpt lat="47.24863" lon="-2.16424">
        <ele>8</ele>
        <time>2020-06-05T13:42:33Z</time>
      </trkpt>
      <trkpt lat="47.24867" lon="-2.16424">
        <ele>8</ele>
        <time>2020-06-05T13:42:34Z</time>
      </trkpt>
      <trkpt lat="47.2487" lon="-2.16425">
        <ele>8</ele>
        <time>2020-06-05T13:42:35Z</time>
      </trkpt>
      <trkpt lat="47.24875" lon="-2.16426">
        <ele>8</ele>
        <time>2020-06-05T13:42:36Z</time>
      </trkpt>
      <trkpt lat="47.2488" lon="-2.16426">
        <ele>7.9</ele>
        <time>2020-06-05T13:42:37Z</time>
      </trkpt>
      <trkpt lat="47.24885" lon="-2.16427">
        <ele>7.9</ele>
        <time>2020-06-05T13:42:38Z</time>
      </trkpt>
      <trkpt lat="47.24889" lon="-2.16427">
        <ele>7.8</ele>
        <time>2020-06-05T13:42:39Z</time>
      </trkpt>
      <trkpt lat="47.24893" lon="-2.16426">
        <ele>7.8</ele>
        <time>2020-06-05T13:42:40Z</time>
      </trkpt>
      <trkpt lat="47.24898" lon="-2.16425">
        <ele>7.7</ele>
        <time>2020-06-05T13:42:41Z</time>
      </trkpt>
      <trkpt lat="47.24902" lon="-2.16424">
        <ele>7.7</ele>
        <time>2020-06-05T13:42:42Z</time>
      </trkpt>
      <trkpt lat="47.24907" lon="-2.16424">
        <ele>7.7</ele>
        <time>2020-06-05T13:42:43Z</time>
      </trkpt>
      <trkpt lat="47.24912" lon="-2.16423">
        <ele>7.6</ele>
        <time>2020-06-05T13:42:44Z</time>
      </trkpt>
      <trkpt lat="47.24916" lon="-2.16421">
        <ele>7.6</ele>
        <time>2020-06-05T13:42:45Z</time>
      </trkpt>
      <trkpt lat="47.24921" lon="-2.16418">
        <ele>7.6</ele>
        <time>2020-06-05T13:42:46Z</time>
      </trkpt>
      <trkpt lat="47.24926" lon="-2.16417">
        <ele>7.6</ele>
        <time>2020-06-05T13:42:47Z</time>
      </trkpt>
      <trkpt lat="47.2493" lon="-2.16414">
        <ele>7.6</ele>
        <time>2020-06-05T13:42:48Z</time>
      </trkpt>
      <trkpt lat="47.24934" lon="-2.16411">
        <ele>7.7</ele>
        <time>2020-06-05T13:42:49Z</time>
      </trkpt>
      <trkpt lat="47.24938" lon="-2.16408">
        <ele>7.7</ele>
        <time>2020-06-05T13:42:50Z</time>
      </trkpt>
      <trkpt lat="47.24943" lon="-2.16406">
        <ele>7.7</ele>
        <time>2020-06-05T13:42:51Z</time>
      </trkpt>
      <trkpt lat="47.24947" lon="-2.16404">
        <ele>7.7</ele>
        <time>2020-06-05T13:42:52Z</time>
      </trkpt>
      <trkpt lat="47.2495" lon="-2.16403">
        <ele>7.7</ele>
        <time>2020-06-05T13:42:53Z</time>
      </trkpt>
      <trkpt lat="47.24954" lon="-2.16401">
        <ele>7.7</ele>
        <time>2020-06-05T13:42:54Z</time>
      </trkpt>
      <trkpt lat="47.24955" lon="-2.164">
        <ele>7.6</ele>
        <time>2020-06-05T13:42:55Z</time>
      </trkpt>
      <trkpt lat="47.24958" lon="-2.16398">
        <ele>7.6</ele>
        <time>2020-06-05T13:42:56Z</time>
      </trkpt>
      <trkpt lat="47.2496" lon="-2.16398">
        <ele>7.6</ele>
        <time>2020-06-05T13:42:57Z</time>
      </trkpt>
      <trkpt lat="47.24963" lon="-2.16397">
        <ele>7.6</ele>
        <time>2020-06-05T13:42:58Z</time>
      </trkpt>
      <trkpt lat="47.24967" lon="-2.16395">
        <ele>7.5</ele>
        <time>2020-06-05T13:42:59Z</time>
      </trkpt>
      <trkpt lat="47.24972" lon="-2.16394">
        <ele>7.5</ele>
        <time>2020-06-05T13:43:00Z</time>
      </trkpt>
      <trkpt lat="47.24976" lon="-2.16391">
        <ele>7.4</ele>
        <time>2020-06-05T13:43:01Z</time>
      </trkpt>
      <trkpt lat="47.24981" lon="-2.16388">
        <ele>7.3</ele>
        <time>2020-06-05T13:43:02Z</time>
      </trkpt>
      <trkpt lat="47.24985" lon="-2.16386">
        <ele>7.3</ele>
        <time>2020-06-05T13:43:03Z</time>
      </trkpt>
      <trkpt lat="47.2499" lon="-2.16383">
        <ele>7.2</ele>
        <time>2020-06-05T13:43:04Z</time>
      </trkpt>
      <trkpt lat="47.24996" lon="-2.16381">
        <ele>7.2</ele>
        <time>2020-06-05T13:43:05Z</time>
      </trkpt>
      <trkpt lat="47.25001" lon="-2.16379">
        <ele>7.2</ele>
        <time>2020-06-05T13:43:06Z</time>
      </trkpt>
      <trkpt lat="47.25005" lon="-2.16375">
        <ele>7.1</ele>
        <time>2020-06-05T13:43:07Z</time>
      </trkpt>
      <trkpt lat="47.2501" lon="-2.16372">
        <ele>7.1</ele>
        <time>2020-06-05T13:43:08Z</time>
      </trkpt>
      <trkpt lat="47.25015" lon="-2.16368">
        <ele>7.1</ele>
        <time>2020-06-05T13:43:09Z</time>
      </trkpt>
      <trkpt lat="47.25021" lon="-2.16365">
        <ele>7.1</ele>
        <time>2020-06-05T13:43:10Z</time>
      </trkpt>
      <trkpt lat="47.25026" lon="-2.16361">
        <ele>7.1</ele>
        <time>2020-06-05T13:43:11Z</time>
      </trkpt>
      <trkpt lat="47.25032" lon="-2.16358">
        <ele>7.1</ele>
        <time>2020-06-05T13:43:12Z</time>
      </trkpt>
      <trkpt lat="47.25037" lon="-2.16355">
        <ele>7.1</ele>
        <time>2020-06-05T13:43:13Z</time>
      </trkpt>
      <trkpt lat="47.25042" lon="-2.16352">
        <ele>7.1</ele>
        <time>2020-06-05T13:43:14Z</time>
      </trkpt>
      <trkpt lat="47.25048" lon="-2.16349">
        <ele>7.2</ele>
        <time>2020-06-05T13:43:15Z</time>
      </trkpt>
      <trkpt lat="47.25053" lon="-2.16346">
        <ele>7.2</ele>
        <time>2020-06-05T13:43:16Z</time>
      </trkpt>
      <trkpt lat="47.25058" lon="-2.16343">
        <ele>7.2</ele>
        <time>2020-06-05T13:43:17Z</time>
      </trkpt>
      <trkpt lat="47.25063" lon="-2.16339">
        <ele>7.2</ele>
        <time>2020-06-05T13:43:18Z</time>
      </trkpt>
      <trkpt lat="47.25067" lon="-2.16336">
        <ele>7.2</ele>
        <time>2020-06-05T13:43:19Z</time>
      </trkpt>
      <trkpt lat="47.25072" lon="-2.16332">
        <ele>7.2</ele>
        <time>2020-06-05T13:43:20Z</time>
      </trkpt>
      <trkpt lat="47.25077" lon="-2.1633">
        <ele>7.3</ele>
        <time>2020-06-05T13:43:21Z</time>
      </trkpt>
      <trkpt lat="47.25082" lon="-2.16329">
        <ele>7.3</ele>
        <time>2020-06-05T13:43:22Z</time>
      </trkpt>
      <trkpt lat="47.25086" lon="-2.16327">
        <ele>7.3</ele>
        <time>2020-06-05T13:43:23Z</time>
      </trkpt>
      <trkpt lat="47.25091" lon="-2.16325">
        <ele>7.3</ele>
        <time>2020-06-05T13:43:24Z</time>
      </trkpt>
      <trkpt lat="47.25096" lon="-2.16321">
        <ele>7.3</ele>
        <time>2020-06-05T13:43:25Z</time>
      </trkpt>
      <trkpt lat="47.251" lon="-2.16319">
        <ele>7.4</ele>
        <time>2020-06-05T13:43:26Z</time>
      </trkpt>
      <trkpt lat="47.25104" lon="-2.16316">
        <ele>7.4</ele>
        <time>2020-06-05T13:43:27Z</time>
      </trkpt>
      <trkpt lat="47.25109" lon="-2.16313">
        <ele>7.4</ele>
        <time>2020-06-05T13:43:28Z</time>
      </trkpt>
      <trkpt lat="47.25114" lon="-2.1631">
        <ele>7.4</ele>
        <time>2020-06-05T13:43:29Z</time>
      </trkpt>
      <trkpt lat="47.25118" lon="-2.16307">
        <ele>7.4</ele>
        <time>2020-06-05T13:43:30Z</time>
      </trkpt>
      <trkpt lat="47.25123" lon="-2.16303">
        <ele>7.4</ele>
        <time>2020-06-05T13:43:31Z</time>
      </trkpt>
      <trkpt lat="47.25128" lon="-2.16299">
        <ele>7.4</ele>
        <time>2020-06-05T13:43:32Z</time>
      </trkpt>
      <trkpt lat="47.25134" lon="-2.16296">
        <ele>7.4</ele>
        <time>2020-06-05T13:43:33Z</time>
      </trkpt>
      <trkpt lat="47.25139" lon="-2.16293">
        <ele>7.4</ele>
        <time>2020-06-05T13:43:34Z</time>
      </trkpt>
      <trkpt lat="47.25145" lon="-2.1629">
        <ele>7.4</ele>
        <time>2020-06-05T13:43:35Z</time>
      </trkpt>
      <trkpt lat="47.2515" lon="-2.16288">
        <ele>7.4</ele>
        <time>2020-06-05T13:43:36Z</time>
      </trkpt>
      <trkpt lat="47.25155" lon="-2.16285">
        <ele>7.4</ele>
        <time>2020-06-05T13:43:37Z</time>
      </trkpt>
      <trkpt lat="47.2516" lon="-2.16282">
        <ele>7.4</ele>
        <time>2020-06-05T13:43:38Z</time>
      </trkpt>
      <trkpt lat="47.25165" lon="-2.16279">
        <ele>7.4</ele>
        <time>2020-06-05T13:43:39Z</time>
      </trkpt>
      <trkpt lat="47.2517" lon="-2.16275">
        <ele>7.4</ele>
        <time>2020-06-05T13:43:40Z</time>
      </trkpt>
      <trkpt lat="47.25176" lon="-2.16272">
        <ele>7.3</ele>
        <time>2020-06-05T13:43:41Z</time>
      </trkpt>
      <trkpt lat="47.25181" lon="-2.16269">
        <ele>7.3</ele>
        <time>2020-06-05T13:43:42Z</time>
      </trkpt>
      <trkpt lat="47.25187" lon="-2.16266">
        <ele>7.2</ele>
        <time>2020-06-05T13:43:43Z</time>
      </trkpt>
      <trkpt lat="47.25193" lon="-2.16263">
        <ele>7.2</ele>
        <time>2020-06-05T13:43:44Z</time>
      </trkpt>
      <trkpt lat="47.25198" lon="-2.16259">
        <ele>7.2</ele>
        <time>2020-06-05T13:43:45Z</time>
      </trkpt>
      <trkpt lat="47.25204" lon="-2.16255">
        <ele>7.2</ele>
        <time>2020-06-05T13:43:46Z</time>
      </trkpt>
      <trkpt lat="47.2521" lon="-2.16253">
        <ele>7.1</ele>
        <time>2020-06-05T13:43:47Z</time>
      </trkpt>
      <trkpt lat="47.25215" lon="-2.16249">
        <ele>7.1</ele>
        <time>2020-06-05T13:43:48Z</time>
      </trkpt>
      <trkpt lat="47.2522" lon="-2.16245">
        <ele>7.1</ele>
        <time>2020-06-05T13:43:49Z</time>
      </trkpt>
      <trkpt lat="47.25225" lon="-2.16242">
        <ele>7.1</ele>
        <time>2020-06-05T13:43:50Z</time>
      </trkpt>
      <trkpt lat="47.2523" lon="-2.16239">
        <ele>7.1</ele>
        <time>2020-06-05T13:43:51Z</time>
      </trkpt>
      <trkpt lat="47.25234" lon="-2.16236">
        <ele>7.1</ele>
        <time>2020-06-05T13:43:52Z</time>
      </trkpt>
      <trkpt lat="47.25239" lon="-2.16233">
        <ele>7.1</ele>
        <time>2020-06-05T13:43:53Z</time>
      </trkpt>
      <trkpt lat="47.25243" lon="-2.16231">
        <ele>7.1</ele>
        <time>2020-06-05T13:43:54Z</time>
      </trkpt>
      <trkpt lat="47.25247" lon="-2.16229">
        <ele>7.1</ele>
        <time>2020-06-05T13:43:55Z</time>
      </trkpt>
      <trkpt lat="47.2525" lon="-2.16227">
        <ele>7.1</ele>
        <time>2020-06-05T13:43:56Z</time>
      </trkpt>
      <trkpt lat="47.25252" lon="-2.16229">
        <ele>7.1</ele>
        <time>2020-06-05T13:43:57Z</time>
      </trkpt>
      <trkpt lat="47.25256" lon="-2.16232">
        <ele>7.5</ele>
        <time>2020-06-05T13:43:58Z</time>
      </trkpt>
      <trkpt lat="47.25256" lon="-2.16233">
        <ele>7.6</ele>
        <time>2020-06-05T13:43:59Z</time>
      </trkpt>
      <trkpt lat="47.25257" lon="-2.16237">
        <ele>7.7</ele>
        <time>2020-06-05T13:44:00Z</time>
      </trkpt>
      <trkpt lat="47.25258" lon="-2.16241">
        <ele>7.9</ele>
        <time>2020-06-05T13:44:01Z</time>
      </trkpt>
      <trkpt lat="47.25259" lon="-2.16246">
        <ele>8.9</ele>
        <time>2020-06-05T13:44:02Z</time>
      </trkpt>
      <trkpt lat="47.25262" lon="-2.1625">
        <ele>8.9</ele>
        <time>2020-06-05T13:44:03Z</time>
      </trkpt>
      <trkpt lat="47.25264" lon="-2.16251">
        <ele>9</ele>
        <time>2020-06-05T13:44:04Z</time>
      </trkpt>
      <trkpt lat="47.25267" lon="-2.16254">
        <ele>9.1</ele>
        <time>2020-06-05T13:44:05Z</time>
      </trkpt>
      <trkpt lat="47.25272" lon="-2.16254">
        <ele>9.2</ele>
        <time>2020-06-05T13:44:06Z</time>
      </trkpt>
      <trkpt lat="47.25276" lon="-2.16255">
        <ele>9.3</ele>
        <time>2020-06-05T13:44:07Z</time>
      </trkpt>
      <trkpt lat="47.2528" lon="-2.16256">
        <ele>9.4</ele>
        <time>2020-06-05T13:44:08Z</time>
      </trkpt>
      <trkpt lat="47.25285" lon="-2.16257">
        <ele>9.4</ele>
        <time>2020-06-05T13:44:09Z</time>
      </trkpt>
      <trkpt lat="47.25289" lon="-2.16258">
        <ele>9.5</ele>
        <time>2020-06-05T13:44:10Z</time>
      </trkpt>
      <trkpt lat="47.25294" lon="-2.16259">
        <ele>9.6</ele>
        <time>2020-06-05T13:44:11Z</time>
      </trkpt>
      <trkpt lat="47.253" lon="-2.1626">
        <ele>9.8</ele>
        <time>2020-06-05T13:44:12Z</time>
      </trkpt>
      <trkpt lat="47.25305" lon="-2.16261">
        <ele>9.9</ele>
        <time>2020-06-05T13:44:13Z</time>
      </trkpt>
      <trkpt lat="47.2531" lon="-2.16261">
        <ele>10</ele>
        <time>2020-06-05T13:44:14Z</time>
      </trkpt>
      <trkpt lat="47.25315" lon="-2.16261">
        <ele>10.1</ele>
        <time>2020-06-05T13:44:15Z</time>
      </trkpt>
      <trkpt lat="47.2532" lon="-2.16261">
        <ele>10.1</ele>
        <time>2020-06-05T13:44:16Z</time>
      </trkpt>
      <trkpt lat="47.25325" lon="-2.16263">
        <ele>10.2</ele>
        <time>2020-06-05T13:44:17Z</time>
      </trkpt>
      <trkpt lat="47.25331" lon="-2.16264">
        <ele>10.3</ele>
        <time>2020-06-05T13:44:18Z</time>
      </trkpt>
      <trkpt lat="47.25337" lon="-2.16265">
        <ele>10.3</ele>
        <time>2020-06-05T13:44:19Z</time>
      </trkpt>
      <trkpt lat="47.25342" lon="-2.16266">
        <ele>10.3</ele>
        <time>2020-06-05T13:44:20Z</time>
      </trkpt>
      <trkpt lat="47.25348" lon="-2.16267">
        <ele>10.4</ele>
        <time>2020-06-05T13:44:21Z</time>
      </trkpt>
      <trkpt lat="47.25353" lon="-2.16268">
        <ele>10.4</ele>
        <time>2020-06-05T13:44:22Z</time>
      </trkpt>
      <trkpt lat="47.25358" lon="-2.1627">
        <ele>10.4</ele>
        <time>2020-06-05T13:44:23Z</time>
      </trkpt>
      <trkpt lat="47.25363" lon="-2.16271">
        <ele>10.4</ele>
        <time>2020-06-05T13:44:24Z</time>
      </trkpt>
      <trkpt lat="47.25368" lon="-2.16272">
        <ele>10.4</ele>
        <time>2020-06-05T13:44:25Z</time>
      </trkpt>
      <trkpt lat="47.25374" lon="-2.16273">
        <ele>10.4</ele>
        <time>2020-06-05T13:44:26Z</time>
      </trkpt>
      <trkpt lat="47.2538" lon="-2.16274">
        <ele>10.3</ele>
        <time>2020-06-05T13:44:27Z</time>
      </trkpt>
      <trkpt lat="47.25386" lon="-2.16275">
        <ele>10.3</ele>
        <time>2020-06-05T13:44:28Z</time>
      </trkpt>
      <trkpt lat="47.25392" lon="-2.16275">
        <ele>10.3</ele>
        <time>2020-06-05T13:44:29Z</time>
      </trkpt>
      <trkpt lat="47.25398" lon="-2.16275">
        <ele>10.3</ele>
        <time>2020-06-05T13:44:30Z</time>
      </trkpt>
      <trkpt lat="47.25404" lon="-2.16276">
        <ele>10.3</ele>
        <time>2020-06-05T13:44:31Z</time>
      </trkpt>
      <trkpt lat="47.2541" lon="-2.16277">
        <ele>10.3</ele>
        <time>2020-06-05T13:44:32Z</time>
      </trkpt>
      <trkpt lat="47.25415" lon="-2.16278">
        <ele>10.3</ele>
        <time>2020-06-05T13:44:33Z</time>
      </trkpt>
      <trkpt lat="47.25422" lon="-2.16278">
        <ele>10.4</ele>
        <time>2020-06-05T13:44:34Z</time>
      </trkpt>
      <trkpt lat="47.25427" lon="-2.1628">
        <ele>10.4</ele>
        <time>2020-06-05T13:44:35Z</time>
      </trkpt>
      <trkpt lat="47.25433" lon="-2.16282">
        <ele>10.4</ele>
        <time>2020-06-05T13:44:36Z</time>
      </trkpt>
      <trkpt lat="47.25438" lon="-2.16283">
        <ele>10.5</ele>
        <time>2020-06-05T13:44:37Z</time>
      </trkpt>
      <trkpt lat="47.25443" lon="-2.16284">
        <ele>10.5</ele>
        <time>2020-06-05T13:44:38Z</time>
      </trkpt>
      <trkpt lat="47.25446" lon="-2.16285">
        <ele>10.5</ele>
        <time>2020-06-05T13:44:39Z</time>
      </trkpt>
      <trkpt lat="47.25449" lon="-2.16285">
        <ele>10.6</ele>
        <time>2020-06-05T13:44:40Z</time>
      </trkpt>
      <trkpt lat="47.25454" lon="-2.16283">
        <ele>10.6</ele>
        <time>2020-06-05T13:44:41Z</time>
      </trkpt>
      <trkpt lat="47.25457" lon="-2.16284">
        <ele>10.6</ele>
        <time>2020-06-05T13:44:42Z</time>
      </trkpt>
      <trkpt lat="47.25461" lon="-2.16283">
        <ele>10.6</ele>
        <time>2020-06-05T13:44:43Z</time>
      </trkpt>
      <trkpt lat="47.25465" lon="-2.16284">
        <ele>10.6</ele>
        <time>2020-06-05T13:44:44Z</time>
      </trkpt>
      <trkpt lat="47.25468" lon="-2.16286">
        <ele>10.6</ele>
        <time>2020-06-05T13:44:45Z</time>
      </trkpt>
      <trkpt lat="47.25471" lon="-2.16286">
        <ele>10.6</ele>
        <time>2020-06-05T13:44:46Z</time>
      </trkpt>
      <trkpt lat="47.25475" lon="-2.16287">
        <ele>10.6</ele>
        <time>2020-06-05T13:44:47Z</time>
      </trkpt>
      <trkpt lat="47.2548" lon="-2.16287">
        <ele>10.7</ele>
        <time>2020-06-05T13:44:48Z</time>
      </trkpt>
      <trkpt lat="47.25484" lon="-2.16287">
        <ele>10.7</ele>
        <time>2020-06-05T13:44:49Z</time>
      </trkpt>
      <trkpt lat="47.25489" lon="-2.16288">
        <ele>10.7</ele>
        <time>2020-06-05T13:44:50Z</time>
      </trkpt>
      <trkpt lat="47.25493" lon="-2.1629">
        <ele>10.7</ele>
        <time>2020-06-05T13:44:51Z</time>
      </trkpt>
      <trkpt lat="47.25497" lon="-2.16292">
        <ele>10.8</ele>
        <time>2020-06-05T13:44:52Z</time>
      </trkpt>
      <trkpt lat="47.25501" lon="-2.16292">
        <ele>10.8</ele>
        <time>2020-06-05T13:44:53Z</time>
      </trkpt>
      <trkpt lat="47.25506" lon="-2.16293">
        <ele>10.8</ele>
        <time>2020-06-05T13:44:54Z</time>
      </trkpt>
      <trkpt lat="47.2551" lon="-2.16294">
        <ele>10.8</ele>
        <time>2020-06-05T13:44:55Z</time>
      </trkpt>
      <trkpt lat="47.25515" lon="-2.16294">
        <ele>10.8</ele>
        <time>2020-06-05T13:44:56Z</time>
      </trkpt>
      <trkpt lat="47.25519" lon="-2.16294">
        <ele>10.8</ele>
        <time>2020-06-05T13:44:57Z</time>
      </trkpt>
      <trkpt lat="47.25523" lon="-2.16295">
        <ele>10.8</ele>
        <time>2020-06-05T13:44:58Z</time>
      </trkpt>
      <trkpt lat="47.25527" lon="-2.16296">
        <ele>10.8</ele>
        <time>2020-06-05T13:44:59Z</time>
      </trkpt>
      <trkpt lat="47.25531" lon="-2.16297">
        <ele>10.7</ele>
        <time>2020-06-05T13:45:00Z</time>
      </trkpt>
      <trkpt lat="47.25535" lon="-2.16298">
        <ele>10.7</ele>
        <time>2020-06-05T13:45:01Z</time>
      </trkpt>
      <trkpt lat="47.2554" lon="-2.16298">
        <ele>10.6</ele>
        <time>2020-06-05T13:45:02Z</time>
      </trkpt>
      <trkpt lat="47.25545" lon="-2.16299">
        <ele>10.4</ele>
        <time>2020-06-05T13:45:03Z</time>
      </trkpt>
      <trkpt lat="47.2555" lon="-2.163">
        <ele>10.3</ele>
        <time>2020-06-05T13:45:04Z</time>
      </trkpt>
      <trkpt lat="47.25554" lon="-2.16301">
        <ele>10.1</ele>
        <time>2020-06-05T13:45:05Z</time>
      </trkpt>
      <trkpt lat="47.25558" lon="-2.16302">
        <ele>10</ele>
        <time>2020-06-05T13:45:06Z</time>
      </trkpt>
      <trkpt lat="47.25562" lon="-2.16302">
        <ele>9.8</ele>
        <time>2020-06-05T13:45:07Z</time>
      </trkpt>
      <trkpt lat="47.25566" lon="-2.16304">
        <ele>9.7</ele>
        <time>2020-06-05T13:45:08Z</time>
      </trkpt>
      <trkpt lat="47.25571" lon="-2.16306">
        <ele>9.5</ele>
        <time>2020-06-05T13:45:09Z</time>
      </trkpt>
      <trkpt lat="47.25577" lon="-2.16307">
        <ele>9.3</ele>
        <time>2020-06-05T13:45:10Z</time>
      </trkpt>
      <trkpt lat="47.25582" lon="-2.16308">
        <ele>9.2</ele>
        <time>2020-06-05T13:45:11Z</time>
      </trkpt>
      <trkpt lat="47.25587" lon="-2.16309">
        <ele>9</ele>
        <time>2020-06-05T13:45:12Z</time>
      </trkpt>
      <trkpt lat="47.25592" lon="-2.1631">
        <ele>8.8</ele>
        <time>2020-06-05T13:45:13Z</time>
      </trkpt>
      <trkpt lat="47.25597" lon="-2.16311">
        <ele>8.6</ele>
        <time>2020-06-05T13:45:14Z</time>
      </trkpt>
      <trkpt lat="47.25603" lon="-2.16311">
        <ele>8.3</ele>
        <time>2020-06-05T13:45:15Z</time>
      </trkpt>
      <trkpt lat="47.25607" lon="-2.16312">
        <ele>8.1</ele>
        <time>2020-06-05T13:45:16Z</time>
      </trkpt>
      <trkpt lat="47.25613" lon="-2.16313">
        <ele>7.9</ele>
        <time>2020-06-05T13:45:17Z</time>
      </trkpt>
      <trkpt lat="47.25618" lon="-2.16313">
        <ele>7.8</ele>
        <time>2020-06-05T13:45:18Z</time>
      </trkpt>
      <trkpt lat="47.25622" lon="-2.16313">
        <ele>7.6</ele>
        <time>2020-06-05T13:45:19Z</time>
      </trkpt>
      <trkpt lat="47.25627" lon="-2.16314">
        <ele>7.5</ele>
        <time>2020-06-05T13:45:20Z</time>
      </trkpt>
      <trkpt lat="47.25633" lon="-2.16315">
        <ele>7.3</ele>
        <time>2020-06-05T13:45:21Z</time>
      </trkpt>
      <trkpt lat="47.25637" lon="-2.16316">
        <ele>7.2</ele>
        <time>2020-06-05T13:45:22Z</time>
      </trkpt>
      <trkpt lat="47.25642" lon="-2.16316">
        <ele>7.1</ele>
        <time>2020-06-05T13:45:23Z</time>
      </trkpt>
      <trkpt lat="47.25646" lon="-2.16318">
        <ele>6.9</ele>
        <time>2020-06-05T13:45:24Z</time>
      </trkpt>
      <trkpt lat="47.25651" lon="-2.16318">
        <ele>6.8</ele>
        <time>2020-06-05T13:45:25Z</time>
      </trkpt>
      <trkpt lat="47.25654" lon="-2.16318">
        <ele>6.7</ele>
        <time>2020-06-05T13:45:26Z</time>
      </trkpt>
      <trkpt lat="47.25657" lon="-2.16319">
        <ele>6.7</ele>
        <time>2020-06-05T13:45:27Z</time>
      </trkpt>
      <trkpt lat="47.25661" lon="-2.16319">
        <ele>6.6</ele>
        <time>2020-06-05T13:45:28Z</time>
      </trkpt>
      <trkpt lat="47.25663" lon="-2.1632">
        <ele>6.6</ele>
        <time>2020-06-05T13:45:29Z</time>
      </trkpt>
      <trkpt lat="47.25666" lon="-2.1632">
        <ele>6.5</ele>
        <time>2020-06-05T13:45:30Z</time>
      </trkpt>
      <trkpt lat="47.2567" lon="-2.1632">
        <ele>6.5</ele>
        <time>2020-06-05T13:45:31Z</time>
      </trkpt>
      <trkpt lat="47.25674" lon="-2.16321">
        <ele>6.5</ele>
        <time>2020-06-05T13:45:32Z</time>
      </trkpt>
      <trkpt lat="47.25678" lon="-2.16322">
        <ele>6.5</ele>
        <time>2020-06-05T13:45:33Z</time>
      </trkpt>
      <trkpt lat="47.25682" lon="-2.16322">
        <ele>6.5</ele>
        <time>2020-06-05T13:45:34Z</time>
      </trkpt>
      <trkpt lat="47.25686" lon="-2.16323">
        <ele>6.5</ele>
        <time>2020-06-05T13:45:35Z</time>
      </trkpt>
      <trkpt lat="47.25691" lon="-2.16324">
        <ele>6.5</ele>
        <time>2020-06-05T13:45:36Z</time>
      </trkpt>
      <trkpt lat="47.25696" lon="-2.16324">
        <ele>6.5</ele>
        <time>2020-06-05T13:45:37Z</time>
      </trkpt>
      <trkpt lat="47.25701" lon="-2.16325">
        <ele>6.5</ele>
        <time>2020-06-05T13:45:38Z</time>
      </trkpt>
      <trkpt lat="47.25708" lon="-2.16326">
        <ele>6.5</ele>
        <time>2020-06-05T13:45:39Z</time>
      </trkpt>
      <trkpt lat="47.25714" lon="-2.16326">
        <ele>6.5</ele>
        <time>2020-06-05T13:45:40Z</time>
      </trkpt>
      <trkpt lat="47.25719" lon="-2.16326">
        <ele>6.5</ele>
        <time>2020-06-05T13:45:41Z</time>
      </trkpt>
      <trkpt lat="47.25725" lon="-2.16327">
        <ele>6.6</ele>
        <time>2020-06-05T13:45:42Z</time>
      </trkpt>
      <trkpt lat="47.25731" lon="-2.16329">
        <ele>6.7</ele>
        <time>2020-06-05T13:45:43Z</time>
      </trkpt>
      <trkpt lat="47.25737" lon="-2.1633">
        <ele>6.7</ele>
        <time>2020-06-05T13:45:44Z</time>
      </trkpt>
      <trkpt lat="47.25742" lon="-2.16333">
        <ele>6.8</ele>
        <time>2020-06-05T13:45:45Z</time>
      </trkpt>
      <trkpt lat="47.25748" lon="-2.16334">
        <ele>6.8</ele>
        <time>2020-06-05T13:45:46Z</time>
      </trkpt>
      <trkpt lat="47.25753" lon="-2.16334">
        <ele>6.8</ele>
        <time>2020-06-05T13:45:47Z</time>
      </trkpt>
      <trkpt lat="47.25758" lon="-2.16334">
        <ele>6.7</ele>
        <time>2020-06-05T13:45:48Z</time>
      </trkpt>
      <trkpt lat="47.25763" lon="-2.16335">
        <ele>6.7</ele>
        <time>2020-06-05T13:45:49Z</time>
      </trkpt>
      <trkpt lat="47.25768" lon="-2.16337">
        <ele>6.7</ele>
        <time>2020-06-05T13:45:50Z</time>
      </trkpt>
      <trkpt lat="47.25773" lon="-2.16337">
        <ele>6.7</ele>
        <time>2020-06-05T13:45:51Z</time>
      </trkpt>
      <trkpt lat="47.25778" lon="-2.16339">
        <ele>6.8</ele>
        <time>2020-06-05T13:45:52Z</time>
      </trkpt>
      <trkpt lat="47.25782" lon="-2.1634">
        <ele>6.8</ele>
        <time>2020-06-05T13:45:53Z</time>
      </trkpt>
      <trkpt lat="47.25787" lon="-2.1634">
        <ele>6.9</ele>
        <time>2020-06-05T13:45:54Z</time>
      </trkpt>
      <trkpt lat="47.25792" lon="-2.16342">
        <ele>6.9</ele>
        <time>2020-06-05T13:45:55Z</time>
      </trkpt>
      <trkpt lat="47.25797" lon="-2.16343">
        <ele>7</ele>
        <time>2020-06-05T13:45:56Z</time>
      </trkpt>
      <trkpt lat="47.25802" lon="-2.16345">
        <ele>7</ele>
        <time>2020-06-05T13:45:57Z</time>
      </trkpt>
      <trkpt lat="47.25806" lon="-2.16345">
        <ele>7</ele>
        <time>2020-06-05T13:45:58Z</time>
      </trkpt>
      <trkpt lat="47.2581" lon="-2.16345">
        <ele>7.1</ele>
        <time>2020-06-05T13:45:59Z</time>
      </trkpt>
      <trkpt lat="47.25815" lon="-2.16345">
        <ele>7.1</ele>
        <time>2020-06-05T13:46:00Z</time>
      </trkpt>
      <trkpt lat="47.25819" lon="-2.16346">
        <ele>7.2</ele>
        <time>2020-06-05T13:46:01Z</time>
      </trkpt>
      <trkpt lat="47.25824" lon="-2.16345">
        <ele>7.2</ele>
        <time>2020-06-05T13:46:02Z</time>
      </trkpt>
      <trkpt lat="47.25828" lon="-2.16344">
        <ele>7.2</ele>
        <time>2020-06-05T13:46:03Z</time>
      </trkpt>
      <trkpt lat="47.25834" lon="-2.16346">
        <ele>7.3</ele>
        <time>2020-06-05T13:46:04Z</time>
      </trkpt>
      <trkpt lat="47.25839" lon="-2.16347">
        <ele>7.3</ele>
        <time>2020-06-05T13:46:05Z</time>
      </trkpt>
      <trkpt lat="47.25845" lon="-2.16347">
        <ele>7.3</ele>
        <time>2020-06-05T13:46:06Z</time>
      </trkpt>
      <trkpt lat="47.2585" lon="-2.16347">
        <ele>7.4</ele>
        <time>2020-06-05T13:46:07Z</time>
      </trkpt>
      <trkpt lat="47.25854" lon="-2.16348">
        <ele>7.4</ele>
        <time>2020-06-05T13:46:08Z</time>
      </trkpt>
      <trkpt lat="47.25859" lon="-2.16349">
        <ele>7.5</ele>
        <time>2020-06-05T13:46:09Z</time>
      </trkpt>
      <trkpt lat="47.25863" lon="-2.1635">
        <ele>7.5</ele>
        <time>2020-06-05T13:46:10Z</time>
      </trkpt>
      <trkpt lat="47.25868" lon="-2.16352">
        <ele>7.6</ele>
        <time>2020-06-05T13:46:11Z</time>
      </trkpt>
      <trkpt lat="47.25874" lon="-2.16354">
        <ele>7.6</ele>
        <time>2020-06-05T13:46:12Z</time>
      </trkpt>
      <trkpt lat="47.2588" lon="-2.16355">
        <ele>7.7</ele>
        <time>2020-06-05T13:46:13Z</time>
      </trkpt>
      <trkpt lat="47.25886" lon="-2.16355">
        <ele>7.7</ele>
        <time>2020-06-05T13:46:14Z</time>
      </trkpt>
      <trkpt lat="47.25891" lon="-2.16355">
        <ele>7.7</ele>
        <time>2020-06-05T13:46:15Z</time>
      </trkpt>
      <trkpt lat="47.25896" lon="-2.16355">
        <ele>7.7</ele>
        <time>2020-06-05T13:46:16Z</time>
      </trkpt>
      <trkpt lat="47.259" lon="-2.16356">
        <ele>7.7</ele>
        <time>2020-06-05T13:46:17Z</time>
      </trkpt>
      <trkpt lat="47.25904" lon="-2.16356">
        <ele>7.8</ele>
        <time>2020-06-05T13:46:18Z</time>
      </trkpt>
      <trkpt lat="47.25909" lon="-2.16357">
        <ele>7.8</ele>
        <time>2020-06-05T13:46:19Z</time>
      </trkpt>
      <trkpt lat="47.25913" lon="-2.16358">
        <ele>7.8</ele>
        <time>2020-06-05T13:46:20Z</time>
      </trkpt>
      <trkpt lat="47.25919" lon="-2.16358">
        <ele>7.8</ele>
        <time>2020-06-05T13:46:21Z</time>
      </trkpt>
      <trkpt lat="47.25924" lon="-2.16359">
        <ele>7.8</ele>
        <time>2020-06-05T13:46:22Z</time>
      </trkpt>
      <trkpt lat="47.25929" lon="-2.16359">
        <ele>7.8</ele>
        <time>2020-06-05T13:46:23Z</time>
      </trkpt>
      <trkpt lat="47.25933" lon="-2.1636">
        <ele>7.8</ele>
        <time>2020-06-05T13:46:24Z</time>
      </trkpt>
      <trkpt lat="47.25936" lon="-2.16361">
        <ele>7.8</ele>
        <time>2020-06-05T13:46:25Z</time>
      </trkpt>
      <trkpt lat="47.2594" lon="-2.1636">
        <ele>7.7</ele>
        <time>2020-06-05T13:46:26Z</time>
      </trkpt>
      <trkpt lat="47.25941" lon="-2.1636">
        <ele>7.7</ele>
        <time>2020-06-05T13:46:27Z</time>
      </trkpt>
      <trkpt lat="47.25944" lon="-2.1636">
        <ele>7.7</ele>
        <time>2020-06-05T13:46:28Z</time>
      </trkpt>
      <trkpt lat="47.25948" lon="-2.16361">
        <ele>7.7</ele>
        <time>2020-06-05T13:46:29Z</time>
      </trkpt>
      <trkpt lat="47.25952" lon="-2.16363">
        <ele>7.7</ele>
        <time>2020-06-05T13:46:30Z</time>
      </trkpt>
      <trkpt lat="47.25956" lon="-2.16363">
        <ele>7.7</ele>
        <time>2020-06-05T13:46:31Z</time>
      </trkpt>
      <trkpt lat="47.25961" lon="-2.16363">
        <ele>7.7</ele>
        <time>2020-06-05T13:46:32Z</time>
      </trkpt>
      <trkpt lat="47.25965" lon="-2.16364">
        <ele>7.7</ele>
        <time>2020-06-05T13:46:33Z</time>
      </trkpt>
      <trkpt lat="47.25968" lon="-2.16364">
        <ele>7.7</ele>
        <time>2020-06-05T13:46:34Z</time>
      </trkpt>
      <trkpt lat="47.25972" lon="-2.16365">
        <ele>7.7</ele>
        <time>2020-06-05T13:46:35Z</time>
      </trkpt>
      <trkpt lat="47.25976" lon="-2.16366">
        <ele>7.7</ele>
        <time>2020-06-05T13:46:36Z</time>
      </trkpt>
      <trkpt lat="47.25981" lon="-2.16367">
        <ele>7.7</ele>
        <time>2020-06-05T13:46:37Z</time>
      </trkpt>
      <trkpt lat="47.25985" lon="-2.16367">
        <ele>7.7</ele>
        <time>2020-06-05T13:46:38Z</time>
      </trkpt>
      <trkpt lat="47.25989" lon="-2.16369">
        <ele>7.7</ele>
        <time>2020-06-05T13:46:39Z</time>
      </trkpt>
      <trkpt lat="47.25994" lon="-2.1637">
        <ele>7.8</ele>
        <time>2020-06-05T13:46:40Z</time>
      </trkpt>
      <trkpt lat="47.26" lon="-2.16372">
        <ele>7.8</ele>
        <time>2020-06-05T13:46:41Z</time>
      </trkpt>
      <trkpt lat="47.26005" lon="-2.16373">
        <ele>7.8</ele>
        <time>2020-06-05T13:46:42Z</time>
      </trkpt>
      <trkpt lat="47.26012" lon="-2.16374">
        <ele>7.8</ele>
        <time>2020-06-05T13:46:43Z</time>
      </trkpt>
      <trkpt lat="47.26019" lon="-2.16375">
        <ele>7.8</ele>
        <time>2020-06-05T13:46:44Z</time>
      </trkpt>
      <trkpt lat="47.26024" lon="-2.16376">
        <ele>7.8</ele>
        <time>2020-06-05T13:46:45Z</time>
      </trkpt>
      <trkpt lat="47.26027" lon="-2.16377">
        <ele>7.8</ele>
        <time>2020-06-05T13:46:46Z</time>
      </trkpt>
      <trkpt lat="47.26031" lon="-2.16379">
        <ele>7.7</ele>
        <time>2020-06-05T13:46:47Z</time>
      </trkpt>
      <trkpt lat="47.26036" lon="-2.16379">
        <ele>7.7</ele>
        <time>2020-06-05T13:46:48Z</time>
      </trkpt>
      <trkpt lat="47.2604" lon="-2.16379">
        <ele>7.6</ele>
        <time>2020-06-05T13:46:49Z</time>
      </trkpt>
      <trkpt lat="47.26046" lon="-2.16381">
        <ele>7.5</ele>
        <time>2020-06-05T13:46:50Z</time>
      </trkpt>
      <trkpt lat="47.26051" lon="-2.16382">
        <ele>7.5</ele>
        <time>2020-06-05T13:46:51Z</time>
      </trkpt>
      <trkpt lat="47.26055" lon="-2.16383">
        <ele>7.5</ele>
        <time>2020-06-05T13:46:52Z</time>
      </trkpt>
      <trkpt lat="47.2606" lon="-2.16384">
        <ele>7.4</ele>
        <time>2020-06-05T13:46:53Z</time>
      </trkpt>
      <trkpt lat="47.26064" lon="-2.16384">
        <ele>7.4</ele>
        <time>2020-06-05T13:46:54Z</time>
      </trkpt>
      <trkpt lat="47.26067" lon="-2.16384">
        <ele>7.4</ele>
        <time>2020-06-05T13:46:55Z</time>
      </trkpt>
      <trkpt lat="47.26071" lon="-2.16385">
        <ele>7.6</ele>
        <time>2020-06-05T13:46:56Z</time>
      </trkpt>
      <trkpt lat="47.26074" lon="-2.16385">
        <ele>7.8</ele>
        <time>2020-06-05T13:46:57Z</time>
      </trkpt>
      <trkpt lat="47.26078" lon="-2.16385">
        <ele>8</ele>
        <time>2020-06-05T13:46:58Z</time>
      </trkpt>
      <trkpt lat="47.26081" lon="-2.16385">
        <ele>8.1</ele>
        <time>2020-06-05T13:46:59Z</time>
      </trkpt>
      <trkpt lat="47.26086" lon="-2.16385">
        <ele>8.4</ele>
        <time>2020-06-05T13:47:00Z</time>
      </trkpt>
      <trkpt lat="47.26089" lon="-2.16385">
        <ele>8.6</ele>
        <time>2020-06-05T13:47:01Z</time>
      </trkpt>
      <trkpt lat="47.26093" lon="-2.16385">
        <ele>8.4</ele>
        <time>2020-06-05T13:47:02Z</time>
      </trkpt>
      <trkpt lat="47.26097" lon="-2.16386">
        <ele>8.3</ele>
        <time>2020-06-05T13:47:03Z</time>
      </trkpt>
      <trkpt lat="47.26102" lon="-2.16386">
        <ele>8.2</ele>
        <time>2020-06-05T13:47:04Z</time>
      </trkpt>
      <trkpt lat="47.26107" lon="-2.16387">
        <ele>8.1</ele>
        <time>2020-06-05T13:47:05Z</time>
      </trkpt>
      <trkpt lat="47.26112" lon="-2.16387">
        <ele>8</ele>
        <time>2020-06-05T13:47:06Z</time>
      </trkpt>
      <trkpt lat="47.26118" lon="-2.16388">
        <ele>7.8</ele>
        <time>2020-06-05T13:47:07Z</time>
      </trkpt>
      <trkpt lat="47.26124" lon="-2.16389">
        <ele>7.7</ele>
        <time>2020-06-05T13:47:08Z</time>
      </trkpt>
      <trkpt lat="47.2613" lon="-2.16391">
        <ele>7.6</ele>
        <time>2020-06-05T13:47:09Z</time>
      </trkpt>
      <trkpt lat="47.26135" lon="-2.16392">
        <ele>7.5</ele>
        <time>2020-06-05T13:47:10Z</time>
      </trkpt>
      <trkpt lat="47.26141" lon="-2.16394">
        <ele>7.4</ele>
        <time>2020-06-05T13:47:11Z</time>
      </trkpt>
      <trkpt lat="47.26146" lon="-2.16394">
        <ele>7.3</ele>
        <time>2020-06-05T13:47:12Z</time>
      </trkpt>
      <trkpt lat="47.26152" lon="-2.16395">
        <ele>7.2</ele>
        <time>2020-06-05T13:47:13Z</time>
      </trkpt>
      <trkpt lat="47.26157" lon="-2.16394">
        <ele>7.1</ele>
        <time>2020-06-05T13:47:14Z</time>
      </trkpt>
      <trkpt lat="47.26162" lon="-2.16395">
        <ele>7.1</ele>
        <time>2020-06-05T13:47:15Z</time>
      </trkpt>
      <trkpt lat="47.26167" lon="-2.16395">
        <ele>7</ele>
        <time>2020-06-05T13:47:16Z</time>
      </trkpt>
      <trkpt lat="47.26173" lon="-2.16397">
        <ele>6.9</ele>
        <time>2020-06-05T13:47:17Z</time>
      </trkpt>
      <trkpt lat="47.26178" lon="-2.16397">
        <ele>6.9</ele>
        <time>2020-06-05T13:47:18Z</time>
      </trkpt>
      <trkpt lat="47.26183" lon="-2.16398">
        <ele>6.9</ele>
        <time>2020-06-05T13:47:19Z</time>
      </trkpt>
      <trkpt lat="47.26189" lon="-2.16399">
        <ele>6.9</ele>
        <time>2020-06-05T13:47:20Z</time>
      </trkpt>
      <trkpt lat="47.26193" lon="-2.164">
        <ele>6.8</ele>
        <time>2020-06-05T13:47:21Z</time>
      </trkpt>
      <trkpt lat="47.26198" lon="-2.16401">
        <ele>6.8</ele>
        <time>2020-06-05T13:47:22Z</time>
      </trkpt>
      <trkpt lat="47.26202" lon="-2.16402">
        <ele>6.8</ele>
        <time>2020-06-05T13:47:23Z</time>
      </trkpt>
      <trkpt lat="47.26208" lon="-2.16403">
        <ele>6.7</ele>
        <time>2020-06-05T13:47:24Z</time>
      </trkpt>
      <trkpt lat="47.26214" lon="-2.16404">
        <ele>6.7</ele>
        <time>2020-06-05T13:47:25Z</time>
      </trkpt>
      <trkpt lat="47.26221" lon="-2.16406">
        <ele>6.6</ele>
        <time>2020-06-05T13:47:26Z</time>
      </trkpt>
      <trkpt lat="47.26226" lon="-2.16408">
        <ele>6.6</ele>
        <time>2020-06-05T13:47:27Z</time>
      </trkpt>
      <trkpt lat="47.26231" lon="-2.16409">
        <ele>6.6</ele>
        <time>2020-06-05T13:47:28Z</time>
      </trkpt>
      <trkpt lat="47.26236" lon="-2.1641">
        <ele>6.5</ele>
        <time>2020-06-05T13:47:29Z</time>
      </trkpt>
      <trkpt lat="47.26241" lon="-2.16412">
        <ele>6.5</ele>
        <time>2020-06-05T13:47:30Z</time>
      </trkpt>
      <trkpt lat="47.26246" lon="-2.16413">
        <ele>6.4</ele>
        <time>2020-06-05T13:47:31Z</time>
      </trkpt>
      <trkpt lat="47.26251" lon="-2.16413">
        <ele>6.4</ele>
        <time>2020-06-05T13:47:32Z</time>
      </trkpt>
      <trkpt lat="47.26257" lon="-2.16415">
        <ele>6.3</ele>
        <time>2020-06-05T13:47:33Z</time>
      </trkpt>
      <trkpt lat="47.26262" lon="-2.16415">
        <ele>6.3</ele>
        <time>2020-06-05T13:47:34Z</time>
      </trkpt>
      <trkpt lat="47.26267" lon="-2.16418">
        <ele>6.2</ele>
        <time>2020-06-05T13:47:35Z</time>
      </trkpt>
      <trkpt lat="47.26273" lon="-2.16417">
        <ele>6.2</ele>
        <time>2020-06-05T13:47:36Z</time>
      </trkpt>
      <trkpt lat="47.26277" lon="-2.16418">
        <ele>6.1</ele>
        <time>2020-06-05T13:47:37Z</time>
      </trkpt>
      <trkpt lat="47.26281" lon="-2.16418">
        <ele>6.1</ele>
        <time>2020-06-05T13:47:38Z</time>
      </trkpt>
      <trkpt lat="47.26286" lon="-2.16419">
        <ele>6.1</ele>
        <time>2020-06-05T13:47:39Z</time>
      </trkpt>
      <trkpt lat="47.2629" lon="-2.16419">
        <ele>6.1</ele>
        <time>2020-06-05T13:47:40Z</time>
      </trkpt>
      <trkpt lat="47.26293" lon="-2.1642">
        <ele>6.1</ele>
        <time>2020-06-05T13:47:41Z</time>
      </trkpt>
      <trkpt lat="47.26296" lon="-2.16419">
        <ele>6</ele>
        <time>2020-06-05T13:47:42Z</time>
      </trkpt>
      <trkpt lat="47.263" lon="-2.16418">
        <ele>6</ele>
        <time>2020-06-05T13:47:43Z</time>
      </trkpt>
      <trkpt lat="47.26301" lon="-2.16417">
        <ele>5.9</ele>
        <time>2020-06-05T13:47:44Z</time>
      </trkpt>
      <trkpt lat="47.26303" lon="-2.16413">
        <ele>5.9</ele>
        <time>2020-06-05T13:47:45Z</time>
      </trkpt>
      <trkpt lat="47.26305" lon="-2.16409">
        <ele>5.8</ele>
        <time>2020-06-05T13:47:46Z</time>
      </trkpt>
      <trkpt lat="47.26307" lon="-2.16405">
        <ele>5.8</ele>
        <time>2020-06-05T13:47:47Z</time>
      </trkpt>
      <trkpt lat="47.2631" lon="-2.16404">
        <ele>5.7</ele>
        <time>2020-06-05T13:47:48Z</time>
      </trkpt>
      <trkpt lat="47.26314" lon="-2.16405">
        <ele>5.7</ele>
        <time>2020-06-05T13:47:49Z</time>
      </trkpt>
      <trkpt lat="47.26315" lon="-2.16406">
        <ele>5.6</ele>
        <time>2020-06-05T13:47:50Z</time>
      </trkpt>
      <trkpt lat="47.26318" lon="-2.16407">
        <ele>5.6</ele>
        <time>2020-06-05T13:47:51Z</time>
      </trkpt>
      <trkpt lat="47.26321" lon="-2.1641">
        <ele>5.5</ele>
        <time>2020-06-05T13:47:52Z</time>
      </trkpt>
      <trkpt lat="47.26324" lon="-2.16413">
        <ele>5.5</ele>
        <time>2020-06-05T13:47:53Z</time>
      </trkpt>
      <trkpt lat="47.26328" lon="-2.16415">
        <ele>5.4</ele>
        <time>2020-06-05T13:47:54Z</time>
      </trkpt>
      <trkpt lat="47.26333" lon="-2.16418">
        <ele>5.4</ele>
        <time>2020-06-05T13:47:55Z</time>
      </trkpt>
      <trkpt lat="47.26338" lon="-2.1642">
        <ele>5.3</ele>
        <time>2020-06-05T13:47:56Z</time>
      </trkpt>
      <trkpt lat="47.26342" lon="-2.16422">
        <ele>5.3</ele>
        <time>2020-06-05T13:47:57Z</time>
      </trkpt>
      <trkpt lat="47.26347" lon="-2.16424">
        <ele>5.2</ele>
        <time>2020-06-05T13:47:58Z</time>
      </trkpt>
      <trkpt lat="47.26351" lon="-2.16427">
        <ele>5.2</ele>
        <time>2020-06-05T13:47:59Z</time>
      </trkpt>
      <trkpt lat="47.26355" lon="-2.16429">
        <ele>5.2</ele>
        <time>2020-06-05T13:48:00Z</time>
      </trkpt>
      <trkpt lat="47.26361" lon="-2.1643">
        <ele>5.2</ele>
        <time>2020-06-05T13:48:01Z</time>
      </trkpt>
      <trkpt lat="47.26365" lon="-2.16432">
        <ele>5.1</ele>
        <time>2020-06-05T13:48:02Z</time>
      </trkpt>
      <trkpt lat="47.26371" lon="-2.16434">
        <ele>5.1</ele>
        <time>2020-06-05T13:48:03Z</time>
      </trkpt>
      <trkpt lat="47.26376" lon="-2.16436">
        <ele>5</ele>
        <time>2020-06-05T13:48:04Z</time>
      </trkpt>
      <trkpt lat="47.26382" lon="-2.16438">
        <ele>4.9</ele>
        <time>2020-06-05T13:48:05Z</time>
      </trkpt>
      <trkpt lat="47.26387" lon="-2.1644">
        <ele>4.8</ele>
        <time>2020-06-05T13:48:06Z</time>
      </trkpt>
      <trkpt lat="47.26393" lon="-2.16442">
        <ele>4.7</ele>
        <time>2020-06-05T13:48:07Z</time>
      </trkpt>
      <trkpt lat="47.26398" lon="-2.16444">
        <ele>4.7</ele>
        <time>2020-06-05T13:48:08Z</time>
      </trkpt>
      <trkpt lat="47.26404" lon="-2.16445">
        <ele>4.6</ele>
        <time>2020-06-05T13:48:09Z</time>
      </trkpt>
      <trkpt lat="47.26409" lon="-2.16447">
        <ele>4.5</ele>
        <time>2020-06-05T13:48:10Z</time>
      </trkpt>
      <trkpt lat="47.26415" lon="-2.16449">
        <ele>4.4</ele>
        <time>2020-06-05T13:48:11Z</time>
      </trkpt>
      <trkpt lat="47.26419" lon="-2.16451">
        <ele>4.3</ele>
        <time>2020-06-05T13:48:12Z</time>
      </trkpt>
      <trkpt lat="47.26422" lon="-2.16452">
        <ele>4.3</ele>
        <time>2020-06-05T13:48:13Z</time>
      </trkpt>
      <trkpt lat="47.26425" lon="-2.16453">
        <ele>4.3</ele>
        <time>2020-06-05T13:48:14Z</time>
      </trkpt>
      <trkpt lat="47.26425" lon="-2.16453">
        <ele>4.2</ele>
        <time>2020-06-05T13:48:15Z</time>
      </trkpt>
      <trkpt lat="47.26426" lon="-2.16453">
        <ele>4.2</ele>
        <time>2020-06-05T13:48:16Z</time>
      </trkpt>
      <trkpt lat="47.2643" lon="-2.16453">
        <ele>4.1</ele>
        <time>2020-06-05T13:48:17Z</time>
      </trkpt>
      <trkpt lat="47.26432" lon="-2.16454">
        <ele>4.1</ele>
        <time>2020-06-05T13:48:18Z</time>
      </trkpt>
      <trkpt lat="47.26436" lon="-2.16456">
        <ele>4</ele>
        <time>2020-06-05T13:48:19Z</time>
      </trkpt>
      <trkpt lat="47.2644" lon="-2.16458">
        <ele>3.9</ele>
        <time>2020-06-05T13:48:20Z</time>
      </trkpt>
      <trkpt lat="47.26444" lon="-2.16461">
        <ele>3.8</ele>
        <time>2020-06-05T13:48:21Z</time>
      </trkpt>
      <trkpt lat="47.26447" lon="-2.16463">
        <ele>3.7</ele>
        <time>2020-06-05T13:48:22Z</time>
      </trkpt>
      <trkpt lat="47.26451" lon="-2.16465">
        <ele>3.6</ele>
        <time>2020-06-05T13:48:23Z</time>
      </trkpt>
      <trkpt lat="47.26455" lon="-2.16468">
        <ele>3.5</ele>
        <time>2020-06-05T13:48:24Z</time>
      </trkpt>
      <trkpt lat="47.26459" lon="-2.16472">
        <ele>3.3</ele>
        <time>2020-06-05T13:48:25Z</time>
      </trkpt>
      <trkpt lat="47.26463" lon="-2.16476">
        <ele>3.5</ele>
        <time>2020-06-05T13:48:26Z</time>
      </trkpt>
      <trkpt lat="47.26466" lon="-2.16481">
        <ele>3.6</ele>
        <time>2020-06-05T13:48:27Z</time>
      </trkpt>
      <trkpt lat="47.2647" lon="-2.16486">
        <ele>3.7</ele>
        <time>2020-06-05T13:48:28Z</time>
      </trkpt>
      <trkpt lat="47.26473" lon="-2.16493">
        <ele>3.8</ele>
        <time>2020-06-05T13:48:29Z</time>
      </trkpt>
      <trkpt lat="47.26475" lon="-2.16498">
        <ele>4</ele>
        <time>2020-06-05T13:48:30Z</time>
      </trkpt>
      <trkpt lat="47.26477" lon="-2.16504">
        <ele>4.1</ele>
        <time>2020-06-05T13:48:31Z</time>
      </trkpt>
      <trkpt lat="47.2648" lon="-2.16509">
        <ele>4.2</ele>
        <time>2020-06-05T13:48:32Z</time>
      </trkpt>
      <trkpt lat="47.26484" lon="-2.16514">
        <ele>4.3</ele>
        <time>2020-06-05T13:48:33Z</time>
      </trkpt>
      <trkpt lat="47.26487" lon="-2.16519">
        <ele>4.4</ele>
        <time>2020-06-05T13:48:34Z</time>
      </trkpt>
      <trkpt lat="47.2649" lon="-2.16524">
        <ele>4.6</ele>
        <time>2020-06-05T13:48:35Z</time>
      </trkpt>
      <trkpt lat="47.26494" lon="-2.16528">
        <ele>4.7</ele>
        <time>2020-06-05T13:48:36Z</time>
      </trkpt>
      <trkpt lat="47.26498" lon="-2.16533">
        <ele>4.7</ele>
        <time>2020-06-05T13:48:37Z</time>
      </trkpt>
      <trkpt lat="47.26503" lon="-2.16537">
        <ele>4.8</ele>
        <time>2020-06-05T13:48:38Z</time>
      </trkpt>
      <trkpt lat="47.26508" lon="-2.1654">
        <ele>4.8</ele>
        <time>2020-06-05T13:48:39Z</time>
      </trkpt>
      <trkpt lat="47.26512" lon="-2.16542">
        <ele>4.9</ele>
        <time>2020-06-05T13:48:40Z</time>
      </trkpt>
      <trkpt lat="47.26516" lon="-2.16545">
        <ele>4.9</ele>
        <time>2020-06-05T13:48:41Z</time>
      </trkpt>
      <trkpt lat="47.26519" lon="-2.16547">
        <ele>5</ele>
        <time>2020-06-05T13:48:42Z</time>
      </trkpt>
      <trkpt lat="47.26522" lon="-2.16549">
        <ele>5</ele>
        <time>2020-06-05T13:48:43Z</time>
      </trkpt>
      <trkpt lat="47.26526" lon="-2.16551">
        <ele>5.1</ele>
        <time>2020-06-05T13:48:44Z</time>
      </trkpt>
      <trkpt lat="47.2653" lon="-2.16551">
        <ele>5.1</ele>
        <time>2020-06-05T13:48:45Z</time>
      </trkpt>
      <trkpt lat="47.26534" lon="-2.16549">
        <ele>5.1</ele>
        <time>2020-06-05T13:48:46Z</time>
      </trkpt>
      <trkpt lat="47.26537" lon="-2.16543">
        <ele>5.1</ele>
        <time>2020-06-05T13:48:47Z</time>
      </trkpt>
      <trkpt lat="47.2654" lon="-2.16537">
        <ele>5</ele>
        <time>2020-06-05T13:48:48Z</time>
      </trkpt>
      <trkpt lat="47.26543" lon="-2.16532">
        <ele>5</ele>
        <time>2020-06-05T13:48:49Z</time>
      </trkpt>
      <trkpt lat="47.26546" lon="-2.16527">
        <ele>5</ele>
        <time>2020-06-05T13:48:50Z</time>
      </trkpt>
      <trkpt lat="47.26549" lon="-2.16522">
        <ele>5</ele>
        <time>2020-06-05T13:48:51Z</time>
      </trkpt>
      <trkpt lat="47.26553" lon="-2.16517">
        <ele>5</ele>
        <time>2020-06-05T13:48:52Z</time>
      </trkpt>
      <trkpt lat="47.26556" lon="-2.16511">
        <ele>5</ele>
        <time>2020-06-05T13:48:53Z</time>
      </trkpt>
      <trkpt lat="47.2656" lon="-2.16507">
        <ele>5</ele>
        <time>2020-06-05T13:48:54Z</time>
      </trkpt>
      <trkpt lat="47.26563" lon="-2.16502">
        <ele>5</ele>
        <time>2020-06-05T13:48:55Z</time>
      </trkpt>
      <trkpt lat="47.26567" lon="-2.16497">
        <ele>5</ele>
        <time>2020-06-05T13:48:56Z</time>
      </trkpt>
      <trkpt lat="47.26571" lon="-2.16492">
        <ele>5</ele>
        <time>2020-06-05T13:48:57Z</time>
      </trkpt>
      <trkpt lat="47.26574" lon="-2.16486">
        <ele>5</ele>
        <time>2020-06-05T13:48:58Z</time>
      </trkpt>
      <trkpt lat="47.26577" lon="-2.16481">
        <ele>5</ele>
        <time>2020-06-05T13:48:59Z</time>
      </trkpt>
      <trkpt lat="47.26581" lon="-2.16476">
        <ele>5</ele>
        <time>2020-06-05T13:49:00Z</time>
      </trkpt>
      <trkpt lat="47.26585" lon="-2.16471">
        <ele>5</ele>
        <time>2020-06-05T13:49:01Z</time>
      </trkpt>
      <trkpt lat="47.26588" lon="-2.16466">
        <ele>5</ele>
        <time>2020-06-05T13:49:02Z</time>
      </trkpt>
      <trkpt lat="47.26592" lon="-2.16461">
        <ele>5</ele>
        <time>2020-06-05T13:49:03Z</time>
      </trkpt>
      <trkpt lat="47.26596" lon="-2.16455">
        <ele>5</ele>
        <time>2020-06-05T13:49:04Z</time>
      </trkpt>
      <trkpt lat="47.26601" lon="-2.1645">
        <ele>5</ele>
        <time>2020-06-05T13:49:05Z</time>
      </trkpt>
      <trkpt lat="47.26604" lon="-2.16444">
        <ele>5</ele>
        <time>2020-06-05T13:49:06Z</time>
      </trkpt>
      <trkpt lat="47.26608" lon="-2.16439">
        <ele>5</ele>
        <time>2020-06-05T13:49:07Z</time>
      </trkpt>
      <trkpt lat="47.26612" lon="-2.16434">
        <ele>5</ele>
        <time>2020-06-05T13:49:08Z</time>
      </trkpt>
      <trkpt lat="47.26616" lon="-2.16428">
        <ele>4.9</ele>
        <time>2020-06-05T13:49:09Z</time>
      </trkpt>
      <trkpt lat="47.2662" lon="-2.16423">
        <ele>4.9</ele>
        <time>2020-06-05T13:49:10Z</time>
      </trkpt>
      <trkpt lat="47.26624" lon="-2.16417">
        <ele>4.9</ele>
        <time>2020-06-05T13:49:11Z</time>
      </trkpt>
      <trkpt lat="47.26627" lon="-2.16411">
        <ele>4.9</ele>
        <time>2020-06-05T13:49:12Z</time>
      </trkpt>
      <trkpt lat="47.2663" lon="-2.16405">
        <ele>4.9</ele>
        <time>2020-06-05T13:49:13Z</time>
      </trkpt>
      <trkpt lat="47.26633" lon="-2.16399">
        <ele>4.8</ele>
        <time>2020-06-05T13:49:14Z</time>
      </trkpt>
      <trkpt lat="47.26636" lon="-2.16394">
        <ele>4.8</ele>
        <time>2020-06-05T13:49:15Z</time>
      </trkpt>
      <trkpt lat="47.26639" lon="-2.16387">
        <ele>4.8</ele>
        <time>2020-06-05T13:49:16Z</time>
      </trkpt>
      <trkpt lat="47.26643" lon="-2.1638">
        <ele>4.7</ele>
        <time>2020-06-05T13:49:17Z</time>
      </trkpt>
      <trkpt lat="47.26647" lon="-2.16374">
        <ele>4.7</ele>
        <time>2020-06-05T13:49:18Z</time>
      </trkpt>
      <trkpt lat="47.2665" lon="-2.16367">
        <ele>4.7</ele>
        <time>2020-06-05T13:49:19Z</time>
      </trkpt>
      <trkpt lat="47.26651" lon="-2.16358">
        <ele>4.7</ele>
        <time>2020-06-05T13:49:20Z</time>
      </trkpt>
      <trkpt lat="47.26654" lon="-2.16352">
        <ele>4.7</ele>
        <time>2020-06-05T13:49:21Z</time>
      </trkpt>
      <trkpt lat="47.26655" lon="-2.16344">
        <ele>4.7</ele>
        <time>2020-06-05T13:49:22Z</time>
      </trkpt>
      <trkpt lat="47.26656" lon="-2.16336">
        <ele>4.7</ele>
        <time>2020-06-05T13:49:23Z</time>
      </trkpt>
      <trkpt lat="47.26658" lon="-2.16328">
        <ele>4.7</ele>
        <time>2020-06-05T13:49:24Z</time>
      </trkpt>
      <trkpt lat="47.26659" lon="-2.1632">
        <ele>4.6</ele>
        <time>2020-06-05T13:49:25Z</time>
      </trkpt>
      <trkpt lat="47.2666" lon="-2.16313">
        <ele>4.6</ele>
        <time>2020-06-05T13:49:26Z</time>
      </trkpt>
      <trkpt lat="47.26661" lon="-2.16305">
        <ele>4.6</ele>
        <time>2020-06-05T13:49:27Z</time>
      </trkpt>
      <trkpt lat="47.26661" lon="-2.16298">
        <ele>4.6</ele>
        <time>2020-06-05T13:49:28Z</time>
      </trkpt>
      <trkpt lat="47.26662" lon="-2.16291">
        <ele>4.5</ele>
        <time>2020-06-05T13:49:29Z</time>
      </trkpt>
      <trkpt lat="47.26662" lon="-2.16284">
        <ele>4.5</ele>
        <time>2020-06-05T13:49:30Z</time>
      </trkpt>
      <trkpt lat="47.26663" lon="-2.16277">
        <ele>4.5</ele>
        <time>2020-06-05T13:49:31Z</time>
      </trkpt>
      <trkpt lat="47.26664" lon="-2.1627">
        <ele>4.4</ele>
        <time>2020-06-05T13:49:32Z</time>
      </trkpt>
      <trkpt lat="47.26665" lon="-2.16263">
        <ele>4.4</ele>
        <time>2020-06-05T13:49:33Z</time>
      </trkpt>
      <trkpt lat="47.26667" lon="-2.16255">
        <ele>4.4</ele>
        <time>2020-06-05T13:49:34Z</time>
      </trkpt>
      <trkpt lat="47.26668" lon="-2.16248">
        <ele>4.4</ele>
        <time>2020-06-05T13:49:35Z</time>
      </trkpt>
      <trkpt lat="47.2667" lon="-2.16239">
        <ele>4.3</ele>
        <time>2020-06-05T13:49:36Z</time>
      </trkpt>
      <trkpt lat="47.2667" lon="-2.1623">
        <ele>4.3</ele>
        <time>2020-06-05T13:49:37Z</time>
      </trkpt>
      <trkpt lat="47.26671" lon="-2.16222">
        <ele>4.3</ele>
        <time>2020-06-05T13:49:38Z</time>
      </trkpt>
      <trkpt lat="47.26671" lon="-2.16213">
        <ele>4.3</ele>
        <time>2020-06-05T13:49:39Z</time>
      </trkpt>
      <trkpt lat="47.26672" lon="-2.16206">
        <ele>4.3</ele>
        <time>2020-06-05T13:49:40Z</time>
      </trkpt>
      <trkpt lat="47.26673" lon="-2.16199">
        <ele>4.4</ele>
        <time>2020-06-05T13:49:41Z</time>
      </trkpt>
      <trkpt lat="47.26677" lon="-2.16195">
        <ele>4.4</ele>
        <time>2020-06-05T13:49:42Z</time>
      </trkpt>
      <trkpt lat="47.26682" lon="-2.16192">
        <ele>4.4</ele>
        <time>2020-06-05T13:49:43Z</time>
      </trkpt>
      <trkpt lat="47.26686" lon="-2.16191">
        <ele>4.5</ele>
        <time>2020-06-05T13:49:44Z</time>
      </trkpt>
      <trkpt lat="47.2669" lon="-2.1619">
        <ele>4.6</ele>
        <time>2020-06-05T13:49:45Z</time>
      </trkpt>
      <trkpt lat="47.26694" lon="-2.16189">
        <ele>4.6</ele>
        <time>2020-06-05T13:49:46Z</time>
      </trkpt>
      <trkpt lat="47.26697" lon="-2.16188">
        <ele>4.6</ele>
        <time>2020-06-05T13:49:47Z</time>
      </trkpt>
      <trkpt lat="47.26701" lon="-2.16186">
        <ele>4.7</ele>
        <time>2020-06-05T13:49:48Z</time>
      </trkpt>
      <trkpt lat="47.26704" lon="-2.16184">
        <ele>4.7</ele>
        <time>2020-06-05T13:49:49Z</time>
      </trkpt>
      <trkpt lat="47.26708" lon="-2.16179">
        <ele>4.7</ele>
        <time>2020-06-05T13:49:50Z</time>
      </trkpt>
      <trkpt lat="47.2671" lon="-2.16172">
        <ele>4.7</ele>
        <time>2020-06-05T13:49:51Z</time>
      </trkpt>
      <trkpt lat="47.26711" lon="-2.16166">
        <ele>4.7</ele>
        <time>2020-06-05T13:49:52Z</time>
      </trkpt>
      <trkpt lat="47.26712" lon="-2.16159">
        <ele>4.6</ele>
        <time>2020-06-05T13:49:53Z</time>
      </trkpt>
      <trkpt lat="47.26712" lon="-2.16153">
        <ele>4.6</ele>
        <time>2020-06-05T13:49:54Z</time>
      </trkpt>
      <trkpt lat="47.26712" lon="-2.16145">
        <ele>4.6</ele>
        <time>2020-06-05T13:49:55Z</time>
      </trkpt>
      <trkpt lat="47.26713" lon="-2.16137">
        <ele>4.5</ele>
        <time>2020-06-05T13:49:56Z</time>
      </trkpt>
      <trkpt lat="47.26713" lon="-2.16129">
        <ele>4.5</ele>
        <time>2020-06-05T13:49:57Z</time>
      </trkpt>
      <trkpt lat="47.26715" lon="-2.16123">
        <ele>4.5</ele>
        <time>2020-06-05T13:49:58Z</time>
      </trkpt>
      <trkpt lat="47.26716" lon="-2.16118">
        <ele>4.4</ele>
        <time>2020-06-05T13:49:59Z</time>
      </trkpt>
      <trkpt lat="47.26717" lon="-2.16112">
        <ele>4.3</ele>
        <time>2020-06-05T13:50:00Z</time>
      </trkpt>
      <trkpt lat="47.26718" lon="-2.16107">
        <ele>4.3</ele>
        <time>2020-06-05T13:50:01Z</time>
      </trkpt>
      <trkpt lat="47.26721" lon="-2.16102">
        <ele>4.2</ele>
        <time>2020-06-05T13:50:02Z</time>
      </trkpt>
      <trkpt lat="47.26725" lon="-2.16097">
        <ele>4.1</ele>
        <time>2020-06-05T13:50:03Z</time>
      </trkpt>
      <trkpt lat="47.2673" lon="-2.16094">
        <ele>4.1</ele>
        <time>2020-06-05T13:50:04Z</time>
      </trkpt>
      <trkpt lat="47.26733" lon="-2.16093">
        <ele>4.1</ele>
        <time>2020-06-05T13:50:05Z</time>
      </trkpt>
      <trkpt lat="47.26735" lon="-2.16092">
        <ele>4.1</ele>
        <time>2020-06-05T13:50:06Z</time>
      </trkpt>
      <trkpt lat="47.26735" lon="-2.16094">
        <ele>4.1</ele>
        <time>2020-06-05T13:50:07Z</time>
      </trkpt>
      <trkpt lat="47.26735" lon="-2.16096">
        <ele>4.1</ele>
        <time>2020-06-05T13:50:08Z</time>
      </trkpt>
      <trkpt lat="47.26735" lon="-2.16097">
        <ele>4.1</ele>
        <time>2020-06-05T13:50:09Z</time>
      </trkpt>
      <trkpt lat="47.26734" lon="-2.16097">
        <ele>4.1</ele>
        <time>2020-06-05T13:50:10Z</time>
      </trkpt>
      <trkpt lat="47.26733" lon="-2.16099">
        <ele>4.1</ele>
        <time>2020-06-05T13:50:11Z</time>
      </trkpt>
      <trkpt lat="47.2673" lon="-2.16102">
        <ele>4.1</ele>
        <time>2020-06-05T13:50:12Z</time>
      </trkpt>
      <trkpt lat="47.2673" lon="-2.16103">
        <ele>4.1</ele>
        <time>2020-06-05T13:50:13Z</time>
      </trkpt>
      <trkpt lat="47.26728" lon="-2.16107">
        <ele>4.1</ele>
        <time>2020-06-05T13:50:14Z</time>
      </trkpt>
      <trkpt lat="47.26727" lon="-2.16109">
        <ele>4.1</ele>
        <time>2020-06-05T13:50:15Z</time>
      </trkpt>
      <trkpt lat="47.26727" lon="-2.16112">
        <ele>4.1</ele>
        <time>2020-06-05T13:50:16Z</time>
      </trkpt>
      <trkpt lat="47.26728" lon="-2.16114">
        <ele>4.1</ele>
        <time>2020-06-05T13:50:17Z</time>
      </trkpt>
      <trkpt lat="47.2673" lon="-2.16117">
        <ele>4.2</ele>
        <time>2020-06-05T13:50:18Z</time>
      </trkpt>
      <trkpt lat="47.26731" lon="-2.16118">
        <ele>4.2</ele>
        <time>2020-06-05T13:50:19Z</time>
      </trkpt>
      <trkpt lat="47.26734" lon="-2.16119">
        <ele>4.2</ele>
        <time>2020-06-05T13:50:20Z</time>
      </trkpt>
      <trkpt lat="47.26738" lon="-2.1612">
        <ele>4.2</ele>
        <time>2020-06-05T13:50:21Z</time>
      </trkpt>
      <trkpt lat="47.2674" lon="-2.1612">
        <ele>4.3</ele>
        <time>2020-06-05T13:50:22Z</time>
      </trkpt>
      <trkpt lat="47.26744" lon="-2.16121">
        <ele>4.3</ele>
        <time>2020-06-05T13:50:23Z</time>
      </trkpt>
      <trkpt lat="47.26745" lon="-2.16122">
        <ele>4.3</ele>
        <time>2020-06-05T13:50:24Z</time>
      </trkpt>
      <trkpt lat="47.26748" lon="-2.16123">
        <ele>4.3</ele>
        <time>2020-06-05T13:50:25Z</time>
      </trkpt>
      <trkpt lat="47.26749" lon="-2.16124">
        <ele>4.3</ele>
        <time>2020-06-05T13:50:26Z</time>
      </trkpt>
      <trkpt lat="47.26751" lon="-2.16124">
        <ele>4.4</ele>
        <time>2020-06-05T13:50:27Z</time>
      </trkpt>
      <trkpt lat="47.26752" lon="-2.16124">
        <ele>4.4</ele>
        <time>2020-06-05T13:50:28Z</time>
      </trkpt>
      <trkpt lat="47.26754" lon="-2.16123">
        <ele>4.4</ele>
        <time>2020-06-05T13:50:29Z</time>
      </trkpt>
      <trkpt lat="47.26755" lon="-2.16124">
        <ele>4.4</ele>
        <time>2020-06-05T13:50:30Z</time>
      </trkpt>
      <trkpt lat="47.26757" lon="-2.16124">
        <ele>4.4</ele>
        <time>2020-06-05T13:50:31Z</time>
      </trkpt>
      <trkpt lat="47.26758" lon="-2.16125">
        <ele>4.4</ele>
        <time>2020-06-05T13:50:32Z</time>
      </trkpt>
      <trkpt lat="47.26759" lon="-2.16125">
        <ele>4.5</ele>
        <time>2020-06-05T13:50:33Z</time>
      </trkpt>
      <trkpt lat="47.26761" lon="-2.16126">
        <ele>4.5</ele>
        <time>2020-06-05T13:50:34Z</time>
      </trkpt>
      <trkpt lat="47.26762" lon="-2.16126">
        <ele>4.5</ele>
        <time>2020-06-05T13:50:35Z</time>
      </trkpt>
      <trkpt lat="47.26763" lon="-2.16126">
        <ele>4.5</ele>
        <time>2020-06-05T13:50:36Z</time>
      </trkpt>
      <trkpt lat="47.26765" lon="-2.16127">
        <ele>4.5</ele>
        <time>2020-06-05T13:50:37Z</time>
      </trkpt>
      <trkpt lat="47.26766" lon="-2.16127">
        <ele>4.5</ele>
        <time>2020-06-05T13:50:38Z</time>
      </trkpt>
      <trkpt lat="47.26767" lon="-2.16128">
        <ele>4.5</ele>
        <time>2020-06-05T13:50:39Z</time>
      </trkpt>
      <trkpt lat="47.26769" lon="-2.16128">
        <ele>4.6</ele>
        <time>2020-06-05T13:50:40Z</time>
      </trkpt>
      <trkpt lat="47.2677" lon="-2.16129">
        <ele>4.6</ele>
        <time>2020-06-05T13:50:41Z</time>
      </trkpt>
      <trkpt lat="47.26771" lon="-2.16129">
        <ele>4.6</ele>
        <time>2020-06-05T13:52:31Z</time>
      </trkpt>
      <trkpt lat="47.26772" lon="-2.16129">
        <ele>4.6</ele>
        <time>2020-06-05T13:52:32Z</time>
      </trkpt>
      <trkpt lat="47.26777" lon="-2.16131">
        <ele>4.7</ele>
        <time>2020-06-05T13:52:33Z</time>
      </trkpt>
      <trkpt lat="47.26781" lon="-2.1613">
        <ele>4.8</ele>
        <time>2020-06-05T13:52:34Z</time>
      </trkpt>
      <trkpt lat="47.26785" lon="-2.16131">
        <ele>4.8</ele>
        <time>2020-06-05T13:52:35Z</time>
      </trkpt>
      <trkpt lat="47.26789" lon="-2.16131">
        <ele>4.9</ele>
        <time>2020-06-05T13:52:36Z</time>
      </trkpt>
      <trkpt lat="47.26793" lon="-2.16133">
        <ele>5</ele>
        <time>2020-06-05T13:52:37Z</time>
      </trkpt>
      <trkpt lat="47.26797" lon="-2.16136">
        <ele>5.1</ele>
        <time>2020-06-05T13:52:38Z</time>
      </trkpt>
      <trkpt lat="47.26802" lon="-2.16138">
        <ele>5.2</ele>
        <time>2020-06-05T13:52:39Z</time>
      </trkpt>
      <trkpt lat="47.26806" lon="-2.1614">
        <ele>5.2</ele>
        <time>2020-06-05T13:52:40Z</time>
      </trkpt>
      <trkpt lat="47.2681" lon="-2.16143">
        <ele>5.3</ele>
        <time>2020-06-05T13:52:41Z</time>
      </trkpt>
      <trkpt lat="47.26815" lon="-2.16146">
        <ele>5.4</ele>
        <time>2020-06-05T13:52:42Z</time>
      </trkpt>
      <trkpt lat="47.2682" lon="-2.16147">
        <ele>5.5</ele>
        <time>2020-06-05T13:52:43Z</time>
      </trkpt>
      <trkpt lat="47.26825" lon="-2.16148">
        <ele>5.6</ele>
        <time>2020-06-05T13:52:44Z</time>
      </trkpt>
      <trkpt lat="47.2683" lon="-2.16152">
        <ele>5.7</ele>
        <time>2020-06-05T13:52:45Z</time>
      </trkpt>
      <trkpt lat="47.26835" lon="-2.16154">
        <ele>5.8</ele>
        <time>2020-06-05T13:52:46Z</time>
      </trkpt>
      <trkpt lat="47.2684" lon="-2.16157">
        <ele>6</ele>
        <time>2020-06-05T13:52:47Z</time>
      </trkpt>
      <trkpt lat="47.26846" lon="-2.1616">
        <ele>6.1</ele>
        <time>2020-06-05T13:52:48Z</time>
      </trkpt>
      <trkpt lat="47.26851" lon="-2.16163">
        <ele>6.3</ele>
        <time>2020-06-05T13:52:49Z</time>
      </trkpt>
      <trkpt lat="47.26856" lon="-2.16165">
        <ele>6.4</ele>
        <time>2020-06-05T13:52:50Z</time>
      </trkpt>
      <trkpt lat="47.26861" lon="-2.16168">
        <ele>6.5</ele>
        <time>2020-06-05T13:52:51Z</time>
      </trkpt>
      <trkpt lat="47.26866" lon="-2.16171">
        <ele>6.7</ele>
        <time>2020-06-05T13:52:52Z</time>
      </trkpt>
      <trkpt lat="47.26871" lon="-2.16175">
        <ele>6.8</ele>
        <time>2020-06-05T13:52:53Z</time>
      </trkpt>
      <trkpt lat="47.26876" lon="-2.16178">
        <ele>6.9</ele>
        <time>2020-06-05T13:52:54Z</time>
      </trkpt>
      <trkpt lat="47.26881" lon="-2.16183">
        <ele>7</ele>
        <time>2020-06-05T13:52:55Z</time>
      </trkpt>
      <trkpt lat="47.26886" lon="-2.16186">
        <ele>7.1</ele>
        <time>2020-06-05T13:52:56Z</time>
      </trkpt>
      <trkpt lat="47.26892" lon="-2.1619">
        <ele>7.2</ele>
        <time>2020-06-05T13:52:57Z</time>
      </trkpt>
      <trkpt lat="47.26897" lon="-2.16193">
        <ele>7.3</ele>
        <time>2020-06-05T13:52:58Z</time>
      </trkpt>
      <trkpt lat="47.26902" lon="-2.16196">
        <ele>7.4</ele>
        <time>2020-06-05T13:52:59Z</time>
      </trkpt>
      <trkpt lat="47.26909" lon="-2.16196">
        <ele>7.4</ele>
        <time>2020-06-05T13:53:00Z</time>
      </trkpt>
      <trkpt lat="47.26916" lon="-2.16197">
        <ele>7.4</ele>
        <time>2020-06-05T13:53:01Z</time>
      </trkpt>
      <trkpt lat="47.26922" lon="-2.162">
        <ele>7.5</ele>
        <time>2020-06-05T13:53:02Z</time>
      </trkpt>
      <trkpt lat="47.26929" lon="-2.16203">
        <ele>7.5</ele>
        <time>2020-06-05T13:53:03Z</time>
      </trkpt>
      <trkpt lat="47.26936" lon="-2.16206">
        <ele>7.7</ele>
        <time>2020-06-05T13:53:04Z</time>
      </trkpt>
      <trkpt lat="47.26941" lon="-2.16209">
        <ele>7.8</ele>
        <time>2020-06-05T13:53:05Z</time>
      </trkpt>
      <trkpt lat="47.26947" lon="-2.1621">
        <ele>7.8</ele>
        <time>2020-06-05T13:53:06Z</time>
      </trkpt>
      <trkpt lat="47.26954" lon="-2.16212">
        <ele>7.8</ele>
        <time>2020-06-05T13:53:07Z</time>
      </trkpt>
      <trkpt lat="47.26962" lon="-2.16215">
        <ele>7.8</ele>
        <time>2020-06-05T13:53:08Z</time>
      </trkpt>
      <trkpt lat="47.26968" lon="-2.16216">
        <ele>7.8</ele>
        <time>2020-06-05T13:53:09Z</time>
      </trkpt>
      <trkpt lat="47.26975" lon="-2.16218">
        <ele>7.8</ele>
        <time>2020-06-05T13:53:10Z</time>
      </trkpt>
      <trkpt lat="47.26982" lon="-2.1622">
        <ele>7.9</ele>
        <time>2020-06-05T13:53:11Z</time>
      </trkpt>
      <trkpt lat="47.26989" lon="-2.16223">
        <ele>7.9</ele>
        <time>2020-06-05T13:53:12Z</time>
      </trkpt>
      <trkpt lat="47.26997" lon="-2.16225">
        <ele>8</ele>
        <time>2020-06-05T13:53:13Z</time>
      </trkpt>
      <trkpt lat="47.27005" lon="-2.16227">
        <ele>8.1</ele>
        <time>2020-06-05T13:53:14Z</time>
      </trkpt>
      <trkpt lat="47.27012" lon="-2.16229">
        <ele>8.1</ele>
        <time>2020-06-05T13:53:15Z</time>
      </trkpt>
      <trkpt lat="47.27018" lon="-2.16232">
        <ele>8.1</ele>
        <time>2020-06-05T13:53:16Z</time>
      </trkpt>
      <trkpt lat="47.27026" lon="-2.16235">
        <ele>8.2</ele>
        <time>2020-06-05T13:53:17Z</time>
      </trkpt>
      <trkpt lat="47.27033" lon="-2.16236">
        <ele>8.2</ele>
        <time>2020-06-05T13:53:18Z</time>
      </trkpt>
      <trkpt lat="47.2704" lon="-2.16238">
        <ele>8.2</ele>
        <time>2020-06-05T13:53:19Z</time>
      </trkpt>
      <trkpt lat="47.27047" lon="-2.16241">
        <ele>8.2</ele>
        <time>2020-06-05T13:53:20Z</time>
      </trkpt>
      <trkpt lat="47.27054" lon="-2.16242">
        <ele>8.3</ele>
        <time>2020-06-05T13:53:21Z</time>
      </trkpt>
      <trkpt lat="47.27061" lon="-2.16244">
        <ele>8.3</ele>
        <time>2020-06-05T13:53:22Z</time>
      </trkpt>
      <trkpt lat="47.27067" lon="-2.16246">
        <ele>8.3</ele>
        <time>2020-06-05T13:53:23Z</time>
      </trkpt>
      <trkpt lat="47.27074" lon="-2.16248">
        <ele>8.4</ele>
        <time>2020-06-05T13:53:24Z</time>
      </trkpt>
      <trkpt lat="47.27081" lon="-2.1625">
        <ele>8.4</ele>
        <time>2020-06-05T13:53:25Z</time>
      </trkpt>
      <trkpt lat="47.27088" lon="-2.16254">
        <ele>8.4</ele>
        <time>2020-06-05T13:53:26Z</time>
      </trkpt>
      <trkpt lat="47.27094" lon="-2.16256">
        <ele>8.4</ele>
        <time>2020-06-05T13:53:27Z</time>
      </trkpt>
      <trkpt lat="47.271" lon="-2.16257">
        <ele>8.4</ele>
        <time>2020-06-05T13:53:28Z</time>
      </trkpt>
      <trkpt lat="47.27106" lon="-2.16259">
        <ele>8.4</ele>
        <time>2020-06-05T13:53:29Z</time>
      </trkpt>
      <trkpt lat="47.27113" lon="-2.16261">
        <ele>8.5</ele>
        <time>2020-06-05T13:53:30Z</time>
      </trkpt>
      <trkpt lat="47.27119" lon="-2.16262">
        <ele>8.5</ele>
        <time>2020-06-05T13:53:31Z</time>
      </trkpt>
      <trkpt lat="47.27126" lon="-2.16264">
        <ele>8.5</ele>
        <time>2020-06-05T13:53:32Z</time>
      </trkpt>
      <trkpt lat="47.27132" lon="-2.16266">
        <ele>8.5</ele>
        <time>2020-06-05T13:53:33Z</time>
      </trkpt>
      <trkpt lat="47.2714" lon="-2.16268">
        <ele>8.5</ele>
        <time>2020-06-05T13:53:34Z</time>
      </trkpt>
      <trkpt lat="47.27146" lon="-2.1627">
        <ele>8.6</ele>
        <time>2020-06-05T13:53:35Z</time>
      </trkpt>
      <trkpt lat="47.27153" lon="-2.16271">
        <ele>8.6</ele>
        <time>2020-06-05T13:53:36Z</time>
      </trkpt>
      <trkpt lat="47.2716" lon="-2.16274">
        <ele>8.6</ele>
        <time>2020-06-05T13:53:37Z</time>
      </trkpt>
      <trkpt lat="47.27167" lon="-2.16276">
        <ele>8.7</ele>
        <time>2020-06-05T13:53:38Z</time>
      </trkpt>
      <trkpt lat="47.27173" lon="-2.16279">
        <ele>8.7</ele>
        <time>2020-06-05T13:53:39Z</time>
      </trkpt>
      <trkpt lat="47.2718" lon="-2.16281">
        <ele>8.8</ele>
        <time>2020-06-05T13:53:40Z</time>
      </trkpt>
      <trkpt lat="47.27186" lon="-2.16283">
        <ele>8.8</ele>
        <time>2020-06-05T13:53:41Z</time>
      </trkpt>
      <trkpt lat="47.27193" lon="-2.16285">
        <ele>8.8</ele>
        <time>2020-06-05T13:53:42Z</time>
      </trkpt>
      <trkpt lat="47.27199" lon="-2.16287">
        <ele>8.9</ele>
        <time>2020-06-05T13:53:43Z</time>
      </trkpt>
      <trkpt lat="47.27206" lon="-2.16288">
        <ele>8.9</ele>
        <time>2020-06-05T13:53:44Z</time>
      </trkpt>
      <trkpt lat="47.27212" lon="-2.16289">
        <ele>8.9</ele>
        <time>2020-06-05T13:53:45Z</time>
      </trkpt>
      <trkpt lat="47.27219" lon="-2.16291">
        <ele>8.9</ele>
        <time>2020-06-05T13:53:46Z</time>
      </trkpt>
      <trkpt lat="47.27225" lon="-2.16293">
        <ele>9</ele>
        <time>2020-06-05T13:53:47Z</time>
      </trkpt>
      <trkpt lat="47.27231" lon="-2.16296">
        <ele>9</ele>
        <time>2020-06-05T13:53:48Z</time>
      </trkpt>
      <trkpt lat="47.27238" lon="-2.16298">
        <ele>9</ele>
        <time>2020-06-05T13:53:49Z</time>
      </trkpt>
      <trkpt lat="47.27244" lon="-2.163">
        <ele>9</ele>
        <time>2020-06-05T13:53:50Z</time>
      </trkpt>
      <trkpt lat="47.2725" lon="-2.16303">
        <ele>9.1</ele>
        <time>2020-06-05T13:53:51Z</time>
      </trkpt>
      <trkpt lat="47.27257" lon="-2.16304">
        <ele>9.1</ele>
        <time>2020-06-05T13:53:52Z</time>
      </trkpt>
      <trkpt lat="47.27263" lon="-2.16307">
        <ele>9.1</ele>
        <time>2020-06-05T13:53:53Z</time>
      </trkpt>
      <trkpt lat="47.27269" lon="-2.16309">
        <ele>9.1</ele>
        <time>2020-06-05T13:53:54Z</time>
      </trkpt>
      <trkpt lat="47.27276" lon="-2.16311">
        <ele>9.1</ele>
        <time>2020-06-05T13:53:55Z</time>
      </trkpt>
      <trkpt lat="47.27282" lon="-2.16313">
        <ele>9.1</ele>
        <time>2020-06-05T13:53:56Z</time>
      </trkpt>
      <trkpt lat="47.27288" lon="-2.16314">
        <ele>9.1</ele>
        <time>2020-06-05T13:53:57Z</time>
      </trkpt>
      <trkpt lat="47.27295" lon="-2.16316">
        <ele>9.1</ele>
        <time>2020-06-05T13:53:58Z</time>
      </trkpt>
      <trkpt lat="47.27301" lon="-2.16317">
        <ele>9.1</ele>
        <time>2020-06-05T13:53:59Z</time>
      </trkpt>
      <trkpt lat="47.27308" lon="-2.16319">
        <ele>9.1</ele>
        <time>2020-06-05T13:54:00Z</time>
      </trkpt>
      <trkpt lat="47.27314" lon="-2.1632">
        <ele>9.1</ele>
        <time>2020-06-05T13:54:01Z</time>
      </trkpt>
      <trkpt lat="47.2732" lon="-2.16322">
        <ele>9.2</ele>
        <time>2020-06-05T13:54:02Z</time>
      </trkpt>
      <trkpt lat="47.27326" lon="-2.16324">
        <ele>9.2</ele>
        <time>2020-06-05T13:54:03Z</time>
      </trkpt>
      <trkpt lat="47.27333" lon="-2.16326">
        <ele>9.2</ele>
        <time>2020-06-05T13:54:04Z</time>
      </trkpt>
      <trkpt lat="47.27339" lon="-2.16329">
        <ele>9.2</ele>
        <time>2020-06-05T13:54:05Z</time>
      </trkpt>
      <trkpt lat="47.27346" lon="-2.16331">
        <ele>9.2</ele>
        <time>2020-06-05T13:54:06Z</time>
      </trkpt>
      <trkpt lat="47.27352" lon="-2.16333">
        <ele>9.2</ele>
        <time>2020-06-05T13:54:07Z</time>
      </trkpt>
      <trkpt lat="47.27359" lon="-2.16335">
        <ele>9.3</ele>
        <time>2020-06-05T13:54:08Z</time>
      </trkpt>
      <trkpt lat="47.27365" lon="-2.16337">
        <ele>9.3</ele>
        <time>2020-06-05T13:54:09Z</time>
      </trkpt>
      <trkpt lat="47.27371" lon="-2.16339">
        <ele>9.3</ele>
        <time>2020-06-05T13:54:10Z</time>
      </trkpt>
      <trkpt lat="47.27377" lon="-2.16341">
        <ele>9.3</ele>
        <time>2020-06-05T13:54:11Z</time>
      </trkpt>
      <trkpt lat="47.27383" lon="-2.16343">
        <ele>9.3</ele>
        <time>2020-06-05T13:54:12Z</time>
      </trkpt>
      <trkpt lat="47.27389" lon="-2.16345">
        <ele>9.4</ele>
        <time>2020-06-05T13:54:13Z</time>
      </trkpt>
      <trkpt lat="47.27394" lon="-2.16347">
        <ele>9.5</ele>
        <time>2020-06-05T13:54:14Z</time>
      </trkpt>
      <trkpt lat="47.274" lon="-2.16349">
        <ele>9.5</ele>
        <time>2020-06-05T13:54:15Z</time>
      </trkpt>
      <trkpt lat="47.27406" lon="-2.1635">
        <ele>9.6</ele>
        <time>2020-06-05T13:54:16Z</time>
      </trkpt>
      <trkpt lat="47.27412" lon="-2.16353">
        <ele>9.6</ele>
        <time>2020-06-05T13:54:17Z</time>
      </trkpt>
      <trkpt lat="47.27418" lon="-2.16356">
        <ele>9.6</ele>
        <time>2020-06-05T13:54:18Z</time>
      </trkpt>
      <trkpt lat="47.27425" lon="-2.16359">
        <ele>11.1</ele>
        <time>2020-06-05T13:54:19Z</time>
      </trkpt>
      <trkpt lat="47.27432" lon="-2.16361">
        <ele>11.8</ele>
        <time>2020-06-05T13:54:20Z</time>
      </trkpt>
      <trkpt lat="47.27438" lon="-2.16363">
        <ele>12.2</ele>
        <time>2020-06-05T13:54:21Z</time>
      </trkpt>
      <trkpt lat="47.27444" lon="-2.16366">
        <ele>12.5</ele>
        <time>2020-06-05T13:54:22Z</time>
      </trkpt>
      <trkpt lat="47.2745" lon="-2.16368">
        <ele>12.8</ele>
        <time>2020-06-05T13:54:23Z</time>
      </trkpt>
      <trkpt lat="47.27457" lon="-2.1637">
        <ele>13</ele>
        <time>2020-06-05T13:54:24Z</time>
      </trkpt>
      <trkpt lat="47.27463" lon="-2.16372">
        <ele>13.2</ele>
        <time>2020-06-05T13:54:25Z</time>
      </trkpt>
      <trkpt lat="47.27469" lon="-2.16374">
        <ele>13.4</ele>
        <time>2020-06-05T13:54:26Z</time>
      </trkpt>
      <trkpt lat="47.27475" lon="-2.16374">
        <ele>13.5</ele>
        <time>2020-06-05T13:54:27Z</time>
      </trkpt>
      <trkpt lat="47.2748" lon="-2.16376">
        <ele>13.7</ele>
        <time>2020-06-05T13:54:28Z</time>
      </trkpt>
      <trkpt lat="47.27485" lon="-2.16378">
        <ele>13.8</ele>
        <time>2020-06-05T13:54:29Z</time>
      </trkpt>
      <trkpt lat="47.27492" lon="-2.16381">
        <ele>14</ele>
        <time>2020-06-05T13:54:30Z</time>
      </trkpt>
      <trkpt lat="47.27498" lon="-2.16383">
        <ele>14.2</ele>
        <time>2020-06-05T13:54:31Z</time>
      </trkpt>
      <trkpt lat="47.27504" lon="-2.16386">
        <ele>14.3</ele>
        <time>2020-06-05T13:54:32Z</time>
      </trkpt>
      <trkpt lat="47.27511" lon="-2.16389">
        <ele>14.4</ele>
        <time>2020-06-05T13:54:33Z</time>
      </trkpt>
      <trkpt lat="47.27516" lon="-2.16392">
        <ele>14.5</ele>
        <time>2020-06-05T13:54:34Z</time>
      </trkpt>
      <trkpt lat="47.27523" lon="-2.16394">
        <ele>14.6</ele>
        <time>2020-06-05T13:54:35Z</time>
      </trkpt>
      <trkpt lat="47.2753" lon="-2.16397">
        <ele>14.8</ele>
        <time>2020-06-05T13:54:36Z</time>
      </trkpt>
      <trkpt lat="47.27535" lon="-2.16399">
        <ele>15</ele>
        <time>2020-06-05T13:54:37Z</time>
      </trkpt>
      <trkpt lat="47.27541" lon="-2.16401">
        <ele>15.2</ele>
        <time>2020-06-05T13:54:38Z</time>
      </trkpt>
      <trkpt lat="47.27547" lon="-2.16403">
        <ele>15.4</ele>
        <time>2020-06-05T13:54:39Z</time>
      </trkpt>
      <trkpt lat="47.27551" lon="-2.16404">
        <ele>15.5</ele>
        <time>2020-06-05T13:54:40Z</time>
      </trkpt>
      <trkpt lat="47.27556" lon="-2.16406">
        <ele>15.6</ele>
        <time>2020-06-05T13:54:41Z</time>
      </trkpt>
      <trkpt lat="47.27562" lon="-2.16408">
        <ele>15.8</ele>
        <time>2020-06-05T13:54:42Z</time>
      </trkpt>
      <trkpt lat="47.27567" lon="-2.1641">
        <ele>16</ele>
        <time>2020-06-05T13:54:43Z</time>
      </trkpt>
      <trkpt lat="47.27572" lon="-2.16412">
        <ele>16.2</ele>
        <time>2020-06-05T13:54:44Z</time>
      </trkpt>
      <trkpt lat="47.27577" lon="-2.16415">
        <ele>16.5</ele>
        <time>2020-06-05T13:54:45Z</time>
      </trkpt>
      <trkpt lat="47.27583" lon="-2.16418">
        <ele>16.7</ele>
        <time>2020-06-05T13:54:46Z</time>
      </trkpt>
      <trkpt lat="47.27587" lon="-2.16421">
        <ele>16.9</ele>
        <time>2020-06-05T13:54:47Z</time>
      </trkpt>
      <trkpt lat="47.27592" lon="-2.16424">
        <ele>17</ele>
        <time>2020-06-05T13:54:48Z</time>
      </trkpt>
      <trkpt lat="47.27597" lon="-2.16425">
        <ele>17.2</ele>
        <time>2020-06-05T13:54:49Z</time>
      </trkpt>
      <trkpt lat="47.27602" lon="-2.16427">
        <ele>17.5</ele>
        <time>2020-06-05T13:54:50Z</time>
      </trkpt>
      <trkpt lat="47.27606" lon="-2.16429">
        <ele>17.7</ele>
        <time>2020-06-05T13:54:51Z</time>
      </trkpt>
      <trkpt lat="47.27611" lon="-2.1643">
        <ele>17.9</ele>
        <time>2020-06-05T13:54:52Z</time>
      </trkpt>
      <trkpt lat="47.27615" lon="-2.16432">
        <ele>18.1</ele>
        <time>2020-06-05T13:54:53Z</time>
      </trkpt>
      <trkpt lat="47.27619" lon="-2.16434">
        <ele>18.2</ele>
        <time>2020-06-05T13:54:54Z</time>
      </trkpt>
      <trkpt lat="47.27624" lon="-2.16436">
        <ele>18.4</ele>
        <time>2020-06-05T13:54:55Z</time>
      </trkpt>
      <trkpt lat="47.27627" lon="-2.16438">
        <ele>18.6</ele>
        <time>2020-06-05T13:54:56Z</time>
      </trkpt>
      <trkpt lat="47.27631" lon="-2.1644">
        <ele>18.8</ele>
        <time>2020-06-05T13:54:57Z</time>
      </trkpt>
      <trkpt lat="47.27636" lon="-2.16442">
        <ele>19</ele>
        <time>2020-06-05T13:54:58Z</time>
      </trkpt>
      <trkpt lat="47.2764" lon="-2.16444">
        <ele>19.2</ele>
        <time>2020-06-05T13:54:59Z</time>
      </trkpt>
      <trkpt lat="47.27645" lon="-2.16446">
        <ele>19.4</ele>
        <time>2020-06-05T13:55:00Z</time>
      </trkpt>
      <trkpt lat="47.2765" lon="-2.16448">
        <ele>19.6</ele>
        <time>2020-06-05T13:55:01Z</time>
      </trkpt>
      <trkpt lat="47.27654" lon="-2.1645">
        <ele>19.8</ele>
        <time>2020-06-05T13:55:02Z</time>
      </trkpt>
      <trkpt lat="47.27659" lon="-2.16453">
        <ele>20</ele>
        <time>2020-06-05T13:55:03Z</time>
      </trkpt>
      <trkpt lat="47.27664" lon="-2.16455">
        <ele>20.1</ele>
        <time>2020-06-05T13:55:04Z</time>
      </trkpt>
      <trkpt lat="47.27669" lon="-2.16458">
        <ele>20.3</ele>
        <time>2020-06-05T13:55:05Z</time>
      </trkpt>
      <trkpt lat="47.27674" lon="-2.16459">
        <ele>20.5</ele>
        <time>2020-06-05T13:55:06Z</time>
      </trkpt>
      <trkpt lat="47.27678" lon="-2.1646">
        <ele>20.7</ele>
        <time>2020-06-05T13:55:07Z</time>
      </trkpt>
      <trkpt lat="47.27682" lon="-2.16462">
        <ele>21</ele>
        <time>2020-06-05T13:55:08Z</time>
      </trkpt>
      <trkpt lat="47.27686" lon="-2.16464">
        <ele>21.2</ele>
        <time>2020-06-05T13:55:09Z</time>
      </trkpt>
      <trkpt lat="47.27689" lon="-2.16466">
        <ele>21.4</ele>
        <time>2020-06-05T13:55:10Z</time>
      </trkpt>
      <trkpt lat="47.27693" lon="-2.16467">
        <ele>21.7</ele>
        <time>2020-06-05T13:55:11Z</time>
      </trkpt>
      <trkpt lat="47.27697" lon="-2.16469">
        <ele>21.9</ele>
        <time>2020-06-05T13:55:12Z</time>
      </trkpt>
      <trkpt lat="47.277" lon="-2.1647">
        <ele>22.1</ele>
        <time>2020-06-05T13:55:13Z</time>
      </trkpt>
      <trkpt lat="47.27703" lon="-2.16471">
        <ele>22.2</ele>
        <time>2020-06-05T13:55:14Z</time>
      </trkpt>
      <trkpt lat="47.27707" lon="-2.16473">
        <ele>22.4</ele>
        <time>2020-06-05T13:55:15Z</time>
      </trkpt>
      <trkpt lat="47.2771" lon="-2.16476">
        <ele>22.6</ele>
        <time>2020-06-05T13:55:16Z</time>
      </trkpt>
      <trkpt lat="47.27713" lon="-2.16478">
        <ele>22.8</ele>
        <time>2020-06-05T13:55:17Z</time>
      </trkpt>
      <trkpt lat="47.27716" lon="-2.16479">
        <ele>22.9</ele>
        <time>2020-06-05T13:55:18Z</time>
      </trkpt>
      <trkpt lat="47.27719" lon="-2.16481">
        <ele>23.1</ele>
        <time>2020-06-05T13:55:19Z</time>
      </trkpt>
      <trkpt lat="47.27723" lon="-2.16482">
        <ele>23.3</ele>
        <time>2020-06-05T13:55:20Z</time>
      </trkpt>
      <trkpt lat="47.27728" lon="-2.16485">
        <ele>23.5</ele>
        <time>2020-06-05T13:55:21Z</time>
      </trkpt>
      <trkpt lat="47.27732" lon="-2.16486">
        <ele>23.7</ele>
        <time>2020-06-05T13:55:22Z</time>
      </trkpt>
      <trkpt lat="47.27735" lon="-2.16488">
        <ele>23.9</ele>
        <time>2020-06-05T13:55:23Z</time>
      </trkpt>
      <trkpt lat="47.27738" lon="-2.16489">
        <ele>24</ele>
        <time>2020-06-05T13:55:24Z</time>
      </trkpt>
      <trkpt lat="47.27742" lon="-2.16491">
        <ele>24.2</ele>
        <time>2020-06-05T13:55:25Z</time>
      </trkpt>
      <trkpt lat="47.27745" lon="-2.16493">
        <ele>24.4</ele>
        <time>2020-06-05T13:55:26Z</time>
      </trkpt>
      <trkpt lat="47.27748" lon="-2.16495">
        <ele>24.5</ele>
        <time>2020-06-05T13:55:27Z</time>
      </trkpt>
      <trkpt lat="47.27751" lon="-2.16496">
        <ele>24.7</ele>
        <time>2020-06-05T13:55:28Z</time>
      </trkpt>
      <trkpt lat="47.27754" lon="-2.16497">
        <ele>24.9</ele>
        <time>2020-06-05T13:55:29Z</time>
      </trkpt>
      <trkpt lat="47.27757" lon="-2.16499">
        <ele>25</ele>
        <time>2020-06-05T13:55:30Z</time>
      </trkpt>
      <trkpt lat="47.2776" lon="-2.16501">
        <ele>25.2</ele>
        <time>2020-06-05T13:55:31Z</time>
      </trkpt>
      <trkpt lat="47.27762" lon="-2.16502">
        <ele>25.3</ele>
        <time>2020-06-05T13:55:32Z</time>
      </trkpt>
      <trkpt lat="47.27765" lon="-2.16503">
        <ele>25.4</ele>
        <time>2020-06-05T13:55:33Z</time>
      </trkpt>
      <trkpt lat="47.27766" lon="-2.16504">
        <ele>25.5</ele>
        <time>2020-06-05T13:55:34Z</time>
      </trkpt>
      <trkpt lat="47.27769" lon="-2.16506">
        <ele>25.6</ele>
        <time>2020-06-05T13:55:35Z</time>
      </trkpt>
      <trkpt lat="47.27772" lon="-2.16509">
        <ele>25.8</ele>
        <time>2020-06-05T13:55:36Z</time>
      </trkpt>
      <trkpt lat="47.27773" lon="-2.1651">
        <ele>25.8</ele>
        <time>2020-06-05T13:55:37Z</time>
      </trkpt>
      <trkpt lat="47.27775" lon="-2.16512">
        <ele>26</ele>
        <time>2020-06-05T13:55:38Z</time>
      </trkpt>
      <trkpt lat="47.27778" lon="-2.16514">
        <ele>26.1</ele>
        <time>2020-06-05T13:55:39Z</time>
      </trkpt>
      <trkpt lat="47.27779" lon="-2.16514">
        <ele>26.2</ele>
        <time>2020-06-05T13:55:40Z</time>
      </trkpt>
      <trkpt lat="47.27782" lon="-2.16514">
        <ele>26.3</ele>
        <time>2020-06-05T13:55:41Z</time>
      </trkpt>
      <trkpt lat="47.27784" lon="-2.16515">
        <ele>26.5</ele>
        <time>2020-06-05T13:55:42Z</time>
      </trkpt>
      <trkpt lat="47.27787" lon="-2.16517">
        <ele>26.6</ele>
        <time>2020-06-05T13:55:43Z</time>
      </trkpt>
      <trkpt lat="47.27791" lon="-2.16518">
        <ele>26.8</ele>
        <time>2020-06-05T13:55:44Z</time>
      </trkpt>
      <trkpt lat="47.27794" lon="-2.16521">
        <ele>27</ele>
        <time>2020-06-05T13:55:45Z</time>
      </trkpt>
      <trkpt lat="47.27798" lon="-2.16523">
        <ele>27.2</ele>
        <time>2020-06-05T13:55:46Z</time>
      </trkpt>
      <trkpt lat="47.27803" lon="-2.16525">
        <ele>27.5</ele>
        <time>2020-06-05T13:55:47Z</time>
      </trkpt>
      <trkpt lat="47.27806" lon="-2.16527">
        <ele>27.7</ele>
        <time>2020-06-05T13:55:48Z</time>
      </trkpt>
      <trkpt lat="47.2781" lon="-2.16528">
        <ele>27.8</ele>
        <time>2020-06-05T13:55:49Z</time>
      </trkpt>
      <trkpt lat="47.27812" lon="-2.16529">
        <ele>28</ele>
        <time>2020-06-05T13:55:50Z</time>
      </trkpt>
      <trkpt lat="47.27815" lon="-2.1653">
        <ele>28.2</ele>
        <time>2020-06-05T13:55:51Z</time>
      </trkpt>
      <trkpt lat="47.27818" lon="-2.16531">
        <ele>28.4</ele>
        <time>2020-06-05T13:55:52Z</time>
      </trkpt>
      <trkpt lat="47.27821" lon="-2.16533">
        <ele>28.6</ele>
        <time>2020-06-05T13:55:53Z</time>
      </trkpt>
      <trkpt lat="47.27824" lon="-2.16535">
        <ele>28.8</ele>
        <time>2020-06-05T13:55:54Z</time>
      </trkpt>
      <trkpt lat="47.27825" lon="-2.16536">
        <ele>28.8</ele>
        <time>2020-06-05T13:55:55Z</time>
      </trkpt>
      <trkpt lat="47.27829" lon="-2.16538">
        <ele>29</ele>
        <time>2020-06-05T13:55:56Z</time>
      </trkpt>
      <trkpt lat="47.2783" lon="-2.16539">
        <ele>29.1</ele>
        <time>2020-06-05T13:55:57Z</time>
      </trkpt>
      <trkpt lat="47.27833" lon="-2.16542">
        <ele>29.2</ele>
        <time>2020-06-05T13:55:58Z</time>
      </trkpt>
      <trkpt lat="47.27836" lon="-2.16544">
        <ele>29.4</ele>
        <time>2020-06-05T13:55:59Z</time>
      </trkpt>
      <trkpt lat="47.27838" lon="-2.16546">
        <ele>29.5</ele>
        <time>2020-06-05T13:56:00Z</time>
      </trkpt>
      <trkpt lat="47.27841" lon="-2.16549">
        <ele>29.7</ele>
        <time>2020-06-05T13:56:01Z</time>
      </trkpt>
      <trkpt lat="47.27842" lon="-2.16549">
        <ele>29.7</ele>
        <time>2020-06-05T13:56:02Z</time>
      </trkpt>
      <trkpt lat="47.27845" lon="-2.16551">
        <ele>29.9</ele>
        <time>2020-06-05T13:56:03Z</time>
      </trkpt>
      <trkpt lat="47.27848" lon="-2.16552">
        <ele>30.1</ele>
        <time>2020-06-05T13:56:04Z</time>
      </trkpt>
      <trkpt lat="47.2785" lon="-2.16554">
        <ele>30.2</ele>
        <time>2020-06-05T13:56:05Z</time>
      </trkpt>
      <trkpt lat="47.27853" lon="-2.16556">
        <ele>30.4</ele>
        <time>2020-06-05T13:56:06Z</time>
      </trkpt>
      <trkpt lat="47.27856" lon="-2.16558">
        <ele>30.6</ele>
        <time>2020-06-05T13:56:07Z</time>
      </trkpt>
      <trkpt lat="47.2786" lon="-2.16559">
        <ele>30.8</ele>
        <time>2020-06-05T13:56:08Z</time>
      </trkpt>
      <trkpt lat="47.27864" lon="-2.16561">
        <ele>31</ele>
        <time>2020-06-05T13:56:09Z</time>
      </trkpt>
      <trkpt lat="47.27867" lon="-2.16562">
        <ele>31.2</ele>
        <time>2020-06-05T13:56:10Z</time>
      </trkpt>
      <trkpt lat="47.27868" lon="-2.16563">
        <ele>31.3</ele>
        <time>2020-06-05T13:56:11Z</time>
      </trkpt>
      <trkpt lat="47.27871" lon="-2.16565">
        <ele>31.5</ele>
        <time>2020-06-05T13:56:12Z</time>
      </trkpt>
      <trkpt lat="47.27874" lon="-2.16568">
        <ele>31.7</ele>
        <time>2020-06-05T13:56:13Z</time>
      </trkpt>
      <trkpt lat="47.27875" lon="-2.16568">
        <ele>31.8</ele>
        <time>2020-06-05T13:56:14Z</time>
      </trkpt>
      <trkpt lat="47.27878" lon="-2.16571">
        <ele>32</ele>
        <time>2020-06-05T13:56:15Z</time>
      </trkpt>
      <trkpt lat="47.2788" lon="-2.16572">
        <ele>32.1</ele>
        <time>2020-06-05T13:56:16Z</time>
      </trkpt>
      <trkpt lat="47.27883" lon="-2.16573">
        <ele>32.3</ele>
        <time>2020-06-05T13:56:17Z</time>
      </trkpt>
      <trkpt lat="47.27887" lon="-2.16575">
        <ele>32.5</ele>
        <time>2020-06-05T13:56:18Z</time>
      </trkpt>
      <trkpt lat="47.27889" lon="-2.16576">
        <ele>32.7</ele>
        <time>2020-06-05T13:56:19Z</time>
      </trkpt>
      <trkpt lat="47.27892" lon="-2.16578">
        <ele>32.9</ele>
        <time>2020-06-05T13:56:20Z</time>
      </trkpt>
      <trkpt lat="47.27895" lon="-2.16579">
        <ele>33.1</ele>
        <time>2020-06-05T13:56:21Z</time>
      </trkpt>
      <trkpt lat="47.27898" lon="-2.1658">
        <ele>33.2</ele>
        <time>2020-06-05T13:56:22Z</time>
      </trkpt>
      <trkpt lat="47.27901" lon="-2.16581">
        <ele>33.4</ele>
        <time>2020-06-05T13:56:23Z</time>
      </trkpt>
      <trkpt lat="47.27904" lon="-2.16583">
        <ele>33.6</ele>
        <time>2020-06-05T13:56:24Z</time>
      </trkpt>
      <trkpt lat="47.27908" lon="-2.16585">
        <ele>33.8</ele>
        <time>2020-06-05T13:56:25Z</time>
      </trkpt>
      <trkpt lat="47.2791" lon="-2.16588">
        <ele>34</ele>
        <time>2020-06-05T13:56:26Z</time>
      </trkpt>
      <trkpt lat="47.27914" lon="-2.1659">
        <ele>34.2</ele>
        <time>2020-06-05T13:56:27Z</time>
      </trkpt>
      <trkpt lat="47.27916" lon="-2.16591">
        <ele>34.3</ele>
        <time>2020-06-05T13:56:28Z</time>
      </trkpt>
      <trkpt lat="47.27919" lon="-2.16592">
        <ele>34.5</ele>
        <time>2020-06-05T13:56:29Z</time>
      </trkpt>
      <trkpt lat="47.27921" lon="-2.16594">
        <ele>34.6</ele>
        <time>2020-06-05T13:56:30Z</time>
      </trkpt>
      <trkpt lat="47.27924" lon="-2.16596">
        <ele>34.8</ele>
        <time>2020-06-05T13:56:31Z</time>
      </trkpt>
      <trkpt lat="47.27927" lon="-2.16597">
        <ele>35</ele>
        <time>2020-06-05T13:56:32Z</time>
      </trkpt>
      <trkpt lat="47.2793" lon="-2.16599">
        <ele>35.1</ele>
        <time>2020-06-05T13:56:33Z</time>
      </trkpt>
      <trkpt lat="47.27933" lon="-2.16602">
        <ele>35.3</ele>
        <time>2020-06-05T13:56:34Z</time>
      </trkpt>
      <trkpt lat="47.27936" lon="-2.16604">
        <ele>35.5</ele>
        <time>2020-06-05T13:56:35Z</time>
      </trkpt>
      <trkpt lat="47.27939" lon="-2.16607">
        <ele>35.7</ele>
        <time>2020-06-05T13:56:36Z</time>
      </trkpt>
      <trkpt lat="47.2794" lon="-2.16608">
        <ele>35.8</ele>
        <time>2020-06-05T13:56:37Z</time>
      </trkpt>
      <trkpt lat="47.27944" lon="-2.1661">
        <ele>36.1</ele>
        <time>2020-06-05T13:56:38Z</time>
      </trkpt>
      <trkpt lat="47.27946" lon="-2.16611">
        <ele>36.2</ele>
        <time>2020-06-05T13:56:39Z</time>
      </trkpt>
      <trkpt lat="47.27948" lon="-2.16614">
        <ele>36.3</ele>
        <time>2020-06-05T13:56:40Z</time>
      </trkpt>
      <trkpt lat="47.27952" lon="-2.16615">
        <ele>36.5</ele>
        <time>2020-06-05T13:56:41Z</time>
      </trkpt>
      <trkpt lat="47.27955" lon="-2.16616">
        <ele>36.7</ele>
        <time>2020-06-05T13:56:42Z</time>
      </trkpt>
      <trkpt lat="47.27958" lon="-2.16618">
        <ele>36.9</ele>
        <time>2020-06-05T13:56:43Z</time>
      </trkpt>
      <trkpt lat="47.27961" lon="-2.16621">
        <ele>37.1</ele>
        <time>2020-06-05T13:56:44Z</time>
      </trkpt>
      <trkpt lat="47.27962" lon="-2.16621">
        <ele>37.2</ele>
        <time>2020-06-05T13:56:45Z</time>
      </trkpt>
      <trkpt lat="47.27965" lon="-2.16624">
        <ele>37.4</ele>
        <time>2020-06-05T13:56:46Z</time>
      </trkpt>
      <trkpt lat="47.27966" lon="-2.16625">
        <ele>37.5</ele>
        <time>2020-06-05T13:56:47Z</time>
      </trkpt>
      <trkpt lat="47.2797" lon="-2.16627">
        <ele>37.8</ele>
        <time>2020-06-05T13:56:48Z</time>
      </trkpt>
      <trkpt lat="47.27971" lon="-2.16628">
        <ele>37.8</ele>
        <time>2020-06-05T13:56:49Z</time>
      </trkpt>
      <trkpt lat="47.27975" lon="-2.16628">
        <ele>38.1</ele>
        <time>2020-06-05T13:56:50Z</time>
      </trkpt>
      <trkpt lat="47.27978" lon="-2.1663">
        <ele>38.2</ele>
        <time>2020-06-05T13:56:51Z</time>
      </trkpt>
      <trkpt lat="47.27981" lon="-2.16632">
        <ele>38.4</ele>
        <time>2020-06-05T13:56:52Z</time>
      </trkpt>
      <trkpt lat="47.27984" lon="-2.16634">
        <ele>38.5</ele>
        <time>2020-06-05T13:56:53Z</time>
      </trkpt>
      <trkpt lat="47.27986" lon="-2.16637">
        <ele>38.7</ele>
        <time>2020-06-05T13:56:54Z</time>
      </trkpt>
      <trkpt lat="47.2799" lon="-2.16639">
        <ele>38.9</ele>
        <time>2020-06-05T13:56:55Z</time>
      </trkpt>
      <trkpt lat="47.27993" lon="-2.16641">
        <ele>39.1</ele>
        <time>2020-06-05T13:56:56Z</time>
      </trkpt>
      <trkpt lat="47.27996" lon="-2.16643">
        <ele>39.2</ele>
        <time>2020-06-05T13:56:57Z</time>
      </trkpt>
      <trkpt lat="47.27999" lon="-2.16646">
        <ele>39.4</ele>
        <time>2020-06-05T13:56:58Z</time>
      </trkpt>
      <trkpt lat="47.28002" lon="-2.16647">
        <ele>39.6</ele>
        <time>2020-06-05T13:56:59Z</time>
      </trkpt>
      <trkpt lat="47.28005" lon="-2.16651">
        <ele>39.8</ele>
        <time>2020-06-05T13:57:00Z</time>
      </trkpt>
      <trkpt lat="47.28008" lon="-2.16653">
        <ele>40</ele>
        <time>2020-06-05T13:57:01Z</time>
      </trkpt>
      <trkpt lat="47.28011" lon="-2.16655">
        <ele>40.2</ele>
        <time>2020-06-05T13:57:02Z</time>
      </trkpt>
      <trkpt lat="47.28014" lon="-2.16657">
        <ele>40.4</ele>
        <time>2020-06-05T13:57:03Z</time>
      </trkpt>
      <trkpt lat="47.28017" lon="-2.1666">
        <ele>40.6</ele>
        <time>2020-06-05T13:57:04Z</time>
      </trkpt>
      <trkpt lat="47.2802" lon="-2.16662">
        <ele>40.7</ele>
        <time>2020-06-05T13:57:05Z</time>
      </trkpt>
      <trkpt lat="47.28023" lon="-2.16664">
        <ele>40.9</ele>
        <time>2020-06-05T13:57:06Z</time>
      </trkpt>
      <trkpt lat="47.28024" lon="-2.16665">
        <ele>40.9</ele>
        <time>2020-06-05T13:57:07Z</time>
      </trkpt>
      <trkpt lat="47.28027" lon="-2.16666">
        <ele>41.1</ele>
        <time>2020-06-05T13:57:08Z</time>
      </trkpt>
      <trkpt lat="47.28031" lon="-2.16668">
        <ele>41.3</ele>
        <time>2020-06-05T13:57:09Z</time>
      </trkpt>
      <trkpt lat="47.28032" lon="-2.16668">
        <ele>41.3</ele>
        <time>2020-06-05T13:57:10Z</time>
      </trkpt>
      <trkpt lat="47.28036" lon="-2.16671">
        <ele>41.5</ele>
        <time>2020-06-05T13:57:11Z</time>
      </trkpt>
      <trkpt lat="47.2804" lon="-2.16672">
        <ele>41.7</ele>
        <time>2020-06-05T13:57:12Z</time>
      </trkpt>
      <trkpt lat="47.28043" lon="-2.16675">
        <ele>41.9</ele>
        <time>2020-06-05T13:57:13Z</time>
      </trkpt>
      <trkpt lat="47.28046" lon="-2.16677">
        <ele>42.1</ele>
        <time>2020-06-05T13:57:14Z</time>
      </trkpt>
      <trkpt lat="47.28049" lon="-2.16678">
        <ele>42.2</ele>
        <time>2020-06-05T13:57:15Z</time>
      </trkpt>
      <trkpt lat="47.28052" lon="-2.16681">
        <ele>42.3</ele>
        <time>2020-06-05T13:57:16Z</time>
      </trkpt>
      <trkpt lat="47.28053" lon="-2.16682">
        <ele>42.4</ele>
        <time>2020-06-05T13:57:17Z</time>
      </trkpt>
      <trkpt lat="47.28056" lon="-2.16684">
        <ele>42.5</ele>
        <time>2020-06-05T13:57:18Z</time>
      </trkpt>
      <trkpt lat="47.2806" lon="-2.16687">
        <ele>42.7</ele>
        <time>2020-06-05T13:57:19Z</time>
      </trkpt>
      <trkpt lat="47.28061" lon="-2.16688">
        <ele>42.8</ele>
        <time>2020-06-05T13:57:20Z</time>
      </trkpt>
      <trkpt lat="47.28065" lon="-2.1669">
        <ele>43</ele>
        <time>2020-06-05T13:57:21Z</time>
      </trkpt>
      <trkpt lat="47.28067" lon="-2.16692">
        <ele>43.2</ele>
        <time>2020-06-05T13:57:22Z</time>
      </trkpt>
      <trkpt lat="47.2807" lon="-2.16694">
        <ele>43.4</ele>
        <time>2020-06-05T13:57:23Z</time>
      </trkpt>
      <trkpt lat="47.28073" lon="-2.16696">
        <ele>43.5</ele>
        <time>2020-06-05T13:57:24Z</time>
      </trkpt>
      <trkpt lat="47.28075" lon="-2.167">
        <ele>43.7</ele>
        <time>2020-06-05T13:57:25Z</time>
      </trkpt>
      <trkpt lat="47.28076" lon="-2.16701">
        <ele>43.8</ele>
        <time>2020-06-05T13:57:26Z</time>
      </trkpt>
      <trkpt lat="47.28079" lon="-2.16703">
        <ele>44</ele>
        <time>2020-06-05T13:57:27Z</time>
      </trkpt>
      <trkpt lat="47.28081" lon="-2.16704">
        <ele>44.1</ele>
        <time>2020-06-05T13:57:28Z</time>
      </trkpt>
      <trkpt lat="47.28085" lon="-2.16706">
        <ele>44.3</ele>
        <time>2020-06-05T13:57:29Z</time>
      </trkpt>
      <trkpt lat="47.28086" lon="-2.16707">
        <ele>44.4</ele>
        <time>2020-06-05T13:57:30Z</time>
      </trkpt>
      <trkpt lat="47.2809" lon="-2.1671">
        <ele>44.6</ele>
        <time>2020-06-05T13:57:31Z</time>
      </trkpt>
      <trkpt lat="47.28091" lon="-2.16711">
        <ele>44.7</ele>
        <time>2020-06-05T13:57:32Z</time>
      </trkpt>
      <trkpt lat="47.28094" lon="-2.16711">
        <ele>44.9</ele>
        <time>2020-06-05T13:57:33Z</time>
      </trkpt>
      <trkpt lat="47.28097" lon="-2.16712">
        <ele>45.1</ele>
        <time>2020-06-05T13:57:34Z</time>
      </trkpt>
      <trkpt lat="47.28101" lon="-2.16715">
        <ele>45.3</ele>
        <time>2020-06-05T13:57:35Z</time>
      </trkpt>
      <trkpt lat="47.28103" lon="-2.16717">
        <ele>45.4</ele>
        <time>2020-06-05T13:57:36Z</time>
      </trkpt>
      <trkpt lat="47.28105" lon="-2.16719">
        <ele>45.6</ele>
        <time>2020-06-05T13:57:37Z</time>
      </trkpt>
      <trkpt lat="47.28108" lon="-2.16722">
        <ele>45.8</ele>
        <time>2020-06-05T13:57:38Z</time>
      </trkpt>
      <trkpt lat="47.28111" lon="-2.16724">
        <ele>45.9</ele>
        <time>2020-06-05T13:57:39Z</time>
      </trkpt>
      <trkpt lat="47.28114" lon="-2.16726">
        <ele>46.1</ele>
        <time>2020-06-05T13:57:40Z</time>
      </trkpt>
      <trkpt lat="47.28117" lon="-2.16728">
        <ele>46.2</ele>
        <time>2020-06-05T13:57:41Z</time>
      </trkpt>
      <trkpt lat="47.2812" lon="-2.1673">
        <ele>46.4</ele>
        <time>2020-06-05T13:57:42Z</time>
      </trkpt>
      <trkpt lat="47.28123" lon="-2.16732">
        <ele>46.5</ele>
        <time>2020-06-05T13:57:43Z</time>
      </trkpt>
      <trkpt lat="47.28126" lon="-2.16735">
        <ele>46.7</ele>
        <time>2020-06-05T13:57:44Z</time>
      </trkpt>
      <trkpt lat="47.28129" lon="-2.16737">
        <ele>46.9</ele>
        <time>2020-06-05T13:57:45Z</time>
      </trkpt>
      <trkpt lat="47.28131" lon="-2.16739">
        <ele>47</ele>
        <time>2020-06-05T13:57:46Z</time>
      </trkpt>
      <trkpt lat="47.28135" lon="-2.16741">
        <ele>47.2</ele>
        <time>2020-06-05T13:57:47Z</time>
      </trkpt>
      <trkpt lat="47.28136" lon="-2.16742">
        <ele>47.3</ele>
        <time>2020-06-05T13:57:48Z</time>
      </trkpt>
      <trkpt lat="47.28139" lon="-2.16744">
        <ele>47.5</ele>
        <time>2020-06-05T13:57:49Z</time>
      </trkpt>
      <trkpt lat="47.28141" lon="-2.16747">
        <ele>47.7</ele>
        <time>2020-06-05T13:57:50Z</time>
      </trkpt>
      <trkpt lat="47.28144" lon="-2.16749">
        <ele>47.9</ele>
        <time>2020-06-05T13:57:51Z</time>
      </trkpt>
      <trkpt lat="47.28147" lon="-2.16752">
        <ele>48</ele>
        <time>2020-06-05T13:57:52Z</time>
      </trkpt>
      <trkpt lat="47.28149" lon="-2.16754">
        <ele>48.2</ele>
        <time>2020-06-05T13:57:53Z</time>
      </trkpt>
      <trkpt lat="47.28152" lon="-2.16757">
        <ele>48.4</ele>
        <time>2020-06-05T13:57:54Z</time>
      </trkpt>
      <trkpt lat="47.28153" lon="-2.16759">
        <ele>48.4</ele>
        <time>2020-06-05T13:57:55Z</time>
      </trkpt>
      <trkpt lat="47.28156" lon="-2.16761">
        <ele>48.6</ele>
        <time>2020-06-05T13:57:56Z</time>
      </trkpt>
      <trkpt lat="47.28158" lon="-2.16764">
        <ele>48.8</ele>
        <time>2020-06-05T13:57:57Z</time>
      </trkpt>
      <trkpt lat="47.28163" lon="-2.16767">
        <ele>49</ele>
        <time>2020-06-05T13:57:58Z</time>
      </trkpt>
      <trkpt lat="47.28164" lon="-2.16768">
        <ele>49.1</ele>
        <time>2020-06-05T13:57:59Z</time>
      </trkpt>
      <trkpt lat="47.28168" lon="-2.16771">
        <ele>49.3</ele>
        <time>2020-06-05T13:58:00Z</time>
      </trkpt>
      <trkpt lat="47.28169" lon="-2.16771">
        <ele>49.4</ele>
        <time>2020-06-05T13:58:01Z</time>
      </trkpt>
      <trkpt lat="47.28171" lon="-2.16774">
        <ele>49.5</ele>
        <time>2020-06-05T13:58:02Z</time>
      </trkpt>
      <trkpt lat="47.28173" lon="-2.16777">
        <ele>49.7</ele>
        <time>2020-06-05T13:58:03Z</time>
      </trkpt>
      <trkpt lat="47.28174" lon="-2.16777">
        <ele>49.7</ele>
        <time>2020-06-05T13:58:04Z</time>
      </trkpt>
      <trkpt lat="47.28177" lon="-2.16779">
        <ele>49.9</ele>
        <time>2020-06-05T13:58:05Z</time>
      </trkpt>
      <trkpt lat="47.28178" lon="-2.1678">
        <ele>50</ele>
        <time>2020-06-05T13:58:06Z</time>
      </trkpt>
      <trkpt lat="47.28182" lon="-2.16781">
        <ele>50.2</ele>
        <time>2020-06-05T13:58:07Z</time>
      </trkpt>
      <trkpt lat="47.28184" lon="-2.16783">
        <ele>50.3</ele>
        <time>2020-06-05T13:58:08Z</time>
      </trkpt>
      <trkpt lat="47.28187" lon="-2.16785">
        <ele>50.5</ele>
        <time>2020-06-05T13:58:09Z</time>
      </trkpt>
      <trkpt lat="47.28191" lon="-2.16787">
        <ele>50.7</ele>
        <time>2020-06-05T13:58:10Z</time>
      </trkpt>
      <trkpt lat="47.28194" lon="-2.1679">
        <ele>50.9</ele>
        <time>2020-06-05T13:58:11Z</time>
      </trkpt>
      <trkpt lat="47.28197" lon="-2.16792">
        <ele>51.1</ele>
        <time>2020-06-05T13:58:12Z</time>
      </trkpt>
      <trkpt lat="47.28199" lon="-2.16794">
        <ele>51.2</ele>
        <time>2020-06-05T13:58:13Z</time>
      </trkpt>
      <trkpt lat="47.28202" lon="-2.16795">
        <ele>51.4</ele>
        <time>2020-06-05T13:58:14Z</time>
      </trkpt>
      <trkpt lat="47.28205" lon="-2.16799">
        <ele>51.6</ele>
        <time>2020-06-05T13:58:15Z</time>
      </trkpt>
      <trkpt lat="47.28209" lon="-2.16802">
        <ele>51.8</ele>
        <time>2020-06-05T13:58:16Z</time>
      </trkpt>
      <trkpt lat="47.28212" lon="-2.16804">
        <ele>52.1</ele>
        <time>2020-06-05T13:58:17Z</time>
      </trkpt>
      <trkpt lat="47.28216" lon="-2.16807">
        <ele>52.3</ele>
        <time>2020-06-05T13:58:18Z</time>
      </trkpt>
      <trkpt lat="47.28219" lon="-2.1681">
        <ele>52.6</ele>
        <time>2020-06-05T13:58:19Z</time>
      </trkpt>
      <trkpt lat="47.28223" lon="-2.16812">
        <ele>52.8</ele>
        <time>2020-06-05T13:58:20Z</time>
      </trkpt>
      <trkpt lat="47.28227" lon="-2.16815">
        <ele>53.1</ele>
        <time>2020-06-05T13:58:21Z</time>
      </trkpt>
      <trkpt lat="47.2823" lon="-2.16817">
        <ele>53.2</ele>
        <time>2020-06-05T13:58:22Z</time>
      </trkpt>
      <trkpt lat="47.28234" lon="-2.16822">
        <ele>53.5</ele>
        <time>2020-06-05T13:58:23Z</time>
      </trkpt>
      <trkpt lat="47.28236" lon="-2.16824">
        <ele>53.6</ele>
        <time>2020-06-05T13:58:24Z</time>
      </trkpt>
      <trkpt lat="47.28238" lon="-2.16827">
        <ele>53.7</ele>
        <time>2020-06-05T13:58:25Z</time>
      </trkpt>
      <trkpt lat="47.28241" lon="-2.16829">
        <ele>53.9</ele>
        <time>2020-06-05T13:58:26Z</time>
      </trkpt>
      <trkpt lat="47.28243" lon="-2.1683">
        <ele>53.9</ele>
        <time>2020-06-05T13:58:27Z</time>
      </trkpt>
      <trkpt lat="47.28247" lon="-2.16834">
        <ele>54.1</ele>
        <time>2020-06-05T13:58:28Z</time>
      </trkpt>
      <trkpt lat="47.2825" lon="-2.16836">
        <ele>54.3</ele>
        <time>2020-06-05T13:58:29Z</time>
      </trkpt>
      <trkpt lat="47.28253" lon="-2.1684">
        <ele>54.4</ele>
        <time>2020-06-05T13:58:30Z</time>
      </trkpt>
      <trkpt lat="47.28255" lon="-2.16842">
        <ele>54.6</ele>
        <time>2020-06-05T13:58:31Z</time>
      </trkpt>
      <trkpt lat="47.28258" lon="-2.16843">
        <ele>54.7</ele>
        <time>2020-06-05T13:58:32Z</time>
      </trkpt>
      <trkpt lat="47.28262" lon="-2.16845">
        <ele>54.9</ele>
        <time>2020-06-05T13:58:33Z</time>
      </trkpt>
      <trkpt lat="47.28265" lon="-2.16848">
        <ele>55.1</ele>
        <time>2020-06-05T13:58:34Z</time>
      </trkpt>
      <trkpt lat="47.28268" lon="-2.16851">
        <ele>55.3</ele>
        <time>2020-06-05T13:58:35Z</time>
      </trkpt>
      <trkpt lat="47.2827" lon="-2.16851">
        <ele>55.4</ele>
        <time>2020-06-05T13:58:36Z</time>
      </trkpt>
      <trkpt lat="47.28272" lon="-2.16854">
        <ele>55.5</ele>
        <time>2020-06-05T13:58:37Z</time>
      </trkpt>
      <trkpt lat="47.28275" lon="-2.16856">
        <ele>55.7</ele>
        <time>2020-06-05T13:58:38Z</time>
      </trkpt>
      <trkpt lat="47.28278" lon="-2.16861">
        <ele>55.9</ele>
        <time>2020-06-05T13:58:39Z</time>
      </trkpt>
      <trkpt lat="47.28281" lon="-2.16864">
        <ele>56.1</ele>
        <time>2020-06-05T13:58:40Z</time>
      </trkpt>
      <trkpt lat="47.28284" lon="-2.16867">
        <ele>56.3</ele>
        <time>2020-06-05T13:58:41Z</time>
      </trkpt>
      <trkpt lat="47.28287" lon="-2.1687">
        <ele>56.5</ele>
        <time>2020-06-05T13:58:42Z</time>
      </trkpt>
      <trkpt lat="47.28288" lon="-2.16871">
        <ele>56.6</ele>
        <time>2020-06-05T13:58:43Z</time>
      </trkpt>
      <trkpt lat="47.28293" lon="-2.16873">
        <ele>56.8</ele>
        <time>2020-06-05T13:58:44Z</time>
      </trkpt>
      <trkpt lat="47.28295" lon="-2.16874">
        <ele>57</ele>
        <time>2020-06-05T13:58:45Z</time>
      </trkpt>
      <trkpt lat="47.28298" lon="-2.16877">
        <ele>57.2</ele>
        <time>2020-06-05T13:58:46Z</time>
      </trkpt>
      <trkpt lat="47.28301" lon="-2.16881">
        <ele>57.4</ele>
        <time>2020-06-05T13:58:47Z</time>
      </trkpt>
      <trkpt lat="47.28304" lon="-2.16884">
        <ele>57.6</ele>
        <time>2020-06-05T13:58:48Z</time>
      </trkpt>
      <trkpt lat="47.28308" lon="-2.16887">
        <ele>57.8</ele>
        <time>2020-06-05T13:58:49Z</time>
      </trkpt>
      <trkpt lat="47.28311" lon="-2.1689">
        <ele>57.9</ele>
        <time>2020-06-05T13:58:50Z</time>
      </trkpt>
      <trkpt lat="47.28313" lon="-2.16892">
        <ele>58</ele>
        <time>2020-06-05T13:58:51Z</time>
      </trkpt>
      <trkpt lat="47.28316" lon="-2.16894">
        <ele>58.1</ele>
        <time>2020-06-05T13:58:52Z</time>
      </trkpt>
      <trkpt lat="47.28321" lon="-2.16899">
        <ele>58.4</ele>
        <time>2020-06-05T13:58:53Z</time>
      </trkpt>
      <trkpt lat="47.28325" lon="-2.169">
        <ele>58.6</ele>
        <time>2020-06-05T13:58:54Z</time>
      </trkpt>
      <trkpt lat="47.28328" lon="-2.16903">
        <ele>58.8</ele>
        <time>2020-06-05T13:58:55Z</time>
      </trkpt>
      <trkpt lat="47.28331" lon="-2.16906">
        <ele>59</ele>
        <time>2020-06-05T13:58:56Z</time>
      </trkpt>
      <trkpt lat="47.28334" lon="-2.16908">
        <ele>59.2</ele>
        <time>2020-06-05T13:58:57Z</time>
      </trkpt>
      <trkpt lat="47.28338" lon="-2.16911">
        <ele>59.5</ele>
        <time>2020-06-05T13:58:58Z</time>
      </trkpt>
      <trkpt lat="47.28342" lon="-2.16913">
        <ele>59.7</ele>
        <time>2020-06-05T13:58:59Z</time>
      </trkpt>
      <trkpt lat="47.28344" lon="-2.16914">
        <ele>59.7</ele>
        <time>2020-06-05T13:59:00Z</time>
      </trkpt>
      <trkpt lat="47.28347" lon="-2.16917">
        <ele>59.9</ele>
        <time>2020-06-05T13:59:01Z</time>
      </trkpt>
      <trkpt lat="47.28349" lon="-2.16918">
        <ele>59.9</ele>
        <time>2020-06-05T13:59:02Z</time>
      </trkpt>
      <trkpt lat="47.28351" lon="-2.16921">
        <ele>60.1</ele>
        <time>2020-06-05T13:59:03Z</time>
      </trkpt>
      <trkpt lat="47.28352" lon="-2.16924">
        <ele>60.1</ele>
        <time>2020-06-05T13:59:04Z</time>
      </trkpt>
      <trkpt lat="47.28355" lon="-2.16925">
        <ele>60.2</ele>
        <time>2020-06-05T13:59:05Z</time>
      </trkpt>
      <trkpt lat="47.2836" lon="-2.16928">
        <ele>60.4</ele>
        <time>2020-06-05T13:59:06Z</time>
      </trkpt>
      <trkpt lat="47.28363" lon="-2.16932">
        <ele>60.5</ele>
        <time>2020-06-05T13:59:07Z</time>
      </trkpt>
      <trkpt lat="47.28364" lon="-2.16933">
        <ele>60.6</ele>
        <time>2020-06-05T13:59:08Z</time>
      </trkpt>
      <trkpt lat="47.28368" lon="-2.16936">
        <ele>60.7</ele>
        <time>2020-06-05T13:59:09Z</time>
      </trkpt>
      <trkpt lat="47.28371" lon="-2.1694">
        <ele>60.8</ele>
        <time>2020-06-05T13:59:10Z</time>
      </trkpt>
      <trkpt lat="47.28375" lon="-2.16942">
        <ele>60.9</ele>
        <time>2020-06-05T13:59:11Z</time>
      </trkpt>
      <trkpt lat="47.28379" lon="-2.16945">
        <ele>61</ele>
        <time>2020-06-05T13:59:12Z</time>
      </trkpt>
      <trkpt lat="47.28381" lon="-2.16947">
        <ele>61</ele>
        <time>2020-06-05T13:59:13Z</time>
      </trkpt>
      <trkpt lat="47.28384" lon="-2.16949">
        <ele>61.1</ele>
        <time>2020-06-05T13:59:14Z</time>
      </trkpt>
      <trkpt lat="47.28387" lon="-2.16952">
        <ele>61.2</ele>
        <time>2020-06-05T13:59:15Z</time>
      </trkpt>
      <trkpt lat="47.28391" lon="-2.16953">
        <ele>61.4</ele>
        <time>2020-06-05T13:59:16Z</time>
      </trkpt>
      <trkpt lat="47.28394" lon="-2.16956">
        <ele>61.4</ele>
        <time>2020-06-05T13:59:17Z</time>
      </trkpt>
      <trkpt lat="47.28398" lon="-2.16958">
        <ele>61.5</ele>
        <time>2020-06-05T13:59:18Z</time>
      </trkpt>
      <trkpt lat="47.28401" lon="-2.16961">
        <ele>61.6</ele>
        <time>2020-06-05T13:59:19Z</time>
      </trkpt>
      <trkpt lat="47.28404" lon="-2.16964">
        <ele>61.6</ele>
        <time>2020-06-05T13:59:20Z</time>
      </trkpt>
      <trkpt lat="47.28407" lon="-2.16966">
        <ele>61.6</ele>
        <time>2020-06-05T13:59:21Z</time>
      </trkpt>
      <trkpt lat="47.28409" lon="-2.16969">
        <ele>61.6</ele>
        <time>2020-06-05T13:59:22Z</time>
      </trkpt>
      <trkpt lat="47.28412" lon="-2.16972">
        <ele>61.7</ele>
        <time>2020-06-05T13:59:23Z</time>
      </trkpt>
      <trkpt lat="47.28416" lon="-2.16975">
        <ele>61.7</ele>
        <time>2020-06-05T13:59:24Z</time>
      </trkpt>
      <trkpt lat="47.28419" lon="-2.16978">
        <ele>61.7</ele>
        <time>2020-06-05T13:59:25Z</time>
      </trkpt>
      <trkpt lat="47.28423" lon="-2.16982">
        <ele>61.8</ele>
        <time>2020-06-05T13:59:26Z</time>
      </trkpt>
      <trkpt lat="47.28425" lon="-2.16985">
        <ele>61.9</ele>
        <time>2020-06-05T13:59:27Z</time>
      </trkpt>
      <trkpt lat="47.28429" lon="-2.16989">
        <ele>62</ele>
        <time>2020-06-05T13:59:28Z</time>
      </trkpt>
      <trkpt lat="47.28432" lon="-2.16991">
        <ele>62</ele>
        <time>2020-06-05T13:59:29Z</time>
      </trkpt>
      <trkpt lat="47.28436" lon="-2.16994">
        <ele>62.1</ele>
        <time>2020-06-05T13:59:30Z</time>
      </trkpt>
      <trkpt lat="47.2844" lon="-2.16997">
        <ele>62.2</ele>
        <time>2020-06-05T13:59:31Z</time>
      </trkpt>
      <trkpt lat="47.28442" lon="-2.17002">
        <ele>62.2</ele>
        <time>2020-06-05T13:59:32Z</time>
      </trkpt>
      <trkpt lat="47.28446" lon="-2.17005">
        <ele>62.2</ele>
        <time>2020-06-05T13:59:33Z</time>
      </trkpt>
      <trkpt lat="47.28449" lon="-2.17007">
        <ele>62.2</ele>
        <time>2020-06-05T13:59:34Z</time>
      </trkpt>
      <trkpt lat="47.28454" lon="-2.17012">
        <ele>62.2</ele>
        <time>2020-06-05T13:59:35Z</time>
      </trkpt>
      <trkpt lat="47.28458" lon="-2.17015">
        <ele>62.2</ele>
        <time>2020-06-05T13:59:36Z</time>
      </trkpt>
      <trkpt lat="47.28462" lon="-2.17019">
        <ele>62.2</ele>
        <time>2020-06-05T13:59:37Z</time>
      </trkpt>
      <trkpt lat="47.28465" lon="-2.17022">
        <ele>62.3</ele>
        <time>2020-06-05T13:59:38Z</time>
      </trkpt>
      <trkpt lat="47.28469" lon="-2.17024">
        <ele>62.3</ele>
        <time>2020-06-05T13:59:39Z</time>
      </trkpt>
      <trkpt lat="47.28474" lon="-2.17027">
        <ele>62.4</ele>
        <time>2020-06-05T13:59:40Z</time>
      </trkpt>
      <trkpt lat="47.28478" lon="-2.17031">
        <ele>62.4</ele>
        <time>2020-06-05T13:59:41Z</time>
      </trkpt>
      <trkpt lat="47.28483" lon="-2.17034">
        <ele>62.5</ele>
        <time>2020-06-05T13:59:42Z</time>
      </trkpt>
      <trkpt lat="47.28487" lon="-2.17036">
        <ele>62.5</ele>
        <time>2020-06-05T13:59:43Z</time>
      </trkpt>
      <trkpt lat="47.28491" lon="-2.17041">
        <ele>62.6</ele>
        <time>2020-06-05T13:59:44Z</time>
      </trkpt>
      <trkpt lat="47.28496" lon="-2.17047">
        <ele>62.6</ele>
        <time>2020-06-05T13:59:45Z</time>
      </trkpt>
      <trkpt lat="47.285" lon="-2.17051">
        <ele>62.6</ele>
        <time>2020-06-05T13:59:46Z</time>
      </trkpt>
      <trkpt lat="47.28505" lon="-2.17053">
        <ele>62.6</ele>
        <time>2020-06-05T13:59:47Z</time>
      </trkpt>
      <trkpt lat="47.2851" lon="-2.17057">
        <ele>62.6</ele>
        <time>2020-06-05T13:59:48Z</time>
      </trkpt>
      <trkpt lat="47.28515" lon="-2.17061">
        <ele>62.6</ele>
        <time>2020-06-05T13:59:49Z</time>
      </trkpt>
      <trkpt lat="47.2852" lon="-2.17064">
        <ele>62.6</ele>
        <time>2020-06-05T13:59:50Z</time>
      </trkpt>
      <trkpt lat="47.28525" lon="-2.17069">
        <ele>62.6</ele>
        <time>2020-06-05T13:59:51Z</time>
      </trkpt>
      <trkpt lat="47.2853" lon="-2.17074">
        <ele>62.6</ele>
        <time>2020-06-05T13:59:52Z</time>
      </trkpt>
      <trkpt lat="47.28534" lon="-2.17079">
        <ele>62.6</ele>
        <time>2020-06-05T13:59:53Z</time>
      </trkpt>
      <trkpt lat="47.28539" lon="-2.17082">
        <ele>62.5</ele>
        <time>2020-06-05T13:59:54Z</time>
      </trkpt>
      <trkpt lat="47.28544" lon="-2.17086">
        <ele>62.3</ele>
        <time>2020-06-05T13:59:55Z</time>
      </trkpt>
      <trkpt lat="47.28549" lon="-2.1709">
        <ele>62.2</ele>
        <time>2020-06-05T13:59:56Z</time>
      </trkpt>
      <trkpt lat="47.28553" lon="-2.17093">
        <ele>62.2</ele>
        <time>2020-06-05T13:59:57Z</time>
      </trkpt>
      <trkpt lat="47.28558" lon="-2.17097">
        <ele>62.1</ele>
        <time>2020-06-05T13:59:58Z</time>
      </trkpt>
      <trkpt lat="47.28563" lon="-2.17101">
        <ele>62.1</ele>
        <time>2020-06-05T13:59:59Z</time>
      </trkpt>
      <trkpt lat="47.28569" lon="-2.17106">
        <ele>62.1</ele>
        <time>2020-06-05T14:00:00Z</time>
      </trkpt>
      <trkpt lat="47.28574" lon="-2.17111">
        <ele>62.2</ele>
        <time>2020-06-05T14:00:01Z</time>
      </trkpt>
      <trkpt lat="47.28578" lon="-2.17115">
        <ele>62.1</ele>
        <time>2020-06-05T14:00:02Z</time>
      </trkpt>
      <trkpt lat="47.28583" lon="-2.17119">
        <ele>62.1</ele>
        <time>2020-06-05T14:00:03Z</time>
      </trkpt>
      <trkpt lat="47.28588" lon="-2.17122">
        <ele>62</ele>
        <time>2020-06-05T14:00:04Z</time>
      </trkpt>
      <trkpt lat="47.28593" lon="-2.17127">
        <ele>62</ele>
        <time>2020-06-05T14:00:05Z</time>
      </trkpt>
      <trkpt lat="47.28598" lon="-2.17131">
        <ele>62</ele>
        <time>2020-06-05T14:00:06Z</time>
      </trkpt>
      <trkpt lat="47.28603" lon="-2.17135">
        <ele>62</ele>
        <time>2020-06-05T14:00:07Z</time>
      </trkpt>
      <trkpt lat="47.28609" lon="-2.1714">
        <ele>62</ele>
        <time>2020-06-05T14:00:08Z</time>
      </trkpt>
      <trkpt lat="47.28615" lon="-2.17146">
        <ele>61.9</ele>
        <time>2020-06-05T14:00:09Z</time>
      </trkpt>
      <trkpt lat="47.28621" lon="-2.1715">
        <ele>61.9</ele>
        <time>2020-06-05T14:00:10Z</time>
      </trkpt>
      <trkpt lat="47.28627" lon="-2.17155">
        <ele>61.7</ele>
        <time>2020-06-05T14:00:11Z</time>
      </trkpt>
      <trkpt lat="47.28634" lon="-2.17161">
        <ele>61.5</ele>
        <time>2020-06-05T14:00:12Z</time>
      </trkpt>
      <trkpt lat="47.2864" lon="-2.17165">
        <ele>61.3</ele>
        <time>2020-06-05T14:00:13Z</time>
      </trkpt>
      <trkpt lat="47.28647" lon="-2.17171">
        <ele>61.1</ele>
        <time>2020-06-05T14:00:14Z</time>
      </trkpt>
      <trkpt lat="47.28655" lon="-2.17176">
        <ele>60.8</ele>
        <time>2020-06-05T14:00:15Z</time>
      </trkpt>
      <trkpt lat="47.28661" lon="-2.17182">
        <ele>60.5</ele>
        <time>2020-06-05T14:00:16Z</time>
      </trkpt>
      <trkpt lat="47.28667" lon="-2.17186">
        <ele>60.3</ele>
        <time>2020-06-05T14:00:17Z</time>
      </trkpt>
      <trkpt lat="47.28671" lon="-2.1719">
        <ele>60.1</ele>
        <time>2020-06-05T14:00:18Z</time>
      </trkpt>
      <trkpt lat="47.28677" lon="-2.17195">
        <ele>59.8</ele>
        <time>2020-06-05T14:00:19Z</time>
      </trkpt>
      <trkpt lat="47.28683" lon="-2.172">
        <ele>59.5</ele>
        <time>2020-06-05T14:00:20Z</time>
      </trkpt>
      <trkpt lat="47.2869" lon="-2.17207">
        <ele>59.1</ele>
        <time>2020-06-05T14:00:21Z</time>
      </trkpt>
      <trkpt lat="47.28695" lon="-2.17212">
        <ele>58.7</ele>
        <time>2020-06-05T14:00:22Z</time>
      </trkpt>
      <trkpt lat="47.28701" lon="-2.17216">
        <ele>58.3</ele>
        <time>2020-06-05T14:00:23Z</time>
      </trkpt>
      <trkpt lat="47.28707" lon="-2.17221">
        <ele>57.9</ele>
        <time>2020-06-05T14:00:24Z</time>
      </trkpt>
      <trkpt lat="47.28713" lon="-2.17225">
        <ele>57.6</ele>
        <time>2020-06-05T14:00:25Z</time>
      </trkpt>
      <trkpt lat="47.28719" lon="-2.1723">
        <ele>57.1</ele>
        <time>2020-06-05T14:00:26Z</time>
      </trkpt>
      <trkpt lat="47.28726" lon="-2.17235">
        <ele>56.7</ele>
        <time>2020-06-05T14:00:27Z</time>
      </trkpt>
      <trkpt lat="47.28732" lon="-2.17239">
        <ele>56.4</ele>
        <time>2020-06-05T14:00:28Z</time>
      </trkpt>
      <trkpt lat="47.28737" lon="-2.17244">
        <ele>56</ele>
        <time>2020-06-05T14:00:29Z</time>
      </trkpt>
      <trkpt lat="47.28743" lon="-2.17251">
        <ele>55.7</ele>
        <time>2020-06-05T14:00:30Z</time>
      </trkpt>
      <trkpt lat="47.2875" lon="-2.17257">
        <ele>55.2</ele>
        <time>2020-06-05T14:00:31Z</time>
      </trkpt>
      <trkpt lat="47.28756" lon="-2.17263">
        <ele>54.8</ele>
        <time>2020-06-05T14:00:32Z</time>
      </trkpt>
      <trkpt lat="47.28763" lon="-2.17269">
        <ele>54.5</ele>
        <time>2020-06-05T14:00:33Z</time>
      </trkpt>
      <trkpt lat="47.28769" lon="-2.17274">
        <ele>54.1</ele>
        <time>2020-06-05T14:00:34Z</time>
      </trkpt>
      <trkpt lat="47.28775" lon="-2.1728">
        <ele>53.9</ele>
        <time>2020-06-05T14:00:35Z</time>
      </trkpt>
      <trkpt lat="47.28782" lon="-2.17285">
        <ele>53.6</ele>
        <time>2020-06-05T14:00:36Z</time>
      </trkpt>
      <trkpt lat="47.28789" lon="-2.17291">
        <ele>53.1</ele>
        <time>2020-06-05T14:00:37Z</time>
      </trkpt>
      <trkpt lat="47.28796" lon="-2.17296">
        <ele>52.6</ele>
        <time>2020-06-05T14:00:38Z</time>
      </trkpt>
      <trkpt lat="47.28802" lon="-2.17301">
        <ele>52.2</ele>
        <time>2020-06-05T14:00:39Z</time>
      </trkpt>
      <trkpt lat="47.28809" lon="-2.17306">
        <ele>51.7</ele>
        <time>2020-06-05T14:00:40Z</time>
      </trkpt>
      <trkpt lat="47.28817" lon="-2.1731">
        <ele>51.3</ele>
        <time>2020-06-05T14:00:41Z</time>
      </trkpt>
      <trkpt lat="47.28824" lon="-2.17315">
        <ele>50.9</ele>
        <time>2020-06-05T14:00:42Z</time>
      </trkpt>
      <trkpt lat="47.28831" lon="-2.17321">
        <ele>50.4</ele>
        <time>2020-06-05T14:00:43Z</time>
      </trkpt>
      <trkpt lat="47.28838" lon="-2.17327">
        <ele>50</ele>
        <time>2020-06-05T14:00:44Z</time>
      </trkpt>
      <trkpt lat="47.28845" lon="-2.17334">
        <ele>49.8</ele>
        <time>2020-06-05T14:00:45Z</time>
      </trkpt>
      <trkpt lat="47.28852" lon="-2.17339">
        <ele>49.4</ele>
        <time>2020-06-05T14:00:46Z</time>
      </trkpt>
      <trkpt lat="47.2886" lon="-2.17345">
        <ele>48.8</ele>
        <time>2020-06-05T14:00:47Z</time>
      </trkpt>
      <trkpt lat="47.28867" lon="-2.17352">
        <ele>48.2</ele>
        <time>2020-06-05T14:00:48Z</time>
      </trkpt>
      <trkpt lat="47.28874" lon="-2.17358">
        <ele>47.6</ele>
        <time>2020-06-05T14:00:49Z</time>
      </trkpt>
      <trkpt lat="47.28883" lon="-2.17363">
        <ele>47</ele>
        <time>2020-06-05T14:00:50Z</time>
      </trkpt>
      <trkpt lat="47.2889" lon="-2.17368">
        <ele>46.5</ele>
        <time>2020-06-05T14:00:51Z</time>
      </trkpt>
      <trkpt lat="47.28897" lon="-2.17373">
        <ele>46.1</ele>
        <time>2020-06-05T14:00:52Z</time>
      </trkpt>
      <trkpt lat="47.28904" lon="-2.17379">
        <ele>45.6</ele>
        <time>2020-06-05T14:00:53Z</time>
      </trkpt>
      <trkpt lat="47.28912" lon="-2.17385">
        <ele>45.1</ele>
        <time>2020-06-05T14:00:54Z</time>
      </trkpt>
      <trkpt lat="47.28919" lon="-2.1739">
        <ele>44.5</ele>
        <time>2020-06-05T14:00:55Z</time>
      </trkpt>
      <trkpt lat="47.28926" lon="-2.17396">
        <ele>44</ele>
        <time>2020-06-05T14:00:56Z</time>
      </trkpt>
      <trkpt lat="47.28934" lon="-2.17402">
        <ele>43.4</ele>
        <time>2020-06-05T14:00:57Z</time>
      </trkpt>
      <trkpt lat="47.28941" lon="-2.17407">
        <ele>42.9</ele>
        <time>2020-06-05T14:00:58Z</time>
      </trkpt>
      <trkpt lat="47.28949" lon="-2.17413">
        <ele>42.3</ele>
        <time>2020-06-05T14:00:59Z</time>
      </trkpt>
      <trkpt lat="47.28957" lon="-2.17418">
        <ele>41.7</ele>
        <time>2020-06-05T14:01:00Z</time>
      </trkpt>
      <trkpt lat="47.28964" lon="-2.17423">
        <ele>41.2</ele>
        <time>2020-06-05T14:01:01Z</time>
      </trkpt>
      <trkpt lat="47.28972" lon="-2.17428">
        <ele>40.6</ele>
        <time>2020-06-05T14:01:02Z</time>
      </trkpt>
      <trkpt lat="47.2898" lon="-2.17434">
        <ele>40.1</ele>
        <time>2020-06-05T14:01:03Z</time>
      </trkpt>
      <trkpt lat="47.28988" lon="-2.17439">
        <ele>39.5</ele>
        <time>2020-06-05T14:01:04Z</time>
      </trkpt>
      <trkpt lat="47.28996" lon="-2.17444">
        <ele>39</ele>
        <time>2020-06-05T14:01:05Z</time>
      </trkpt>
      <trkpt lat="47.29004" lon="-2.1745">
        <ele>38.4</ele>
        <time>2020-06-05T14:01:06Z</time>
      </trkpt>
      <trkpt lat="47.29012" lon="-2.17455">
        <ele>37.9</ele>
        <time>2020-06-05T14:01:07Z</time>
      </trkpt>
      <trkpt lat="47.2902" lon="-2.17461">
        <ele>37.4</ele>
        <time>2020-06-05T14:01:08Z</time>
      </trkpt>
      <trkpt lat="47.29028" lon="-2.17467">
        <ele>36.8</ele>
        <time>2020-06-05T14:01:09Z</time>
      </trkpt>
      <trkpt lat="47.29035" lon="-2.17472">
        <ele>36.2</ele>
        <time>2020-06-05T14:01:10Z</time>
      </trkpt>
      <trkpt lat="47.29043" lon="-2.17477">
        <ele>35.7</ele>
        <time>2020-06-05T14:01:11Z</time>
      </trkpt>
      <trkpt lat="47.29051" lon="-2.17482">
        <ele>35.2</ele>
        <time>2020-06-05T14:01:12Z</time>
      </trkpt>
      <trkpt lat="47.29059" lon="-2.17487">
        <ele>34.7</ele>
        <time>2020-06-05T14:01:13Z</time>
      </trkpt>
      <trkpt lat="47.29067" lon="-2.17492">
        <ele>34.1</ele>
        <time>2020-06-05T14:01:14Z</time>
      </trkpt>
      <trkpt lat="47.29074" lon="-2.17497">
        <ele>33.5</ele>
        <time>2020-06-05T14:01:15Z</time>
      </trkpt>
      <trkpt lat="47.29082" lon="-2.17501">
        <ele>32.9</ele>
        <time>2020-06-05T14:01:16Z</time>
      </trkpt>
      <trkpt lat="47.29089" lon="-2.17507">
        <ele>32.4</ele>
        <time>2020-06-05T14:01:17Z</time>
      </trkpt>
      <trkpt lat="47.29096" lon="-2.17512">
        <ele>31.9</ele>
        <time>2020-06-05T14:01:18Z</time>
      </trkpt>
      <trkpt lat="47.29104" lon="-2.17516">
        <ele>31.4</ele>
        <time>2020-06-05T14:01:19Z</time>
      </trkpt>
      <trkpt lat="47.29111" lon="-2.17521">
        <ele>30.9</ele>
        <time>2020-06-05T14:01:20Z</time>
      </trkpt>
      <trkpt lat="47.29118" lon="-2.17526">
        <ele>30.4</ele>
        <time>2020-06-05T14:01:21Z</time>
      </trkpt>
      <trkpt lat="47.29126" lon="-2.17529">
        <ele>29.9</ele>
        <time>2020-06-05T14:01:22Z</time>
      </trkpt>
      <trkpt lat="47.29133" lon="-2.17533">
        <ele>29.5</ele>
        <time>2020-06-05T14:01:23Z</time>
      </trkpt>
      <trkpt lat="47.2914" lon="-2.17537">
        <ele>29.1</ele>
        <time>2020-06-05T14:01:24Z</time>
      </trkpt>
      <trkpt lat="47.29146" lon="-2.17541">
        <ele>28.7</ele>
        <time>2020-06-05T14:01:25Z</time>
      </trkpt>
      <trkpt lat="47.29154" lon="-2.17544">
        <ele>28.2</ele>
        <time>2020-06-05T14:01:26Z</time>
      </trkpt>
      <trkpt lat="47.2916" lon="-2.17548">
        <ele>27.8</ele>
        <time>2020-06-05T14:01:27Z</time>
      </trkpt>
      <trkpt lat="47.29167" lon="-2.17551">
        <ele>27.5</ele>
        <time>2020-06-05T14:01:28Z</time>
      </trkpt>
      <trkpt lat="47.29173" lon="-2.17555">
        <ele>27.1</ele>
        <time>2020-06-05T14:01:29Z</time>
      </trkpt>
      <trkpt lat="47.29179" lon="-2.17559">
        <ele>26.7</ele>
        <time>2020-06-05T14:01:30Z</time>
      </trkpt>
      <trkpt lat="47.29185" lon="-2.17563">
        <ele>26.3</ele>
        <time>2020-06-05T14:01:31Z</time>
      </trkpt>
      <trkpt lat="47.29191" lon="-2.17566">
        <ele>26</ele>
        <time>2020-06-05T14:01:32Z</time>
      </trkpt>
      <trkpt lat="47.29197" lon="-2.17569">
        <ele>25.7</ele>
        <time>2020-06-05T14:01:33Z</time>
      </trkpt>
      <trkpt lat="47.29203" lon="-2.17573">
        <ele>25.3</ele>
        <time>2020-06-05T14:01:34Z</time>
      </trkpt>
      <trkpt lat="47.29209" lon="-2.17575">
        <ele>25</ele>
        <time>2020-06-05T14:01:35Z</time>
      </trkpt>
      <trkpt lat="47.29215" lon="-2.17578">
        <ele>24.7</ele>
        <time>2020-06-05T14:01:36Z</time>
      </trkpt>
      <trkpt lat="47.29221" lon="-2.17583">
        <ele>24.3</ele>
        <time>2020-06-05T14:01:37Z</time>
      </trkpt>
      <trkpt lat="47.29227" lon="-2.17587">
        <ele>23.9</ele>
        <time>2020-06-05T14:01:38Z</time>
      </trkpt>
      <trkpt lat="47.29233" lon="-2.17591">
        <ele>23.6</ele>
        <time>2020-06-05T14:01:39Z</time>
      </trkpt>
      <trkpt lat="47.29239" lon="-2.17594">
        <ele>23.3</ele>
        <time>2020-06-05T14:01:40Z</time>
      </trkpt>
      <trkpt lat="47.29246" lon="-2.17597">
        <ele>22.9</ele>
        <time>2020-06-05T14:01:41Z</time>
      </trkpt>
      <trkpt lat="47.29252" lon="-2.176">
        <ele>22.7</ele>
        <time>2020-06-05T14:01:42Z</time>
      </trkpt>
      <trkpt lat="47.29257" lon="-2.17601">
        <ele>22.4</ele>
        <time>2020-06-05T14:01:43Z</time>
      </trkpt>
      <trkpt lat="47.29263" lon="-2.17604">
        <ele>22.2</ele>
        <time>2020-06-05T14:01:44Z</time>
      </trkpt>
      <trkpt lat="47.29268" lon="-2.17607">
        <ele>21.9</ele>
        <time>2020-06-05T14:01:45Z</time>
      </trkpt>
      <trkpt lat="47.29274" lon="-2.17609">
        <ele>21.6</ele>
        <time>2020-06-05T14:01:46Z</time>
      </trkpt>
      <trkpt lat="47.29279" lon="-2.17612">
        <ele>21.3</ele>
        <time>2020-06-05T14:01:47Z</time>
      </trkpt>
      <trkpt lat="47.29285" lon="-2.17615">
        <ele>21.1</ele>
        <time>2020-06-05T14:01:48Z</time>
      </trkpt>
      <trkpt lat="47.2929" lon="-2.17617">
        <ele>20.8</ele>
        <time>2020-06-05T14:01:49Z</time>
      </trkpt>
      <trkpt lat="47.29296" lon="-2.1762">
        <ele>20.5</ele>
        <time>2020-06-05T14:01:50Z</time>
      </trkpt>
      <trkpt lat="47.29302" lon="-2.17624">
        <ele>20.2</ele>
        <time>2020-06-05T14:01:51Z</time>
      </trkpt>
      <trkpt lat="47.29308" lon="-2.17627">
        <ele>19.9</ele>
        <time>2020-06-05T14:01:52Z</time>
      </trkpt>
      <trkpt lat="47.29315" lon="-2.17631">
        <ele>19.6</ele>
        <time>2020-06-05T14:01:53Z</time>
      </trkpt>
      <trkpt lat="47.29321" lon="-2.17635">
        <ele>19.3</ele>
        <time>2020-06-05T14:01:54Z</time>
      </trkpt>
      <trkpt lat="47.29328" lon="-2.17638">
        <ele>19</ele>
        <time>2020-06-05T14:01:55Z</time>
      </trkpt>
      <trkpt lat="47.29334" lon="-2.17642">
        <ele>18.7</ele>
        <time>2020-06-05T14:01:56Z</time>
      </trkpt>
      <trkpt lat="47.29341" lon="-2.17646">
        <ele>18.5</ele>
        <time>2020-06-05T14:01:57Z</time>
      </trkpt>
      <trkpt lat="47.29348" lon="-2.1765">
        <ele>18.2</ele>
        <time>2020-06-05T14:01:58Z</time>
      </trkpt>
      <trkpt lat="47.29355" lon="-2.17652">
        <ele>17.9</ele>
        <time>2020-06-05T14:01:59Z</time>
      </trkpt>
      <trkpt lat="47.29362" lon="-2.17654">
        <ele>17.6</ele>
        <time>2020-06-05T14:02:00Z</time>
      </trkpt>
      <trkpt lat="47.29369" lon="-2.17658">
        <ele>17.3</ele>
        <time>2020-06-05T14:02:01Z</time>
      </trkpt>
      <trkpt lat="47.29376" lon="-2.17661">
        <ele>17</ele>
        <time>2020-06-05T14:02:02Z</time>
      </trkpt>
      <trkpt lat="47.29383" lon="-2.17664">
        <ele>16.7</ele>
        <time>2020-06-05T14:02:03Z</time>
      </trkpt>
      <trkpt lat="47.29391" lon="-2.17667">
        <ele>16.4</ele>
        <time>2020-06-05T14:02:04Z</time>
      </trkpt>
      <trkpt lat="47.29398" lon="-2.1767">
        <ele>16.2</ele>
        <time>2020-06-05T14:02:05Z</time>
      </trkpt>
      <trkpt lat="47.29405" lon="-2.17672">
        <ele>15.9</ele>
        <time>2020-06-05T14:02:06Z</time>
      </trkpt>
      <trkpt lat="47.29411" lon="-2.17676">
        <ele>15.7</ele>
        <time>2020-06-05T14:02:07Z</time>
      </trkpt>
      <trkpt lat="47.29418" lon="-2.17679">
        <ele>15.4</ele>
        <time>2020-06-05T14:02:08Z</time>
      </trkpt>
      <trkpt lat="47.29425" lon="-2.17682">
        <ele>15.2</ele>
        <time>2020-06-05T14:02:09Z</time>
      </trkpt>
      <trkpt lat="47.29432" lon="-2.17686">
        <ele>14.9</ele>
        <time>2020-06-05T14:02:10Z</time>
      </trkpt>
      <trkpt lat="47.29438" lon="-2.17689">
        <ele>14.7</ele>
        <time>2020-06-05T14:02:11Z</time>
      </trkpt>
      <trkpt lat="47.29445" lon="-2.17692">
        <ele>14.4</ele>
        <time>2020-06-05T14:02:12Z</time>
      </trkpt>
      <trkpt lat="47.29452" lon="-2.17695">
        <ele>14.2</ele>
        <time>2020-06-05T14:02:13Z</time>
      </trkpt>
      <trkpt lat="47.29459" lon="-2.17697">
        <ele>14</ele>
        <time>2020-06-05T14:02:14Z</time>
      </trkpt>
      <trkpt lat="47.29466" lon="-2.177">
        <ele>13.7</ele>
        <time>2020-06-05T14:02:15Z</time>
      </trkpt>
      <trkpt lat="47.29474" lon="-2.17702">
        <ele>13.5</ele>
        <time>2020-06-05T14:02:16Z</time>
      </trkpt>
      <trkpt lat="47.29481" lon="-2.17704">
        <ele>13.3</ele>
        <time>2020-06-05T14:02:17Z</time>
      </trkpt>
      <trkpt lat="47.29488" lon="-2.17707">
        <ele>13</ele>
        <time>2020-06-05T14:02:18Z</time>
      </trkpt>
      <trkpt lat="47.29496" lon="-2.1771">
        <ele>12.7</ele>
        <time>2020-06-05T14:02:19Z</time>
      </trkpt>
      <trkpt lat="47.29502" lon="-2.17713">
        <ele>12.5</ele>
        <time>2020-06-05T14:02:20Z</time>
      </trkpt>
      <trkpt lat="47.29508" lon="-2.17716">
        <ele>12.2</ele>
        <time>2020-06-05T14:02:21Z</time>
      </trkpt>
      <trkpt lat="47.29515" lon="-2.17719">
        <ele>12</ele>
        <time>2020-06-05T14:02:22Z</time>
      </trkpt>
      <trkpt lat="47.29522" lon="-2.17721">
        <ele>11.7</ele>
        <time>2020-06-05T14:02:23Z</time>
      </trkpt>
      <trkpt lat="47.29529" lon="-2.17725">
        <ele>11.4</ele>
        <time>2020-06-05T14:02:24Z</time>
      </trkpt>
      <trkpt lat="47.29537" lon="-2.17728">
        <ele>11.2</ele>
        <time>2020-06-05T14:02:25Z</time>
      </trkpt>
      <trkpt lat="47.29544" lon="-2.17731">
        <ele>11</ele>
        <time>2020-06-05T14:02:26Z</time>
      </trkpt>
      <trkpt lat="47.29551" lon="-2.17734">
        <ele>10.8</ele>
        <time>2020-06-05T14:02:27Z</time>
      </trkpt>
      <trkpt lat="47.29558" lon="-2.17737">
        <ele>10.5</ele>
        <time>2020-06-05T14:02:28Z</time>
      </trkpt>
      <trkpt lat="47.29565" lon="-2.17739">
        <ele>10.3</ele>
        <time>2020-06-05T14:02:29Z</time>
      </trkpt>
      <trkpt lat="47.29572" lon="-2.17742">
        <ele>10</ele>
        <time>2020-06-05T14:02:30Z</time>
      </trkpt>
      <trkpt lat="47.29579" lon="-2.17745">
        <ele>9.8</ele>
        <time>2020-06-05T14:02:31Z</time>
      </trkpt>
      <trkpt lat="47.29586" lon="-2.17749">
        <ele>9.6</ele>
        <time>2020-06-05T14:02:32Z</time>
      </trkpt>
      <trkpt lat="47.29593" lon="-2.17752">
        <ele>9.4</ele>
        <time>2020-06-05T14:02:33Z</time>
      </trkpt>
      <trkpt lat="47.296" lon="-2.17754">
        <ele>9.2</ele>
        <time>2020-06-05T14:02:34Z</time>
      </trkpt>
      <trkpt lat="47.29607" lon="-2.17757">
        <ele>9</ele>
        <time>2020-06-05T14:02:35Z</time>
      </trkpt>
      <trkpt lat="47.29614" lon="-2.1776">
        <ele>8.8</ele>
        <time>2020-06-05T14:02:36Z</time>
      </trkpt>
      <trkpt lat="47.29621" lon="-2.17763">
        <ele>8.7</ele>
        <time>2020-06-05T14:02:37Z</time>
      </trkpt>
      <trkpt lat="47.29628" lon="-2.17767">
        <ele>8.5</ele>
        <time>2020-06-05T14:02:38Z</time>
      </trkpt>
      <trkpt lat="47.29635" lon="-2.17769">
        <ele>8.4</ele>
        <time>2020-06-05T14:02:39Z</time>
      </trkpt>
      <trkpt lat="47.29641" lon="-2.17771">
        <ele>8.2</ele>
        <time>2020-06-05T14:02:40Z</time>
      </trkpt>
      <trkpt lat="47.29647" lon="-2.17774">
        <ele>8.1</ele>
        <time>2020-06-05T14:02:41Z</time>
      </trkpt>
      <trkpt lat="47.29654" lon="-2.17776">
        <ele>7.9</ele>
        <time>2020-06-05T14:02:42Z</time>
      </trkpt>
      <trkpt lat="47.2966" lon="-2.17779">
        <ele>7.7</ele>
        <time>2020-06-05T14:02:43Z</time>
      </trkpt>
      <trkpt lat="47.29667" lon="-2.17782">
        <ele>7.6</ele>
        <time>2020-06-05T14:02:44Z</time>
      </trkpt>
      <trkpt lat="47.29674" lon="-2.17784">
        <ele>7.4</ele>
        <time>2020-06-05T14:02:45Z</time>
      </trkpt>
      <trkpt lat="47.29681" lon="-2.17787">
        <ele>7.2</ele>
        <time>2020-06-05T14:02:46Z</time>
      </trkpt>
      <trkpt lat="47.29688" lon="-2.1779">
        <ele>7.1</ele>
        <time>2020-06-05T14:02:47Z</time>
      </trkpt>
      <trkpt lat="47.29694" lon="-2.17792">
        <ele>6.9</ele>
        <time>2020-06-05T14:02:48Z</time>
      </trkpt>
      <trkpt lat="47.29701" lon="-2.17794">
        <ele>6.8</ele>
        <time>2020-06-05T14:02:49Z</time>
      </trkpt>
      <trkpt lat="47.29707" lon="-2.17798">
        <ele>6.7</ele>
        <time>2020-06-05T14:02:50Z</time>
      </trkpt>
      <trkpt lat="47.29714" lon="-2.178">
        <ele>6.5</ele>
        <time>2020-06-05T14:02:51Z</time>
      </trkpt>
      <trkpt lat="47.2972" lon="-2.17804">
        <ele>6.3</ele>
        <time>2020-06-05T14:02:52Z</time>
      </trkpt>
      <trkpt lat="47.29727" lon="-2.17806">
        <ele>6</ele>
        <time>2020-06-05T14:02:53Z</time>
      </trkpt>
      <trkpt lat="47.29733" lon="-2.17808">
        <ele>5.9</ele>
        <time>2020-06-05T14:02:54Z</time>
      </trkpt>
      <trkpt lat="47.2974" lon="-2.17811">
        <ele>5.9</ele>
        <time>2020-06-05T14:02:55Z</time>
      </trkpt>
      <trkpt lat="47.29747" lon="-2.17813">
        <ele>5.8</ele>
        <time>2020-06-05T14:02:56Z</time>
      </trkpt>
      <trkpt lat="47.29754" lon="-2.17815">
        <ele>5.7</ele>
        <time>2020-06-05T14:02:57Z</time>
      </trkpt>
      <trkpt lat="47.29761" lon="-2.17818">
        <ele>5.6</ele>
        <time>2020-06-05T14:02:58Z</time>
      </trkpt>
      <trkpt lat="47.29768" lon="-2.17822">
        <ele>5.5</ele>
        <time>2020-06-05T14:02:59Z</time>
      </trkpt>
      <trkpt lat="47.29775" lon="-2.17824">
        <ele>5.4</ele>
        <time>2020-06-05T14:03:00Z</time>
      </trkpt>
      <trkpt lat="47.29782" lon="-2.17827">
        <ele>5.3</ele>
        <time>2020-06-05T14:03:01Z</time>
      </trkpt>
      <trkpt lat="47.29788" lon="-2.17831">
        <ele>5.2</ele>
        <time>2020-06-05T14:03:02Z</time>
      </trkpt>
      <trkpt lat="47.29795" lon="-2.17832">
        <ele>5.1</ele>
        <time>2020-06-05T14:03:03Z</time>
      </trkpt>
      <trkpt lat="47.29802" lon="-2.17834">
        <ele>5</ele>
        <time>2020-06-05T14:03:04Z</time>
      </trkpt>
      <trkpt lat="47.29809" lon="-2.17837">
        <ele>4.9</ele>
        <time>2020-06-05T14:03:05Z</time>
      </trkpt>
      <trkpt lat="47.29815" lon="-2.17839">
        <ele>4.8</ele>
        <time>2020-06-05T14:03:06Z</time>
      </trkpt>
      <trkpt lat="47.29822" lon="-2.17842">
        <ele>4.8</ele>
        <time>2020-06-05T14:03:07Z</time>
      </trkpt>
      <trkpt lat="47.29828" lon="-2.17845">
        <ele>4.7</ele>
        <time>2020-06-05T14:03:08Z</time>
      </trkpt>
      <trkpt lat="47.29834" lon="-2.17847">
        <ele>4.6</ele>
        <time>2020-06-05T14:03:09Z</time>
      </trkpt>
      <trkpt lat="47.2984" lon="-2.17849">
        <ele>4.6</ele>
        <time>2020-06-05T14:03:10Z</time>
      </trkpt>
      <trkpt lat="47.29846" lon="-2.17851">
        <ele>4.5</ele>
        <time>2020-06-05T14:03:11Z</time>
      </trkpt>
      <trkpt lat="47.29853" lon="-2.17852">
        <ele>4.5</ele>
        <time>2020-06-05T14:03:12Z</time>
      </trkpt>
      <trkpt lat="47.29858" lon="-2.17855">
        <ele>4.4</ele>
        <time>2020-06-05T14:03:13Z</time>
      </trkpt>
      <trkpt lat="47.29864" lon="-2.17857">
        <ele>4.4</ele>
        <time>2020-06-05T14:03:14Z</time>
      </trkpt>
      <trkpt lat="47.2987" lon="-2.17859">
        <ele>4.3</ele>
        <time>2020-06-05T14:03:15Z</time>
      </trkpt>
      <trkpt lat="47.29876" lon="-2.17862">
        <ele>4.3</ele>
        <time>2020-06-05T14:03:16Z</time>
      </trkpt>
      <trkpt lat="47.29881" lon="-2.17865">
        <ele>4.2</ele>
        <time>2020-06-05T14:03:17Z</time>
      </trkpt>
      <trkpt lat="47.29887" lon="-2.17868">
        <ele>4.2</ele>
        <time>2020-06-05T14:03:18Z</time>
      </trkpt>
      <trkpt lat="47.29893" lon="-2.1787">
        <ele>4.1</ele>
        <time>2020-06-05T14:03:19Z</time>
      </trkpt>
      <trkpt lat="47.29898" lon="-2.17872">
        <ele>4.1</ele>
        <time>2020-06-05T14:03:20Z</time>
      </trkpt>
      <trkpt lat="47.29904" lon="-2.17874">
        <ele>4.1</ele>
        <time>2020-06-05T14:03:21Z</time>
      </trkpt>
      <trkpt lat="47.2991" lon="-2.17876">
        <ele>4.1</ele>
        <time>2020-06-05T14:03:22Z</time>
      </trkpt>
      <trkpt lat="47.29915" lon="-2.17877">
        <ele>4.1</ele>
        <time>2020-06-05T14:03:23Z</time>
      </trkpt>
      <trkpt lat="47.2992" lon="-2.17877">
        <ele>4.1</ele>
        <time>2020-06-05T14:03:24Z</time>
      </trkpt>
      <trkpt lat="47.29925" lon="-2.17879">
        <ele>4.1</ele>
        <time>2020-06-05T14:03:25Z</time>
      </trkpt>
      <trkpt lat="47.29929" lon="-2.17882">
        <ele>4.1</ele>
        <time>2020-06-05T14:03:26Z</time>
      </trkpt>
      <trkpt lat="47.29934" lon="-2.17884">
        <ele>4.1</ele>
        <time>2020-06-05T14:03:27Z</time>
      </trkpt>
      <trkpt lat="47.29939" lon="-2.17886">
        <ele>4.1</ele>
        <time>2020-06-05T14:03:28Z</time>
      </trkpt>
      <trkpt lat="47.29943" lon="-2.17888">
        <ele>4.1</ele>
        <time>2020-06-05T14:03:29Z</time>
      </trkpt>
      <trkpt lat="47.29948" lon="-2.17889">
        <ele>4.1</ele>
        <time>2020-06-05T14:03:30Z</time>
      </trkpt>
      <trkpt lat="47.29953" lon="-2.17892">
        <ele>4</ele>
        <time>2020-06-05T14:03:31Z</time>
      </trkpt>
      <trkpt lat="47.29958" lon="-2.17891">
        <ele>4</ele>
        <time>2020-06-05T14:03:32Z</time>
      </trkpt>
      <trkpt lat="47.29962" lon="-2.17893">
        <ele>4</ele>
        <time>2020-06-05T14:03:33Z</time>
      </trkpt>
      <trkpt lat="47.29966" lon="-2.17893">
        <ele>4</ele>
        <time>2020-06-05T14:03:34Z</time>
      </trkpt>
      <trkpt lat="47.2997" lon="-2.17894">
        <ele>4</ele>
        <time>2020-06-05T14:03:35Z</time>
      </trkpt>
      <trkpt lat="47.29974" lon="-2.17895">
        <ele>4</ele>
        <time>2020-06-05T14:03:36Z</time>
      </trkpt>
      <trkpt lat="47.29978" lon="-2.17895">
        <ele>3.9</ele>
        <time>2020-06-05T14:03:37Z</time>
      </trkpt>
      <trkpt lat="47.29983" lon="-2.17896">
        <ele>3.9</ele>
        <time>2020-06-05T14:03:38Z</time>
      </trkpt>
      <trkpt lat="47.29987" lon="-2.17896">
        <ele>3.9</ele>
        <time>2020-06-05T14:03:39Z</time>
      </trkpt>
      <trkpt lat="47.29991" lon="-2.17895">
        <ele>3.8</ele>
        <time>2020-06-05T14:03:40Z</time>
      </trkpt>
      <trkpt lat="47.29995" lon="-2.17894">
        <ele>3.8</ele>
        <time>2020-06-05T14:03:41Z</time>
      </trkpt>
      <trkpt lat="47.29999" lon="-2.17894">
        <ele>3.7</ele>
        <time>2020-06-05T14:03:42Z</time>
      </trkpt>
      <trkpt lat="47.30002" lon="-2.17893">
        <ele>3.7</ele>
        <time>2020-06-05T14:03:43Z</time>
      </trkpt>
      <trkpt lat="47.30006" lon="-2.17892">
        <ele>3.6</ele>
        <time>2020-06-05T14:03:44Z</time>
      </trkpt>
      <trkpt lat="47.3001" lon="-2.17891">
        <ele>3.6</ele>
        <time>2020-06-05T14:03:45Z</time>
      </trkpt>
      <trkpt lat="47.30014" lon="-2.17891">
        <ele>3.6</ele>
        <time>2020-06-05T14:03:46Z</time>
      </trkpt>
      <trkpt lat="47.30017" lon="-2.17889">
        <ele>3.6</ele>
        <time>2020-06-05T14:03:47Z</time>
      </trkpt>
      <trkpt lat="47.30021" lon="-2.17887">
        <ele>3.5</ele>
        <time>2020-06-05T14:03:48Z</time>
      </trkpt>
      <trkpt lat="47.30024" lon="-2.17885">
        <ele>3.5</ele>
        <time>2020-06-05T14:03:49Z</time>
      </trkpt>
      <trkpt lat="47.30027" lon="-2.17882">
        <ele>3.5</ele>
        <time>2020-06-05T14:03:50Z</time>
      </trkpt>
      <trkpt lat="47.30029" lon="-2.1788">
        <ele>3.5</ele>
        <time>2020-06-05T14:03:51Z</time>
      </trkpt>
      <trkpt lat="47.30031" lon="-2.17876">
        <ele>3.5</ele>
        <time>2020-06-05T14:03:52Z</time>
      </trkpt>
      <trkpt lat="47.30034" lon="-2.17874">
        <ele>3.4</ele>
        <time>2020-06-05T14:03:53Z</time>
      </trkpt>
      <trkpt lat="47.30036" lon="-2.17871">
        <ele>3.4</ele>
        <time>2020-06-05T14:03:54Z</time>
      </trkpt>
      <trkpt lat="47.30038" lon="-2.17867">
        <ele>3.4</ele>
        <time>2020-06-05T14:03:55Z</time>
      </trkpt>
      <trkpt lat="47.3004" lon="-2.17863">
        <ele>3.4</ele>
        <time>2020-06-05T14:03:56Z</time>
      </trkpt>
      <trkpt lat="47.30042" lon="-2.17858">
        <ele>3.4</ele>
        <time>2020-06-05T14:03:57Z</time>
      </trkpt>
      <trkpt lat="47.30044" lon="-2.17854">
        <ele>3.4</ele>
        <time>2020-06-05T14:03:58Z</time>
      </trkpt>
      <trkpt lat="47.30046" lon="-2.1785">
        <ele>3.4</ele>
        <time>2020-06-05T14:03:59Z</time>
      </trkpt>
      <trkpt lat="47.30048" lon="-2.17847">
        <ele>3.4</ele>
        <time>2020-06-05T14:04:00Z</time>
      </trkpt>
      <trkpt lat="47.30051" lon="-2.17842">
        <ele>3.4</ele>
        <time>2020-06-05T14:04:01Z</time>
      </trkpt>
      <trkpt lat="47.30052" lon="-2.17837">
        <ele>3.4</ele>
        <time>2020-06-05T14:04:02Z</time>
      </trkpt>
      <trkpt lat="47.30054" lon="-2.17832">
        <ele>3.4</ele>
        <time>2020-06-05T14:04:03Z</time>
      </trkpt>
      <trkpt lat="47.30056" lon="-2.17828">
        <ele>3.4</ele>
        <time>2020-06-05T14:04:04Z</time>
      </trkpt>
      <trkpt lat="47.30058" lon="-2.17824">
        <ele>3.4</ele>
        <time>2020-06-05T14:04:05Z</time>
      </trkpt>
      <trkpt lat="47.30061" lon="-2.1782">
        <ele>3.4</ele>
        <time>2020-06-05T14:04:06Z</time>
      </trkpt>
      <trkpt lat="47.30063" lon="-2.17816">
        <ele>3.4</ele>
        <time>2020-06-05T14:04:07Z</time>
      </trkpt>
      <trkpt lat="47.30065" lon="-2.17812">
        <ele>3.4</ele>
        <time>2020-06-05T14:04:08Z</time>
      </trkpt>
      <trkpt lat="47.30068" lon="-2.17808">
        <ele>3.3</ele>
        <time>2020-06-05T14:04:09Z</time>
      </trkpt>
      <trkpt lat="47.30071" lon="-2.17803">
        <ele>3.3</ele>
        <time>2020-06-05T14:04:10Z</time>
      </trkpt>
      <trkpt lat="47.30073" lon="-2.17799">
        <ele>3.3</ele>
        <time>2020-06-05T14:04:11Z</time>
      </trkpt>
      <trkpt lat="47.30075" lon="-2.17794">
        <ele>3.3</ele>
        <time>2020-06-05T14:04:12Z</time>
      </trkpt>
      <trkpt lat="47.30077" lon="-2.17789">
        <ele>3.3</ele>
        <time>2020-06-05T14:04:13Z</time>
      </trkpt>
      <trkpt lat="47.30079" lon="-2.17786">
        <ele>3.3</ele>
        <time>2020-06-05T14:04:14Z</time>
      </trkpt>
      <trkpt lat="47.30082" lon="-2.17781">
        <ele>3.3</ele>
        <time>2020-06-05T14:04:15Z</time>
      </trkpt>
      <trkpt lat="47.30085" lon="-2.17776">
        <ele>3.3</ele>
        <time>2020-06-05T14:04:16Z</time>
      </trkpt>
      <trkpt lat="47.30089" lon="-2.17772">
        <ele>3.2</ele>
        <time>2020-06-05T14:04:17Z</time>
      </trkpt>
      <trkpt lat="47.30092" lon="-2.1777">
        <ele>3.2</ele>
        <time>2020-06-05T14:04:18Z</time>
      </trkpt>
      <trkpt lat="47.30095" lon="-2.17766">
        <ele>3.2</ele>
        <time>2020-06-05T14:04:19Z</time>
      </trkpt>
      <trkpt lat="47.30098" lon="-2.17763">
        <ele>3.2</ele>
        <time>2020-06-05T14:04:20Z</time>
      </trkpt>
      <trkpt lat="47.30101" lon="-2.17761">
        <ele>3.2</ele>
        <time>2020-06-05T14:04:21Z</time>
      </trkpt>
      <trkpt lat="47.30103" lon="-2.17758">
        <ele>3.2</ele>
        <time>2020-06-05T14:04:22Z</time>
      </trkpt>
      <trkpt lat="47.30104" lon="-2.17757">
        <ele>3.2</ele>
        <time>2020-06-05T14:04:23Z</time>
      </trkpt>
      <trkpt lat="47.30103" lon="-2.17757">
        <ele>3.2</ele>
        <time>2020-06-05T14:04:24Z</time>
      </trkpt>
      <trkpt lat="47.30103" lon="-2.17757">
        <ele>3.2</ele>
        <time>2020-06-05T14:04:25Z</time>
      </trkpt>
      <trkpt lat="47.30103" lon="-2.17756">
        <ele>3.3</ele>
        <time>2020-06-05T14:04:26Z</time>
      </trkpt>
      <trkpt lat="47.30103" lon="-2.17756">
        <ele>3.3</ele>
        <time>2020-06-05T14:04:27Z</time>
      </trkpt>
      <trkpt lat="47.30104" lon="-2.17755">
        <ele>3.3</ele>
        <time>2020-06-05T14:04:28Z</time>
      </trkpt>
      <trkpt lat="47.30104" lon="-2.17755">
        <ele>3.3</ele>
        <time>2020-06-05T14:04:29Z</time>
      </trkpt>
      <trkpt lat="47.30104" lon="-2.17754">
        <ele>3.3</ele>
        <time>2020-06-05T14:04:30Z</time>
      </trkpt>
      <trkpt lat="47.30104" lon="-2.17753">
        <ele>3.3</ele>
        <time>2020-06-05T14:04:31Z</time>
      </trkpt>
      <trkpt lat="47.30104" lon="-2.17753">
        <ele>3.3</ele>
        <time>2020-06-05T14:04:32Z</time>
      </trkpt>
      <trkpt lat="47.30105" lon="-2.17753">
        <ele>3.3</ele>
        <time>2020-06-05T14:04:33Z</time>
      </trkpt>
      <trkpt lat="47.30105" lon="-2.17753">
        <ele>3.3</ele>
        <time>2020-06-05T14:04:34Z</time>
      </trkpt>
      <trkpt lat="47.30105" lon="-2.17753">
        <ele>3.3</ele>
        <time>2020-06-05T14:04:35Z</time>
      </trkpt>
      <trkpt lat="47.30105" lon="-2.17752">
        <ele>3.3</ele>
        <time>2020-06-05T14:04:36Z</time>
      </trkpt>
      <trkpt lat="47.30105" lon="-2.17753">
        <ele>3.3</ele>
        <time>2020-06-05T14:04:37Z</time>
      </trkpt>
      <trkpt lat="47.30106" lon="-2.17753">
        <ele>3.3</ele>
        <time>2020-06-05T14:04:38Z</time>
      </trkpt>
      <trkpt lat="47.30106" lon="-2.17753">
        <ele>3.3</ele>
        <time>2020-06-05T14:04:39Z</time>
      </trkpt>
      <trkpt lat="47.30106" lon="-2.17753">
        <ele>3.3</ele>
        <time>2020-06-05T14:04:40Z</time>
      </trkpt>
    </trkseg>
  </trk>
</gpx>